<?xml version="1.0" encoding="UTF-8" standalone="no" ?>
<gpx xmlns="http://www.topografix.com/GPX/1/1" xmlns:xsi="http://www.w3.org/2001/XMLSchema-instance" xsi:schemaLocation="http://www.topografix.com/GPX/1/1 http://www.topografix.com/GPX/1/1/gpx.xsd" version="1.1" creator="VisuGPX - https://www.visugpx.com">
  <metadata>
    <name>Boucle à Meyzieu </name>
    <desc><![CDATA[Des ronces, de l'urbain et mon record en km]]></desc>
  </metadata>
  <trk>
    <name><![CDATA[2023 07 11 boucle des surprises]]></name>
    <trkseg>
      <trkpt lat="45.78047" lon="5.01002">
        <ele>204.10905</ele>
        <time>2023-07-11T06:53:33.000Z</time>
      </trkpt>
      <trkpt lat="45.78045" lon="5.01002">
        <ele>203.76036</ele>
        <time>2023-07-11T06:53:44.000Z</time>
      </trkpt>
      <trkpt lat="45.78042" lon="5.01001">
        <ele>203.5791</ele>
        <time>2023-07-11T06:53:46.000Z</time>
      </trkpt>
      <trkpt lat="45.7804" lon="5.01">
        <ele>203.52188</ele>
        <time>2023-07-11T06:53:47.000Z</time>
      </trkpt>
      <trkpt lat="45.78039" lon="5.00998">
        <ele>203.55423</ele>
        <time>2023-07-11T06:53:48.000Z</time>
      </trkpt>
      <trkpt lat="45.78038" lon="5.00995">
        <ele>203.57372</ele>
        <time>2023-07-11T06:53:49.000Z</time>
      </trkpt>
      <trkpt lat="45.78038" lon="5.00992">
        <ele>203.68375</ele>
        <time>2023-07-11T06:53:50.000Z</time>
      </trkpt>
      <trkpt lat="45.78038" lon="5.00989">
        <ele>203.67831</ele>
        <time>2023-07-11T06:53:51.000Z</time>
      </trkpt>
      <trkpt lat="45.78039" lon="5.00986">
        <ele>203.61401</ele>
        <time>2023-07-11T06:53:52.000Z</time>
      </trkpt>
      <trkpt lat="45.78039" lon="5.00983">
        <ele>203.63274</ele>
        <time>2023-07-11T06:53:53.000Z</time>
      </trkpt>
      <trkpt lat="45.78039" lon="5.00979">
        <ele>203.48195</ele>
        <time>2023-07-11T06:53:54.000Z</time>
      </trkpt>
      <trkpt lat="45.78039" lon="5.00975">
        <ele>203.37376</ele>
        <time>2023-07-11T06:53:56.000Z</time>
      </trkpt>
      <trkpt lat="45.78041" lon="5.00971">
        <ele>203.26195</ele>
        <time>2023-07-11T06:53:58.000Z</time>
      </trkpt>
      <trkpt lat="45.78042" lon="5.0097">
        <ele>203.15749</ele>
        <time>2023-07-11T06:53:59.000Z</time>
      </trkpt>
      <trkpt lat="45.78045" lon="5.00969">
        <ele>203.06032</ele>
        <time>2023-07-11T06:54:00.000Z</time>
      </trkpt>
      <trkpt lat="45.78048" lon="5.00968">
        <ele>202.98688</ele>
        <time>2023-07-11T06:54:01.000Z</time>
      </trkpt>
      <trkpt lat="45.78051" lon="5.00968">
        <ele>202.94093</ele>
        <time>2023-07-11T06:54:02.000Z</time>
      </trkpt>
      <trkpt lat="45.78054" lon="5.00969">
        <ele>202.86908</ele>
        <time>2023-07-11T06:54:03.000Z</time>
      </trkpt>
      <trkpt lat="45.78057" lon="5.00969">
        <ele>202.78943</ele>
        <time>2023-07-11T06:54:04.000Z</time>
      </trkpt>
      <trkpt lat="45.78061" lon="5.0097">
        <ele>202.71114</ele>
        <time>2023-07-11T06:54:05.000Z</time>
      </trkpt>
      <trkpt lat="45.78064" lon="5.0097">
        <ele>202.56599</ele>
        <time>2023-07-11T06:54:06.000Z</time>
      </trkpt>
      <trkpt lat="45.78068" lon="5.0097">
        <ele>202.41466</ele>
        <time>2023-07-11T06:54:07.000Z</time>
      </trkpt>
      <trkpt lat="45.78071" lon="5.0097">
        <ele>202.29321</ele>
        <time>2023-07-11T06:54:08.000Z</time>
      </trkpt>
      <trkpt lat="45.78075" lon="5.0097">
        <ele>202.15282</ele>
        <time>2023-07-11T06:54:09.000Z</time>
      </trkpt>
      <trkpt lat="45.78078" lon="5.00971">
        <ele>201.98286</ele>
        <time>2023-07-11T06:54:10.000Z</time>
      </trkpt>
      <trkpt lat="45.78082" lon="5.00971">
        <ele>201.82011</ele>
        <time>2023-07-11T06:54:11.000Z</time>
      </trkpt>
      <trkpt lat="45.78086" lon="5.00971">
        <ele>201.67438</ele>
        <time>2023-07-11T06:54:12.000Z</time>
      </trkpt>
      <trkpt lat="45.78089" lon="5.00971">
        <ele>201.59639</ele>
        <time>2023-07-11T06:54:13.000Z</time>
      </trkpt>
      <trkpt lat="45.78092" lon="5.00971">
        <ele>201.44159</ele>
        <time>2023-07-11T06:54:14.000Z</time>
      </trkpt>
      <trkpt lat="45.78096" lon="5.00971">
        <ele>201.26224</ele>
        <time>2023-07-11T06:54:15.000Z</time>
      </trkpt>
      <trkpt lat="45.78099" lon="5.00971">
        <ele>201.18701</ele>
        <time>2023-07-11T06:54:16.000Z</time>
      </trkpt>
      <trkpt lat="45.78103" lon="5.00971">
        <ele>201.09833</ele>
        <time>2023-07-11T06:54:17.000Z</time>
      </trkpt>
      <trkpt lat="45.78106" lon="5.00971">
        <ele>201.03247</ele>
        <time>2023-07-11T06:54:18.000Z</time>
      </trkpt>
      <trkpt lat="45.78109" lon="5.00971">
        <ele>200.96669</ele>
        <time>2023-07-11T06:54:19.000Z</time>
      </trkpt>
      <trkpt lat="45.78113" lon="5.0097">
        <ele>200.90402</ele>
        <time>2023-07-11T06:54:20.000Z</time>
      </trkpt>
      <trkpt lat="45.78117" lon="5.0097">
        <ele>200.82382</ele>
        <time>2023-07-11T06:54:21.000Z</time>
      </trkpt>
      <trkpt lat="45.7812" lon="5.0097">
        <ele>200.73186</ele>
        <time>2023-07-11T06:54:22.000Z</time>
      </trkpt>
      <trkpt lat="45.78124" lon="5.0097">
        <ele>200.57213</ele>
        <time>2023-07-11T06:54:23.000Z</time>
      </trkpt>
      <trkpt lat="45.78128" lon="5.0097">
        <ele>200.43991</ele>
        <time>2023-07-11T06:54:24.000Z</time>
      </trkpt>
      <trkpt lat="45.78132" lon="5.0097">
        <ele>200.30634</ele>
        <time>2023-07-11T06:54:25.000Z</time>
      </trkpt>
      <trkpt lat="45.78136" lon="5.0097">
        <ele>200.16823</ele>
        <time>2023-07-11T06:54:26.000Z</time>
      </trkpt>
      <trkpt lat="45.7814" lon="5.0097">
        <ele>200.06844</ele>
        <time>2023-07-11T06:54:27.000Z</time>
      </trkpt>
      <trkpt lat="45.78144" lon="5.00969">
        <ele>199.94676</ele>
        <time>2023-07-11T06:54:28.000Z</time>
      </trkpt>
      <trkpt lat="45.78148" lon="5.00969">
        <ele>199.8389</ele>
        <time>2023-07-11T06:54:29.000Z</time>
      </trkpt>
      <trkpt lat="45.78152" lon="5.00969">
        <ele>199.75293</ele>
        <time>2023-07-11T06:54:30.000Z</time>
      </trkpt>
      <trkpt lat="45.78156" lon="5.00969">
        <ele>199.64691</ele>
        <time>2023-07-11T06:54:31.000Z</time>
      </trkpt>
      <trkpt lat="45.78161" lon="5.00969">
        <ele>199.63507</ele>
        <time>2023-07-11T06:54:32.000Z</time>
      </trkpt>
      <trkpt lat="45.78165" lon="5.00969">
        <ele>199.54581</ele>
        <time>2023-07-11T06:54:33.000Z</time>
      </trkpt>
      <trkpt lat="45.78169" lon="5.00969">
        <ele>199.55824</ele>
        <time>2023-07-11T06:54:34.000Z</time>
      </trkpt>
      <trkpt lat="45.78173" lon="5.00969">
        <ele>199.59976</ele>
        <time>2023-07-11T06:54:35.000Z</time>
      </trkpt>
      <trkpt lat="45.78178" lon="5.00968">
        <ele>199.6687</ele>
        <time>2023-07-11T06:54:36.000Z</time>
      </trkpt>
      <trkpt lat="45.78182" lon="5.00968">
        <ele>199.66187</ele>
        <time>2023-07-11T06:54:37.000Z</time>
      </trkpt>
      <trkpt lat="45.78187" lon="5.00968">
        <ele>199.66559</ele>
        <time>2023-07-11T06:54:38.000Z</time>
      </trkpt>
      <trkpt lat="45.78191" lon="5.00968">
        <ele>199.68634</ele>
        <time>2023-07-11T06:54:39.000Z</time>
      </trkpt>
      <trkpt lat="45.78195" lon="5.00968">
        <ele>199.70132</ele>
        <time>2023-07-11T06:54:40.000Z</time>
      </trkpt>
      <trkpt lat="45.78199" lon="5.00968">
        <ele>199.7352</ele>
        <time>2023-07-11T06:54:41.000Z</time>
      </trkpt>
      <trkpt lat="45.78204" lon="5.00968">
        <ele>199.74847</ele>
        <time>2023-07-11T06:54:42.000Z</time>
      </trkpt>
      <trkpt lat="45.78208" lon="5.00968">
        <ele>199.82924</ele>
        <time>2023-07-11T06:54:43.000Z</time>
      </trkpt>
      <trkpt lat="45.78212" lon="5.00968">
        <ele>199.8813</ele>
        <time>2023-07-11T06:54:44.000Z</time>
      </trkpt>
      <trkpt lat="45.78216" lon="5.00969">
        <ele>199.94101</ele>
        <time>2023-07-11T06:54:45.000Z</time>
      </trkpt>
      <trkpt lat="45.7822" lon="5.00969">
        <ele>199.99161</ele>
        <time>2023-07-11T06:54:46.000Z</time>
      </trkpt>
      <trkpt lat="45.78224" lon="5.00969">
        <ele>200.03346</ele>
        <time>2023-07-11T06:54:47.000Z</time>
      </trkpt>
      <trkpt lat="45.78228" lon="5.00969">
        <ele>200.07834</ele>
        <time>2023-07-11T06:54:48.000Z</time>
      </trkpt>
      <trkpt lat="45.78231" lon="5.00969">
        <ele>200.11453</ele>
        <time>2023-07-11T06:54:49.000Z</time>
      </trkpt>
      <trkpt lat="45.78235" lon="5.00968">
        <ele>200.10043</ele>
        <time>2023-07-11T06:54:50.000Z</time>
      </trkpt>
      <trkpt lat="45.78239" lon="5.00968">
        <ele>200.10883</ele>
        <time>2023-07-11T06:54:51.000Z</time>
      </trkpt>
      <trkpt lat="45.78242" lon="5.00968">
        <ele>199.97583</ele>
        <time>2023-07-11T06:54:52.000Z</time>
      </trkpt>
      <trkpt lat="45.78244" lon="5.00968">
        <ele>199.88954</ele>
        <time>2023-07-11T06:54:53.000Z</time>
      </trkpt>
      <trkpt lat="45.78247" lon="5.00968">
        <ele>199.81898</ele>
        <time>2023-07-11T06:54:54.000Z</time>
      </trkpt>
      <trkpt lat="45.78249" lon="5.00968">
        <ele>199.70987</ele>
        <time>2023-07-11T06:54:55.000Z</time>
      </trkpt>
      <trkpt lat="45.7825" lon="5.00967">
        <ele>199.53603</ele>
        <time>2023-07-11T06:54:57.000Z</time>
      </trkpt>
      <trkpt lat="45.78254" lon="5.00966">
        <ele>199.5004</ele>
        <time>2023-07-11T06:55:05.000Z</time>
      </trkpt>
      <trkpt lat="45.78258" lon="5.00963">
        <ele>199.49747</ele>
        <time>2023-07-11T06:55:06.000Z</time>
      </trkpt>
      <trkpt lat="45.78259" lon="5.00956">
        <ele>199.47566</ele>
        <time>2023-07-11T06:55:07.000Z</time>
      </trkpt>
      <trkpt lat="45.78259" lon="5.0095">
        <ele>199.46684</ele>
        <time>2023-07-11T06:55:08.000Z</time>
      </trkpt>
      <trkpt lat="45.78258" lon="5.00943">
        <ele>199.45325</ele>
        <time>2023-07-11T06:55:09.000Z</time>
      </trkpt>
      <trkpt lat="45.78256" lon="5.00938">
        <ele>199.48373</ele>
        <time>2023-07-11T06:55:10.000Z</time>
      </trkpt>
      <trkpt lat="45.78255" lon="5.00932">
        <ele>199.54752</ele>
        <time>2023-07-11T06:55:11.000Z</time>
      </trkpt>
      <trkpt lat="45.78253" lon="5.00927">
        <ele>199.56277</ele>
        <time>2023-07-11T06:55:12.000Z</time>
      </trkpt>
      <trkpt lat="45.78253" lon="5.00921">
        <ele>199.58305</ele>
        <time>2023-07-11T06:55:13.000Z</time>
      </trkpt>
      <trkpt lat="45.78255" lon="5.00915">
        <ele>199.63263</ele>
        <time>2023-07-11T06:55:14.000Z</time>
      </trkpt>
      <trkpt lat="45.78259" lon="5.00913">
        <ele>199.68277</ele>
        <time>2023-07-11T06:55:15.000Z</time>
      </trkpt>
      <trkpt lat="45.78263" lon="5.00914">
        <ele>199.75232</ele>
        <time>2023-07-11T06:55:16.000Z</time>
      </trkpt>
      <trkpt lat="45.78268" lon="5.00916">
        <ele>199.82803</ele>
        <time>2023-07-11T06:55:17.000Z</time>
      </trkpt>
      <trkpt lat="45.78273" lon="5.0092">
        <ele>199.9395</ele>
        <time>2023-07-11T06:55:18.000Z</time>
      </trkpt>
      <trkpt lat="45.78277" lon="5.00922">
        <ele>200.04095</ele>
        <time>2023-07-11T06:55:19.000Z</time>
      </trkpt>
      <trkpt lat="45.78281" lon="5.00924">
        <ele>200.15147</ele>
        <time>2023-07-11T06:55:20.000Z</time>
      </trkpt>
      <trkpt lat="45.78285" lon="5.00927">
        <ele>200.30075</ele>
        <time>2023-07-11T06:55:21.000Z</time>
      </trkpt>
      <trkpt lat="45.7829" lon="5.00929">
        <ele>200.46858</ele>
        <time>2023-07-11T06:55:22.000Z</time>
      </trkpt>
      <trkpt lat="45.78294" lon="5.00931">
        <ele>200.64069</ele>
        <time>2023-07-11T06:55:23.000Z</time>
      </trkpt>
      <trkpt lat="45.78299" lon="5.00933">
        <ele>200.76704</ele>
        <time>2023-07-11T06:55:24.000Z</time>
      </trkpt>
      <trkpt lat="45.78303" lon="5.00936">
        <ele>200.84702</ele>
        <time>2023-07-11T06:55:25.000Z</time>
      </trkpt>
      <trkpt lat="45.78308" lon="5.0094">
        <ele>200.87704</ele>
        <time>2023-07-11T06:55:26.000Z</time>
      </trkpt>
      <trkpt lat="45.78312" lon="5.00943">
        <ele>200.94472</ele>
        <time>2023-07-11T06:55:27.000Z</time>
      </trkpt>
      <trkpt lat="45.78317" lon="5.00945">
        <ele>201.02721</ele>
        <time>2023-07-11T06:55:28.000Z</time>
      </trkpt>
      <trkpt lat="45.78322" lon="5.00948">
        <ele>201.07832</ele>
        <time>2023-07-11T06:55:29.000Z</time>
      </trkpt>
      <trkpt lat="45.78327" lon="5.00951">
        <ele>201.10098</ele>
        <time>2023-07-11T06:55:30.000Z</time>
      </trkpt>
      <trkpt lat="45.78331" lon="5.00954">
        <ele>201.03632</ele>
        <time>2023-07-11T06:55:31.000Z</time>
      </trkpt>
      <trkpt lat="45.78336" lon="5.00956">
        <ele>201.04765</ele>
        <time>2023-07-11T06:55:32.000Z</time>
      </trkpt>
      <trkpt lat="45.78339" lon="5.00958">
        <ele>201.04221</ele>
        <time>2023-07-11T06:55:33.000Z</time>
      </trkpt>
      <trkpt lat="45.78345" lon="5.00961">
        <ele>200.99641</ele>
        <time>2023-07-11T06:55:34.000Z</time>
      </trkpt>
      <trkpt lat="45.7835" lon="5.00964">
        <ele>200.97672</ele>
        <time>2023-07-11T06:55:35.000Z</time>
      </trkpt>
      <trkpt lat="45.78354" lon="5.00965">
        <ele>200.88379</ele>
        <time>2023-07-11T06:55:36.000Z</time>
      </trkpt>
      <trkpt lat="45.7836" lon="5.00968">
        <ele>200.80519</ele>
        <time>2023-07-11T06:55:37.000Z</time>
      </trkpt>
      <trkpt lat="45.78365" lon="5.0097">
        <ele>200.73349</ele>
        <time>2023-07-11T06:55:38.000Z</time>
      </trkpt>
      <trkpt lat="45.78369" lon="5.00974">
        <ele>200.74249</ele>
        <time>2023-07-11T06:55:39.000Z</time>
      </trkpt>
      <trkpt lat="45.78374" lon="5.00977">
        <ele>200.76401</ele>
        <time>2023-07-11T06:55:40.000Z</time>
      </trkpt>
      <trkpt lat="45.78379" lon="5.00979">
        <ele>200.7438</ele>
        <time>2023-07-11T06:55:41.000Z</time>
      </trkpt>
      <trkpt lat="45.78384" lon="5.00982">
        <ele>200.54861</ele>
        <time>2023-07-11T06:55:42.000Z</time>
      </trkpt>
      <trkpt lat="45.78389" lon="5.00985">
        <ele>200.35872</ele>
        <time>2023-07-11T06:55:43.000Z</time>
      </trkpt>
      <trkpt lat="45.78394" lon="5.00988">
        <ele>200.24228</ele>
        <time>2023-07-11T06:55:44.000Z</time>
      </trkpt>
      <trkpt lat="45.78399" lon="5.00991">
        <ele>200.10817</ele>
        <time>2023-07-11T06:55:45.000Z</time>
      </trkpt>
      <trkpt lat="45.78403" lon="5.00994">
        <ele>199.96548</ele>
        <time>2023-07-11T06:55:46.000Z</time>
      </trkpt>
      <trkpt lat="45.78408" lon="5.00997">
        <ele>199.77615</ele>
        <time>2023-07-11T06:55:47.000Z</time>
      </trkpt>
      <trkpt lat="45.78413" lon="5.01">
        <ele>199.56644</ele>
        <time>2023-07-11T06:55:48.000Z</time>
      </trkpt>
      <trkpt lat="45.78417" lon="5.01003">
        <ele>199.37991</ele>
        <time>2023-07-11T06:55:49.000Z</time>
      </trkpt>
      <trkpt lat="45.78422" lon="5.01006">
        <ele>199.19504</ele>
        <time>2023-07-11T06:55:50.000Z</time>
      </trkpt>
      <trkpt lat="45.78427" lon="5.01008">
        <ele>199.12608</ele>
        <time>2023-07-11T06:55:51.000Z</time>
      </trkpt>
      <trkpt lat="45.78432" lon="5.01011">
        <ele>199.03038</ele>
        <time>2023-07-11T06:55:52.000Z</time>
      </trkpt>
      <trkpt lat="45.78436" lon="5.01013">
        <ele>198.94289</ele>
        <time>2023-07-11T06:55:53.000Z</time>
      </trkpt>
      <trkpt lat="45.78441" lon="5.01016">
        <ele>198.90215</ele>
        <time>2023-07-11T06:55:54.000Z</time>
      </trkpt>
      <trkpt lat="45.78446" lon="5.01018">
        <ele>198.86008</ele>
        <time>2023-07-11T06:55:55.000Z</time>
      </trkpt>
      <trkpt lat="45.78451" lon="5.01022">
        <ele>198.8945</ele>
        <time>2023-07-11T06:55:56.000Z</time>
      </trkpt>
      <trkpt lat="45.78457" lon="5.01024">
        <ele>198.94171</ele>
        <time>2023-07-11T06:55:57.000Z</time>
      </trkpt>
      <trkpt lat="45.78462" lon="5.01028">
        <ele>198.96591</ele>
        <time>2023-07-11T06:55:58.000Z</time>
      </trkpt>
      <trkpt lat="45.78467" lon="5.0103">
        <ele>198.79416</ele>
        <time>2023-07-11T06:55:59.000Z</time>
      </trkpt>
      <trkpt lat="45.78472" lon="5.01031">
        <ele>198.64063</ele>
        <time>2023-07-11T06:56:00.000Z</time>
      </trkpt>
      <trkpt lat="45.78476" lon="5.01033">
        <ele>198.46774</ele>
        <time>2023-07-11T06:56:01.000Z</time>
      </trkpt>
      <trkpt lat="45.78481" lon="5.01035">
        <ele>198.44005</ele>
        <time>2023-07-11T06:56:02.000Z</time>
      </trkpt>
      <trkpt lat="45.78486" lon="5.01037">
        <ele>198.39136</ele>
        <time>2023-07-11T06:56:03.000Z</time>
      </trkpt>
      <trkpt lat="45.78491" lon="5.01039">
        <ele>198.33363</ele>
        <time>2023-07-11T06:56:04.000Z</time>
      </trkpt>
      <trkpt lat="45.78496" lon="5.01041">
        <ele>198.27094</ele>
        <time>2023-07-11T06:56:05.000Z</time>
      </trkpt>
      <trkpt lat="45.785" lon="5.01043">
        <ele>198.22134</ele>
        <time>2023-07-11T06:56:06.000Z</time>
      </trkpt>
      <trkpt lat="45.78506" lon="5.01045">
        <ele>198.17567</ele>
        <time>2023-07-11T06:56:07.000Z</time>
      </trkpt>
      <trkpt lat="45.78511" lon="5.01047">
        <ele>198.1049</ele>
        <time>2023-07-11T06:56:08.000Z</time>
      </trkpt>
      <trkpt lat="45.78516" lon="5.01049">
        <ele>198.03439</ele>
        <time>2023-07-11T06:56:09.000Z</time>
      </trkpt>
      <trkpt lat="45.78521" lon="5.01051">
        <ele>197.95644</ele>
        <time>2023-07-11T06:56:10.000Z</time>
      </trkpt>
      <trkpt lat="45.78526" lon="5.01053">
        <ele>197.8363</ele>
        <time>2023-07-11T06:56:11.000Z</time>
      </trkpt>
      <trkpt lat="45.78532" lon="5.01056">
        <ele>197.69899</ele>
        <time>2023-07-11T06:56:12.000Z</time>
      </trkpt>
      <trkpt lat="45.78537" lon="5.01059">
        <ele>197.55911</ele>
        <time>2023-07-11T06:56:13.000Z</time>
      </trkpt>
      <trkpt lat="45.78543" lon="5.01062">
        <ele>197.37125</ele>
        <time>2023-07-11T06:56:14.000Z</time>
      </trkpt>
      <trkpt lat="45.78548" lon="5.01064">
        <ele>197.18394</ele>
        <time>2023-07-11T06:56:15.000Z</time>
      </trkpt>
      <trkpt lat="45.78553" lon="5.01066">
        <ele>196.97943</ele>
        <time>2023-07-11T06:56:16.000Z</time>
      </trkpt>
      <trkpt lat="45.78558" lon="5.01069">
        <ele>196.72702</ele>
        <time>2023-07-11T06:56:17.000Z</time>
      </trkpt>
      <trkpt lat="45.78564" lon="5.01072">
        <ele>196.49916</ele>
        <time>2023-07-11T06:56:18.000Z</time>
      </trkpt>
      <trkpt lat="45.7857" lon="5.01075">
        <ele>196.35776</ele>
        <time>2023-07-11T06:56:19.000Z</time>
      </trkpt>
      <trkpt lat="45.78576" lon="5.01079">
        <ele>196.17667</ele>
        <time>2023-07-11T06:56:20.000Z</time>
      </trkpt>
      <trkpt lat="45.78582" lon="5.01084">
        <ele>196.00783</ele>
        <time>2023-07-11T06:56:21.000Z</time>
      </trkpt>
      <trkpt lat="45.78588" lon="5.0109">
        <ele>195.82939</ele>
        <time>2023-07-11T06:56:22.000Z</time>
      </trkpt>
      <trkpt lat="45.78593" lon="5.01095">
        <ele>195.67429</ele>
        <time>2023-07-11T06:56:23.000Z</time>
      </trkpt>
      <trkpt lat="45.78599" lon="5.011">
        <ele>195.51772</ele>
        <time>2023-07-11T06:56:24.000Z</time>
      </trkpt>
      <trkpt lat="45.78606" lon="5.01104">
        <ele>195.35086</ele>
        <time>2023-07-11T06:56:25.000Z</time>
      </trkpt>
      <trkpt lat="45.78613" lon="5.01106">
        <ele>195.16438</ele>
        <time>2023-07-11T06:56:26.000Z</time>
      </trkpt>
      <trkpt lat="45.7862" lon="5.01106">
        <ele>194.97183</ele>
        <time>2023-07-11T06:56:27.000Z</time>
      </trkpt>
      <trkpt lat="45.78628" lon="5.01107">
        <ele>194.92305</ele>
        <time>2023-07-11T06:56:28.000Z</time>
      </trkpt>
      <trkpt lat="45.78635" lon="5.01106">
        <ele>194.66887</ele>
        <time>2023-07-11T06:56:29.000Z</time>
      </trkpt>
      <trkpt lat="45.78642" lon="5.01107">
        <ele>194.40085</ele>
        <time>2023-07-11T06:56:30.000Z</time>
      </trkpt>
      <trkpt lat="45.7865" lon="5.01108">
        <ele>194.03668</ele>
        <time>2023-07-11T06:56:31.000Z</time>
      </trkpt>
      <trkpt lat="45.78656" lon="5.01108">
        <ele>193.69588</ele>
        <time>2023-07-11T06:56:32.000Z</time>
      </trkpt>
      <trkpt lat="45.78663" lon="5.01108">
        <ele>193.35381</ele>
        <time>2023-07-11T06:56:33.000Z</time>
      </trkpt>
      <trkpt lat="45.78669" lon="5.01108">
        <ele>193.03189</ele>
        <time>2023-07-11T06:56:34.000Z</time>
      </trkpt>
      <trkpt lat="45.78676" lon="5.01109">
        <ele>192.69299</ele>
        <time>2023-07-11T06:56:35.000Z</time>
      </trkpt>
      <trkpt lat="45.78682" lon="5.01108">
        <ele>192.34021</ele>
        <time>2023-07-11T06:56:36.000Z</time>
      </trkpt>
      <trkpt lat="45.78688" lon="5.01109">
        <ele>192.02785</ele>
        <time>2023-07-11T06:56:37.000Z</time>
      </trkpt>
      <trkpt lat="45.78694" lon="5.01109">
        <ele>191.71542</ele>
        <time>2023-07-11T06:56:38.000Z</time>
      </trkpt>
      <trkpt lat="45.787" lon="5.01109">
        <ele>191.42282</ele>
        <time>2023-07-11T06:56:39.000Z</time>
      </trkpt>
      <trkpt lat="45.78705" lon="5.01109">
        <ele>191.13329</ele>
        <time>2023-07-11T06:56:40.000Z</time>
      </trkpt>
      <trkpt lat="45.7871" lon="5.01109">
        <ele>190.88647</ele>
        <time>2023-07-11T06:56:41.000Z</time>
      </trkpt>
      <trkpt lat="45.78715" lon="5.01109">
        <ele>190.64757</ele>
        <time>2023-07-11T06:56:42.000Z</time>
      </trkpt>
      <trkpt lat="45.7872" lon="5.01109">
        <ele>190.39856</ele>
        <time>2023-07-11T06:56:43.000Z</time>
      </trkpt>
      <trkpt lat="45.78726" lon="5.0111">
        <ele>190.1635</ele>
        <time>2023-07-11T06:56:44.000Z</time>
      </trkpt>
      <trkpt lat="45.7873" lon="5.01109">
        <ele>189.95876</ele>
        <time>2023-07-11T06:56:45.000Z</time>
      </trkpt>
      <trkpt lat="45.78735" lon="5.0111">
        <ele>189.7709</ele>
        <time>2023-07-11T06:56:46.000Z</time>
      </trkpt>
      <trkpt lat="45.7874" lon="5.0111">
        <ele>189.59653</ele>
        <time>2023-07-11T06:56:47.000Z</time>
      </trkpt>
      <trkpt lat="45.78744" lon="5.01111">
        <ele>189.29942</ele>
        <time>2023-07-11T06:56:48.000Z</time>
      </trkpt>
      <trkpt lat="45.78748" lon="5.01113">
        <ele>189.20705</ele>
        <time>2023-07-11T06:56:49.000Z</time>
      </trkpt>
      <trkpt lat="45.78751" lon="5.01117">
        <ele>189.11105</ele>
        <time>2023-07-11T06:56:50.000Z</time>
      </trkpt>
      <trkpt lat="45.78753" lon="5.01124">
        <ele>189.13104</ele>
        <time>2023-07-11T06:56:51.000Z</time>
      </trkpt>
      <trkpt lat="45.78753" lon="5.01131">
        <ele>189.16457</ele>
        <time>2023-07-11T06:56:52.000Z</time>
      </trkpt>
      <trkpt lat="45.78753" lon="5.01138">
        <ele>189.19197</ele>
        <time>2023-07-11T06:56:53.000Z</time>
      </trkpt>
      <trkpt lat="45.78753" lon="5.01146">
        <ele>189.22696</ele>
        <time>2023-07-11T06:56:54.000Z</time>
      </trkpt>
      <trkpt lat="45.78753" lon="5.01154">
        <ele>189.25243</ele>
        <time>2023-07-11T06:56:55.000Z</time>
      </trkpt>
      <trkpt lat="45.78753" lon="5.01163">
        <ele>189.28481</ele>
        <time>2023-07-11T06:56:56.000Z</time>
      </trkpt>
      <trkpt lat="45.78752" lon="5.01172">
        <ele>189.26205</ele>
        <time>2023-07-11T06:56:57.000Z</time>
      </trkpt>
      <trkpt lat="45.78752" lon="5.01181">
        <ele>189.22037</ele>
        <time>2023-07-11T06:56:58.000Z</time>
      </trkpt>
      <trkpt lat="45.7875" lon="5.01191">
        <ele>189.20647</ele>
        <time>2023-07-11T06:56:59.000Z</time>
      </trkpt>
      <trkpt lat="45.78748" lon="5.012">
        <ele>189.17453</ele>
        <time>2023-07-11T06:57:00.000Z</time>
      </trkpt>
      <trkpt lat="45.78747" lon="5.01209">
        <ele>189.09969</ele>
        <time>2023-07-11T06:57:01.000Z</time>
      </trkpt>
      <trkpt lat="45.78745" lon="5.01219">
        <ele>189.02026</ele>
        <time>2023-07-11T06:57:02.000Z</time>
      </trkpt>
      <trkpt lat="45.78744" lon="5.01229">
        <ele>188.88226</ele>
        <time>2023-07-11T06:57:03.000Z</time>
      </trkpt>
      <trkpt lat="45.78743" lon="5.01239">
        <ele>188.73306</ele>
        <time>2023-07-11T06:57:04.000Z</time>
      </trkpt>
      <trkpt lat="45.78742" lon="5.01248">
        <ele>188.57944</ele>
        <time>2023-07-11T06:57:05.000Z</time>
      </trkpt>
      <trkpt lat="45.78742" lon="5.01257">
        <ele>188.42111</ele>
        <time>2023-07-11T06:57:06.000Z</time>
      </trkpt>
      <trkpt lat="45.78741" lon="5.01267">
        <ele>188.25389</ele>
        <time>2023-07-11T06:57:07.000Z</time>
      </trkpt>
      <trkpt lat="45.78741" lon="5.01276">
        <ele>188.08771</ele>
        <time>2023-07-11T06:57:08.000Z</time>
      </trkpt>
      <trkpt lat="45.7874" lon="5.01284">
        <ele>187.91061</ele>
        <time>2023-07-11T06:57:09.000Z</time>
      </trkpt>
      <trkpt lat="45.78739" lon="5.01293">
        <ele>187.74661</ele>
        <time>2023-07-11T06:57:10.000Z</time>
      </trkpt>
      <trkpt lat="45.78738" lon="5.013">
        <ele>187.55161</ele>
        <time>2023-07-11T06:57:11.000Z</time>
      </trkpt>
      <trkpt lat="45.78737" lon="5.01308">
        <ele>187.34746</ele>
        <time>2023-07-11T06:57:12.000Z</time>
      </trkpt>
      <trkpt lat="45.78736" lon="5.01315">
        <ele>187.14784</ele>
        <time>2023-07-11T06:57:13.000Z</time>
      </trkpt>
      <trkpt lat="45.78734" lon="5.01321">
        <ele>186.93454</ele>
        <time>2023-07-11T06:57:14.000Z</time>
      </trkpt>
      <trkpt lat="45.78734" lon="5.01328">
        <ele>186.72096</ele>
        <time>2023-07-11T06:57:15.000Z</time>
      </trkpt>
      <trkpt lat="45.78734" lon="5.01334">
        <ele>186.50533</ele>
        <time>2023-07-11T06:57:16.000Z</time>
      </trkpt>
      <trkpt lat="45.78734" lon="5.01339">
        <ele>186.31407</ele>
        <time>2023-07-11T06:57:17.000Z</time>
      </trkpt>
      <trkpt lat="45.78735" lon="5.01344">
        <ele>186.14357</ele>
        <time>2023-07-11T06:57:18.000Z</time>
      </trkpt>
      <trkpt lat="45.78739" lon="5.01347">
        <ele>185.94713</ele>
        <time>2023-07-11T06:57:19.000Z</time>
      </trkpt>
      <trkpt lat="45.78742" lon="5.01349">
        <ele>185.76225</ele>
        <time>2023-07-11T06:57:20.000Z</time>
      </trkpt>
      <trkpt lat="45.78745" lon="5.01351">
        <ele>185.64523</ele>
        <time>2023-07-11T06:57:21.000Z</time>
      </trkpt>
      <trkpt lat="45.78748" lon="5.01353">
        <ele>185.5266</ele>
        <time>2023-07-11T06:57:22.000Z</time>
      </trkpt>
      <trkpt lat="45.78752" lon="5.01355">
        <ele>185.47159</ele>
        <time>2023-07-11T06:57:23.000Z</time>
      </trkpt>
      <trkpt lat="45.78757" lon="5.01357">
        <ele>185.48166</ele>
        <time>2023-07-11T06:57:24.000Z</time>
      </trkpt>
      <trkpt lat="45.7876" lon="5.0136">
        <ele>185.47412</ele>
        <time>2023-07-11T06:57:25.000Z</time>
      </trkpt>
      <trkpt lat="45.78765" lon="5.01362">
        <ele>185.37764</ele>
        <time>2023-07-11T06:57:26.000Z</time>
      </trkpt>
      <trkpt lat="45.78769" lon="5.01364">
        <ele>185.2946</ele>
        <time>2023-07-11T06:57:27.000Z</time>
      </trkpt>
      <trkpt lat="45.78773" lon="5.01366">
        <ele>185.21024</ele>
        <time>2023-07-11T06:57:28.000Z</time>
      </trkpt>
      <trkpt lat="45.78778" lon="5.01368">
        <ele>185.12407</ele>
        <time>2023-07-11T06:57:29.000Z</time>
      </trkpt>
      <trkpt lat="45.78783" lon="5.01372">
        <ele>185.05971</ele>
        <time>2023-07-11T06:57:30.000Z</time>
      </trkpt>
      <trkpt lat="45.78787" lon="5.01376">
        <ele>185.01479</ele>
        <time>2023-07-11T06:57:31.000Z</time>
      </trkpt>
      <trkpt lat="45.7879" lon="5.01382">
        <ele>184.94342</ele>
        <time>2023-07-11T06:57:32.000Z</time>
      </trkpt>
      <trkpt lat="45.78794" lon="5.01384">
        <ele>184.9081</ele>
        <time>2023-07-11T06:57:33.000Z</time>
      </trkpt>
      <trkpt lat="45.78797" lon="5.01391">
        <ele>184.82761</ele>
        <time>2023-07-11T06:57:34.000Z</time>
      </trkpt>
      <trkpt lat="45.78798" lon="5.01396">
        <ele>184.71143</ele>
        <time>2023-07-11T06:57:35.000Z</time>
      </trkpt>
      <trkpt lat="45.78801" lon="5.01401">
        <ele>184.59108</ele>
        <time>2023-07-11T06:57:36.000Z</time>
      </trkpt>
      <trkpt lat="45.78801" lon="5.01405">
        <ele>184.47134</ele>
        <time>2023-07-11T06:57:37.000Z</time>
      </trkpt>
      <trkpt lat="45.78805" lon="5.01411">
        <ele>184.36769</ele>
        <time>2023-07-11T06:57:38.000Z</time>
      </trkpt>
      <trkpt lat="45.78806" lon="5.01417">
        <ele>184.26854</ele>
        <time>2023-07-11T06:57:39.000Z</time>
      </trkpt>
      <trkpt lat="45.78808" lon="5.01424">
        <ele>184.15909</ele>
        <time>2023-07-11T06:57:40.000Z</time>
      </trkpt>
      <trkpt lat="45.7881" lon="5.0143">
        <ele>183.97519</ele>
        <time>2023-07-11T06:57:41.000Z</time>
      </trkpt>
      <trkpt lat="45.78812" lon="5.01436">
        <ele>183.76816</ele>
        <time>2023-07-11T06:57:42.000Z</time>
      </trkpt>
      <trkpt lat="45.78814" lon="5.01443">
        <ele>183.54166</ele>
        <time>2023-07-11T06:57:43.000Z</time>
      </trkpt>
      <trkpt lat="45.78816" lon="5.0145">
        <ele>183.19032</ele>
        <time>2023-07-11T06:57:44.000Z</time>
      </trkpt>
      <trkpt lat="45.78818" lon="5.01457">
        <ele>182.83745</ele>
        <time>2023-07-11T06:57:45.000Z</time>
      </trkpt>
      <trkpt lat="45.78819" lon="5.01464">
        <ele>182.57864</ele>
        <time>2023-07-11T06:57:46.000Z</time>
      </trkpt>
      <trkpt lat="45.78821" lon="5.01471">
        <ele>182.34044</ele>
        <time>2023-07-11T06:57:47.000Z</time>
      </trkpt>
      <trkpt lat="45.78823" lon="5.01477">
        <ele>182.21591</ele>
        <time>2023-07-11T06:57:48.000Z</time>
      </trkpt>
      <trkpt lat="45.78825" lon="5.01483">
        <ele>182.08408</ele>
        <time>2023-07-11T06:57:49.000Z</time>
      </trkpt>
      <trkpt lat="45.78826" lon="5.01489">
        <ele>181.85919</ele>
        <time>2023-07-11T06:57:50.000Z</time>
      </trkpt>
      <trkpt lat="45.78828" lon="5.01495">
        <ele>181.6599</ele>
        <time>2023-07-11T06:57:51.000Z</time>
      </trkpt>
      <trkpt lat="45.7883" lon="5.01499">
        <ele>181.50308</ele>
        <time>2023-07-11T06:57:52.000Z</time>
      </trkpt>
      <trkpt lat="45.78832" lon="5.01505">
        <ele>181.42438</ele>
        <time>2023-07-11T06:57:53.000Z</time>
      </trkpt>
      <trkpt lat="45.78833" lon="5.0151">
        <ele>181.32327</ele>
        <time>2023-07-11T06:57:54.000Z</time>
      </trkpt>
      <trkpt lat="45.78834" lon="5.01515">
        <ele>181.29097</ele>
        <time>2023-07-11T06:57:55.000Z</time>
      </trkpt>
      <trkpt lat="45.78836" lon="5.01519">
        <ele>181.2478</ele>
        <time>2023-07-11T06:57:56.000Z</time>
      </trkpt>
      <trkpt lat="45.78838" lon="5.01524">
        <ele>181.21182</ele>
        <time>2023-07-11T06:57:57.000Z</time>
      </trkpt>
      <trkpt lat="45.7884" lon="5.01529">
        <ele>181.1938</ele>
        <time>2023-07-11T06:57:58.000Z</time>
      </trkpt>
      <trkpt lat="45.78841" lon="5.01533">
        <ele>181.14853</ele>
        <time>2023-07-11T06:57:59.000Z</time>
      </trkpt>
      <trkpt lat="45.78843" lon="5.01536">
        <ele>181.10162</ele>
        <time>2023-07-11T06:58:00.000Z</time>
      </trkpt>
      <trkpt lat="45.78844" lon="5.01539">
        <ele>181.07788</ele>
        <time>2023-07-11T06:58:01.000Z</time>
      </trkpt>
      <trkpt lat="45.78846" lon="5.01544">
        <ele>181.09196</ele>
        <time>2023-07-11T06:58:02.000Z</time>
      </trkpt>
      <trkpt lat="45.78847" lon="5.01549">
        <ele>181.19151</ele>
        <time>2023-07-11T06:58:03.000Z</time>
      </trkpt>
      <trkpt lat="45.78849" lon="5.01555">
        <ele>181.39813</ele>
        <time>2023-07-11T06:58:04.000Z</time>
      </trkpt>
      <trkpt lat="45.7885" lon="5.0156">
        <ele>181.62537</ele>
        <time>2023-07-11T06:58:05.000Z</time>
      </trkpt>
      <trkpt lat="45.78852" lon="5.01566">
        <ele>181.81107</ele>
        <time>2023-07-11T06:58:06.000Z</time>
      </trkpt>
      <trkpt lat="45.78854" lon="5.01573">
        <ele>181.99675</ele>
        <time>2023-07-11T06:58:07.000Z</time>
      </trkpt>
      <trkpt lat="45.78858" lon="5.01577">
        <ele>182.07591</ele>
        <time>2023-07-11T06:58:08.000Z</time>
      </trkpt>
      <trkpt lat="45.78862" lon="5.0158">
        <ele>182.17114</ele>
        <time>2023-07-11T06:58:09.000Z</time>
      </trkpt>
      <trkpt lat="45.78865" lon="5.01582">
        <ele>182.34392</ele>
        <time>2023-07-11T06:58:10.000Z</time>
      </trkpt>
      <trkpt lat="45.7887" lon="5.01584">
        <ele>182.52298</ele>
        <time>2023-07-11T06:58:11.000Z</time>
      </trkpt>
      <trkpt lat="45.78874" lon="5.01586">
        <ele>182.67282</ele>
        <time>2023-07-11T06:58:12.000Z</time>
      </trkpt>
      <trkpt lat="45.78879" lon="5.01588">
        <ele>182.71996</ele>
        <time>2023-07-11T06:58:13.000Z</time>
      </trkpt>
      <trkpt lat="45.78884" lon="5.01592">
        <ele>182.84746</ele>
        <time>2023-07-11T06:58:14.000Z</time>
      </trkpt>
      <trkpt lat="45.78888" lon="5.01595">
        <ele>182.95294</ele>
        <time>2023-07-11T06:58:15.000Z</time>
      </trkpt>
      <trkpt lat="45.78892" lon="5.01598">
        <ele>183.07564</ele>
        <time>2023-07-11T06:58:16.000Z</time>
      </trkpt>
      <trkpt lat="45.78896" lon="5.01602">
        <ele>183.20126</ele>
        <time>2023-07-11T06:58:17.000Z</time>
      </trkpt>
      <trkpt lat="45.789" lon="5.01605">
        <ele>183.29657</ele>
        <time>2023-07-11T06:58:18.000Z</time>
      </trkpt>
      <trkpt lat="45.78904" lon="5.01608">
        <ele>183.42978</ele>
        <time>2023-07-11T06:58:19.000Z</time>
      </trkpt>
      <trkpt lat="45.78907" lon="5.01612">
        <ele>183.577</ele>
        <time>2023-07-11T06:58:20.000Z</time>
      </trkpt>
      <trkpt lat="45.78911" lon="5.01617">
        <ele>183.72806</ele>
        <time>2023-07-11T06:58:21.000Z</time>
      </trkpt>
      <trkpt lat="45.78915" lon="5.01621">
        <ele>183.89795</ele>
        <time>2023-07-11T06:58:22.000Z</time>
      </trkpt>
      <trkpt lat="45.78917" lon="5.01626">
        <ele>183.97736</ele>
        <time>2023-07-11T06:58:23.000Z</time>
      </trkpt>
      <trkpt lat="45.7892" lon="5.01631">
        <ele>184.01486</ele>
        <time>2023-07-11T06:58:24.000Z</time>
      </trkpt>
      <trkpt lat="45.78922" lon="5.01636">
        <ele>183.97102</ele>
        <time>2023-07-11T06:58:25.000Z</time>
      </trkpt>
      <trkpt lat="45.78924" lon="5.01642">
        <ele>183.98421</ele>
        <time>2023-07-11T06:58:26.000Z</time>
      </trkpt>
      <trkpt lat="45.78926" lon="5.01649">
        <ele>183.99838</ele>
        <time>2023-07-11T06:58:27.000Z</time>
      </trkpt>
      <trkpt lat="45.78927" lon="5.01655">
        <ele>184.01291</ele>
        <time>2023-07-11T06:58:28.000Z</time>
      </trkpt>
      <trkpt lat="45.78929" lon="5.01662">
        <ele>184.04045</ele>
        <time>2023-07-11T06:58:29.000Z</time>
      </trkpt>
      <trkpt lat="45.78931" lon="5.01669">
        <ele>184.06583</ele>
        <time>2023-07-11T06:58:30.000Z</time>
      </trkpt>
      <trkpt lat="45.78933" lon="5.01674">
        <ele>184.02585</ele>
        <time>2023-07-11T06:58:31.000Z</time>
      </trkpt>
      <trkpt lat="45.78934" lon="5.01681">
        <ele>184.02042</ele>
        <time>2023-07-11T06:58:32.000Z</time>
      </trkpt>
      <trkpt lat="45.78936" lon="5.01687">
        <ele>184.00349</ele>
        <time>2023-07-11T06:58:33.000Z</time>
      </trkpt>
      <trkpt lat="45.78938" lon="5.01692">
        <ele>183.98483</ele>
        <time>2023-07-11T06:58:34.000Z</time>
      </trkpt>
      <trkpt lat="45.78939" lon="5.01699">
        <ele>183.97417</ele>
        <time>2023-07-11T06:58:35.000Z</time>
      </trkpt>
      <trkpt lat="45.7894" lon="5.01704">
        <ele>183.96706</ele>
        <time>2023-07-11T06:58:36.000Z</time>
      </trkpt>
      <trkpt lat="45.78942" lon="5.0171">
        <ele>183.95236</ele>
        <time>2023-07-11T06:58:37.000Z</time>
      </trkpt>
      <trkpt lat="45.78943" lon="5.01716">
        <ele>183.93602</ele>
        <time>2023-07-11T06:58:38.000Z</time>
      </trkpt>
      <trkpt lat="45.78945" lon="5.01722">
        <ele>183.91371</ele>
        <time>2023-07-11T06:58:39.000Z</time>
      </trkpt>
      <trkpt lat="45.78948" lon="5.01727">
        <ele>183.91104</ele>
        <time>2023-07-11T06:58:40.000Z</time>
      </trkpt>
      <trkpt lat="45.78951" lon="5.01733">
        <ele>183.89438</ele>
        <time>2023-07-11T06:58:41.000Z</time>
      </trkpt>
      <trkpt lat="45.78952" lon="5.0174">
        <ele>183.76974</ele>
        <time>2023-07-11T06:58:42.000Z</time>
      </trkpt>
      <trkpt lat="45.78954" lon="5.01745">
        <ele>183.68671</ele>
        <time>2023-07-11T06:58:43.000Z</time>
      </trkpt>
      <trkpt lat="45.78956" lon="5.01751">
        <ele>183.63005</ele>
        <time>2023-07-11T06:58:44.000Z</time>
      </trkpt>
      <trkpt lat="45.78957" lon="5.01757">
        <ele>183.65649</ele>
        <time>2023-07-11T06:58:45.000Z</time>
      </trkpt>
      <trkpt lat="45.7896" lon="5.01764">
        <ele>183.70845</ele>
        <time>2023-07-11T06:58:46.000Z</time>
      </trkpt>
      <trkpt lat="45.78961" lon="5.0177">
        <ele>183.75246</ele>
        <time>2023-07-11T06:58:47.000Z</time>
      </trkpt>
      <trkpt lat="45.78962" lon="5.01776">
        <ele>183.81204</ele>
        <time>2023-07-11T06:58:48.000Z</time>
      </trkpt>
      <trkpt lat="45.78964" lon="5.01782">
        <ele>183.78148</ele>
        <time>2023-07-11T06:58:49.000Z</time>
      </trkpt>
      <trkpt lat="45.78966" lon="5.01788">
        <ele>183.75974</ele>
        <time>2023-07-11T06:58:50.000Z</time>
      </trkpt>
      <trkpt lat="45.78968" lon="5.01795">
        <ele>183.76425</ele>
        <time>2023-07-11T06:58:51.000Z</time>
      </trkpt>
      <trkpt lat="45.78969" lon="5.01801">
        <ele>183.74704</ele>
        <time>2023-07-11T06:58:52.000Z</time>
      </trkpt>
      <trkpt lat="45.78973" lon="5.01806">
        <ele>183.763</ele>
        <time>2023-07-11T06:58:53.000Z</time>
      </trkpt>
      <trkpt lat="45.78977" lon="5.01812">
        <ele>183.74619</ele>
        <time>2023-07-11T06:58:54.000Z</time>
      </trkpt>
      <trkpt lat="45.7898" lon="5.01817">
        <ele>183.71602</ele>
        <time>2023-07-11T06:58:55.000Z</time>
      </trkpt>
      <trkpt lat="45.78983" lon="5.01823">
        <ele>183.66721</ele>
        <time>2023-07-11T06:58:56.000Z</time>
      </trkpt>
      <trkpt lat="45.78987" lon="5.01827">
        <ele>183.63095</ele>
        <time>2023-07-11T06:58:57.000Z</time>
      </trkpt>
      <trkpt lat="45.78992" lon="5.01832">
        <ele>183.64398</ele>
        <time>2023-07-11T06:58:58.000Z</time>
      </trkpt>
      <trkpt lat="45.78995" lon="5.01837">
        <ele>183.6976</ele>
        <time>2023-07-11T06:58:59.000Z</time>
      </trkpt>
      <trkpt lat="45.78999" lon="5.01841">
        <ele>183.73529</ele>
        <time>2023-07-11T06:59:00.000Z</time>
      </trkpt>
      <trkpt lat="45.79003" lon="5.01845">
        <ele>183.79292</ele>
        <time>2023-07-11T06:59:01.000Z</time>
      </trkpt>
      <trkpt lat="45.79007" lon="5.01848">
        <ele>183.83037</ele>
        <time>2023-07-11T06:59:02.000Z</time>
      </trkpt>
      <trkpt lat="45.79012" lon="5.01851">
        <ele>183.84573</ele>
        <time>2023-07-11T06:59:03.000Z</time>
      </trkpt>
      <trkpt lat="45.79016" lon="5.01854">
        <ele>183.81483</ele>
        <time>2023-07-11T06:59:04.000Z</time>
      </trkpt>
      <trkpt lat="45.7902" lon="5.01857">
        <ele>183.74294</ele>
        <time>2023-07-11T06:59:05.000Z</time>
      </trkpt>
      <trkpt lat="45.79025" lon="5.01858">
        <ele>183.64021</ele>
        <time>2023-07-11T06:59:06.000Z</time>
      </trkpt>
      <trkpt lat="45.7903" lon="5.0186">
        <ele>183.52699</ele>
        <time>2023-07-11T06:59:07.000Z</time>
      </trkpt>
      <trkpt lat="45.79035" lon="5.01862">
        <ele>183.43777</ele>
        <time>2023-07-11T06:59:08.000Z</time>
      </trkpt>
      <trkpt lat="45.7904" lon="5.01864">
        <ele>183.44424</ele>
        <time>2023-07-11T06:59:09.000Z</time>
      </trkpt>
      <trkpt lat="45.79044" lon="5.01866">
        <ele>183.4584</ele>
        <time>2023-07-11T06:59:10.000Z</time>
      </trkpt>
      <trkpt lat="45.79049" lon="5.01868">
        <ele>183.39497</ele>
        <time>2023-07-11T06:59:11.000Z</time>
      </trkpt>
      <trkpt lat="45.79054" lon="5.01868">
        <ele>183.3719</ele>
        <time>2023-07-11T06:59:12.000Z</time>
      </trkpt>
      <trkpt lat="45.79059" lon="5.0187">
        <ele>183.35686</ele>
        <time>2023-07-11T06:59:13.000Z</time>
      </trkpt>
      <trkpt lat="45.79063" lon="5.01871">
        <ele>183.38222</ele>
        <time>2023-07-11T06:59:14.000Z</time>
      </trkpt>
      <trkpt lat="45.79069" lon="5.01873">
        <ele>183.30795</ele>
        <time>2023-07-11T06:59:15.000Z</time>
      </trkpt>
      <trkpt lat="45.79074" lon="5.01875">
        <ele>183.24916</ele>
        <time>2023-07-11T06:59:16.000Z</time>
      </trkpt>
      <trkpt lat="45.79078" lon="5.01876">
        <ele>183.18314</ele>
        <time>2023-07-11T06:59:17.000Z</time>
      </trkpt>
      <trkpt lat="45.79083" lon="5.01877">
        <ele>183.06496</ele>
        <time>2023-07-11T06:59:18.000Z</time>
      </trkpt>
      <trkpt lat="45.79087" lon="5.01878">
        <ele>182.9252</ele>
        <time>2023-07-11T06:59:19.000Z</time>
      </trkpt>
      <trkpt lat="45.79091" lon="5.01879">
        <ele>182.74474</ele>
        <time>2023-07-11T06:59:20.000Z</time>
      </trkpt>
      <trkpt lat="45.79095" lon="5.01881">
        <ele>182.54097</ele>
        <time>2023-07-11T06:59:21.000Z</time>
      </trkpt>
      <trkpt lat="45.79099" lon="5.01886">
        <ele>182.43567</ele>
        <time>2023-07-11T06:59:22.000Z</time>
      </trkpt>
      <trkpt lat="45.79102" lon="5.01891">
        <ele>182.35023</ele>
        <time>2023-07-11T06:59:23.000Z</time>
      </trkpt>
      <trkpt lat="45.79104" lon="5.01897">
        <ele>182.29349</ele>
        <time>2023-07-11T06:59:24.000Z</time>
      </trkpt>
      <trkpt lat="45.79106" lon="5.01902">
        <ele>182.2778</ele>
        <time>2023-07-11T06:59:25.000Z</time>
      </trkpt>
      <trkpt lat="45.79108" lon="5.01908">
        <ele>182.25534</ele>
        <time>2023-07-11T06:59:26.000Z</time>
      </trkpt>
      <trkpt lat="45.79109" lon="5.01914">
        <ele>182.22462</ele>
        <time>2023-07-11T06:59:27.000Z</time>
      </trkpt>
      <trkpt lat="45.79111" lon="5.0192">
        <ele>182.14243</ele>
        <time>2023-07-11T06:59:28.000Z</time>
      </trkpt>
      <trkpt lat="45.79113" lon="5.01926">
        <ele>182.07312</ele>
        <time>2023-07-11T06:59:29.000Z</time>
      </trkpt>
      <trkpt lat="45.79114" lon="5.01933">
        <ele>181.9982</ele>
        <time>2023-07-11T06:59:30.000Z</time>
      </trkpt>
      <trkpt lat="45.79115" lon="5.01939">
        <ele>182.01486</ele>
        <time>2023-07-11T06:59:31.000Z</time>
      </trkpt>
      <trkpt lat="45.79117" lon="5.01946">
        <ele>181.9922</ele>
        <time>2023-07-11T06:59:32.000Z</time>
      </trkpt>
      <trkpt lat="45.79119" lon="5.01952">
        <ele>181.94669</ele>
        <time>2023-07-11T06:59:33.000Z</time>
      </trkpt>
      <trkpt lat="45.79121" lon="5.01958">
        <ele>181.89005</ele>
        <time>2023-07-11T06:59:34.000Z</time>
      </trkpt>
      <trkpt lat="45.79123" lon="5.01963">
        <ele>181.93304</ele>
        <time>2023-07-11T06:59:35.000Z</time>
      </trkpt>
      <trkpt lat="45.79124" lon="5.01969">
        <ele>181.98227</ele>
        <time>2023-07-11T06:59:36.000Z</time>
      </trkpt>
      <trkpt lat="45.79126" lon="5.01973">
        <ele>182.03421</ele>
        <time>2023-07-11T06:59:37.000Z</time>
      </trkpt>
      <trkpt lat="45.79127" lon="5.01978">
        <ele>182.08536</ele>
        <time>2023-07-11T06:59:38.000Z</time>
      </trkpt>
      <trkpt lat="45.79127" lon="5.01983">
        <ele>182.10666</ele>
        <time>2023-07-11T06:59:39.000Z</time>
      </trkpt>
      <trkpt lat="45.79126" lon="5.01987">
        <ele>182.16287</ele>
        <time>2023-07-11T06:59:40.000Z</time>
      </trkpt>
      <trkpt lat="45.79124" lon="5.0199">
        <ele>182.21701</ele>
        <time>2023-07-11T06:59:41.000Z</time>
      </trkpt>
      <trkpt lat="45.79121" lon="5.01993">
        <ele>182.2491</ele>
        <time>2023-07-11T06:59:42.000Z</time>
      </trkpt>
      <trkpt lat="45.79116" lon="5.01992">
        <ele>182.24309</ele>
        <time>2023-07-11T06:59:43.000Z</time>
      </trkpt>
      <trkpt lat="45.79112" lon="5.01993">
        <ele>182.23708</ele>
        <time>2023-07-11T06:59:44.000Z</time>
      </trkpt>
      <trkpt lat="45.79108" lon="5.01994">
        <ele>182.21622</ele>
        <time>2023-07-11T06:59:45.000Z</time>
      </trkpt>
      <trkpt lat="45.79104" lon="5.01996">
        <ele>182.177</ele>
        <time>2023-07-11T06:59:46.000Z</time>
      </trkpt>
      <trkpt lat="45.791" lon="5.01998">
        <ele>182.13422</ele>
        <time>2023-07-11T06:59:47.000Z</time>
      </trkpt>
      <trkpt lat="45.79097" lon="5.02002">
        <ele>182.09842</ele>
        <time>2023-07-11T06:59:48.000Z</time>
      </trkpt>
      <trkpt lat="45.79094" lon="5.02004">
        <ele>182.05273</ele>
        <time>2023-07-11T06:59:49.000Z</time>
      </trkpt>
      <trkpt lat="45.79091" lon="5.02007">
        <ele>182.01602</ele>
        <time>2023-07-11T06:59:50.000Z</time>
      </trkpt>
      <trkpt lat="45.79088" lon="5.02011">
        <ele>181.96774</ele>
        <time>2023-07-11T06:59:51.000Z</time>
      </trkpt>
      <trkpt lat="45.79088" lon="5.02015">
        <ele>181.92415</ele>
        <time>2023-07-11T06:59:52.000Z</time>
      </trkpt>
      <trkpt lat="45.79088" lon="5.02019">
        <ele>181.86972</ele>
        <time>2023-07-11T06:59:53.000Z</time>
      </trkpt>
      <trkpt lat="45.79088" lon="5.02023">
        <ele>181.82867</ele>
        <time>2023-07-11T06:59:54.000Z</time>
      </trkpt>
      <trkpt lat="45.79088" lon="5.02026">
        <ele>181.78014</ele>
        <time>2023-07-11T06:59:55.000Z</time>
      </trkpt>
      <trkpt lat="45.79089" lon="5.02029">
        <ele>181.72733</ele>
        <time>2023-07-11T06:59:56.000Z</time>
      </trkpt>
      <trkpt lat="45.79089" lon="5.02032">
        <ele>181.67545</ele>
        <time>2023-07-11T06:59:57.000Z</time>
      </trkpt>
      <trkpt lat="45.7909" lon="5.02036">
        <ele>181.60645</ele>
        <time>2023-07-11T06:59:59.000Z</time>
      </trkpt>
      <trkpt lat="45.79091" lon="5.0204">
        <ele>181.55959</ele>
        <time>2023-07-11T07:00:01.000Z</time>
      </trkpt>
      <trkpt lat="45.79092" lon="5.02042">
        <ele>181.50058</ele>
        <time>2023-07-11T07:00:02.000Z</time>
      </trkpt>
      <trkpt lat="45.79093" lon="5.02044">
        <ele>181.45992</ele>
        <time>2023-07-11T07:00:03.000Z</time>
      </trkpt>
      <trkpt lat="45.79095" lon="5.02046">
        <ele>181.47032</ele>
        <time>2023-07-11T07:00:04.000Z</time>
      </trkpt>
      <trkpt lat="45.79096" lon="5.02048">
        <ele>181.5184</ele>
        <time>2023-07-11T07:00:05.000Z</time>
      </trkpt>
      <trkpt lat="45.79098" lon="5.0205">
        <ele>181.55469</ele>
        <time>2023-07-11T07:00:06.000Z</time>
      </trkpt>
      <trkpt lat="45.79099" lon="5.02052">
        <ele>181.55869</ele>
        <time>2023-07-11T07:00:07.000Z</time>
      </trkpt>
      <trkpt lat="45.79102" lon="5.02053">
        <ele>181.57466</ele>
        <time>2023-07-11T07:00:08.000Z</time>
      </trkpt>
      <trkpt lat="45.79104" lon="5.02053">
        <ele>181.63484</ele>
        <time>2023-07-11T07:00:09.000Z</time>
      </trkpt>
      <trkpt lat="45.79107" lon="5.02053">
        <ele>181.69083</ele>
        <time>2023-07-11T07:00:10.000Z</time>
      </trkpt>
      <trkpt lat="45.7911" lon="5.02053">
        <ele>181.7198</ele>
        <time>2023-07-11T07:00:11.000Z</time>
      </trkpt>
      <trkpt lat="45.79113" lon="5.02053">
        <ele>181.71205</ele>
        <time>2023-07-11T07:00:12.000Z</time>
      </trkpt>
      <trkpt lat="45.79117" lon="5.0205">
        <ele>181.68867</ele>
        <time>2023-07-11T07:00:13.000Z</time>
      </trkpt>
      <trkpt lat="45.79119" lon="5.02046">
        <ele>181.64412</ele>
        <time>2023-07-11T07:00:14.000Z</time>
      </trkpt>
      <trkpt lat="45.79119" lon="5.02041">
        <ele>181.61655</ele>
        <time>2023-07-11T07:00:15.000Z</time>
      </trkpt>
      <trkpt lat="45.79118" lon="5.02035">
        <ele>181.60349</ele>
        <time>2023-07-11T07:00:16.000Z</time>
      </trkpt>
      <trkpt lat="45.79117" lon="5.0203">
        <ele>181.62257</ele>
        <time>2023-07-11T07:00:17.000Z</time>
      </trkpt>
      <trkpt lat="45.79116" lon="5.02025">
        <ele>181.64452</ele>
        <time>2023-07-11T07:00:18.000Z</time>
      </trkpt>
      <trkpt lat="45.79116" lon="5.0202">
        <ele>181.63182</ele>
        <time>2023-07-11T07:00:19.000Z</time>
      </trkpt>
      <trkpt lat="45.79117" lon="5.02014">
        <ele>181.61047</ele>
        <time>2023-07-11T07:00:20.000Z</time>
      </trkpt>
      <trkpt lat="45.79118" lon="5.02009">
        <ele>181.55862</ele>
        <time>2023-07-11T07:00:21.000Z</time>
      </trkpt>
      <trkpt lat="45.7912" lon="5.02004">
        <ele>181.54405</ele>
        <time>2023-07-11T07:00:22.000Z</time>
      </trkpt>
      <trkpt lat="45.79121" lon="5.01999">
        <ele>181.53561</ele>
        <time>2023-07-11T07:00:23.000Z</time>
      </trkpt>
      <trkpt lat="45.79123" lon="5.01995">
        <ele>181.51775</ele>
        <time>2023-07-11T07:00:24.000Z</time>
      </trkpt>
      <trkpt lat="45.79124" lon="5.01992">
        <ele>181.48482</ele>
        <time>2023-07-11T07:00:25.000Z</time>
      </trkpt>
      <trkpt lat="45.79127" lon="5.0199">
        <ele>181.46841</ele>
        <time>2023-07-11T07:00:26.000Z</time>
      </trkpt>
      <trkpt lat="45.7913" lon="5.01989">
        <ele>181.50275</ele>
        <time>2023-07-11T07:00:27.000Z</time>
      </trkpt>
      <trkpt lat="45.79134" lon="5.01992">
        <ele>181.51622</ele>
        <time>2023-07-11T07:00:28.000Z</time>
      </trkpt>
      <trkpt lat="45.79137" lon="5.01996">
        <ele>181.48648</ele>
        <time>2023-07-11T07:00:29.000Z</time>
      </trkpt>
      <trkpt lat="45.79139" lon="5.02002">
        <ele>181.43759</ele>
        <time>2023-07-11T07:00:30.000Z</time>
      </trkpt>
      <trkpt lat="45.79141" lon="5.02009">
        <ele>181.4118</ele>
        <time>2023-07-11T07:00:31.000Z</time>
      </trkpt>
      <trkpt lat="45.79142" lon="5.02015">
        <ele>181.41483</ele>
        <time>2023-07-11T07:00:32.000Z</time>
      </trkpt>
      <trkpt lat="45.79144" lon="5.02022">
        <ele>181.44064</ele>
        <time>2023-07-11T07:00:33.000Z</time>
      </trkpt>
      <trkpt lat="45.79145" lon="5.02029">
        <ele>181.49559</ele>
        <time>2023-07-11T07:00:34.000Z</time>
      </trkpt>
      <trkpt lat="45.79146" lon="5.02035">
        <ele>181.53741</ele>
        <time>2023-07-11T07:00:35.000Z</time>
      </trkpt>
      <trkpt lat="45.79148" lon="5.02042">
        <ele>181.53973</ele>
        <time>2023-07-11T07:00:36.000Z</time>
      </trkpt>
      <trkpt lat="45.79148" lon="5.02049">
        <ele>181.51677</ele>
        <time>2023-07-11T07:00:37.000Z</time>
      </trkpt>
      <trkpt lat="45.79149" lon="5.02055">
        <ele>181.48219</ele>
        <time>2023-07-11T07:00:38.000Z</time>
      </trkpt>
      <trkpt lat="45.7915" lon="5.02063">
        <ele>181.49728</ele>
        <time>2023-07-11T07:00:39.000Z</time>
      </trkpt>
      <trkpt lat="45.79152" lon="5.02069">
        <ele>181.50876</ele>
        <time>2023-07-11T07:00:40.000Z</time>
      </trkpt>
      <trkpt lat="45.79154" lon="5.02076">
        <ele>181.52078</ele>
        <time>2023-07-11T07:00:41.000Z</time>
      </trkpt>
      <trkpt lat="45.79155" lon="5.02081">
        <ele>181.54985</ele>
        <time>2023-07-11T07:00:42.000Z</time>
      </trkpt>
      <trkpt lat="45.79158" lon="5.02086">
        <ele>181.57155</ele>
        <time>2023-07-11T07:00:43.000Z</time>
      </trkpt>
      <trkpt lat="45.7916" lon="5.02092">
        <ele>181.6077</ele>
        <time>2023-07-11T07:00:44.000Z</time>
      </trkpt>
      <trkpt lat="45.79163" lon="5.02097">
        <ele>181.64491</ele>
        <time>2023-07-11T07:00:45.000Z</time>
      </trkpt>
      <trkpt lat="45.79165" lon="5.02103">
        <ele>181.68394</ele>
        <time>2023-07-11T07:00:46.000Z</time>
      </trkpt>
      <trkpt lat="45.79168" lon="5.02109">
        <ele>181.71144</ele>
        <time>2023-07-11T07:00:47.000Z</time>
      </trkpt>
      <trkpt lat="45.79171" lon="5.02115">
        <ele>181.76175</ele>
        <time>2023-07-11T07:00:48.000Z</time>
      </trkpt>
      <trkpt lat="45.79174" lon="5.0212">
        <ele>181.82571</ele>
        <time>2023-07-11T07:00:49.000Z</time>
      </trkpt>
      <trkpt lat="45.79177" lon="5.02125">
        <ele>181.89265</ele>
        <time>2023-07-11T07:00:50.000Z</time>
      </trkpt>
      <trkpt lat="45.79181" lon="5.02128">
        <ele>181.9626</ele>
        <time>2023-07-11T07:00:51.000Z</time>
      </trkpt>
      <trkpt lat="45.79184" lon="5.02131">
        <ele>182.01857</ele>
        <time>2023-07-11T07:00:52.000Z</time>
      </trkpt>
      <trkpt lat="45.79189" lon="5.02132">
        <ele>182.07407</ele>
        <time>2023-07-11T07:00:53.000Z</time>
      </trkpt>
      <trkpt lat="45.79194" lon="5.02133">
        <ele>182.11945</ele>
        <time>2023-07-11T07:00:54.000Z</time>
      </trkpt>
      <trkpt lat="45.79199" lon="5.02134">
        <ele>182.14363</ele>
        <time>2023-07-11T07:00:55.000Z</time>
      </trkpt>
      <trkpt lat="45.79204" lon="5.02134">
        <ele>182.18124</ele>
        <time>2023-07-11T07:00:56.000Z</time>
      </trkpt>
      <trkpt lat="45.7921" lon="5.02133">
        <ele>182.21211</ele>
        <time>2023-07-11T07:00:57.000Z</time>
      </trkpt>
      <trkpt lat="45.79214" lon="5.02132">
        <ele>182.26134</ele>
        <time>2023-07-11T07:00:58.000Z</time>
      </trkpt>
      <trkpt lat="45.79219" lon="5.02132">
        <ele>182.29128</ele>
        <time>2023-07-11T07:00:59.000Z</time>
      </trkpt>
      <trkpt lat="45.79224" lon="5.02131">
        <ele>182.34776</ele>
        <time>2023-07-11T07:01:00.000Z</time>
      </trkpt>
      <trkpt lat="45.79229" lon="5.0213">
        <ele>182.40428</ele>
        <time>2023-07-11T07:01:01.000Z</time>
      </trkpt>
      <trkpt lat="45.79233" lon="5.02129">
        <ele>182.38411</ele>
        <time>2023-07-11T07:01:02.000Z</time>
      </trkpt>
      <trkpt lat="45.79238" lon="5.02128">
        <ele>182.34552</ele>
        <time>2023-07-11T07:01:03.000Z</time>
      </trkpt>
      <trkpt lat="45.79243" lon="5.02127">
        <ele>182.26558</ele>
        <time>2023-07-11T07:01:04.000Z</time>
      </trkpt>
      <trkpt lat="45.79248" lon="5.02126">
        <ele>182.17615</ele>
        <time>2023-07-11T07:01:05.000Z</time>
      </trkpt>
      <trkpt lat="45.79253" lon="5.02125">
        <ele>182.06573</ele>
        <time>2023-07-11T07:01:06.000Z</time>
      </trkpt>
      <trkpt lat="45.79258" lon="5.02124">
        <ele>181.94601</ele>
        <time>2023-07-11T07:01:07.000Z</time>
      </trkpt>
      <trkpt lat="45.79262" lon="5.02123">
        <ele>181.80319</ele>
        <time>2023-07-11T07:01:08.000Z</time>
      </trkpt>
      <trkpt lat="45.79267" lon="5.02121">
        <ele>181.6552</ele>
        <time>2023-07-11T07:01:09.000Z</time>
      </trkpt>
      <trkpt lat="45.79272" lon="5.0212">
        <ele>181.53946</ele>
        <time>2023-07-11T07:01:10.000Z</time>
      </trkpt>
      <trkpt lat="45.79277" lon="5.02119">
        <ele>181.43065</ele>
        <time>2023-07-11T07:01:11.000Z</time>
      </trkpt>
      <trkpt lat="45.79281" lon="5.02118">
        <ele>181.31863</ele>
        <time>2023-07-11T07:01:12.000Z</time>
      </trkpt>
      <trkpt lat="45.79286" lon="5.02117">
        <ele>181.20329</ele>
        <time>2023-07-11T07:01:13.000Z</time>
      </trkpt>
      <trkpt lat="45.79291" lon="5.02117">
        <ele>181.08151</ele>
        <time>2023-07-11T07:01:14.000Z</time>
      </trkpt>
      <trkpt lat="45.79296" lon="5.02118">
        <ele>180.96371</ele>
        <time>2023-07-11T07:01:15.000Z</time>
      </trkpt>
      <trkpt lat="45.793" lon="5.02119">
        <ele>180.83543</ele>
        <time>2023-07-11T07:01:16.000Z</time>
      </trkpt>
      <trkpt lat="45.79306" lon="5.02121">
        <ele>180.74033</ele>
        <time>2023-07-11T07:01:17.000Z</time>
      </trkpt>
      <trkpt lat="45.79312" lon="5.02123">
        <ele>180.64595</ele>
        <time>2023-07-11T07:01:18.000Z</time>
      </trkpt>
      <trkpt lat="45.79317" lon="5.02126">
        <ele>180.57133</ele>
        <time>2023-07-11T07:01:19.000Z</time>
      </trkpt>
      <trkpt lat="45.79322" lon="5.02129">
        <ele>180.46277</ele>
        <time>2023-07-11T07:01:20.000Z</time>
      </trkpt>
      <trkpt lat="45.79326" lon="5.02132">
        <ele>180.43991</ele>
        <time>2023-07-11T07:01:21.000Z</time>
      </trkpt>
      <trkpt lat="45.7933" lon="5.02136">
        <ele>180.40799</ele>
        <time>2023-07-11T07:01:22.000Z</time>
      </trkpt>
      <trkpt lat="45.79334" lon="5.02139">
        <ele>180.39035</ele>
        <time>2023-07-11T07:01:23.000Z</time>
      </trkpt>
      <trkpt lat="45.79339" lon="5.02142">
        <ele>180.3714</ele>
        <time>2023-07-11T07:01:24.000Z</time>
      </trkpt>
      <trkpt lat="45.79344" lon="5.02145">
        <ele>180.36899</ele>
        <time>2023-07-11T07:01:25.000Z</time>
      </trkpt>
      <trkpt lat="45.79348" lon="5.02146">
        <ele>180.35159</ele>
        <time>2023-07-11T07:01:26.000Z</time>
      </trkpt>
      <trkpt lat="45.79352" lon="5.02149">
        <ele>180.33159</ele>
        <time>2023-07-11T07:01:27.000Z</time>
      </trkpt>
      <trkpt lat="45.79356" lon="5.02153">
        <ele>180.39572</ele>
        <time>2023-07-11T07:01:28.000Z</time>
      </trkpt>
      <trkpt lat="45.7936" lon="5.02158">
        <ele>180.47725</ele>
        <time>2023-07-11T07:01:29.000Z</time>
      </trkpt>
      <trkpt lat="45.79362" lon="5.02162">
        <ele>180.50131</ele>
        <time>2023-07-11T07:01:30.000Z</time>
      </trkpt>
      <trkpt lat="45.79366" lon="5.02169">
        <ele>180.47354</ele>
        <time>2023-07-11T07:01:31.000Z</time>
      </trkpt>
      <trkpt lat="45.7937" lon="5.02174">
        <ele>180.4487</ele>
        <time>2023-07-11T07:01:32.000Z</time>
      </trkpt>
      <trkpt lat="45.79373" lon="5.0218">
        <ele>180.43301</ele>
        <time>2023-07-11T07:01:33.000Z</time>
      </trkpt>
      <trkpt lat="45.79377" lon="5.02185">
        <ele>180.41556</ele>
        <time>2023-07-11T07:01:34.000Z</time>
      </trkpt>
      <trkpt lat="45.7938" lon="5.02191">
        <ele>180.38522</ele>
        <time>2023-07-11T07:01:35.000Z</time>
      </trkpt>
      <trkpt lat="45.79384" lon="5.02197">
        <ele>180.39998</ele>
        <time>2023-07-11T07:01:36.000Z</time>
      </trkpt>
      <trkpt lat="45.79388" lon="5.02202">
        <ele>180.42659</ele>
        <time>2023-07-11T07:01:37.000Z</time>
      </trkpt>
      <trkpt lat="45.79391" lon="5.02207">
        <ele>180.42401</ele>
        <time>2023-07-11T07:01:38.000Z</time>
      </trkpt>
      <trkpt lat="45.79394" lon="5.02212">
        <ele>180.4024</ele>
        <time>2023-07-11T07:01:39.000Z</time>
      </trkpt>
      <trkpt lat="45.79396" lon="5.02218">
        <ele>180.37181</ele>
        <time>2023-07-11T07:01:40.000Z</time>
      </trkpt>
      <trkpt lat="45.79399" lon="5.02224">
        <ele>180.27573</ele>
        <time>2023-07-11T07:01:41.000Z</time>
      </trkpt>
      <trkpt lat="45.79401" lon="5.0223">
        <ele>180.2278</ele>
        <time>2023-07-11T07:01:42.000Z</time>
      </trkpt>
      <trkpt lat="45.79404" lon="5.02237">
        <ele>180.18311</ele>
        <time>2023-07-11T07:01:43.000Z</time>
      </trkpt>
      <trkpt lat="45.79405" lon="5.02243">
        <ele>180.14883</ele>
        <time>2023-07-11T07:01:44.000Z</time>
      </trkpt>
      <trkpt lat="45.79407" lon="5.02249">
        <ele>180.11453</ele>
        <time>2023-07-11T07:01:45.000Z</time>
      </trkpt>
      <trkpt lat="45.79408" lon="5.02256">
        <ele>180.0948</ele>
        <time>2023-07-11T07:01:46.000Z</time>
      </trkpt>
      <trkpt lat="45.79409" lon="5.02263">
        <ele>180.0853</ele>
        <time>2023-07-11T07:01:47.000Z</time>
      </trkpt>
      <trkpt lat="45.79411" lon="5.02269">
        <ele>180.05688</ele>
        <time>2023-07-11T07:01:48.000Z</time>
      </trkpt>
      <trkpt lat="45.79412" lon="5.02276">
        <ele>180.01942</ele>
        <time>2023-07-11T07:01:49.000Z</time>
      </trkpt>
      <trkpt lat="45.79413" lon="5.02283">
        <ele>180.03177</ele>
        <time>2023-07-11T07:01:50.000Z</time>
      </trkpt>
      <trkpt lat="45.79414" lon="5.02289">
        <ele>180.07051</ele>
        <time>2023-07-11T07:01:51.000Z</time>
      </trkpt>
      <trkpt lat="45.79415" lon="5.02296">
        <ele>180.08917</ele>
        <time>2023-07-11T07:01:52.000Z</time>
      </trkpt>
      <trkpt lat="45.79415" lon="5.02302">
        <ele>180.12952</ele>
        <time>2023-07-11T07:01:53.000Z</time>
      </trkpt>
      <trkpt lat="45.79415" lon="5.0231">
        <ele>180.17679</ele>
        <time>2023-07-11T07:01:54.000Z</time>
      </trkpt>
      <trkpt lat="45.79414" lon="5.02316">
        <ele>180.26559</ele>
        <time>2023-07-11T07:01:55.000Z</time>
      </trkpt>
      <trkpt lat="45.79414" lon="5.02322">
        <ele>180.31139</ele>
        <time>2023-07-11T07:01:56.000Z</time>
      </trkpt>
      <trkpt lat="45.79414" lon="5.02329">
        <ele>180.34445</ele>
        <time>2023-07-11T07:01:57.000Z</time>
      </trkpt>
      <trkpt lat="45.79413" lon="5.02336">
        <ele>180.39825</ele>
        <time>2023-07-11T07:01:58.000Z</time>
      </trkpt>
      <trkpt lat="45.79412" lon="5.02343">
        <ele>180.45927</ele>
        <time>2023-07-11T07:01:59.000Z</time>
      </trkpt>
      <trkpt lat="45.79411" lon="5.0235">
        <ele>180.56949</ele>
        <time>2023-07-11T07:02:00.000Z</time>
      </trkpt>
      <trkpt lat="45.7941" lon="5.02357">
        <ele>180.64996</ele>
        <time>2023-07-11T07:02:01.000Z</time>
      </trkpt>
      <trkpt lat="45.79409" lon="5.02364">
        <ele>180.73204</ele>
        <time>2023-07-11T07:02:02.000Z</time>
      </trkpt>
      <trkpt lat="45.79408" lon="5.02373">
        <ele>180.80452</ele>
        <time>2023-07-11T07:02:03.000Z</time>
      </trkpt>
      <trkpt lat="45.79407" lon="5.02379">
        <ele>180.88779</ele>
        <time>2023-07-11T07:02:04.000Z</time>
      </trkpt>
      <trkpt lat="45.79406" lon="5.02386">
        <ele>180.96585</ele>
        <time>2023-07-11T07:02:05.000Z</time>
      </trkpt>
      <trkpt lat="45.79405" lon="5.02394">
        <ele>181.05431</ele>
        <time>2023-07-11T07:02:06.000Z</time>
      </trkpt>
      <trkpt lat="45.79405" lon="5.02401">
        <ele>181.14052</ele>
        <time>2023-07-11T07:02:07.000Z</time>
      </trkpt>
      <trkpt lat="45.79405" lon="5.02408">
        <ele>181.16159</ele>
        <time>2023-07-11T07:02:08.000Z</time>
      </trkpt>
      <trkpt lat="45.79405" lon="5.02415">
        <ele>181.19669</ele>
        <time>2023-07-11T07:02:09.000Z</time>
      </trkpt>
      <trkpt lat="45.79404" lon="5.02423">
        <ele>181.24667</ele>
        <time>2023-07-11T07:02:10.000Z</time>
      </trkpt>
      <trkpt lat="45.79403" lon="5.0243">
        <ele>181.29491</ele>
        <time>2023-07-11T07:02:11.000Z</time>
      </trkpt>
      <trkpt lat="45.79404" lon="5.02437">
        <ele>181.38626</ele>
        <time>2023-07-11T07:02:12.000Z</time>
      </trkpt>
      <trkpt lat="45.79404" lon="5.02445">
        <ele>181.44298</ele>
        <time>2023-07-11T07:02:13.000Z</time>
      </trkpt>
      <trkpt lat="45.79405" lon="5.02452">
        <ele>181.49945</ele>
        <time>2023-07-11T07:02:14.000Z</time>
      </trkpt>
      <trkpt lat="45.79405" lon="5.0246">
        <ele>181.51904</ele>
        <time>2023-07-11T07:02:15.000Z</time>
      </trkpt>
      <trkpt lat="45.79406" lon="5.02467">
        <ele>181.54517</ele>
        <time>2023-07-11T07:02:16.000Z</time>
      </trkpt>
      <trkpt lat="45.79407" lon="5.02474">
        <ele>181.55069</ele>
        <time>2023-07-11T07:02:17.000Z</time>
      </trkpt>
      <trkpt lat="45.79407" lon="5.0248">
        <ele>181.51974</ele>
        <time>2023-07-11T07:02:18.000Z</time>
      </trkpt>
      <trkpt lat="45.79407" lon="5.02488">
        <ele>181.49391</ele>
        <time>2023-07-11T07:02:19.000Z</time>
      </trkpt>
      <trkpt lat="45.79408" lon="5.02495">
        <ele>181.44058</ele>
        <time>2023-07-11T07:02:20.000Z</time>
      </trkpt>
      <trkpt lat="45.79408" lon="5.02502">
        <ele>181.39174</ele>
        <time>2023-07-11T07:02:21.000Z</time>
      </trkpt>
      <trkpt lat="45.79409" lon="5.0251">
        <ele>181.35152</ele>
        <time>2023-07-11T07:02:22.000Z</time>
      </trkpt>
      <trkpt lat="45.79409" lon="5.02518">
        <ele>181.3044</ele>
        <time>2023-07-11T07:02:23.000Z</time>
      </trkpt>
      <trkpt lat="45.7941" lon="5.02526">
        <ele>181.25217</ele>
        <time>2023-07-11T07:02:24.000Z</time>
      </trkpt>
      <trkpt lat="45.79412" lon="5.02534">
        <ele>181.20027</ele>
        <time>2023-07-11T07:02:25.000Z</time>
      </trkpt>
      <trkpt lat="45.79413" lon="5.02541">
        <ele>181.14127</ele>
        <time>2023-07-11T07:02:26.000Z</time>
      </trkpt>
      <trkpt lat="45.79415" lon="5.02549">
        <ele>181.09433</ele>
        <time>2023-07-11T07:02:27.000Z</time>
      </trkpt>
      <trkpt lat="45.79416" lon="5.02557">
        <ele>181.04735</ele>
        <time>2023-07-11T07:02:28.000Z</time>
      </trkpt>
      <trkpt lat="45.79417" lon="5.02563">
        <ele>180.96199</ele>
        <time>2023-07-11T07:02:29.000Z</time>
      </trkpt>
      <trkpt lat="45.79419" lon="5.0257">
        <ele>180.83926</ele>
        <time>2023-07-11T07:02:30.000Z</time>
      </trkpt>
      <trkpt lat="45.7942" lon="5.02578">
        <ele>180.7224</ele>
        <time>2023-07-11T07:02:31.000Z</time>
      </trkpt>
      <trkpt lat="45.79421" lon="5.02584">
        <ele>180.57208</ele>
        <time>2023-07-11T07:02:32.000Z</time>
      </trkpt>
      <trkpt lat="45.79422" lon="5.0259">
        <ele>180.43962</ele>
        <time>2023-07-11T07:02:33.000Z</time>
      </trkpt>
      <trkpt lat="45.79424" lon="5.02598">
        <ele>180.31488</ele>
        <time>2023-07-11T07:02:34.000Z</time>
      </trkpt>
      <trkpt lat="45.79425" lon="5.02605">
        <ele>180.24039</ele>
        <time>2023-07-11T07:02:35.000Z</time>
      </trkpt>
      <trkpt lat="45.79426" lon="5.02612">
        <ele>180.16766</ele>
        <time>2023-07-11T07:02:36.000Z</time>
      </trkpt>
      <trkpt lat="45.79427" lon="5.02619">
        <ele>180.06566</ele>
        <time>2023-07-11T07:02:37.000Z</time>
      </trkpt>
      <trkpt lat="45.79429" lon="5.02625">
        <ele>180.01541</ele>
        <time>2023-07-11T07:02:38.000Z</time>
      </trkpt>
      <trkpt lat="45.79431" lon="5.02631">
        <ele>179.93918</ele>
        <time>2023-07-11T07:02:39.000Z</time>
      </trkpt>
      <trkpt lat="45.79434" lon="5.02637">
        <ele>179.89276</ele>
        <time>2023-07-11T07:02:40.000Z</time>
      </trkpt>
      <trkpt lat="45.79437" lon="5.02643">
        <ele>179.87706</ele>
        <time>2023-07-11T07:02:41.000Z</time>
      </trkpt>
      <trkpt lat="45.79441" lon="5.0265">
        <ele>179.83841</ele>
        <time>2023-07-11T07:02:42.000Z</time>
      </trkpt>
      <trkpt lat="45.79445" lon="5.02656">
        <ele>179.8407</ele>
        <time>2023-07-11T07:02:43.000Z</time>
      </trkpt>
      <trkpt lat="45.79449" lon="5.02661">
        <ele>179.88182</ele>
        <time>2023-07-11T07:02:44.000Z</time>
      </trkpt>
      <trkpt lat="45.79453" lon="5.02665">
        <ele>179.88937</ele>
        <time>2023-07-11T07:02:45.000Z</time>
      </trkpt>
      <trkpt lat="45.79458" lon="5.02669">
        <ele>179.87784</ele>
        <time>2023-07-11T07:02:46.000Z</time>
      </trkpt>
      <trkpt lat="45.79463" lon="5.02673">
        <ele>179.85593</ele>
        <time>2023-07-11T07:02:47.000Z</time>
      </trkpt>
      <trkpt lat="45.79467" lon="5.02678">
        <ele>179.85391</ele>
        <time>2023-07-11T07:02:48.000Z</time>
      </trkpt>
      <trkpt lat="45.79472" lon="5.02682">
        <ele>179.87692</ele>
        <time>2023-07-11T07:02:49.000Z</time>
      </trkpt>
      <trkpt lat="45.79476" lon="5.02686">
        <ele>179.88663</ele>
        <time>2023-07-11T07:02:50.000Z</time>
      </trkpt>
      <trkpt lat="45.79481" lon="5.02691">
        <ele>179.89545</ele>
        <time>2023-07-11T07:02:51.000Z</time>
      </trkpt>
      <trkpt lat="45.79486" lon="5.02695">
        <ele>179.92526</ele>
        <time>2023-07-11T07:02:52.000Z</time>
      </trkpt>
      <trkpt lat="45.79491" lon="5.027">
        <ele>179.96437</ele>
        <time>2023-07-11T07:02:53.000Z</time>
      </trkpt>
      <trkpt lat="45.79495" lon="5.02706">
        <ele>179.99832</ele>
        <time>2023-07-11T07:02:54.000Z</time>
      </trkpt>
      <trkpt lat="45.79499" lon="5.02711">
        <ele>180.00447</ele>
        <time>2023-07-11T07:02:55.000Z</time>
      </trkpt>
      <trkpt lat="45.79502" lon="5.02717">
        <ele>179.9964</ele>
        <time>2023-07-11T07:02:56.000Z</time>
      </trkpt>
      <trkpt lat="45.79505" lon="5.02724">
        <ele>180.01602</ele>
        <time>2023-07-11T07:02:57.000Z</time>
      </trkpt>
      <trkpt lat="45.79508" lon="5.02731">
        <ele>180.01408</ele>
        <time>2023-07-11T07:02:58.000Z</time>
      </trkpt>
      <trkpt lat="45.79509" lon="5.02738">
        <ele>180.03227</ele>
        <time>2023-07-11T07:02:59.000Z</time>
      </trkpt>
      <trkpt lat="45.7951" lon="5.02745">
        <ele>180.0488</ele>
        <time>2023-07-11T07:03:00.000Z</time>
      </trkpt>
      <trkpt lat="45.79512" lon="5.02752">
        <ele>180.04648</ele>
        <time>2023-07-11T07:03:01.000Z</time>
      </trkpt>
      <trkpt lat="45.79513" lon="5.02759">
        <ele>180.0426</ele>
        <time>2023-07-11T07:03:02.000Z</time>
      </trkpt>
      <trkpt lat="45.79514" lon="5.02766">
        <ele>180.01906</ele>
        <time>2023-07-11T07:03:03.000Z</time>
      </trkpt>
      <trkpt lat="45.79513" lon="5.02773">
        <ele>179.94504</ele>
        <time>2023-07-11T07:03:04.000Z</time>
      </trkpt>
      <trkpt lat="45.79513" lon="5.0278">
        <ele>179.88109</ele>
        <time>2023-07-11T07:03:05.000Z</time>
      </trkpt>
      <trkpt lat="45.79513" lon="5.02787">
        <ele>179.82504</ele>
        <time>2023-07-11T07:03:06.000Z</time>
      </trkpt>
      <trkpt lat="45.79514" lon="5.02794">
        <ele>179.77704</ele>
        <time>2023-07-11T07:03:07.000Z</time>
      </trkpt>
      <trkpt lat="45.79513" lon="5.02802">
        <ele>179.72784</ele>
        <time>2023-07-11T07:03:08.000Z</time>
      </trkpt>
      <trkpt lat="45.79513" lon="5.02809">
        <ele>179.68198</ele>
        <time>2023-07-11T07:03:09.000Z</time>
      </trkpt>
      <trkpt lat="45.79513" lon="5.02816">
        <ele>179.70102</ele>
        <time>2023-07-11T07:03:10.000Z</time>
      </trkpt>
      <trkpt lat="45.79513" lon="5.02823">
        <ele>179.72563</ele>
        <time>2023-07-11T07:03:11.000Z</time>
      </trkpt>
      <trkpt lat="45.79513" lon="5.0283">
        <ele>179.7509</ele>
        <time>2023-07-11T07:03:12.000Z</time>
      </trkpt>
      <trkpt lat="45.79512" lon="5.02836">
        <ele>179.74199</ele>
        <time>2023-07-11T07:03:13.000Z</time>
      </trkpt>
      <trkpt lat="45.79512" lon="5.02843">
        <ele>179.74908</ele>
        <time>2023-07-11T07:03:14.000Z</time>
      </trkpt>
      <trkpt lat="45.79513" lon="5.02849">
        <ele>179.7531</ele>
        <time>2023-07-11T07:03:15.000Z</time>
      </trkpt>
      <trkpt lat="45.79514" lon="5.02855">
        <ele>179.77036</ele>
        <time>2023-07-11T07:03:16.000Z</time>
      </trkpt>
      <trkpt lat="45.79514" lon="5.02859">
        <ele>179.7755</ele>
        <time>2023-07-11T07:03:17.000Z</time>
      </trkpt>
      <trkpt lat="45.79513" lon="5.02864">
        <ele>179.7812</ele>
        <time>2023-07-11T07:03:18.000Z</time>
      </trkpt>
      <trkpt lat="45.79511" lon="5.02868">
        <ele>179.78003</ele>
        <time>2023-07-11T07:03:19.000Z</time>
      </trkpt>
      <trkpt lat="45.7951" lon="5.02873">
        <ele>179.76753</ele>
        <time>2023-07-11T07:03:20.000Z</time>
      </trkpt>
      <trkpt lat="45.79511" lon="5.02876">
        <ele>179.77628</ele>
        <time>2023-07-11T07:03:21.000Z</time>
      </trkpt>
      <trkpt lat="45.79512" lon="5.02878">
        <ele>179.80128</ele>
        <time>2023-07-11T07:03:22.000Z</time>
      </trkpt>
      <trkpt lat="45.79514" lon="5.0288">
        <ele>179.78664</ele>
        <time>2023-07-11T07:03:23.000Z</time>
      </trkpt>
      <trkpt lat="45.79517" lon="5.02883">
        <ele>179.77792</ele>
        <time>2023-07-11T07:03:24.000Z</time>
      </trkpt>
      <trkpt lat="45.79519" lon="5.02885">
        <ele>179.78111</ele>
        <time>2023-07-11T07:03:25.000Z</time>
      </trkpt>
      <trkpt lat="45.79522" lon="5.02889">
        <ele>179.77908</ele>
        <time>2023-07-11T07:03:26.000Z</time>
      </trkpt>
      <trkpt lat="45.79525" lon="5.02893">
        <ele>179.76741</ele>
        <time>2023-07-11T07:03:27.000Z</time>
      </trkpt>
      <trkpt lat="45.79528" lon="5.02897">
        <ele>179.74342</ele>
        <time>2023-07-11T07:03:28.000Z</time>
      </trkpt>
      <trkpt lat="45.79531" lon="5.02902">
        <ele>179.6756</ele>
        <time>2023-07-11T07:03:29.000Z</time>
      </trkpt>
      <trkpt lat="45.79534" lon="5.02907">
        <ele>179.58899</ele>
        <time>2023-07-11T07:03:30.000Z</time>
      </trkpt>
      <trkpt lat="45.79537" lon="5.02912">
        <ele>179.51563</ele>
        <time>2023-07-11T07:03:31.000Z</time>
      </trkpt>
      <trkpt lat="45.79541" lon="5.02917">
        <ele>179.43777</ele>
        <time>2023-07-11T07:03:32.000Z</time>
      </trkpt>
      <trkpt lat="45.79545" lon="5.02923">
        <ele>179.38649</ele>
        <time>2023-07-11T07:03:33.000Z</time>
      </trkpt>
      <trkpt lat="45.79548" lon="5.02928">
        <ele>179.32263</ele>
        <time>2023-07-11T07:03:34.000Z</time>
      </trkpt>
      <trkpt lat="45.79552" lon="5.02934">
        <ele>179.26257</ele>
        <time>2023-07-11T07:03:35.000Z</time>
      </trkpt>
      <trkpt lat="45.79556" lon="5.02938">
        <ele>179.19408</ele>
        <time>2023-07-11T07:03:36.000Z</time>
      </trkpt>
      <trkpt lat="45.7956" lon="5.02943">
        <ele>179.12917</ele>
        <time>2023-07-11T07:03:37.000Z</time>
      </trkpt>
      <trkpt lat="45.79563" lon="5.02949">
        <ele>179.09416</ele>
        <time>2023-07-11T07:03:38.000Z</time>
      </trkpt>
      <trkpt lat="45.79566" lon="5.02954">
        <ele>179.06575</ele>
        <time>2023-07-11T07:03:39.000Z</time>
      </trkpt>
      <trkpt lat="45.79569" lon="5.02959">
        <ele>179.04904</ele>
        <time>2023-07-11T07:03:40.000Z</time>
      </trkpt>
      <trkpt lat="45.79572" lon="5.02964">
        <ele>179.02812</ele>
        <time>2023-07-11T07:03:41.000Z</time>
      </trkpt>
      <trkpt lat="45.79575" lon="5.02969">
        <ele>178.99979</ele>
        <time>2023-07-11T07:03:42.000Z</time>
      </trkpt>
      <trkpt lat="45.79578" lon="5.02973">
        <ele>179.01932</ele>
        <time>2023-07-11T07:03:43.000Z</time>
      </trkpt>
      <trkpt lat="45.79581" lon="5.02978">
        <ele>179.04904</ele>
        <time>2023-07-11T07:03:44.000Z</time>
      </trkpt>
      <trkpt lat="45.79583" lon="5.02983">
        <ele>179.10997</ele>
        <time>2023-07-11T07:03:45.000Z</time>
      </trkpt>
      <trkpt lat="45.79585" lon="5.0299">
        <ele>179.18253</ele>
        <time>2023-07-11T07:03:46.000Z</time>
      </trkpt>
      <trkpt lat="45.79588" lon="5.02994">
        <ele>179.25999</ele>
        <time>2023-07-11T07:03:47.000Z</time>
      </trkpt>
      <trkpt lat="45.79592" lon="5.02999">
        <ele>179.36551</ele>
        <time>2023-07-11T07:03:48.000Z</time>
      </trkpt>
      <trkpt lat="45.79594" lon="5.03005">
        <ele>179.50797</ele>
        <time>2023-07-11T07:03:49.000Z</time>
      </trkpt>
      <trkpt lat="45.79597" lon="5.03011">
        <ele>179.66031</ele>
        <time>2023-07-11T07:03:50.000Z</time>
      </trkpt>
      <trkpt lat="45.796" lon="5.03016">
        <ele>179.79506</ele>
        <time>2023-07-11T07:03:51.000Z</time>
      </trkpt>
      <trkpt lat="45.79602" lon="5.03022">
        <ele>179.91476</ele>
        <time>2023-07-11T07:03:52.000Z</time>
      </trkpt>
      <trkpt lat="45.79605" lon="5.03029">
        <ele>180.02444</ele>
        <time>2023-07-11T07:03:53.000Z</time>
      </trkpt>
      <trkpt lat="45.79607" lon="5.03036">
        <ele>180.14197</ele>
        <time>2023-07-11T07:03:54.000Z</time>
      </trkpt>
      <trkpt lat="45.79609" lon="5.03042">
        <ele>180.26985</ele>
        <time>2023-07-11T07:03:55.000Z</time>
      </trkpt>
      <trkpt lat="45.7961" lon="5.03049">
        <ele>180.3923</ele>
        <time>2023-07-11T07:03:56.000Z</time>
      </trkpt>
      <trkpt lat="45.79613" lon="5.03054">
        <ele>180.54108</ele>
        <time>2023-07-11T07:03:57.000Z</time>
      </trkpt>
      <trkpt lat="45.79616" lon="5.0306">
        <ele>180.66031</ele>
        <time>2023-07-11T07:03:58.000Z</time>
      </trkpt>
      <trkpt lat="45.79618" lon="5.03067">
        <ele>180.76852</ele>
        <time>2023-07-11T07:03:59.000Z</time>
      </trkpt>
      <trkpt lat="45.79621" lon="5.03073">
        <ele>180.86946</ele>
        <time>2023-07-11T07:04:00.000Z</time>
      </trkpt>
      <trkpt lat="45.79622" lon="5.03079">
        <ele>180.94443</ele>
        <time>2023-07-11T07:04:01.000Z</time>
      </trkpt>
      <trkpt lat="45.79624" lon="5.03085">
        <ele>181.02309</ele>
        <time>2023-07-11T07:04:02.000Z</time>
      </trkpt>
      <trkpt lat="45.79625" lon="5.03092">
        <ele>181.11308</ele>
        <time>2023-07-11T07:04:03.000Z</time>
      </trkpt>
      <trkpt lat="45.79627" lon="5.03097">
        <ele>181.20975</ele>
        <time>2023-07-11T07:04:04.000Z</time>
      </trkpt>
      <trkpt lat="45.79629" lon="5.03104">
        <ele>181.23447</ele>
        <time>2023-07-11T07:04:05.000Z</time>
      </trkpt>
      <trkpt lat="45.79631" lon="5.03109">
        <ele>181.29137</ele>
        <time>2023-07-11T07:04:06.000Z</time>
      </trkpt>
      <trkpt lat="45.79633" lon="5.03115">
        <ele>181.33452</ele>
        <time>2023-07-11T07:04:07.000Z</time>
      </trkpt>
      <trkpt lat="45.79636" lon="5.03121">
        <ele>181.39868</ele>
        <time>2023-07-11T07:04:08.000Z</time>
      </trkpt>
      <trkpt lat="45.79639" lon="5.03126">
        <ele>181.42496</ele>
        <time>2023-07-11T07:04:09.000Z</time>
      </trkpt>
      <trkpt lat="45.79642" lon="5.03132">
        <ele>181.43483</ele>
        <time>2023-07-11T07:04:10.000Z</time>
      </trkpt>
      <trkpt lat="45.79644" lon="5.03138">
        <ele>181.44424</ele>
        <time>2023-07-11T07:04:11.000Z</time>
      </trkpt>
      <trkpt lat="45.79646" lon="5.03144">
        <ele>181.47383</ele>
        <time>2023-07-11T07:04:12.000Z</time>
      </trkpt>
      <trkpt lat="45.79648" lon="5.0315">
        <ele>181.49866</ele>
        <time>2023-07-11T07:04:13.000Z</time>
      </trkpt>
      <trkpt lat="45.7965" lon="5.03156">
        <ele>181.51694</ele>
        <time>2023-07-11T07:04:14.000Z</time>
      </trkpt>
      <trkpt lat="45.79652" lon="5.03162">
        <ele>181.56007</ele>
        <time>2023-07-11T07:04:15.000Z</time>
      </trkpt>
      <trkpt lat="45.79653" lon="5.03168">
        <ele>181.61673</ele>
        <time>2023-07-11T07:04:16.000Z</time>
      </trkpt>
      <trkpt lat="45.79655" lon="5.03174">
        <ele>181.67036</ele>
        <time>2023-07-11T07:04:17.000Z</time>
      </trkpt>
      <trkpt lat="45.79656" lon="5.0318">
        <ele>181.69919</ele>
        <time>2023-07-11T07:04:18.000Z</time>
      </trkpt>
      <trkpt lat="45.79657" lon="5.03186">
        <ele>181.70074</ele>
        <time>2023-07-11T07:04:19.000Z</time>
      </trkpt>
      <trkpt lat="45.79658" lon="5.03193">
        <ele>181.70767</ele>
        <time>2023-07-11T07:04:20.000Z</time>
      </trkpt>
      <trkpt lat="45.79659" lon="5.03199">
        <ele>181.73973</ele>
        <time>2023-07-11T07:04:21.000Z</time>
      </trkpt>
      <trkpt lat="45.79661" lon="5.03205">
        <ele>181.77087</ele>
        <time>2023-07-11T07:04:22.000Z</time>
      </trkpt>
      <trkpt lat="45.79663" lon="5.0321">
        <ele>181.74527</ele>
        <time>2023-07-11T07:04:23.000Z</time>
      </trkpt>
      <trkpt lat="45.79665" lon="5.03215">
        <ele>181.67308</ele>
        <time>2023-07-11T07:04:24.000Z</time>
      </trkpt>
      <trkpt lat="45.79667" lon="5.03221">
        <ele>181.64706</ele>
        <time>2023-07-11T07:04:25.000Z</time>
      </trkpt>
      <trkpt lat="45.79669" lon="5.03228">
        <ele>181.58054</ele>
        <time>2023-07-11T07:04:26.000Z</time>
      </trkpt>
      <trkpt lat="45.79671" lon="5.03235">
        <ele>181.58466</ele>
        <time>2023-07-11T07:04:27.000Z</time>
      </trkpt>
      <trkpt lat="45.79672" lon="5.03242">
        <ele>181.55557</ele>
        <time>2023-07-11T07:04:28.000Z</time>
      </trkpt>
      <trkpt lat="45.79673" lon="5.03249">
        <ele>181.56897</ele>
        <time>2023-07-11T07:04:29.000Z</time>
      </trkpt>
      <trkpt lat="45.79675" lon="5.03256">
        <ele>181.63535</ele>
        <time>2023-07-11T07:04:30.000Z</time>
      </trkpt>
      <trkpt lat="45.79677" lon="5.03262">
        <ele>181.69507</ele>
        <time>2023-07-11T07:04:31.000Z</time>
      </trkpt>
      <trkpt lat="45.79679" lon="5.03269">
        <ele>181.77762</ele>
        <time>2023-07-11T07:04:32.000Z</time>
      </trkpt>
      <trkpt lat="45.7968" lon="5.03277">
        <ele>181.83168</ele>
        <time>2023-07-11T07:04:33.000Z</time>
      </trkpt>
      <trkpt lat="45.79682" lon="5.03284">
        <ele>181.90544</ele>
        <time>2023-07-11T07:04:34.000Z</time>
      </trkpt>
      <trkpt lat="45.79683" lon="5.03291">
        <ele>181.94443</ele>
        <time>2023-07-11T07:04:35.000Z</time>
      </trkpt>
      <trkpt lat="45.79685" lon="5.033">
        <ele>181.97043</ele>
        <time>2023-07-11T07:04:36.000Z</time>
      </trkpt>
      <trkpt lat="45.79684" lon="5.03305">
        <ele>181.97998</ele>
        <time>2023-07-11T07:04:37.000Z</time>
      </trkpt>
      <trkpt lat="45.79682" lon="5.03313">
        <ele>181.95926</ele>
        <time>2023-07-11T07:04:38.000Z</time>
      </trkpt>
      <trkpt lat="45.79681" lon="5.0332">
        <ele>181.95099</ele>
        <time>2023-07-11T07:04:39.000Z</time>
      </trkpt>
      <trkpt lat="45.79681" lon="5.03327">
        <ele>181.931</ele>
        <time>2023-07-11T07:04:40.000Z</time>
      </trkpt>
      <trkpt lat="45.7968" lon="5.03336">
        <ele>181.9166</ele>
        <time>2023-07-11T07:04:41.000Z</time>
      </trkpt>
      <trkpt lat="45.79679" lon="5.03345">
        <ele>181.89777</ele>
        <time>2023-07-11T07:04:42.000Z</time>
      </trkpt>
      <trkpt lat="45.79681" lon="5.03353">
        <ele>181.89072</ele>
        <time>2023-07-11T07:04:43.000Z</time>
      </trkpt>
      <trkpt lat="45.79682" lon="5.0336">
        <ele>181.91748</ele>
        <time>2023-07-11T07:04:44.000Z</time>
      </trkpt>
      <trkpt lat="45.79682" lon="5.03366">
        <ele>181.9455</ele>
        <time>2023-07-11T07:04:45.000Z</time>
      </trkpt>
      <trkpt lat="45.79683" lon="5.03374">
        <ele>181.98581</ele>
        <time>2023-07-11T07:04:46.000Z</time>
      </trkpt>
      <trkpt lat="45.79684" lon="5.03381">
        <ele>181.99667</ele>
        <time>2023-07-11T07:04:47.000Z</time>
      </trkpt>
      <trkpt lat="45.79686" lon="5.03389">
        <ele>182.00079</ele>
        <time>2023-07-11T07:04:48.000Z</time>
      </trkpt>
      <trkpt lat="45.79687" lon="5.03397">
        <ele>181.98628</ele>
        <time>2023-07-11T07:04:49.000Z</time>
      </trkpt>
      <trkpt lat="45.79688" lon="5.03405">
        <ele>181.90642</ele>
        <time>2023-07-11T07:04:50.000Z</time>
      </trkpt>
      <trkpt lat="45.7969" lon="5.03413">
        <ele>181.82793</ele>
        <time>2023-07-11T07:04:51.000Z</time>
      </trkpt>
      <trkpt lat="45.79691" lon="5.03421">
        <ele>181.69778</ele>
        <time>2023-07-11T07:04:52.000Z</time>
      </trkpt>
      <trkpt lat="45.79692" lon="5.03428">
        <ele>181.60312</ele>
        <time>2023-07-11T07:04:53.000Z</time>
      </trkpt>
      <trkpt lat="45.79694" lon="5.03436">
        <ele>181.49919</ele>
        <time>2023-07-11T07:04:54.000Z</time>
      </trkpt>
      <trkpt lat="45.79694" lon="5.03444">
        <ele>181.41208</ele>
        <time>2023-07-11T07:04:55.000Z</time>
      </trkpt>
      <trkpt lat="45.79695" lon="5.03451">
        <ele>181.35435</ele>
        <time>2023-07-11T07:04:56.000Z</time>
      </trkpt>
      <trkpt lat="45.79697" lon="5.03459">
        <ele>181.29114</ele>
        <time>2023-07-11T07:04:57.000Z</time>
      </trkpt>
      <trkpt lat="45.79698" lon="5.03466">
        <ele>181.2906</ele>
        <time>2023-07-11T07:04:58.000Z</time>
      </trkpt>
      <trkpt lat="45.797" lon="5.03474">
        <ele>181.30838</ele>
        <time>2023-07-11T07:04:59.000Z</time>
      </trkpt>
      <trkpt lat="45.79701" lon="5.03481">
        <ele>181.33884</ele>
        <time>2023-07-11T07:05:00.000Z</time>
      </trkpt>
      <trkpt lat="45.79703" lon="5.03489">
        <ele>181.36389</ele>
        <time>2023-07-11T07:05:01.000Z</time>
      </trkpt>
      <trkpt lat="45.79704" lon="5.03496">
        <ele>181.39932</ele>
        <time>2023-07-11T07:05:02.000Z</time>
      </trkpt>
      <trkpt lat="45.79705" lon="5.03504">
        <ele>181.44081</ele>
        <time>2023-07-11T07:05:03.000Z</time>
      </trkpt>
      <trkpt lat="45.79707" lon="5.03511">
        <ele>181.48131</ele>
        <time>2023-07-11T07:05:04.000Z</time>
      </trkpt>
      <trkpt lat="45.79709" lon="5.03519">
        <ele>181.50302</ele>
        <time>2023-07-11T07:05:05.000Z</time>
      </trkpt>
      <trkpt lat="45.7971" lon="5.03526">
        <ele>181.54068</ele>
        <time>2023-07-11T07:05:06.000Z</time>
      </trkpt>
      <trkpt lat="45.79712" lon="5.03534">
        <ele>181.54916</ele>
        <time>2023-07-11T07:05:07.000Z</time>
      </trkpt>
      <trkpt lat="45.79714" lon="5.03542">
        <ele>181.56966</ele>
        <time>2023-07-11T07:05:08.000Z</time>
      </trkpt>
      <trkpt lat="45.79716" lon="5.03549">
        <ele>181.60951</ele>
        <time>2023-07-11T07:05:09.000Z</time>
      </trkpt>
      <trkpt lat="45.79718" lon="5.03557">
        <ele>181.67049</ele>
        <time>2023-07-11T07:05:10.000Z</time>
      </trkpt>
      <trkpt lat="45.7972" lon="5.03565">
        <ele>181.71297</ele>
        <time>2023-07-11T07:05:11.000Z</time>
      </trkpt>
      <trkpt lat="45.79722" lon="5.03573">
        <ele>181.76973</ele>
        <time>2023-07-11T07:05:12.000Z</time>
      </trkpt>
      <trkpt lat="45.79723" lon="5.03581">
        <ele>181.84348</ele>
        <time>2023-07-11T07:05:13.000Z</time>
      </trkpt>
      <trkpt lat="45.79724" lon="5.03587">
        <ele>181.90384</ele>
        <time>2023-07-11T07:05:14.000Z</time>
      </trkpt>
      <trkpt lat="45.79726" lon="5.03594">
        <ele>181.96324</ele>
        <time>2023-07-11T07:05:15.000Z</time>
      </trkpt>
      <trkpt lat="45.79728" lon="5.036">
        <ele>182.01385</ele>
        <time>2023-07-11T07:05:16.000Z</time>
      </trkpt>
      <trkpt lat="45.7973" lon="5.03606">
        <ele>182.09515</ele>
        <time>2023-07-11T07:05:17.000Z</time>
      </trkpt>
      <trkpt lat="45.79732" lon="5.03611">
        <ele>182.16795</ele>
        <time>2023-07-11T07:05:18.000Z</time>
      </trkpt>
      <trkpt lat="45.79734" lon="5.03616">
        <ele>182.2428</ele>
        <time>2023-07-11T07:05:19.000Z</time>
      </trkpt>
      <trkpt lat="45.79734" lon="5.0362">
        <ele>182.30888</ele>
        <time>2023-07-11T07:05:20.000Z</time>
      </trkpt>
      <trkpt lat="45.79735" lon="5.03623">
        <ele>182.36758</ele>
        <time>2023-07-11T07:05:21.000Z</time>
      </trkpt>
      <trkpt lat="45.79736" lon="5.03625">
        <ele>182.43588</ele>
        <time>2023-07-11T07:05:22.000Z</time>
      </trkpt>
      <trkpt lat="45.79737" lon="5.0363">
        <ele>182.51059</ele>
        <time>2023-07-11T07:05:23.000Z</time>
      </trkpt>
      <trkpt lat="45.79739" lon="5.03633">
        <ele>182.57251</ele>
        <time>2023-07-11T07:05:24.000Z</time>
      </trkpt>
      <trkpt lat="45.79741" lon="5.03638">
        <ele>182.64763</ele>
        <time>2023-07-11T07:05:25.000Z</time>
      </trkpt>
      <trkpt lat="45.79743" lon="5.03642">
        <ele>182.70154</ele>
        <time>2023-07-11T07:05:26.000Z</time>
      </trkpt>
      <trkpt lat="45.79745" lon="5.03647">
        <ele>182.75639</ele>
        <time>2023-07-11T07:05:27.000Z</time>
      </trkpt>
      <trkpt lat="45.79747" lon="5.03652">
        <ele>182.79553</ele>
        <time>2023-07-11T07:05:28.000Z</time>
      </trkpt>
      <trkpt lat="45.7975" lon="5.03656">
        <ele>182.82307</ele>
        <time>2023-07-11T07:05:29.000Z</time>
      </trkpt>
      <trkpt lat="45.79753" lon="5.03661">
        <ele>182.83664</ele>
        <time>2023-07-11T07:05:30.000Z</time>
      </trkpt>
      <trkpt lat="45.79755" lon="5.03667">
        <ele>182.88632</ele>
        <time>2023-07-11T07:05:31.000Z</time>
      </trkpt>
      <trkpt lat="45.79758" lon="5.03673">
        <ele>182.92044</ele>
        <time>2023-07-11T07:05:32.000Z</time>
      </trkpt>
      <trkpt lat="45.7976" lon="5.03679">
        <ele>182.94408</ele>
        <time>2023-07-11T07:05:33.000Z</time>
      </trkpt>
      <trkpt lat="45.79763" lon="5.03684">
        <ele>182.95232</ele>
        <time>2023-07-11T07:05:34.000Z</time>
      </trkpt>
      <trkpt lat="45.79765" lon="5.03689">
        <ele>182.94879</ele>
        <time>2023-07-11T07:05:35.000Z</time>
      </trkpt>
      <trkpt lat="45.79768" lon="5.03695">
        <ele>182.98807</ele>
        <time>2023-07-11T07:05:36.000Z</time>
      </trkpt>
      <trkpt lat="45.79771" lon="5.03701">
        <ele>182.98679</ele>
        <time>2023-07-11T07:05:37.000Z</time>
      </trkpt>
      <trkpt lat="45.79775" lon="5.03707">
        <ele>182.98105</ele>
        <time>2023-07-11T07:05:38.000Z</time>
      </trkpt>
      <trkpt lat="45.79778" lon="5.03712">
        <ele>182.97139</ele>
        <time>2023-07-11T07:05:39.000Z</time>
      </trkpt>
      <trkpt lat="45.79781" lon="5.03718">
        <ele>182.94946</ele>
        <time>2023-07-11T07:05:40.000Z</time>
      </trkpt>
      <trkpt lat="45.79785" lon="5.03723">
        <ele>182.92584</ele>
        <time>2023-07-11T07:05:41.000Z</time>
      </trkpt>
      <trkpt lat="45.79788" lon="5.03729">
        <ele>182.89261</ele>
        <time>2023-07-11T07:05:42.000Z</time>
      </trkpt>
      <trkpt lat="45.79792" lon="5.03734">
        <ele>182.87752</ele>
        <time>2023-07-11T07:05:43.000Z</time>
      </trkpt>
      <trkpt lat="45.79794" lon="5.0374">
        <ele>182.89474</ele>
        <time>2023-07-11T07:05:44.000Z</time>
      </trkpt>
      <trkpt lat="45.79798" lon="5.03743">
        <ele>182.91254</ele>
        <time>2023-07-11T07:05:45.000Z</time>
      </trkpt>
      <trkpt lat="45.79803" lon="5.03749">
        <ele>182.91306</ele>
        <time>2023-07-11T07:05:46.000Z</time>
      </trkpt>
      <trkpt lat="45.79808" lon="5.03754">
        <ele>182.90942</ele>
        <time>2023-07-11T07:05:47.000Z</time>
      </trkpt>
      <trkpt lat="45.79812" lon="5.0376">
        <ele>182.90579</ele>
        <time>2023-07-11T07:05:48.000Z</time>
      </trkpt>
      <trkpt lat="45.79817" lon="5.03765">
        <ele>182.89708</ele>
        <time>2023-07-11T07:05:49.000Z</time>
      </trkpt>
      <trkpt lat="45.79821" lon="5.03771">
        <ele>182.88812</ele>
        <time>2023-07-11T07:05:50.000Z</time>
      </trkpt>
      <trkpt lat="45.79826" lon="5.03776">
        <ele>182.87944</ele>
        <time>2023-07-11T07:05:51.000Z</time>
      </trkpt>
      <trkpt lat="45.7983" lon="5.03782">
        <ele>182.90231</ele>
        <time>2023-07-11T07:05:52.000Z</time>
      </trkpt>
      <trkpt lat="45.79834" lon="5.03787">
        <ele>182.90321</ele>
        <time>2023-07-11T07:05:53.000Z</time>
      </trkpt>
      <trkpt lat="45.79838" lon="5.03794">
        <ele>182.91066</ele>
        <time>2023-07-11T07:05:54.000Z</time>
      </trkpt>
      <trkpt lat="45.79843" lon="5.03798">
        <ele>182.92198</ele>
        <time>2023-07-11T07:05:55.000Z</time>
      </trkpt>
      <trkpt lat="45.79848" lon="5.03803">
        <ele>182.89276</ele>
        <time>2023-07-11T07:05:56.000Z</time>
      </trkpt>
      <trkpt lat="45.79853" lon="5.03807">
        <ele>182.88223</ele>
        <time>2023-07-11T07:05:57.000Z</time>
      </trkpt>
      <trkpt lat="45.79857" lon="5.03812">
        <ele>182.87473</ele>
        <time>2023-07-11T07:05:58.000Z</time>
      </trkpt>
      <trkpt lat="45.79862" lon="5.03816">
        <ele>182.85632</ele>
        <time>2023-07-11T07:05:59.000Z</time>
      </trkpt>
      <trkpt lat="45.79866" lon="5.03821">
        <ele>182.85493</ele>
        <time>2023-07-11T07:06:00.000Z</time>
      </trkpt>
      <trkpt lat="45.79871" lon="5.03827">
        <ele>182.84744</ele>
        <time>2023-07-11T07:06:01.000Z</time>
      </trkpt>
      <trkpt lat="45.79875" lon="5.03832">
        <ele>182.83038</ele>
        <time>2023-07-11T07:06:02.000Z</time>
      </trkpt>
      <trkpt lat="45.79879" lon="5.03838">
        <ele>182.79764</ele>
        <time>2023-07-11T07:06:03.000Z</time>
      </trkpt>
      <trkpt lat="45.79883" lon="5.03844">
        <ele>182.76218</ele>
        <time>2023-07-11T07:06:04.000Z</time>
      </trkpt>
      <trkpt lat="45.79887" lon="5.03849">
        <ele>182.73143</ele>
        <time>2023-07-11T07:06:05.000Z</time>
      </trkpt>
      <trkpt lat="45.79892" lon="5.03854">
        <ele>182.73016</ele>
        <time>2023-07-11T07:06:06.000Z</time>
      </trkpt>
      <trkpt lat="45.79896" lon="5.03859">
        <ele>182.7245</ele>
        <time>2023-07-11T07:06:07.000Z</time>
      </trkpt>
      <trkpt lat="45.79901" lon="5.03862">
        <ele>182.74179</ele>
        <time>2023-07-11T07:06:08.000Z</time>
      </trkpt>
      <trkpt lat="45.79906" lon="5.03867">
        <ele>182.75119</ele>
        <time>2023-07-11T07:06:09.000Z</time>
      </trkpt>
      <trkpt lat="45.79912" lon="5.03871">
        <ele>182.74509</ele>
        <time>2023-07-11T07:06:10.000Z</time>
      </trkpt>
      <trkpt lat="45.79917" lon="5.03876">
        <ele>182.72177</ele>
        <time>2023-07-11T07:06:11.000Z</time>
      </trkpt>
      <trkpt lat="45.79922" lon="5.0388">
        <ele>182.7021</ele>
        <time>2023-07-11T07:06:12.000Z</time>
      </trkpt>
      <trkpt lat="45.79927" lon="5.03884">
        <ele>182.68686</ele>
        <time>2023-07-11T07:06:13.000Z</time>
      </trkpt>
      <trkpt lat="45.79932" lon="5.03889">
        <ele>182.67276</ele>
        <time>2023-07-11T07:06:14.000Z</time>
      </trkpt>
      <trkpt lat="45.79937" lon="5.03894">
        <ele>182.65314</ele>
        <time>2023-07-11T07:06:15.000Z</time>
      </trkpt>
      <trkpt lat="45.79941" lon="5.03899">
        <ele>182.61755</ele>
        <time>2023-07-11T07:06:16.000Z</time>
      </trkpt>
      <trkpt lat="45.79946" lon="5.03903">
        <ele>182.57816</ele>
        <time>2023-07-11T07:06:17.000Z</time>
      </trkpt>
      <trkpt lat="45.7995" lon="5.03908">
        <ele>182.53026</ele>
        <time>2023-07-11T07:06:18.000Z</time>
      </trkpt>
      <trkpt lat="45.79955" lon="5.03912">
        <ele>182.51643</ele>
        <time>2023-07-11T07:06:19.000Z</time>
      </trkpt>
      <trkpt lat="45.79959" lon="5.03917">
        <ele>182.48923</ele>
        <time>2023-07-11T07:06:20.000Z</time>
      </trkpt>
      <trkpt lat="45.79963" lon="5.03922">
        <ele>182.46584</ele>
        <time>2023-07-11T07:06:21.000Z</time>
      </trkpt>
      <trkpt lat="45.79968" lon="5.03927">
        <ele>182.44833</ele>
        <time>2023-07-11T07:06:22.000Z</time>
      </trkpt>
      <trkpt lat="45.79971" lon="5.03934">
        <ele>182.4249</ele>
        <time>2023-07-11T07:06:23.000Z</time>
      </trkpt>
      <trkpt lat="45.79975" lon="5.03938">
        <ele>182.37839</ele>
        <time>2023-07-11T07:06:24.000Z</time>
      </trkpt>
      <trkpt lat="45.79979" lon="5.03943">
        <ele>182.33557</ele>
        <time>2023-07-11T07:06:25.000Z</time>
      </trkpt>
      <trkpt lat="45.79983" lon="5.03948">
        <ele>182.27339</ele>
        <time>2023-07-11T07:06:26.000Z</time>
      </trkpt>
      <trkpt lat="45.79987" lon="5.03953">
        <ele>182.23164</ele>
        <time>2023-07-11T07:06:27.000Z</time>
      </trkpt>
      <trkpt lat="45.79991" lon="5.03957">
        <ele>182.15511</ele>
        <time>2023-07-11T07:06:28.000Z</time>
      </trkpt>
      <trkpt lat="45.79995" lon="5.03962">
        <ele>182.103</ele>
        <time>2023-07-11T07:06:29.000Z</time>
      </trkpt>
      <trkpt lat="45.79999" lon="5.03966">
        <ele>182.07339</ele>
        <time>2023-07-11T07:06:30.000Z</time>
      </trkpt>
      <trkpt lat="45.80002" lon="5.0397">
        <ele>182.0607</ele>
        <time>2023-07-11T07:06:31.000Z</time>
      </trkpt>
      <trkpt lat="45.80006" lon="5.03973">
        <ele>182.02692</ele>
        <time>2023-07-11T07:06:32.000Z</time>
      </trkpt>
      <trkpt lat="45.80009" lon="5.03976">
        <ele>182.00781</ele>
        <time>2023-07-11T07:06:33.000Z</time>
      </trkpt>
      <trkpt lat="45.80013" lon="5.03979">
        <ele>182.00613</ele>
        <time>2023-07-11T07:06:34.000Z</time>
      </trkpt>
      <trkpt lat="45.80016" lon="5.03982">
        <ele>182.00192</ele>
        <time>2023-07-11T07:06:35.000Z</time>
      </trkpt>
      <trkpt lat="45.80018" lon="5.03985">
        <ele>182.01622</ele>
        <time>2023-07-11T07:06:36.000Z</time>
      </trkpt>
      <trkpt lat="45.8002" lon="5.03989">
        <ele>182.02237</ele>
        <time>2023-07-11T07:06:37.000Z</time>
      </trkpt>
      <trkpt lat="45.80022" lon="5.03992">
        <ele>182.02689</ele>
        <time>2023-07-11T07:06:38.000Z</time>
      </trkpt>
      <trkpt lat="45.80025" lon="5.03994">
        <ele>182.01015</ele>
        <time>2023-07-11T07:06:39.000Z</time>
      </trkpt>
      <trkpt lat="45.80027" lon="5.03996">
        <ele>181.98894</ele>
        <time>2023-07-11T07:06:40.000Z</time>
      </trkpt>
      <trkpt lat="45.80029" lon="5.04">
        <ele>181.95682</ele>
        <time>2023-07-11T07:06:41.000Z</time>
      </trkpt>
      <trkpt lat="45.8003" lon="5.04005">
        <ele>181.91231</ele>
        <time>2023-07-11T07:06:42.000Z</time>
      </trkpt>
      <trkpt lat="45.8003" lon="5.0401">
        <ele>181.88913</ele>
        <time>2023-07-11T07:06:43.000Z</time>
      </trkpt>
      <trkpt lat="45.80031" lon="5.04015">
        <ele>181.84499</ele>
        <time>2023-07-11T07:06:44.000Z</time>
      </trkpt>
      <trkpt lat="45.80035" lon="5.04021">
        <ele>181.78938</ele>
        <time>2023-07-11T07:06:45.000Z</time>
      </trkpt>
      <trkpt lat="45.80038" lon="5.04025">
        <ele>181.73868</ele>
        <time>2023-07-11T07:06:46.000Z</time>
      </trkpt>
      <trkpt lat="45.80042" lon="5.04031">
        <ele>181.67807</ele>
        <time>2023-07-11T07:06:47.000Z</time>
      </trkpt>
      <trkpt lat="45.80046" lon="5.04035">
        <ele>181.62869</ele>
        <time>2023-07-11T07:06:48.000Z</time>
      </trkpt>
      <trkpt lat="45.80051" lon="5.0404">
        <ele>181.61603</ele>
        <time>2023-07-11T07:06:49.000Z</time>
      </trkpt>
      <trkpt lat="45.80056" lon="5.04045">
        <ele>181.61998</ele>
        <time>2023-07-11T07:06:50.000Z</time>
      </trkpt>
      <trkpt lat="45.8006" lon="5.0405">
        <ele>181.57571</ele>
        <time>2023-07-11T07:06:51.000Z</time>
      </trkpt>
      <trkpt lat="45.80065" lon="5.04055">
        <ele>181.55508</ele>
        <time>2023-07-11T07:06:52.000Z</time>
      </trkpt>
      <trkpt lat="45.80071" lon="5.0406">
        <ele>181.50781</ele>
        <time>2023-07-11T07:06:53.000Z</time>
      </trkpt>
      <trkpt lat="45.80075" lon="5.04064">
        <ele>181.44339</ele>
        <time>2023-07-11T07:06:54.000Z</time>
      </trkpt>
      <trkpt lat="45.8008" lon="5.04069">
        <ele>181.41153</ele>
        <time>2023-07-11T07:06:55.000Z</time>
      </trkpt>
      <trkpt lat="45.80085" lon="5.04073">
        <ele>181.37016</ele>
        <time>2023-07-11T07:06:56.000Z</time>
      </trkpt>
      <trkpt lat="45.80089" lon="5.04078">
        <ele>181.32994</ele>
        <time>2023-07-11T07:06:57.000Z</time>
      </trkpt>
      <trkpt lat="45.80093" lon="5.04083">
        <ele>181.27171</ele>
        <time>2023-07-11T07:06:58.000Z</time>
      </trkpt>
      <trkpt lat="45.80097" lon="5.04087">
        <ele>181.22296</ele>
        <time>2023-07-11T07:06:59.000Z</time>
      </trkpt>
      <trkpt lat="45.80102" lon="5.04092">
        <ele>181.18507</ele>
        <time>2023-07-11T07:07:00.000Z</time>
      </trkpt>
      <trkpt lat="45.80106" lon="5.04096">
        <ele>181.16306</ele>
        <time>2023-07-11T07:07:01.000Z</time>
      </trkpt>
      <trkpt lat="45.80111" lon="5.04101">
        <ele>181.16414</ele>
        <time>2023-07-11T07:07:02.000Z</time>
      </trkpt>
      <trkpt lat="45.80115" lon="5.04106">
        <ele>181.15158</ele>
        <time>2023-07-11T07:07:03.000Z</time>
      </trkpt>
      <trkpt lat="45.80119" lon="5.04111">
        <ele>181.14536</ele>
        <time>2023-07-11T07:07:04.000Z</time>
      </trkpt>
      <trkpt lat="45.80122" lon="5.04116">
        <ele>181.13084</ele>
        <time>2023-07-11T07:07:05.000Z</time>
      </trkpt>
      <trkpt lat="45.80126" lon="5.0412">
        <ele>181.14552</ele>
        <time>2023-07-11T07:07:06.000Z</time>
      </trkpt>
      <trkpt lat="45.80131" lon="5.04126">
        <ele>181.13516</ele>
        <time>2023-07-11T07:07:07.000Z</time>
      </trkpt>
      <trkpt lat="45.80135" lon="5.0413">
        <ele>181.15959</ele>
        <time>2023-07-11T07:07:08.000Z</time>
      </trkpt>
      <trkpt lat="45.80139" lon="5.04135">
        <ele>181.12233</ele>
        <time>2023-07-11T07:07:09.000Z</time>
      </trkpt>
      <trkpt lat="45.80143" lon="5.0414">
        <ele>181.04765</ele>
        <time>2023-07-11T07:07:10.000Z</time>
      </trkpt>
      <trkpt lat="45.80147" lon="5.04144">
        <ele>181.01089</ele>
        <time>2023-07-11T07:07:11.000Z</time>
      </trkpt>
      <trkpt lat="45.80151" lon="5.0415">
        <ele>180.97189</ele>
        <time>2023-07-11T07:07:12.000Z</time>
      </trkpt>
      <trkpt lat="45.80155" lon="5.04153">
        <ele>180.99541</ele>
        <time>2023-07-11T07:07:13.000Z</time>
      </trkpt>
      <trkpt lat="45.8016" lon="5.04158">
        <ele>181.05238</ele>
        <time>2023-07-11T07:07:14.000Z</time>
      </trkpt>
      <trkpt lat="45.80164" lon="5.04163">
        <ele>181.09669</ele>
        <time>2023-07-11T07:07:15.000Z</time>
      </trkpt>
      <trkpt lat="45.80168" lon="5.04167">
        <ele>181.13802</ele>
        <time>2023-07-11T07:07:16.000Z</time>
      </trkpt>
      <trkpt lat="45.80173" lon="5.04171">
        <ele>181.19371</ele>
        <time>2023-07-11T07:07:17.000Z</time>
      </trkpt>
      <trkpt lat="45.80177" lon="5.04176">
        <ele>181.29111</ele>
        <time>2023-07-11T07:07:18.000Z</time>
      </trkpt>
      <trkpt lat="45.80182" lon="5.0418">
        <ele>181.37456</ele>
        <time>2023-07-11T07:07:19.000Z</time>
      </trkpt>
      <trkpt lat="45.80186" lon="5.04184">
        <ele>181.44638</ele>
        <time>2023-07-11T07:07:20.000Z</time>
      </trkpt>
      <trkpt lat="45.8019" lon="5.04189">
        <ele>181.52994</ele>
        <time>2023-07-11T07:07:21.000Z</time>
      </trkpt>
      <trkpt lat="45.80195" lon="5.04192">
        <ele>181.59749</ele>
        <time>2023-07-11T07:07:22.000Z</time>
      </trkpt>
      <trkpt lat="45.802" lon="5.04196">
        <ele>181.6736</ele>
        <time>2023-07-11T07:07:23.000Z</time>
      </trkpt>
      <trkpt lat="45.80204" lon="5.04201">
        <ele>181.7825</ele>
        <time>2023-07-11T07:07:24.000Z</time>
      </trkpt>
      <trkpt lat="45.80208" lon="5.04206">
        <ele>181.89938</ele>
        <time>2023-07-11T07:07:25.000Z</time>
      </trkpt>
      <trkpt lat="45.80212" lon="5.04212">
        <ele>182.01096</ele>
        <time>2023-07-11T07:07:26.000Z</time>
      </trkpt>
      <trkpt lat="45.80217" lon="5.04217">
        <ele>182.15413</ele>
        <time>2023-07-11T07:07:27.000Z</time>
      </trkpt>
      <trkpt lat="45.80221" lon="5.04222">
        <ele>182.27615</ele>
        <time>2023-07-11T07:07:28.000Z</time>
      </trkpt>
      <trkpt lat="45.80224" lon="5.04228">
        <ele>182.40842</ele>
        <time>2023-07-11T07:07:29.000Z</time>
      </trkpt>
      <trkpt lat="45.80227" lon="5.04235">
        <ele>182.53806</ele>
        <time>2023-07-11T07:07:30.000Z</time>
      </trkpt>
      <trkpt lat="45.8023" lon="5.04242">
        <ele>182.65939</ele>
        <time>2023-07-11T07:07:31.000Z</time>
      </trkpt>
      <trkpt lat="45.80233" lon="5.04249">
        <ele>182.7744</ele>
        <time>2023-07-11T07:07:32.000Z</time>
      </trkpt>
      <trkpt lat="45.80235" lon="5.04256">
        <ele>182.85207</ele>
        <time>2023-07-11T07:07:33.000Z</time>
      </trkpt>
      <trkpt lat="45.80237" lon="5.04264">
        <ele>182.871</ele>
        <time>2023-07-11T07:07:34.000Z</time>
      </trkpt>
      <trkpt lat="45.80239" lon="5.04273">
        <ele>182.87024</ele>
        <time>2023-07-11T07:07:35.000Z</time>
      </trkpt>
      <trkpt lat="45.80241" lon="5.04281">
        <ele>182.86394</ele>
        <time>2023-07-11T07:07:36.000Z</time>
      </trkpt>
      <trkpt lat="45.80242" lon="5.04289">
        <ele>182.86128</ele>
        <time>2023-07-11T07:07:37.000Z</time>
      </trkpt>
      <trkpt lat="45.80244" lon="5.04297">
        <ele>182.85443</ele>
        <time>2023-07-11T07:07:38.000Z</time>
      </trkpt>
      <trkpt lat="45.80247" lon="5.04305">
        <ele>182.87141</ele>
        <time>2023-07-11T07:07:39.000Z</time>
      </trkpt>
      <trkpt lat="45.80249" lon="5.04314">
        <ele>182.90599</ele>
        <time>2023-07-11T07:07:40.000Z</time>
      </trkpt>
      <trkpt lat="45.8025" lon="5.04322">
        <ele>182.91228</ele>
        <time>2023-07-11T07:07:41.000Z</time>
      </trkpt>
      <trkpt lat="45.80253" lon="5.04329">
        <ele>182.9227</ele>
        <time>2023-07-11T07:07:42.000Z</time>
      </trkpt>
      <trkpt lat="45.80256" lon="5.04336">
        <ele>182.92123</ele>
        <time>2023-07-11T07:07:43.000Z</time>
      </trkpt>
      <trkpt lat="45.80259" lon="5.04344">
        <ele>182.92625</ele>
        <time>2023-07-11T07:07:44.000Z</time>
      </trkpt>
      <trkpt lat="45.80263" lon="5.04351">
        <ele>182.94489</ele>
        <time>2023-07-11T07:07:45.000Z</time>
      </trkpt>
      <trkpt lat="45.80267" lon="5.04358">
        <ele>182.95592</ele>
        <time>2023-07-11T07:07:46.000Z</time>
      </trkpt>
      <trkpt lat="45.80271" lon="5.04365">
        <ele>182.94876</ele>
        <time>2023-07-11T07:07:47.000Z</time>
      </trkpt>
      <trkpt lat="45.80275" lon="5.04371">
        <ele>182.95155</ele>
        <time>2023-07-11T07:07:48.000Z</time>
      </trkpt>
      <trkpt lat="45.80279" lon="5.04377">
        <ele>182.9472</ele>
        <time>2023-07-11T07:07:49.000Z</time>
      </trkpt>
      <trkpt lat="45.80283" lon="5.04384">
        <ele>182.9509</ele>
        <time>2023-07-11T07:07:50.000Z</time>
      </trkpt>
      <trkpt lat="45.80287" lon="5.0439">
        <ele>182.96066</ele>
        <time>2023-07-11T07:07:51.000Z</time>
      </trkpt>
      <trkpt lat="45.80291" lon="5.04396">
        <ele>182.96054</ele>
        <time>2023-07-11T07:07:52.000Z</time>
      </trkpt>
      <trkpt lat="45.80295" lon="5.04403">
        <ele>182.95039</ele>
        <time>2023-07-11T07:07:53.000Z</time>
      </trkpt>
      <trkpt lat="45.80299" lon="5.04409">
        <ele>182.96497</ele>
        <time>2023-07-11T07:07:54.000Z</time>
      </trkpt>
      <trkpt lat="45.80303" lon="5.04416">
        <ele>182.96651</ele>
        <time>2023-07-11T07:07:55.000Z</time>
      </trkpt>
      <trkpt lat="45.80307" lon="5.04422">
        <ele>182.96252</ele>
        <time>2023-07-11T07:07:56.000Z</time>
      </trkpt>
      <trkpt lat="45.80311" lon="5.04429">
        <ele>182.94849</ele>
        <time>2023-07-11T07:07:57.000Z</time>
      </trkpt>
      <trkpt lat="45.80316" lon="5.04436">
        <ele>182.91411</ele>
        <time>2023-07-11T07:07:58.000Z</time>
      </trkpt>
      <trkpt lat="45.8032" lon="5.04441">
        <ele>182.87598</ele>
        <time>2023-07-11T07:07:59.000Z</time>
      </trkpt>
      <trkpt lat="45.80324" lon="5.04448">
        <ele>182.81763</ele>
        <time>2023-07-11T07:08:00.000Z</time>
      </trkpt>
      <trkpt lat="45.80327" lon="5.04454">
        <ele>182.8037</ele>
        <time>2023-07-11T07:08:01.000Z</time>
      </trkpt>
      <trkpt lat="45.80331" lon="5.0446">
        <ele>182.79881</ele>
        <time>2023-07-11T07:08:02.000Z</time>
      </trkpt>
      <trkpt lat="45.80335" lon="5.04466">
        <ele>182.79391</ele>
        <time>2023-07-11T07:08:03.000Z</time>
      </trkpt>
      <trkpt lat="45.80339" lon="5.04473">
        <ele>182.76138</ele>
        <time>2023-07-11T07:08:04.000Z</time>
      </trkpt>
      <trkpt lat="45.80344" lon="5.04479">
        <ele>182.71599</ele>
        <time>2023-07-11T07:08:05.000Z</time>
      </trkpt>
      <trkpt lat="45.80348" lon="5.04484">
        <ele>182.65285</ele>
        <time>2023-07-11T07:08:06.000Z</time>
      </trkpt>
      <trkpt lat="45.80352" lon="5.04491">
        <ele>182.5835</ele>
        <time>2023-07-11T07:08:07.000Z</time>
      </trkpt>
      <trkpt lat="45.80356" lon="5.04498">
        <ele>182.46915</ele>
        <time>2023-07-11T07:08:08.000Z</time>
      </trkpt>
      <trkpt lat="45.8036" lon="5.04504">
        <ele>182.35675</ele>
        <time>2023-07-11T07:08:09.000Z</time>
      </trkpt>
      <trkpt lat="45.80365" lon="5.0451">
        <ele>182.25873</ele>
        <time>2023-07-11T07:08:10.000Z</time>
      </trkpt>
      <trkpt lat="45.8037" lon="5.04515">
        <ele>182.15485</ele>
        <time>2023-07-11T07:08:11.000Z</time>
      </trkpt>
      <trkpt lat="45.80374" lon="5.04521">
        <ele>182.0621</ele>
        <time>2023-07-11T07:08:12.000Z</time>
      </trkpt>
      <trkpt lat="45.80378" lon="5.04524">
        <ele>181.96487</ele>
        <time>2023-07-11T07:08:13.000Z</time>
      </trkpt>
      <trkpt lat="45.80383" lon="5.04531">
        <ele>181.86612</ele>
        <time>2023-07-11T07:08:14.000Z</time>
      </trkpt>
      <trkpt lat="45.80387" lon="5.04538">
        <ele>181.76886</ele>
        <time>2023-07-11T07:08:15.000Z</time>
      </trkpt>
      <trkpt lat="45.80391" lon="5.04544">
        <ele>181.70764</ele>
        <time>2023-07-11T07:08:16.000Z</time>
      </trkpt>
      <trkpt lat="45.80395" lon="5.04551">
        <ele>181.66481</ele>
        <time>2023-07-11T07:08:17.000Z</time>
      </trkpt>
      <trkpt lat="45.80398" lon="5.04558">
        <ele>181.5954</ele>
        <time>2023-07-11T07:08:18.000Z</time>
      </trkpt>
      <trkpt lat="45.80403" lon="5.04565">
        <ele>181.5058</ele>
        <time>2023-07-11T07:08:19.000Z</time>
      </trkpt>
      <trkpt lat="45.80406" lon="5.04572">
        <ele>181.40492</ele>
        <time>2023-07-11T07:08:20.000Z</time>
      </trkpt>
      <trkpt lat="45.80409" lon="5.04579">
        <ele>181.29251</ele>
        <time>2023-07-11T07:08:21.000Z</time>
      </trkpt>
      <trkpt lat="45.80411" lon="5.04587">
        <ele>181.15984</ele>
        <time>2023-07-11T07:08:22.000Z</time>
      </trkpt>
      <trkpt lat="45.80414" lon="5.04595">
        <ele>181.04724</ele>
        <time>2023-07-11T07:08:23.000Z</time>
      </trkpt>
      <trkpt lat="45.80417" lon="5.04603">
        <ele>180.93285</ele>
        <time>2023-07-11T07:08:24.000Z</time>
      </trkpt>
      <trkpt lat="45.80418" lon="5.04611">
        <ele>180.84343</ele>
        <time>2023-07-11T07:08:25.000Z</time>
      </trkpt>
      <trkpt lat="45.8042" lon="5.04619">
        <ele>180.77354</ele>
        <time>2023-07-11T07:08:26.000Z</time>
      </trkpt>
      <trkpt lat="45.80422" lon="5.04627">
        <ele>180.73099</ele>
        <time>2023-07-11T07:08:27.000Z</time>
      </trkpt>
      <trkpt lat="45.80423" lon="5.04636">
        <ele>180.73737</ele>
        <time>2023-07-11T07:08:28.000Z</time>
      </trkpt>
      <trkpt lat="45.80425" lon="5.04644">
        <ele>180.75238</ele>
        <time>2023-07-11T07:08:29.000Z</time>
      </trkpt>
      <trkpt lat="45.80427" lon="5.04652">
        <ele>180.75323</ele>
        <time>2023-07-11T07:08:30.000Z</time>
      </trkpt>
      <trkpt lat="45.80429" lon="5.0466">
        <ele>180.75136</ele>
        <time>2023-07-11T07:08:31.000Z</time>
      </trkpt>
      <trkpt lat="45.80433" lon="5.04667">
        <ele>180.7482</ele>
        <time>2023-07-11T07:08:32.000Z</time>
      </trkpt>
      <trkpt lat="45.80437" lon="5.04673">
        <ele>180.75923</ele>
        <time>2023-07-11T07:08:33.000Z</time>
      </trkpt>
      <trkpt lat="45.80442" lon="5.04679">
        <ele>180.81131</ele>
        <time>2023-07-11T07:08:34.000Z</time>
      </trkpt>
      <trkpt lat="45.80447" lon="5.04684">
        <ele>180.88785</ele>
        <time>2023-07-11T07:08:35.000Z</time>
      </trkpt>
      <trkpt lat="45.80452" lon="5.04688">
        <ele>180.95303</ele>
        <time>2023-07-11T07:08:36.000Z</time>
      </trkpt>
      <trkpt lat="45.80457" lon="5.04693">
        <ele>180.99976</ele>
        <time>2023-07-11T07:08:37.000Z</time>
      </trkpt>
      <trkpt lat="45.80462" lon="5.04697">
        <ele>181.07137</ele>
        <time>2023-07-11T07:08:38.000Z</time>
      </trkpt>
      <trkpt lat="45.80467" lon="5.04702">
        <ele>181.13332</ele>
        <time>2023-07-11T07:08:39.000Z</time>
      </trkpt>
      <trkpt lat="45.80471" lon="5.04708">
        <ele>181.23233</ele>
        <time>2023-07-11T07:08:40.000Z</time>
      </trkpt>
      <trkpt lat="45.80475" lon="5.04713">
        <ele>181.30415</ele>
        <time>2023-07-11T07:08:41.000Z</time>
      </trkpt>
      <trkpt lat="45.80479" lon="5.04719">
        <ele>181.40063</ele>
        <time>2023-07-11T07:08:42.000Z</time>
      </trkpt>
      <trkpt lat="45.80482" lon="5.04725">
        <ele>181.45735</ele>
        <time>2023-07-11T07:08:43.000Z</time>
      </trkpt>
      <trkpt lat="45.80486" lon="5.04732">
        <ele>181.53275</ele>
        <time>2023-07-11T07:08:44.000Z</time>
      </trkpt>
      <trkpt lat="45.80489" lon="5.04738">
        <ele>181.58493</ele>
        <time>2023-07-11T07:08:45.000Z</time>
      </trkpt>
      <trkpt lat="45.80493" lon="5.04745">
        <ele>181.63528</ele>
        <time>2023-07-11T07:08:46.000Z</time>
      </trkpt>
      <trkpt lat="45.80497" lon="5.04751">
        <ele>181.66837</ele>
        <time>2023-07-11T07:08:47.000Z</time>
      </trkpt>
      <trkpt lat="45.80502" lon="5.04756">
        <ele>181.68256</ele>
        <time>2023-07-11T07:08:48.000Z</time>
      </trkpt>
      <trkpt lat="45.80506" lon="5.04761">
        <ele>181.68945</ele>
        <time>2023-07-11T07:08:49.000Z</time>
      </trkpt>
      <trkpt lat="45.80511" lon="5.04766">
        <ele>181.7034</ele>
        <time>2023-07-11T07:08:50.000Z</time>
      </trkpt>
      <trkpt lat="45.80515" lon="5.04771">
        <ele>181.73048</ele>
        <time>2023-07-11T07:08:51.000Z</time>
      </trkpt>
      <trkpt lat="45.8052" lon="5.04776">
        <ele>181.76123</ele>
        <time>2023-07-11T07:08:52.000Z</time>
      </trkpt>
      <trkpt lat="45.80526" lon="5.04779">
        <ele>181.79846</ele>
        <time>2023-07-11T07:08:53.000Z</time>
      </trkpt>
      <trkpt lat="45.80532" lon="5.04781">
        <ele>181.80783</ele>
        <time>2023-07-11T07:08:54.000Z</time>
      </trkpt>
      <trkpt lat="45.80537" lon="5.04781">
        <ele>181.81076</ele>
        <time>2023-07-11T07:08:55.000Z</time>
      </trkpt>
      <trkpt lat="45.80543" lon="5.0478">
        <ele>181.82254</ele>
        <time>2023-07-11T07:08:56.000Z</time>
      </trkpt>
      <trkpt lat="45.80549" lon="5.04779">
        <ele>181.85663</ele>
        <time>2023-07-11T07:08:57.000Z</time>
      </trkpt>
      <trkpt lat="45.80555" lon="5.04778">
        <ele>181.90178</ele>
        <time>2023-07-11T07:08:58.000Z</time>
      </trkpt>
      <trkpt lat="45.80561" lon="5.04776">
        <ele>181.93448</ele>
        <time>2023-07-11T07:08:59.000Z</time>
      </trkpt>
      <trkpt lat="45.80567" lon="5.04777">
        <ele>181.93991</ele>
        <time>2023-07-11T07:09:00.000Z</time>
      </trkpt>
      <trkpt lat="45.80572" lon="5.04776">
        <ele>181.96599</ele>
        <time>2023-07-11T07:09:01.000Z</time>
      </trkpt>
      <trkpt lat="45.80578" lon="5.04775">
        <ele>181.96883</ele>
        <time>2023-07-11T07:09:02.000Z</time>
      </trkpt>
      <trkpt lat="45.80584" lon="5.04774">
        <ele>181.97226</ele>
        <time>2023-07-11T07:09:03.000Z</time>
      </trkpt>
      <trkpt lat="45.8059" lon="5.04773">
        <ele>181.96115</ele>
        <time>2023-07-11T07:09:04.000Z</time>
      </trkpt>
      <trkpt lat="45.80595" lon="5.04772">
        <ele>181.96185</ele>
        <time>2023-07-11T07:09:05.000Z</time>
      </trkpt>
      <trkpt lat="45.80601" lon="5.04772">
        <ele>181.95218</ele>
        <time>2023-07-11T07:09:06.000Z</time>
      </trkpt>
      <trkpt lat="45.80606" lon="5.04772">
        <ele>181.94527</ele>
        <time>2023-07-11T07:09:07.000Z</time>
      </trkpt>
      <trkpt lat="45.80612" lon="5.04771">
        <ele>181.94212</ele>
        <time>2023-07-11T07:09:08.000Z</time>
      </trkpt>
      <trkpt lat="45.80618" lon="5.0477">
        <ele>181.95596</ele>
        <time>2023-07-11T07:09:09.000Z</time>
      </trkpt>
      <trkpt lat="45.80624" lon="5.04769">
        <ele>181.98181</ele>
        <time>2023-07-11T07:09:10.000Z</time>
      </trkpt>
      <trkpt lat="45.80629" lon="5.04769">
        <ele>182.00655</ele>
        <time>2023-07-11T07:09:11.000Z</time>
      </trkpt>
      <trkpt lat="45.80634" lon="5.04768">
        <ele>182.01923</ele>
        <time>2023-07-11T07:09:12.000Z</time>
      </trkpt>
      <trkpt lat="45.8064" lon="5.04768">
        <ele>182.00693</ele>
        <time>2023-07-11T07:09:13.000Z</time>
      </trkpt>
      <trkpt lat="45.80645" lon="5.04768">
        <ele>181.96823</ele>
        <time>2023-07-11T07:09:14.000Z</time>
      </trkpt>
      <trkpt lat="45.80651" lon="5.04767">
        <ele>181.93008</ele>
        <time>2023-07-11T07:09:15.000Z</time>
      </trkpt>
      <trkpt lat="45.80656" lon="5.04767">
        <ele>181.84793</ele>
        <time>2023-07-11T07:09:16.000Z</time>
      </trkpt>
      <trkpt lat="45.8066" lon="5.04767">
        <ele>181.74863</ele>
        <time>2023-07-11T07:09:17.000Z</time>
      </trkpt>
      <trkpt lat="45.80665" lon="5.04766">
        <ele>181.63829</ele>
        <time>2023-07-11T07:09:18.000Z</time>
      </trkpt>
      <trkpt lat="45.80669" lon="5.04765">
        <ele>181.57288</ele>
        <time>2023-07-11T07:09:19.000Z</time>
      </trkpt>
      <trkpt lat="45.80674" lon="5.04764">
        <ele>181.53915</ele>
        <time>2023-07-11T07:09:20.000Z</time>
      </trkpt>
      <trkpt lat="45.80679" lon="5.04763">
        <ele>181.48404</ele>
        <time>2023-07-11T07:09:21.000Z</time>
      </trkpt>
      <trkpt lat="45.80683" lon="5.04761">
        <ele>181.453</ele>
        <time>2023-07-11T07:09:22.000Z</time>
      </trkpt>
      <trkpt lat="45.80688" lon="5.04761">
        <ele>181.42033</ele>
        <time>2023-07-11T07:09:23.000Z</time>
      </trkpt>
      <trkpt lat="45.80693" lon="5.04763">
        <ele>181.40489</ele>
        <time>2023-07-11T07:09:24.000Z</time>
      </trkpt>
      <trkpt lat="45.80698" lon="5.04762">
        <ele>181.35475</ele>
        <time>2023-07-11T07:09:25.000Z</time>
      </trkpt>
      <trkpt lat="45.80703" lon="5.04761">
        <ele>181.34219</ele>
        <time>2023-07-11T07:09:26.000Z</time>
      </trkpt>
      <trkpt lat="45.80709" lon="5.0476">
        <ele>181.34474</ele>
        <time>2023-07-11T07:09:27.000Z</time>
      </trkpt>
      <trkpt lat="45.80714" lon="5.0476">
        <ele>181.34799</ele>
        <time>2023-07-11T07:09:28.000Z</time>
      </trkpt>
      <trkpt lat="45.8072" lon="5.04759">
        <ele>181.31932</ele>
        <time>2023-07-11T07:09:29.000Z</time>
      </trkpt>
      <trkpt lat="45.80725" lon="5.0476">
        <ele>181.2793</ele>
        <time>2023-07-11T07:09:30.000Z</time>
      </trkpt>
      <trkpt lat="45.80731" lon="5.04759">
        <ele>181.26042</ele>
        <time>2023-07-11T07:09:31.000Z</time>
      </trkpt>
      <trkpt lat="45.80737" lon="5.04758">
        <ele>181.25734</ele>
        <time>2023-07-11T07:09:32.000Z</time>
      </trkpt>
      <trkpt lat="45.80742" lon="5.04757">
        <ele>181.26534</ele>
        <time>2023-07-11T07:09:33.000Z</time>
      </trkpt>
      <trkpt lat="45.80748" lon="5.04755">
        <ele>181.29001</ele>
        <time>2023-07-11T07:09:34.000Z</time>
      </trkpt>
      <trkpt lat="45.80754" lon="5.04755">
        <ele>181.32996</ele>
        <time>2023-07-11T07:09:35.000Z</time>
      </trkpt>
      <trkpt lat="45.80759" lon="5.04754">
        <ele>181.39645</ele>
        <time>2023-07-11T07:09:36.000Z</time>
      </trkpt>
      <trkpt lat="45.80763" lon="5.04752">
        <ele>181.46715</ele>
        <time>2023-07-11T07:09:37.000Z</time>
      </trkpt>
      <trkpt lat="45.80766" lon="5.04751">
        <ele>181.53723</ele>
        <time>2023-07-11T07:09:38.000Z</time>
      </trkpt>
      <trkpt lat="45.80769" lon="5.04749">
        <ele>181.61075</ele>
        <time>2023-07-11T07:09:39.000Z</time>
      </trkpt>
      <trkpt lat="45.80771" lon="5.04745">
        <ele>181.65727</ele>
        <time>2023-07-11T07:09:40.000Z</time>
      </trkpt>
      <trkpt lat="45.80771" lon="5.04741">
        <ele>181.7038</ele>
        <time>2023-07-11T07:09:41.000Z</time>
      </trkpt>
      <trkpt lat="45.80771" lon="5.04735">
        <ele>181.73962</ele>
        <time>2023-07-11T07:09:42.000Z</time>
      </trkpt>
      <trkpt lat="45.80769" lon="5.0473">
        <ele>181.79393</ele>
        <time>2023-07-11T07:09:43.000Z</time>
      </trkpt>
      <trkpt lat="45.80768" lon="5.04724">
        <ele>181.84947</ele>
        <time>2023-07-11T07:09:44.000Z</time>
      </trkpt>
      <trkpt lat="45.80768" lon="5.04718">
        <ele>181.93451</ele>
        <time>2023-07-11T07:09:45.000Z</time>
      </trkpt>
      <trkpt lat="45.80767" lon="5.04711">
        <ele>181.98627</ele>
        <time>2023-07-11T07:09:46.000Z</time>
      </trkpt>
      <trkpt lat="45.80767" lon="5.04705">
        <ele>182.02107</ele>
        <time>2023-07-11T07:09:47.000Z</time>
      </trkpt>
      <trkpt lat="45.80767" lon="5.04698">
        <ele>182.04866</ele>
        <time>2023-07-11T07:09:48.000Z</time>
      </trkpt>
      <trkpt lat="45.80767" lon="5.04692">
        <ele>182.11258</ele>
        <time>2023-07-11T07:09:49.000Z</time>
      </trkpt>
      <trkpt lat="45.80767" lon="5.04684">
        <ele>182.18854</ele>
        <time>2023-07-11T07:09:50.000Z</time>
      </trkpt>
      <trkpt lat="45.80767" lon="5.04678">
        <ele>182.22083</ele>
        <time>2023-07-11T07:09:51.000Z</time>
      </trkpt>
      <trkpt lat="45.80766" lon="5.0467">
        <ele>182.24747</ele>
        <time>2023-07-11T07:09:52.000Z</time>
      </trkpt>
      <trkpt lat="45.80766" lon="5.04664">
        <ele>182.26706</ele>
        <time>2023-07-11T07:09:53.000Z</time>
      </trkpt>
      <trkpt lat="45.80767" lon="5.04657">
        <ele>182.29549</ele>
        <time>2023-07-11T07:09:54.000Z</time>
      </trkpt>
      <trkpt lat="45.80767" lon="5.0465">
        <ele>182.29355</ele>
        <time>2023-07-11T07:09:55.000Z</time>
      </trkpt>
      <trkpt lat="45.80768" lon="5.04642">
        <ele>182.27565</ele>
        <time>2023-07-11T07:09:56.000Z</time>
      </trkpt>
      <trkpt lat="45.80767" lon="5.04635">
        <ele>182.25986</ele>
        <time>2023-07-11T07:09:57.000Z</time>
      </trkpt>
      <trkpt lat="45.80767" lon="5.04629">
        <ele>182.24339</ele>
        <time>2023-07-11T07:09:58.000Z</time>
      </trkpt>
      <trkpt lat="45.80767" lon="5.04621">
        <ele>182.22246</ele>
        <time>2023-07-11T07:09:59.000Z</time>
      </trkpt>
      <trkpt lat="45.80768" lon="5.04615">
        <ele>182.22437</ele>
        <time>2023-07-11T07:10:00.000Z</time>
      </trkpt>
      <trkpt lat="45.80768" lon="5.04608">
        <ele>182.21786</ele>
        <time>2023-07-11T07:10:01.000Z</time>
      </trkpt>
      <trkpt lat="45.80768" lon="5.04601">
        <ele>182.20744</ele>
        <time>2023-07-11T07:10:02.000Z</time>
      </trkpt>
      <trkpt lat="45.80768" lon="5.04594">
        <ele>182.20245</ele>
        <time>2023-07-11T07:10:03.000Z</time>
      </trkpt>
      <trkpt lat="45.80768" lon="5.04587">
        <ele>182.16653</ele>
        <time>2023-07-11T07:10:04.000Z</time>
      </trkpt>
      <trkpt lat="45.80768" lon="5.04579">
        <ele>182.13052</ele>
        <time>2023-07-11T07:10:05.000Z</time>
      </trkpt>
      <trkpt lat="45.80768" lon="5.04572">
        <ele>182.09853</ele>
        <time>2023-07-11T07:10:06.000Z</time>
      </trkpt>
      <trkpt lat="45.80767" lon="5.04565">
        <ele>182.07156</ele>
        <time>2023-07-11T07:10:07.000Z</time>
      </trkpt>
      <trkpt lat="45.80767" lon="5.04557">
        <ele>182.05513</ele>
        <time>2023-07-11T07:10:08.000Z</time>
      </trkpt>
      <trkpt lat="45.80767" lon="5.0455">
        <ele>182.02249</ele>
        <time>2023-07-11T07:10:09.000Z</time>
      </trkpt>
      <trkpt lat="45.80767" lon="5.04543">
        <ele>181.97559</ele>
        <time>2023-07-11T07:10:10.000Z</time>
      </trkpt>
      <trkpt lat="45.80767" lon="5.04535">
        <ele>181.94254</ele>
        <time>2023-07-11T07:10:11.000Z</time>
      </trkpt>
      <trkpt lat="45.80767" lon="5.04528">
        <ele>181.89816</ele>
        <time>2023-07-11T07:10:12.000Z</time>
      </trkpt>
      <trkpt lat="45.80766" lon="5.0452">
        <ele>181.87073</ele>
        <time>2023-07-11T07:10:13.000Z</time>
      </trkpt>
      <trkpt lat="45.80766" lon="5.04512">
        <ele>181.83218</ele>
        <time>2023-07-11T07:10:14.000Z</time>
      </trkpt>
      <trkpt lat="45.80766" lon="5.04504">
        <ele>181.79129</ele>
        <time>2023-07-11T07:10:15.000Z</time>
      </trkpt>
      <trkpt lat="45.80765" lon="5.04497">
        <ele>181.74559</ele>
        <time>2023-07-11T07:10:16.000Z</time>
      </trkpt>
      <trkpt lat="45.80765" lon="5.04489">
        <ele>181.69131</ele>
        <time>2023-07-11T07:10:17.000Z</time>
      </trkpt>
      <trkpt lat="45.80765" lon="5.0448">
        <ele>181.63998</ele>
        <time>2023-07-11T07:10:18.000Z</time>
      </trkpt>
      <trkpt lat="45.80766" lon="5.04472">
        <ele>181.60419</ele>
        <time>2023-07-11T07:10:19.000Z</time>
      </trkpt>
      <trkpt lat="45.80766" lon="5.04464">
        <ele>181.56129</ele>
        <time>2023-07-11T07:10:20.000Z</time>
      </trkpt>
      <trkpt lat="45.80766" lon="5.04457">
        <ele>181.52713</ele>
        <time>2023-07-11T07:10:21.000Z</time>
      </trkpt>
      <trkpt lat="45.80766" lon="5.0445">
        <ele>181.49167</ele>
        <time>2023-07-11T07:10:22.000Z</time>
      </trkpt>
      <trkpt lat="45.80766" lon="5.04442">
        <ele>181.47063</ele>
        <time>2023-07-11T07:10:23.000Z</time>
      </trkpt>
      <trkpt lat="45.80766" lon="5.04434">
        <ele>181.45027</ele>
        <time>2023-07-11T07:10:24.000Z</time>
      </trkpt>
      <trkpt lat="45.80767" lon="5.04427">
        <ele>181.40765</ele>
        <time>2023-07-11T07:10:25.000Z</time>
      </trkpt>
      <trkpt lat="45.80766" lon="5.04418">
        <ele>181.35429</ele>
        <time>2023-07-11T07:10:26.000Z</time>
      </trkpt>
      <trkpt lat="45.80766" lon="5.04411">
        <ele>181.28423</ele>
        <time>2023-07-11T07:10:27.000Z</time>
      </trkpt>
      <trkpt lat="45.80767" lon="5.04402">
        <ele>181.20853</ele>
        <time>2023-07-11T07:10:28.000Z</time>
      </trkpt>
      <trkpt lat="45.80768" lon="5.04395">
        <ele>181.10876</ele>
        <time>2023-07-11T07:10:29.000Z</time>
      </trkpt>
      <trkpt lat="45.8077" lon="5.04387">
        <ele>181.00662</ele>
        <time>2023-07-11T07:10:30.000Z</time>
      </trkpt>
      <trkpt lat="45.80771" lon="5.04381">
        <ele>180.93875</ele>
        <time>2023-07-11T07:10:31.000Z</time>
      </trkpt>
      <trkpt lat="45.80773" lon="5.04373">
        <ele>180.89082</ele>
        <time>2023-07-11T07:10:32.000Z</time>
      </trkpt>
      <trkpt lat="45.80775" lon="5.04366">
        <ele>180.83951</ele>
        <time>2023-07-11T07:10:33.000Z</time>
      </trkpt>
      <trkpt lat="45.80777" lon="5.04358">
        <ele>180.79337</ele>
        <time>2023-07-11T07:10:34.000Z</time>
      </trkpt>
      <trkpt lat="45.80778" lon="5.04351">
        <ele>180.76045</ele>
        <time>2023-07-11T07:10:35.000Z</time>
      </trkpt>
      <trkpt lat="45.8078" lon="5.04342">
        <ele>180.72861</ele>
        <time>2023-07-11T07:10:36.000Z</time>
      </trkpt>
      <trkpt lat="45.8078" lon="5.04334">
        <ele>180.70378</ele>
        <time>2023-07-11T07:10:37.000Z</time>
      </trkpt>
      <trkpt lat="45.80781" lon="5.04326">
        <ele>180.68834</ele>
        <time>2023-07-11T07:10:38.000Z</time>
      </trkpt>
      <trkpt lat="45.80782" lon="5.04317">
        <ele>180.64642</ele>
        <time>2023-07-11T07:10:39.000Z</time>
      </trkpt>
      <trkpt lat="45.8078" lon="5.0431">
        <ele>180.58228</ele>
        <time>2023-07-11T07:10:40.000Z</time>
      </trkpt>
      <trkpt lat="45.80779" lon="5.04302">
        <ele>180.51843</ele>
        <time>2023-07-11T07:10:41.000Z</time>
      </trkpt>
      <trkpt lat="45.80777" lon="5.04294">
        <ele>180.48227</ele>
        <time>2023-07-11T07:10:42.000Z</time>
      </trkpt>
      <trkpt lat="45.80774" lon="5.04286">
        <ele>180.40649</ele>
        <time>2023-07-11T07:10:43.000Z</time>
      </trkpt>
      <trkpt lat="45.80772" lon="5.04278">
        <ele>180.35988</ele>
        <time>2023-07-11T07:10:44.000Z</time>
      </trkpt>
      <trkpt lat="45.80771" lon="5.0427">
        <ele>180.33574</ele>
        <time>2023-07-11T07:10:45.000Z</time>
      </trkpt>
      <trkpt lat="45.80769" lon="5.04263">
        <ele>180.31535</ele>
        <time>2023-07-11T07:10:46.000Z</time>
      </trkpt>
      <trkpt lat="45.80767" lon="5.04255">
        <ele>180.30125</ele>
        <time>2023-07-11T07:10:47.000Z</time>
      </trkpt>
      <trkpt lat="45.80765" lon="5.04248">
        <ele>180.28745</ele>
        <time>2023-07-11T07:10:48.000Z</time>
      </trkpt>
      <trkpt lat="45.80764" lon="5.0424">
        <ele>180.30569</ele>
        <time>2023-07-11T07:10:49.000Z</time>
      </trkpt>
      <trkpt lat="45.80762" lon="5.04233">
        <ele>180.33223</ele>
        <time>2023-07-11T07:10:50.000Z</time>
      </trkpt>
      <trkpt lat="45.8076" lon="5.04226">
        <ele>180.33345</ele>
        <time>2023-07-11T07:10:51.000Z</time>
      </trkpt>
      <trkpt lat="45.80758" lon="5.04218">
        <ele>180.33159</ele>
        <time>2023-07-11T07:10:52.000Z</time>
      </trkpt>
      <trkpt lat="45.80757" lon="5.0421">
        <ele>180.31757</ele>
        <time>2023-07-11T07:10:53.000Z</time>
      </trkpt>
      <trkpt lat="45.80755" lon="5.04202">
        <ele>180.30014</ele>
        <time>2023-07-11T07:10:54.000Z</time>
      </trkpt>
      <trkpt lat="45.80754" lon="5.04194">
        <ele>180.24915</ele>
        <time>2023-07-11T07:10:55.000Z</time>
      </trkpt>
      <trkpt lat="45.80752" lon="5.04187">
        <ele>180.22519</ele>
        <time>2023-07-11T07:10:56.000Z</time>
      </trkpt>
      <trkpt lat="45.80751" lon="5.04178">
        <ele>180.18921</ele>
        <time>2023-07-11T07:10:57.000Z</time>
      </trkpt>
      <trkpt lat="45.80748" lon="5.04171">
        <ele>180.1476</ele>
        <time>2023-07-11T07:10:58.000Z</time>
      </trkpt>
      <trkpt lat="45.80746" lon="5.04163">
        <ele>180.1057</ele>
        <time>2023-07-11T07:10:59.000Z</time>
      </trkpt>
      <trkpt lat="45.80743" lon="5.04156">
        <ele>180.09816</ele>
        <time>2023-07-11T07:11:00.000Z</time>
      </trkpt>
      <trkpt lat="45.8074" lon="5.04148">
        <ele>180.09967</ele>
        <time>2023-07-11T07:11:01.000Z</time>
      </trkpt>
      <trkpt lat="45.80737" lon="5.0414">
        <ele>180.06244</ele>
        <time>2023-07-11T07:11:02.000Z</time>
      </trkpt>
      <trkpt lat="45.80735" lon="5.04133">
        <ele>180.02707</ele>
        <time>2023-07-11T07:11:03.000Z</time>
      </trkpt>
      <trkpt lat="45.80733" lon="5.04126">
        <ele>179.97397</ele>
        <time>2023-07-11T07:11:04.000Z</time>
      </trkpt>
      <trkpt lat="45.80732" lon="5.04119">
        <ele>179.89969</ele>
        <time>2023-07-11T07:11:05.000Z</time>
      </trkpt>
      <trkpt lat="45.8073" lon="5.04111">
        <ele>179.82376</ele>
        <time>2023-07-11T07:11:06.000Z</time>
      </trkpt>
      <trkpt lat="45.80729" lon="5.04104">
        <ele>179.74763</ele>
        <time>2023-07-11T07:11:07.000Z</time>
      </trkpt>
      <trkpt lat="45.80729" lon="5.04097">
        <ele>179.65894</ele>
        <time>2023-07-11T07:11:08.000Z</time>
      </trkpt>
      <trkpt lat="45.80729" lon="5.04088">
        <ele>179.5656</ele>
        <time>2023-07-11T07:11:09.000Z</time>
      </trkpt>
      <trkpt lat="45.80729" lon="5.0408">
        <ele>179.45357</ele>
        <time>2023-07-11T07:11:10.000Z</time>
      </trkpt>
      <trkpt lat="45.8073" lon="5.04072">
        <ele>179.33359</ele>
        <time>2023-07-11T07:11:11.000Z</time>
      </trkpt>
      <trkpt lat="45.80732" lon="5.04064">
        <ele>179.17587</ele>
        <time>2023-07-11T07:11:12.000Z</time>
      </trkpt>
      <trkpt lat="45.80732" lon="5.04057">
        <ele>179.05983</ele>
        <time>2023-07-11T07:11:13.000Z</time>
      </trkpt>
      <trkpt lat="45.80731" lon="5.04049">
        <ele>178.98044</ele>
        <time>2023-07-11T07:11:14.000Z</time>
      </trkpt>
      <trkpt lat="45.80728" lon="5.04041">
        <ele>178.9501</ele>
        <time>2023-07-11T07:11:15.000Z</time>
      </trkpt>
      <trkpt lat="45.80726" lon="5.04032">
        <ele>178.9386</ele>
        <time>2023-07-11T07:11:16.000Z</time>
      </trkpt>
      <trkpt lat="45.80726" lon="5.04023">
        <ele>178.92653</ele>
        <time>2023-07-11T07:11:17.000Z</time>
      </trkpt>
      <trkpt lat="45.80725" lon="5.04014">
        <ele>178.90535</ele>
        <time>2023-07-11T07:11:18.000Z</time>
      </trkpt>
      <trkpt lat="45.80723" lon="5.04004">
        <ele>178.83447</ele>
        <time>2023-07-11T07:11:19.000Z</time>
      </trkpt>
      <trkpt lat="45.80723" lon="5.03994">
        <ele>178.72006</ele>
        <time>2023-07-11T07:11:20.000Z</time>
      </trkpt>
      <trkpt lat="45.80721" lon="5.03984">
        <ele>178.62411</ele>
        <time>2023-07-11T07:11:21.000Z</time>
      </trkpt>
      <trkpt lat="45.80721" lon="5.03975">
        <ele>178.51952</ele>
        <time>2023-07-11T07:11:22.000Z</time>
      </trkpt>
      <trkpt lat="45.8072" lon="5.03965">
        <ele>178.46298</ele>
        <time>2023-07-11T07:11:23.000Z</time>
      </trkpt>
      <trkpt lat="45.8072" lon="5.03957">
        <ele>178.4118</ele>
        <time>2023-07-11T07:11:24.000Z</time>
      </trkpt>
      <trkpt lat="45.80721" lon="5.0395">
        <ele>178.388</ele>
        <time>2023-07-11T07:11:25.000Z</time>
      </trkpt>
      <trkpt lat="45.80724" lon="5.03944">
        <ele>178.39098</ele>
        <time>2023-07-11T07:11:26.000Z</time>
      </trkpt>
      <trkpt lat="45.80727" lon="5.03939">
        <ele>178.39493</ele>
        <time>2023-07-11T07:11:27.000Z</time>
      </trkpt>
      <trkpt lat="45.8073" lon="5.03933">
        <ele>178.4113</ele>
        <time>2023-07-11T07:11:28.000Z</time>
      </trkpt>
      <trkpt lat="45.80733" lon="5.03928">
        <ele>178.43338</ele>
        <time>2023-07-11T07:11:29.000Z</time>
      </trkpt>
      <trkpt lat="45.80736" lon="5.03924">
        <ele>178.50488</ele>
        <time>2023-07-11T07:11:30.000Z</time>
      </trkpt>
      <trkpt lat="45.8074" lon="5.03919">
        <ele>178.56154</ele>
        <time>2023-07-11T07:11:31.000Z</time>
      </trkpt>
      <trkpt lat="45.80743" lon="5.03913">
        <ele>178.64989</ele>
        <time>2023-07-11T07:11:32.000Z</time>
      </trkpt>
      <trkpt lat="45.80745" lon="5.03907">
        <ele>178.71175</ele>
        <time>2023-07-11T07:11:33.000Z</time>
      </trkpt>
      <trkpt lat="45.80748" lon="5.03899">
        <ele>178.75327</ele>
        <time>2023-07-11T07:11:34.000Z</time>
      </trkpt>
      <trkpt lat="45.80751" lon="5.03893">
        <ele>178.76591</ele>
        <time>2023-07-11T07:11:35.000Z</time>
      </trkpt>
      <trkpt lat="45.80752" lon="5.03886">
        <ele>178.79733</ele>
        <time>2023-07-11T07:11:36.000Z</time>
      </trkpt>
      <trkpt lat="45.80754" lon="5.03879">
        <ele>178.8387</ele>
        <time>2023-07-11T07:11:37.000Z</time>
      </trkpt>
      <trkpt lat="45.80756" lon="5.03873">
        <ele>178.89676</ele>
        <time>2023-07-11T07:11:38.000Z</time>
      </trkpt>
      <trkpt lat="45.80758" lon="5.03866">
        <ele>179.03186</ele>
        <time>2023-07-11T07:11:39.000Z</time>
      </trkpt>
      <trkpt lat="45.8076" lon="5.0386">
        <ele>179.19135</ele>
        <time>2023-07-11T07:11:40.000Z</time>
      </trkpt>
      <trkpt lat="45.80762" lon="5.03855">
        <ele>179.34636</ele>
        <time>2023-07-11T07:11:41.000Z</time>
      </trkpt>
      <trkpt lat="45.80766" lon="5.0385">
        <ele>179.52199</ele>
        <time>2023-07-11T07:11:42.000Z</time>
      </trkpt>
      <trkpt lat="45.8077" lon="5.03845">
        <ele>179.66505</ele>
        <time>2023-07-11T07:11:43.000Z</time>
      </trkpt>
      <trkpt lat="45.80773" lon="5.03841">
        <ele>179.80917</ele>
        <time>2023-07-11T07:11:44.000Z</time>
      </trkpt>
      <trkpt lat="45.80777" lon="5.03839">
        <ele>179.93398</ele>
        <time>2023-07-11T07:11:45.000Z</time>
      </trkpt>
      <trkpt lat="45.80781" lon="5.03839">
        <ele>180.04987</ele>
        <time>2023-07-11T07:11:46.000Z</time>
      </trkpt>
      <trkpt lat="45.80785" lon="5.03842">
        <ele>180.17967</ele>
        <time>2023-07-11T07:11:47.000Z</time>
      </trkpt>
      <trkpt lat="45.80788" lon="5.03839">
        <ele>180.27759</ele>
        <time>2023-07-11T07:11:48.000Z</time>
      </trkpt>
      <trkpt lat="45.80789" lon="5.03835">
        <ele>180.37753</ele>
        <time>2023-07-11T07:11:49.000Z</time>
      </trkpt>
      <trkpt lat="45.80788" lon="5.03831">
        <ele>180.44756</ele>
        <time>2023-07-11T07:11:50.000Z</time>
      </trkpt>
      <trkpt lat="45.80786" lon="5.03827">
        <ele>180.52295</ele>
        <time>2023-07-11T07:11:51.000Z</time>
      </trkpt>
      <trkpt lat="45.80784" lon="5.03823">
        <ele>180.59326</ele>
        <time>2023-07-11T07:11:52.000Z</time>
      </trkpt>
      <trkpt lat="45.80782" lon="5.0382">
        <ele>180.65199</ele>
        <time>2023-07-11T07:11:53.000Z</time>
      </trkpt>
      <trkpt lat="45.80779" lon="5.03817">
        <ele>180.69215</ele>
        <time>2023-07-11T07:11:54.000Z</time>
      </trkpt>
      <trkpt lat="45.80776" lon="5.03815">
        <ele>180.76355</ele>
        <time>2023-07-11T07:11:55.000Z</time>
      </trkpt>
      <trkpt lat="45.80773" lon="5.03811">
        <ele>180.7774</ele>
        <time>2023-07-11T07:11:56.000Z</time>
      </trkpt>
      <trkpt lat="45.80771" lon="5.03807">
        <ele>180.78311</ele>
        <time>2023-07-11T07:11:57.000Z</time>
      </trkpt>
      <trkpt lat="45.80768" lon="5.03802">
        <ele>180.79311</ele>
        <time>2023-07-11T07:11:58.000Z</time>
      </trkpt>
      <trkpt lat="45.80766" lon="5.03798">
        <ele>180.75769</ele>
        <time>2023-07-11T07:11:59.000Z</time>
      </trkpt>
      <trkpt lat="45.80763" lon="5.03793">
        <ele>180.73593</ele>
        <time>2023-07-11T07:12:00.000Z</time>
      </trkpt>
      <trkpt lat="45.80761" lon="5.03789">
        <ele>180.73706</ele>
        <time>2023-07-11T07:12:01.000Z</time>
      </trkpt>
      <trkpt lat="45.8076" lon="5.03787">
        <ele>180.72855</ele>
        <time>2023-07-11T07:12:02.000Z</time>
      </trkpt>
      <trkpt lat="45.80759" lon="5.03783">
        <ele>180.72891</ele>
        <time>2023-07-11T07:12:03.000Z</time>
      </trkpt>
      <trkpt lat="45.80757" lon="5.03777">
        <ele>180.71774</ele>
        <time>2023-07-11T07:12:04.000Z</time>
      </trkpt>
      <trkpt lat="45.80753" lon="5.03769">
        <ele>180.71741</ele>
        <time>2023-07-11T07:12:05.000Z</time>
      </trkpt>
      <trkpt lat="45.80751" lon="5.03763">
        <ele>180.7086</ele>
        <time>2023-07-11T07:12:06.000Z</time>
      </trkpt>
      <trkpt lat="45.80748" lon="5.03757">
        <ele>180.69923</ele>
        <time>2023-07-11T07:12:07.000Z</time>
      </trkpt>
      <trkpt lat="45.80746" lon="5.03752">
        <ele>180.71465</ele>
        <time>2023-07-11T07:12:08.000Z</time>
      </trkpt>
      <trkpt lat="45.80745" lon="5.03746">
        <ele>180.73917</ele>
        <time>2023-07-11T07:12:09.000Z</time>
      </trkpt>
      <trkpt lat="45.80743" lon="5.03741">
        <ele>180.77184</ele>
        <time>2023-07-11T07:12:10.000Z</time>
      </trkpt>
      <trkpt lat="45.80741" lon="5.03736">
        <ele>180.82307</ele>
        <time>2023-07-11T07:12:11.000Z</time>
      </trkpt>
      <trkpt lat="45.8074" lon="5.03731">
        <ele>180.86496</ele>
        <time>2023-07-11T07:12:12.000Z</time>
      </trkpt>
      <trkpt lat="45.80738" lon="5.03726">
        <ele>180.91637</ele>
        <time>2023-07-11T07:12:13.000Z</time>
      </trkpt>
      <trkpt lat="45.80738" lon="5.03721">
        <ele>180.96341</ele>
        <time>2023-07-11T07:12:14.000Z</time>
      </trkpt>
      <trkpt lat="45.80737" lon="5.03716">
        <ele>180.99463</ele>
        <time>2023-07-11T07:12:15.000Z</time>
      </trkpt>
      <trkpt lat="45.80736" lon="5.03713">
        <ele>181.01488</ele>
        <time>2023-07-11T07:12:16.000Z</time>
      </trkpt>
      <trkpt lat="45.80733" lon="5.03709">
        <ele>181.02768</ele>
        <time>2023-07-11T07:12:17.000Z</time>
      </trkpt>
      <trkpt lat="45.80731" lon="5.03705">
        <ele>181.04146</ele>
        <time>2023-07-11T07:12:18.000Z</time>
      </trkpt>
      <trkpt lat="45.8073" lon="5.037">
        <ele>181.0842</ele>
        <time>2023-07-11T07:12:19.000Z</time>
      </trkpt>
      <trkpt lat="45.80729" lon="5.03696">
        <ele>181.13254</ele>
        <time>2023-07-11T07:12:20.000Z</time>
      </trkpt>
      <trkpt lat="45.80728" lon="5.03692">
        <ele>181.16943</ele>
        <time>2023-07-11T07:12:21.000Z</time>
      </trkpt>
      <trkpt lat="45.80727" lon="5.03687">
        <ele>181.20105</ele>
        <time>2023-07-11T07:12:22.000Z</time>
      </trkpt>
      <trkpt lat="45.80726" lon="5.03682">
        <ele>181.23198</ele>
        <time>2023-07-11T07:12:23.000Z</time>
      </trkpt>
      <trkpt lat="45.80725" lon="5.03678">
        <ele>181.26352</ele>
        <time>2023-07-11T07:12:24.000Z</time>
      </trkpt>
      <trkpt lat="45.80724" lon="5.03673">
        <ele>181.29239</ele>
        <time>2023-07-11T07:12:25.000Z</time>
      </trkpt>
      <trkpt lat="45.80722" lon="5.03669">
        <ele>181.34747</ele>
        <time>2023-07-11T07:12:26.000Z</time>
      </trkpt>
      <trkpt lat="45.8072" lon="5.03665">
        <ele>181.40182</ele>
        <time>2023-07-11T07:12:27.000Z</time>
      </trkpt>
      <trkpt lat="45.80718" lon="5.03662">
        <ele>181.42775</ele>
        <time>2023-07-11T07:12:28.000Z</time>
      </trkpt>
      <trkpt lat="45.80717" lon="5.03659">
        <ele>181.4507</ele>
        <time>2023-07-11T07:12:29.000Z</time>
      </trkpt>
      <trkpt lat="45.80715" lon="5.03656">
        <ele>181.47112</ele>
        <time>2023-07-11T07:12:30.000Z</time>
      </trkpt>
      <trkpt lat="45.80713" lon="5.03653">
        <ele>181.51019</ele>
        <time>2023-07-11T07:12:31.000Z</time>
      </trkpt>
      <trkpt lat="45.8071" lon="5.03651">
        <ele>181.56729</ele>
        <time>2023-07-11T07:12:32.000Z</time>
      </trkpt>
      <trkpt lat="45.80706" lon="5.0365">
        <ele>181.57913</ele>
        <time>2023-07-11T07:12:33.000Z</time>
      </trkpt>
      <trkpt lat="45.80702" lon="5.0365">
        <ele>181.59512</ele>
        <time>2023-07-11T07:12:34.000Z</time>
      </trkpt>
      <trkpt lat="45.80699" lon="5.03649">
        <ele>181.57336</ele>
        <time>2023-07-11T07:12:35.000Z</time>
      </trkpt>
      <trkpt lat="45.80696" lon="5.03648">
        <ele>181.58502</ele>
        <time>2023-07-11T07:12:36.000Z</time>
      </trkpt>
      <trkpt lat="45.80692" lon="5.03648">
        <ele>181.61856</ele>
        <time>2023-07-11T07:12:37.000Z</time>
      </trkpt>
      <trkpt lat="45.80688" lon="5.03649">
        <ele>181.60004</ele>
        <time>2023-07-11T07:12:38.000Z</time>
      </trkpt>
      <trkpt lat="45.80685" lon="5.03649">
        <ele>181.5722</ele>
        <time>2023-07-11T07:12:39.000Z</time>
      </trkpt>
      <trkpt lat="45.80683" lon="5.03646">
        <ele>181.55408</ele>
        <time>2023-07-11T07:12:40.000Z</time>
      </trkpt>
      <trkpt lat="45.80682" lon="5.03643">
        <ele>181.51151</ele>
        <time>2023-07-11T07:12:41.000Z</time>
      </trkpt>
      <trkpt lat="45.80682" lon="5.03641">
        <ele>181.46201</ele>
        <time>2023-07-11T07:12:42.000Z</time>
      </trkpt>
      <trkpt lat="45.80681" lon="5.03638">
        <ele>181.43355</ele>
        <time>2023-07-11T07:12:43.000Z</time>
      </trkpt>
      <trkpt lat="45.80679" lon="5.03636">
        <ele>181.40735</ele>
        <time>2023-07-11T07:12:44.000Z</time>
      </trkpt>
      <trkpt lat="45.80677" lon="5.03634">
        <ele>181.35631</ele>
        <time>2023-07-11T07:12:45.000Z</time>
      </trkpt>
      <trkpt lat="45.80676" lon="5.03632">
        <ele>181.25038</ele>
        <time>2023-07-11T07:12:46.000Z</time>
      </trkpt>
      <trkpt lat="45.80678" lon="5.03633">
        <ele>181.19931</ele>
        <time>2023-07-11T07:12:58.000Z</time>
      </trkpt>
      <trkpt lat="45.80678" lon="5.0363">
        <ele>181.20715</ele>
        <time>2023-07-11T07:13:03.000Z</time>
      </trkpt>
      <trkpt lat="45.80676" lon="5.03627">
        <ele>181.22296</ele>
        <time>2023-07-11T07:13:05.000Z</time>
      </trkpt>
      <trkpt lat="45.80673" lon="5.03627">
        <ele>181.2211</ele>
        <time>2023-07-11T07:13:07.000Z</time>
      </trkpt>
      <trkpt lat="45.8067" lon="5.03627">
        <ele>181.2049</ele>
        <time>2023-07-11T07:13:08.000Z</time>
      </trkpt>
      <trkpt lat="45.80667" lon="5.03627">
        <ele>181.18056</ele>
        <time>2023-07-11T07:13:09.000Z</time>
      </trkpt>
      <trkpt lat="45.80665" lon="5.03628">
        <ele>181.20459</ele>
        <time>2023-07-11T07:13:10.000Z</time>
      </trkpt>
      <trkpt lat="45.80662" lon="5.03629">
        <ele>181.22838</ele>
        <time>2023-07-11T07:13:11.000Z</time>
      </trkpt>
      <trkpt lat="45.80659" lon="5.0363">
        <ele>181.26422</ele>
        <time>2023-07-11T07:13:12.000Z</time>
      </trkpt>
      <trkpt lat="45.80655" lon="5.03631">
        <ele>181.26318</ele>
        <time>2023-07-11T07:13:13.000Z</time>
      </trkpt>
      <trkpt lat="45.80652" lon="5.03632">
        <ele>181.24495</ele>
        <time>2023-07-11T07:13:14.000Z</time>
      </trkpt>
      <trkpt lat="45.80649" lon="5.03633">
        <ele>181.27879</ele>
        <time>2023-07-11T07:13:15.000Z</time>
      </trkpt>
      <trkpt lat="45.80646" lon="5.03635">
        <ele>181.30144</ele>
        <time>2023-07-11T07:13:16.000Z</time>
      </trkpt>
      <trkpt lat="45.80643" lon="5.03636">
        <ele>181.30734</ele>
        <time>2023-07-11T07:13:17.000Z</time>
      </trkpt>
      <trkpt lat="45.80641" lon="5.03635">
        <ele>181.31927</ele>
        <time>2023-07-11T07:13:18.000Z</time>
      </trkpt>
      <trkpt lat="45.80638" lon="5.03633">
        <ele>181.34567</ele>
        <time>2023-07-11T07:13:19.000Z</time>
      </trkpt>
      <trkpt lat="45.80636" lon="5.03631">
        <ele>181.30992</ele>
        <time>2023-07-11T07:13:20.000Z</time>
      </trkpt>
      <trkpt lat="45.80632" lon="5.03631">
        <ele>181.27872</ele>
        <time>2023-07-11T07:13:21.000Z</time>
      </trkpt>
      <trkpt lat="45.80628" lon="5.03631">
        <ele>181.29962</ele>
        <time>2023-07-11T07:13:22.000Z</time>
      </trkpt>
      <trkpt lat="45.80625" lon="5.03631">
        <ele>181.32976</ele>
        <time>2023-07-11T07:13:23.000Z</time>
      </trkpt>
      <trkpt lat="45.80622" lon="5.03629">
        <ele>181.32501</ele>
        <time>2023-07-11T07:13:24.000Z</time>
      </trkpt>
      <trkpt lat="45.8062" lon="5.03628">
        <ele>181.30405</ele>
        <time>2023-07-11T07:13:25.000Z</time>
      </trkpt>
      <trkpt lat="45.80616" lon="5.03628">
        <ele>181.25897</ele>
        <time>2023-07-11T07:13:26.000Z</time>
      </trkpt>
      <trkpt lat="45.80612" lon="5.03626">
        <ele>181.22234</ele>
        <time>2023-07-11T07:13:27.000Z</time>
      </trkpt>
      <trkpt lat="45.80608" lon="5.03623">
        <ele>181.25674</ele>
        <time>2023-07-11T07:13:28.000Z</time>
      </trkpt>
      <trkpt lat="45.80606" lon="5.03619">
        <ele>181.27426</ele>
        <time>2023-07-11T07:13:29.000Z</time>
      </trkpt>
      <trkpt lat="45.80604" lon="5.03615">
        <ele>181.29025</ele>
        <time>2023-07-11T07:13:30.000Z</time>
      </trkpt>
      <trkpt lat="45.80602" lon="5.03613">
        <ele>181.28925</ele>
        <time>2023-07-11T07:13:31.000Z</time>
      </trkpt>
      <trkpt lat="45.80599" lon="5.0361">
        <ele>181.31854</ele>
        <time>2023-07-11T07:13:32.000Z</time>
      </trkpt>
      <trkpt lat="45.80597" lon="5.03607">
        <ele>181.37613</ele>
        <time>2023-07-11T07:13:33.000Z</time>
      </trkpt>
      <trkpt lat="45.80599" lon="5.03601">
        <ele>181.45865</ele>
        <time>2023-07-11T07:13:34.000Z</time>
      </trkpt>
      <trkpt lat="45.80598" lon="5.03596">
        <ele>181.44432</ele>
        <time>2023-07-11T07:13:36.000Z</time>
      </trkpt>
      <trkpt lat="45.80597" lon="5.03591">
        <ele>181.44467</ele>
        <time>2023-07-11T07:13:37.000Z</time>
      </trkpt>
      <trkpt lat="45.80595" lon="5.03586">
        <ele>181.50784</ele>
        <time>2023-07-11T07:13:38.000Z</time>
      </trkpt>
      <trkpt lat="45.80595" lon="5.03582">
        <ele>181.54858</ele>
        <time>2023-07-11T07:13:39.000Z</time>
      </trkpt>
      <trkpt lat="45.80594" lon="5.03578">
        <ele>181.58263</ele>
        <time>2023-07-11T07:13:40.000Z</time>
      </trkpt>
      <trkpt lat="45.80592" lon="5.03573">
        <ele>181.64098</ele>
        <time>2023-07-11T07:13:41.000Z</time>
      </trkpt>
      <trkpt lat="45.8059" lon="5.03571">
        <ele>181.69502</ele>
        <time>2023-07-11T07:13:42.000Z</time>
      </trkpt>
      <trkpt lat="45.80587" lon="5.03567">
        <ele>181.71515</ele>
        <time>2023-07-11T07:13:43.000Z</time>
      </trkpt>
      <trkpt lat="45.80585" lon="5.03563">
        <ele>181.72043</ele>
        <time>2023-07-11T07:13:44.000Z</time>
      </trkpt>
      <trkpt lat="45.80583" lon="5.03558">
        <ele>181.68954</ele>
        <time>2023-07-11T07:13:45.000Z</time>
      </trkpt>
      <trkpt lat="45.80581" lon="5.03553">
        <ele>181.65102</ele>
        <time>2023-07-11T07:13:46.000Z</time>
      </trkpt>
      <trkpt lat="45.80579" lon="5.03548">
        <ele>181.59929</ele>
        <time>2023-07-11T07:13:47.000Z</time>
      </trkpt>
      <trkpt lat="45.80579" lon="5.03545">
        <ele>181.54135</ele>
        <time>2023-07-11T07:13:48.000Z</time>
      </trkpt>
      <trkpt lat="45.80579" lon="5.03542">
        <ele>181.40872</ele>
        <time>2023-07-11T07:13:49.000Z</time>
      </trkpt>
      <trkpt lat="45.80579" lon="5.03537">
        <ele>181.33995</ele>
        <time>2023-07-11T07:13:50.000Z</time>
      </trkpt>
      <trkpt lat="45.80578" lon="5.03532">
        <ele>181.25815</ele>
        <time>2023-07-11T07:13:51.000Z</time>
      </trkpt>
      <trkpt lat="45.80578" lon="5.03528">
        <ele>181.19125</ele>
        <time>2023-07-11T07:13:52.000Z</time>
      </trkpt>
      <trkpt lat="45.80579" lon="5.03524">
        <ele>181.10207</ele>
        <time>2023-07-11T07:13:53.000Z</time>
      </trkpt>
      <trkpt lat="45.80579" lon="5.0352">
        <ele>181.01488</ele>
        <time>2023-07-11T07:13:54.000Z</time>
      </trkpt>
      <trkpt lat="45.8058" lon="5.03516">
        <ele>180.90681</ele>
        <time>2023-07-11T07:13:55.000Z</time>
      </trkpt>
      <trkpt lat="45.8058" lon="5.03511">
        <ele>180.90199</ele>
        <time>2023-07-11T07:13:56.000Z</time>
      </trkpt>
      <trkpt lat="45.80579" lon="5.03507">
        <ele>180.90294</ele>
        <time>2023-07-11T07:13:57.000Z</time>
      </trkpt>
      <trkpt lat="45.80576" lon="5.03504">
        <ele>180.82837</ele>
        <time>2023-07-11T07:13:58.000Z</time>
      </trkpt>
      <trkpt lat="45.80573" lon="5.03502">
        <ele>180.78471</ele>
        <time>2023-07-11T07:13:59.000Z</time>
      </trkpt>
      <trkpt lat="45.8057" lon="5.03502">
        <ele>180.76279</ele>
        <time>2023-07-11T07:14:00.000Z</time>
      </trkpt>
      <trkpt lat="45.80568" lon="5.035">
        <ele>180.77011</ele>
        <time>2023-07-11T07:14:01.000Z</time>
      </trkpt>
      <trkpt lat="45.80567" lon="5.03497">
        <ele>180.72998</ele>
        <time>2023-07-11T07:14:02.000Z</time>
      </trkpt>
      <trkpt lat="45.80568" lon="5.03493">
        <ele>180.66859</ele>
        <time>2023-07-11T07:14:03.000Z</time>
      </trkpt>
      <trkpt lat="45.80569" lon="5.03488">
        <ele>180.59912</ele>
        <time>2023-07-11T07:14:04.000Z</time>
      </trkpt>
      <trkpt lat="45.8057" lon="5.03483">
        <ele>180.57251</ele>
        <time>2023-07-11T07:14:05.000Z</time>
      </trkpt>
      <trkpt lat="45.80571" lon="5.03478">
        <ele>180.54166</ele>
        <time>2023-07-11T07:14:06.000Z</time>
      </trkpt>
      <trkpt lat="45.80571" lon="5.03473">
        <ele>180.56442</ele>
        <time>2023-07-11T07:14:07.000Z</time>
      </trkpt>
      <trkpt lat="45.80571" lon="5.03469">
        <ele>180.54216</ele>
        <time>2023-07-11T07:14:08.000Z</time>
      </trkpt>
      <trkpt lat="45.80572" lon="5.03464">
        <ele>180.48593</ele>
        <time>2023-07-11T07:14:09.000Z</time>
      </trkpt>
      <trkpt lat="45.80572" lon="5.03459">
        <ele>180.3549</ele>
        <time>2023-07-11T07:14:10.000Z</time>
      </trkpt>
      <trkpt lat="45.80572" lon="5.03454">
        <ele>180.20615</ele>
        <time>2023-07-11T07:14:11.000Z</time>
      </trkpt>
      <trkpt lat="45.80571" lon="5.03449">
        <ele>180.05516</ele>
        <time>2023-07-11T07:14:12.000Z</time>
      </trkpt>
      <trkpt lat="45.8057" lon="5.03443">
        <ele>179.91086</ele>
        <time>2023-07-11T07:14:13.000Z</time>
      </trkpt>
      <trkpt lat="45.80568" lon="5.03437">
        <ele>179.81364</ele>
        <time>2023-07-11T07:14:14.000Z</time>
      </trkpt>
      <trkpt lat="45.80566" lon="5.03432">
        <ele>179.71945</ele>
        <time>2023-07-11T07:14:15.000Z</time>
      </trkpt>
      <trkpt lat="45.80564" lon="5.03428">
        <ele>179.57179</ele>
        <time>2023-07-11T07:14:16.000Z</time>
      </trkpt>
      <trkpt lat="45.80561" lon="5.03424">
        <ele>179.42432</ele>
        <time>2023-07-11T07:14:17.000Z</time>
      </trkpt>
      <trkpt lat="45.80558" lon="5.03421">
        <ele>179.28886</ele>
        <time>2023-07-11T07:14:18.000Z</time>
      </trkpt>
      <trkpt lat="45.80555" lon="5.03417">
        <ele>179.12845</ele>
        <time>2023-07-11T07:14:19.000Z</time>
      </trkpt>
      <trkpt lat="45.80552" lon="5.03412">
        <ele>179.0126</ele>
        <time>2023-07-11T07:14:20.000Z</time>
      </trkpt>
      <trkpt lat="45.8055" lon="5.03409">
        <ele>178.87038</ele>
        <time>2023-07-11T07:14:21.000Z</time>
      </trkpt>
      <trkpt lat="45.80549" lon="5.03405">
        <ele>178.75252</ele>
        <time>2023-07-11T07:14:22.000Z</time>
      </trkpt>
      <trkpt lat="45.80548" lon="5.03401">
        <ele>178.68336</ele>
        <time>2023-07-11T07:14:23.000Z</time>
      </trkpt>
      <trkpt lat="45.80548" lon="5.03396">
        <ele>178.6445</ele>
        <time>2023-07-11T07:14:24.000Z</time>
      </trkpt>
      <trkpt lat="45.80548" lon="5.03391">
        <ele>178.62109</ele>
        <time>2023-07-11T07:14:25.000Z</time>
      </trkpt>
      <trkpt lat="45.80548" lon="5.03385">
        <ele>178.60217</ele>
        <time>2023-07-11T07:14:26.000Z</time>
      </trkpt>
      <trkpt lat="45.80548" lon="5.03381">
        <ele>178.51796</ele>
        <time>2023-07-11T07:14:27.000Z</time>
      </trkpt>
      <trkpt lat="45.80547" lon="5.03376">
        <ele>178.47688</ele>
        <time>2023-07-11T07:14:28.000Z</time>
      </trkpt>
      <trkpt lat="45.80546" lon="5.0337">
        <ele>178.45087</ele>
        <time>2023-07-11T07:14:29.000Z</time>
      </trkpt>
      <trkpt lat="45.80544" lon="5.03365">
        <ele>178.4593</ele>
        <time>2023-07-11T07:14:30.000Z</time>
      </trkpt>
      <trkpt lat="45.80542" lon="5.03361">
        <ele>178.50412</ele>
        <time>2023-07-11T07:14:31.000Z</time>
      </trkpt>
      <trkpt lat="45.8054" lon="5.03356">
        <ele>178.58679</ele>
        <time>2023-07-11T07:14:32.000Z</time>
      </trkpt>
      <trkpt lat="45.80538" lon="5.03349">
        <ele>178.73007</ele>
        <time>2023-07-11T07:14:33.000Z</time>
      </trkpt>
      <trkpt lat="45.80537" lon="5.03344">
        <ele>178.7825</ele>
        <time>2023-07-11T07:14:34.000Z</time>
      </trkpt>
      <trkpt lat="45.80533" lon="5.03337">
        <ele>178.85623</ele>
        <time>2023-07-11T07:14:35.000Z</time>
      </trkpt>
      <trkpt lat="45.8053" lon="5.03331">
        <ele>178.97101</ele>
        <time>2023-07-11T07:14:36.000Z</time>
      </trkpt>
      <trkpt lat="45.80528" lon="5.03325">
        <ele>179.09174</ele>
        <time>2023-07-11T07:14:37.000Z</time>
      </trkpt>
      <trkpt lat="45.80525" lon="5.03321">
        <ele>179.1869</ele>
        <time>2023-07-11T07:14:38.000Z</time>
      </trkpt>
      <trkpt lat="45.80523" lon="5.03315">
        <ele>179.2892</ele>
        <time>2023-07-11T07:14:39.000Z</time>
      </trkpt>
      <trkpt lat="45.80522" lon="5.0331">
        <ele>179.3334</ele>
        <time>2023-07-11T07:14:40.000Z</time>
      </trkpt>
      <trkpt lat="45.80523" lon="5.03304">
        <ele>179.36899</ele>
        <time>2023-07-11T07:14:41.000Z</time>
      </trkpt>
      <trkpt lat="45.80523" lon="5.03297">
        <ele>179.46809</ele>
        <time>2023-07-11T07:14:42.000Z</time>
      </trkpt>
      <trkpt lat="45.80524" lon="5.03291">
        <ele>179.52101</ele>
        <time>2023-07-11T07:14:43.000Z</time>
      </trkpt>
      <trkpt lat="45.80526" lon="5.03286">
        <ele>179.55461</ele>
        <time>2023-07-11T07:14:44.000Z</time>
      </trkpt>
      <trkpt lat="45.80528" lon="5.0328">
        <ele>179.52805</ele>
        <time>2023-07-11T07:14:45.000Z</time>
      </trkpt>
      <trkpt lat="45.80529" lon="5.03274">
        <ele>179.47919</ele>
        <time>2023-07-11T07:14:46.000Z</time>
      </trkpt>
      <trkpt lat="45.80529" lon="5.03269">
        <ele>179.42575</ele>
        <time>2023-07-11T07:14:47.000Z</time>
      </trkpt>
      <trkpt lat="45.80531" lon="5.03265">
        <ele>179.37726</ele>
        <time>2023-07-11T07:14:48.000Z</time>
      </trkpt>
      <trkpt lat="45.80534" lon="5.03264">
        <ele>179.35748</ele>
        <time>2023-07-11T07:14:49.000Z</time>
      </trkpt>
      <trkpt lat="45.80538" lon="5.03265">
        <ele>179.35226</ele>
        <time>2023-07-11T07:14:50.000Z</time>
      </trkpt>
      <trkpt lat="45.80542" lon="5.03266">
        <ele>179.30006</ele>
        <time>2023-07-11T07:14:51.000Z</time>
      </trkpt>
      <trkpt lat="45.80546" lon="5.03267">
        <ele>179.24008</ele>
        <time>2023-07-11T07:14:52.000Z</time>
      </trkpt>
      <trkpt lat="45.80551" lon="5.03266">
        <ele>179.14474</ele>
        <time>2023-07-11T07:14:53.000Z</time>
      </trkpt>
      <trkpt lat="45.80555" lon="5.03263">
        <ele>179.08644</ele>
        <time>2023-07-11T07:14:54.000Z</time>
      </trkpt>
      <trkpt lat="45.80559" lon="5.03261">
        <ele>179.00996</ele>
        <time>2023-07-11T07:14:55.000Z</time>
      </trkpt>
      <trkpt lat="45.80562" lon="5.03255">
        <ele>178.94115</ele>
        <time>2023-07-11T07:14:56.000Z</time>
      </trkpt>
      <trkpt lat="45.80564" lon="5.03248">
        <ele>178.85124</ele>
        <time>2023-07-11T07:14:57.000Z</time>
      </trkpt>
      <trkpt lat="45.80567" lon="5.03242">
        <ele>178.79588</ele>
        <time>2023-07-11T07:14:58.000Z</time>
      </trkpt>
      <trkpt lat="45.80569" lon="5.03236">
        <ele>178.71799</ele>
        <time>2023-07-11T07:14:59.000Z</time>
      </trkpt>
      <trkpt lat="45.80571" lon="5.0323">
        <ele>178.66818</ele>
        <time>2023-07-11T07:15:00.000Z</time>
      </trkpt>
      <trkpt lat="45.80575" lon="5.03226">
        <ele>178.61955</ele>
        <time>2023-07-11T07:15:01.000Z</time>
      </trkpt>
      <trkpt lat="45.80579" lon="5.03222">
        <ele>178.54538</ele>
        <time>2023-07-11T07:15:02.000Z</time>
      </trkpt>
      <trkpt lat="45.80583" lon="5.0322">
        <ele>178.50093</ele>
        <time>2023-07-11T07:15:03.000Z</time>
      </trkpt>
      <trkpt lat="45.80587" lon="5.03219">
        <ele>178.47423</ele>
        <time>2023-07-11T07:15:04.000Z</time>
      </trkpt>
      <trkpt lat="45.80591" lon="5.0322">
        <ele>178.49008</ele>
        <time>2023-07-11T07:15:05.000Z</time>
      </trkpt>
      <trkpt lat="45.80594" lon="5.0322">
        <ele>178.50977</ele>
        <time>2023-07-11T07:15:06.000Z</time>
      </trkpt>
      <trkpt lat="45.80598" lon="5.03219">
        <ele>178.56128</ele>
        <time>2023-07-11T07:15:07.000Z</time>
      </trkpt>
      <trkpt lat="45.80602" lon="5.03218">
        <ele>178.61714</ele>
        <time>2023-07-11T07:15:08.000Z</time>
      </trkpt>
      <trkpt lat="45.80606" lon="5.03218">
        <ele>178.66319</ele>
        <time>2023-07-11T07:15:09.000Z</time>
      </trkpt>
      <trkpt lat="45.80609" lon="5.03218">
        <ele>178.67946</ele>
        <time>2023-07-11T07:15:10.000Z</time>
      </trkpt>
      <trkpt lat="45.80613" lon="5.03219">
        <ele>178.70499</ele>
        <time>2023-07-11T07:15:11.000Z</time>
      </trkpt>
      <trkpt lat="45.80616" lon="5.03218">
        <ele>178.72873</ele>
        <time>2023-07-11T07:15:12.000Z</time>
      </trkpt>
      <trkpt lat="45.80619" lon="5.03218">
        <ele>178.76318</ele>
        <time>2023-07-11T07:15:13.000Z</time>
      </trkpt>
      <trkpt lat="45.80621" lon="5.03216">
        <ele>178.74631</ele>
        <time>2023-07-11T07:15:14.000Z</time>
      </trkpt>
      <trkpt lat="45.80623" lon="5.03214">
        <ele>178.69937</ele>
        <time>2023-07-11T07:15:15.000Z</time>
      </trkpt>
      <trkpt lat="45.80624" lon="5.03209">
        <ele>178.66014</ele>
        <time>2023-07-11T07:15:16.000Z</time>
      </trkpt>
      <trkpt lat="45.80623" lon="5.03203">
        <ele>178.67677</ele>
        <time>2023-07-11T07:15:17.000Z</time>
      </trkpt>
      <trkpt lat="45.80622" lon="5.03197">
        <ele>178.6743</ele>
        <time>2023-07-11T07:15:18.000Z</time>
      </trkpt>
      <trkpt lat="45.8062" lon="5.03191">
        <ele>178.69827</ele>
        <time>2023-07-11T07:15:19.000Z</time>
      </trkpt>
      <trkpt lat="45.80617" lon="5.03186">
        <ele>178.64595</ele>
        <time>2023-07-11T07:15:20.000Z</time>
      </trkpt>
      <trkpt lat="45.80615" lon="5.03181">
        <ele>178.61784</ele>
        <time>2023-07-11T07:15:21.000Z</time>
      </trkpt>
      <trkpt lat="45.80613" lon="5.03176">
        <ele>178.56323</ele>
        <time>2023-07-11T07:15:22.000Z</time>
      </trkpt>
      <trkpt lat="45.80611" lon="5.03171">
        <ele>178.49138</ele>
        <time>2023-07-11T07:15:23.000Z</time>
      </trkpt>
      <trkpt lat="45.80609" lon="5.03166">
        <ele>178.37836</ele>
        <time>2023-07-11T07:15:24.000Z</time>
      </trkpt>
      <trkpt lat="45.80607" lon="5.03161">
        <ele>178.23654</ele>
        <time>2023-07-11T07:15:25.000Z</time>
      </trkpt>
      <trkpt lat="45.80604" lon="5.03156">
        <ele>178.09293</ele>
        <time>2023-07-11T07:15:26.000Z</time>
      </trkpt>
      <trkpt lat="45.80602" lon="5.03151">
        <ele>177.96573</ele>
        <time>2023-07-11T07:15:27.000Z</time>
      </trkpt>
      <trkpt lat="45.80599" lon="5.03147">
        <ele>177.84909</ele>
        <time>2023-07-11T07:15:28.000Z</time>
      </trkpt>
      <trkpt lat="45.80596" lon="5.03144">
        <ele>177.72432</ele>
        <time>2023-07-11T07:15:29.000Z</time>
      </trkpt>
      <trkpt lat="45.80593" lon="5.0314">
        <ele>177.58615</ele>
        <time>2023-07-11T07:15:30.000Z</time>
      </trkpt>
      <trkpt lat="45.8059" lon="5.03136">
        <ele>177.47189</ele>
        <time>2023-07-11T07:15:31.000Z</time>
      </trkpt>
      <trkpt lat="45.80588" lon="5.03132">
        <ele>177.33647</ele>
        <time>2023-07-11T07:15:32.000Z</time>
      </trkpt>
      <trkpt lat="45.80585" lon="5.03128">
        <ele>177.16089</ele>
        <time>2023-07-11T07:15:33.000Z</time>
      </trkpt>
      <trkpt lat="45.80582" lon="5.03124">
        <ele>177.05962</ele>
        <time>2023-07-11T07:15:34.000Z</time>
      </trkpt>
      <trkpt lat="45.80578" lon="5.0312">
        <ele>176.99583</ele>
        <time>2023-07-11T07:15:35.000Z</time>
      </trkpt>
      <trkpt lat="45.80575" lon="5.03117">
        <ele>176.89908</ele>
        <time>2023-07-11T07:15:36.000Z</time>
      </trkpt>
      <trkpt lat="45.80571" lon="5.03113">
        <ele>176.76523</ele>
        <time>2023-07-11T07:15:37.000Z</time>
      </trkpt>
      <trkpt lat="45.80567" lon="5.0311">
        <ele>176.62982</ele>
        <time>2023-07-11T07:15:38.000Z</time>
      </trkpt>
      <trkpt lat="45.80563" lon="5.03106">
        <ele>176.50333</ele>
        <time>2023-07-11T07:15:39.000Z</time>
      </trkpt>
      <trkpt lat="45.80559" lon="5.03101">
        <ele>176.43839</ele>
        <time>2023-07-11T07:15:40.000Z</time>
      </trkpt>
      <trkpt lat="45.80555" lon="5.03097">
        <ele>176.35371</ele>
        <time>2023-07-11T07:15:41.000Z</time>
      </trkpt>
      <trkpt lat="45.80551" lon="5.03093">
        <ele>176.27728</ele>
        <time>2023-07-11T07:15:42.000Z</time>
      </trkpt>
      <trkpt lat="45.80546" lon="5.03089">
        <ele>176.21265</ele>
        <time>2023-07-11T07:15:43.000Z</time>
      </trkpt>
      <trkpt lat="45.80542" lon="5.03085">
        <ele>176.2093</ele>
        <time>2023-07-11T07:15:44.000Z</time>
      </trkpt>
      <trkpt lat="45.80538" lon="5.03081">
        <ele>176.20482</ele>
        <time>2023-07-11T07:15:45.000Z</time>
      </trkpt>
      <trkpt lat="45.80534" lon="5.03078">
        <ele>176.19791</ele>
        <time>2023-07-11T07:15:46.000Z</time>
      </trkpt>
      <trkpt lat="45.8053" lon="5.03074">
        <ele>176.16139</ele>
        <time>2023-07-11T07:15:47.000Z</time>
      </trkpt>
      <trkpt lat="45.80526" lon="5.0307">
        <ele>176.12122</ele>
        <time>2023-07-11T07:15:48.000Z</time>
      </trkpt>
      <trkpt lat="45.80522" lon="5.03066">
        <ele>176.10068</ele>
        <time>2023-07-11T07:15:49.000Z</time>
      </trkpt>
      <trkpt lat="45.80519" lon="5.03063">
        <ele>176.1019</ele>
        <time>2023-07-11T07:15:50.000Z</time>
      </trkpt>
      <trkpt lat="45.80516" lon="5.03061">
        <ele>176.10292</ele>
        <time>2023-07-11T07:15:51.000Z</time>
      </trkpt>
      <trkpt lat="45.80513" lon="5.03058">
        <ele>176.10858</ele>
        <time>2023-07-11T07:15:52.000Z</time>
      </trkpt>
      <trkpt lat="45.80509" lon="5.03057">
        <ele>176.13435</ele>
        <time>2023-07-11T07:15:53.000Z</time>
      </trkpt>
      <trkpt lat="45.80506" lon="5.03055">
        <ele>176.14352</ele>
        <time>2023-07-11T07:15:54.000Z</time>
      </trkpt>
      <trkpt lat="45.80502" lon="5.03053">
        <ele>176.12518</ele>
        <time>2023-07-11T07:15:55.000Z</time>
      </trkpt>
      <trkpt lat="45.80498" lon="5.03052">
        <ele>176.14221</ele>
        <time>2023-07-11T07:15:56.000Z</time>
      </trkpt>
      <trkpt lat="45.80493" lon="5.03051">
        <ele>176.14749</ele>
        <time>2023-07-11T07:15:57.000Z</time>
      </trkpt>
      <trkpt lat="45.8049" lon="5.03049">
        <ele>176.1678</ele>
        <time>2023-07-11T07:15:58.000Z</time>
      </trkpt>
      <trkpt lat="45.80485" lon="5.03047">
        <ele>176.17117</ele>
        <time>2023-07-11T07:15:59.000Z</time>
      </trkpt>
      <trkpt lat="45.80482" lon="5.03045">
        <ele>176.15448</ele>
        <time>2023-07-11T07:16:00.000Z</time>
      </trkpt>
      <trkpt lat="45.80477" lon="5.03044">
        <ele>176.13141</ele>
        <time>2023-07-11T07:16:01.000Z</time>
      </trkpt>
      <trkpt lat="45.80473" lon="5.03043">
        <ele>176.12567</ele>
        <time>2023-07-11T07:16:02.000Z</time>
      </trkpt>
      <trkpt lat="45.80469" lon="5.0304">
        <ele>176.0907</ele>
        <time>2023-07-11T07:16:03.000Z</time>
      </trkpt>
      <trkpt lat="45.80465" lon="5.03038">
        <ele>176.04218</ele>
        <time>2023-07-11T07:16:04.000Z</time>
      </trkpt>
      <trkpt lat="45.80461" lon="5.03035">
        <ele>176.01221</ele>
        <time>2023-07-11T07:16:05.000Z</time>
      </trkpt>
      <trkpt lat="45.80458" lon="5.03031">
        <ele>176.02074</ele>
        <time>2023-07-11T07:16:06.000Z</time>
      </trkpt>
      <trkpt lat="45.80455" lon="5.03026">
        <ele>176.08102</ele>
        <time>2023-07-11T07:16:07.000Z</time>
      </trkpt>
      <trkpt lat="45.80451" lon="5.03019">
        <ele>176.10678</ele>
        <time>2023-07-11T07:16:08.000Z</time>
      </trkpt>
      <trkpt lat="45.80448" lon="5.03012">
        <ele>176.07738</ele>
        <time>2023-07-11T07:16:09.000Z</time>
      </trkpt>
      <trkpt lat="45.80446" lon="5.03007">
        <ele>176.00125</ele>
        <time>2023-07-11T07:16:10.000Z</time>
      </trkpt>
      <trkpt lat="45.80444" lon="5.03001">
        <ele>175.91946</ele>
        <time>2023-07-11T07:16:11.000Z</time>
      </trkpt>
      <trkpt lat="45.80442" lon="5.02995">
        <ele>175.8428</ele>
        <time>2023-07-11T07:16:12.000Z</time>
      </trkpt>
      <trkpt lat="45.8044" lon="5.02989">
        <ele>175.75826</ele>
        <time>2023-07-11T07:16:13.000Z</time>
      </trkpt>
      <trkpt lat="45.80438" lon="5.02983">
        <ele>175.6792</ele>
        <time>2023-07-11T07:16:14.000Z</time>
      </trkpt>
      <trkpt lat="45.80437" lon="5.02976">
        <ele>175.60617</ele>
        <time>2023-07-11T07:16:15.000Z</time>
      </trkpt>
      <trkpt lat="45.80435" lon="5.02968">
        <ele>175.53564</ele>
        <time>2023-07-11T07:16:16.000Z</time>
      </trkpt>
      <trkpt lat="45.80434" lon="5.02962">
        <ele>175.45222</ele>
        <time>2023-07-11T07:16:17.000Z</time>
      </trkpt>
      <trkpt lat="45.80433" lon="5.02955">
        <ele>175.39215</ele>
        <time>2023-07-11T07:16:18.000Z</time>
      </trkpt>
      <trkpt lat="45.80432" lon="5.02948">
        <ele>175.34822</ele>
        <time>2023-07-11T07:16:19.000Z</time>
      </trkpt>
      <trkpt lat="45.8043" lon="5.02942">
        <ele>175.30453</ele>
        <time>2023-07-11T07:16:20.000Z</time>
      </trkpt>
      <trkpt lat="45.80427" lon="5.02936">
        <ele>175.32494</ele>
        <time>2023-07-11T07:16:21.000Z</time>
      </trkpt>
      <trkpt lat="45.80426" lon="5.02929">
        <ele>175.30035</ele>
        <time>2023-07-11T07:16:22.000Z</time>
      </trkpt>
      <trkpt lat="45.80425" lon="5.02922">
        <ele>175.34357</ele>
        <time>2023-07-11T07:16:23.000Z</time>
      </trkpt>
      <trkpt lat="45.80424" lon="5.02915">
        <ele>175.3886</ele>
        <time>2023-07-11T07:16:24.000Z</time>
      </trkpt>
      <trkpt lat="45.80423" lon="5.02909">
        <ele>175.476</ele>
        <time>2023-07-11T07:16:25.000Z</time>
      </trkpt>
      <trkpt lat="45.80422" lon="5.02902">
        <ele>175.52579</ele>
        <time>2023-07-11T07:16:26.000Z</time>
      </trkpt>
      <trkpt lat="45.8042" lon="5.02896">
        <ele>175.56927</ele>
        <time>2023-07-11T07:16:27.000Z</time>
      </trkpt>
      <trkpt lat="45.80418" lon="5.0289">
        <ele>175.63658</ele>
        <time>2023-07-11T07:16:28.000Z</time>
      </trkpt>
      <trkpt lat="45.80418" lon="5.02884">
        <ele>175.72287</ele>
        <time>2023-07-11T07:16:29.000Z</time>
      </trkpt>
      <trkpt lat="45.80417" lon="5.02878">
        <ele>175.90359</ele>
        <time>2023-07-11T07:16:30.000Z</time>
      </trkpt>
      <trkpt lat="45.80416" lon="5.02872">
        <ele>176.08388</ele>
        <time>2023-07-11T07:16:31.000Z</time>
      </trkpt>
      <trkpt lat="45.80414" lon="5.02866">
        <ele>176.25102</ele>
        <time>2023-07-11T07:16:32.000Z</time>
      </trkpt>
      <trkpt lat="45.80411" lon="5.02858">
        <ele>176.40128</ele>
        <time>2023-07-11T07:16:33.000Z</time>
      </trkpt>
      <trkpt lat="45.80409" lon="5.02852">
        <ele>176.52443</ele>
        <time>2023-07-11T07:16:34.000Z</time>
      </trkpt>
      <trkpt lat="45.80407" lon="5.02846">
        <ele>176.65465</ele>
        <time>2023-07-11T07:16:35.000Z</time>
      </trkpt>
      <trkpt lat="45.80405" lon="5.0284">
        <ele>176.78058</ele>
        <time>2023-07-11T07:16:36.000Z</time>
      </trkpt>
      <trkpt lat="45.80403" lon="5.02834">
        <ele>176.85223</ele>
        <time>2023-07-11T07:16:37.000Z</time>
      </trkpt>
      <trkpt lat="45.80402" lon="5.02827">
        <ele>176.93105</ele>
        <time>2023-07-11T07:16:38.000Z</time>
      </trkpt>
      <trkpt lat="45.80401" lon="5.02821">
        <ele>177.03363</ele>
        <time>2023-07-11T07:16:39.000Z</time>
      </trkpt>
      <trkpt lat="45.804" lon="5.02815">
        <ele>177.15802</ele>
        <time>2023-07-11T07:16:40.000Z</time>
      </trkpt>
      <trkpt lat="45.80399" lon="5.02808">
        <ele>177.25391</ele>
        <time>2023-07-11T07:16:41.000Z</time>
      </trkpt>
      <trkpt lat="45.80396" lon="5.028">
        <ele>177.43318</ele>
        <time>2023-07-11T07:16:42.000Z</time>
      </trkpt>
      <trkpt lat="45.80397" lon="5.02794">
        <ele>177.56471</ele>
        <time>2023-07-11T07:16:43.000Z</time>
      </trkpt>
      <trkpt lat="45.80395" lon="5.02788">
        <ele>177.70874</ele>
        <time>2023-07-11T07:16:44.000Z</time>
      </trkpt>
      <trkpt lat="45.80395" lon="5.02782">
        <ele>177.79234</ele>
        <time>2023-07-11T07:16:45.000Z</time>
      </trkpt>
      <trkpt lat="45.80391" lon="5.02776">
        <ele>177.85857</ele>
        <time>2023-07-11T07:16:46.000Z</time>
      </trkpt>
      <trkpt lat="45.80388" lon="5.0277">
        <ele>177.86909</ele>
        <time>2023-07-11T07:16:47.000Z</time>
      </trkpt>
      <trkpt lat="45.80385" lon="5.02764">
        <ele>177.86053</ele>
        <time>2023-07-11T07:16:48.000Z</time>
      </trkpt>
      <trkpt lat="45.80383" lon="5.02758">
        <ele>177.86327</ele>
        <time>2023-07-11T07:16:49.000Z</time>
      </trkpt>
      <trkpt lat="45.80383" lon="5.02752">
        <ele>177.82806</ele>
        <time>2023-07-11T07:16:50.000Z</time>
      </trkpt>
      <trkpt lat="45.80383" lon="5.02747">
        <ele>177.82568</ele>
        <time>2023-07-11T07:16:51.000Z</time>
      </trkpt>
      <trkpt lat="45.80383" lon="5.02741">
        <ele>177.8446</ele>
        <time>2023-07-11T07:16:52.000Z</time>
      </trkpt>
      <trkpt lat="45.80379" lon="5.02737">
        <ele>177.88443</ele>
        <time>2023-07-11T07:16:53.000Z</time>
      </trkpt>
      <trkpt lat="45.80376" lon="5.02731">
        <ele>177.95143</ele>
        <time>2023-07-11T07:16:54.000Z</time>
      </trkpt>
      <trkpt lat="45.80373" lon="5.02726">
        <ele>178.0376</ele>
        <time>2023-07-11T07:16:55.000Z</time>
      </trkpt>
      <trkpt lat="45.8037" lon="5.02723">
        <ele>178.05867</ele>
        <time>2023-07-11T07:16:56.000Z</time>
      </trkpt>
      <trkpt lat="45.80367" lon="5.02719">
        <ele>178.13998</ele>
        <time>2023-07-11T07:16:57.000Z</time>
      </trkpt>
      <trkpt lat="45.80365" lon="5.02714">
        <ele>178.17972</ele>
        <time>2023-07-11T07:16:58.000Z</time>
      </trkpt>
      <trkpt lat="45.80363" lon="5.02709">
        <ele>178.18813</ele>
        <time>2023-07-11T07:16:59.000Z</time>
      </trkpt>
      <trkpt lat="45.80363" lon="5.02704">
        <ele>178.21468</ele>
        <time>2023-07-11T07:17:00.000Z</time>
      </trkpt>
      <trkpt lat="45.80363" lon="5.02699">
        <ele>178.24081</ele>
        <time>2023-07-11T07:17:01.000Z</time>
      </trkpt>
      <trkpt lat="45.80362" lon="5.02693">
        <ele>178.22809</ele>
        <time>2023-07-11T07:17:02.000Z</time>
      </trkpt>
      <trkpt lat="45.80362" lon="5.02687">
        <ele>178.21127</ele>
        <time>2023-07-11T07:17:03.000Z</time>
      </trkpt>
      <trkpt lat="45.80361" lon="5.02681">
        <ele>178.1736</ele>
        <time>2023-07-11T07:17:04.000Z</time>
      </trkpt>
      <trkpt lat="45.80359" lon="5.02675">
        <ele>178.06851</ele>
        <time>2023-07-11T07:17:05.000Z</time>
      </trkpt>
      <trkpt lat="45.80357" lon="5.02669">
        <ele>178.00543</ele>
        <time>2023-07-11T07:17:06.000Z</time>
      </trkpt>
      <trkpt lat="45.80356" lon="5.02662">
        <ele>177.96118</ele>
        <time>2023-07-11T07:17:07.000Z</time>
      </trkpt>
      <trkpt lat="45.80354" lon="5.02657">
        <ele>177.99944</ele>
        <time>2023-07-11T07:17:08.000Z</time>
      </trkpt>
      <trkpt lat="45.80353" lon="5.0265">
        <ele>178.06992</ele>
        <time>2023-07-11T07:17:09.000Z</time>
      </trkpt>
      <trkpt lat="45.80353" lon="5.02644">
        <ele>178.13568</ele>
        <time>2023-07-11T07:17:10.000Z</time>
      </trkpt>
      <trkpt lat="45.80352" lon="5.02637">
        <ele>178.20551</ele>
        <time>2023-07-11T07:17:11.000Z</time>
      </trkpt>
      <trkpt lat="45.80351" lon="5.0263">
        <ele>178.29642</ele>
        <time>2023-07-11T07:17:12.000Z</time>
      </trkpt>
      <trkpt lat="45.8035" lon="5.02623">
        <ele>178.40164</ele>
        <time>2023-07-11T07:17:13.000Z</time>
      </trkpt>
      <trkpt lat="45.80348" lon="5.02616">
        <ele>178.48805</ele>
        <time>2023-07-11T07:17:14.000Z</time>
      </trkpt>
      <trkpt lat="45.80347" lon="5.02611">
        <ele>178.55807</ele>
        <time>2023-07-11T07:17:15.000Z</time>
      </trkpt>
      <trkpt lat="45.80346" lon="5.02603">
        <ele>178.67378</ele>
        <time>2023-07-11T07:17:16.000Z</time>
      </trkpt>
      <trkpt lat="45.80343" lon="5.02596">
        <ele>178.78387</ele>
        <time>2023-07-11T07:17:17.000Z</time>
      </trkpt>
      <trkpt lat="45.80342" lon="5.02589">
        <ele>178.8929</ele>
        <time>2023-07-11T07:17:18.000Z</time>
      </trkpt>
      <trkpt lat="45.80339" lon="5.02583">
        <ele>179.01785</ele>
        <time>2023-07-11T07:17:19.000Z</time>
      </trkpt>
      <trkpt lat="45.80337" lon="5.02578">
        <ele>179.12341</ele>
        <time>2023-07-11T07:17:20.000Z</time>
      </trkpt>
      <trkpt lat="45.80336" lon="5.02572">
        <ele>179.20047</ele>
        <time>2023-07-11T07:17:21.000Z</time>
      </trkpt>
      <trkpt lat="45.80336" lon="5.02566">
        <ele>179.25894</ele>
        <time>2023-07-11T07:17:22.000Z</time>
      </trkpt>
      <trkpt lat="45.80335" lon="5.0256">
        <ele>179.31355</ele>
        <time>2023-07-11T07:17:23.000Z</time>
      </trkpt>
      <trkpt lat="45.80334" lon="5.02554">
        <ele>179.3403</ele>
        <time>2023-07-11T07:17:24.000Z</time>
      </trkpt>
      <trkpt lat="45.80332" lon="5.02547">
        <ele>179.44157</ele>
        <time>2023-07-11T07:17:25.000Z</time>
      </trkpt>
      <trkpt lat="45.80333" lon="5.02541">
        <ele>179.5294</ele>
        <time>2023-07-11T07:17:26.000Z</time>
      </trkpt>
      <trkpt lat="45.80333" lon="5.02533">
        <ele>179.60945</ele>
        <time>2023-07-11T07:17:27.000Z</time>
      </trkpt>
      <trkpt lat="45.80334" lon="5.02526">
        <ele>179.60939</ele>
        <time>2023-07-11T07:17:28.000Z</time>
      </trkpt>
      <trkpt lat="45.80335" lon="5.02518">
        <ele>179.57932</ele>
        <time>2023-07-11T07:17:29.000Z</time>
      </trkpt>
      <trkpt lat="45.80334" lon="5.02511">
        <ele>179.56125</ele>
        <time>2023-07-11T07:17:30.000Z</time>
      </trkpt>
      <trkpt lat="45.80335" lon="5.02505">
        <ele>179.46667</ele>
        <time>2023-07-11T07:17:31.000Z</time>
      </trkpt>
      <trkpt lat="45.80335" lon="5.02498">
        <ele>179.31546</ele>
        <time>2023-07-11T07:17:32.000Z</time>
      </trkpt>
      <trkpt lat="45.80337" lon="5.02491">
        <ele>179.1322</ele>
        <time>2023-07-11T07:17:33.000Z</time>
      </trkpt>
      <trkpt lat="45.80339" lon="5.02485">
        <ele>178.92009</ele>
        <time>2023-07-11T07:17:34.000Z</time>
      </trkpt>
      <trkpt lat="45.80341" lon="5.02478">
        <ele>178.72507</ele>
        <time>2023-07-11T07:17:35.000Z</time>
      </trkpt>
      <trkpt lat="45.80343" lon="5.02472">
        <ele>178.53447</ele>
        <time>2023-07-11T07:17:36.000Z</time>
      </trkpt>
      <trkpt lat="45.80343" lon="5.02465">
        <ele>178.39296</ele>
        <time>2023-07-11T07:17:37.000Z</time>
      </trkpt>
      <trkpt lat="45.80345" lon="5.02458">
        <ele>178.25313</ele>
        <time>2023-07-11T07:17:38.000Z</time>
      </trkpt>
      <trkpt lat="45.80346" lon="5.02451">
        <ele>178.12013</ele>
        <time>2023-07-11T07:17:39.000Z</time>
      </trkpt>
      <trkpt lat="45.80348" lon="5.02444">
        <ele>177.99263</ele>
        <time>2023-07-11T07:17:40.000Z</time>
      </trkpt>
      <trkpt lat="45.80351" lon="5.02437">
        <ele>177.83414</ele>
        <time>2023-07-11T07:17:41.000Z</time>
      </trkpt>
      <trkpt lat="45.80352" lon="5.0243">
        <ele>177.68692</ele>
        <time>2023-07-11T07:17:42.000Z</time>
      </trkpt>
      <trkpt lat="45.80351" lon="5.02422">
        <ele>177.58269</ele>
        <time>2023-07-11T07:17:43.000Z</time>
      </trkpt>
      <trkpt lat="45.80352" lon="5.02416">
        <ele>177.46959</ele>
        <time>2023-07-11T07:17:44.000Z</time>
      </trkpt>
      <trkpt lat="45.80352" lon="5.02409">
        <ele>177.31926</ele>
        <time>2023-07-11T07:17:45.000Z</time>
      </trkpt>
      <trkpt lat="45.80354" lon="5.02402">
        <ele>177.1859</ele>
        <time>2023-07-11T07:17:46.000Z</time>
      </trkpt>
      <trkpt lat="45.80354" lon="5.02395">
        <ele>177.09779</ele>
        <time>2023-07-11T07:17:47.000Z</time>
      </trkpt>
      <trkpt lat="45.80355" lon="5.02389">
        <ele>177.01125</ele>
        <time>2023-07-11T07:17:48.000Z</time>
      </trkpt>
      <trkpt lat="45.80355" lon="5.02382">
        <ele>176.9258</ele>
        <time>2023-07-11T07:17:49.000Z</time>
      </trkpt>
      <trkpt lat="45.80356" lon="5.02375">
        <ele>176.78011</ele>
        <time>2023-07-11T07:17:50.000Z</time>
      </trkpt>
      <trkpt lat="45.80357" lon="5.0237">
        <ele>176.67337</ele>
        <time>2023-07-11T07:17:51.000Z</time>
      </trkpt>
      <trkpt lat="45.80359" lon="5.02363">
        <ele>176.60062</ele>
        <time>2023-07-11T07:17:52.000Z</time>
      </trkpt>
      <trkpt lat="45.8036" lon="5.02358">
        <ele>176.50912</ele>
        <time>2023-07-11T07:17:53.000Z</time>
      </trkpt>
      <trkpt lat="45.80362" lon="5.02354">
        <ele>176.45677</ele>
        <time>2023-07-11T07:17:54.000Z</time>
      </trkpt>
      <trkpt lat="45.80362" lon="5.02349">
        <ele>176.41124</ele>
        <time>2023-07-11T07:17:55.000Z</time>
      </trkpt>
      <trkpt lat="45.80363" lon="5.02343">
        <ele>176.37895</ele>
        <time>2023-07-11T07:17:56.000Z</time>
      </trkpt>
      <trkpt lat="45.80364" lon="5.02336">
        <ele>176.3031</ele>
        <time>2023-07-11T07:17:57.000Z</time>
      </trkpt>
      <trkpt lat="45.80365" lon="5.0233">
        <ele>176.21266</ele>
        <time>2023-07-11T07:17:58.000Z</time>
      </trkpt>
      <trkpt lat="45.80365" lon="5.02323">
        <ele>176.12439</ele>
        <time>2023-07-11T07:17:59.000Z</time>
      </trkpt>
      <trkpt lat="45.80364" lon="5.02317">
        <ele>176.02133</ele>
        <time>2023-07-11T07:18:00.000Z</time>
      </trkpt>
      <trkpt lat="45.80366" lon="5.0231">
        <ele>175.93863</ele>
        <time>2023-07-11T07:18:01.000Z</time>
      </trkpt>
      <trkpt lat="45.80368" lon="5.02304">
        <ele>175.85307</ele>
        <time>2023-07-11T07:18:02.000Z</time>
      </trkpt>
      <trkpt lat="45.8037" lon="5.02298">
        <ele>175.72154</ele>
        <time>2023-07-11T07:18:03.000Z</time>
      </trkpt>
      <trkpt lat="45.8037" lon="5.02291">
        <ele>175.65672</ele>
        <time>2023-07-11T07:18:04.000Z</time>
      </trkpt>
      <trkpt lat="45.8037" lon="5.02285">
        <ele>175.65085</ele>
        <time>2023-07-11T07:18:05.000Z</time>
      </trkpt>
      <trkpt lat="45.80369" lon="5.02278">
        <ele>175.63947</ele>
        <time>2023-07-11T07:18:06.000Z</time>
      </trkpt>
      <trkpt lat="45.80372" lon="5.02272">
        <ele>175.5874</ele>
        <time>2023-07-11T07:18:07.000Z</time>
      </trkpt>
      <trkpt lat="45.80373" lon="5.02265">
        <ele>175.54428</ele>
        <time>2023-07-11T07:18:08.000Z</time>
      </trkpt>
      <trkpt lat="45.80375" lon="5.02259">
        <ele>175.50931</ele>
        <time>2023-07-11T07:18:09.000Z</time>
      </trkpt>
      <trkpt lat="45.80376" lon="5.02252">
        <ele>175.53813</ele>
        <time>2023-07-11T07:18:10.000Z</time>
      </trkpt>
      <trkpt lat="45.80379" lon="5.02247">
        <ele>175.54538</ele>
        <time>2023-07-11T07:18:11.000Z</time>
      </trkpt>
      <trkpt lat="45.8038" lon="5.0224">
        <ele>175.53314</ele>
        <time>2023-07-11T07:18:12.000Z</time>
      </trkpt>
      <trkpt lat="45.80381" lon="5.02233">
        <ele>175.56834</ele>
        <time>2023-07-11T07:18:13.000Z</time>
      </trkpt>
      <trkpt lat="45.80383" lon="5.02227">
        <ele>175.58553</ele>
        <time>2023-07-11T07:18:14.000Z</time>
      </trkpt>
      <trkpt lat="45.80384" lon="5.02221">
        <ele>175.60422</ele>
        <time>2023-07-11T07:18:15.000Z</time>
      </trkpt>
      <trkpt lat="45.80386" lon="5.02215">
        <ele>175.61093</ele>
        <time>2023-07-11T07:18:16.000Z</time>
      </trkpt>
      <trkpt lat="45.80388" lon="5.0221">
        <ele>175.6514</ele>
        <time>2023-07-11T07:18:17.000Z</time>
      </trkpt>
      <trkpt lat="45.80391" lon="5.02204">
        <ele>175.68726</ele>
        <time>2023-07-11T07:18:18.000Z</time>
      </trkpt>
      <trkpt lat="45.80394" lon="5.02198">
        <ele>175.70822</ele>
        <time>2023-07-11T07:18:19.000Z</time>
      </trkpt>
      <trkpt lat="45.80397" lon="5.02192">
        <ele>175.74327</ele>
        <time>2023-07-11T07:18:20.000Z</time>
      </trkpt>
      <trkpt lat="45.804" lon="5.02186">
        <ele>175.7778</ele>
        <time>2023-07-11T07:18:21.000Z</time>
      </trkpt>
      <trkpt lat="45.80403" lon="5.02179">
        <ele>175.85463</ele>
        <time>2023-07-11T07:18:22.000Z</time>
      </trkpt>
      <trkpt lat="45.80405" lon="5.02173">
        <ele>175.97672</ele>
        <time>2023-07-11T07:18:23.000Z</time>
      </trkpt>
      <trkpt lat="45.80409" lon="5.02169">
        <ele>176.07822</ele>
        <time>2023-07-11T07:18:24.000Z</time>
      </trkpt>
      <trkpt lat="45.80412" lon="5.02163">
        <ele>176.14316</ele>
        <time>2023-07-11T07:18:25.000Z</time>
      </trkpt>
      <trkpt lat="45.80415" lon="5.02158">
        <ele>176.21461</ele>
        <time>2023-07-11T07:18:26.000Z</time>
      </trkpt>
      <trkpt lat="45.80418" lon="5.02153">
        <ele>176.30931</ele>
        <time>2023-07-11T07:18:27.000Z</time>
      </trkpt>
      <trkpt lat="45.80421" lon="5.02148">
        <ele>176.44502</ele>
        <time>2023-07-11T07:18:28.000Z</time>
      </trkpt>
      <trkpt lat="45.80422" lon="5.02142">
        <ele>176.58298</ele>
        <time>2023-07-11T07:18:29.000Z</time>
      </trkpt>
      <trkpt lat="45.80425" lon="5.02137">
        <ele>176.61974</ele>
        <time>2023-07-11T07:18:30.000Z</time>
      </trkpt>
      <trkpt lat="45.80427" lon="5.02132">
        <ele>176.69022</ele>
        <time>2023-07-11T07:18:31.000Z</time>
      </trkpt>
      <trkpt lat="45.80431" lon="5.02127">
        <ele>176.76295</ele>
        <time>2023-07-11T07:18:32.000Z</time>
      </trkpt>
      <trkpt lat="45.80434" lon="5.02124">
        <ele>176.79988</ele>
        <time>2023-07-11T07:18:33.000Z</time>
      </trkpt>
      <trkpt lat="45.80438" lon="5.02121">
        <ele>176.8439</ele>
        <time>2023-07-11T07:18:34.000Z</time>
      </trkpt>
      <trkpt lat="45.80443" lon="5.02118">
        <ele>176.87131</ele>
        <time>2023-07-11T07:18:35.000Z</time>
      </trkpt>
      <trkpt lat="45.80447" lon="5.02113">
        <ele>176.86984</ele>
        <time>2023-07-11T07:18:36.000Z</time>
      </trkpt>
      <trkpt lat="45.80451" lon="5.02109">
        <ele>176.82541</ele>
        <time>2023-07-11T07:18:37.000Z</time>
      </trkpt>
      <trkpt lat="45.80454" lon="5.02105">
        <ele>176.7746</ele>
        <time>2023-07-11T07:18:38.000Z</time>
      </trkpt>
      <trkpt lat="45.80457" lon="5.02101">
        <ele>176.61917</ele>
        <time>2023-07-11T07:18:39.000Z</time>
      </trkpt>
      <trkpt lat="45.80461" lon="5.02096">
        <ele>176.47252</ele>
        <time>2023-07-11T07:18:40.000Z</time>
      </trkpt>
      <trkpt lat="45.80464" lon="5.02091">
        <ele>176.37491</ele>
        <time>2023-07-11T07:18:41.000Z</time>
      </trkpt>
      <trkpt lat="45.80467" lon="5.02087">
        <ele>176.23264</ele>
        <time>2023-07-11T07:18:42.000Z</time>
      </trkpt>
      <trkpt lat="45.80471" lon="5.02084">
        <ele>176.10187</ele>
        <time>2023-07-11T07:18:43.000Z</time>
      </trkpt>
      <trkpt lat="45.80474" lon="5.02082">
        <ele>175.95238</ele>
        <time>2023-07-11T07:18:44.000Z</time>
      </trkpt>
      <trkpt lat="45.80477" lon="5.02079">
        <ele>175.82695</ele>
        <time>2023-07-11T07:18:45.000Z</time>
      </trkpt>
      <trkpt lat="45.80481" lon="5.02076">
        <ele>175.72739</ele>
        <time>2023-07-11T07:18:46.000Z</time>
      </trkpt>
      <trkpt lat="45.80485" lon="5.02074">
        <ele>175.6329</ele>
        <time>2023-07-11T07:18:47.000Z</time>
      </trkpt>
      <trkpt lat="45.80489" lon="5.02072">
        <ele>175.50885</ele>
        <time>2023-07-11T07:18:48.000Z</time>
      </trkpt>
      <trkpt lat="45.80492" lon="5.02068">
        <ele>175.3578</ele>
        <time>2023-07-11T07:18:49.000Z</time>
      </trkpt>
      <trkpt lat="45.80495" lon="5.02065">
        <ele>175.32173</ele>
        <time>2023-07-11T07:18:50.000Z</time>
      </trkpt>
      <trkpt lat="45.80498" lon="5.02062">
        <ele>175.27255</ele>
        <time>2023-07-11T07:18:51.000Z</time>
      </trkpt>
      <trkpt lat="45.80501" lon="5.02059">
        <ele>175.22922</ele>
        <time>2023-07-11T07:18:52.000Z</time>
      </trkpt>
      <trkpt lat="45.80505" lon="5.02056">
        <ele>175.21519</ele>
        <time>2023-07-11T07:18:53.000Z</time>
      </trkpt>
      <trkpt lat="45.80508" lon="5.02054">
        <ele>175.22913</ele>
        <time>2023-07-11T07:18:54.000Z</time>
      </trkpt>
      <trkpt lat="45.80512" lon="5.02052">
        <ele>175.20175</ele>
        <time>2023-07-11T07:18:55.000Z</time>
      </trkpt>
      <trkpt lat="45.80515" lon="5.02049">
        <ele>175.19965</ele>
        <time>2023-07-11T07:18:56.000Z</time>
      </trkpt>
      <trkpt lat="45.80518" lon="5.02045">
        <ele>175.20174</ele>
        <time>2023-07-11T07:18:57.000Z</time>
      </trkpt>
      <trkpt lat="45.80521" lon="5.02041">
        <ele>175.19829</ele>
        <time>2023-07-11T07:18:58.000Z</time>
      </trkpt>
      <trkpt lat="45.80525" lon="5.02038">
        <ele>175.27463</ele>
        <time>2023-07-11T07:18:59.000Z</time>
      </trkpt>
      <trkpt lat="45.80528" lon="5.02035">
        <ele>175.31442</ele>
        <time>2023-07-11T07:19:00.000Z</time>
      </trkpt>
      <trkpt lat="45.80531" lon="5.02032">
        <ele>175.32025</ele>
        <time>2023-07-11T07:19:01.000Z</time>
      </trkpt>
      <trkpt lat="45.80533" lon="5.02029">
        <ele>175.32059</ele>
        <time>2023-07-11T07:19:02.000Z</time>
      </trkpt>
      <trkpt lat="45.80536" lon="5.02025">
        <ele>175.28119</ele>
        <time>2023-07-11T07:19:03.000Z</time>
      </trkpt>
      <trkpt lat="45.8054" lon="5.02022">
        <ele>175.29022</ele>
        <time>2023-07-11T07:19:04.000Z</time>
      </trkpt>
      <trkpt lat="45.80543" lon="5.02019">
        <ele>175.29208</ele>
        <time>2023-07-11T07:19:05.000Z</time>
      </trkpt>
      <trkpt lat="45.80547" lon="5.02016">
        <ele>175.26358</ele>
        <time>2023-07-11T07:19:06.000Z</time>
      </trkpt>
      <trkpt lat="45.8055" lon="5.02013">
        <ele>175.23264</ele>
        <time>2023-07-11T07:19:07.000Z</time>
      </trkpt>
      <trkpt lat="45.80552" lon="5.02008">
        <ele>175.1794</ele>
        <time>2023-07-11T07:19:08.000Z</time>
      </trkpt>
      <trkpt lat="45.80554" lon="5.02003">
        <ele>175.12672</ele>
        <time>2023-07-11T07:19:09.000Z</time>
      </trkpt>
      <trkpt lat="45.80556" lon="5.01997">
        <ele>175.01877</ele>
        <time>2023-07-11T07:19:10.000Z</time>
      </trkpt>
      <trkpt lat="45.80559" lon="5.01992">
        <ele>174.90144</ele>
        <time>2023-07-11T07:19:11.000Z</time>
      </trkpt>
      <trkpt lat="45.80561" lon="5.01987">
        <ele>174.80489</ele>
        <time>2023-07-11T07:19:12.000Z</time>
      </trkpt>
      <trkpt lat="45.80563" lon="5.01983">
        <ele>174.73662</ele>
        <time>2023-07-11T07:19:13.000Z</time>
      </trkpt>
      <trkpt lat="45.80566" lon="5.01979">
        <ele>174.61519</ele>
        <time>2023-07-11T07:19:14.000Z</time>
      </trkpt>
      <trkpt lat="45.8057" lon="5.01975">
        <ele>174.54037</ele>
        <time>2023-07-11T07:19:15.000Z</time>
      </trkpt>
      <trkpt lat="45.80573" lon="5.0197">
        <ele>174.50674</ele>
        <time>2023-07-11T07:19:16.000Z</time>
      </trkpt>
      <trkpt lat="45.80576" lon="5.01966">
        <ele>174.47809</ele>
        <time>2023-07-11T07:19:17.000Z</time>
      </trkpt>
      <trkpt lat="45.80581" lon="5.0196">
        <ele>174.47226</ele>
        <time>2023-07-11T07:19:18.000Z</time>
      </trkpt>
      <trkpt lat="45.80585" lon="5.01957">
        <ele>174.49063</ele>
        <time>2023-07-11T07:19:19.000Z</time>
      </trkpt>
      <trkpt lat="45.80588" lon="5.01954">
        <ele>174.51683</ele>
        <time>2023-07-11T07:19:20.000Z</time>
      </trkpt>
      <trkpt lat="45.80591" lon="5.0195">
        <ele>174.54195</ele>
        <time>2023-07-11T07:19:21.000Z</time>
      </trkpt>
      <trkpt lat="45.80595" lon="5.01948">
        <ele>174.5788</ele>
        <time>2023-07-11T07:19:22.000Z</time>
      </trkpt>
      <trkpt lat="45.80599" lon="5.01947">
        <ele>174.59865</ele>
        <time>2023-07-11T07:19:23.000Z</time>
      </trkpt>
      <trkpt lat="45.80603" lon="5.01945">
        <ele>174.58568</ele>
        <time>2023-07-11T07:19:24.000Z</time>
      </trkpt>
      <trkpt lat="45.80605" lon="5.01942">
        <ele>174.55283</ele>
        <time>2023-07-11T07:19:25.000Z</time>
      </trkpt>
      <trkpt lat="45.80608" lon="5.01941">
        <ele>174.51244</ele>
        <time>2023-07-11T07:19:26.000Z</time>
      </trkpt>
      <trkpt lat="45.80612" lon="5.01937">
        <ele>174.47943</ele>
        <time>2023-07-11T07:19:27.000Z</time>
      </trkpt>
      <trkpt lat="45.80616" lon="5.01933">
        <ele>174.4509</ele>
        <time>2023-07-11T07:19:28.000Z</time>
      </trkpt>
      <trkpt lat="45.80619" lon="5.0193">
        <ele>174.43613</ele>
        <time>2023-07-11T07:19:29.000Z</time>
      </trkpt>
      <trkpt lat="45.80621" lon="5.01925">
        <ele>174.44231</ele>
        <time>2023-07-11T07:19:30.000Z</time>
      </trkpt>
      <trkpt lat="45.80623" lon="5.0192">
        <ele>174.4501</ele>
        <time>2023-07-11T07:19:31.000Z</time>
      </trkpt>
      <trkpt lat="45.80625" lon="5.01916">
        <ele>174.43478</ele>
        <time>2023-07-11T07:19:32.000Z</time>
      </trkpt>
      <trkpt lat="45.80627" lon="5.01911">
        <ele>174.40686</ele>
        <time>2023-07-11T07:19:33.000Z</time>
      </trkpt>
      <trkpt lat="45.80629" lon="5.01907">
        <ele>174.4248</ele>
        <time>2023-07-11T07:19:34.000Z</time>
      </trkpt>
      <trkpt lat="45.80631" lon="5.01902">
        <ele>174.40414</ele>
        <time>2023-07-11T07:19:35.000Z</time>
      </trkpt>
      <trkpt lat="45.80633" lon="5.01897">
        <ele>174.34036</ele>
        <time>2023-07-11T07:19:36.000Z</time>
      </trkpt>
      <trkpt lat="45.80635" lon="5.01891">
        <ele>174.27791</ele>
        <time>2023-07-11T07:19:37.000Z</time>
      </trkpt>
      <trkpt lat="45.80636" lon="5.01886">
        <ele>174.23965</ele>
        <time>2023-07-11T07:19:38.000Z</time>
      </trkpt>
      <trkpt lat="45.80635" lon="5.0188">
        <ele>174.2131</ele>
        <time>2023-07-11T07:19:39.000Z</time>
      </trkpt>
      <trkpt lat="45.80634" lon="5.01875">
        <ele>174.16524</ele>
        <time>2023-07-11T07:19:40.000Z</time>
      </trkpt>
      <trkpt lat="45.80633" lon="5.0187">
        <ele>174.15775</ele>
        <time>2023-07-11T07:19:41.000Z</time>
      </trkpt>
      <trkpt lat="45.80633" lon="5.01865">
        <ele>174.13156</ele>
        <time>2023-07-11T07:19:42.000Z</time>
      </trkpt>
      <trkpt lat="45.80635" lon="5.0186">
        <ele>174.14407</ele>
        <time>2023-07-11T07:19:43.000Z</time>
      </trkpt>
      <trkpt lat="45.80637" lon="5.01855">
        <ele>174.12244</ele>
        <time>2023-07-11T07:19:44.000Z</time>
      </trkpt>
      <trkpt lat="45.80638" lon="5.01851">
        <ele>174.14682</ele>
        <time>2023-07-11T07:19:45.000Z</time>
      </trkpt>
      <trkpt lat="45.80638" lon="5.01847">
        <ele>174.14796</ele>
        <time>2023-07-11T07:19:46.000Z</time>
      </trkpt>
      <trkpt lat="45.80639" lon="5.01843">
        <ele>174.12877</ele>
        <time>2023-07-11T07:19:47.000Z</time>
      </trkpt>
      <trkpt lat="45.8064" lon="5.01839">
        <ele>174.11305</ele>
        <time>2023-07-11T07:19:48.000Z</time>
      </trkpt>
      <trkpt lat="45.80642" lon="5.01835">
        <ele>174.10791</ele>
        <time>2023-07-11T07:19:49.000Z</time>
      </trkpt>
      <trkpt lat="45.80645" lon="5.01831">
        <ele>174.10913</ele>
        <time>2023-07-11T07:19:50.000Z</time>
      </trkpt>
      <trkpt lat="45.80648" lon="5.01827">
        <ele>174.10303</ele>
        <time>2023-07-11T07:19:51.000Z</time>
      </trkpt>
      <trkpt lat="45.80652" lon="5.01824">
        <ele>174.10583</ele>
        <time>2023-07-11T07:19:52.000Z</time>
      </trkpt>
      <trkpt lat="45.80655" lon="5.01821">
        <ele>174.06381</ele>
        <time>2023-07-11T07:19:53.000Z</time>
      </trkpt>
      <trkpt lat="45.80658" lon="5.01818">
        <ele>173.99937</ele>
        <time>2023-07-11T07:19:54.000Z</time>
      </trkpt>
      <trkpt lat="45.80662" lon="5.01815">
        <ele>173.88934</ele>
        <time>2023-07-11T07:19:55.000Z</time>
      </trkpt>
      <trkpt lat="45.80665" lon="5.01812">
        <ele>173.79988</ele>
        <time>2023-07-11T07:19:56.000Z</time>
      </trkpt>
      <trkpt lat="45.80669" lon="5.01806">
        <ele>173.70769</ele>
        <time>2023-07-11T07:19:57.000Z</time>
      </trkpt>
      <trkpt lat="45.80673" lon="5.01802">
        <ele>173.64084</ele>
        <time>2023-07-11T07:19:58.000Z</time>
      </trkpt>
      <trkpt lat="45.80675" lon="5.01799">
        <ele>173.55673</ele>
        <time>2023-07-11T07:19:59.000Z</time>
      </trkpt>
      <trkpt lat="45.80678" lon="5.01797">
        <ele>173.46701</ele>
        <time>2023-07-11T07:20:00.000Z</time>
      </trkpt>
      <trkpt lat="45.80681" lon="5.01795">
        <ele>173.31485</ele>
        <time>2023-07-11T07:20:01.000Z</time>
      </trkpt>
      <trkpt lat="45.80685" lon="5.01793">
        <ele>173.18639</ele>
        <time>2023-07-11T07:20:02.000Z</time>
      </trkpt>
      <trkpt lat="45.80688" lon="5.01792">
        <ele>173.04195</ele>
        <time>2023-07-11T07:20:03.000Z</time>
      </trkpt>
      <trkpt lat="45.80692" lon="5.01789">
        <ele>172.9687</ele>
        <time>2023-07-11T07:20:04.000Z</time>
      </trkpt>
      <trkpt lat="45.80696" lon="5.01787">
        <ele>172.84122</ele>
        <time>2023-07-11T07:20:05.000Z</time>
      </trkpt>
      <trkpt lat="45.80699" lon="5.01786">
        <ele>172.64496</ele>
        <time>2023-07-11T07:20:06.000Z</time>
      </trkpt>
      <trkpt lat="45.80702" lon="5.01782">
        <ele>172.46342</ele>
        <time>2023-07-11T07:20:07.000Z</time>
      </trkpt>
      <trkpt lat="45.80706" lon="5.01779">
        <ele>172.27943</ele>
        <time>2023-07-11T07:20:08.000Z</time>
      </trkpt>
      <trkpt lat="45.80709" lon="5.01775">
        <ele>172.11417</ele>
        <time>2023-07-11T07:20:09.000Z</time>
      </trkpt>
      <trkpt lat="45.80713" lon="5.01771">
        <ele>171.94911</ele>
        <time>2023-07-11T07:20:10.000Z</time>
      </trkpt>
      <trkpt lat="45.80717" lon="5.01766">
        <ele>171.8046</ele>
        <time>2023-07-11T07:20:11.000Z</time>
      </trkpt>
      <trkpt lat="45.80721" lon="5.01763">
        <ele>171.64214</ele>
        <time>2023-07-11T07:20:12.000Z</time>
      </trkpt>
      <trkpt lat="45.80723" lon="5.01761">
        <ele>171.52223</ele>
        <time>2023-07-11T07:20:13.000Z</time>
      </trkpt>
      <trkpt lat="45.80726" lon="5.01757">
        <ele>171.43021</ele>
        <time>2023-07-11T07:20:14.000Z</time>
      </trkpt>
      <trkpt lat="45.8073" lon="5.01754">
        <ele>171.42032</ele>
        <time>2023-07-11T07:20:15.000Z</time>
      </trkpt>
      <trkpt lat="45.80732" lon="5.01751">
        <ele>171.39714</ele>
        <time>2023-07-11T07:20:16.000Z</time>
      </trkpt>
      <trkpt lat="45.80735" lon="5.01748">
        <ele>171.37512</ele>
        <time>2023-07-11T07:20:17.000Z</time>
      </trkpt>
      <trkpt lat="45.8074" lon="5.01745">
        <ele>171.3158</ele>
        <time>2023-07-11T07:20:18.000Z</time>
      </trkpt>
      <trkpt lat="45.80743" lon="5.01741">
        <ele>171.2888</ele>
        <time>2023-07-11T07:20:19.000Z</time>
      </trkpt>
      <trkpt lat="45.80747" lon="5.01737">
        <ele>171.3409</ele>
        <time>2023-07-11T07:20:20.000Z</time>
      </trkpt>
      <trkpt lat="45.80752" lon="5.01736">
        <ele>171.44897</ele>
        <time>2023-07-11T07:20:21.000Z</time>
      </trkpt>
      <trkpt lat="45.80755" lon="5.01735">
        <ele>171.54379</ele>
        <time>2023-07-11T07:20:22.000Z</time>
      </trkpt>
      <trkpt lat="45.80759" lon="5.01734">
        <ele>171.65292</ele>
        <time>2023-07-11T07:20:23.000Z</time>
      </trkpt>
      <trkpt lat="45.80763" lon="5.01731">
        <ele>171.7291</ele>
        <time>2023-07-11T07:20:24.000Z</time>
      </trkpt>
      <trkpt lat="45.80766" lon="5.01728">
        <ele>171.8679</ele>
        <time>2023-07-11T07:20:25.000Z</time>
      </trkpt>
      <trkpt lat="45.80769" lon="5.01722">
        <ele>172.07681</ele>
        <time>2023-07-11T07:20:26.000Z</time>
      </trkpt>
      <trkpt lat="45.80772" lon="5.01717">
        <ele>172.24007</ele>
        <time>2023-07-11T07:20:27.000Z</time>
      </trkpt>
      <trkpt lat="45.80774" lon="5.01711">
        <ele>172.41478</ele>
        <time>2023-07-11T07:20:28.000Z</time>
      </trkpt>
      <trkpt lat="45.80776" lon="5.01707">
        <ele>172.57274</ele>
        <time>2023-07-11T07:20:29.000Z</time>
      </trkpt>
      <trkpt lat="45.80779" lon="5.01702">
        <ele>172.72678</ele>
        <time>2023-07-11T07:20:30.000Z</time>
      </trkpt>
      <trkpt lat="45.80781" lon="5.01698">
        <ele>172.87387</ele>
        <time>2023-07-11T07:20:31.000Z</time>
      </trkpt>
      <trkpt lat="45.80782" lon="5.01693">
        <ele>173.04568</ele>
        <time>2023-07-11T07:20:32.000Z</time>
      </trkpt>
      <trkpt lat="45.80784" lon="5.01688">
        <ele>173.1898</ele>
        <time>2023-07-11T07:20:33.000Z</time>
      </trkpt>
      <trkpt lat="45.80786" lon="5.01683">
        <ele>173.2735</ele>
        <time>2023-07-11T07:20:34.000Z</time>
      </trkpt>
      <trkpt lat="45.80786" lon="5.01678">
        <ele>173.36632</ele>
        <time>2023-07-11T07:20:35.000Z</time>
      </trkpt>
      <trkpt lat="45.80785" lon="5.01673">
        <ele>173.49167</ele>
        <time>2023-07-11T07:20:36.000Z</time>
      </trkpt>
      <trkpt lat="45.80784" lon="5.01668">
        <ele>173.62558</ele>
        <time>2023-07-11T07:20:37.000Z</time>
      </trkpt>
      <trkpt lat="45.80783" lon="5.01663">
        <ele>173.73911</ele>
        <time>2023-07-11T07:20:38.000Z</time>
      </trkpt>
      <trkpt lat="45.80784" lon="5.01657">
        <ele>173.80698</ele>
        <time>2023-07-11T07:20:39.000Z</time>
      </trkpt>
      <trkpt lat="45.80785" lon="5.01652">
        <ele>173.82976</ele>
        <time>2023-07-11T07:20:40.000Z</time>
      </trkpt>
      <trkpt lat="45.80787" lon="5.01649">
        <ele>173.79767</ele>
        <time>2023-07-11T07:20:41.000Z</time>
      </trkpt>
      <trkpt lat="45.80789" lon="5.01646">
        <ele>173.78687</ele>
        <time>2023-07-11T07:20:42.000Z</time>
      </trkpt>
      <trkpt lat="45.80791" lon="5.01643">
        <ele>173.76395</ele>
        <time>2023-07-11T07:20:43.000Z</time>
      </trkpt>
      <trkpt lat="45.80793" lon="5.01638">
        <ele>173.69841</ele>
        <time>2023-07-11T07:20:44.000Z</time>
      </trkpt>
      <trkpt lat="45.80796" lon="5.01635">
        <ele>173.59238</ele>
        <time>2023-07-11T07:20:45.000Z</time>
      </trkpt>
      <trkpt lat="45.80798" lon="5.0163">
        <ele>173.49425</ele>
        <time>2023-07-11T07:20:46.000Z</time>
      </trkpt>
      <trkpt lat="45.80799" lon="5.01625">
        <ele>173.42662</ele>
        <time>2023-07-11T07:20:47.000Z</time>
      </trkpt>
      <trkpt lat="45.808" lon="5.0162">
        <ele>173.36314</ele>
        <time>2023-07-11T07:20:48.000Z</time>
      </trkpt>
      <trkpt lat="45.80801" lon="5.01615">
        <ele>173.2933</ele>
        <time>2023-07-11T07:20:49.000Z</time>
      </trkpt>
      <trkpt lat="45.80802" lon="5.01609">
        <ele>173.22139</ele>
        <time>2023-07-11T07:20:50.000Z</time>
      </trkpt>
      <trkpt lat="45.80804" lon="5.01605">
        <ele>173.15134</ele>
        <time>2023-07-11T07:20:51.000Z</time>
      </trkpt>
      <trkpt lat="45.80806" lon="5.01602">
        <ele>173.0585</ele>
        <time>2023-07-11T07:20:52.000Z</time>
      </trkpt>
      <trkpt lat="45.80808" lon="5.01596">
        <ele>172.97687</ele>
        <time>2023-07-11T07:20:53.000Z</time>
      </trkpt>
      <trkpt lat="45.80809" lon="5.01591">
        <ele>172.95575</ele>
        <time>2023-07-11T07:20:54.000Z</time>
      </trkpt>
      <trkpt lat="45.80811" lon="5.01584">
        <ele>172.91171</ele>
        <time>2023-07-11T07:20:55.000Z</time>
      </trkpt>
      <trkpt lat="45.80811" lon="5.01579">
        <ele>172.86118</ele>
        <time>2023-07-11T07:20:56.000Z</time>
      </trkpt>
      <trkpt lat="45.80814" lon="5.01574">
        <ele>172.81139</ele>
        <time>2023-07-11T07:20:57.000Z</time>
      </trkpt>
      <trkpt lat="45.80815" lon="5.01567">
        <ele>172.81688</ele>
        <time>2023-07-11T07:20:58.000Z</time>
      </trkpt>
      <trkpt lat="45.80815" lon="5.01561">
        <ele>172.87292</ele>
        <time>2023-07-11T07:20:59.000Z</time>
      </trkpt>
      <trkpt lat="45.80817" lon="5.01555">
        <ele>172.91246</ele>
        <time>2023-07-11T07:21:00.000Z</time>
      </trkpt>
      <trkpt lat="45.80819" lon="5.01551">
        <ele>172.96832</ele>
        <time>2023-07-11T07:21:01.000Z</time>
      </trkpt>
      <trkpt lat="45.80821" lon="5.01547">
        <ele>172.98199</ele>
        <time>2023-07-11T07:21:02.000Z</time>
      </trkpt>
      <trkpt lat="45.80822" lon="5.0154">
        <ele>172.98169</ele>
        <time>2023-07-11T07:21:03.000Z</time>
      </trkpt>
      <trkpt lat="45.80823" lon="5.01535">
        <ele>173.02795</ele>
        <time>2023-07-11T07:21:04.000Z</time>
      </trkpt>
      <trkpt lat="45.80824" lon="5.0153">
        <ele>173.06845</ele>
        <time>2023-07-11T07:21:05.000Z</time>
      </trkpt>
      <trkpt lat="45.80826" lon="5.01525">
        <ele>173.14938</ele>
        <time>2023-07-11T07:21:06.000Z</time>
      </trkpt>
      <trkpt lat="45.80826" lon="5.0152">
        <ele>173.23611</ele>
        <time>2023-07-11T07:21:07.000Z</time>
      </trkpt>
      <trkpt lat="45.80826" lon="5.01515">
        <ele>173.3333</ele>
        <time>2023-07-11T07:21:08.000Z</time>
      </trkpt>
      <trkpt lat="45.80826" lon="5.01509">
        <ele>173.45618</ele>
        <time>2023-07-11T07:21:09.000Z</time>
      </trkpt>
      <trkpt lat="45.80826" lon="5.01503">
        <ele>173.57443</ele>
        <time>2023-07-11T07:21:10.000Z</time>
      </trkpt>
      <trkpt lat="45.80827" lon="5.01497">
        <ele>173.68863</ele>
        <time>2023-07-11T07:21:11.000Z</time>
      </trkpt>
      <trkpt lat="45.80828" lon="5.01491">
        <ele>173.86462</ele>
        <time>2023-07-11T07:21:12.000Z</time>
      </trkpt>
      <trkpt lat="45.80829" lon="5.01485">
        <ele>174.0412</ele>
        <time>2023-07-11T07:21:13.000Z</time>
      </trkpt>
      <trkpt lat="45.80829" lon="5.0148">
        <ele>174.19353</ele>
        <time>2023-07-11T07:21:14.000Z</time>
      </trkpt>
      <trkpt lat="45.8083" lon="5.01475">
        <ele>174.37936</ele>
        <time>2023-07-11T07:21:15.000Z</time>
      </trkpt>
      <trkpt lat="45.80831" lon="5.01469">
        <ele>174.54846</ele>
        <time>2023-07-11T07:21:16.000Z</time>
      </trkpt>
      <trkpt lat="45.80832" lon="5.01463">
        <ele>174.69058</ele>
        <time>2023-07-11T07:21:17.000Z</time>
      </trkpt>
      <trkpt lat="45.80832" lon="5.01454">
        <ele>174.78992</ele>
        <time>2023-07-11T07:21:18.000Z</time>
      </trkpt>
      <trkpt lat="45.80834" lon="5.0145">
        <ele>174.86401</ele>
        <time>2023-07-11T07:21:19.000Z</time>
      </trkpt>
      <trkpt lat="45.80835" lon="5.01444">
        <ele>174.95796</ele>
        <time>2023-07-11T07:21:20.000Z</time>
      </trkpt>
      <trkpt lat="45.80838" lon="5.01437">
        <ele>175.02597</ele>
        <time>2023-07-11T07:21:21.000Z</time>
      </trkpt>
      <trkpt lat="45.80841" lon="5.01432">
        <ele>175.1481</ele>
        <time>2023-07-11T07:21:22.000Z</time>
      </trkpt>
      <trkpt lat="45.80842" lon="5.01426">
        <ele>175.26053</ele>
        <time>2023-07-11T07:21:23.000Z</time>
      </trkpt>
      <trkpt lat="45.80841" lon="5.0142">
        <ele>175.53825</ele>
        <time>2023-07-11T07:21:24.000Z</time>
      </trkpt>
      <trkpt lat="45.80842" lon="5.01414">
        <ele>175.84764</ele>
        <time>2023-07-11T07:21:25.000Z</time>
      </trkpt>
      <trkpt lat="45.80843" lon="5.0141">
        <ele>176.16922</ele>
        <time>2023-07-11T07:21:26.000Z</time>
      </trkpt>
      <trkpt lat="45.80844" lon="5.01402">
        <ele>176.46532</ele>
        <time>2023-07-11T07:21:27.000Z</time>
      </trkpt>
      <trkpt lat="45.80845" lon="5.01397">
        <ele>176.74039</ele>
        <time>2023-07-11T07:21:28.000Z</time>
      </trkpt>
      <trkpt lat="45.80846" lon="5.01392">
        <ele>177.00266</ele>
        <time>2023-07-11T07:21:29.000Z</time>
      </trkpt>
      <trkpt lat="45.80846" lon="5.01388">
        <ele>177.28482</ele>
        <time>2023-07-11T07:21:30.000Z</time>
      </trkpt>
      <trkpt lat="45.80848" lon="5.01383">
        <ele>177.52113</ele>
        <time>2023-07-11T07:21:31.000Z</time>
      </trkpt>
      <trkpt lat="45.8085" lon="5.01377">
        <ele>177.68117</ele>
        <time>2023-07-11T07:21:32.000Z</time>
      </trkpt>
      <trkpt lat="45.80851" lon="5.01369">
        <ele>177.85246</ele>
        <time>2023-07-11T07:21:33.000Z</time>
      </trkpt>
      <trkpt lat="45.8085" lon="5.01363">
        <ele>178.03964</ele>
        <time>2023-07-11T07:21:34.000Z</time>
      </trkpt>
      <trkpt lat="45.80853" lon="5.01357">
        <ele>178.20157</ele>
        <time>2023-07-11T07:21:35.000Z</time>
      </trkpt>
      <trkpt lat="45.80853" lon="5.01351">
        <ele>178.33383</ele>
        <time>2023-07-11T07:21:36.000Z</time>
      </trkpt>
      <trkpt lat="45.80854" lon="5.01344">
        <ele>178.47177</ele>
        <time>2023-07-11T07:21:37.000Z</time>
      </trkpt>
      <trkpt lat="45.80855" lon="5.01339">
        <ele>178.5952</ele>
        <time>2023-07-11T07:21:38.000Z</time>
      </trkpt>
      <trkpt lat="45.80856" lon="5.01332">
        <ele>178.6537</ele>
        <time>2023-07-11T07:21:39.000Z</time>
      </trkpt>
      <trkpt lat="45.80854" lon="5.01325">
        <ele>178.63672</ele>
        <time>2023-07-11T07:21:40.000Z</time>
      </trkpt>
      <trkpt lat="45.80855" lon="5.01319">
        <ele>178.69066</ele>
        <time>2023-07-11T07:21:41.000Z</time>
      </trkpt>
      <trkpt lat="45.80857" lon="5.01314">
        <ele>178.69788</ele>
        <time>2023-07-11T07:21:42.000Z</time>
      </trkpt>
      <trkpt lat="45.80858" lon="5.01309">
        <ele>178.72525</ele>
        <time>2023-07-11T07:21:43.000Z</time>
      </trkpt>
      <trkpt lat="45.8086" lon="5.01305">
        <ele>178.54843</ele>
        <time>2023-07-11T07:21:44.000Z</time>
      </trkpt>
      <trkpt lat="45.80862" lon="5.01301">
        <ele>178.33063</ele>
        <time>2023-07-11T07:21:45.000Z</time>
      </trkpt>
      <trkpt lat="45.80863" lon="5.01297">
        <ele>178.06703</ele>
        <time>2023-07-11T07:21:46.000Z</time>
      </trkpt>
      <trkpt lat="45.8086" lon="5.01288">
        <ele>177.74495</ele>
        <time>2023-07-11T07:21:47.000Z</time>
      </trkpt>
      <trkpt lat="45.80859" lon="5.01283">
        <ele>177.43501</ele>
        <time>2023-07-11T07:21:48.000Z</time>
      </trkpt>
      <trkpt lat="45.8086" lon="5.01273">
        <ele>177.134</ele>
        <time>2023-07-11T07:21:49.000Z</time>
      </trkpt>
      <trkpt lat="45.80859" lon="5.01267">
        <ele>176.86095</ele>
        <time>2023-07-11T07:21:50.000Z</time>
      </trkpt>
      <trkpt lat="45.80858" lon="5.0126">
        <ele>176.65395</ele>
        <time>2023-07-11T07:21:51.000Z</time>
      </trkpt>
      <trkpt lat="45.80858" lon="5.01255">
        <ele>176.47891</ele>
        <time>2023-07-11T07:21:52.000Z</time>
      </trkpt>
      <trkpt lat="45.80857" lon="5.01248">
        <ele>176.28465</ele>
        <time>2023-07-11T07:21:53.000Z</time>
      </trkpt>
      <trkpt lat="45.80857" lon="5.01241">
        <ele>176.03482</ele>
        <time>2023-07-11T07:21:54.000Z</time>
      </trkpt>
      <trkpt lat="45.80857" lon="5.01236">
        <ele>175.76512</ele>
        <time>2023-07-11T07:21:55.000Z</time>
      </trkpt>
      <trkpt lat="45.80857" lon="5.01229">
        <ele>175.48259</ele>
        <time>2023-07-11T07:21:56.000Z</time>
      </trkpt>
      <trkpt lat="45.80857" lon="5.01222">
        <ele>175.2327</ele>
        <time>2023-07-11T07:21:57.000Z</time>
      </trkpt>
      <trkpt lat="45.80858" lon="5.01217">
        <ele>174.94394</ele>
        <time>2023-07-11T07:21:58.000Z</time>
      </trkpt>
      <trkpt lat="45.80859" lon="5.01211">
        <ele>174.72704</ele>
        <time>2023-07-11T07:21:59.000Z</time>
      </trkpt>
      <trkpt lat="45.8086" lon="5.01205">
        <ele>174.55399</ele>
        <time>2023-07-11T07:22:00.000Z</time>
      </trkpt>
      <trkpt lat="45.8086" lon="5.01199">
        <ele>174.30367</ele>
        <time>2023-07-11T07:22:01.000Z</time>
      </trkpt>
      <trkpt lat="45.80859" lon="5.01192">
        <ele>174.0714</ele>
        <time>2023-07-11T07:22:02.000Z</time>
      </trkpt>
      <trkpt lat="45.80859" lon="5.01185">
        <ele>173.8327</ele>
        <time>2023-07-11T07:22:03.000Z</time>
      </trkpt>
      <trkpt lat="45.80858" lon="5.01178">
        <ele>173.74069</ele>
        <time>2023-07-11T07:22:04.000Z</time>
      </trkpt>
      <trkpt lat="45.80858" lon="5.01172">
        <ele>173.6579</ele>
        <time>2023-07-11T07:22:05.000Z</time>
      </trkpt>
      <trkpt lat="45.80858" lon="5.01165">
        <ele>173.62695</ele>
        <time>2023-07-11T07:22:06.000Z</time>
      </trkpt>
      <trkpt lat="45.80857" lon="5.01158">
        <ele>173.66362</ele>
        <time>2023-07-11T07:22:07.000Z</time>
      </trkpt>
      <trkpt lat="45.80855" lon="5.01148">
        <ele>173.70963</ele>
        <time>2023-07-11T07:22:08.000Z</time>
      </trkpt>
      <trkpt lat="45.80854" lon="5.0114">
        <ele>173.76599</ele>
        <time>2023-07-11T07:22:09.000Z</time>
      </trkpt>
      <trkpt lat="45.80853" lon="5.01135">
        <ele>173.75807</ele>
        <time>2023-07-11T07:22:10.000Z</time>
      </trkpt>
      <trkpt lat="45.80852" lon="5.01129">
        <ele>173.71921</ele>
        <time>2023-07-11T07:22:11.000Z</time>
      </trkpt>
      <trkpt lat="45.8085" lon="5.01123">
        <ele>173.67564</ele>
        <time>2023-07-11T07:22:12.000Z</time>
      </trkpt>
      <trkpt lat="45.80849" lon="5.01117">
        <ele>173.63907</ele>
        <time>2023-07-11T07:22:13.000Z</time>
      </trkpt>
      <trkpt lat="45.80847" lon="5.01112">
        <ele>173.6772</ele>
        <time>2023-07-11T07:22:14.000Z</time>
      </trkpt>
      <trkpt lat="45.80846" lon="5.01107">
        <ele>173.74419</ele>
        <time>2023-07-11T07:22:15.000Z</time>
      </trkpt>
      <trkpt lat="45.80844" lon="5.01102">
        <ele>173.90598</ele>
        <time>2023-07-11T07:22:16.000Z</time>
      </trkpt>
      <trkpt lat="45.80841" lon="5.01095">
        <ele>174.10501</ele>
        <time>2023-07-11T07:22:17.000Z</time>
      </trkpt>
      <trkpt lat="45.8084" lon="5.01088">
        <ele>174.35876</ele>
        <time>2023-07-11T07:22:18.000Z</time>
      </trkpt>
      <trkpt lat="45.80838" lon="5.01083">
        <ele>174.57632</ele>
        <time>2023-07-11T07:22:19.000Z</time>
      </trkpt>
      <trkpt lat="45.80838" lon="5.01077">
        <ele>174.81412</ele>
        <time>2023-07-11T07:22:20.000Z</time>
      </trkpt>
      <trkpt lat="45.80836" lon="5.01072">
        <ele>175.09436</ele>
        <time>2023-07-11T07:22:21.000Z</time>
      </trkpt>
      <trkpt lat="45.80835" lon="5.01065">
        <ele>175.30789</ele>
        <time>2023-07-11T07:22:22.000Z</time>
      </trkpt>
      <trkpt lat="45.80834" lon="5.01059">
        <ele>175.48135</ele>
        <time>2023-07-11T07:22:23.000Z</time>
      </trkpt>
      <trkpt lat="45.80834" lon="5.01055">
        <ele>175.56967</ele>
        <time>2023-07-11T07:22:24.000Z</time>
      </trkpt>
      <trkpt lat="45.80833" lon="5.01047">
        <ele>175.69456</ele>
        <time>2023-07-11T07:22:25.000Z</time>
      </trkpt>
      <trkpt lat="45.80833" lon="5.01042">
        <ele>175.74541</ele>
        <time>2023-07-11T07:22:26.000Z</time>
      </trkpt>
      <trkpt lat="45.80831" lon="5.01038">
        <ele>175.78458</ele>
        <time>2023-07-11T07:22:27.000Z</time>
      </trkpt>
      <trkpt lat="45.80826" lon="5.01035">
        <ele>175.89548</ele>
        <time>2023-07-11T07:22:28.000Z</time>
      </trkpt>
      <trkpt lat="45.80825" lon="5.01031">
        <ele>175.95436</ele>
        <time>2023-07-11T07:22:29.000Z</time>
      </trkpt>
      <trkpt lat="45.80825" lon="5.01026">
        <ele>175.99986</ele>
        <time>2023-07-11T07:22:30.000Z</time>
      </trkpt>
      <trkpt lat="45.80823" lon="5.0102">
        <ele>176.09857</ele>
        <time>2023-07-11T07:22:31.000Z</time>
      </trkpt>
      <trkpt lat="45.80822" lon="5.01016">
        <ele>176.16367</ele>
        <time>2023-07-11T07:22:32.000Z</time>
      </trkpt>
      <trkpt lat="45.80821" lon="5.01011">
        <ele>176.20885</ele>
        <time>2023-07-11T07:22:33.000Z</time>
      </trkpt>
      <trkpt lat="45.80818" lon="5.01006">
        <ele>176.22278</ele>
        <time>2023-07-11T07:22:34.000Z</time>
      </trkpt>
      <trkpt lat="45.80816" lon="5.01002">
        <ele>176.20459</ele>
        <time>2023-07-11T07:22:35.000Z</time>
      </trkpt>
      <trkpt lat="45.80814" lon="5.00998">
        <ele>176.09729</ele>
        <time>2023-07-11T07:22:36.000Z</time>
      </trkpt>
      <trkpt lat="45.80813" lon="5.00993">
        <ele>175.91231</ele>
        <time>2023-07-11T07:22:37.000Z</time>
      </trkpt>
      <trkpt lat="45.80811" lon="5.00989">
        <ele>175.74687</ele>
        <time>2023-07-11T07:22:38.000Z</time>
      </trkpt>
      <trkpt lat="45.8081" lon="5.00984">
        <ele>175.56953</ele>
        <time>2023-07-11T07:22:39.000Z</time>
      </trkpt>
      <trkpt lat="45.80809" lon="5.00979">
        <ele>175.42146</ele>
        <time>2023-07-11T07:22:40.000Z</time>
      </trkpt>
      <trkpt lat="45.80807" lon="5.00976">
        <ele>175.28514</ele>
        <time>2023-07-11T07:22:41.000Z</time>
      </trkpt>
      <trkpt lat="45.80806" lon="5.00972">
        <ele>175.21317</ele>
        <time>2023-07-11T07:22:42.000Z</time>
      </trkpt>
      <trkpt lat="45.80806" lon="5.00968">
        <ele>175.20699</ele>
        <time>2023-07-11T07:22:43.000Z</time>
      </trkpt>
      <trkpt lat="45.80807" lon="5.00963">
        <ele>175.18604</ele>
        <time>2023-07-11T07:22:44.000Z</time>
      </trkpt>
      <trkpt lat="45.80807" lon="5.00957">
        <ele>175.10107</ele>
        <time>2023-07-11T07:22:45.000Z</time>
      </trkpt>
      <trkpt lat="45.80805" lon="5.00952">
        <ele>175.03766</ele>
        <time>2023-07-11T07:22:46.000Z</time>
      </trkpt>
      <trkpt lat="45.80802" lon="5.00949">
        <ele>174.9971</ele>
        <time>2023-07-11T07:22:47.000Z</time>
      </trkpt>
      <trkpt lat="45.80799" lon="5.00946">
        <ele>174.86319</ele>
        <time>2023-07-11T07:22:48.000Z</time>
      </trkpt>
      <trkpt lat="45.80798" lon="5.00943">
        <ele>174.72458</ele>
        <time>2023-07-11T07:22:49.000Z</time>
      </trkpt>
      <trkpt lat="45.80797" lon="5.00938">
        <ele>174.62877</ele>
        <time>2023-07-11T07:22:50.000Z</time>
      </trkpt>
      <trkpt lat="45.80798" lon="5.00934">
        <ele>174.47301</ele>
        <time>2023-07-11T07:22:51.000Z</time>
      </trkpt>
      <trkpt lat="45.80799" lon="5.0093">
        <ele>174.35258</ele>
        <time>2023-07-11T07:22:52.000Z</time>
      </trkpt>
      <trkpt lat="45.808" lon="5.00926">
        <ele>174.21115</ele>
        <time>2023-07-11T07:22:53.000Z</time>
      </trkpt>
      <trkpt lat="45.80801" lon="5.00922">
        <ele>174.07951</ele>
        <time>2023-07-11T07:22:54.000Z</time>
      </trkpt>
      <trkpt lat="45.80802" lon="5.00917">
        <ele>173.9856</ele>
        <time>2023-07-11T07:22:55.000Z</time>
      </trkpt>
      <trkpt lat="45.80802" lon="5.00913">
        <ele>173.96194</ele>
        <time>2023-07-11T07:22:56.000Z</time>
      </trkpt>
      <trkpt lat="45.80803" lon="5.00909">
        <ele>173.95529</ele>
        <time>2023-07-11T07:22:57.000Z</time>
      </trkpt>
      <trkpt lat="45.80804" lon="5.00905">
        <ele>173.95543</ele>
        <time>2023-07-11T07:22:58.000Z</time>
      </trkpt>
      <trkpt lat="45.80805" lon="5.009">
        <ele>173.92685</ele>
        <time>2023-07-11T07:22:59.000Z</time>
      </trkpt>
      <trkpt lat="45.80807" lon="5.00895">
        <ele>173.86276</ele>
        <time>2023-07-11T07:23:00.000Z</time>
      </trkpt>
      <trkpt lat="45.80809" lon="5.00891">
        <ele>173.8112</ele>
        <time>2023-07-11T07:23:01.000Z</time>
      </trkpt>
      <trkpt lat="45.80811" lon="5.00887">
        <ele>173.7773</ele>
        <time>2023-07-11T07:23:02.000Z</time>
      </trkpt>
      <trkpt lat="45.80814" lon="5.00883">
        <ele>173.71611</ele>
        <time>2023-07-11T07:23:03.000Z</time>
      </trkpt>
      <trkpt lat="45.80816" lon="5.00879">
        <ele>173.6667</ele>
        <time>2023-07-11T07:23:04.000Z</time>
      </trkpt>
      <trkpt lat="45.80818" lon="5.00875">
        <ele>173.66161</ele>
        <time>2023-07-11T07:23:05.000Z</time>
      </trkpt>
      <trkpt lat="45.8082" lon="5.00871">
        <ele>173.64011</ele>
        <time>2023-07-11T07:23:06.000Z</time>
      </trkpt>
      <trkpt lat="45.80821" lon="5.00865">
        <ele>173.60251</ele>
        <time>2023-07-11T07:23:07.000Z</time>
      </trkpt>
      <trkpt lat="45.80822" lon="5.0086">
        <ele>173.57709</ele>
        <time>2023-07-11T07:23:08.000Z</time>
      </trkpt>
      <trkpt lat="45.80822" lon="5.00854">
        <ele>173.56609</ele>
        <time>2023-07-11T07:23:09.000Z</time>
      </trkpt>
      <trkpt lat="45.80823" lon="5.00848">
        <ele>173.55135</ele>
        <time>2023-07-11T07:23:10.000Z</time>
      </trkpt>
      <trkpt lat="45.80824" lon="5.00843">
        <ele>173.55875</ele>
        <time>2023-07-11T07:23:11.000Z</time>
      </trkpt>
      <trkpt lat="45.80825" lon="5.00838">
        <ele>173.49622</ele>
        <time>2023-07-11T07:23:12.000Z</time>
      </trkpt>
      <trkpt lat="45.80828" lon="5.00835">
        <ele>173.48325</ele>
        <time>2023-07-11T07:23:13.000Z</time>
      </trkpt>
      <trkpt lat="45.8083" lon="5.00833">
        <ele>173.47116</ele>
        <time>2023-07-11T07:23:14.000Z</time>
      </trkpt>
      <trkpt lat="45.80832" lon="5.0083">
        <ele>173.39906</ele>
        <time>2023-07-11T07:23:15.000Z</time>
      </trkpt>
      <trkpt lat="45.80834" lon="5.00826">
        <ele>173.27576</ele>
        <time>2023-07-11T07:23:16.000Z</time>
      </trkpt>
      <trkpt lat="45.80835" lon="5.00822">
        <ele>173.1591</ele>
        <time>2023-07-11T07:23:17.000Z</time>
      </trkpt>
      <trkpt lat="45.80837" lon="5.00817">
        <ele>173.02087</ele>
        <time>2023-07-11T07:23:18.000Z</time>
      </trkpt>
      <trkpt lat="45.80838" lon="5.00813">
        <ele>172.69954</ele>
        <time>2023-07-11T07:23:19.000Z</time>
      </trkpt>
      <trkpt lat="45.8084" lon="5.0081">
        <ele>172.31433</ele>
        <time>2023-07-11T07:23:20.000Z</time>
      </trkpt>
      <trkpt lat="45.80843" lon="5.00803">
        <ele>171.96451</ele>
        <time>2023-07-11T07:23:21.000Z</time>
      </trkpt>
      <trkpt lat="45.80845" lon="5.00798">
        <ele>171.6364</ele>
        <time>2023-07-11T07:23:22.000Z</time>
      </trkpt>
      <trkpt lat="45.80847" lon="5.00793">
        <ele>171.32013</ele>
        <time>2023-07-11T07:23:23.000Z</time>
      </trkpt>
      <trkpt lat="45.80848" lon="5.00789">
        <ele>171.02457</ele>
        <time>2023-07-11T07:23:24.000Z</time>
      </trkpt>
      <trkpt lat="45.80849" lon="5.00782">
        <ele>170.7502</ele>
        <time>2023-07-11T07:23:25.000Z</time>
      </trkpt>
      <trkpt lat="45.8085" lon="5.00777">
        <ele>170.50403</ele>
        <time>2023-07-11T07:23:26.000Z</time>
      </trkpt>
      <trkpt lat="45.80846" lon="5.00772">
        <ele>170.34747</ele>
        <time>2023-07-11T07:23:27.000Z</time>
      </trkpt>
      <trkpt lat="45.80845" lon="5.00765">
        <ele>170.17236</ele>
        <time>2023-07-11T07:23:28.000Z</time>
      </trkpt>
      <trkpt lat="45.80844" lon="5.0076">
        <ele>170.01988</ele>
        <time>2023-07-11T07:23:29.000Z</time>
      </trkpt>
      <trkpt lat="45.80844" lon="5.00754">
        <ele>169.87805</ele>
        <time>2023-07-11T07:23:30.000Z</time>
      </trkpt>
      <trkpt lat="45.80844" lon="5.00748">
        <ele>169.77188</ele>
        <time>2023-07-11T07:23:31.000Z</time>
      </trkpt>
      <trkpt lat="45.80846" lon="5.00744">
        <ele>169.67351</ele>
        <time>2023-07-11T07:23:32.000Z</time>
      </trkpt>
      <trkpt lat="45.80848" lon="5.0074">
        <ele>169.56287</ele>
        <time>2023-07-11T07:23:33.000Z</time>
      </trkpt>
      <trkpt lat="45.80851" lon="5.00737">
        <ele>169.43744</ele>
        <time>2023-07-11T07:23:34.000Z</time>
      </trkpt>
      <trkpt lat="45.80853" lon="5.00734">
        <ele>169.39789</ele>
        <time>2023-07-11T07:23:35.000Z</time>
      </trkpt>
      <trkpt lat="45.80856" lon="5.00731">
        <ele>169.38583</ele>
        <time>2023-07-11T07:23:36.000Z</time>
      </trkpt>
      <trkpt lat="45.80858" lon="5.00729">
        <ele>169.36848</ele>
        <time>2023-07-11T07:23:37.000Z</time>
      </trkpt>
      <trkpt lat="45.8086" lon="5.00725">
        <ele>169.38841</ele>
        <time>2023-07-11T07:23:38.000Z</time>
      </trkpt>
      <trkpt lat="45.80862" lon="5.0072">
        <ele>169.61151</ele>
        <time>2023-07-11T07:23:39.000Z</time>
      </trkpt>
      <trkpt lat="45.80863" lon="5.00714">
        <ele>169.95987</ele>
        <time>2023-07-11T07:23:40.000Z</time>
      </trkpt>
      <trkpt lat="45.80863" lon="5.00709">
        <ele>170.26559</ele>
        <time>2023-07-11T07:23:41.000Z</time>
      </trkpt>
      <trkpt lat="45.80864" lon="5.00705">
        <ele>170.58955</ele>
        <time>2023-07-11T07:23:42.000Z</time>
      </trkpt>
      <trkpt lat="45.80864" lon="5.00702">
        <ele>170.92337</ele>
        <time>2023-07-11T07:23:43.000Z</time>
      </trkpt>
      <trkpt lat="45.80865" lon="5.007">
        <ele>171.23921</ele>
        <time>2023-07-11T07:23:44.000Z</time>
      </trkpt>
      <trkpt lat="45.80868" lon="5.00699">
        <ele>171.53239</ele>
        <time>2023-07-11T07:23:46.000Z</time>
      </trkpt>
      <trkpt lat="45.80871" lon="5.007">
        <ele>171.87479</ele>
        <time>2023-07-11T07:23:47.000Z</time>
      </trkpt>
      <trkpt lat="45.80874" lon="5.00701">
        <ele>172.09879</ele>
        <time>2023-07-11T07:23:48.000Z</time>
      </trkpt>
      <trkpt lat="45.80878" lon="5.00702">
        <ele>172.33456</ele>
        <time>2023-07-11T07:23:49.000Z</time>
      </trkpt>
      <trkpt lat="45.80881" lon="5.00702">
        <ele>172.52208</ele>
        <time>2023-07-11T07:23:50.000Z</time>
      </trkpt>
      <trkpt lat="45.80884" lon="5.00702">
        <ele>172.65489</ele>
        <time>2023-07-11T07:23:51.000Z</time>
      </trkpt>
      <trkpt lat="45.80887" lon="5.00703">
        <ele>172.75974</ele>
        <time>2023-07-11T07:23:52.000Z</time>
      </trkpt>
      <trkpt lat="45.8089" lon="5.00704">
        <ele>172.93774</ele>
        <time>2023-07-11T07:23:53.000Z</time>
      </trkpt>
      <trkpt lat="45.80893" lon="5.00705">
        <ele>173.1319</ele>
        <time>2023-07-11T07:23:54.000Z</time>
      </trkpt>
      <trkpt lat="45.80896" lon="5.00705">
        <ele>173.34238</ele>
        <time>2023-07-11T07:23:55.000Z</time>
      </trkpt>
      <trkpt lat="45.80899" lon="5.00707">
        <ele>173.50444</ele>
        <time>2023-07-11T07:23:56.000Z</time>
      </trkpt>
      <trkpt lat="45.80902" lon="5.00709">
        <ele>173.6573</ele>
        <time>2023-07-11T07:23:57.000Z</time>
      </trkpt>
      <trkpt lat="45.80904" lon="5.00712">
        <ele>173.84398</ele>
        <time>2023-07-11T07:23:58.000Z</time>
      </trkpt>
      <trkpt lat="45.80906" lon="5.00714">
        <ele>174.04401</ele>
        <time>2023-07-11T07:23:59.000Z</time>
      </trkpt>
      <trkpt lat="45.80907" lon="5.00718">
        <ele>174.2805</ele>
        <time>2023-07-11T07:24:01.000Z</time>
      </trkpt>
      <trkpt lat="45.80908" lon="5.0072">
        <ele>174.47885</ele>
        <time>2023-07-11T07:24:02.000Z</time>
      </trkpt>
      <trkpt lat="45.80909" lon="5.00723">
        <ele>174.69456</ele>
        <time>2023-07-11T07:24:03.000Z</time>
      </trkpt>
      <trkpt lat="45.8091" lon="5.00726">
        <ele>174.85451</ele>
        <time>2023-07-11T07:24:04.000Z</time>
      </trkpt>
      <trkpt lat="45.80911" lon="5.00728">
        <ele>175.01999</ele>
        <time>2023-07-11T07:24:05.000Z</time>
      </trkpt>
      <trkpt lat="45.80914" lon="5.00729">
        <ele>175.17184</ele>
        <time>2023-07-11T07:24:06.000Z</time>
      </trkpt>
      <trkpt lat="45.80916" lon="5.00729">
        <ele>175.33098</ele>
        <time>2023-07-11T07:24:07.000Z</time>
      </trkpt>
      <trkpt lat="45.80917" lon="5.00724">
        <ele>175.4505</ele>
        <time>2023-07-11T07:24:09.000Z</time>
      </trkpt>
      <trkpt lat="45.80918" lon="5.0072">
        <ele>175.59836</ele>
        <time>2023-07-11T07:24:10.000Z</time>
      </trkpt>
      <trkpt lat="45.80918" lon="5.00715">
        <ele>175.74033</ele>
        <time>2023-07-11T07:24:11.000Z</time>
      </trkpt>
      <trkpt lat="45.80919" lon="5.00711">
        <ele>175.88873</ele>
        <time>2023-07-11T07:24:12.000Z</time>
      </trkpt>
      <trkpt lat="45.80919" lon="5.00707">
        <ele>176.06503</ele>
        <time>2023-07-11T07:24:13.000Z</time>
      </trkpt>
      <trkpt lat="45.8092" lon="5.00702">
        <ele>176.23509</ele>
        <time>2023-07-11T07:24:14.000Z</time>
      </trkpt>
      <trkpt lat="45.8092" lon="5.00697">
        <ele>176.40067</ele>
        <time>2023-07-11T07:24:15.000Z</time>
      </trkpt>
      <trkpt lat="45.80921" lon="5.00693">
        <ele>176.5497</ele>
        <time>2023-07-11T07:24:16.000Z</time>
      </trkpt>
      <trkpt lat="45.80922" lon="5.00688">
        <ele>176.68716</ele>
        <time>2023-07-11T07:24:17.000Z</time>
      </trkpt>
      <trkpt lat="45.80924" lon="5.00684">
        <ele>176.85274</ele>
        <time>2023-07-11T07:24:18.000Z</time>
      </trkpt>
      <trkpt lat="45.80925" lon="5.00679">
        <ele>176.99574</ele>
        <time>2023-07-11T07:24:19.000Z</time>
      </trkpt>
      <trkpt lat="45.80927" lon="5.00674">
        <ele>177.12521</ele>
        <time>2023-07-11T07:24:20.000Z</time>
      </trkpt>
      <trkpt lat="45.80928" lon="5.00668">
        <ele>177.18993</ele>
        <time>2023-07-11T07:24:21.000Z</time>
      </trkpt>
      <trkpt lat="45.80928" lon="5.00663">
        <ele>177.24483</ele>
        <time>2023-07-11T07:24:22.000Z</time>
      </trkpt>
      <trkpt lat="45.80929" lon="5.00658">
        <ele>177.29639</ele>
        <time>2023-07-11T07:24:23.000Z</time>
      </trkpt>
      <trkpt lat="45.80929" lon="5.00653">
        <ele>177.3233</ele>
        <time>2023-07-11T07:24:24.000Z</time>
      </trkpt>
      <trkpt lat="45.8093" lon="5.00647">
        <ele>177.36766</ele>
        <time>2023-07-11T07:24:25.000Z</time>
      </trkpt>
      <trkpt lat="45.8093" lon="5.00642">
        <ele>177.37059</ele>
        <time>2023-07-11T07:24:26.000Z</time>
      </trkpt>
      <trkpt lat="45.80931" lon="5.00636">
        <ele>177.37563</ele>
        <time>2023-07-11T07:24:27.000Z</time>
      </trkpt>
      <trkpt lat="45.80932" lon="5.0063">
        <ele>177.36496</ele>
        <time>2023-07-11T07:24:28.000Z</time>
      </trkpt>
      <trkpt lat="45.80934" lon="5.00624">
        <ele>177.34404</ele>
        <time>2023-07-11T07:24:29.000Z</time>
      </trkpt>
      <trkpt lat="45.80935" lon="5.00618">
        <ele>177.32806</ele>
        <time>2023-07-11T07:24:30.000Z</time>
      </trkpt>
      <trkpt lat="45.80936" lon="5.00612">
        <ele>177.30087</ele>
        <time>2023-07-11T07:24:31.000Z</time>
      </trkpt>
      <trkpt lat="45.80937" lon="5.00606">
        <ele>177.3324</ele>
        <time>2023-07-11T07:24:32.000Z</time>
      </trkpt>
      <trkpt lat="45.80938" lon="5.006">
        <ele>177.38037</ele>
        <time>2023-07-11T07:24:33.000Z</time>
      </trkpt>
      <trkpt lat="45.8094" lon="5.00592">
        <ele>177.45979</ele>
        <time>2023-07-11T07:24:34.000Z</time>
      </trkpt>
      <trkpt lat="45.80941" lon="5.00587">
        <ele>177.51396</ele>
        <time>2023-07-11T07:24:35.000Z</time>
      </trkpt>
      <trkpt lat="45.80943" lon="5.0058">
        <ele>177.56998</ele>
        <time>2023-07-11T07:24:36.000Z</time>
      </trkpt>
      <trkpt lat="45.80945" lon="5.00573">
        <ele>177.62366</ele>
        <time>2023-07-11T07:24:37.000Z</time>
      </trkpt>
      <trkpt lat="45.80947" lon="5.00566">
        <ele>177.66661</ele>
        <time>2023-07-11T07:24:38.000Z</time>
      </trkpt>
      <trkpt lat="45.80948" lon="5.0056">
        <ele>177.74637</ele>
        <time>2023-07-11T07:24:39.000Z</time>
      </trkpt>
      <trkpt lat="45.8095" lon="5.00554">
        <ele>177.80907</ele>
        <time>2023-07-11T07:24:40.000Z</time>
      </trkpt>
      <trkpt lat="45.80952" lon="5.00547">
        <ele>177.88673</ele>
        <time>2023-07-11T07:24:41.000Z</time>
      </trkpt>
      <trkpt lat="45.80954" lon="5.0054">
        <ele>177.97426</ele>
        <time>2023-07-11T07:24:42.000Z</time>
      </trkpt>
      <trkpt lat="45.80955" lon="5.00533">
        <ele>178.05212</ele>
        <time>2023-07-11T07:24:43.000Z</time>
      </trkpt>
      <trkpt lat="45.80956" lon="5.00525">
        <ele>178.11218</ele>
        <time>2023-07-11T07:24:44.000Z</time>
      </trkpt>
      <trkpt lat="45.80957" lon="5.00519">
        <ele>178.16681</ele>
        <time>2023-07-11T07:24:45.000Z</time>
      </trkpt>
      <trkpt lat="45.80957" lon="5.00512">
        <ele>178.25162</ele>
        <time>2023-07-11T07:24:46.000Z</time>
      </trkpt>
      <trkpt lat="45.80958" lon="5.00505">
        <ele>178.33012</ele>
        <time>2023-07-11T07:24:47.000Z</time>
      </trkpt>
      <trkpt lat="45.80959" lon="5.00498">
        <ele>178.39861</ele>
        <time>2023-07-11T07:24:48.000Z</time>
      </trkpt>
      <trkpt lat="45.8096" lon="5.00491">
        <ele>178.47505</ele>
        <time>2023-07-11T07:24:49.000Z</time>
      </trkpt>
      <trkpt lat="45.80961" lon="5.00484">
        <ele>178.54619</ele>
        <time>2023-07-11T07:24:50.000Z</time>
      </trkpt>
      <trkpt lat="45.80962" lon="5.00477">
        <ele>178.62656</ele>
        <time>2023-07-11T07:24:51.000Z</time>
      </trkpt>
      <trkpt lat="45.80963" lon="5.0047">
        <ele>178.68227</ele>
        <time>2023-07-11T07:24:52.000Z</time>
      </trkpt>
      <trkpt lat="45.80963" lon="5.00463">
        <ele>178.74176</ele>
        <time>2023-07-11T07:24:53.000Z</time>
      </trkpt>
      <trkpt lat="45.80964" lon="5.00456">
        <ele>178.77176</ele>
        <time>2023-07-11T07:24:54.000Z</time>
      </trkpt>
      <trkpt lat="45.80964" lon="5.00449">
        <ele>178.82018</ele>
        <time>2023-07-11T07:24:55.000Z</time>
      </trkpt>
      <trkpt lat="45.80965" lon="5.00442">
        <ele>178.85829</ele>
        <time>2023-07-11T07:24:56.000Z</time>
      </trkpt>
      <trkpt lat="45.80965" lon="5.00435">
        <ele>178.89737</ele>
        <time>2023-07-11T07:24:57.000Z</time>
      </trkpt>
      <trkpt lat="45.80966" lon="5.00427">
        <ele>178.90855</ele>
        <time>2023-07-11T07:24:58.000Z</time>
      </trkpt>
      <trkpt lat="45.80966" lon="5.0042">
        <ele>178.9016</ele>
        <time>2023-07-11T07:24:59.000Z</time>
      </trkpt>
      <trkpt lat="45.80966" lon="5.00412">
        <ele>178.89767</ele>
        <time>2023-07-11T07:25:00.000Z</time>
      </trkpt>
      <trkpt lat="45.80967" lon="5.00404">
        <ele>178.8837</ele>
        <time>2023-07-11T07:25:01.000Z</time>
      </trkpt>
      <trkpt lat="45.80967" lon="5.00395">
        <ele>178.90247</ele>
        <time>2023-07-11T07:25:02.000Z</time>
      </trkpt>
      <trkpt lat="45.80967" lon="5.00387">
        <ele>178.90787</ele>
        <time>2023-07-11T07:25:03.000Z</time>
      </trkpt>
      <trkpt lat="45.80967" lon="5.00379">
        <ele>178.9218</ele>
        <time>2023-07-11T07:25:04.000Z</time>
      </trkpt>
      <trkpt lat="45.80967" lon="5.0037">
        <ele>178.92953</ele>
        <time>2023-07-11T07:25:05.000Z</time>
      </trkpt>
      <trkpt lat="45.80967" lon="5.00361">
        <ele>178.9351</ele>
        <time>2023-07-11T07:25:06.000Z</time>
      </trkpt>
      <trkpt lat="45.80967" lon="5.00353">
        <ele>178.95335</ele>
        <time>2023-07-11T07:25:07.000Z</time>
      </trkpt>
      <trkpt lat="45.80966" lon="5.00344">
        <ele>178.98331</ele>
        <time>2023-07-11T07:25:08.000Z</time>
      </trkpt>
      <trkpt lat="45.80965" lon="5.00335">
        <ele>179.00987</ele>
        <time>2023-07-11T07:25:09.000Z</time>
      </trkpt>
      <trkpt lat="45.80964" lon="5.00327">
        <ele>179.03366</ele>
        <time>2023-07-11T07:25:10.000Z</time>
      </trkpt>
      <trkpt lat="45.80963" lon="5.00318">
        <ele>179.10355</ele>
        <time>2023-07-11T07:25:11.000Z</time>
      </trkpt>
      <trkpt lat="45.80961" lon="5.0031">
        <ele>179.13599</ele>
        <time>2023-07-11T07:25:12.000Z</time>
      </trkpt>
      <trkpt lat="45.8096" lon="5.00302">
        <ele>179.12201</ele>
        <time>2023-07-11T07:25:13.000Z</time>
      </trkpt>
      <trkpt lat="45.8096" lon="5.00293">
        <ele>179.07726</ele>
        <time>2023-07-11T07:25:14.000Z</time>
      </trkpt>
      <trkpt lat="45.8096" lon="5.00285">
        <ele>179.04253</ele>
        <time>2023-07-11T07:25:15.000Z</time>
      </trkpt>
      <trkpt lat="45.80959" lon="5.00278">
        <ele>178.98125</ele>
        <time>2023-07-11T07:25:16.000Z</time>
      </trkpt>
      <trkpt lat="45.80956" lon="5.00269">
        <ele>178.93044</ele>
        <time>2023-07-11T07:25:17.000Z</time>
      </trkpt>
      <trkpt lat="45.80956" lon="5.00261">
        <ele>178.88858</ele>
        <time>2023-07-11T07:25:18.000Z</time>
      </trkpt>
      <trkpt lat="45.80955" lon="5.00253">
        <ele>178.83385</ele>
        <time>2023-07-11T07:25:19.000Z</time>
      </trkpt>
      <trkpt lat="45.80954" lon="5.00244">
        <ele>178.77988</ele>
        <time>2023-07-11T07:25:20.000Z</time>
      </trkpt>
      <trkpt lat="45.80953" lon="5.00235">
        <ele>178.74081</ele>
        <time>2023-07-11T07:25:21.000Z</time>
      </trkpt>
      <trkpt lat="45.80952" lon="5.00227">
        <ele>178.67381</ele>
        <time>2023-07-11T07:25:22.000Z</time>
      </trkpt>
      <trkpt lat="45.80952" lon="5.00219">
        <ele>178.61966</ele>
        <time>2023-07-11T07:25:23.000Z</time>
      </trkpt>
      <trkpt lat="45.80951" lon="5.0021">
        <ele>178.56653</ele>
        <time>2023-07-11T07:25:24.000Z</time>
      </trkpt>
      <trkpt lat="45.8095" lon="5.00201">
        <ele>178.52702</ele>
        <time>2023-07-11T07:25:25.000Z</time>
      </trkpt>
      <trkpt lat="45.8095" lon="5.00192">
        <ele>178.48994</ele>
        <time>2023-07-11T07:25:26.000Z</time>
      </trkpt>
      <trkpt lat="45.80949" lon="5.00184">
        <ele>178.43359</ele>
        <time>2023-07-11T07:25:27.000Z</time>
      </trkpt>
      <trkpt lat="45.80948" lon="5.00176">
        <ele>178.36887</ele>
        <time>2023-07-11T07:25:28.000Z</time>
      </trkpt>
      <trkpt lat="45.80947" lon="5.00168">
        <ele>178.2917</ele>
        <time>2023-07-11T07:25:29.000Z</time>
      </trkpt>
      <trkpt lat="45.80946" lon="5.00159">
        <ele>178.23875</ele>
        <time>2023-07-11T07:25:30.000Z</time>
      </trkpt>
      <trkpt lat="45.80944" lon="5.00151">
        <ele>178.15211</ele>
        <time>2023-07-11T07:25:31.000Z</time>
      </trkpt>
      <trkpt lat="45.80943" lon="5.00143">
        <ele>178.08994</ele>
        <time>2023-07-11T07:25:32.000Z</time>
      </trkpt>
      <trkpt lat="45.80942" lon="5.00136">
        <ele>178.07419</ele>
        <time>2023-07-11T07:25:33.000Z</time>
      </trkpt>
      <trkpt lat="45.80941" lon="5.00129">
        <ele>178.084</ele>
        <time>2023-07-11T07:25:34.000Z</time>
      </trkpt>
      <trkpt lat="45.80939" lon="5.00121">
        <ele>178.07944</ele>
        <time>2023-07-11T07:25:35.000Z</time>
      </trkpt>
      <trkpt lat="45.80937" lon="5.00113">
        <ele>178.11382</ele>
        <time>2023-07-11T07:25:36.000Z</time>
      </trkpt>
      <trkpt lat="45.80936" lon="5.00104">
        <ele>178.13757</ele>
        <time>2023-07-11T07:25:37.000Z</time>
      </trkpt>
      <trkpt lat="45.80934" lon="5.00096">
        <ele>178.15962</ele>
        <time>2023-07-11T07:25:38.000Z</time>
      </trkpt>
      <trkpt lat="45.80932" lon="5.00088">
        <ele>178.18286</ele>
        <time>2023-07-11T07:25:39.000Z</time>
      </trkpt>
      <trkpt lat="45.8093" lon="5.0008">
        <ele>178.19243</ele>
        <time>2023-07-11T07:25:40.000Z</time>
      </trkpt>
      <trkpt lat="45.80928" lon="5.00072">
        <ele>178.2077</ele>
        <time>2023-07-11T07:25:41.000Z</time>
      </trkpt>
      <trkpt lat="45.80927" lon="5.00065">
        <ele>178.20659</ele>
        <time>2023-07-11T07:25:42.000Z</time>
      </trkpt>
      <trkpt lat="45.80925" lon="5.00057">
        <ele>178.22665</ele>
        <time>2023-07-11T07:25:43.000Z</time>
      </trkpt>
      <trkpt lat="45.80924" lon="5.00048">
        <ele>178.24918</ele>
        <time>2023-07-11T07:25:44.000Z</time>
      </trkpt>
      <trkpt lat="45.80921" lon="5.0004">
        <ele>178.24338</ele>
        <time>2023-07-11T07:25:45.000Z</time>
      </trkpt>
      <trkpt lat="45.8092" lon="5.00033">
        <ele>178.2128</ele>
        <time>2023-07-11T07:25:46.000Z</time>
      </trkpt>
      <trkpt lat="45.80918" lon="5.00025">
        <ele>178.19228</ele>
        <time>2023-07-11T07:25:47.000Z</time>
      </trkpt>
      <trkpt lat="45.80917" lon="5.00016">
        <ele>178.15485</ele>
        <time>2023-07-11T07:25:48.000Z</time>
      </trkpt>
      <trkpt lat="45.80915" lon="5.00008">
        <ele>178.13229</ele>
        <time>2023-07-11T07:25:49.000Z</time>
      </trkpt>
      <trkpt lat="45.80913" lon="5.00001">
        <ele>178.11203</ele>
        <time>2023-07-11T07:25:50.000Z</time>
      </trkpt>
      <trkpt lat="45.8091" lon="4.99994">
        <ele>178.09795</ele>
        <time>2023-07-11T07:25:51.000Z</time>
      </trkpt>
      <trkpt lat="45.80907" lon="4.99986">
        <ele>178.10043</ele>
        <time>2023-07-11T07:25:52.000Z</time>
      </trkpt>
      <trkpt lat="45.80904" lon="4.99978">
        <ele>178.07907</ele>
        <time>2023-07-11T07:25:53.000Z</time>
      </trkpt>
      <trkpt lat="45.80901" lon="4.99971">
        <ele>178.06198</ele>
        <time>2023-07-11T07:25:54.000Z</time>
      </trkpt>
      <trkpt lat="45.80899" lon="4.99963">
        <ele>178.02736</ele>
        <time>2023-07-11T07:25:55.000Z</time>
      </trkpt>
      <trkpt lat="45.80895" lon="4.99956">
        <ele>177.97438</ele>
        <time>2023-07-11T07:25:56.000Z</time>
      </trkpt>
      <trkpt lat="45.80892" lon="4.99949">
        <ele>177.93617</ele>
        <time>2023-07-11T07:25:57.000Z</time>
      </trkpt>
      <trkpt lat="45.80889" lon="4.99941">
        <ele>177.91449</ele>
        <time>2023-07-11T07:25:58.000Z</time>
      </trkpt>
      <trkpt lat="45.80886" lon="4.99934">
        <ele>177.89149</ele>
        <time>2023-07-11T07:25:59.000Z</time>
      </trkpt>
      <trkpt lat="45.80883" lon="4.99927">
        <ele>177.87123</ele>
        <time>2023-07-11T07:26:00.000Z</time>
      </trkpt>
      <trkpt lat="45.8088" lon="4.99919">
        <ele>177.8414</ele>
        <time>2023-07-11T07:26:01.000Z</time>
      </trkpt>
      <trkpt lat="45.80877" lon="4.99912">
        <ele>177.84747</ele>
        <time>2023-07-11T07:26:02.000Z</time>
      </trkpt>
      <trkpt lat="45.80874" lon="4.99904">
        <ele>177.82741</ele>
        <time>2023-07-11T07:26:03.000Z</time>
      </trkpt>
      <trkpt lat="45.80872" lon="4.99897">
        <ele>177.82626</ele>
        <time>2023-07-11T07:26:04.000Z</time>
      </trkpt>
      <trkpt lat="45.80869" lon="4.99889">
        <ele>177.82811</ele>
        <time>2023-07-11T07:26:05.000Z</time>
      </trkpt>
      <trkpt lat="45.80866" lon="4.99882">
        <ele>177.85556</ele>
        <time>2023-07-11T07:26:06.000Z</time>
      </trkpt>
      <trkpt lat="45.80864" lon="4.99874">
        <ele>177.88417</ele>
        <time>2023-07-11T07:26:07.000Z</time>
      </trkpt>
      <trkpt lat="45.8086" lon="4.99867">
        <ele>177.92316</ele>
        <time>2023-07-11T07:26:08.000Z</time>
      </trkpt>
      <trkpt lat="45.80857" lon="4.9986">
        <ele>177.94592</ele>
        <time>2023-07-11T07:26:09.000Z</time>
      </trkpt>
      <trkpt lat="45.80854" lon="4.99852">
        <ele>177.96169</ele>
        <time>2023-07-11T07:26:10.000Z</time>
      </trkpt>
      <trkpt lat="45.80852" lon="4.99845">
        <ele>177.96304</ele>
        <time>2023-07-11T07:26:11.000Z</time>
      </trkpt>
      <trkpt lat="45.8085" lon="4.99838">
        <ele>177.9895</ele>
        <time>2023-07-11T07:26:12.000Z</time>
      </trkpt>
      <trkpt lat="45.80847" lon="4.9983">
        <ele>178.04416</ele>
        <time>2023-07-11T07:26:13.000Z</time>
      </trkpt>
      <trkpt lat="45.80844" lon="4.99822">
        <ele>178.08449</ele>
        <time>2023-07-11T07:26:14.000Z</time>
      </trkpt>
      <trkpt lat="45.80842" lon="4.99815">
        <ele>178.14493</ele>
        <time>2023-07-11T07:26:15.000Z</time>
      </trkpt>
      <trkpt lat="45.80841" lon="4.99807">
        <ele>178.22044</ele>
        <time>2023-07-11T07:26:16.000Z</time>
      </trkpt>
      <trkpt lat="45.80839" lon="4.99799">
        <ele>178.28546</ele>
        <time>2023-07-11T07:26:17.000Z</time>
      </trkpt>
      <trkpt lat="45.80837" lon="4.99791">
        <ele>178.3544</ele>
        <time>2023-07-11T07:26:18.000Z</time>
      </trkpt>
      <trkpt lat="45.80835" lon="4.99783">
        <ele>178.42288</ele>
        <time>2023-07-11T07:26:19.000Z</time>
      </trkpt>
      <trkpt lat="45.80833" lon="4.99776">
        <ele>178.493</ele>
        <time>2023-07-11T07:26:20.000Z</time>
      </trkpt>
      <trkpt lat="45.8083" lon="4.99768">
        <ele>178.57738</ele>
        <time>2023-07-11T07:26:21.000Z</time>
      </trkpt>
      <trkpt lat="45.80828" lon="4.99761">
        <ele>178.62675</ele>
        <time>2023-07-11T07:26:22.000Z</time>
      </trkpt>
      <trkpt lat="45.80825" lon="4.99753">
        <ele>178.66299</ele>
        <time>2023-07-11T07:26:23.000Z</time>
      </trkpt>
      <trkpt lat="45.80822" lon="4.99746">
        <ele>178.67653</ele>
        <time>2023-07-11T07:26:24.000Z</time>
      </trkpt>
      <trkpt lat="45.8082" lon="4.99738">
        <ele>178.71841</ele>
        <time>2023-07-11T07:26:25.000Z</time>
      </trkpt>
      <trkpt lat="45.80817" lon="4.99731">
        <ele>178.76985</ele>
        <time>2023-07-11T07:26:26.000Z</time>
      </trkpt>
      <trkpt lat="45.80814" lon="4.99722">
        <ele>178.80954</ele>
        <time>2023-07-11T07:26:27.000Z</time>
      </trkpt>
      <trkpt lat="45.80811" lon="4.99715">
        <ele>178.86334</ele>
        <time>2023-07-11T07:26:28.000Z</time>
      </trkpt>
      <trkpt lat="45.80809" lon="4.99708">
        <ele>178.9321</ele>
        <time>2023-07-11T07:26:29.000Z</time>
      </trkpt>
      <trkpt lat="45.80805" lon="4.99701">
        <ele>178.99707</ele>
        <time>2023-07-11T07:26:30.000Z</time>
      </trkpt>
      <trkpt lat="45.80801" lon="4.99694">
        <ele>179.04214</ele>
        <time>2023-07-11T07:26:31.000Z</time>
      </trkpt>
      <trkpt lat="45.80797" lon="4.99688">
        <ele>179.04861</ele>
        <time>2023-07-11T07:26:32.000Z</time>
      </trkpt>
      <trkpt lat="45.80793" lon="4.99681">
        <ele>179.04163</ele>
        <time>2023-07-11T07:26:33.000Z</time>
      </trkpt>
      <trkpt lat="45.80788" lon="4.99676">
        <ele>179.05022</ele>
        <time>2023-07-11T07:26:34.000Z</time>
      </trkpt>
      <trkpt lat="45.80784" lon="4.9967">
        <ele>179.05667</ele>
        <time>2023-07-11T07:26:35.000Z</time>
      </trkpt>
      <trkpt lat="45.80779" lon="4.99666">
        <ele>179.04959</ele>
        <time>2023-07-11T07:26:36.000Z</time>
      </trkpt>
      <trkpt lat="45.80774" lon="4.99663">
        <ele>179.04367</ele>
        <time>2023-07-11T07:26:37.000Z</time>
      </trkpt>
      <trkpt lat="45.80769" lon="4.99659">
        <ele>179.02031</ele>
        <time>2023-07-11T07:26:38.000Z</time>
      </trkpt>
      <trkpt lat="45.80764" lon="4.99655">
        <ele>178.98758</ele>
        <time>2023-07-11T07:26:39.000Z</time>
      </trkpt>
      <trkpt lat="45.80759" lon="4.9965">
        <ele>178.95067</ele>
        <time>2023-07-11T07:26:40.000Z</time>
      </trkpt>
      <trkpt lat="45.80754" lon="4.99646">
        <ele>178.89713</ele>
        <time>2023-07-11T07:26:41.000Z</time>
      </trkpt>
      <trkpt lat="45.80748" lon="4.99643">
        <ele>178.85466</ele>
        <time>2023-07-11T07:26:42.000Z</time>
      </trkpt>
      <trkpt lat="45.80744" lon="4.9964">
        <ele>178.83884</ele>
        <time>2023-07-11T07:26:43.000Z</time>
      </trkpt>
      <trkpt lat="45.80742" lon="4.99637">
        <ele>178.84489</ele>
        <time>2023-07-11T07:26:44.000Z</time>
      </trkpt>
      <trkpt lat="45.80741" lon="4.99632">
        <ele>178.81461</ele>
        <time>2023-07-11T07:26:45.000Z</time>
      </trkpt>
      <trkpt lat="45.80743" lon="4.99627">
        <ele>178.75394</ele>
        <time>2023-07-11T07:26:46.000Z</time>
      </trkpt>
      <trkpt lat="45.80746" lon="4.99624">
        <ele>178.69217</ele>
        <time>2023-07-11T07:26:47.000Z</time>
      </trkpt>
      <trkpt lat="45.8075" lon="4.9962">
        <ele>178.63962</ele>
        <time>2023-07-11T07:26:48.000Z</time>
      </trkpt>
      <trkpt lat="45.80755" lon="4.99618">
        <ele>178.55753</ele>
        <time>2023-07-11T07:26:49.000Z</time>
      </trkpt>
      <trkpt lat="45.8076" lon="4.99615">
        <ele>178.52652</ele>
        <time>2023-07-11T07:26:50.000Z</time>
      </trkpt>
      <trkpt lat="45.80765" lon="4.99612">
        <ele>178.52396</ele>
        <time>2023-07-11T07:26:51.000Z</time>
      </trkpt>
      <trkpt lat="45.8077" lon="4.99609">
        <ele>178.51352</ele>
        <time>2023-07-11T07:26:52.000Z</time>
      </trkpt>
      <trkpt lat="45.80775" lon="4.99607">
        <ele>178.49277</ele>
        <time>2023-07-11T07:26:53.000Z</time>
      </trkpt>
      <trkpt lat="45.80781" lon="4.99605">
        <ele>178.47321</ele>
        <time>2023-07-11T07:26:54.000Z</time>
      </trkpt>
      <trkpt lat="45.80786" lon="4.99602">
        <ele>178.436</ele>
        <time>2023-07-11T07:26:55.000Z</time>
      </trkpt>
      <trkpt lat="45.80792" lon="4.996">
        <ele>178.39977</ele>
        <time>2023-07-11T07:26:56.000Z</time>
      </trkpt>
      <trkpt lat="45.80797" lon="4.99598">
        <ele>178.35739</ele>
        <time>2023-07-11T07:26:57.000Z</time>
      </trkpt>
      <trkpt lat="45.80803" lon="4.99595">
        <ele>178.33267</ele>
        <time>2023-07-11T07:26:58.000Z</time>
      </trkpt>
      <trkpt lat="45.80808" lon="4.99593">
        <ele>178.33829</ele>
        <time>2023-07-11T07:26:59.000Z</time>
      </trkpt>
      <trkpt lat="45.80814" lon="4.99591">
        <ele>178.36166</ele>
        <time>2023-07-11T07:27:00.000Z</time>
      </trkpt>
      <trkpt lat="45.80819" lon="4.99589">
        <ele>178.40785</ele>
        <time>2023-07-11T07:27:01.000Z</time>
      </trkpt>
      <trkpt lat="45.80824" lon="4.99587">
        <ele>178.43063</ele>
        <time>2023-07-11T07:27:02.000Z</time>
      </trkpt>
      <trkpt lat="45.8083" lon="4.99585">
        <ele>178.43744</ele>
        <time>2023-07-11T07:27:03.000Z</time>
      </trkpt>
      <trkpt lat="45.80835" lon="4.99583">
        <ele>178.42155</ele>
        <time>2023-07-11T07:27:04.000Z</time>
      </trkpt>
      <trkpt lat="45.80841" lon="4.99581">
        <ele>178.40555</ele>
        <time>2023-07-11T07:27:05.000Z</time>
      </trkpt>
      <trkpt lat="45.80846" lon="4.9958">
        <ele>178.38589</ele>
        <time>2023-07-11T07:27:06.000Z</time>
      </trkpt>
      <trkpt lat="45.80851" lon="4.99577">
        <ele>178.38693</ele>
        <time>2023-07-11T07:27:07.000Z</time>
      </trkpt>
      <trkpt lat="45.80857" lon="4.99574">
        <ele>178.38249</ele>
        <time>2023-07-11T07:27:08.000Z</time>
      </trkpt>
      <trkpt lat="45.80862" lon="4.99572">
        <ele>178.39148</ele>
        <time>2023-07-11T07:27:09.000Z</time>
      </trkpt>
      <trkpt lat="45.80867" lon="4.99571">
        <ele>178.34424</ele>
        <time>2023-07-11T07:27:10.000Z</time>
      </trkpt>
      <trkpt lat="45.80873" lon="4.99571">
        <ele>178.29909</ele>
        <time>2023-07-11T07:27:11.000Z</time>
      </trkpt>
      <trkpt lat="45.80877" lon="4.99571">
        <ele>178.27548</ele>
        <time>2023-07-11T07:27:12.000Z</time>
      </trkpt>
      <trkpt lat="45.80881" lon="4.99572">
        <ele>178.26691</ele>
        <time>2023-07-11T07:27:13.000Z</time>
      </trkpt>
      <trkpt lat="45.80885" lon="4.99575">
        <ele>178.24741</ele>
        <time>2023-07-11T07:27:14.000Z</time>
      </trkpt>
      <trkpt lat="45.80889" lon="4.99579">
        <ele>178.2504</ele>
        <time>2023-07-11T07:27:15.000Z</time>
      </trkpt>
      <trkpt lat="45.80892" lon="4.99583">
        <ele>178.27484</ele>
        <time>2023-07-11T07:27:16.000Z</time>
      </trkpt>
      <trkpt lat="45.80895" lon="4.99589">
        <ele>178.33022</ele>
        <time>2023-07-11T07:27:17.000Z</time>
      </trkpt>
      <trkpt lat="45.80899" lon="4.99594">
        <ele>178.36833</ele>
        <time>2023-07-11T07:27:18.000Z</time>
      </trkpt>
      <trkpt lat="45.80903" lon="4.99597">
        <ele>178.39359</ele>
        <time>2023-07-11T07:27:19.000Z</time>
      </trkpt>
      <trkpt lat="45.80908" lon="4.99598">
        <ele>178.43013</ele>
        <time>2023-07-11T07:27:20.000Z</time>
      </trkpt>
      <trkpt lat="45.80914" lon="4.99597">
        <ele>178.42145</ele>
        <time>2023-07-11T07:27:21.000Z</time>
      </trkpt>
      <trkpt lat="45.80919" lon="4.99594">
        <ele>178.44504</ele>
        <time>2023-07-11T07:27:22.000Z</time>
      </trkpt>
      <trkpt lat="45.80923" lon="4.99591">
        <ele>178.45959</ele>
        <time>2023-07-11T07:27:23.000Z</time>
      </trkpt>
      <trkpt lat="45.80927" lon="4.99584">
        <ele>178.4669</ele>
        <time>2023-07-11T07:27:24.000Z</time>
      </trkpt>
      <trkpt lat="45.80929" lon="4.99577">
        <ele>178.48593</ele>
        <time>2023-07-11T07:27:25.000Z</time>
      </trkpt>
      <trkpt lat="45.8093" lon="4.99569">
        <ele>178.54904</ele>
        <time>2023-07-11T07:27:26.000Z</time>
      </trkpt>
      <trkpt lat="45.8093" lon="4.99561">
        <ele>178.5813</ele>
        <time>2023-07-11T07:27:27.000Z</time>
      </trkpt>
      <trkpt lat="45.80929" lon="4.99553">
        <ele>178.60187</ele>
        <time>2023-07-11T07:27:28.000Z</time>
      </trkpt>
      <trkpt lat="45.80928" lon="4.99546">
        <ele>178.62108</ele>
        <time>2023-07-11T07:27:29.000Z</time>
      </trkpt>
      <trkpt lat="45.80927" lon="4.99538">
        <ele>178.65137</ele>
        <time>2023-07-11T07:27:30.000Z</time>
      </trkpt>
      <trkpt lat="45.80925" lon="4.9953">
        <ele>178.67818</ele>
        <time>2023-07-11T07:27:31.000Z</time>
      </trkpt>
      <trkpt lat="45.80924" lon="4.99523">
        <ele>178.67538</ele>
        <time>2023-07-11T07:27:32.000Z</time>
      </trkpt>
      <trkpt lat="45.80923" lon="4.99514">
        <ele>178.68663</ele>
        <time>2023-07-11T07:27:33.000Z</time>
      </trkpt>
      <trkpt lat="45.80921" lon="4.99507">
        <ele>178.7375</ele>
        <time>2023-07-11T07:27:34.000Z</time>
      </trkpt>
      <trkpt lat="45.8092" lon="4.995">
        <ele>178.789</ele>
        <time>2023-07-11T07:27:35.000Z</time>
      </trkpt>
      <trkpt lat="45.80919" lon="4.99492">
        <ele>178.82346</ele>
        <time>2023-07-11T07:27:36.000Z</time>
      </trkpt>
      <trkpt lat="45.80917" lon="4.99485">
        <ele>178.83145</ele>
        <time>2023-07-11T07:27:37.000Z</time>
      </trkpt>
      <trkpt lat="45.80915" lon="4.99477">
        <ele>178.83093</ele>
        <time>2023-07-11T07:27:38.000Z</time>
      </trkpt>
      <trkpt lat="45.80912" lon="4.99469">
        <ele>178.81445</ele>
        <time>2023-07-11T07:27:39.000Z</time>
      </trkpt>
      <trkpt lat="45.80912" lon="4.9946">
        <ele>178.77541</ele>
        <time>2023-07-11T07:27:40.000Z</time>
      </trkpt>
      <trkpt lat="45.8091" lon="4.99452">
        <ele>178.77249</ele>
        <time>2023-07-11T07:27:41.000Z</time>
      </trkpt>
      <trkpt lat="45.80908" lon="4.99444">
        <ele>178.75119</ele>
        <time>2023-07-11T07:27:42.000Z</time>
      </trkpt>
      <trkpt lat="45.80907" lon="4.99436">
        <ele>178.74895</ele>
        <time>2023-07-11T07:27:43.000Z</time>
      </trkpt>
      <trkpt lat="45.80905" lon="4.99429">
        <ele>178.75186</ele>
        <time>2023-07-11T07:27:44.000Z</time>
      </trkpt>
      <trkpt lat="45.80903" lon="4.99422">
        <ele>178.76598</ele>
        <time>2023-07-11T07:27:45.000Z</time>
      </trkpt>
      <trkpt lat="45.809" lon="4.99412">
        <ele>178.71387</ele>
        <time>2023-07-11T07:27:46.000Z</time>
      </trkpt>
      <trkpt lat="45.80898" lon="4.99405">
        <ele>178.66702</ele>
        <time>2023-07-11T07:27:47.000Z</time>
      </trkpt>
      <trkpt lat="45.80895" lon="4.99398">
        <ele>178.62439</ele>
        <time>2023-07-11T07:27:48.000Z</time>
      </trkpt>
      <trkpt lat="45.80894" lon="4.99391">
        <ele>178.59799</ele>
        <time>2023-07-11T07:27:49.000Z</time>
      </trkpt>
      <trkpt lat="45.80892" lon="4.99383">
        <ele>178.59984</ele>
        <time>2023-07-11T07:27:50.000Z</time>
      </trkpt>
      <trkpt lat="45.80891" lon="4.99375">
        <ele>178.60936</ele>
        <time>2023-07-11T07:27:51.000Z</time>
      </trkpt>
      <trkpt lat="45.8089" lon="4.99368">
        <ele>178.64905</ele>
        <time>2023-07-11T07:27:52.000Z</time>
      </trkpt>
      <trkpt lat="45.80888" lon="4.9936">
        <ele>178.6637</ele>
        <time>2023-07-11T07:27:53.000Z</time>
      </trkpt>
      <trkpt lat="45.80885" lon="4.99353">
        <ele>178.64517</ele>
        <time>2023-07-11T07:27:54.000Z</time>
      </trkpt>
      <trkpt lat="45.80882" lon="4.99345">
        <ele>178.60471</ele>
        <time>2023-07-11T07:27:55.000Z</time>
      </trkpt>
      <trkpt lat="45.8088" lon="4.99337">
        <ele>178.57803</ele>
        <time>2023-07-11T07:27:56.000Z</time>
      </trkpt>
      <trkpt lat="45.80878" lon="4.9933">
        <ele>178.54779</ele>
        <time>2023-07-11T07:27:57.000Z</time>
      </trkpt>
      <trkpt lat="45.80875" lon="4.99322">
        <ele>178.53317</ele>
        <time>2023-07-11T07:27:58.000Z</time>
      </trkpt>
      <trkpt lat="45.80874" lon="4.99314">
        <ele>178.53262</ele>
        <time>2023-07-11T07:27:59.000Z</time>
      </trkpt>
      <trkpt lat="45.80874" lon="4.99306">
        <ele>178.54405</ele>
        <time>2023-07-11T07:28:00.000Z</time>
      </trkpt>
      <trkpt lat="45.80874" lon="4.99298">
        <ele>178.52534</ele>
        <time>2023-07-11T07:28:01.000Z</time>
      </trkpt>
      <trkpt lat="45.80877" lon="4.9929">
        <ele>178.51605</ele>
        <time>2023-07-11T07:28:02.000Z</time>
      </trkpt>
      <trkpt lat="45.80879" lon="4.99282">
        <ele>178.50807</ele>
        <time>2023-07-11T07:28:03.000Z</time>
      </trkpt>
      <trkpt lat="45.80882" lon="4.99274">
        <ele>178.4957</ele>
        <time>2023-07-11T07:28:04.000Z</time>
      </trkpt>
      <trkpt lat="45.80885" lon="4.99267">
        <ele>178.46884</ele>
        <time>2023-07-11T07:28:05.000Z</time>
      </trkpt>
      <trkpt lat="45.80888" lon="4.9926">
        <ele>178.47324</ele>
        <time>2023-07-11T07:28:06.000Z</time>
      </trkpt>
      <trkpt lat="45.80891" lon="4.99252">
        <ele>178.46979</ele>
        <time>2023-07-11T07:28:07.000Z</time>
      </trkpt>
      <trkpt lat="45.80895" lon="4.99245">
        <ele>178.46117</ele>
        <time>2023-07-11T07:28:08.000Z</time>
      </trkpt>
      <trkpt lat="45.80899" lon="4.99238">
        <ele>178.45583</ele>
        <time>2023-07-11T07:28:09.000Z</time>
      </trkpt>
      <trkpt lat="45.80902" lon="4.99231">
        <ele>178.38095</ele>
        <time>2023-07-11T07:28:10.000Z</time>
      </trkpt>
      <trkpt lat="45.80906" lon="4.99224">
        <ele>178.30003</ele>
        <time>2023-07-11T07:28:11.000Z</time>
      </trkpt>
      <trkpt lat="45.80909" lon="4.99217">
        <ele>178.20102</ele>
        <time>2023-07-11T07:28:12.000Z</time>
      </trkpt>
      <trkpt lat="45.80913" lon="4.99211">
        <ele>178.09528</ele>
        <time>2023-07-11T07:28:13.000Z</time>
      </trkpt>
      <trkpt lat="45.80917" lon="4.99204">
        <ele>177.99234</ele>
        <time>2023-07-11T07:28:14.000Z</time>
      </trkpt>
      <trkpt lat="45.80922" lon="4.99197">
        <ele>177.90652</ele>
        <time>2023-07-11T07:28:15.000Z</time>
      </trkpt>
      <trkpt lat="45.80926" lon="4.99191">
        <ele>177.81288</ele>
        <time>2023-07-11T07:28:16.000Z</time>
      </trkpt>
      <trkpt lat="45.80929" lon="4.99184">
        <ele>177.72061</ele>
        <time>2023-07-11T07:28:17.000Z</time>
      </trkpt>
      <trkpt lat="45.80933" lon="4.99178">
        <ele>177.62436</ele>
        <time>2023-07-11T07:28:18.000Z</time>
      </trkpt>
      <trkpt lat="45.80937" lon="4.99171">
        <ele>177.51859</ele>
        <time>2023-07-11T07:28:19.000Z</time>
      </trkpt>
      <trkpt lat="45.80941" lon="4.99165">
        <ele>177.43117</ele>
        <time>2023-07-11T07:28:20.000Z</time>
      </trkpt>
      <trkpt lat="45.80946" lon="4.99159">
        <ele>177.35692</ele>
        <time>2023-07-11T07:28:21.000Z</time>
      </trkpt>
      <trkpt lat="45.8095" lon="4.99153">
        <ele>177.26895</ele>
        <time>2023-07-11T07:28:22.000Z</time>
      </trkpt>
      <trkpt lat="45.80954" lon="4.99147">
        <ele>177.1835</ele>
        <time>2023-07-11T07:28:23.000Z</time>
      </trkpt>
      <trkpt lat="45.80959" lon="4.99141">
        <ele>177.10605</ele>
        <time>2023-07-11T07:28:24.000Z</time>
      </trkpt>
      <trkpt lat="45.80963" lon="4.99135">
        <ele>177.03726</ele>
        <time>2023-07-11T07:28:25.000Z</time>
      </trkpt>
      <trkpt lat="45.80968" lon="4.99129">
        <ele>176.99294</ele>
        <time>2023-07-11T07:28:26.000Z</time>
      </trkpt>
      <trkpt lat="45.80973" lon="4.99123">
        <ele>176.97594</ele>
        <time>2023-07-11T07:28:27.000Z</time>
      </trkpt>
      <trkpt lat="45.80977" lon="4.99116">
        <ele>176.9725</ele>
        <time>2023-07-11T07:28:28.000Z</time>
      </trkpt>
      <trkpt lat="45.80981" lon="4.9911">
        <ele>176.96268</ele>
        <time>2023-07-11T07:28:29.000Z</time>
      </trkpt>
      <trkpt lat="45.80986" lon="4.99104">
        <ele>176.99278</ele>
        <time>2023-07-11T07:28:30.000Z</time>
      </trkpt>
      <trkpt lat="45.8099" lon="4.99098">
        <ele>177.03993</ele>
        <time>2023-07-11T07:28:31.000Z</time>
      </trkpt>
      <trkpt lat="45.80994" lon="4.99092">
        <ele>177.11142</ele>
        <time>2023-07-11T07:28:32.000Z</time>
      </trkpt>
      <trkpt lat="45.80999" lon="4.99087">
        <ele>177.1897</ele>
        <time>2023-07-11T07:28:33.000Z</time>
      </trkpt>
      <trkpt lat="45.81003" lon="4.99081">
        <ele>177.25308</ele>
        <time>2023-07-11T07:28:34.000Z</time>
      </trkpt>
      <trkpt lat="45.81007" lon="4.99075">
        <ele>177.30791</ele>
        <time>2023-07-11T07:28:35.000Z</time>
      </trkpt>
      <trkpt lat="45.81012" lon="4.9907">
        <ele>177.35469</ele>
        <time>2023-07-11T07:28:36.000Z</time>
      </trkpt>
      <trkpt lat="45.81016" lon="4.99063">
        <ele>177.41238</ele>
        <time>2023-07-11T07:28:37.000Z</time>
      </trkpt>
      <trkpt lat="45.8102" lon="4.99056">
        <ele>177.45538</ele>
        <time>2023-07-11T07:28:38.000Z</time>
      </trkpt>
      <trkpt lat="45.81023" lon="4.99049">
        <ele>177.52255</ele>
        <time>2023-07-11T07:28:39.000Z</time>
      </trkpt>
      <trkpt lat="45.81025" lon="4.99041">
        <ele>177.55322</ele>
        <time>2023-07-11T07:28:40.000Z</time>
      </trkpt>
      <trkpt lat="45.81027" lon="4.99033">
        <ele>177.60289</ele>
        <time>2023-07-11T07:28:41.000Z</time>
      </trkpt>
      <trkpt lat="45.81029" lon="4.99025">
        <ele>177.65413</ele>
        <time>2023-07-11T07:28:42.000Z</time>
      </trkpt>
      <trkpt lat="45.81032" lon="4.99018">
        <ele>177.69453</ele>
        <time>2023-07-11T07:28:43.000Z</time>
      </trkpt>
      <trkpt lat="45.81034" lon="4.9901">
        <ele>177.7348</ele>
        <time>2023-07-11T07:28:44.000Z</time>
      </trkpt>
      <trkpt lat="45.81037" lon="4.99003">
        <ele>177.77052</ele>
        <time>2023-07-11T07:28:45.000Z</time>
      </trkpt>
      <trkpt lat="45.8104" lon="4.98995">
        <ele>177.78688</ele>
        <time>2023-07-11T07:28:46.000Z</time>
      </trkpt>
      <trkpt lat="45.81043" lon="4.98988">
        <ele>177.78615</ele>
        <time>2023-07-11T07:28:47.000Z</time>
      </trkpt>
      <trkpt lat="45.81047" lon="4.98981">
        <ele>177.77975</ele>
        <time>2023-07-11T07:28:48.000Z</time>
      </trkpt>
      <trkpt lat="45.81051" lon="4.98975">
        <ele>177.77174</ele>
        <time>2023-07-11T07:28:49.000Z</time>
      </trkpt>
      <trkpt lat="45.81056" lon="4.98968">
        <ele>177.76096</ele>
        <time>2023-07-11T07:28:50.000Z</time>
      </trkpt>
      <trkpt lat="45.8106" lon="4.98962">
        <ele>177.7276</ele>
        <time>2023-07-11T07:28:51.000Z</time>
      </trkpt>
      <trkpt lat="45.81064" lon="4.98956">
        <ele>177.68796</ele>
        <time>2023-07-11T07:28:52.000Z</time>
      </trkpt>
      <trkpt lat="45.81069" lon="4.9895">
        <ele>177.63681</ele>
        <time>2023-07-11T07:28:53.000Z</time>
      </trkpt>
      <trkpt lat="45.81073" lon="4.98944">
        <ele>177.64182</ele>
        <time>2023-07-11T07:28:54.000Z</time>
      </trkpt>
      <trkpt lat="45.81078" lon="4.98938">
        <ele>177.63689</ele>
        <time>2023-07-11T07:28:55.000Z</time>
      </trkpt>
      <trkpt lat="45.81082" lon="4.98932">
        <ele>177.65503</ele>
        <time>2023-07-11T07:28:56.000Z</time>
      </trkpt>
      <trkpt lat="45.81087" lon="4.98927">
        <ele>177.67935</ele>
        <time>2023-07-11T07:28:57.000Z</time>
      </trkpt>
      <trkpt lat="45.81091" lon="4.9892">
        <ele>177.71835</ele>
        <time>2023-07-11T07:28:58.000Z</time>
      </trkpt>
      <trkpt lat="45.81096" lon="4.98915">
        <ele>177.74979</ele>
        <time>2023-07-11T07:28:59.000Z</time>
      </trkpt>
      <trkpt lat="45.81101" lon="4.98909">
        <ele>177.82065</ele>
        <time>2023-07-11T07:29:00.000Z</time>
      </trkpt>
      <trkpt lat="45.81106" lon="4.98903">
        <ele>177.89488</ele>
        <time>2023-07-11T07:29:01.000Z</time>
      </trkpt>
      <trkpt lat="45.81111" lon="4.98899">
        <ele>177.97215</ele>
        <time>2023-07-11T07:29:02.000Z</time>
      </trkpt>
      <trkpt lat="45.81116" lon="4.98893">
        <ele>178.04282</ele>
        <time>2023-07-11T07:29:03.000Z</time>
      </trkpt>
      <trkpt lat="45.81119" lon="4.98888">
        <ele>178.09123</ele>
        <time>2023-07-11T07:29:04.000Z</time>
      </trkpt>
      <trkpt lat="45.81124" lon="4.98882">
        <ele>178.1418</ele>
        <time>2023-07-11T07:29:05.000Z</time>
      </trkpt>
      <trkpt lat="45.81127" lon="4.98875">
        <ele>178.17221</ele>
        <time>2023-07-11T07:29:06.000Z</time>
      </trkpt>
      <trkpt lat="45.81131" lon="4.98868">
        <ele>178.21298</ele>
        <time>2023-07-11T07:29:07.000Z</time>
      </trkpt>
      <trkpt lat="45.81135" lon="4.98861">
        <ele>178.25186</ele>
        <time>2023-07-11T07:29:08.000Z</time>
      </trkpt>
      <trkpt lat="45.81138" lon="4.98855">
        <ele>178.28897</ele>
        <time>2023-07-11T07:29:09.000Z</time>
      </trkpt>
      <trkpt lat="45.81142" lon="4.98849">
        <ele>178.31784</ele>
        <time>2023-07-11T07:29:10.000Z</time>
      </trkpt>
      <trkpt lat="45.81146" lon="4.98842">
        <ele>178.34749</ele>
        <time>2023-07-11T07:29:11.000Z</time>
      </trkpt>
      <trkpt lat="45.81151" lon="4.98837">
        <ele>178.37679</ele>
        <time>2023-07-11T07:29:12.000Z</time>
      </trkpt>
      <trkpt lat="45.81156" lon="4.98832">
        <ele>178.4157</ele>
        <time>2023-07-11T07:29:13.000Z</time>
      </trkpt>
      <trkpt lat="45.8116" lon="4.98827">
        <ele>178.42215</ele>
        <time>2023-07-11T07:29:14.000Z</time>
      </trkpt>
      <trkpt lat="45.81164" lon="4.98823">
        <ele>178.42392</ele>
        <time>2023-07-11T07:29:15.000Z</time>
      </trkpt>
      <trkpt lat="45.81169" lon="4.98823">
        <ele>178.41359</ele>
        <time>2023-07-11T07:29:16.000Z</time>
      </trkpt>
      <trkpt lat="45.81174" lon="4.98825">
        <ele>178.41267</ele>
        <time>2023-07-11T07:29:17.000Z</time>
      </trkpt>
      <trkpt lat="45.81179" lon="4.98828">
        <ele>178.4295</ele>
        <time>2023-07-11T07:29:18.000Z</time>
      </trkpt>
      <trkpt lat="45.81184" lon="4.98831">
        <ele>178.42729</ele>
        <time>2023-07-11T07:29:19.000Z</time>
      </trkpt>
      <trkpt lat="45.81189" lon="4.98834">
        <ele>178.3898</ele>
        <time>2023-07-11T07:29:20.000Z</time>
      </trkpt>
      <trkpt lat="45.81193" lon="4.98838">
        <ele>178.34445</ele>
        <time>2023-07-11T07:29:21.000Z</time>
      </trkpt>
      <trkpt lat="45.81198" lon="4.98842">
        <ele>178.29448</ele>
        <time>2023-07-11T07:29:22.000Z</time>
      </trkpt>
      <trkpt lat="45.81201" lon="4.98846">
        <ele>178.29608</ele>
        <time>2023-07-11T07:29:23.000Z</time>
      </trkpt>
      <trkpt lat="45.81206" lon="4.9885">
        <ele>178.29964</ele>
        <time>2023-07-11T07:29:24.000Z</time>
      </trkpt>
      <trkpt lat="45.8121" lon="4.98853">
        <ele>178.33395</ele>
        <time>2023-07-11T07:29:25.000Z</time>
      </trkpt>
      <trkpt lat="45.81214" lon="4.98851">
        <ele>178.405</ele>
        <time>2023-07-11T07:29:26.000Z</time>
      </trkpt>
      <trkpt lat="45.81218" lon="4.9885">
        <ele>178.46027</ele>
        <time>2023-07-11T07:29:27.000Z</time>
      </trkpt>
      <trkpt lat="45.81221" lon="4.98846">
        <ele>178.50821</ele>
        <time>2023-07-11T07:29:28.000Z</time>
      </trkpt>
      <trkpt lat="45.81224" lon="4.98841">
        <ele>178.56546</ele>
        <time>2023-07-11T07:29:29.000Z</time>
      </trkpt>
      <trkpt lat="45.81224" lon="4.98835">
        <ele>178.63023</ele>
        <time>2023-07-11T07:29:30.000Z</time>
      </trkpt>
      <trkpt lat="45.81226" lon="4.98829">
        <ele>178.71852</ele>
        <time>2023-07-11T07:29:31.000Z</time>
      </trkpt>
      <trkpt lat="45.81227" lon="4.98824">
        <ele>178.82062</ele>
        <time>2023-07-11T07:29:32.000Z</time>
      </trkpt>
      <trkpt lat="45.81228" lon="4.98818">
        <ele>178.91246</ele>
        <time>2023-07-11T07:29:33.000Z</time>
      </trkpt>
      <trkpt lat="45.81228" lon="4.98813">
        <ele>178.96884</ele>
        <time>2023-07-11T07:29:34.000Z</time>
      </trkpt>
      <trkpt lat="45.81229" lon="4.98806">
        <ele>179.08049</ele>
        <time>2023-07-11T07:29:35.000Z</time>
      </trkpt>
      <trkpt lat="45.81232" lon="4.988">
        <ele>179.14571</ele>
        <time>2023-07-11T07:29:36.000Z</time>
      </trkpt>
      <trkpt lat="45.81234" lon="4.98793">
        <ele>179.17827</ele>
        <time>2023-07-11T07:29:37.000Z</time>
      </trkpt>
      <trkpt lat="45.81236" lon="4.98788">
        <ele>179.19156</ele>
        <time>2023-07-11T07:29:38.000Z</time>
      </trkpt>
      <trkpt lat="45.81238" lon="4.98781">
        <ele>179.20184</ele>
        <time>2023-07-11T07:29:39.000Z</time>
      </trkpt>
      <trkpt lat="45.8124" lon="4.98775">
        <ele>179.20401</ele>
        <time>2023-07-11T07:29:40.000Z</time>
      </trkpt>
      <trkpt lat="45.81241" lon="4.98767">
        <ele>179.17564</ele>
        <time>2023-07-11T07:29:41.000Z</time>
      </trkpt>
      <trkpt lat="45.81241" lon="4.98762">
        <ele>179.15054</ele>
        <time>2023-07-11T07:29:42.000Z</time>
      </trkpt>
      <trkpt lat="45.81241" lon="4.98756">
        <ele>179.05943</ele>
        <time>2023-07-11T07:29:43.000Z</time>
      </trkpt>
      <trkpt lat="45.81241" lon="4.9875">
        <ele>179.01228</ele>
        <time>2023-07-11T07:29:44.000Z</time>
      </trkpt>
      <trkpt lat="45.81242" lon="4.98744">
        <ele>178.93747</ele>
        <time>2023-07-11T07:29:45.000Z</time>
      </trkpt>
      <trkpt lat="45.81244" lon="4.98737">
        <ele>178.88583</ele>
        <time>2023-07-11T07:29:46.000Z</time>
      </trkpt>
      <trkpt lat="45.81245" lon="4.98732">
        <ele>178.84384</ele>
        <time>2023-07-11T07:29:47.000Z</time>
      </trkpt>
      <trkpt lat="45.81247" lon="4.98726">
        <ele>178.80891</ele>
        <time>2023-07-11T07:29:48.000Z</time>
      </trkpt>
      <trkpt lat="45.81249" lon="4.98721">
        <ele>178.76254</ele>
        <time>2023-07-11T07:29:49.000Z</time>
      </trkpt>
      <trkpt lat="45.8125" lon="4.98715">
        <ele>178.72482</ele>
        <time>2023-07-11T07:29:50.000Z</time>
      </trkpt>
      <trkpt lat="45.81252" lon="4.9871">
        <ele>178.60895</ele>
        <time>2023-07-11T07:29:51.000Z</time>
      </trkpt>
      <trkpt lat="45.81254" lon="4.98705">
        <ele>178.4556</ele>
        <time>2023-07-11T07:29:52.000Z</time>
      </trkpt>
      <trkpt lat="45.81256" lon="4.987">
        <ele>178.31876</ele>
        <time>2023-07-11T07:29:53.000Z</time>
      </trkpt>
      <trkpt lat="45.81258" lon="4.98694">
        <ele>178.21182</ele>
        <time>2023-07-11T07:29:54.000Z</time>
      </trkpt>
      <trkpt lat="45.8126" lon="4.98689">
        <ele>178.10037</ele>
        <time>2023-07-11T07:29:55.000Z</time>
      </trkpt>
      <trkpt lat="45.81263" lon="4.98684">
        <ele>178.03812</ele>
        <time>2023-07-11T07:29:56.000Z</time>
      </trkpt>
      <trkpt lat="45.81266" lon="4.98679">
        <ele>178.00105</ele>
        <time>2023-07-11T07:29:57.000Z</time>
      </trkpt>
      <trkpt lat="45.81269" lon="4.98675">
        <ele>177.97958</ele>
        <time>2023-07-11T07:29:58.000Z</time>
      </trkpt>
      <trkpt lat="45.81273" lon="4.98671">
        <ele>177.94315</ele>
        <time>2023-07-11T07:29:59.000Z</time>
      </trkpt>
      <trkpt lat="45.81277" lon="4.98667">
        <ele>177.94418</ele>
        <time>2023-07-11T07:30:00.000Z</time>
      </trkpt>
      <trkpt lat="45.8128" lon="4.98662">
        <ele>177.95987</ele>
        <time>2023-07-11T07:30:01.000Z</time>
      </trkpt>
      <trkpt lat="45.81283" lon="4.98656">
        <ele>177.98003</ele>
        <time>2023-07-11T07:30:02.000Z</time>
      </trkpt>
      <trkpt lat="45.81286" lon="4.98652">
        <ele>177.96114</ele>
        <time>2023-07-11T07:30:03.000Z</time>
      </trkpt>
      <trkpt lat="45.81289" lon="4.98648">
        <ele>177.94386</ele>
        <time>2023-07-11T07:30:04.000Z</time>
      </trkpt>
      <trkpt lat="45.81292" lon="4.98642">
        <ele>177.91554</ele>
        <time>2023-07-11T07:30:05.000Z</time>
      </trkpt>
      <trkpt lat="45.81294" lon="4.98637">
        <ele>177.84232</ele>
        <time>2023-07-11T07:30:06.000Z</time>
      </trkpt>
      <trkpt lat="45.81297" lon="4.98632">
        <ele>177.77908</ele>
        <time>2023-07-11T07:30:07.000Z</time>
      </trkpt>
      <trkpt lat="45.813" lon="4.98626">
        <ele>177.74783</ele>
        <time>2023-07-11T07:30:08.000Z</time>
      </trkpt>
      <trkpt lat="45.81302" lon="4.98621">
        <ele>177.70679</ele>
        <time>2023-07-11T07:30:09.000Z</time>
      </trkpt>
      <trkpt lat="45.81304" lon="4.98615">
        <ele>177.65512</ele>
        <time>2023-07-11T07:30:10.000Z</time>
      </trkpt>
      <trkpt lat="45.81307" lon="4.98609">
        <ele>177.66827</ele>
        <time>2023-07-11T07:30:11.000Z</time>
      </trkpt>
      <trkpt lat="45.8131" lon="4.98602">
        <ele>177.6971</ele>
        <time>2023-07-11T07:30:12.000Z</time>
      </trkpt>
      <trkpt lat="45.81312" lon="4.98596">
        <ele>177.74899</ele>
        <time>2023-07-11T07:30:13.000Z</time>
      </trkpt>
      <trkpt lat="45.81313" lon="4.98589">
        <ele>177.77698</ele>
        <time>2023-07-11T07:30:14.000Z</time>
      </trkpt>
      <trkpt lat="45.81315" lon="4.98583">
        <ele>177.77859</ele>
        <time>2023-07-11T07:30:15.000Z</time>
      </trkpt>
      <trkpt lat="45.81316" lon="4.98577">
        <ele>177.78079</ele>
        <time>2023-07-11T07:30:16.000Z</time>
      </trkpt>
      <trkpt lat="45.81319" lon="4.98571">
        <ele>177.7657</ele>
        <time>2023-07-11T07:30:17.000Z</time>
      </trkpt>
      <trkpt lat="45.81321" lon="4.98565">
        <ele>177.72226</ele>
        <time>2023-07-11T07:30:18.000Z</time>
      </trkpt>
      <trkpt lat="45.81323" lon="4.98559">
        <ele>177.67836</ele>
        <time>2023-07-11T07:30:19.000Z</time>
      </trkpt>
      <trkpt lat="45.81324" lon="4.98553">
        <ele>177.61722</ele>
        <time>2023-07-11T07:30:20.000Z</time>
      </trkpt>
      <trkpt lat="45.81326" lon="4.98548">
        <ele>177.5634</ele>
        <time>2023-07-11T07:30:21.000Z</time>
      </trkpt>
      <trkpt lat="45.81328" lon="4.98542">
        <ele>177.52261</ele>
        <time>2023-07-11T07:30:22.000Z</time>
      </trkpt>
      <trkpt lat="45.8133" lon="4.98537">
        <ele>177.55606</ele>
        <time>2023-07-11T07:30:23.000Z</time>
      </trkpt>
      <trkpt lat="45.81332" lon="4.98532">
        <ele>177.58292</ele>
        <time>2023-07-11T07:30:24.000Z</time>
      </trkpt>
      <trkpt lat="45.81334" lon="4.98526">
        <ele>177.61357</ele>
        <time>2023-07-11T07:30:25.000Z</time>
      </trkpt>
      <trkpt lat="45.81336" lon="4.98521">
        <ele>177.66272</ele>
        <time>2023-07-11T07:30:26.000Z</time>
      </trkpt>
      <trkpt lat="45.81339" lon="4.98517">
        <ele>177.69485</ele>
        <time>2023-07-11T07:30:27.000Z</time>
      </trkpt>
      <trkpt lat="45.81341" lon="4.98512">
        <ele>177.71097</ele>
        <time>2023-07-11T07:30:28.000Z</time>
      </trkpt>
      <trkpt lat="45.81342" lon="4.98506">
        <ele>177.72751</ele>
        <time>2023-07-11T07:30:29.000Z</time>
      </trkpt>
      <trkpt lat="45.81342" lon="4.98501">
        <ele>177.75298</ele>
        <time>2023-07-11T07:30:30.000Z</time>
      </trkpt>
      <trkpt lat="45.81343" lon="4.98497">
        <ele>177.77719</ele>
        <time>2023-07-11T07:30:31.000Z</time>
      </trkpt>
      <trkpt lat="45.81345" lon="4.98492">
        <ele>177.8121</ele>
        <time>2023-07-11T07:30:32.000Z</time>
      </trkpt>
      <trkpt lat="45.81346" lon="4.98487">
        <ele>177.86002</ele>
        <time>2023-07-11T07:30:33.000Z</time>
      </trkpt>
      <trkpt lat="45.81347" lon="4.98482">
        <ele>177.92921</ele>
        <time>2023-07-11T07:30:34.000Z</time>
      </trkpt>
      <trkpt lat="45.81349" lon="4.98478">
        <ele>177.99361</ele>
        <time>2023-07-11T07:30:35.000Z</time>
      </trkpt>
      <trkpt lat="45.81351" lon="4.98474">
        <ele>178.02687</ele>
        <time>2023-07-11T07:30:36.000Z</time>
      </trkpt>
      <trkpt lat="45.81354" lon="4.98471">
        <ele>178.03441</ele>
        <time>2023-07-11T07:30:37.000Z</time>
      </trkpt>
      <trkpt lat="45.81356" lon="4.98468">
        <ele>178.01819</ele>
        <time>2023-07-11T07:30:38.000Z</time>
      </trkpt>
      <trkpt lat="45.81359" lon="4.98466">
        <ele>178.02151</ele>
        <time>2023-07-11T07:30:39.000Z</time>
      </trkpt>
      <trkpt lat="45.81362" lon="4.98465">
        <ele>177.98146</ele>
        <time>2023-07-11T07:30:40.000Z</time>
      </trkpt>
      <trkpt lat="45.81366" lon="4.98464">
        <ele>177.91861</ele>
        <time>2023-07-11T07:30:41.000Z</time>
      </trkpt>
      <trkpt lat="45.8137" lon="4.98462">
        <ele>177.85684</ele>
        <time>2023-07-11T07:30:42.000Z</time>
      </trkpt>
      <trkpt lat="45.81373" lon="4.9846">
        <ele>177.76685</ele>
        <time>2023-07-11T07:30:43.000Z</time>
      </trkpt>
      <trkpt lat="45.81376" lon="4.98456">
        <ele>177.68076</ele>
        <time>2023-07-11T07:30:44.000Z</time>
      </trkpt>
      <trkpt lat="45.81379" lon="4.98452">
        <ele>177.59453</ele>
        <time>2023-07-11T07:30:45.000Z</time>
      </trkpt>
      <trkpt lat="45.81382" lon="4.98448">
        <ele>177.50897</ele>
        <time>2023-07-11T07:30:46.000Z</time>
      </trkpt>
      <trkpt lat="45.81385" lon="4.98444">
        <ele>177.3931</ele>
        <time>2023-07-11T07:30:47.000Z</time>
      </trkpt>
      <trkpt lat="45.81388" lon="4.9844">
        <ele>177.26694</ele>
        <time>2023-07-11T07:30:48.000Z</time>
      </trkpt>
      <trkpt lat="45.81391" lon="4.98436">
        <ele>177.18771</ele>
        <time>2023-07-11T07:30:49.000Z</time>
      </trkpt>
      <trkpt lat="45.81392" lon="4.9843">
        <ele>177.11588</ele>
        <time>2023-07-11T07:30:50.000Z</time>
      </trkpt>
      <trkpt lat="45.81387" lon="4.98423">
        <ele>177.03738</ele>
        <time>2023-07-11T07:30:51.000Z</time>
      </trkpt>
      <trkpt lat="45.81384" lon="4.98418">
        <ele>176.9772</ele>
        <time>2023-07-11T07:30:52.000Z</time>
      </trkpt>
      <trkpt lat="45.8138" lon="4.98413">
        <ele>176.8734</ele>
        <time>2023-07-11T07:30:53.000Z</time>
      </trkpt>
      <trkpt lat="45.81376" lon="4.98409">
        <ele>176.78975</ele>
        <time>2023-07-11T07:30:54.000Z</time>
      </trkpt>
      <trkpt lat="45.81372" lon="4.98405">
        <ele>176.71762</ele>
        <time>2023-07-11T07:30:55.000Z</time>
      </trkpt>
      <trkpt lat="45.81369" lon="4.984">
        <ele>176.66696</ele>
        <time>2023-07-11T07:30:56.000Z</time>
      </trkpt>
      <trkpt lat="45.81366" lon="4.98395">
        <ele>176.65154</ele>
        <time>2023-07-11T07:30:57.000Z</time>
      </trkpt>
      <trkpt lat="45.81363" lon="4.98392">
        <ele>176.67709</ele>
        <time>2023-07-11T07:30:58.000Z</time>
      </trkpt>
      <trkpt lat="45.8136" lon="4.98389">
        <ele>176.74515</ele>
        <time>2023-07-11T07:30:59.000Z</time>
      </trkpt>
      <trkpt lat="45.81358" lon="4.98385">
        <ele>176.85449</ele>
        <time>2023-07-11T07:31:00.000Z</time>
      </trkpt>
      <trkpt lat="45.81357" lon="4.98381">
        <ele>176.96571</ele>
        <time>2023-07-11T07:31:01.000Z</time>
      </trkpt>
      <trkpt lat="45.81356" lon="4.98377">
        <ele>177.06972</ele>
        <time>2023-07-11T07:31:02.000Z</time>
      </trkpt>
      <trkpt lat="45.81359" lon="4.98374">
        <ele>177.1797</ele>
        <time>2023-07-11T07:31:04.000Z</time>
      </trkpt>
      <trkpt lat="45.81362" lon="4.9837">
        <ele>177.27469</ele>
        <time>2023-07-11T07:31:05.000Z</time>
      </trkpt>
      <trkpt lat="45.81365" lon="4.98367">
        <ele>177.38162</ele>
        <time>2023-07-11T07:31:06.000Z</time>
      </trkpt>
      <trkpt lat="45.81368" lon="4.98364">
        <ele>177.45934</ele>
        <time>2023-07-11T07:31:07.000Z</time>
      </trkpt>
      <trkpt lat="45.81371" lon="4.98361">
        <ele>177.56656</ele>
        <time>2023-07-11T07:31:08.000Z</time>
      </trkpt>
      <trkpt lat="45.81373" lon="4.98357">
        <ele>177.64316</ele>
        <time>2023-07-11T07:31:09.000Z</time>
      </trkpt>
      <trkpt lat="45.81376" lon="4.98354">
        <ele>177.66153</ele>
        <time>2023-07-11T07:31:10.000Z</time>
      </trkpt>
      <trkpt lat="45.81379" lon="4.98349">
        <ele>177.68114</ele>
        <time>2023-07-11T07:31:11.000Z</time>
      </trkpt>
      <trkpt lat="45.81381" lon="4.98346">
        <ele>177.69371</ele>
        <time>2023-07-11T07:31:12.000Z</time>
      </trkpt>
      <trkpt lat="45.81384" lon="4.98343">
        <ele>177.65863</ele>
        <time>2023-07-11T07:31:13.000Z</time>
      </trkpt>
      <trkpt lat="45.81388" lon="4.9834">
        <ele>177.64725</ele>
        <time>2023-07-11T07:31:14.000Z</time>
      </trkpt>
      <trkpt lat="45.81392" lon="4.98338">
        <ele>177.60417</ele>
        <time>2023-07-11T07:31:15.000Z</time>
      </trkpt>
      <trkpt lat="45.81396" lon="4.98336">
        <ele>177.47505</ele>
        <time>2023-07-11T07:31:16.000Z</time>
      </trkpt>
      <trkpt lat="45.81401" lon="4.98333">
        <ele>177.34119</ele>
        <time>2023-07-11T07:31:17.000Z</time>
      </trkpt>
      <trkpt lat="45.81405" lon="4.98329">
        <ele>177.20645</ele>
        <time>2023-07-11T07:31:18.000Z</time>
      </trkpt>
      <trkpt lat="45.81409" lon="4.98323">
        <ele>177.05484</ele>
        <time>2023-07-11T07:31:19.000Z</time>
      </trkpt>
      <trkpt lat="45.81413" lon="4.98319">
        <ele>176.88135</ele>
        <time>2023-07-11T07:31:20.000Z</time>
      </trkpt>
      <trkpt lat="45.81416" lon="4.98314">
        <ele>176.70665</ele>
        <time>2023-07-11T07:31:21.000Z</time>
      </trkpt>
      <trkpt lat="45.81419" lon="4.9831">
        <ele>176.59087</ele>
        <time>2023-07-11T07:31:22.000Z</time>
      </trkpt>
      <trkpt lat="45.81423" lon="4.98305">
        <ele>176.44846</ele>
        <time>2023-07-11T07:31:23.000Z</time>
      </trkpt>
      <trkpt lat="45.81426" lon="4.98301">
        <ele>176.30519</ele>
        <time>2023-07-11T07:31:24.000Z</time>
      </trkpt>
      <trkpt lat="45.81429" lon="4.98296">
        <ele>176.15054</ele>
        <time>2023-07-11T07:31:25.000Z</time>
      </trkpt>
      <trkpt lat="45.81433" lon="4.98291">
        <ele>175.88402</ele>
        <time>2023-07-11T07:31:26.000Z</time>
      </trkpt>
      <trkpt lat="45.81436" lon="4.98286">
        <ele>175.66232</ele>
        <time>2023-07-11T07:31:27.000Z</time>
      </trkpt>
      <trkpt lat="45.81439" lon="4.98281">
        <ele>175.44409</ele>
        <time>2023-07-11T07:31:28.000Z</time>
      </trkpt>
      <trkpt lat="45.81442" lon="4.98277">
        <ele>175.27029</ele>
        <time>2023-07-11T07:31:29.000Z</time>
      </trkpt>
      <trkpt lat="45.81445" lon="4.98272">
        <ele>175.16531</ele>
        <time>2023-07-11T07:31:30.000Z</time>
      </trkpt>
      <trkpt lat="45.81447" lon="4.98266">
        <ele>175.06319</ele>
        <time>2023-07-11T07:31:31.000Z</time>
      </trkpt>
      <trkpt lat="45.81447" lon="4.9826">
        <ele>174.94724</ele>
        <time>2023-07-11T07:31:32.000Z</time>
      </trkpt>
      <trkpt lat="45.81447" lon="4.98253">
        <ele>174.85861</ele>
        <time>2023-07-11T07:31:33.000Z</time>
      </trkpt>
      <trkpt lat="45.81448" lon="4.98246">
        <ele>174.75658</ele>
        <time>2023-07-11T07:31:34.000Z</time>
      </trkpt>
      <trkpt lat="45.8145" lon="4.9824">
        <ele>174.67279</ele>
        <time>2023-07-11T07:31:35.000Z</time>
      </trkpt>
      <trkpt lat="45.81453" lon="4.98236">
        <ele>174.65411</ele>
        <time>2023-07-11T07:31:36.000Z</time>
      </trkpt>
      <trkpt lat="45.81456" lon="4.98231">
        <ele>174.63229</ele>
        <time>2023-07-11T07:31:37.000Z</time>
      </trkpt>
      <trkpt lat="45.8146" lon="4.98227">
        <ele>174.63374</ele>
        <time>2023-07-11T07:31:38.000Z</time>
      </trkpt>
      <trkpt lat="45.81463" lon="4.98223">
        <ele>174.66086</ele>
        <time>2023-07-11T07:31:39.000Z</time>
      </trkpt>
      <trkpt lat="45.81466" lon="4.98218">
        <ele>174.68176</ele>
        <time>2023-07-11T07:31:40.000Z</time>
      </trkpt>
      <trkpt lat="45.81469" lon="4.98214">
        <ele>174.69897</ele>
        <time>2023-07-11T07:31:41.000Z</time>
      </trkpt>
      <trkpt lat="45.81472" lon="4.98211">
        <ele>174.69897</ele>
        <time>2023-07-11T07:31:42.000Z</time>
      </trkpt>
      <trkpt lat="45.81475" lon="4.98206">
        <ele>174.72455</ele>
        <time>2023-07-11T07:31:43.000Z</time>
      </trkpt>
      <trkpt lat="45.81479" lon="4.98202">
        <ele>174.77158</ele>
        <time>2023-07-11T07:31:44.000Z</time>
      </trkpt>
      <trkpt lat="45.81482" lon="4.98197">
        <ele>174.75789</ele>
        <time>2023-07-11T07:31:45.000Z</time>
      </trkpt>
      <trkpt lat="45.81486" lon="4.98192">
        <ele>174.87096</ele>
        <time>2023-07-11T07:31:46.000Z</time>
      </trkpt>
      <trkpt lat="45.81489" lon="4.98187">
        <ele>174.95399</ele>
        <time>2023-07-11T07:31:47.000Z</time>
      </trkpt>
      <trkpt lat="45.81493" lon="4.98182">
        <ele>175.05988</ele>
        <time>2023-07-11T07:31:48.000Z</time>
      </trkpt>
      <trkpt lat="45.81496" lon="4.98179">
        <ele>175.13419</ele>
        <time>2023-07-11T07:31:49.000Z</time>
      </trkpt>
      <trkpt lat="45.81499" lon="4.98176">
        <ele>175.16287</ele>
        <time>2023-07-11T07:31:50.000Z</time>
      </trkpt>
      <trkpt lat="45.81503" lon="4.98173">
        <ele>175.15201</ele>
        <time>2023-07-11T07:31:51.000Z</time>
      </trkpt>
      <trkpt lat="45.81506" lon="4.98168">
        <ele>175.19121</ele>
        <time>2023-07-11T07:31:52.000Z</time>
      </trkpt>
      <trkpt lat="45.81507" lon="4.98162">
        <ele>175.23029</ele>
        <time>2023-07-11T07:31:53.000Z</time>
      </trkpt>
      <trkpt lat="45.81508" lon="4.98156">
        <ele>175.2813</ele>
        <time>2023-07-11T07:31:54.000Z</time>
      </trkpt>
      <trkpt lat="45.81508" lon="4.98149">
        <ele>175.34036</ele>
        <time>2023-07-11T07:31:55.000Z</time>
      </trkpt>
      <trkpt lat="45.81505" lon="4.98143">
        <ele>175.43599</ele>
        <time>2023-07-11T07:31:56.000Z</time>
      </trkpt>
      <trkpt lat="45.81503" lon="4.98137">
        <ele>175.53548</ele>
        <time>2023-07-11T07:31:57.000Z</time>
      </trkpt>
      <trkpt lat="45.815" lon="4.9813">
        <ele>175.61078</ele>
        <time>2023-07-11T07:31:58.000Z</time>
      </trkpt>
      <trkpt lat="45.81496" lon="4.98125">
        <ele>175.68663</ele>
        <time>2023-07-11T07:31:59.000Z</time>
      </trkpt>
      <trkpt lat="45.81492" lon="4.9812">
        <ele>175.77554</ele>
        <time>2023-07-11T07:32:00.000Z</time>
      </trkpt>
      <trkpt lat="45.81489" lon="4.98116">
        <ele>175.86996</ele>
        <time>2023-07-11T07:32:01.000Z</time>
      </trkpt>
      <trkpt lat="45.81485" lon="4.98111">
        <ele>175.90836</ele>
        <time>2023-07-11T07:32:02.000Z</time>
      </trkpt>
      <trkpt lat="45.81482" lon="4.98105">
        <ele>175.95583</ele>
        <time>2023-07-11T07:32:03.000Z</time>
      </trkpt>
      <trkpt lat="45.81478" lon="4.98101">
        <ele>176.00217</ele>
        <time>2023-07-11T07:32:04.000Z</time>
      </trkpt>
      <trkpt lat="45.81475" lon="4.98097">
        <ele>176.11078</ele>
        <time>2023-07-11T07:32:05.000Z</time>
      </trkpt>
      <trkpt lat="45.81475" lon="4.98091">
        <ele>176.21553</ele>
        <time>2023-07-11T07:32:06.000Z</time>
      </trkpt>
      <trkpt lat="45.81476" lon="4.98085">
        <ele>176.3325</ele>
        <time>2023-07-11T07:32:07.000Z</time>
      </trkpt>
      <trkpt lat="45.8148" lon="4.98082">
        <ele>176.43385</ele>
        <time>2023-07-11T07:32:08.000Z</time>
      </trkpt>
      <trkpt lat="45.81483" lon="4.9808">
        <ele>176.55902</ele>
        <time>2023-07-11T07:32:09.000Z</time>
      </trkpt>
      <trkpt lat="45.81485" lon="4.98075">
        <ele>176.73711</ele>
        <time>2023-07-11T07:32:10.000Z</time>
      </trkpt>
      <trkpt lat="45.81486" lon="4.9807">
        <ele>176.92555</ele>
        <time>2023-07-11T07:32:11.000Z</time>
      </trkpt>
      <trkpt lat="45.81487" lon="4.98066">
        <ele>177.07492</ele>
        <time>2023-07-11T07:32:12.000Z</time>
      </trkpt>
      <trkpt lat="45.81486" lon="4.9806">
        <ele>177.23854</ele>
        <time>2023-07-11T07:32:13.000Z</time>
      </trkpt>
      <trkpt lat="45.81486" lon="4.98052">
        <ele>177.34656</ele>
        <time>2023-07-11T07:32:14.000Z</time>
      </trkpt>
      <trkpt lat="45.81484" lon="4.98047">
        <ele>177.40771</ele>
        <time>2023-07-11T07:32:15.000Z</time>
      </trkpt>
      <trkpt lat="45.81484" lon="4.98043">
        <ele>177.43643</ele>
        <time>2023-07-11T07:32:16.000Z</time>
      </trkpt>
      <trkpt lat="45.81484" lon="4.98038">
        <ele>177.47005</ele>
        <time>2023-07-11T07:32:17.000Z</time>
      </trkpt>
      <trkpt lat="45.81484" lon="4.98033">
        <ele>177.49271</ele>
        <time>2023-07-11T07:32:18.000Z</time>
      </trkpt>
      <trkpt lat="45.81486" lon="4.98028">
        <ele>177.51041</ele>
        <time>2023-07-11T07:32:19.000Z</time>
      </trkpt>
      <trkpt lat="45.81488" lon="4.98026">
        <ele>177.53081</ele>
        <time>2023-07-11T07:32:20.000Z</time>
      </trkpt>
      <trkpt lat="45.81492" lon="4.98025">
        <ele>177.54518</ele>
        <time>2023-07-11T07:32:21.000Z</time>
      </trkpt>
      <trkpt lat="45.81496" lon="4.98026">
        <ele>177.58347</ele>
        <time>2023-07-11T07:32:22.000Z</time>
      </trkpt>
      <trkpt lat="45.81499" lon="4.98028">
        <ele>177.63548</ele>
        <time>2023-07-11T07:32:23.000Z</time>
      </trkpt>
      <trkpt lat="45.81501" lon="4.98029">
        <ele>177.69122</ele>
        <time>2023-07-11T07:32:24.000Z</time>
      </trkpt>
      <trkpt lat="45.81504" lon="4.98028">
        <ele>177.68819</ele>
        <time>2023-07-11T07:32:26.000Z</time>
      </trkpt>
      <trkpt lat="45.81506" lon="4.98026">
        <ele>177.63643</ele>
        <time>2023-07-11T07:32:27.000Z</time>
      </trkpt>
      <trkpt lat="45.81509" lon="4.98024">
        <ele>177.56686</ele>
        <time>2023-07-11T07:32:28.000Z</time>
      </trkpt>
      <trkpt lat="45.81511" lon="4.98021">
        <ele>177.48183</ele>
        <time>2023-07-11T07:32:29.000Z</time>
      </trkpt>
      <trkpt lat="45.81514" lon="4.98018">
        <ele>177.36952</ele>
        <time>2023-07-11T07:32:30.000Z</time>
      </trkpt>
      <trkpt lat="45.81516" lon="4.98014">
        <ele>177.17783</ele>
        <time>2023-07-11T07:32:31.000Z</time>
      </trkpt>
      <trkpt lat="45.81519" lon="4.9801">
        <ele>176.97475</ele>
        <time>2023-07-11T07:32:32.000Z</time>
      </trkpt>
      <trkpt lat="45.81522" lon="4.98006">
        <ele>176.7941</ele>
        <time>2023-07-11T07:32:33.000Z</time>
      </trkpt>
      <trkpt lat="45.81524" lon="4.98001">
        <ele>176.60812</ele>
        <time>2023-07-11T07:32:34.000Z</time>
      </trkpt>
      <trkpt lat="45.81527" lon="4.97998">
        <ele>176.43239</ele>
        <time>2023-07-11T07:32:35.000Z</time>
      </trkpt>
      <trkpt lat="45.81531" lon="4.97994">
        <ele>176.21622</ele>
        <time>2023-07-11T07:32:36.000Z</time>
      </trkpt>
      <trkpt lat="45.81535" lon="4.97992">
        <ele>176.00197</ele>
        <time>2023-07-11T07:32:37.000Z</time>
      </trkpt>
      <trkpt lat="45.81538" lon="4.97989">
        <ele>175.76839</ele>
        <time>2023-07-11T07:32:38.000Z</time>
      </trkpt>
      <trkpt lat="45.8154" lon="4.97985">
        <ele>175.53091</ele>
        <time>2023-07-11T07:32:39.000Z</time>
      </trkpt>
      <trkpt lat="45.81543" lon="4.9798">
        <ele>175.27574</ele>
        <time>2023-07-11T07:32:40.000Z</time>
      </trkpt>
      <trkpt lat="45.81545" lon="4.97975">
        <ele>175.02559</ele>
        <time>2023-07-11T07:32:41.000Z</time>
      </trkpt>
      <trkpt lat="45.81548" lon="4.9797">
        <ele>174.78795</ele>
        <time>2023-07-11T07:32:42.000Z</time>
      </trkpt>
      <trkpt lat="45.81551" lon="4.97966">
        <ele>174.56975</ele>
        <time>2023-07-11T07:32:43.000Z</time>
      </trkpt>
      <trkpt lat="45.81554" lon="4.9796">
        <ele>174.35103</ele>
        <time>2023-07-11T07:32:44.000Z</time>
      </trkpt>
      <trkpt lat="45.81556" lon="4.97954">
        <ele>174.16936</ele>
        <time>2023-07-11T07:32:45.000Z</time>
      </trkpt>
      <trkpt lat="45.81558" lon="4.97947">
        <ele>174.03815</ele>
        <time>2023-07-11T07:32:46.000Z</time>
      </trkpt>
      <trkpt lat="45.81559" lon="4.97941">
        <ele>173.9875</ele>
        <time>2023-07-11T07:32:47.000Z</time>
      </trkpt>
      <trkpt lat="45.81561" lon="4.97935">
        <ele>173.97279</ele>
        <time>2023-07-11T07:32:48.000Z</time>
      </trkpt>
      <trkpt lat="45.81562" lon="4.9793">
        <ele>173.97258</ele>
        <time>2023-07-11T07:32:49.000Z</time>
      </trkpt>
      <trkpt lat="45.81564" lon="4.97921">
        <ele>174.00609</ele>
        <time>2023-07-11T07:32:50.000Z</time>
      </trkpt>
      <trkpt lat="45.81567" lon="4.97917">
        <ele>174.06964</ele>
        <time>2023-07-11T07:32:51.000Z</time>
      </trkpt>
      <trkpt lat="45.8157" lon="4.97911">
        <ele>174.1441</ele>
        <time>2023-07-11T07:32:52.000Z</time>
      </trkpt>
      <trkpt lat="45.81574" lon="4.97905">
        <ele>174.20195</ele>
        <time>2023-07-11T07:32:53.000Z</time>
      </trkpt>
      <trkpt lat="45.81576" lon="4.97899">
        <ele>174.32445</ele>
        <time>2023-07-11T07:32:54.000Z</time>
      </trkpt>
      <trkpt lat="45.81577" lon="4.97892">
        <ele>174.4646</ele>
        <time>2023-07-11T07:32:55.000Z</time>
      </trkpt>
      <trkpt lat="45.81579" lon="4.97885">
        <ele>174.72937</ele>
        <time>2023-07-11T07:32:56.000Z</time>
      </trkpt>
      <trkpt lat="45.81582" lon="4.97879">
        <ele>174.97702</ele>
        <time>2023-07-11T07:32:57.000Z</time>
      </trkpt>
      <trkpt lat="45.81584" lon="4.97874">
        <ele>175.19753</ele>
        <time>2023-07-11T07:32:58.000Z</time>
      </trkpt>
      <trkpt lat="45.81585" lon="4.97868">
        <ele>175.45576</ele>
        <time>2023-07-11T07:32:59.000Z</time>
      </trkpt>
      <trkpt lat="45.81587" lon="4.97863">
        <ele>175.73926</ele>
        <time>2023-07-11T07:33:00.000Z</time>
      </trkpt>
      <trkpt lat="45.81588" lon="4.97857">
        <ele>175.95346</ele>
        <time>2023-07-11T07:33:01.000Z</time>
      </trkpt>
      <trkpt lat="45.81588" lon="4.97853">
        <ele>176.1561</ele>
        <time>2023-07-11T07:33:02.000Z</time>
      </trkpt>
      <trkpt lat="45.81586" lon="4.97848">
        <ele>176.35776</ele>
        <time>2023-07-11T07:33:03.000Z</time>
      </trkpt>
      <trkpt lat="45.81582" lon="4.97844">
        <ele>176.57327</ele>
        <time>2023-07-11T07:33:04.000Z</time>
      </trkpt>
      <trkpt lat="45.81578" lon="4.97839">
        <ele>176.76593</ele>
        <time>2023-07-11T07:33:05.000Z</time>
      </trkpt>
      <trkpt lat="45.81575" lon="4.97837">
        <ele>176.93777</ele>
        <time>2023-07-11T07:33:06.000Z</time>
      </trkpt>
      <trkpt lat="45.81572" lon="4.97833">
        <ele>177.09253</ele>
        <time>2023-07-11T07:33:07.000Z</time>
      </trkpt>
      <trkpt lat="45.81571" lon="4.97827">
        <ele>177.21274</ele>
        <time>2023-07-11T07:33:08.000Z</time>
      </trkpt>
      <trkpt lat="45.8157" lon="4.97821">
        <ele>177.33586</ele>
        <time>2023-07-11T07:33:09.000Z</time>
      </trkpt>
      <trkpt lat="45.81572" lon="4.97818">
        <ele>177.42693</ele>
        <time>2023-07-11T07:33:10.000Z</time>
      </trkpt>
      <trkpt lat="45.81575" lon="4.97817">
        <ele>177.50467</ele>
        <time>2023-07-11T07:33:11.000Z</time>
      </trkpt>
      <trkpt lat="45.81577" lon="4.97817">
        <ele>177.56969</ele>
        <time>2023-07-11T07:33:12.000Z</time>
      </trkpt>
      <trkpt lat="45.8158" lon="4.97815">
        <ele>177.62105</ele>
        <time>2023-07-11T07:33:13.000Z</time>
      </trkpt>
      <trkpt lat="45.81581" lon="4.97812">
        <ele>177.57631</ele>
        <time>2023-07-11T07:33:14.000Z</time>
      </trkpt>
      <trkpt lat="45.81584" lon="4.9781">
        <ele>177.55365</ele>
        <time>2023-07-11T07:33:15.000Z</time>
      </trkpt>
      <trkpt lat="45.81589" lon="4.9781">
        <ele>177.36859</ele>
        <time>2023-07-11T07:33:16.000Z</time>
      </trkpt>
      <trkpt lat="45.81593" lon="4.97809">
        <ele>177.17999</ele>
        <time>2023-07-11T07:33:17.000Z</time>
      </trkpt>
      <trkpt lat="45.81596" lon="4.97808">
        <ele>177.03281</ele>
        <time>2023-07-11T07:33:18.000Z</time>
      </trkpt>
      <trkpt lat="45.816" lon="4.97806">
        <ele>176.77354</ele>
        <time>2023-07-11T07:33:19.000Z</time>
      </trkpt>
      <trkpt lat="45.81602" lon="4.97805">
        <ele>176.5242</ele>
        <time>2023-07-11T07:33:20.000Z</time>
      </trkpt>
      <trkpt lat="45.81605" lon="4.97803">
        <ele>176.35336</ele>
        <time>2023-07-11T07:33:21.000Z</time>
      </trkpt>
      <trkpt lat="45.81607" lon="4.978">
        <ele>176.13243</ele>
        <time>2023-07-11T07:33:22.000Z</time>
      </trkpt>
      <trkpt lat="45.81609" lon="4.97797">
        <ele>175.93376</ele>
        <time>2023-07-11T07:33:23.000Z</time>
      </trkpt>
      <trkpt lat="45.8161" lon="4.97793">
        <ele>175.71654</ele>
        <time>2023-07-11T07:33:24.000Z</time>
      </trkpt>
      <trkpt lat="45.81611" lon="4.9779">
        <ele>175.48875</ele>
        <time>2023-07-11T07:33:25.000Z</time>
      </trkpt>
      <trkpt lat="45.81613" lon="4.97787">
        <ele>175.28369</ele>
        <time>2023-07-11T07:33:26.000Z</time>
      </trkpt>
      <trkpt lat="45.81615" lon="4.97785">
        <ele>175.03751</ele>
        <time>2023-07-11T07:33:27.000Z</time>
      </trkpt>
      <trkpt lat="45.81617" lon="4.97784">
        <ele>174.76694</ele>
        <time>2023-07-11T07:33:28.000Z</time>
      </trkpt>
      <trkpt lat="45.81619" lon="4.97784">
        <ele>174.49434</ele>
        <time>2023-07-11T07:33:29.000Z</time>
      </trkpt>
      <trkpt lat="45.81619" lon="4.97781">
        <ele>174.18993</ele>
        <time>2023-07-11T07:33:33.000Z</time>
      </trkpt>
      <trkpt lat="45.81619" lon="4.97779">
        <ele>173.72006</ele>
        <time>2023-07-11T07:33:41.000Z</time>
      </trkpt>
      <trkpt lat="45.81618" lon="4.97776">
        <ele>173.18182</ele>
        <time>2023-07-11T07:33:57.000Z</time>
      </trkpt>
      <trkpt lat="45.81618" lon="4.97779">
        <ele>172.69371</ele>
        <time>2023-07-11T07:37:32.000Z</time>
      </trkpt>
      <trkpt lat="45.8162" lon="4.97778">
        <ele>172.25128</ele>
        <time>2023-07-11T07:37:39.000Z</time>
      </trkpt>
      <trkpt lat="45.81622" lon="4.97777">
        <ele>171.79106</ele>
        <time>2023-07-11T07:37:40.000Z</time>
      </trkpt>
      <trkpt lat="45.81624" lon="4.97775">
        <ele>171.45575</ele>
        <time>2023-07-11T07:37:41.000Z</time>
      </trkpt>
      <trkpt lat="45.81627" lon="4.97772">
        <ele>171.15439</ele>
        <time>2023-07-11T07:37:42.000Z</time>
      </trkpt>
      <trkpt lat="45.81631" lon="4.97768">
        <ele>170.85922</ele>
        <time>2023-07-11T07:37:43.000Z</time>
      </trkpt>
      <trkpt lat="45.81634" lon="4.97765">
        <ele>170.66183</ele>
        <time>2023-07-11T07:37:44.000Z</time>
      </trkpt>
      <trkpt lat="45.81638" lon="4.97762">
        <ele>170.44418</ele>
        <time>2023-07-11T07:37:45.000Z</time>
      </trkpt>
      <trkpt lat="45.81642" lon="4.97759">
        <ele>170.19937</ele>
        <time>2023-07-11T07:37:46.000Z</time>
      </trkpt>
      <trkpt lat="45.81646" lon="4.97756">
        <ele>169.99875</ele>
        <time>2023-07-11T07:37:47.000Z</time>
      </trkpt>
      <trkpt lat="45.8165" lon="4.97753">
        <ele>169.76524</ele>
        <time>2023-07-11T07:37:48.000Z</time>
      </trkpt>
      <trkpt lat="45.81653" lon="4.9775">
        <ele>169.53951</ele>
        <time>2023-07-11T07:37:49.000Z</time>
      </trkpt>
      <trkpt lat="45.81657" lon="4.97747">
        <ele>169.30423</ele>
        <time>2023-07-11T07:37:50.000Z</time>
      </trkpt>
      <trkpt lat="45.81661" lon="4.97744">
        <ele>169.26057</ele>
        <time>2023-07-11T07:37:51.000Z</time>
      </trkpt>
      <trkpt lat="45.81665" lon="4.97739">
        <ele>169.2048</ele>
        <time>2023-07-11T07:37:52.000Z</time>
      </trkpt>
      <trkpt lat="45.81669" lon="4.97736">
        <ele>169.19534</ele>
        <time>2023-07-11T07:37:53.000Z</time>
      </trkpt>
      <trkpt lat="45.81672" lon="4.97731">
        <ele>169.1843</ele>
        <time>2023-07-11T07:37:54.000Z</time>
      </trkpt>
      <trkpt lat="45.81676" lon="4.97726">
        <ele>169.24432</ele>
        <time>2023-07-11T07:37:55.000Z</time>
      </trkpt>
      <trkpt lat="45.81681" lon="4.97719">
        <ele>169.33087</ele>
        <time>2023-07-11T07:37:57.000Z</time>
      </trkpt>
      <trkpt lat="45.81683" lon="4.97714">
        <ele>169.54001</ele>
        <time>2023-07-11T07:37:58.000Z</time>
      </trkpt>
      <trkpt lat="45.81689" lon="4.97716">
        <ele>169.77275</ele>
        <time>2023-07-11T07:37:59.000Z</time>
      </trkpt>
      <trkpt lat="45.81692" lon="4.97716">
        <ele>169.98093</ele>
        <time>2023-07-11T07:38:00.000Z</time>
      </trkpt>
      <trkpt lat="45.81695" lon="4.97705">
        <ele>170.16487</ele>
        <time>2023-07-11T07:38:02.000Z</time>
      </trkpt>
      <trkpt lat="45.81697" lon="4.97701">
        <ele>170.35373</ele>
        <time>2023-07-11T07:38:03.000Z</time>
      </trkpt>
      <trkpt lat="45.81699" lon="4.97694">
        <ele>170.59903</ele>
        <time>2023-07-11T07:38:04.000Z</time>
      </trkpt>
      <trkpt lat="45.81697" lon="4.97688">
        <ele>170.8288</ele>
        <time>2023-07-11T07:38:05.000Z</time>
      </trkpt>
      <trkpt lat="45.817" lon="4.97682">
        <ele>171.05806</ele>
        <time>2023-07-11T07:38:06.000Z</time>
      </trkpt>
      <trkpt lat="45.81701" lon="4.97674">
        <ele>171.31931</ele>
        <time>2023-07-11T07:38:07.000Z</time>
      </trkpt>
      <trkpt lat="45.81702" lon="4.97668">
        <ele>171.58916</ele>
        <time>2023-07-11T07:38:08.000Z</time>
      </trkpt>
      <trkpt lat="45.81702" lon="4.97661">
        <ele>171.8409</ele>
        <time>2023-07-11T07:38:09.000Z</time>
      </trkpt>
      <trkpt lat="45.81704" lon="4.97653">
        <ele>172.10368</ele>
        <time>2023-07-11T07:38:10.000Z</time>
      </trkpt>
      <trkpt lat="45.81705" lon="4.97647">
        <ele>172.32857</ele>
        <time>2023-07-11T07:38:11.000Z</time>
      </trkpt>
      <trkpt lat="45.81705" lon="4.9764">
        <ele>172.57684</ele>
        <time>2023-07-11T07:38:12.000Z</time>
      </trkpt>
      <trkpt lat="45.81706" lon="4.97633">
        <ele>172.63937</ele>
        <time>2023-07-11T07:38:13.000Z</time>
      </trkpt>
      <trkpt lat="45.81707" lon="4.97627">
        <ele>172.78415</ele>
        <time>2023-07-11T07:38:14.000Z</time>
      </trkpt>
      <trkpt lat="45.81706" lon="4.97619">
        <ele>172.91713</ele>
        <time>2023-07-11T07:38:15.000Z</time>
      </trkpt>
      <trkpt lat="45.81706" lon="4.97612">
        <ele>173.04843</ele>
        <time>2023-07-11T07:38:16.000Z</time>
      </trkpt>
      <trkpt lat="45.81707" lon="4.97605">
        <ele>173.1489</ele>
        <time>2023-07-11T07:38:17.000Z</time>
      </trkpt>
      <trkpt lat="45.81708" lon="4.97598">
        <ele>173.412</ele>
        <time>2023-07-11T07:38:18.000Z</time>
      </trkpt>
      <trkpt lat="45.81709" lon="4.9759">
        <ele>173.65353</ele>
        <time>2023-07-11T07:38:19.000Z</time>
      </trkpt>
      <trkpt lat="45.8171" lon="4.97583">
        <ele>173.83217</ele>
        <time>2023-07-11T07:38:20.000Z</time>
      </trkpt>
      <trkpt lat="45.81712" lon="4.97575">
        <ele>173.99586</ele>
        <time>2023-07-11T07:38:21.000Z</time>
      </trkpt>
      <trkpt lat="45.81713" lon="4.97568">
        <ele>174.31721</ele>
        <time>2023-07-11T07:38:22.000Z</time>
      </trkpt>
      <trkpt lat="45.81717" lon="4.97564">
        <ele>174.62045</ele>
        <time>2023-07-11T07:38:23.000Z</time>
      </trkpt>
      <trkpt lat="45.8172" lon="4.97559">
        <ele>174.85434</ele>
        <time>2023-07-11T07:38:24.000Z</time>
      </trkpt>
      <trkpt lat="45.81724" lon="4.97554">
        <ele>175.09032</ele>
        <time>2023-07-11T07:38:25.000Z</time>
      </trkpt>
      <trkpt lat="45.81728" lon="4.97548">
        <ele>175.34666</ele>
        <time>2023-07-11T07:38:26.000Z</time>
      </trkpt>
      <trkpt lat="45.81732" lon="4.97542">
        <ele>175.51575</ele>
        <time>2023-07-11T07:38:27.000Z</time>
      </trkpt>
      <trkpt lat="45.81736" lon="4.97536">
        <ele>175.52185</ele>
        <time>2023-07-11T07:38:28.000Z</time>
      </trkpt>
      <trkpt lat="45.81741" lon="4.97531">
        <ele>175.5527</ele>
        <time>2023-07-11T07:38:29.000Z</time>
      </trkpt>
      <trkpt lat="45.81745" lon="4.97526">
        <ele>175.56876</ele>
        <time>2023-07-11T07:38:30.000Z</time>
      </trkpt>
      <trkpt lat="45.81749" lon="4.9752">
        <ele>175.60852</ele>
        <time>2023-07-11T07:38:31.000Z</time>
      </trkpt>
      <trkpt lat="45.81753" lon="4.97514">
        <ele>175.61934</ele>
        <time>2023-07-11T07:38:32.000Z</time>
      </trkpt>
      <trkpt lat="45.81757" lon="4.97508">
        <ele>175.62679</ele>
        <time>2023-07-11T07:38:33.000Z</time>
      </trkpt>
      <trkpt lat="45.81762" lon="4.97503">
        <ele>175.57803</ele>
        <time>2023-07-11T07:38:34.000Z</time>
      </trkpt>
      <trkpt lat="45.81766" lon="4.97498">
        <ele>175.5208</ele>
        <time>2023-07-11T07:38:35.000Z</time>
      </trkpt>
      <trkpt lat="45.8177" lon="4.97493">
        <ele>175.45903</ele>
        <time>2023-07-11T07:38:36.000Z</time>
      </trkpt>
      <trkpt lat="45.81774" lon="4.97488">
        <ele>175.42291</ele>
        <time>2023-07-11T07:38:37.000Z</time>
      </trkpt>
      <trkpt lat="45.81778" lon="4.97483">
        <ele>175.37289</ele>
        <time>2023-07-11T07:38:38.000Z</time>
      </trkpt>
      <trkpt lat="45.81781" lon="4.97479">
        <ele>175.2908</ele>
        <time>2023-07-11T07:38:39.000Z</time>
      </trkpt>
      <trkpt lat="45.81785" lon="4.97475">
        <ele>175.20555</ele>
        <time>2023-07-11T07:38:40.000Z</time>
      </trkpt>
      <trkpt lat="45.81788" lon="4.97472">
        <ele>175.12381</ele>
        <time>2023-07-11T07:38:41.000Z</time>
      </trkpt>
      <trkpt lat="45.81792" lon="4.97467">
        <ele>174.89667</ele>
        <time>2023-07-11T07:38:42.000Z</time>
      </trkpt>
      <trkpt lat="45.81796" lon="4.97461">
        <ele>174.6505</ele>
        <time>2023-07-11T07:38:43.000Z</time>
      </trkpt>
      <trkpt lat="45.81799" lon="4.97459">
        <ele>174.53409</ele>
        <time>2023-07-11T07:38:44.000Z</time>
      </trkpt>
      <trkpt lat="45.818" lon="4.97455">
        <ele>174.42734</ele>
        <time>2023-07-11T07:38:45.000Z</time>
      </trkpt>
      <trkpt lat="45.818" lon="4.97452">
        <ele>174.30525</ele>
        <time>2023-07-11T07:38:46.000Z</time>
      </trkpt>
      <trkpt lat="45.81799" lon="4.97448">
        <ele>174.20326</ele>
        <time>2023-07-11T07:38:47.000Z</time>
      </trkpt>
      <trkpt lat="45.81798" lon="4.97444">
        <ele>174.20792</ele>
        <time>2023-07-11T07:38:48.000Z</time>
      </trkpt>
      <trkpt lat="45.81798" lon="4.97441">
        <ele>174.1925</ele>
        <time>2023-07-11T07:38:49.000Z</time>
      </trkpt>
      <trkpt lat="45.81796" lon="4.97438">
        <ele>174.15028</ele>
        <time>2023-07-11T07:38:50.000Z</time>
      </trkpt>
      <trkpt lat="45.81794" lon="4.97433">
        <ele>174.10907</ele>
        <time>2023-07-11T07:38:51.000Z</time>
      </trkpt>
      <trkpt lat="45.81793" lon="4.97429">
        <ele>174.08707</ele>
        <time>2023-07-11T07:38:52.000Z</time>
      </trkpt>
      <trkpt lat="45.8179" lon="4.97424">
        <ele>174.08693</ele>
        <time>2023-07-11T07:38:53.000Z</time>
      </trkpt>
      <trkpt lat="45.81787" lon="4.9742">
        <ele>174.10355</ele>
        <time>2023-07-11T07:38:54.000Z</time>
      </trkpt>
      <trkpt lat="45.81784" lon="4.97416">
        <ele>174.13162</ele>
        <time>2023-07-11T07:38:55.000Z</time>
      </trkpt>
      <trkpt lat="45.81782" lon="4.97413">
        <ele>174.18433</ele>
        <time>2023-07-11T07:38:56.000Z</time>
      </trkpt>
      <trkpt lat="45.81779" lon="4.97409">
        <ele>174.18961</ele>
        <time>2023-07-11T07:38:57.000Z</time>
      </trkpt>
      <trkpt lat="45.81776" lon="4.97405">
        <ele>174.21356</ele>
        <time>2023-07-11T07:38:58.000Z</time>
      </trkpt>
      <trkpt lat="45.81771" lon="4.97399">
        <ele>174.23718</ele>
        <time>2023-07-11T07:38:59.000Z</time>
      </trkpt>
      <trkpt lat="45.81767" lon="4.97394">
        <ele>174.26715</ele>
        <time>2023-07-11T07:39:00.000Z</time>
      </trkpt>
      <trkpt lat="45.81764" lon="4.97389">
        <ele>174.30853</ele>
        <time>2023-07-11T07:39:01.000Z</time>
      </trkpt>
      <trkpt lat="45.8176" lon="4.97382">
        <ele>174.36949</ele>
        <time>2023-07-11T07:39:02.000Z</time>
      </trkpt>
      <trkpt lat="45.81758" lon="4.97376">
        <ele>174.46561</ele>
        <time>2023-07-11T07:39:03.000Z</time>
      </trkpt>
      <trkpt lat="45.81755" lon="4.9737">
        <ele>174.45766</ele>
        <time>2023-07-11T07:39:04.000Z</time>
      </trkpt>
      <trkpt lat="45.81753" lon="4.97364">
        <ele>174.47928</ele>
        <time>2023-07-11T07:39:05.000Z</time>
      </trkpt>
      <trkpt lat="45.81751" lon="4.97357">
        <ele>174.50952</ele>
        <time>2023-07-11T07:39:06.000Z</time>
      </trkpt>
      <trkpt lat="45.81748" lon="4.97351">
        <ele>174.55533</ele>
        <time>2023-07-11T07:39:07.000Z</time>
      </trkpt>
      <trkpt lat="45.81747" lon="4.97347">
        <ele>174.61191</ele>
        <time>2023-07-11T07:39:08.000Z</time>
      </trkpt>
      <trkpt lat="45.81747" lon="4.9734">
        <ele>174.66615</ele>
        <time>2023-07-11T07:39:09.000Z</time>
      </trkpt>
      <trkpt lat="45.81747" lon="4.97332">
        <ele>174.75772</ele>
        <time>2023-07-11T07:39:10.000Z</time>
      </trkpt>
      <trkpt lat="45.81748" lon="4.97324">
        <ele>174.86844</ele>
        <time>2023-07-11T07:39:11.000Z</time>
      </trkpt>
      <trkpt lat="45.81748" lon="4.97316">
        <ele>174.99826</ele>
        <time>2023-07-11T07:39:12.000Z</time>
      </trkpt>
      <trkpt lat="45.81749" lon="4.97308">
        <ele>175.0919</ele>
        <time>2023-07-11T07:39:13.000Z</time>
      </trkpt>
      <trkpt lat="45.81748" lon="4.973">
        <ele>175.16319</ele>
        <time>2023-07-11T07:39:14.000Z</time>
      </trkpt>
      <trkpt lat="45.81749" lon="4.97294">
        <ele>175.22552</ele>
        <time>2023-07-11T07:39:15.000Z</time>
      </trkpt>
      <trkpt lat="45.8175" lon="4.97287">
        <ele>175.28281</ele>
        <time>2023-07-11T07:39:16.000Z</time>
      </trkpt>
      <trkpt lat="45.81752" lon="4.97281">
        <ele>175.37259</ele>
        <time>2023-07-11T07:39:17.000Z</time>
      </trkpt>
      <trkpt lat="45.81754" lon="4.97275">
        <ele>175.47878</ele>
        <time>2023-07-11T07:39:18.000Z</time>
      </trkpt>
      <trkpt lat="45.81758" lon="4.97271">
        <ele>175.61407</ele>
        <time>2023-07-11T07:39:19.000Z</time>
      </trkpt>
      <trkpt lat="45.81762" lon="4.97268">
        <ele>175.77945</ele>
        <time>2023-07-11T07:39:20.000Z</time>
      </trkpt>
      <trkpt lat="45.81766" lon="4.97264">
        <ele>175.93726</ele>
        <time>2023-07-11T07:39:21.000Z</time>
      </trkpt>
      <trkpt lat="45.81772" lon="4.97264">
        <ele>176.08786</ele>
        <time>2023-07-11T07:39:22.000Z</time>
      </trkpt>
      <trkpt lat="45.81777" lon="4.97263">
        <ele>176.23602</ele>
        <time>2023-07-11T07:39:23.000Z</time>
      </trkpt>
      <trkpt lat="45.81782" lon="4.97262">
        <ele>176.36697</ele>
        <time>2023-07-11T07:39:24.000Z</time>
      </trkpt>
      <trkpt lat="45.81788" lon="4.97262">
        <ele>176.44695</ele>
        <time>2023-07-11T07:39:25.000Z</time>
      </trkpt>
      <trkpt lat="45.81793" lon="4.97262">
        <ele>176.5052</ele>
        <time>2023-07-11T07:39:26.000Z</time>
      </trkpt>
      <trkpt lat="45.81798" lon="4.97262">
        <ele>176.58139</ele>
        <time>2023-07-11T07:39:27.000Z</time>
      </trkpt>
      <trkpt lat="45.81802" lon="4.97263">
        <ele>176.71756</ele>
        <time>2023-07-11T07:39:28.000Z</time>
      </trkpt>
      <trkpt lat="45.81806" lon="4.97265">
        <ele>176.86789</ele>
        <time>2023-07-11T07:39:29.000Z</time>
      </trkpt>
      <trkpt lat="45.81811" lon="4.97265">
        <ele>176.99606</ele>
        <time>2023-07-11T07:39:30.000Z</time>
      </trkpt>
      <trkpt lat="45.81816" lon="4.97267">
        <ele>177.04727</ele>
        <time>2023-07-11T07:39:31.000Z</time>
      </trkpt>
      <trkpt lat="45.81821" lon="4.97267">
        <ele>177.00858</ele>
        <time>2023-07-11T07:39:32.000Z</time>
      </trkpt>
      <trkpt lat="45.81828" lon="4.97265">
        <ele>176.98663</ele>
        <time>2023-07-11T07:39:33.000Z</time>
      </trkpt>
      <trkpt lat="45.81833" lon="4.97261">
        <ele>176.96094</ele>
        <time>2023-07-11T07:39:34.000Z</time>
      </trkpt>
      <trkpt lat="45.81838" lon="4.97258">
        <ele>176.9512</ele>
        <time>2023-07-11T07:39:35.000Z</time>
      </trkpt>
      <trkpt lat="45.81842" lon="4.97254">
        <ele>176.9053</ele>
        <time>2023-07-11T07:39:36.000Z</time>
      </trkpt>
      <trkpt lat="45.81846" lon="4.9725">
        <ele>176.84262</ele>
        <time>2023-07-11T07:39:37.000Z</time>
      </trkpt>
      <trkpt lat="45.81851" lon="4.97246">
        <ele>176.78023</ele>
        <time>2023-07-11T07:39:38.000Z</time>
      </trkpt>
      <trkpt lat="45.81856" lon="4.97241">
        <ele>176.66258</ele>
        <time>2023-07-11T07:39:39.000Z</time>
      </trkpt>
      <trkpt lat="45.8186" lon="4.97237">
        <ele>176.51971</ele>
        <time>2023-07-11T07:39:40.000Z</time>
      </trkpt>
      <trkpt lat="45.81864" lon="4.97232">
        <ele>176.3922</ele>
        <time>2023-07-11T07:39:41.000Z</time>
      </trkpt>
      <trkpt lat="45.81869" lon="4.97228">
        <ele>176.2565</ele>
        <time>2023-07-11T07:39:42.000Z</time>
      </trkpt>
      <trkpt lat="45.81873" lon="4.97223">
        <ele>176.09587</ele>
        <time>2023-07-11T07:39:43.000Z</time>
      </trkpt>
      <trkpt lat="45.81876" lon="4.97217">
        <ele>175.93387</ele>
        <time>2023-07-11T07:39:44.000Z</time>
      </trkpt>
      <trkpt lat="45.8188" lon="4.97212">
        <ele>175.80154</ele>
        <time>2023-07-11T07:39:45.000Z</time>
      </trkpt>
      <trkpt lat="45.81884" lon="4.97206">
        <ele>175.65965</ele>
        <time>2023-07-11T07:39:46.000Z</time>
      </trkpt>
      <trkpt lat="45.81888" lon="4.97201">
        <ele>175.49208</ele>
        <time>2023-07-11T07:39:47.000Z</time>
      </trkpt>
      <trkpt lat="45.81891" lon="4.97196">
        <ele>175.2863</ele>
        <time>2023-07-11T07:39:48.000Z</time>
      </trkpt>
      <trkpt lat="45.81895" lon="4.97191">
        <ele>175.13091</ele>
        <time>2023-07-11T07:39:49.000Z</time>
      </trkpt>
      <trkpt lat="45.81899" lon="4.97187">
        <ele>174.99252</ele>
        <time>2023-07-11T07:39:50.000Z</time>
      </trkpt>
      <trkpt lat="45.81904" lon="4.97182">
        <ele>174.88683</ele>
        <time>2023-07-11T07:39:51.000Z</time>
      </trkpt>
      <trkpt lat="45.81907" lon="4.97178">
        <ele>174.83099</ele>
        <time>2023-07-11T07:39:52.000Z</time>
      </trkpt>
      <trkpt lat="45.81911" lon="4.97173">
        <ele>174.77246</ele>
        <time>2023-07-11T07:39:53.000Z</time>
      </trkpt>
      <trkpt lat="45.81915" lon="4.97168">
        <ele>174.65048</ele>
        <time>2023-07-11T07:39:54.000Z</time>
      </trkpt>
      <trkpt lat="45.81918" lon="4.97164">
        <ele>174.53944</ele>
        <time>2023-07-11T07:39:55.000Z</time>
      </trkpt>
      <trkpt lat="45.81922" lon="4.9716">
        <ele>174.45181</ele>
        <time>2023-07-11T07:39:56.000Z</time>
      </trkpt>
      <trkpt lat="45.81927" lon="4.97156">
        <ele>174.39406</ele>
        <time>2023-07-11T07:39:57.000Z</time>
      </trkpt>
      <trkpt lat="45.81931" lon="4.97152">
        <ele>174.32326</ele>
        <time>2023-07-11T07:39:58.000Z</time>
      </trkpt>
      <trkpt lat="45.81934" lon="4.97148">
        <ele>174.27264</ele>
        <time>2023-07-11T07:39:59.000Z</time>
      </trkpt>
      <trkpt lat="45.81939" lon="4.97144">
        <ele>174.21245</ele>
        <time>2023-07-11T07:40:00.000Z</time>
      </trkpt>
      <trkpt lat="45.81944" lon="4.9714">
        <ele>174.13676</ele>
        <time>2023-07-11T07:40:01.000Z</time>
      </trkpt>
      <trkpt lat="45.81949" lon="4.97135">
        <ele>174.082</ele>
        <time>2023-07-11T07:40:02.000Z</time>
      </trkpt>
      <trkpt lat="45.81954" lon="4.97131">
        <ele>174.06534</ele>
        <time>2023-07-11T07:40:03.000Z</time>
      </trkpt>
      <trkpt lat="45.81958" lon="4.97127">
        <ele>174.05255</ele>
        <time>2023-07-11T07:40:04.000Z</time>
      </trkpt>
      <trkpt lat="45.81963" lon="4.97122">
        <ele>174.02679</ele>
        <time>2023-07-11T07:40:05.000Z</time>
      </trkpt>
      <trkpt lat="45.81967" lon="4.97118">
        <ele>173.9957</ele>
        <time>2023-07-11T07:40:06.000Z</time>
      </trkpt>
      <trkpt lat="45.81971" lon="4.97113">
        <ele>174.00751</ele>
        <time>2023-07-11T07:40:07.000Z</time>
      </trkpt>
      <trkpt lat="45.81975" lon="4.97109">
        <ele>174.05051</ele>
        <time>2023-07-11T07:40:08.000Z</time>
      </trkpt>
      <trkpt lat="45.8198" lon="4.97104">
        <ele>174.05495</ele>
        <time>2023-07-11T07:40:09.000Z</time>
      </trkpt>
      <trkpt lat="45.81984" lon="4.971">
        <ele>174.00781</ele>
        <time>2023-07-11T07:40:10.000Z</time>
      </trkpt>
      <trkpt lat="45.81988" lon="4.97096">
        <ele>173.97247</ele>
        <time>2023-07-11T07:40:11.000Z</time>
      </trkpt>
      <trkpt lat="45.81991" lon="4.97092">
        <ele>173.9583</ele>
        <time>2023-07-11T07:40:12.000Z</time>
      </trkpt>
      <trkpt lat="45.81995" lon="4.97089">
        <ele>173.95885</ele>
        <time>2023-07-11T07:40:13.000Z</time>
      </trkpt>
      <trkpt lat="45.81999" lon="4.97086">
        <ele>174.04802</ele>
        <time>2023-07-11T07:40:14.000Z</time>
      </trkpt>
      <trkpt lat="45.82002" lon="4.97082">
        <ele>174.11813</ele>
        <time>2023-07-11T07:40:15.000Z</time>
      </trkpt>
      <trkpt lat="45.82006" lon="4.97077">
        <ele>174.18468</ele>
        <time>2023-07-11T07:40:16.000Z</time>
      </trkpt>
      <trkpt lat="45.82009" lon="4.97072">
        <ele>174.26833</ele>
        <time>2023-07-11T07:40:17.000Z</time>
      </trkpt>
      <trkpt lat="45.82013" lon="4.97067">
        <ele>174.34561</ele>
        <time>2023-07-11T07:40:18.000Z</time>
      </trkpt>
      <trkpt lat="45.82017" lon="4.97062">
        <ele>174.45041</ele>
        <time>2023-07-11T07:40:19.000Z</time>
      </trkpt>
      <trkpt lat="45.8202" lon="4.97057">
        <ele>174.54439</ele>
        <time>2023-07-11T07:40:20.000Z</time>
      </trkpt>
      <trkpt lat="45.82023" lon="4.97052">
        <ele>174.62082</ele>
        <time>2023-07-11T07:40:21.000Z</time>
      </trkpt>
      <trkpt lat="45.82025" lon="4.97048">
        <ele>174.70381</ele>
        <time>2023-07-11T07:40:22.000Z</time>
      </trkpt>
      <trkpt lat="45.82027" lon="4.97041">
        <ele>174.77379</ele>
        <time>2023-07-11T07:40:23.000Z</time>
      </trkpt>
      <trkpt lat="45.82029" lon="4.97035">
        <ele>174.83351</ele>
        <time>2023-07-11T07:40:24.000Z</time>
      </trkpt>
      <trkpt lat="45.82031" lon="4.97027">
        <ele>174.86156</ele>
        <time>2023-07-11T07:40:25.000Z</time>
      </trkpt>
      <trkpt lat="45.82033" lon="4.9702">
        <ele>174.89597</ele>
        <time>2023-07-11T07:40:26.000Z</time>
      </trkpt>
      <trkpt lat="45.82036" lon="4.97012">
        <ele>174.91109</ele>
        <time>2023-07-11T07:40:27.000Z</time>
      </trkpt>
      <trkpt lat="45.82037" lon="4.97006">
        <ele>174.93567</ele>
        <time>2023-07-11T07:40:28.000Z</time>
      </trkpt>
      <trkpt lat="45.82039" lon="4.97">
        <ele>174.96793</ele>
        <time>2023-07-11T07:40:29.000Z</time>
      </trkpt>
      <trkpt lat="45.82043" lon="4.96993">
        <ele>174.9157</ele>
        <time>2023-07-11T07:40:30.000Z</time>
      </trkpt>
      <trkpt lat="45.82045" lon="4.96985">
        <ele>174.8903</ele>
        <time>2023-07-11T07:40:31.000Z</time>
      </trkpt>
      <trkpt lat="45.82046" lon="4.96978">
        <ele>174.89134</ele>
        <time>2023-07-11T07:40:32.000Z</time>
      </trkpt>
      <trkpt lat="45.82046" lon="4.96972">
        <ele>174.91545</ele>
        <time>2023-07-11T07:40:33.000Z</time>
      </trkpt>
      <trkpt lat="45.82045" lon="4.96965">
        <ele>174.94131</ele>
        <time>2023-07-11T07:40:34.000Z</time>
      </trkpt>
      <trkpt lat="45.82045" lon="4.96958">
        <ele>174.94772</ele>
        <time>2023-07-11T07:40:35.000Z</time>
      </trkpt>
      <trkpt lat="45.82045" lon="4.9695">
        <ele>174.97163</ele>
        <time>2023-07-11T07:40:36.000Z</time>
      </trkpt>
      <trkpt lat="45.82045" lon="4.96943">
        <ele>174.95718</ele>
        <time>2023-07-11T07:40:37.000Z</time>
      </trkpt>
      <trkpt lat="45.82045" lon="4.96935">
        <ele>174.97063</ele>
        <time>2023-07-11T07:40:38.000Z</time>
      </trkpt>
      <trkpt lat="45.82047" lon="4.96927">
        <ele>175.02084</ele>
        <time>2023-07-11T07:40:39.000Z</time>
      </trkpt>
      <trkpt lat="45.82049" lon="4.9692">
        <ele>175.06924</ele>
        <time>2023-07-11T07:40:40.000Z</time>
      </trkpt>
      <trkpt lat="45.82052" lon="4.96911">
        <ele>175.04567</ele>
        <time>2023-07-11T07:40:41.000Z</time>
      </trkpt>
      <trkpt lat="45.82054" lon="4.96904">
        <ele>175.00208</ele>
        <time>2023-07-11T07:40:42.000Z</time>
      </trkpt>
      <trkpt lat="45.82056" lon="4.96897">
        <ele>174.93259</ele>
        <time>2023-07-11T07:40:43.000Z</time>
      </trkpt>
      <trkpt lat="45.82057" lon="4.9689">
        <ele>174.85184</ele>
        <time>2023-07-11T07:40:44.000Z</time>
      </trkpt>
      <trkpt lat="45.82057" lon="4.96882">
        <ele>174.819</ele>
        <time>2023-07-11T07:40:45.000Z</time>
      </trkpt>
      <trkpt lat="45.82058" lon="4.96875">
        <ele>174.78445</ele>
        <time>2023-07-11T07:40:46.000Z</time>
      </trkpt>
      <trkpt lat="45.82057" lon="4.96866">
        <ele>174.77223</ele>
        <time>2023-07-11T07:40:47.000Z</time>
      </trkpt>
      <trkpt lat="45.82058" lon="4.9686">
        <ele>174.72318</ele>
        <time>2023-07-11T07:40:48.000Z</time>
      </trkpt>
      <trkpt lat="45.82059" lon="4.96852">
        <ele>174.66855</ele>
        <time>2023-07-11T07:40:49.000Z</time>
      </trkpt>
      <trkpt lat="45.8206" lon="4.96845">
        <ele>174.73497</ele>
        <time>2023-07-11T07:40:50.000Z</time>
      </trkpt>
      <trkpt lat="45.82061" lon="4.96838">
        <ele>174.73959</ele>
        <time>2023-07-11T07:40:51.000Z</time>
      </trkpt>
      <trkpt lat="45.82062" lon="4.96832">
        <ele>174.70815</ele>
        <time>2023-07-11T07:40:52.000Z</time>
      </trkpt>
      <trkpt lat="45.82063" lon="4.96825">
        <ele>174.65239</ele>
        <time>2023-07-11T07:40:53.000Z</time>
      </trkpt>
      <trkpt lat="45.82064" lon="4.96818">
        <ele>174.6077</ele>
        <time>2023-07-11T07:40:54.000Z</time>
      </trkpt>
      <trkpt lat="45.82064" lon="4.96811">
        <ele>174.60162</ele>
        <time>2023-07-11T07:40:55.000Z</time>
      </trkpt>
      <trkpt lat="45.82066" lon="4.96804">
        <ele>174.56636</ele>
        <time>2023-07-11T07:40:56.000Z</time>
      </trkpt>
      <trkpt lat="45.82067" lon="4.96796">
        <ele>174.50223</ele>
        <time>2023-07-11T07:40:57.000Z</time>
      </trkpt>
      <trkpt lat="45.82066" lon="4.96789">
        <ele>174.41646</ele>
        <time>2023-07-11T07:40:58.000Z</time>
      </trkpt>
      <trkpt lat="45.82066" lon="4.96783">
        <ele>174.31541</ele>
        <time>2023-07-11T07:40:59.000Z</time>
      </trkpt>
      <trkpt lat="45.82067" lon="4.96776">
        <ele>174.23888</ele>
        <time>2023-07-11T07:41:00.000Z</time>
      </trkpt>
      <trkpt lat="45.82067" lon="4.9677">
        <ele>174.22508</ele>
        <time>2023-07-11T07:41:01.000Z</time>
      </trkpt>
      <trkpt lat="45.82067" lon="4.96763">
        <ele>174.20023</ele>
        <time>2023-07-11T07:41:02.000Z</time>
      </trkpt>
      <trkpt lat="45.82067" lon="4.96756">
        <ele>174.16161</ele>
        <time>2023-07-11T07:41:03.000Z</time>
      </trkpt>
      <trkpt lat="45.82067" lon="4.96748">
        <ele>174.20197</ele>
        <time>2023-07-11T07:41:04.000Z</time>
      </trkpt>
      <trkpt lat="45.82067" lon="4.9674">
        <ele>174.22186</ele>
        <time>2023-07-11T07:41:05.000Z</time>
      </trkpt>
      <trkpt lat="45.82067" lon="4.96732">
        <ele>174.2529</ele>
        <time>2023-07-11T07:41:06.000Z</time>
      </trkpt>
      <trkpt lat="45.82068" lon="4.96724">
        <ele>174.25162</ele>
        <time>2023-07-11T07:41:07.000Z</time>
      </trkpt>
      <trkpt lat="45.82068" lon="4.96718">
        <ele>174.2352</ele>
        <time>2023-07-11T07:41:08.000Z</time>
      </trkpt>
      <trkpt lat="45.82068" lon="4.96711">
        <ele>174.20227</ele>
        <time>2023-07-11T07:41:09.000Z</time>
      </trkpt>
      <trkpt lat="45.82067" lon="4.96704">
        <ele>174.22026</ele>
        <time>2023-07-11T07:41:10.000Z</time>
      </trkpt>
      <trkpt lat="45.82067" lon="4.96697">
        <ele>174.26573</ele>
        <time>2023-07-11T07:41:11.000Z</time>
      </trkpt>
      <trkpt lat="45.82065" lon="4.96689">
        <ele>174.31308</ele>
        <time>2023-07-11T07:41:12.000Z</time>
      </trkpt>
      <trkpt lat="45.82064" lon="4.96683">
        <ele>174.38954</ele>
        <time>2023-07-11T07:41:13.000Z</time>
      </trkpt>
      <trkpt lat="45.82062" lon="4.96678">
        <ele>174.44225</ele>
        <time>2023-07-11T07:41:14.000Z</time>
      </trkpt>
      <trkpt lat="45.8206" lon="4.96673">
        <ele>174.47343</ele>
        <time>2023-07-11T07:41:15.000Z</time>
      </trkpt>
      <trkpt lat="45.82058" lon="4.96667">
        <ele>174.48209</ele>
        <time>2023-07-11T07:41:16.000Z</time>
      </trkpt>
      <trkpt lat="45.82055" lon="4.96661">
        <ele>174.51904</ele>
        <time>2023-07-11T07:41:17.000Z</time>
      </trkpt>
      <trkpt lat="45.82053" lon="4.96653">
        <ele>174.54581</ele>
        <time>2023-07-11T07:41:18.000Z</time>
      </trkpt>
      <trkpt lat="45.82051" lon="4.9665">
        <ele>174.4491</ele>
        <time>2023-07-11T07:41:19.000Z</time>
      </trkpt>
      <trkpt lat="45.82047" lon="4.96644">
        <ele>174.38165</ele>
        <time>2023-07-11T07:41:20.000Z</time>
      </trkpt>
      <trkpt lat="45.82044" lon="4.96636">
        <ele>174.32217</ele>
        <time>2023-07-11T07:41:21.000Z</time>
      </trkpt>
      <trkpt lat="45.82041" lon="4.9663">
        <ele>174.34622</ele>
        <time>2023-07-11T07:41:22.000Z</time>
      </trkpt>
      <trkpt lat="45.82038" lon="4.96623">
        <ele>174.40869</ele>
        <time>2023-07-11T07:41:23.000Z</time>
      </trkpt>
      <trkpt lat="45.82036" lon="4.96616">
        <ele>174.40549</ele>
        <time>2023-07-11T07:41:24.000Z</time>
      </trkpt>
      <trkpt lat="45.82034" lon="4.96609">
        <ele>174.42448</ele>
        <time>2023-07-11T07:41:25.000Z</time>
      </trkpt>
      <trkpt lat="45.82033" lon="4.96601">
        <ele>174.48845</ele>
        <time>2023-07-11T07:41:26.000Z</time>
      </trkpt>
      <trkpt lat="45.82032" lon="4.96592">
        <ele>174.52994</ele>
        <time>2023-07-11T07:41:27.000Z</time>
      </trkpt>
      <trkpt lat="45.82031" lon="4.96583">
        <ele>174.5701</ele>
        <time>2023-07-11T07:41:28.000Z</time>
      </trkpt>
      <trkpt lat="45.8203" lon="4.96576">
        <ele>174.6404</ele>
        <time>2023-07-11T07:41:29.000Z</time>
      </trkpt>
      <trkpt lat="45.82029" lon="4.96568">
        <ele>174.66353</ele>
        <time>2023-07-11T07:41:30.000Z</time>
      </trkpt>
      <trkpt lat="45.82028" lon="4.9656">
        <ele>174.65952</ele>
        <time>2023-07-11T07:41:31.000Z</time>
      </trkpt>
      <trkpt lat="45.82026" lon="4.96554">
        <ele>174.64641</ele>
        <time>2023-07-11T07:41:32.000Z</time>
      </trkpt>
      <trkpt lat="45.82024" lon="4.96547">
        <ele>174.5677</ele>
        <time>2023-07-11T07:41:33.000Z</time>
      </trkpt>
      <trkpt lat="45.82021" lon="4.9654">
        <ele>174.48637</ele>
        <time>2023-07-11T07:41:34.000Z</time>
      </trkpt>
      <trkpt lat="45.82018" lon="4.96535">
        <ele>174.39189</ele>
        <time>2023-07-11T07:41:35.000Z</time>
      </trkpt>
      <trkpt lat="45.82016" lon="4.96528">
        <ele>174.34532</ele>
        <time>2023-07-11T07:41:36.000Z</time>
      </trkpt>
      <trkpt lat="45.82014" lon="4.96522">
        <ele>174.29385</ele>
        <time>2023-07-11T07:41:37.000Z</time>
      </trkpt>
      <trkpt lat="45.82013" lon="4.96515">
        <ele>174.2294</ele>
        <time>2023-07-11T07:41:38.000Z</time>
      </trkpt>
      <trkpt lat="45.82012" lon="4.96507">
        <ele>174.30354</ele>
        <time>2023-07-11T07:41:39.000Z</time>
      </trkpt>
      <trkpt lat="45.82011" lon="4.96499">
        <ele>174.36818</ele>
        <time>2023-07-11T07:41:40.000Z</time>
      </trkpt>
      <trkpt lat="45.82011" lon="4.96492">
        <ele>174.45953</ele>
        <time>2023-07-11T07:41:41.000Z</time>
      </trkpt>
      <trkpt lat="45.82011" lon="4.96484">
        <ele>174.51886</ele>
        <time>2023-07-11T07:41:42.000Z</time>
      </trkpt>
      <trkpt lat="45.8201" lon="4.96475">
        <ele>174.54024</ele>
        <time>2023-07-11T07:41:43.000Z</time>
      </trkpt>
      <trkpt lat="45.82009" lon="4.96469">
        <ele>174.56149</ele>
        <time>2023-07-11T07:41:44.000Z</time>
      </trkpt>
      <trkpt lat="45.82008" lon="4.9646">
        <ele>174.60275</ele>
        <time>2023-07-11T07:41:45.000Z</time>
      </trkpt>
      <trkpt lat="45.82007" lon="4.96453">
        <ele>174.60339</ele>
        <time>2023-07-11T07:41:46.000Z</time>
      </trkpt>
      <trkpt lat="45.82006" lon="4.96445">
        <ele>174.61734</ele>
        <time>2023-07-11T07:41:47.000Z</time>
      </trkpt>
      <trkpt lat="45.82005" lon="4.96436">
        <ele>174.62546</ele>
        <time>2023-07-11T07:41:48.000Z</time>
      </trkpt>
      <trkpt lat="45.82005" lon="4.96428">
        <ele>174.61501</ele>
        <time>2023-07-11T07:41:49.000Z</time>
      </trkpt>
      <trkpt lat="45.82003" lon="4.9642">
        <ele>174.63156</ele>
        <time>2023-07-11T07:41:50.000Z</time>
      </trkpt>
      <trkpt lat="45.82002" lon="4.96414">
        <ele>174.6553</ele>
        <time>2023-07-11T07:41:51.000Z</time>
      </trkpt>
      <trkpt lat="45.82001" lon="4.96407">
        <ele>174.69131</ele>
        <time>2023-07-11T07:41:52.000Z</time>
      </trkpt>
      <trkpt lat="45.82" lon="4.964">
        <ele>174.78702</ele>
        <time>2023-07-11T07:41:53.000Z</time>
      </trkpt>
      <trkpt lat="45.81999" lon="4.96392">
        <ele>174.85815</ele>
        <time>2023-07-11T07:41:54.000Z</time>
      </trkpt>
      <trkpt lat="45.81997" lon="4.96385">
        <ele>174.9277</ele>
        <time>2023-07-11T07:41:55.000Z</time>
      </trkpt>
      <trkpt lat="45.81996" lon="4.96377">
        <ele>174.95798</ele>
        <time>2023-07-11T07:41:56.000Z</time>
      </trkpt>
      <trkpt lat="45.81995" lon="4.9637">
        <ele>175.00163</ele>
        <time>2023-07-11T07:41:57.000Z</time>
      </trkpt>
      <trkpt lat="45.81994" lon="4.96362">
        <ele>175.03166</ele>
        <time>2023-07-11T07:41:58.000Z</time>
      </trkpt>
      <trkpt lat="45.81993" lon="4.96354">
        <ele>175.02179</ele>
        <time>2023-07-11T07:41:59.000Z</time>
      </trkpt>
      <trkpt lat="45.81992" lon="4.96347">
        <ele>175.01912</ele>
        <time>2023-07-11T07:42:00.000Z</time>
      </trkpt>
      <trkpt lat="45.8199" lon="4.9634">
        <ele>175.0231</ele>
        <time>2023-07-11T07:42:01.000Z</time>
      </trkpt>
      <trkpt lat="45.81989" lon="4.96332">
        <ele>174.99097</ele>
        <time>2023-07-11T07:42:02.000Z</time>
      </trkpt>
      <trkpt lat="45.81988" lon="4.96325">
        <ele>174.96666</ele>
        <time>2023-07-11T07:42:03.000Z</time>
      </trkpt>
      <trkpt lat="45.81987" lon="4.96317">
        <ele>174.95457</ele>
        <time>2023-07-11T07:42:04.000Z</time>
      </trkpt>
      <trkpt lat="45.81985" lon="4.96309">
        <ele>174.9229</ele>
        <time>2023-07-11T07:42:05.000Z</time>
      </trkpt>
      <trkpt lat="45.81984" lon="4.96301">
        <ele>174.87204</ele>
        <time>2023-07-11T07:42:06.000Z</time>
      </trkpt>
      <trkpt lat="45.81983" lon="4.96292">
        <ele>174.85223</ele>
        <time>2023-07-11T07:42:07.000Z</time>
      </trkpt>
      <trkpt lat="45.81982" lon="4.96284">
        <ele>174.85899</ele>
        <time>2023-07-11T07:42:08.000Z</time>
      </trkpt>
      <trkpt lat="45.81981" lon="4.96276">
        <ele>174.87643</ele>
        <time>2023-07-11T07:42:09.000Z</time>
      </trkpt>
      <trkpt lat="45.81981" lon="4.96268">
        <ele>174.90155</ele>
        <time>2023-07-11T07:42:10.000Z</time>
      </trkpt>
      <trkpt lat="45.8198" lon="4.96259">
        <ele>174.97055</ele>
        <time>2023-07-11T07:42:11.000Z</time>
      </trkpt>
      <trkpt lat="45.8198" lon="4.96252">
        <ele>175.03505</ele>
        <time>2023-07-11T07:42:12.000Z</time>
      </trkpt>
      <trkpt lat="45.81979" lon="4.96245">
        <ele>175.05145</ele>
        <time>2023-07-11T07:42:13.000Z</time>
      </trkpt>
      <trkpt lat="45.81978" lon="4.96237">
        <ele>175.07904</ele>
        <time>2023-07-11T07:42:14.000Z</time>
      </trkpt>
      <trkpt lat="45.81978" lon="4.9623">
        <ele>175.11528</ele>
        <time>2023-07-11T07:42:15.000Z</time>
      </trkpt>
      <trkpt lat="45.81977" lon="4.96223">
        <ele>175.15152</ele>
        <time>2023-07-11T07:42:16.000Z</time>
      </trkpt>
      <trkpt lat="45.81976" lon="4.96215">
        <ele>175.17047</ele>
        <time>2023-07-11T07:42:17.000Z</time>
      </trkpt>
      <trkpt lat="45.81976" lon="4.96207">
        <ele>175.19707</ele>
        <time>2023-07-11T07:42:18.000Z</time>
      </trkpt>
      <trkpt lat="45.81975" lon="4.96199">
        <ele>175.22882</ele>
        <time>2023-07-11T07:42:19.000Z</time>
      </trkpt>
      <trkpt lat="45.81973" lon="4.96191">
        <ele>175.22887</ele>
        <time>2023-07-11T07:42:20.000Z</time>
      </trkpt>
      <trkpt lat="45.81972" lon="4.96184">
        <ele>175.22878</ele>
        <time>2023-07-11T07:42:21.000Z</time>
      </trkpt>
      <trkpt lat="45.81971" lon="4.96176">
        <ele>175.24867</ele>
        <time>2023-07-11T07:42:22.000Z</time>
      </trkpt>
      <trkpt lat="45.8197" lon="4.96168">
        <ele>175.27615</ele>
        <time>2023-07-11T07:42:23.000Z</time>
      </trkpt>
      <trkpt lat="45.81968" lon="4.9616">
        <ele>175.29671</ele>
        <time>2023-07-11T07:42:24.000Z</time>
      </trkpt>
      <trkpt lat="45.81967" lon="4.96152">
        <ele>175.30698</ele>
        <time>2023-07-11T07:42:25.000Z</time>
      </trkpt>
      <trkpt lat="45.81966" lon="4.96145">
        <ele>175.33768</ele>
        <time>2023-07-11T07:42:26.000Z</time>
      </trkpt>
      <trkpt lat="45.81965" lon="4.96137">
        <ele>175.3726</ele>
        <time>2023-07-11T07:42:27.000Z</time>
      </trkpt>
      <trkpt lat="45.81964" lon="4.96129">
        <ele>175.40057</ele>
        <time>2023-07-11T07:42:28.000Z</time>
      </trkpt>
      <trkpt lat="45.81964" lon="4.96122">
        <ele>175.41023</ele>
        <time>2023-07-11T07:42:29.000Z</time>
      </trkpt>
      <trkpt lat="45.81963" lon="4.96114">
        <ele>175.38322</ele>
        <time>2023-07-11T07:42:30.000Z</time>
      </trkpt>
      <trkpt lat="45.81962" lon="4.96106">
        <ele>175.34103</ele>
        <time>2023-07-11T07:42:31.000Z</time>
      </trkpt>
      <trkpt lat="45.81961" lon="4.96097">
        <ele>175.31755</ele>
        <time>2023-07-11T07:42:32.000Z</time>
      </trkpt>
      <trkpt lat="45.8196" lon="4.96089">
        <ele>175.31499</ele>
        <time>2023-07-11T07:42:33.000Z</time>
      </trkpt>
      <trkpt lat="45.81959" lon="4.96081">
        <ele>175.33069</ele>
        <time>2023-07-11T07:42:34.000Z</time>
      </trkpt>
      <trkpt lat="45.81959" lon="4.96074">
        <ele>175.34186</ele>
        <time>2023-07-11T07:42:35.000Z</time>
      </trkpt>
      <trkpt lat="45.81959" lon="4.96067">
        <ele>175.37535</ele>
        <time>2023-07-11T07:42:36.000Z</time>
      </trkpt>
      <trkpt lat="45.8196" lon="4.9606">
        <ele>175.408</ele>
        <time>2023-07-11T07:42:37.000Z</time>
      </trkpt>
      <trkpt lat="45.8196" lon="4.96053">
        <ele>175.44643</ele>
        <time>2023-07-11T07:42:38.000Z</time>
      </trkpt>
      <trkpt lat="45.81961" lon="4.96045">
        <ele>175.48953</ele>
        <time>2023-07-11T07:42:39.000Z</time>
      </trkpt>
      <trkpt lat="45.81962" lon="4.96038">
        <ele>175.54285</ele>
        <time>2023-07-11T07:42:40.000Z</time>
      </trkpt>
      <trkpt lat="45.81962" lon="4.96031">
        <ele>175.55385</ele>
        <time>2023-07-11T07:42:41.000Z</time>
      </trkpt>
      <trkpt lat="45.81963" lon="4.96024">
        <ele>175.57867</ele>
        <time>2023-07-11T07:42:42.000Z</time>
      </trkpt>
      <trkpt lat="45.81962" lon="4.96017">
        <ele>175.63586</ele>
        <time>2023-07-11T07:42:43.000Z</time>
      </trkpt>
      <trkpt lat="45.81961" lon="4.96012">
        <ele>175.72066</ele>
        <time>2023-07-11T07:42:44.000Z</time>
      </trkpt>
      <trkpt lat="45.81963" lon="4.96003">
        <ele>175.73923</ele>
        <time>2023-07-11T07:42:45.000Z</time>
      </trkpt>
      <trkpt lat="45.81964" lon="4.95996">
        <ele>175.81349</ele>
        <time>2023-07-11T07:42:46.000Z</time>
      </trkpt>
      <trkpt lat="45.81965" lon="4.95988">
        <ele>175.83488</ele>
        <time>2023-07-11T07:42:47.000Z</time>
      </trkpt>
      <trkpt lat="45.81967" lon="4.95981">
        <ele>175.81512</ele>
        <time>2023-07-11T07:42:48.000Z</time>
      </trkpt>
      <trkpt lat="45.81968" lon="4.95974">
        <ele>175.80211</ele>
        <time>2023-07-11T07:42:49.000Z</time>
      </trkpt>
      <trkpt lat="45.81968" lon="4.95966">
        <ele>175.77615</ele>
        <time>2023-07-11T07:42:50.000Z</time>
      </trkpt>
      <trkpt lat="45.81968" lon="4.95958">
        <ele>175.72693</ele>
        <time>2023-07-11T07:42:51.000Z</time>
      </trkpt>
      <trkpt lat="45.81966" lon="4.9595">
        <ele>175.64212</ele>
        <time>2023-07-11T07:42:52.000Z</time>
      </trkpt>
      <trkpt lat="45.81965" lon="4.95944">
        <ele>175.58513</ele>
        <time>2023-07-11T07:42:53.000Z</time>
      </trkpt>
      <trkpt lat="45.81963" lon="4.95937">
        <ele>175.44205</ele>
        <time>2023-07-11T07:42:54.000Z</time>
      </trkpt>
      <trkpt lat="45.81963" lon="4.95929">
        <ele>175.29361</ele>
        <time>2023-07-11T07:42:55.000Z</time>
      </trkpt>
      <trkpt lat="45.81962" lon="4.95921">
        <ele>175.15286</ele>
        <time>2023-07-11T07:42:56.000Z</time>
      </trkpt>
      <trkpt lat="45.8196" lon="4.95914">
        <ele>174.98627</ele>
        <time>2023-07-11T07:42:57.000Z</time>
      </trkpt>
      <trkpt lat="45.81958" lon="4.95906">
        <ele>174.82996</ele>
        <time>2023-07-11T07:42:58.000Z</time>
      </trkpt>
      <trkpt lat="45.81958" lon="4.95899">
        <ele>174.63863</ele>
        <time>2023-07-11T07:42:59.000Z</time>
      </trkpt>
      <trkpt lat="45.81958" lon="4.95892">
        <ele>174.39011</ele>
        <time>2023-07-11T07:43:00.000Z</time>
      </trkpt>
      <trkpt lat="45.81957" lon="4.95885">
        <ele>174.1713</ele>
        <time>2023-07-11T07:43:01.000Z</time>
      </trkpt>
      <trkpt lat="45.81955" lon="4.95877">
        <ele>173.92686</ele>
        <time>2023-07-11T07:43:02.000Z</time>
      </trkpt>
      <trkpt lat="45.81954" lon="4.95869">
        <ele>173.66179</ele>
        <time>2023-07-11T07:43:03.000Z</time>
      </trkpt>
      <trkpt lat="45.81952" lon="4.95863">
        <ele>173.32768</ele>
        <time>2023-07-11T07:43:04.000Z</time>
      </trkpt>
      <trkpt lat="45.81951" lon="4.95856">
        <ele>173.07156</ele>
        <time>2023-07-11T07:43:05.000Z</time>
      </trkpt>
      <trkpt lat="45.8195" lon="4.95848">
        <ele>172.7897</ele>
        <time>2023-07-11T07:43:06.000Z</time>
      </trkpt>
      <trkpt lat="45.81948" lon="4.95841">
        <ele>172.55386</ele>
        <time>2023-07-11T07:43:07.000Z</time>
      </trkpt>
      <trkpt lat="45.81948" lon="4.95834">
        <ele>172.37813</ele>
        <time>2023-07-11T07:43:08.000Z</time>
      </trkpt>
      <trkpt lat="45.81946" lon="4.95826">
        <ele>172.21811</ele>
        <time>2023-07-11T07:43:09.000Z</time>
      </trkpt>
      <trkpt lat="45.81944" lon="4.95819">
        <ele>172.08746</ele>
        <time>2023-07-11T07:43:10.000Z</time>
      </trkpt>
      <trkpt lat="45.81942" lon="4.95813">
        <ele>171.96768</ele>
        <time>2023-07-11T07:43:11.000Z</time>
      </trkpt>
      <trkpt lat="45.8194" lon="4.95806">
        <ele>171.85869</ele>
        <time>2023-07-11T07:43:12.000Z</time>
      </trkpt>
      <trkpt lat="45.81937" lon="4.95799">
        <ele>171.71019</ele>
        <time>2023-07-11T07:43:13.000Z</time>
      </trkpt>
      <trkpt lat="45.81935" lon="4.95791">
        <ele>171.6488</ele>
        <time>2023-07-11T07:43:14.000Z</time>
      </trkpt>
      <trkpt lat="45.81934" lon="4.95783">
        <ele>171.60271</ele>
        <time>2023-07-11T07:43:15.000Z</time>
      </trkpt>
      <trkpt lat="45.81932" lon="4.95776">
        <ele>171.5528</ele>
        <time>2023-07-11T07:43:16.000Z</time>
      </trkpt>
      <trkpt lat="45.8193" lon="4.95769">
        <ele>171.52682</ele>
        <time>2023-07-11T07:43:17.000Z</time>
      </trkpt>
      <trkpt lat="45.8193" lon="4.95765">
        <ele>171.4944</ele>
        <time>2023-07-11T07:43:18.000Z</time>
      </trkpt>
      <trkpt lat="45.8193" lon="4.95761">
        <ele>171.50276</ele>
        <time>2023-07-11T07:43:19.000Z</time>
      </trkpt>
      <trkpt lat="45.8193" lon="4.95757">
        <ele>171.59154</ele>
        <time>2023-07-11T07:43:20.000Z</time>
      </trkpt>
      <trkpt lat="45.81929" lon="4.95753">
        <ele>171.66878</ele>
        <time>2023-07-11T07:43:21.000Z</time>
      </trkpt>
      <trkpt lat="45.81929" lon="4.95748">
        <ele>171.73848</ele>
        <time>2023-07-11T07:43:22.000Z</time>
      </trkpt>
      <trkpt lat="45.81929" lon="4.95743">
        <ele>171.80228</ele>
        <time>2023-07-11T07:43:23.000Z</time>
      </trkpt>
      <trkpt lat="45.81928" lon="4.95739">
        <ele>171.90189</ele>
        <time>2023-07-11T07:43:24.000Z</time>
      </trkpt>
      <trkpt lat="45.81927" lon="4.95735">
        <ele>171.9874</ele>
        <time>2023-07-11T07:43:25.000Z</time>
      </trkpt>
      <trkpt lat="45.81926" lon="4.9573">
        <ele>171.99872</ele>
        <time>2023-07-11T07:43:26.000Z</time>
      </trkpt>
      <trkpt lat="45.81926" lon="4.95725">
        <ele>171.92923</ele>
        <time>2023-07-11T07:43:27.000Z</time>
      </trkpt>
      <trkpt lat="45.81925" lon="4.95719">
        <ele>171.80959</ele>
        <time>2023-07-11T07:43:28.000Z</time>
      </trkpt>
      <trkpt lat="45.81925" lon="4.95715">
        <ele>171.69354</ele>
        <time>2023-07-11T07:43:29.000Z</time>
      </trkpt>
      <trkpt lat="45.81924" lon="4.95711">
        <ele>171.60226</ele>
        <time>2023-07-11T07:43:30.000Z</time>
      </trkpt>
      <trkpt lat="45.81924" lon="4.95708">
        <ele>171.53418</ele>
        <time>2023-07-11T07:43:31.000Z</time>
      </trkpt>
      <trkpt lat="45.81923" lon="4.95705">
        <ele>171.48605</ele>
        <time>2023-07-11T07:43:38.000Z</time>
      </trkpt>
      <trkpt lat="45.81922" lon="4.95703">
        <ele>171.49718</ele>
        <time>2023-07-11T07:43:39.000Z</time>
      </trkpt>
      <trkpt lat="45.81921" lon="4.95701">
        <ele>171.49359</ele>
        <time>2023-07-11T07:43:40.000Z</time>
      </trkpt>
      <trkpt lat="45.8192" lon="4.95698">
        <ele>171.49342</ele>
        <time>2023-07-11T07:43:41.000Z</time>
      </trkpt>
      <trkpt lat="45.81919" lon="4.95694">
        <ele>171.48599</ele>
        <time>2023-07-11T07:43:42.000Z</time>
      </trkpt>
      <trkpt lat="45.81918" lon="4.9569">
        <ele>171.48825</ele>
        <time>2023-07-11T07:43:43.000Z</time>
      </trkpt>
      <trkpt lat="45.81917" lon="4.95686">
        <ele>171.49463</ele>
        <time>2023-07-11T07:43:44.000Z</time>
      </trkpt>
      <trkpt lat="45.81916" lon="4.95681">
        <ele>171.50677</ele>
        <time>2023-07-11T07:43:45.000Z</time>
      </trkpt>
      <trkpt lat="45.81916" lon="4.95677">
        <ele>171.50122</ele>
        <time>2023-07-11T07:43:46.000Z</time>
      </trkpt>
      <trkpt lat="45.81917" lon="4.95672">
        <ele>171.51578</ele>
        <time>2023-07-11T07:43:47.000Z</time>
      </trkpt>
      <trkpt lat="45.81918" lon="4.95668">
        <ele>171.54147</ele>
        <time>2023-07-11T07:43:48.000Z</time>
      </trkpt>
      <trkpt lat="45.81919" lon="4.95663">
        <ele>171.59705</ele>
        <time>2023-07-11T07:43:49.000Z</time>
      </trkpt>
      <trkpt lat="45.81918" lon="4.95659">
        <ele>171.63309</ele>
        <time>2023-07-11T07:43:50.000Z</time>
      </trkpt>
      <trkpt lat="45.81917" lon="4.95657">
        <ele>171.69011</ele>
        <time>2023-07-11T07:43:51.000Z</time>
      </trkpt>
      <trkpt lat="45.81915" lon="4.95657">
        <ele>171.77023</ele>
        <time>2023-07-11T07:43:52.000Z</time>
      </trkpt>
      <trkpt lat="45.81911" lon="4.95658">
        <ele>171.91034</ele>
        <time>2023-07-11T07:43:53.000Z</time>
      </trkpt>
      <trkpt lat="45.81907" lon="4.95658">
        <ele>172.11255</ele>
        <time>2023-07-11T07:43:54.000Z</time>
      </trkpt>
      <trkpt lat="45.81904" lon="4.95657">
        <ele>172.30765</ele>
        <time>2023-07-11T07:43:55.000Z</time>
      </trkpt>
      <trkpt lat="45.81902" lon="4.95656">
        <ele>172.46214</ele>
        <time>2023-07-11T07:44:02.000Z</time>
      </trkpt>
      <trkpt lat="45.81901" lon="4.95654">
        <ele>172.58336</ele>
        <time>2023-07-11T07:44:10.000Z</time>
      </trkpt>
      <trkpt lat="45.819" lon="4.9565">
        <ele>172.71162</ele>
        <time>2023-07-11T07:44:12.000Z</time>
      </trkpt>
      <trkpt lat="45.81899" lon="4.95644">
        <ele>172.79637</ele>
        <time>2023-07-11T07:44:14.000Z</time>
      </trkpt>
      <trkpt lat="45.81899" lon="4.95638">
        <ele>172.89273</ele>
        <time>2023-07-11T07:44:15.000Z</time>
      </trkpt>
      <trkpt lat="45.81897" lon="4.95632">
        <ele>172.998</ele>
        <time>2023-07-11T07:44:16.000Z</time>
      </trkpt>
      <trkpt lat="45.81894" lon="4.95624">
        <ele>173.09526</ele>
        <time>2023-07-11T07:44:17.000Z</time>
      </trkpt>
      <trkpt lat="45.81894" lon="4.95616">
        <ele>173.21664</ele>
        <time>2023-07-11T07:44:18.000Z</time>
      </trkpt>
      <trkpt lat="45.81891" lon="4.95611">
        <ele>173.31279</ele>
        <time>2023-07-11T07:44:19.000Z</time>
      </trkpt>
      <trkpt lat="45.81889" lon="4.95608">
        <ele>173.38052</ele>
        <time>2023-07-11T07:44:20.000Z</time>
      </trkpt>
      <trkpt lat="45.81889" lon="4.95602">
        <ele>173.45067</ele>
        <time>2023-07-11T07:44:21.000Z</time>
      </trkpt>
      <trkpt lat="45.8189" lon="4.95598">
        <ele>173.52139</ele>
        <time>2023-07-11T07:44:22.000Z</time>
      </trkpt>
      <trkpt lat="45.81892" lon="4.95594">
        <ele>173.6111</ele>
        <time>2023-07-11T07:44:23.000Z</time>
      </trkpt>
      <trkpt lat="45.81896" lon="4.95591">
        <ele>173.67538</ele>
        <time>2023-07-11T07:44:24.000Z</time>
      </trkpt>
      <trkpt lat="45.81899" lon="4.95587">
        <ele>173.76334</ele>
        <time>2023-07-11T07:44:25.000Z</time>
      </trkpt>
      <trkpt lat="45.81902" lon="4.95583">
        <ele>173.83633</ele>
        <time>2023-07-11T07:44:26.000Z</time>
      </trkpt>
      <trkpt lat="45.81904" lon="4.95576">
        <ele>173.89699</ele>
        <time>2023-07-11T07:44:27.000Z</time>
      </trkpt>
      <trkpt lat="45.81905" lon="4.95568">
        <ele>173.99771</ele>
        <time>2023-07-11T07:44:28.000Z</time>
      </trkpt>
      <trkpt lat="45.81905" lon="4.95562">
        <ele>174.07196</ele>
        <time>2023-07-11T07:44:29.000Z</time>
      </trkpt>
      <trkpt lat="45.81905" lon="4.95554">
        <ele>174.14351</ele>
        <time>2023-07-11T07:44:30.000Z</time>
      </trkpt>
      <trkpt lat="45.81904" lon="4.95547">
        <ele>174.24356</ele>
        <time>2023-07-11T07:44:31.000Z</time>
      </trkpt>
      <trkpt lat="45.81904" lon="4.95541">
        <ele>174.31903</ele>
        <time>2023-07-11T07:44:32.000Z</time>
      </trkpt>
      <trkpt lat="45.81903" lon="4.95533">
        <ele>174.39449</ele>
        <time>2023-07-11T07:44:33.000Z</time>
      </trkpt>
      <trkpt lat="45.81902" lon="4.95528">
        <ele>174.45842</ele>
        <time>2023-07-11T07:44:34.000Z</time>
      </trkpt>
      <trkpt lat="45.81902" lon="4.95521">
        <ele>174.5146</ele>
        <time>2023-07-11T07:44:35.000Z</time>
      </trkpt>
      <trkpt lat="45.81904" lon="4.95517">
        <ele>174.54066</ele>
        <time>2023-07-11T07:44:36.000Z</time>
      </trkpt>
      <trkpt lat="45.81905" lon="4.95512">
        <ele>174.54794</ele>
        <time>2023-07-11T07:44:37.000Z</time>
      </trkpt>
      <trkpt lat="45.81907" lon="4.95506">
        <ele>174.5394</ele>
        <time>2023-07-11T07:44:38.000Z</time>
      </trkpt>
      <trkpt lat="45.81909" lon="4.955">
        <ele>174.58073</ele>
        <time>2023-07-11T07:44:39.000Z</time>
      </trkpt>
      <trkpt lat="45.8191" lon="4.95495">
        <ele>174.64752</ele>
        <time>2023-07-11T07:44:40.000Z</time>
      </trkpt>
      <trkpt lat="45.81912" lon="4.95493">
        <ele>174.70383</ele>
        <time>2023-07-11T07:44:41.000Z</time>
      </trkpt>
      <trkpt lat="45.81914" lon="4.95489">
        <ele>174.76987</ele>
        <time>2023-07-11T07:44:42.000Z</time>
      </trkpt>
      <trkpt lat="45.81914" lon="4.95485">
        <ele>174.83157</ele>
        <time>2023-07-11T07:44:43.000Z</time>
      </trkpt>
      <trkpt lat="45.81914" lon="4.95481">
        <ele>174.89407</ele>
        <time>2023-07-11T07:44:44.000Z</time>
      </trkpt>
      <trkpt lat="45.81914" lon="4.95475">
        <ele>174.96059</ele>
        <time>2023-07-11T07:44:45.000Z</time>
      </trkpt>
      <trkpt lat="45.81914" lon="4.9547">
        <ele>175.01492</ele>
        <time>2023-07-11T07:44:46.000Z</time>
      </trkpt>
      <trkpt lat="45.81915" lon="4.95464">
        <ele>175.10623</ele>
        <time>2023-07-11T07:44:47.000Z</time>
      </trkpt>
      <trkpt lat="45.81916" lon="4.95456">
        <ele>175.18388</ele>
        <time>2023-07-11T07:44:48.000Z</time>
      </trkpt>
      <trkpt lat="45.81916" lon="4.95448">
        <ele>175.27954</ele>
        <time>2023-07-11T07:44:49.000Z</time>
      </trkpt>
      <trkpt lat="45.81916" lon="4.9544">
        <ele>175.36562</ele>
        <time>2023-07-11T07:44:50.000Z</time>
      </trkpt>
      <trkpt lat="45.81915" lon="4.95433">
        <ele>175.43423</ele>
        <time>2023-07-11T07:44:51.000Z</time>
      </trkpt>
      <trkpt lat="45.81915" lon="4.95429">
        <ele>175.4924</ele>
        <time>2023-07-11T07:44:52.000Z</time>
      </trkpt>
      <trkpt lat="45.81916" lon="4.95426">
        <ele>175.55852</ele>
        <time>2023-07-11T07:44:54.000Z</time>
      </trkpt>
      <trkpt lat="45.81918" lon="4.95426">
        <ele>175.6105</ele>
        <time>2023-07-11T07:44:55.000Z</time>
      </trkpt>
      <trkpt lat="45.81919" lon="4.95429">
        <ele>175.66991</ele>
        <time>2023-07-11T07:44:56.000Z</time>
      </trkpt>
      <trkpt lat="45.81921" lon="4.95432">
        <ele>175.7377</ele>
        <time>2023-07-11T07:44:57.000Z</time>
      </trkpt>
      <trkpt lat="45.81922" lon="4.95435">
        <ele>175.82352</ele>
        <time>2023-07-11T07:44:58.000Z</time>
      </trkpt>
      <trkpt lat="45.81924" lon="4.95438">
        <ele>175.90761</ele>
        <time>2023-07-11T07:44:59.000Z</time>
      </trkpt>
      <trkpt lat="45.81924" lon="4.95441">
        <ele>175.94269</ele>
        <time>2023-07-11T07:45:00.000Z</time>
      </trkpt>
      <trkpt lat="45.81921" lon="4.95442">
        <ele>175.96599</ele>
        <time>2023-07-11T07:45:01.000Z</time>
      </trkpt>
      <trkpt lat="45.81918" lon="4.95441">
        <ele>175.97632</ele>
        <time>2023-07-11T07:45:02.000Z</time>
      </trkpt>
      <trkpt lat="45.81916" lon="4.95438">
        <ele>175.96773</ele>
        <time>2023-07-11T07:45:03.000Z</time>
      </trkpt>
      <trkpt lat="45.81914" lon="4.95435">
        <ele>175.90063</ele>
        <time>2023-07-11T07:45:04.000Z</time>
      </trkpt>
      <trkpt lat="45.81913" lon="4.9543">
        <ele>175.84998</ele>
        <time>2023-07-11T07:45:05.000Z</time>
      </trkpt>
      <trkpt lat="45.81915" lon="4.95425">
        <ele>175.78651</ele>
        <time>2023-07-11T07:45:06.000Z</time>
      </trkpt>
      <trkpt lat="45.81916" lon="4.95421">
        <ele>175.78139</ele>
        <time>2023-07-11T07:45:07.000Z</time>
      </trkpt>
      <trkpt lat="45.81918" lon="4.95419">
        <ele>175.76608</ele>
        <time>2023-07-11T07:45:08.000Z</time>
      </trkpt>
      <trkpt lat="45.81918" lon="4.95415">
        <ele>175.7458</ele>
        <time>2023-07-11T07:45:09.000Z</time>
      </trkpt>
      <trkpt lat="45.81917" lon="4.95411">
        <ele>175.71623</ele>
        <time>2023-07-11T07:45:10.000Z</time>
      </trkpt>
      <trkpt lat="45.81915" lon="4.95407">
        <ele>175.70609</ele>
        <time>2023-07-11T07:45:11.000Z</time>
      </trkpt>
      <trkpt lat="45.81913" lon="4.95405">
        <ele>175.69281</ele>
        <time>2023-07-11T07:45:12.000Z</time>
      </trkpt>
      <trkpt lat="45.8191" lon="4.95402">
        <ele>175.73141</ele>
        <time>2023-07-11T07:45:13.000Z</time>
      </trkpt>
      <trkpt lat="45.81908" lon="4.95399">
        <ele>175.73199</ele>
        <time>2023-07-11T07:45:14.000Z</time>
      </trkpt>
      <trkpt lat="45.81906" lon="4.95396">
        <ele>175.74196</ele>
        <time>2023-07-11T07:45:15.000Z</time>
      </trkpt>
      <trkpt lat="45.81906" lon="4.95391">
        <ele>175.76343</ele>
        <time>2023-07-11T07:45:16.000Z</time>
      </trkpt>
      <trkpt lat="45.81908" lon="4.95385">
        <ele>175.78885</ele>
        <time>2023-07-11T07:45:17.000Z</time>
      </trkpt>
      <trkpt lat="45.81908" lon="4.95379">
        <ele>175.8372</ele>
        <time>2023-07-11T07:45:18.000Z</time>
      </trkpt>
      <trkpt lat="45.81907" lon="4.95372">
        <ele>175.85837</ele>
        <time>2023-07-11T07:45:19.000Z</time>
      </trkpt>
      <trkpt lat="45.81906" lon="4.95365">
        <ele>175.88243</ele>
        <time>2023-07-11T07:45:20.000Z</time>
      </trkpt>
      <trkpt lat="45.81905" lon="4.95358">
        <ele>175.92557</ele>
        <time>2023-07-11T07:45:21.000Z</time>
      </trkpt>
      <trkpt lat="45.81904" lon="4.95351">
        <ele>176.0076</ele>
        <time>2023-07-11T07:45:22.000Z</time>
      </trkpt>
      <trkpt lat="45.81902" lon="4.95344">
        <ele>176.09378</ele>
        <time>2023-07-11T07:45:23.000Z</time>
      </trkpt>
      <trkpt lat="45.81902" lon="4.95336">
        <ele>176.20309</ele>
        <time>2023-07-11T07:45:24.000Z</time>
      </trkpt>
      <trkpt lat="45.81902" lon="4.95329">
        <ele>176.3013</ele>
        <time>2023-07-11T07:45:25.000Z</time>
      </trkpt>
      <trkpt lat="45.81903" lon="4.95321">
        <ele>176.38412</ele>
        <time>2023-07-11T07:45:26.000Z</time>
      </trkpt>
      <trkpt lat="45.81905" lon="4.95314">
        <ele>176.40369</ele>
        <time>2023-07-11T07:45:27.000Z</time>
      </trkpt>
      <trkpt lat="45.81907" lon="4.95304">
        <ele>176.41806</ele>
        <time>2023-07-11T07:45:28.000Z</time>
      </trkpt>
      <trkpt lat="45.81909" lon="4.95296">
        <ele>176.38876</ele>
        <time>2023-07-11T07:45:29.000Z</time>
      </trkpt>
      <trkpt lat="45.8191" lon="4.95288">
        <ele>176.36011</ele>
        <time>2023-07-11T07:45:30.000Z</time>
      </trkpt>
      <trkpt lat="45.81911" lon="4.95283">
        <ele>176.31502</ele>
        <time>2023-07-11T07:45:31.000Z</time>
      </trkpt>
      <trkpt lat="45.81911" lon="4.9528">
        <ele>176.29248</ele>
        <time>2023-07-11T07:45:32.000Z</time>
      </trkpt>
      <trkpt lat="45.81912" lon="4.95275">
        <ele>176.26819</ele>
        <time>2023-07-11T07:45:33.000Z</time>
      </trkpt>
      <trkpt lat="45.81915" lon="4.95269">
        <ele>176.22382</ele>
        <time>2023-07-11T07:45:34.000Z</time>
      </trkpt>
      <trkpt lat="45.81916" lon="4.95262">
        <ele>176.18492</ele>
        <time>2023-07-11T07:45:35.000Z</time>
      </trkpt>
      <trkpt lat="45.81917" lon="4.95255">
        <ele>176.09164</ele>
        <time>2023-07-11T07:45:36.000Z</time>
      </trkpt>
      <trkpt lat="45.81918" lon="4.95248">
        <ele>176.02007</ele>
        <time>2023-07-11T07:45:37.000Z</time>
      </trkpt>
      <trkpt lat="45.81919" lon="4.95242">
        <ele>175.95654</ele>
        <time>2023-07-11T07:45:38.000Z</time>
      </trkpt>
      <trkpt lat="45.8192" lon="4.95237">
        <ele>175.86922</ele>
        <time>2023-07-11T07:45:39.000Z</time>
      </trkpt>
      <trkpt lat="45.81922" lon="4.9523">
        <ele>175.78555</ele>
        <time>2023-07-11T07:45:40.000Z</time>
      </trkpt>
      <trkpt lat="45.81923" lon="4.95223">
        <ele>175.67668</ele>
        <time>2023-07-11T07:45:41.000Z</time>
      </trkpt>
      <trkpt lat="45.81924" lon="4.95217">
        <ele>175.55118</ele>
        <time>2023-07-11T07:45:42.000Z</time>
      </trkpt>
      <trkpt lat="45.81925" lon="4.9521">
        <ele>175.42191</ele>
        <time>2023-07-11T07:45:43.000Z</time>
      </trkpt>
      <trkpt lat="45.81926" lon="4.95203">
        <ele>175.3152</ele>
        <time>2023-07-11T07:45:44.000Z</time>
      </trkpt>
      <trkpt lat="45.81927" lon="4.95197">
        <ele>175.1597</ele>
        <time>2023-07-11T07:45:45.000Z</time>
      </trkpt>
      <trkpt lat="45.81929" lon="4.9519">
        <ele>174.99179</ele>
        <time>2023-07-11T07:45:46.000Z</time>
      </trkpt>
      <trkpt lat="45.81931" lon="4.95183">
        <ele>174.8475</ele>
        <time>2023-07-11T07:45:47.000Z</time>
      </trkpt>
      <trkpt lat="45.81934" lon="4.95177">
        <ele>174.65686</ele>
        <time>2023-07-11T07:45:48.000Z</time>
      </trkpt>
      <trkpt lat="45.81936" lon="4.95169">
        <ele>174.48721</ele>
        <time>2023-07-11T07:45:49.000Z</time>
      </trkpt>
      <trkpt lat="45.81938" lon="4.95162">
        <ele>174.30447</ele>
        <time>2023-07-11T07:45:50.000Z</time>
      </trkpt>
      <trkpt lat="45.8194" lon="4.95154">
        <ele>174.14951</ele>
        <time>2023-07-11T07:45:51.000Z</time>
      </trkpt>
      <trkpt lat="45.81942" lon="4.95147">
        <ele>173.98792</ele>
        <time>2023-07-11T07:45:52.000Z</time>
      </trkpt>
      <trkpt lat="45.81944" lon="4.9514">
        <ele>173.76395</ele>
        <time>2023-07-11T07:45:53.000Z</time>
      </trkpt>
      <trkpt lat="45.81946" lon="4.95135">
        <ele>173.62466</ele>
        <time>2023-07-11T07:45:54.000Z</time>
      </trkpt>
      <trkpt lat="45.81947" lon="4.95128">
        <ele>173.47873</ele>
        <time>2023-07-11T07:45:55.000Z</time>
      </trkpt>
      <trkpt lat="45.8195" lon="4.95121">
        <ele>173.40628</ele>
        <time>2023-07-11T07:45:56.000Z</time>
      </trkpt>
      <trkpt lat="45.81953" lon="4.95114">
        <ele>173.32669</ele>
        <time>2023-07-11T07:45:57.000Z</time>
      </trkpt>
      <trkpt lat="45.81954" lon="4.95105">
        <ele>173.25459</ele>
        <time>2023-07-11T07:45:58.000Z</time>
      </trkpt>
      <trkpt lat="45.81957" lon="4.95099">
        <ele>173.2587</ele>
        <time>2023-07-11T07:45:59.000Z</time>
      </trkpt>
      <trkpt lat="45.81957" lon="4.95091">
        <ele>173.30263</ele>
        <time>2023-07-11T07:46:00.000Z</time>
      </trkpt>
      <trkpt lat="45.81959" lon="4.95084">
        <ele>173.32034</ele>
        <time>2023-07-11T07:46:01.000Z</time>
      </trkpt>
      <trkpt lat="45.81959" lon="4.95077">
        <ele>173.3055</ele>
        <time>2023-07-11T07:46:02.000Z</time>
      </trkpt>
      <trkpt lat="45.81962" lon="4.95069">
        <ele>173.32838</ele>
        <time>2023-07-11T07:46:03.000Z</time>
      </trkpt>
      <trkpt lat="45.81962" lon="4.95061">
        <ele>173.34619</ele>
        <time>2023-07-11T07:46:04.000Z</time>
      </trkpt>
      <trkpt lat="45.81964" lon="4.95053">
        <ele>173.44066</ele>
        <time>2023-07-11T07:46:05.000Z</time>
      </trkpt>
      <trkpt lat="45.81965" lon="4.95044">
        <ele>173.59433</ele>
        <time>2023-07-11T07:46:06.000Z</time>
      </trkpt>
      <trkpt lat="45.81966" lon="4.95037">
        <ele>173.71811</ele>
        <time>2023-07-11T07:46:07.000Z</time>
      </trkpt>
      <trkpt lat="45.81967" lon="4.9503">
        <ele>173.83267</ele>
        <time>2023-07-11T07:46:08.000Z</time>
      </trkpt>
      <trkpt lat="45.81968" lon="4.95022">
        <ele>173.9841</ele>
        <time>2023-07-11T07:46:09.000Z</time>
      </trkpt>
      <trkpt lat="45.81967" lon="4.95015">
        <ele>174.13126</ele>
        <time>2023-07-11T07:46:10.000Z</time>
      </trkpt>
      <trkpt lat="45.81965" lon="4.95008">
        <ele>174.27434</ele>
        <time>2023-07-11T07:46:11.000Z</time>
      </trkpt>
      <trkpt lat="45.81962" lon="4.95001">
        <ele>174.40961</ele>
        <time>2023-07-11T07:46:12.000Z</time>
      </trkpt>
      <trkpt lat="45.81961" lon="4.94993">
        <ele>174.60318</ele>
        <time>2023-07-11T07:46:13.000Z</time>
      </trkpt>
      <trkpt lat="45.81958" lon="4.94986">
        <ele>174.73605</ele>
        <time>2023-07-11T07:46:14.000Z</time>
      </trkpt>
      <trkpt lat="45.81955" lon="4.94979">
        <ele>174.88278</ele>
        <time>2023-07-11T07:46:15.000Z</time>
      </trkpt>
      <trkpt lat="45.81953" lon="4.94972">
        <ele>174.99713</ele>
        <time>2023-07-11T07:46:16.000Z</time>
      </trkpt>
      <trkpt lat="45.81951" lon="4.94965">
        <ele>175.09128</ele>
        <time>2023-07-11T07:46:17.000Z</time>
      </trkpt>
      <trkpt lat="45.81948" lon="4.94958">
        <ele>175.15987</ele>
        <time>2023-07-11T07:46:18.000Z</time>
      </trkpt>
      <trkpt lat="45.81946" lon="4.9495">
        <ele>175.2321</ele>
        <time>2023-07-11T07:46:19.000Z</time>
      </trkpt>
      <trkpt lat="45.81945" lon="4.94943">
        <ele>175.25621</ele>
        <time>2023-07-11T07:46:20.000Z</time>
      </trkpt>
      <trkpt lat="45.81943" lon="4.94936">
        <ele>175.31479</ele>
        <time>2023-07-11T07:46:21.000Z</time>
      </trkpt>
      <trkpt lat="45.8194" lon="4.94928">
        <ele>175.39383</ele>
        <time>2023-07-11T07:46:22.000Z</time>
      </trkpt>
      <trkpt lat="45.81939" lon="4.94921">
        <ele>175.4227</ele>
        <time>2023-07-11T07:46:23.000Z</time>
      </trkpt>
      <trkpt lat="45.81936" lon="4.94913">
        <ele>175.44754</ele>
        <time>2023-07-11T07:46:24.000Z</time>
      </trkpt>
      <trkpt lat="45.81934" lon="4.94906">
        <ele>175.45941</ele>
        <time>2023-07-11T07:46:25.000Z</time>
      </trkpt>
      <trkpt lat="45.81931" lon="4.94899">
        <ele>175.44875</ele>
        <time>2023-07-11T07:46:26.000Z</time>
      </trkpt>
      <trkpt lat="45.81928" lon="4.94892">
        <ele>175.43581</ele>
        <time>2023-07-11T07:46:27.000Z</time>
      </trkpt>
      <trkpt lat="45.81926" lon="4.94885">
        <ele>175.48239</ele>
        <time>2023-07-11T07:46:28.000Z</time>
      </trkpt>
      <trkpt lat="45.81924" lon="4.94876">
        <ele>175.51436</ele>
        <time>2023-07-11T07:46:29.000Z</time>
      </trkpt>
      <trkpt lat="45.81921" lon="4.94869">
        <ele>175.5764</ele>
        <time>2023-07-11T07:46:30.000Z</time>
      </trkpt>
      <trkpt lat="45.81919" lon="4.94863">
        <ele>175.61729</ele>
        <time>2023-07-11T07:46:31.000Z</time>
      </trkpt>
      <trkpt lat="45.81916" lon="4.94855">
        <ele>175.65059</ele>
        <time>2023-07-11T07:46:32.000Z</time>
      </trkpt>
      <trkpt lat="45.81913" lon="4.94849">
        <ele>175.71935</ele>
        <time>2023-07-11T07:46:33.000Z</time>
      </trkpt>
      <trkpt lat="45.81911" lon="4.94843">
        <ele>175.80154</ele>
        <time>2023-07-11T07:46:34.000Z</time>
      </trkpt>
      <trkpt lat="45.81908" lon="4.94837">
        <ele>175.86403</ele>
        <time>2023-07-11T07:46:35.000Z</time>
      </trkpt>
      <trkpt lat="45.81906" lon="4.94831">
        <ele>175.97414</ele>
        <time>2023-07-11T07:46:36.000Z</time>
      </trkpt>
      <trkpt lat="45.81904" lon="4.94825">
        <ele>176.08412</ele>
        <time>2023-07-11T07:46:37.000Z</time>
      </trkpt>
      <trkpt lat="45.81902" lon="4.94819">
        <ele>176.21249</ele>
        <time>2023-07-11T07:46:38.000Z</time>
      </trkpt>
      <trkpt lat="45.81901" lon="4.94813">
        <ele>176.33304</ele>
        <time>2023-07-11T07:46:39.000Z</time>
      </trkpt>
      <trkpt lat="45.819" lon="4.94807">
        <ele>176.49339</ele>
        <time>2023-07-11T07:46:40.000Z</time>
      </trkpt>
      <trkpt lat="45.819" lon="4.94802">
        <ele>176.63077</ele>
        <time>2023-07-11T07:46:41.000Z</time>
      </trkpt>
      <trkpt lat="45.81902" lon="4.94797">
        <ele>176.71957</ele>
        <time>2023-07-11T07:46:42.000Z</time>
      </trkpt>
      <trkpt lat="45.81906" lon="4.94794">
        <ele>176.82724</ele>
        <time>2023-07-11T07:46:43.000Z</time>
      </trkpt>
      <trkpt lat="45.81911" lon="4.94791">
        <ele>176.93985</ele>
        <time>2023-07-11T07:46:44.000Z</time>
      </trkpt>
      <trkpt lat="45.81915" lon="4.94787">
        <ele>177.02505</ele>
        <time>2023-07-11T07:46:45.000Z</time>
      </trkpt>
      <trkpt lat="45.8192" lon="4.94783">
        <ele>177.13095</ele>
        <time>2023-07-11T07:46:46.000Z</time>
      </trkpt>
      <trkpt lat="45.81923" lon="4.9478">
        <ele>177.26363</ele>
        <time>2023-07-11T07:46:47.000Z</time>
      </trkpt>
      <trkpt lat="45.81928" lon="4.94776">
        <ele>177.39291</ele>
        <time>2023-07-11T07:46:48.000Z</time>
      </trkpt>
      <trkpt lat="45.81933" lon="4.94772">
        <ele>177.5062</ele>
        <time>2023-07-11T07:46:49.000Z</time>
      </trkpt>
      <trkpt lat="45.81938" lon="4.9477">
        <ele>177.62955</ele>
        <time>2023-07-11T07:46:50.000Z</time>
      </trkpt>
      <trkpt lat="45.81943" lon="4.94767">
        <ele>177.72916</ele>
        <time>2023-07-11T07:46:51.000Z</time>
      </trkpt>
      <trkpt lat="45.81948" lon="4.94764">
        <ele>177.8562</ele>
        <time>2023-07-11T07:46:52.000Z</time>
      </trkpt>
      <trkpt lat="45.81951" lon="4.94761">
        <ele>177.96159</ele>
        <time>2023-07-11T07:46:53.000Z</time>
      </trkpt>
      <trkpt lat="45.81956" lon="4.94758">
        <ele>178.06281</ele>
        <time>2023-07-11T07:46:54.000Z</time>
      </trkpt>
      <trkpt lat="45.8196" lon="4.94755">
        <ele>178.17267</ele>
        <time>2023-07-11T07:46:55.000Z</time>
      </trkpt>
      <trkpt lat="45.81965" lon="4.94752">
        <ele>178.20946</ele>
        <time>2023-07-11T07:46:56.000Z</time>
      </trkpt>
      <trkpt lat="45.81969" lon="4.94749">
        <ele>178.24532</ele>
        <time>2023-07-11T07:46:57.000Z</time>
      </trkpt>
      <trkpt lat="45.81974" lon="4.94746">
        <ele>178.30443</ele>
        <time>2023-07-11T07:46:58.000Z</time>
      </trkpt>
      <trkpt lat="45.81978" lon="4.94743">
        <ele>178.31631</ele>
        <time>2023-07-11T07:46:59.000Z</time>
      </trkpt>
      <trkpt lat="45.81983" lon="4.94739">
        <ele>178.31116</ele>
        <time>2023-07-11T07:47:00.000Z</time>
      </trkpt>
      <trkpt lat="45.81988" lon="4.94737">
        <ele>178.29161</ele>
        <time>2023-07-11T07:47:01.000Z</time>
      </trkpt>
      <trkpt lat="45.81992" lon="4.94734">
        <ele>178.34419</ele>
        <time>2023-07-11T07:47:02.000Z</time>
      </trkpt>
      <trkpt lat="45.81997" lon="4.94731">
        <ele>178.39839</ele>
        <time>2023-07-11T07:47:03.000Z</time>
      </trkpt>
      <trkpt lat="45.82002" lon="4.94729">
        <ele>178.44438</ele>
        <time>2023-07-11T07:47:04.000Z</time>
      </trkpt>
      <trkpt lat="45.82007" lon="4.94726">
        <ele>178.50754</ele>
        <time>2023-07-11T07:47:05.000Z</time>
      </trkpt>
      <trkpt lat="45.82011" lon="4.94724">
        <ele>178.53531</ele>
        <time>2023-07-11T07:47:06.000Z</time>
      </trkpt>
      <trkpt lat="45.82016" lon="4.94722">
        <ele>178.57837</ele>
        <time>2023-07-11T07:47:07.000Z</time>
      </trkpt>
      <trkpt lat="45.82021" lon="4.94718">
        <ele>178.60458</ele>
        <time>2023-07-11T07:47:08.000Z</time>
      </trkpt>
      <trkpt lat="45.82025" lon="4.94716">
        <ele>178.64583</ele>
        <time>2023-07-11T07:47:09.000Z</time>
      </trkpt>
      <trkpt lat="45.82029" lon="4.94716">
        <ele>178.66922</ele>
        <time>2023-07-11T07:47:10.000Z</time>
      </trkpt>
      <trkpt lat="45.82034" lon="4.94719">
        <ele>178.73917</ele>
        <time>2023-07-11T07:47:11.000Z</time>
      </trkpt>
      <trkpt lat="45.82037" lon="4.94726">
        <ele>178.79495</ele>
        <time>2023-07-11T07:47:12.000Z</time>
      </trkpt>
      <trkpt lat="45.82039" lon="4.94734">
        <ele>178.84581</ele>
        <time>2023-07-11T07:47:13.000Z</time>
      </trkpt>
      <trkpt lat="45.82041" lon="4.94741">
        <ele>178.87756</ele>
        <time>2023-07-11T07:47:14.000Z</time>
      </trkpt>
      <trkpt lat="45.82043" lon="4.94749">
        <ele>178.92569</ele>
        <time>2023-07-11T07:47:15.000Z</time>
      </trkpt>
      <trkpt lat="45.82045" lon="4.94757">
        <ele>179.00182</ele>
        <time>2023-07-11T07:47:16.000Z</time>
      </trkpt>
      <trkpt lat="45.82047" lon="4.94764">
        <ele>179.0975</ele>
        <time>2023-07-11T07:47:17.000Z</time>
      </trkpt>
      <trkpt lat="45.82049" lon="4.94771">
        <ele>179.15575</ele>
        <time>2023-07-11T07:47:18.000Z</time>
      </trkpt>
      <trkpt lat="45.82051" lon="4.94779">
        <ele>179.25835</ele>
        <time>2023-07-11T07:47:19.000Z</time>
      </trkpt>
      <trkpt lat="45.82054" lon="4.94785">
        <ele>179.37428</ele>
        <time>2023-07-11T07:47:20.000Z</time>
      </trkpt>
      <trkpt lat="45.82056" lon="4.94793">
        <ele>179.52168</ele>
        <time>2023-07-11T07:47:21.000Z</time>
      </trkpt>
      <trkpt lat="45.82058" lon="4.948">
        <ele>179.65785</ele>
        <time>2023-07-11T07:47:22.000Z</time>
      </trkpt>
      <trkpt lat="45.82061" lon="4.94808">
        <ele>179.80658</ele>
        <time>2023-07-11T07:47:23.000Z</time>
      </trkpt>
      <trkpt lat="45.82064" lon="4.94814">
        <ele>179.95251</ele>
        <time>2023-07-11T07:47:24.000Z</time>
      </trkpt>
      <trkpt lat="45.82068" lon="4.94821">
        <ele>180.10226</ele>
        <time>2023-07-11T07:47:25.000Z</time>
      </trkpt>
      <trkpt lat="45.82072" lon="4.94826">
        <ele>180.26498</ele>
        <time>2023-07-11T07:47:26.000Z</time>
      </trkpt>
      <trkpt lat="45.82077" lon="4.94833">
        <ele>180.41656</ele>
        <time>2023-07-11T07:47:27.000Z</time>
      </trkpt>
      <trkpt lat="45.82081" lon="4.94839">
        <ele>180.59346</ele>
        <time>2023-07-11T07:47:28.000Z</time>
      </trkpt>
      <trkpt lat="45.82085" lon="4.94845">
        <ele>180.76497</ele>
        <time>2023-07-11T07:47:29.000Z</time>
      </trkpt>
      <trkpt lat="45.82089" lon="4.94852">
        <ele>180.92055</ele>
        <time>2023-07-11T07:47:30.000Z</time>
      </trkpt>
      <trkpt lat="45.82092" lon="4.94859">
        <ele>181.02893</ele>
        <time>2023-07-11T07:47:31.000Z</time>
      </trkpt>
      <trkpt lat="45.82095" lon="4.94866">
        <ele>181.12653</ele>
        <time>2023-07-11T07:47:32.000Z</time>
      </trkpt>
      <trkpt lat="45.82098" lon="4.94873">
        <ele>181.22546</ele>
        <time>2023-07-11T07:47:33.000Z</time>
      </trkpt>
      <trkpt lat="45.82102" lon="4.9488">
        <ele>181.32872</ele>
        <time>2023-07-11T07:47:34.000Z</time>
      </trkpt>
      <trkpt lat="45.82105" lon="4.94886">
        <ele>181.43219</ele>
        <time>2023-07-11T07:47:35.000Z</time>
      </trkpt>
      <trkpt lat="45.82107" lon="4.94892">
        <ele>181.49324</ele>
        <time>2023-07-11T07:47:36.000Z</time>
      </trkpt>
      <trkpt lat="45.8211" lon="4.949">
        <ele>181.5058</ele>
        <time>2023-07-11T07:47:37.000Z</time>
      </trkpt>
      <trkpt lat="45.82113" lon="4.94907">
        <ele>181.51529</ele>
        <time>2023-07-11T07:47:38.000Z</time>
      </trkpt>
      <trkpt lat="45.82116" lon="4.94915">
        <ele>181.50346</ele>
        <time>2023-07-11T07:47:39.000Z</time>
      </trkpt>
      <trkpt lat="45.8212" lon="4.94922">
        <ele>181.45654</ele>
        <time>2023-07-11T07:47:40.000Z</time>
      </trkpt>
      <trkpt lat="45.82123" lon="4.94929">
        <ele>181.49086</ele>
        <time>2023-07-11T07:47:41.000Z</time>
      </trkpt>
      <trkpt lat="45.82126" lon="4.94936">
        <ele>181.5148</ele>
        <time>2023-07-11T07:47:42.000Z</time>
      </trkpt>
      <trkpt lat="45.82129" lon="4.94944">
        <ele>181.52367</ele>
        <time>2023-07-11T07:47:43.000Z</time>
      </trkpt>
      <trkpt lat="45.82131" lon="4.94952">
        <ele>181.54007</ele>
        <time>2023-07-11T07:47:44.000Z</time>
      </trkpt>
      <trkpt lat="45.82134" lon="4.9496">
        <ele>181.54715</ele>
        <time>2023-07-11T07:47:45.000Z</time>
      </trkpt>
      <trkpt lat="45.82138" lon="4.94967">
        <ele>181.56479</ele>
        <time>2023-07-11T07:47:46.000Z</time>
      </trkpt>
      <trkpt lat="45.82141" lon="4.94974">
        <ele>181.59367</ele>
        <time>2023-07-11T07:47:47.000Z</time>
      </trkpt>
      <trkpt lat="45.82144" lon="4.94981">
        <ele>181.60359</ele>
        <time>2023-07-11T07:47:48.000Z</time>
      </trkpt>
      <trkpt lat="45.82146" lon="4.94989">
        <ele>181.60162</ele>
        <time>2023-07-11T07:47:49.000Z</time>
      </trkpt>
      <trkpt lat="45.8215" lon="4.94996">
        <ele>181.6028</ele>
        <time>2023-07-11T07:47:50.000Z</time>
      </trkpt>
      <trkpt lat="45.82152" lon="4.95003">
        <ele>181.63933</ele>
        <time>2023-07-11T07:47:51.000Z</time>
      </trkpt>
      <trkpt lat="45.82155" lon="4.95011">
        <ele>181.67136</ele>
        <time>2023-07-11T07:47:52.000Z</time>
      </trkpt>
      <trkpt lat="45.82158" lon="4.95018">
        <ele>181.70706</ele>
        <time>2023-07-11T07:47:53.000Z</time>
      </trkpt>
      <trkpt lat="45.8216" lon="4.95025">
        <ele>181.73671</ele>
        <time>2023-07-11T07:47:54.000Z</time>
      </trkpt>
      <trkpt lat="45.82162" lon="4.95033">
        <ele>181.74107</ele>
        <time>2023-07-11T07:47:55.000Z</time>
      </trkpt>
      <trkpt lat="45.82165" lon="4.9504">
        <ele>181.79732</ele>
        <time>2023-07-11T07:47:56.000Z</time>
      </trkpt>
      <trkpt lat="45.82168" lon="4.95048">
        <ele>181.89285</ele>
        <time>2023-07-11T07:47:57.000Z</time>
      </trkpt>
      <trkpt lat="45.82171" lon="4.95056">
        <ele>182.02457</ele>
        <time>2023-07-11T07:47:58.000Z</time>
      </trkpt>
      <trkpt lat="45.82173" lon="4.95064">
        <ele>182.16817</ele>
        <time>2023-07-11T07:47:59.000Z</time>
      </trkpt>
      <trkpt lat="45.82174" lon="4.95071">
        <ele>182.35172</ele>
        <time>2023-07-11T07:48:00.000Z</time>
      </trkpt>
      <trkpt lat="45.82177" lon="4.95078">
        <ele>182.4328</ele>
        <time>2023-07-11T07:48:01.000Z</time>
      </trkpt>
      <trkpt lat="45.82179" lon="4.95085">
        <ele>182.46805</ele>
        <time>2023-07-11T07:48:02.000Z</time>
      </trkpt>
      <trkpt lat="45.82182" lon="4.95093">
        <ele>182.46808</ele>
        <time>2023-07-11T07:48:03.000Z</time>
      </trkpt>
      <trkpt lat="45.82183" lon="4.95102">
        <ele>182.41202</ele>
        <time>2023-07-11T07:48:04.000Z</time>
      </trkpt>
      <trkpt lat="45.82185" lon="4.9511">
        <ele>182.37256</ele>
        <time>2023-07-11T07:48:05.000Z</time>
      </trkpt>
      <trkpt lat="45.82188" lon="4.95119">
        <ele>182.32565</ele>
        <time>2023-07-11T07:48:06.000Z</time>
      </trkpt>
      <trkpt lat="45.82191" lon="4.95127">
        <ele>182.25092</ele>
        <time>2023-07-11T07:48:07.000Z</time>
      </trkpt>
      <trkpt lat="45.82193" lon="4.95135">
        <ele>182.18651</ele>
        <time>2023-07-11T07:48:08.000Z</time>
      </trkpt>
      <trkpt lat="45.82195" lon="4.95143">
        <ele>182.1552</ele>
        <time>2023-07-11T07:48:09.000Z</time>
      </trkpt>
      <trkpt lat="45.82197" lon="4.95152">
        <ele>182.13989</ele>
        <time>2023-07-11T07:48:10.000Z</time>
      </trkpt>
      <trkpt lat="45.82199" lon="4.95161">
        <ele>182.11658</ele>
        <time>2023-07-11T07:48:11.000Z</time>
      </trkpt>
      <trkpt lat="45.82201" lon="4.95169">
        <ele>182.10443</ele>
        <time>2023-07-11T07:48:12.000Z</time>
      </trkpt>
      <trkpt lat="45.82202" lon="4.95178">
        <ele>182.08771</ele>
        <time>2023-07-11T07:48:13.000Z</time>
      </trkpt>
      <trkpt lat="45.82204" lon="4.95185">
        <ele>182.07364</ele>
        <time>2023-07-11T07:48:14.000Z</time>
      </trkpt>
      <trkpt lat="45.82206" lon="4.95194">
        <ele>182.11189</ele>
        <time>2023-07-11T07:48:15.000Z</time>
      </trkpt>
      <trkpt lat="45.82208" lon="4.95201">
        <ele>182.08226</ele>
        <time>2023-07-11T07:48:16.000Z</time>
      </trkpt>
      <trkpt lat="45.8221" lon="4.9521">
        <ele>182.02161</ele>
        <time>2023-07-11T07:48:17.000Z</time>
      </trkpt>
      <trkpt lat="45.82212" lon="4.95218">
        <ele>181.93364</ele>
        <time>2023-07-11T07:48:18.000Z</time>
      </trkpt>
      <trkpt lat="45.82213" lon="4.95226">
        <ele>181.83292</ele>
        <time>2023-07-11T07:48:19.000Z</time>
      </trkpt>
      <trkpt lat="45.82216" lon="4.95234">
        <ele>181.69868</ele>
        <time>2023-07-11T07:48:20.000Z</time>
      </trkpt>
      <trkpt lat="45.82217" lon="4.95242">
        <ele>181.58966</ele>
        <time>2023-07-11T07:48:21.000Z</time>
      </trkpt>
      <trkpt lat="45.82219" lon="4.9525">
        <ele>181.51511</ele>
        <time>2023-07-11T07:48:22.000Z</time>
      </trkpt>
      <trkpt lat="45.82222" lon="4.95257">
        <ele>181.49911</ele>
        <time>2023-07-11T07:48:23.000Z</time>
      </trkpt>
      <trkpt lat="45.82224" lon="4.95265">
        <ele>181.57367</ele>
        <time>2023-07-11T07:48:24.000Z</time>
      </trkpt>
      <trkpt lat="45.82226" lon="4.95272">
        <ele>181.63826</ele>
        <time>2023-07-11T07:48:25.000Z</time>
      </trkpt>
      <trkpt lat="45.82229" lon="4.95279">
        <ele>181.69257</ele>
        <time>2023-07-11T07:48:26.000Z</time>
      </trkpt>
      <trkpt lat="45.82231" lon="4.95286">
        <ele>181.75946</ele>
        <time>2023-07-11T07:48:27.000Z</time>
      </trkpt>
      <trkpt lat="45.82234" lon="4.95294">
        <ele>181.84123</ele>
        <time>2023-07-11T07:48:28.000Z</time>
      </trkpt>
      <trkpt lat="45.82236" lon="4.95301">
        <ele>181.89407</ele>
        <time>2023-07-11T07:48:29.000Z</time>
      </trkpt>
      <trkpt lat="45.82239" lon="4.95308">
        <ele>181.9285</ele>
        <time>2023-07-11T07:48:30.000Z</time>
      </trkpt>
      <trkpt lat="45.82243" lon="4.95314">
        <ele>181.94308</ele>
        <time>2023-07-11T07:48:31.000Z</time>
      </trkpt>
      <trkpt lat="45.82246" lon="4.95319">
        <ele>181.95828</ele>
        <time>2023-07-11T07:48:32.000Z</time>
      </trkpt>
      <trkpt lat="45.8225" lon="4.95326">
        <ele>181.95114</ele>
        <time>2023-07-11T07:48:33.000Z</time>
      </trkpt>
      <trkpt lat="45.82252" lon="4.95331">
        <ele>181.96619</ele>
        <time>2023-07-11T07:48:34.000Z</time>
      </trkpt>
      <trkpt lat="45.82254" lon="4.95338">
        <ele>181.96414</ele>
        <time>2023-07-11T07:48:35.000Z</time>
      </trkpt>
      <trkpt lat="45.82256" lon="4.95346">
        <ele>182.01797</ele>
        <time>2023-07-11T07:48:36.000Z</time>
      </trkpt>
      <trkpt lat="45.82258" lon="4.95353">
        <ele>182.117</ele>
        <time>2023-07-11T07:48:37.000Z</time>
      </trkpt>
      <trkpt lat="45.8226" lon="4.9536">
        <ele>182.22649</ele>
        <time>2023-07-11T07:48:38.000Z</time>
      </trkpt>
      <trkpt lat="45.82263" lon="4.95367">
        <ele>182.30647</ele>
        <time>2023-07-11T07:48:39.000Z</time>
      </trkpt>
      <trkpt lat="45.82266" lon="4.95373">
        <ele>182.37967</ele>
        <time>2023-07-11T07:48:40.000Z</time>
      </trkpt>
      <trkpt lat="45.82268" lon="4.95381">
        <ele>182.43413</ele>
        <time>2023-07-11T07:48:41.000Z</time>
      </trkpt>
      <trkpt lat="45.8227" lon="4.95389">
        <ele>182.48831</ele>
        <time>2023-07-11T07:48:42.000Z</time>
      </trkpt>
      <trkpt lat="45.82272" lon="4.95398">
        <ele>182.61554</ele>
        <time>2023-07-11T07:48:43.000Z</time>
      </trkpt>
      <trkpt lat="45.82275" lon="4.95406">
        <ele>182.70096</ele>
        <time>2023-07-11T07:48:44.000Z</time>
      </trkpt>
      <trkpt lat="45.82277" lon="4.95412">
        <ele>182.78354</ele>
        <time>2023-07-11T07:48:45.000Z</time>
      </trkpt>
      <trkpt lat="45.8228" lon="4.95421">
        <ele>182.85802</ele>
        <time>2023-07-11T07:48:46.000Z</time>
      </trkpt>
      <trkpt lat="45.82283" lon="4.95429">
        <ele>182.94284</ele>
        <time>2023-07-11T07:48:47.000Z</time>
      </trkpt>
      <trkpt lat="45.82285" lon="4.95436">
        <ele>183.02052</ele>
        <time>2023-07-11T07:48:48.000Z</time>
      </trkpt>
      <trkpt lat="45.82287" lon="4.95444">
        <ele>183.1295</ele>
        <time>2023-07-11T07:48:49.000Z</time>
      </trkpt>
      <trkpt lat="45.82288" lon="4.95451">
        <ele>183.22345</ele>
        <time>2023-07-11T07:48:50.000Z</time>
      </trkpt>
      <trkpt lat="45.8229" lon="4.95459">
        <ele>183.35593</ele>
        <time>2023-07-11T07:48:51.000Z</time>
      </trkpt>
      <trkpt lat="45.82292" lon="4.95466">
        <ele>183.48834</ele>
        <time>2023-07-11T07:48:52.000Z</time>
      </trkpt>
      <trkpt lat="45.82294" lon="4.95474">
        <ele>183.61826</ele>
        <time>2023-07-11T07:48:53.000Z</time>
      </trkpt>
      <trkpt lat="45.82297" lon="4.95481">
        <ele>183.70248</ele>
        <time>2023-07-11T07:48:54.000Z</time>
      </trkpt>
      <trkpt lat="45.82299" lon="4.95488">
        <ele>183.77129</ele>
        <time>2023-07-11T07:48:55.000Z</time>
      </trkpt>
      <trkpt lat="45.82301" lon="4.95497">
        <ele>183.83893</ele>
        <time>2023-07-11T07:48:56.000Z</time>
      </trkpt>
      <trkpt lat="45.82303" lon="4.95505">
        <ele>183.86975</ele>
        <time>2023-07-11T07:48:57.000Z</time>
      </trkpt>
      <trkpt lat="45.82306" lon="4.95513">
        <ele>183.89615</ele>
        <time>2023-07-11T07:48:58.000Z</time>
      </trkpt>
      <trkpt lat="45.82307" lon="4.95521">
        <ele>183.98026</ele>
        <time>2023-07-11T07:48:59.000Z</time>
      </trkpt>
      <trkpt lat="45.82308" lon="4.95529">
        <ele>184.09116</ele>
        <time>2023-07-11T07:49:00.000Z</time>
      </trkpt>
      <trkpt lat="45.8231" lon="4.95537">
        <ele>184.23524</ele>
        <time>2023-07-11T07:49:01.000Z</time>
      </trkpt>
      <trkpt lat="45.82312" lon="4.95544">
        <ele>184.37001</ele>
        <time>2023-07-11T07:49:02.000Z</time>
      </trkpt>
      <trkpt lat="45.82314" lon="4.95552">
        <ele>184.40077</ele>
        <time>2023-07-11T07:49:03.000Z</time>
      </trkpt>
      <trkpt lat="45.82316" lon="4.9556">
        <ele>184.44756</ele>
        <time>2023-07-11T07:49:04.000Z</time>
      </trkpt>
      <trkpt lat="45.82318" lon="4.95568">
        <ele>184.52219</ele>
        <time>2023-07-11T07:49:05.000Z</time>
      </trkpt>
      <trkpt lat="45.82319" lon="4.95575">
        <ele>184.61203</ele>
        <time>2023-07-11T07:49:06.000Z</time>
      </trkpt>
      <trkpt lat="45.82321" lon="4.95581">
        <ele>184.64182</ele>
        <time>2023-07-11T07:49:07.000Z</time>
      </trkpt>
      <trkpt lat="45.82322" lon="4.95589">
        <ele>184.65355</ele>
        <time>2023-07-11T07:49:08.000Z</time>
      </trkpt>
      <trkpt lat="45.82324" lon="4.95596">
        <ele>184.61508</ele>
        <time>2023-07-11T07:49:09.000Z</time>
      </trkpt>
      <trkpt lat="45.82325" lon="4.95604">
        <ele>184.58452</ele>
        <time>2023-07-11T07:49:10.000Z</time>
      </trkpt>
      <trkpt lat="45.82327" lon="4.95613">
        <ele>184.46515</ele>
        <time>2023-07-11T07:49:11.000Z</time>
      </trkpt>
      <trkpt lat="45.82329" lon="4.95621">
        <ele>184.35965</ele>
        <time>2023-07-11T07:49:12.000Z</time>
      </trkpt>
      <trkpt lat="45.82331" lon="4.9563">
        <ele>184.25468</ele>
        <time>2023-07-11T07:49:13.000Z</time>
      </trkpt>
      <trkpt lat="45.82333" lon="4.95637">
        <ele>184.18985</ele>
        <time>2023-07-11T07:49:14.000Z</time>
      </trkpt>
      <trkpt lat="45.82335" lon="4.95645">
        <ele>184.13052</ele>
        <time>2023-07-11T07:49:15.000Z</time>
      </trkpt>
      <trkpt lat="45.82337" lon="4.95652">
        <ele>184.073</ele>
        <time>2023-07-11T07:49:16.000Z</time>
      </trkpt>
      <trkpt lat="45.82338" lon="4.95659">
        <ele>184.04597</ele>
        <time>2023-07-11T07:49:17.000Z</time>
      </trkpt>
      <trkpt lat="45.82339" lon="4.95666">
        <ele>184.02274</ele>
        <time>2023-07-11T07:49:18.000Z</time>
      </trkpt>
      <trkpt lat="45.82342" lon="4.95671">
        <ele>183.99211</ele>
        <time>2023-07-11T07:49:19.000Z</time>
      </trkpt>
      <trkpt lat="45.82344" lon="4.95674">
        <ele>184.01967</ele>
        <time>2023-07-11T07:49:20.000Z</time>
      </trkpt>
      <trkpt lat="45.82346" lon="4.95673">
        <ele>183.99863</ele>
        <time>2023-07-11T07:49:21.000Z</time>
      </trkpt>
      <trkpt lat="45.82348" lon="4.95672">
        <ele>183.99658</ele>
        <time>2023-07-11T07:49:22.000Z</time>
      </trkpt>
      <trkpt lat="45.82352" lon="4.9567">
        <ele>183.98474</ele>
        <time>2023-07-11T07:49:23.000Z</time>
      </trkpt>
      <trkpt lat="45.82355" lon="4.95669">
        <ele>183.95026</ele>
        <time>2023-07-11T07:49:24.000Z</time>
      </trkpt>
      <trkpt lat="45.8236" lon="4.95667">
        <ele>183.90263</ele>
        <time>2023-07-11T07:49:25.000Z</time>
      </trkpt>
      <trkpt lat="45.82364" lon="4.95665">
        <ele>183.85703</ele>
        <time>2023-07-11T07:49:26.000Z</time>
      </trkpt>
      <trkpt lat="45.82369" lon="4.95662">
        <ele>183.84653</ele>
        <time>2023-07-11T07:49:27.000Z</time>
      </trkpt>
      <trkpt lat="45.82374" lon="4.9566">
        <ele>183.82161</ele>
        <time>2023-07-11T07:49:28.000Z</time>
      </trkpt>
      <trkpt lat="45.82377" lon="4.95657">
        <ele>183.81497</ele>
        <time>2023-07-11T07:49:29.000Z</time>
      </trkpt>
      <trkpt lat="45.82381" lon="4.95654">
        <ele>183.81186</ele>
        <time>2023-07-11T07:49:30.000Z</time>
      </trkpt>
      <trkpt lat="45.82386" lon="4.95651">
        <ele>183.8672</ele>
        <time>2023-07-11T07:49:31.000Z</time>
      </trkpt>
      <trkpt lat="45.8239" lon="4.95649">
        <ele>183.89383</ele>
        <time>2023-07-11T07:49:32.000Z</time>
      </trkpt>
      <trkpt lat="45.82396" lon="4.95648">
        <ele>183.94481</ele>
        <time>2023-07-11T07:49:33.000Z</time>
      </trkpt>
      <trkpt lat="45.82401" lon="4.95646">
        <ele>183.98689</ele>
        <time>2023-07-11T07:49:34.000Z</time>
      </trkpt>
      <trkpt lat="45.82405" lon="4.95643">
        <ele>184.07065</ele>
        <time>2023-07-11T07:49:35.000Z</time>
      </trkpt>
      <trkpt lat="45.8241" lon="4.95639">
        <ele>184.1496</ele>
        <time>2023-07-11T07:49:36.000Z</time>
      </trkpt>
      <trkpt lat="45.82414" lon="4.95637">
        <ele>184.22083</ele>
        <time>2023-07-11T07:49:37.000Z</time>
      </trkpt>
      <trkpt lat="45.8242" lon="4.95636">
        <ele>184.23401</ele>
        <time>2023-07-11T07:49:38.000Z</time>
      </trkpt>
      <trkpt lat="45.82425" lon="4.95634">
        <ele>184.20753</ele>
        <time>2023-07-11T07:49:39.000Z</time>
      </trkpt>
      <trkpt lat="45.8243" lon="4.95633">
        <ele>184.12128</ele>
        <time>2023-07-11T07:49:40.000Z</time>
      </trkpt>
      <trkpt lat="45.82435" lon="4.9563">
        <ele>184.05281</ele>
        <time>2023-07-11T07:49:41.000Z</time>
      </trkpt>
      <trkpt lat="45.8244" lon="4.95626">
        <ele>183.94388</ele>
        <time>2023-07-11T07:49:42.000Z</time>
      </trkpt>
      <trkpt lat="45.82445" lon="4.95625">
        <ele>183.83977</ele>
        <time>2023-07-11T07:49:43.000Z</time>
      </trkpt>
      <trkpt lat="45.8245" lon="4.95621">
        <ele>183.79097</ele>
        <time>2023-07-11T07:49:44.000Z</time>
      </trkpt>
      <trkpt lat="45.82454" lon="4.95617">
        <ele>183.6825</ele>
        <time>2023-07-11T07:49:45.000Z</time>
      </trkpt>
      <trkpt lat="45.82459" lon="4.95615">
        <ele>183.56601</ele>
        <time>2023-07-11T07:49:46.000Z</time>
      </trkpt>
      <trkpt lat="45.82464" lon="4.95614">
        <ele>183.46516</ele>
        <time>2023-07-11T07:49:47.000Z</time>
      </trkpt>
      <trkpt lat="45.82469" lon="4.95614">
        <ele>183.38287</ele>
        <time>2023-07-11T07:49:48.000Z</time>
      </trkpt>
      <trkpt lat="45.82474" lon="4.95611">
        <ele>183.2923</ele>
        <time>2023-07-11T07:49:49.000Z</time>
      </trkpt>
      <trkpt lat="45.82479" lon="4.95609">
        <ele>183.2484</ele>
        <time>2023-07-11T07:49:50.000Z</time>
      </trkpt>
      <trkpt lat="45.82483" lon="4.95607">
        <ele>183.25917</ele>
        <time>2023-07-11T07:49:51.000Z</time>
      </trkpt>
      <trkpt lat="45.82488" lon="4.95607">
        <ele>183.29707</ele>
        <time>2023-07-11T07:49:52.000Z</time>
      </trkpt>
      <trkpt lat="45.82492" lon="4.95604">
        <ele>183.31491</ele>
        <time>2023-07-11T07:49:53.000Z</time>
      </trkpt>
      <trkpt lat="45.82496" lon="4.95604">
        <ele>183.34267</ele>
        <time>2023-07-11T07:49:54.000Z</time>
      </trkpt>
      <trkpt lat="45.825" lon="4.95602">
        <ele>183.30124</ele>
        <time>2023-07-11T07:49:55.000Z</time>
      </trkpt>
      <trkpt lat="45.82504" lon="4.956">
        <ele>183.29243</ele>
        <time>2023-07-11T07:49:56.000Z</time>
      </trkpt>
      <trkpt lat="45.82508" lon="4.95599">
        <ele>183.28595</ele>
        <time>2023-07-11T07:49:57.000Z</time>
      </trkpt>
      <trkpt lat="45.82512" lon="4.95598">
        <ele>183.3335</ele>
        <time>2023-07-11T07:49:58.000Z</time>
      </trkpt>
      <trkpt lat="45.82514" lon="4.95597">
        <ele>183.40373</ele>
        <time>2023-07-11T07:49:59.000Z</time>
      </trkpt>
      <trkpt lat="45.82517" lon="4.95597">
        <ele>183.41255</ele>
        <time>2023-07-11T07:50:00.000Z</time>
      </trkpt>
      <trkpt lat="45.82519" lon="4.95595">
        <ele>183.45364</ele>
        <time>2023-07-11T07:50:02.000Z</time>
      </trkpt>
      <trkpt lat="45.82522" lon="4.95596">
        <ele>183.44876</ele>
        <time>2023-07-11T07:50:03.000Z</time>
      </trkpt>
      <trkpt lat="45.82524" lon="4.95597">
        <ele>183.48085</ele>
        <time>2023-07-11T07:50:05.000Z</time>
      </trkpt>
      <trkpt lat="45.82526" lon="4.95598">
        <ele>183.45879</ele>
        <time>2023-07-11T07:50:06.000Z</time>
      </trkpt>
      <trkpt lat="45.82529" lon="4.95598">
        <ele>183.47481</ele>
        <time>2023-07-11T07:50:07.000Z</time>
      </trkpt>
      <trkpt lat="45.82532" lon="4.95597">
        <ele>183.51181</ele>
        <time>2023-07-11T07:50:08.000Z</time>
      </trkpt>
      <trkpt lat="45.82535" lon="4.95595">
        <ele>183.5137</ele>
        <time>2023-07-11T07:50:09.000Z</time>
      </trkpt>
      <trkpt lat="45.8254" lon="4.95592">
        <ele>183.46539</ele>
        <time>2023-07-11T07:50:10.000Z</time>
      </trkpt>
      <trkpt lat="45.82543" lon="4.95589">
        <ele>183.47464</ele>
        <time>2023-07-11T07:50:11.000Z</time>
      </trkpt>
      <trkpt lat="45.82547" lon="4.95586">
        <ele>183.47336</ele>
        <time>2023-07-11T07:50:12.000Z</time>
      </trkpt>
      <trkpt lat="45.82551" lon="4.95583">
        <ele>183.42354</ele>
        <time>2023-07-11T07:50:13.000Z</time>
      </trkpt>
      <trkpt lat="45.82556" lon="4.95581">
        <ele>183.3362</ele>
        <time>2023-07-11T07:50:14.000Z</time>
      </trkpt>
      <trkpt lat="45.8256" lon="4.95578">
        <ele>183.29887</ele>
        <time>2023-07-11T07:50:15.000Z</time>
      </trkpt>
      <trkpt lat="45.82564" lon="4.95575">
        <ele>183.2402</ele>
        <time>2023-07-11T07:50:16.000Z</time>
      </trkpt>
      <trkpt lat="45.82569" lon="4.95571">
        <ele>183.18755</ele>
        <time>2023-07-11T07:50:17.000Z</time>
      </trkpt>
      <trkpt lat="45.82575" lon="4.95567">
        <ele>183.0817</ele>
        <time>2023-07-11T07:50:18.000Z</time>
      </trkpt>
      <trkpt lat="45.82578" lon="4.95563">
        <ele>182.9651</ele>
        <time>2023-07-11T07:50:19.000Z</time>
      </trkpt>
      <trkpt lat="45.82582" lon="4.95559">
        <ele>182.83994</ele>
        <time>2023-07-11T07:50:20.000Z</time>
      </trkpt>
      <trkpt lat="45.82587" lon="4.95556">
        <ele>182.70102</ele>
        <time>2023-07-11T07:50:21.000Z</time>
      </trkpt>
      <trkpt lat="45.82591" lon="4.95554">
        <ele>182.60059</ele>
        <time>2023-07-11T07:50:22.000Z</time>
      </trkpt>
      <trkpt lat="45.82596" lon="4.95551">
        <ele>182.48521</ele>
        <time>2023-07-11T07:50:23.000Z</time>
      </trkpt>
      <trkpt lat="45.826" lon="4.95547">
        <ele>182.42502</ele>
        <time>2023-07-11T07:50:24.000Z</time>
      </trkpt>
      <trkpt lat="45.82605" lon="4.95545">
        <ele>182.34979</ele>
        <time>2023-07-11T07:50:25.000Z</time>
      </trkpt>
      <trkpt lat="45.82609" lon="4.95541">
        <ele>182.27261</ele>
        <time>2023-07-11T07:50:26.000Z</time>
      </trkpt>
      <trkpt lat="45.82614" lon="4.95539">
        <ele>182.20016</ele>
        <time>2023-07-11T07:50:27.000Z</time>
      </trkpt>
      <trkpt lat="45.82618" lon="4.95534">
        <ele>182.12814</ele>
        <time>2023-07-11T07:50:28.000Z</time>
      </trkpt>
      <trkpt lat="45.82623" lon="4.9553">
        <ele>182.07639</ele>
        <time>2023-07-11T07:50:29.000Z</time>
      </trkpt>
      <trkpt lat="45.82628" lon="4.95527">
        <ele>182.07358</ele>
        <time>2023-07-11T07:50:30.000Z</time>
      </trkpt>
      <trkpt lat="45.82632" lon="4.95523">
        <ele>182.10336</ele>
        <time>2023-07-11T07:50:31.000Z</time>
      </trkpt>
      <trkpt lat="45.82636" lon="4.95519">
        <ele>182.07498</ele>
        <time>2023-07-11T07:50:32.000Z</time>
      </trkpt>
      <trkpt lat="45.82641" lon="4.95515">
        <ele>182.04625</ele>
        <time>2023-07-11T07:50:33.000Z</time>
      </trkpt>
      <trkpt lat="45.82645" lon="4.95512">
        <ele>182.05832</ele>
        <time>2023-07-11T07:50:34.000Z</time>
      </trkpt>
      <trkpt lat="45.82649" lon="4.95508">
        <ele>182.0737</ele>
        <time>2023-07-11T07:50:35.000Z</time>
      </trkpt>
      <trkpt lat="45.82653" lon="4.95503">
        <ele>182.09061</ele>
        <time>2023-07-11T07:50:36.000Z</time>
      </trkpt>
      <trkpt lat="45.82656" lon="4.95499">
        <ele>182.1405</ele>
        <time>2023-07-11T07:50:37.000Z</time>
      </trkpt>
      <trkpt lat="45.8266" lon="4.95495">
        <ele>182.18022</ele>
        <time>2023-07-11T07:50:38.000Z</time>
      </trkpt>
      <trkpt lat="45.82663" lon="4.9549">
        <ele>182.239</ele>
        <time>2023-07-11T07:50:39.000Z</time>
      </trkpt>
      <trkpt lat="45.82667" lon="4.95486">
        <ele>182.33243</ele>
        <time>2023-07-11T07:50:40.000Z</time>
      </trkpt>
      <trkpt lat="45.8267" lon="4.95481">
        <ele>182.45628</ele>
        <time>2023-07-11T07:50:41.000Z</time>
      </trkpt>
      <trkpt lat="45.82673" lon="4.95478">
        <ele>182.60852</ele>
        <time>2023-07-11T07:50:42.000Z</time>
      </trkpt>
      <trkpt lat="45.82677" lon="4.95475">
        <ele>182.75729</ele>
        <time>2023-07-11T07:50:43.000Z</time>
      </trkpt>
      <trkpt lat="45.8268" lon="4.95471">
        <ele>182.91675</ele>
        <time>2023-07-11T07:50:44.000Z</time>
      </trkpt>
      <trkpt lat="45.82684" lon="4.95468">
        <ele>183.17244</ele>
        <time>2023-07-11T07:50:45.000Z</time>
      </trkpt>
      <trkpt lat="45.82687" lon="4.95465">
        <ele>183.43265</ele>
        <time>2023-07-11T07:50:46.000Z</time>
      </trkpt>
      <trkpt lat="45.8269" lon="4.95463">
        <ele>183.70108</ele>
        <time>2023-07-11T07:50:47.000Z</time>
      </trkpt>
      <trkpt lat="45.82694" lon="4.9546">
        <ele>183.96275</ele>
        <time>2023-07-11T07:50:48.000Z</time>
      </trkpt>
      <trkpt lat="45.82697" lon="4.95458">
        <ele>184.2204</ele>
        <time>2023-07-11T07:50:49.000Z</time>
      </trkpt>
      <trkpt lat="45.827" lon="4.95456">
        <ele>184.43231</ele>
        <time>2023-07-11T07:50:50.000Z</time>
      </trkpt>
      <trkpt lat="45.82703" lon="4.95454">
        <ele>184.59431</ele>
        <time>2023-07-11T07:50:51.000Z</time>
      </trkpt>
      <trkpt lat="45.82706" lon="4.95453">
        <ele>184.77094</ele>
        <time>2023-07-11T07:50:52.000Z</time>
      </trkpt>
      <trkpt lat="45.82708" lon="4.95451">
        <ele>184.88007</ele>
        <time>2023-07-11T07:50:53.000Z</time>
      </trkpt>
      <trkpt lat="45.8271" lon="4.9545">
        <ele>185.00693</ele>
        <time>2023-07-11T07:50:54.000Z</time>
      </trkpt>
      <trkpt lat="45.82713" lon="4.95449">
        <ele>185.22739</ele>
        <time>2023-07-11T07:50:55.000Z</time>
      </trkpt>
      <trkpt lat="45.82716" lon="4.95448">
        <ele>185.45834</ele>
        <time>2023-07-11T07:50:56.000Z</time>
      </trkpt>
      <trkpt lat="45.82719" lon="4.95446">
        <ele>185.68037</ele>
        <time>2023-07-11T07:50:57.000Z</time>
      </trkpt>
      <trkpt lat="45.82723" lon="4.95444">
        <ele>185.94585</ele>
        <time>2023-07-11T07:50:58.000Z</time>
      </trkpt>
      <trkpt lat="45.82726" lon="4.95442">
        <ele>186.22133</ele>
        <time>2023-07-11T07:50:59.000Z</time>
      </trkpt>
      <trkpt lat="45.82729" lon="4.95441">
        <ele>186.4547</ele>
        <time>2023-07-11T07:51:00.000Z</time>
      </trkpt>
      <trkpt lat="45.82732" lon="4.9544">
        <ele>186.69888</ele>
        <time>2023-07-11T07:51:01.000Z</time>
      </trkpt>
      <trkpt lat="45.82736" lon="4.95439">
        <ele>186.96829</ele>
        <time>2023-07-11T07:51:02.000Z</time>
      </trkpt>
      <trkpt lat="45.82739" lon="4.95438">
        <ele>187.26685</ele>
        <time>2023-07-11T07:51:03.000Z</time>
      </trkpt>
      <trkpt lat="45.82742" lon="4.95437">
        <ele>187.61111</ele>
        <time>2023-07-11T07:51:04.000Z</time>
      </trkpt>
      <trkpt lat="45.82746" lon="4.95435">
        <ele>187.87177</ele>
        <time>2023-07-11T07:51:05.000Z</time>
      </trkpt>
      <trkpt lat="45.82749" lon="4.95431">
        <ele>188.18102</ele>
        <time>2023-07-11T07:51:06.000Z</time>
      </trkpt>
      <trkpt lat="45.82751" lon="4.95427">
        <ele>188.4888</ele>
        <time>2023-07-11T07:51:07.000Z</time>
      </trkpt>
      <trkpt lat="45.82753" lon="4.95422">
        <ele>188.80557</ele>
        <time>2023-07-11T07:51:08.000Z</time>
      </trkpt>
      <trkpt lat="45.82754" lon="4.95417">
        <ele>189.13805</ele>
        <time>2023-07-11T07:51:09.000Z</time>
      </trkpt>
      <trkpt lat="45.82756" lon="4.95413">
        <ele>189.48477</ele>
        <time>2023-07-11T07:51:10.000Z</time>
      </trkpt>
      <trkpt lat="45.82757" lon="4.95409">
        <ele>189.80179</ele>
        <time>2023-07-11T07:51:11.000Z</time>
      </trkpt>
      <trkpt lat="45.82759" lon="4.95404">
        <ele>190.15916</ele>
        <time>2023-07-11T07:51:12.000Z</time>
      </trkpt>
      <trkpt lat="45.82761" lon="4.954">
        <ele>190.59091</ele>
        <time>2023-07-11T07:51:13.000Z</time>
      </trkpt>
      <trkpt lat="45.82763" lon="4.95396">
        <ele>190.99649</ele>
        <time>2023-07-11T07:51:14.000Z</time>
      </trkpt>
      <trkpt lat="45.82766" lon="4.95392">
        <ele>191.28593</ele>
        <time>2023-07-11T07:51:15.000Z</time>
      </trkpt>
      <trkpt lat="45.82768" lon="4.95389">
        <ele>191.62656</ele>
        <time>2023-07-11T07:51:16.000Z</time>
      </trkpt>
      <trkpt lat="45.82771" lon="4.95386">
        <ele>191.9928</ele>
        <time>2023-07-11T07:51:17.000Z</time>
      </trkpt>
      <trkpt lat="45.82774" lon="4.95383">
        <ele>192.37431</ele>
        <time>2023-07-11T07:51:18.000Z</time>
      </trkpt>
      <trkpt lat="45.82777" lon="4.9538">
        <ele>192.74258</ele>
        <time>2023-07-11T07:51:19.000Z</time>
      </trkpt>
      <trkpt lat="45.8278" lon="4.95378">
        <ele>193.13606</ele>
        <time>2023-07-11T07:51:20.000Z</time>
      </trkpt>
      <trkpt lat="45.82783" lon="4.95375">
        <ele>193.51707</ele>
        <time>2023-07-11T07:51:21.000Z</time>
      </trkpt>
      <trkpt lat="45.82786" lon="4.95373">
        <ele>193.89885</ele>
        <time>2023-07-11T07:51:22.000Z</time>
      </trkpt>
      <trkpt lat="45.82789" lon="4.95371">
        <ele>194.25894</ele>
        <time>2023-07-11T07:51:23.000Z</time>
      </trkpt>
      <trkpt lat="45.82792" lon="4.95369">
        <ele>194.60405</ele>
        <time>2023-07-11T07:51:24.000Z</time>
      </trkpt>
      <trkpt lat="45.82794" lon="4.95366">
        <ele>194.95537</ele>
        <time>2023-07-11T07:51:25.000Z</time>
      </trkpt>
      <trkpt lat="45.82797" lon="4.95364">
        <ele>195.30019</ele>
        <time>2023-07-11T07:51:26.000Z</time>
      </trkpt>
      <trkpt lat="45.828" lon="4.95361">
        <ele>195.63785</ele>
        <time>2023-07-11T07:51:27.000Z</time>
      </trkpt>
      <trkpt lat="45.82803" lon="4.95359">
        <ele>195.97437</ele>
        <time>2023-07-11T07:51:28.000Z</time>
      </trkpt>
      <trkpt lat="45.82806" lon="4.95357">
        <ele>196.31659</ele>
        <time>2023-07-11T07:51:29.000Z</time>
      </trkpt>
      <trkpt lat="45.82808" lon="4.95356">
        <ele>196.72943</ele>
        <time>2023-07-11T07:51:30.000Z</time>
      </trkpt>
      <trkpt lat="45.82811" lon="4.95354">
        <ele>197.01735</ele>
        <time>2023-07-11T07:51:31.000Z</time>
      </trkpt>
      <trkpt lat="45.82814" lon="4.95353">
        <ele>197.17432</ele>
        <time>2023-07-11T07:51:32.000Z</time>
      </trkpt>
      <trkpt lat="45.82817" lon="4.95351">
        <ele>197.61772</ele>
        <time>2023-07-11T07:51:33.000Z</time>
      </trkpt>
      <trkpt lat="45.82819" lon="4.9535">
        <ele>198.12949</ele>
        <time>2023-07-11T07:51:34.000Z</time>
      </trkpt>
      <trkpt lat="45.82822" lon="4.95348">
        <ele>198.66405</ele>
        <time>2023-07-11T07:51:35.000Z</time>
      </trkpt>
      <trkpt lat="45.82825" lon="4.95347">
        <ele>199.16188</ele>
        <time>2023-07-11T07:51:36.000Z</time>
      </trkpt>
      <trkpt lat="45.82827" lon="4.95345">
        <ele>199.65298</ele>
        <time>2023-07-11T07:51:37.000Z</time>
      </trkpt>
      <trkpt lat="45.8283" lon="4.95343">
        <ele>200.13681</ele>
        <time>2023-07-11T07:51:38.000Z</time>
      </trkpt>
      <trkpt lat="45.82833" lon="4.95341">
        <ele>200.62891</ele>
        <time>2023-07-11T07:51:39.000Z</time>
      </trkpt>
      <trkpt lat="45.82835" lon="4.95339">
        <ele>201.41675</ele>
        <time>2023-07-11T07:51:40.000Z</time>
      </trkpt>
      <trkpt lat="45.82838" lon="4.95338">
        <ele>201.74084</ele>
        <time>2023-07-11T07:51:41.000Z</time>
      </trkpt>
      <trkpt lat="45.82841" lon="4.95336">
        <ele>202.21674</ele>
        <time>2023-07-11T07:51:42.000Z</time>
      </trkpt>
      <trkpt lat="45.82843" lon="4.95335">
        <ele>202.70134</ele>
        <time>2023-07-11T07:51:43.000Z</time>
      </trkpt>
      <trkpt lat="45.82845" lon="4.95333">
        <ele>203.13101</ele>
        <time>2023-07-11T07:51:44.000Z</time>
      </trkpt>
      <trkpt lat="45.82848" lon="4.95332">
        <ele>203.54272</ele>
        <time>2023-07-11T07:51:45.000Z</time>
      </trkpt>
      <trkpt lat="45.8285" lon="4.9533">
        <ele>203.96133</ele>
        <time>2023-07-11T07:51:46.000Z</time>
      </trkpt>
      <trkpt lat="45.82852" lon="4.95328">
        <ele>204.44321</ele>
        <time>2023-07-11T07:51:47.000Z</time>
      </trkpt>
      <trkpt lat="45.82854" lon="4.95326">
        <ele>204.94101</ele>
        <time>2023-07-11T07:51:48.000Z</time>
      </trkpt>
      <trkpt lat="45.82857" lon="4.95325">
        <ele>205.44089</ele>
        <time>2023-07-11T07:51:49.000Z</time>
      </trkpt>
      <trkpt lat="45.8286" lon="4.95323">
        <ele>205.92139</ele>
        <time>2023-07-11T07:51:50.000Z</time>
      </trkpt>
      <trkpt lat="45.82862" lon="4.95321">
        <ele>206.88297</ele>
        <time>2023-07-11T07:51:51.000Z</time>
      </trkpt>
      <trkpt lat="45.82865" lon="4.95319">
        <ele>207.95895</ele>
        <time>2023-07-11T07:51:52.000Z</time>
      </trkpt>
      <trkpt lat="45.82867" lon="4.95316">
        <ele>208.757</ele>
        <time>2023-07-11T07:51:53.000Z</time>
      </trkpt>
      <trkpt lat="45.8287" lon="4.95314">
        <ele>209.61409</ele>
        <time>2023-07-11T07:51:54.000Z</time>
      </trkpt>
      <trkpt lat="45.82872" lon="4.95312">
        <ele>210.27393</ele>
        <time>2023-07-11T07:51:55.000Z</time>
      </trkpt>
      <trkpt lat="45.82875" lon="4.9531">
        <ele>210.99356</ele>
        <time>2023-07-11T07:51:56.000Z</time>
      </trkpt>
      <trkpt lat="45.82877" lon="4.95308">
        <ele>211.70483</ele>
        <time>2023-07-11T07:51:57.000Z</time>
      </trkpt>
      <trkpt lat="45.82879" lon="4.95306">
        <ele>212.41853</ele>
        <time>2023-07-11T07:51:58.000Z</time>
      </trkpt>
      <trkpt lat="45.82882" lon="4.95304">
        <ele>213.13948</ele>
        <time>2023-07-11T07:51:59.000Z</time>
      </trkpt>
      <trkpt lat="45.82884" lon="4.95303">
        <ele>213.55118</ele>
        <time>2023-07-11T07:52:00.000Z</time>
      </trkpt>
      <trkpt lat="45.82887" lon="4.95302">
        <ele>214.70621</ele>
        <time>2023-07-11T07:52:01.000Z</time>
      </trkpt>
      <trkpt lat="45.82889" lon="4.953">
        <ele>215.6908</ele>
        <time>2023-07-11T07:52:02.000Z</time>
      </trkpt>
      <trkpt lat="45.82892" lon="4.95298">
        <ele>216.68765</ele>
        <time>2023-07-11T07:52:03.000Z</time>
      </trkpt>
      <trkpt lat="45.82894" lon="4.95296">
        <ele>217.75981</ele>
        <time>2023-07-11T07:52:04.000Z</time>
      </trkpt>
      <trkpt lat="45.82896" lon="4.95294">
        <ele>218.80655</ele>
        <time>2023-07-11T07:52:05.000Z</time>
      </trkpt>
      <trkpt lat="45.82898" lon="4.95292">
        <ele>219.85315</ele>
        <time>2023-07-11T07:52:06.000Z</time>
      </trkpt>
      <trkpt lat="45.829" lon="4.9529">
        <ele>220.8605</ele>
        <time>2023-07-11T07:52:07.000Z</time>
      </trkpt>
      <trkpt lat="45.82902" lon="4.95288">
        <ele>221.86565</ele>
        <time>2023-07-11T07:52:08.000Z</time>
      </trkpt>
      <trkpt lat="45.82904" lon="4.95286">
        <ele>222.88773</ele>
        <time>2023-07-11T07:52:09.000Z</time>
      </trkpt>
      <trkpt lat="45.82907" lon="4.95284">
        <ele>223.93848</ele>
        <time>2023-07-11T07:52:10.000Z</time>
      </trkpt>
      <trkpt lat="45.82909" lon="4.95281">
        <ele>224.66013</ele>
        <time>2023-07-11T07:52:11.000Z</time>
      </trkpt>
      <trkpt lat="45.82911" lon="4.95279">
        <ele>225.38632</ele>
        <time>2023-07-11T07:52:12.000Z</time>
      </trkpt>
      <trkpt lat="45.82913" lon="4.95276">
        <ele>226.09187</ele>
        <time>2023-07-11T07:52:13.000Z</time>
      </trkpt>
      <trkpt lat="45.82915" lon="4.95274">
        <ele>226.64409</ele>
        <time>2023-07-11T07:52:14.000Z</time>
      </trkpt>
      <trkpt lat="45.82918" lon="4.95272">
        <ele>227.39438</ele>
        <time>2023-07-11T07:52:15.000Z</time>
      </trkpt>
      <trkpt lat="45.82921" lon="4.95269">
        <ele>228.08365</ele>
        <time>2023-07-11T07:52:16.000Z</time>
      </trkpt>
      <trkpt lat="45.82924" lon="4.95266">
        <ele>228.75935</ele>
        <time>2023-07-11T07:52:17.000Z</time>
      </trkpt>
      <trkpt lat="45.82926" lon="4.95263">
        <ele>229.42525</ele>
        <time>2023-07-11T07:52:18.000Z</time>
      </trkpt>
      <trkpt lat="45.82929" lon="4.95258">
        <ele>230.09534</ele>
        <time>2023-07-11T07:52:19.000Z</time>
      </trkpt>
      <trkpt lat="45.82931" lon="4.95254">
        <ele>230.75945</ele>
        <time>2023-07-11T07:52:20.000Z</time>
      </trkpt>
      <trkpt lat="45.82932" lon="4.95249">
        <ele>231.14658</ele>
        <time>2023-07-11T07:52:21.000Z</time>
      </trkpt>
      <trkpt lat="45.82933" lon="4.95245">
        <ele>231.53134</ele>
        <time>2023-07-11T07:52:22.000Z</time>
      </trkpt>
      <trkpt lat="45.82934" lon="4.9524">
        <ele>231.89218</ele>
        <time>2023-07-11T07:52:23.000Z</time>
      </trkpt>
      <trkpt lat="45.82935" lon="4.95235">
        <ele>232.16721</ele>
        <time>2023-07-11T07:52:24.000Z</time>
      </trkpt>
      <trkpt lat="45.82936" lon="4.9523">
        <ele>232.43668</ele>
        <time>2023-07-11T07:52:25.000Z</time>
      </trkpt>
      <trkpt lat="45.82937" lon="4.95226">
        <ele>232.86211</ele>
        <time>2023-07-11T07:52:26.000Z</time>
      </trkpt>
      <trkpt lat="45.82937" lon="4.9522">
        <ele>233.25127</ele>
        <time>2023-07-11T07:52:27.000Z</time>
      </trkpt>
      <trkpt lat="45.82938" lon="4.95215">
        <ele>233.70071</ele>
        <time>2023-07-11T07:52:28.000Z</time>
      </trkpt>
      <trkpt lat="45.82939" lon="4.9521">
        <ele>234.16208</ele>
        <time>2023-07-11T07:52:29.000Z</time>
      </trkpt>
      <trkpt lat="45.8294" lon="4.95205">
        <ele>234.63799</ele>
        <time>2023-07-11T07:52:30.000Z</time>
      </trkpt>
      <trkpt lat="45.82941" lon="4.95199">
        <ele>235.10359</ele>
        <time>2023-07-11T07:52:31.000Z</time>
      </trkpt>
      <trkpt lat="45.82943" lon="4.95194">
        <ele>235.59805</ele>
        <time>2023-07-11T07:52:32.000Z</time>
      </trkpt>
      <trkpt lat="45.82944" lon="4.95189">
        <ele>236.11484</ele>
        <time>2023-07-11T07:52:33.000Z</time>
      </trkpt>
      <trkpt lat="45.82945" lon="4.95184">
        <ele>236.67598</ele>
        <time>2023-07-11T07:52:34.000Z</time>
      </trkpt>
      <trkpt lat="45.82946" lon="4.9518">
        <ele>237.24678</ele>
        <time>2023-07-11T07:52:35.000Z</time>
      </trkpt>
      <trkpt lat="45.82947" lon="4.95175">
        <ele>237.78963</ele>
        <time>2023-07-11T07:52:36.000Z</time>
      </trkpt>
      <trkpt lat="45.82947" lon="4.95169">
        <ele>238.33711</ele>
        <time>2023-07-11T07:52:37.000Z</time>
      </trkpt>
      <trkpt lat="45.82948" lon="4.95164">
        <ele>238.87631</ele>
        <time>2023-07-11T07:52:38.000Z</time>
      </trkpt>
      <trkpt lat="45.82948" lon="4.95159">
        <ele>239.43462</ele>
        <time>2023-07-11T07:52:39.000Z</time>
      </trkpt>
      <trkpt lat="45.82949" lon="4.95154">
        <ele>239.98164</ele>
        <time>2023-07-11T07:52:40.000Z</time>
      </trkpt>
      <trkpt lat="45.82949" lon="4.95149">
        <ele>240.5596</ele>
        <time>2023-07-11T07:52:41.000Z</time>
      </trkpt>
      <trkpt lat="45.82949" lon="4.95144">
        <ele>241.14619</ele>
        <time>2023-07-11T07:52:42.000Z</time>
      </trkpt>
      <trkpt lat="45.82949" lon="4.95139">
        <ele>241.75301</ele>
        <time>2023-07-11T07:52:43.000Z</time>
      </trkpt>
      <trkpt lat="45.82949" lon="4.95133">
        <ele>242.42366</ele>
        <time>2023-07-11T07:52:44.000Z</time>
      </trkpt>
      <trkpt lat="45.82948" lon="4.95127">
        <ele>243.10669</ele>
        <time>2023-07-11T07:52:45.000Z</time>
      </trkpt>
      <trkpt lat="45.82948" lon="4.95122">
        <ele>243.61136</ele>
        <time>2023-07-11T07:52:46.000Z</time>
      </trkpt>
      <trkpt lat="45.82947" lon="4.95117">
        <ele>244.13689</ele>
        <time>2023-07-11T07:52:47.000Z</time>
      </trkpt>
      <trkpt lat="45.82946" lon="4.95112">
        <ele>244.57602</ele>
        <time>2023-07-11T07:52:48.000Z</time>
      </trkpt>
      <trkpt lat="45.82946" lon="4.95107">
        <ele>244.99104</ele>
        <time>2023-07-11T07:52:49.000Z</time>
      </trkpt>
      <trkpt lat="45.82945" lon="4.95103">
        <ele>245.37041</ele>
        <time>2023-07-11T07:52:50.000Z</time>
      </trkpt>
      <trkpt lat="45.82944" lon="4.95097">
        <ele>245.75674</ele>
        <time>2023-07-11T07:52:51.000Z</time>
      </trkpt>
      <trkpt lat="45.82943" lon="4.95092">
        <ele>246.14575</ele>
        <time>2023-07-11T07:52:52.000Z</time>
      </trkpt>
      <trkpt lat="45.82942" lon="4.95085">
        <ele>246.54704</ele>
        <time>2023-07-11T07:52:53.000Z</time>
      </trkpt>
      <trkpt lat="45.82941" lon="4.95079">
        <ele>246.94856</ele>
        <time>2023-07-11T07:52:54.000Z</time>
      </trkpt>
      <trkpt lat="45.8294" lon="4.95073">
        <ele>247.34094</ele>
        <time>2023-07-11T07:52:55.000Z</time>
      </trkpt>
      <trkpt lat="45.82939" lon="4.95067">
        <ele>247.77176</ele>
        <time>2023-07-11T07:52:56.000Z</time>
      </trkpt>
      <trkpt lat="45.82939" lon="4.95061">
        <ele>248.23633</ele>
        <time>2023-07-11T07:52:57.000Z</time>
      </trkpt>
      <trkpt lat="45.82938" lon="4.95055">
        <ele>248.69827</ele>
        <time>2023-07-11T07:52:58.000Z</time>
      </trkpt>
      <trkpt lat="45.82937" lon="4.95049">
        <ele>249.12146</ele>
        <time>2023-07-11T07:52:59.000Z</time>
      </trkpt>
      <trkpt lat="45.82936" lon="4.95042">
        <ele>249.56429</ele>
        <time>2023-07-11T07:53:00.000Z</time>
      </trkpt>
      <trkpt lat="45.82935" lon="4.95037">
        <ele>249.9584</ele>
        <time>2023-07-11T07:53:01.000Z</time>
      </trkpt>
      <trkpt lat="45.82935" lon="4.95032">
        <ele>250.39204</ele>
        <time>2023-07-11T07:53:02.000Z</time>
      </trkpt>
      <trkpt lat="45.82934" lon="4.95026">
        <ele>250.77974</ele>
        <time>2023-07-11T07:53:03.000Z</time>
      </trkpt>
      <trkpt lat="45.82933" lon="4.95021">
        <ele>251.15939</ele>
        <time>2023-07-11T07:53:04.000Z</time>
      </trkpt>
      <trkpt lat="45.82933" lon="4.95014">
        <ele>251.56157</ele>
        <time>2023-07-11T07:53:05.000Z</time>
      </trkpt>
      <trkpt lat="45.82932" lon="4.95009">
        <ele>251.94193</ele>
        <time>2023-07-11T07:53:06.000Z</time>
      </trkpt>
      <trkpt lat="45.82932" lon="4.95002">
        <ele>252.36125</ele>
        <time>2023-07-11T07:53:07.000Z</time>
      </trkpt>
      <trkpt lat="45.82933" lon="4.94996">
        <ele>252.88303</ele>
        <time>2023-07-11T07:53:08.000Z</time>
      </trkpt>
      <trkpt lat="45.82933" lon="4.9499">
        <ele>253.41264</ele>
        <time>2023-07-11T07:53:09.000Z</time>
      </trkpt>
      <trkpt lat="45.82933" lon="4.94983">
        <ele>253.93437</ele>
        <time>2023-07-11T07:53:10.000Z</time>
      </trkpt>
      <trkpt lat="45.82935" lon="4.94977">
        <ele>254.44893</ele>
        <time>2023-07-11T07:53:11.000Z</time>
      </trkpt>
      <trkpt lat="45.82935" lon="4.94969">
        <ele>254.94157</ele>
        <time>2023-07-11T07:53:12.000Z</time>
      </trkpt>
      <trkpt lat="45.82936" lon="4.94963">
        <ele>255.43098</ele>
        <time>2023-07-11T07:53:13.000Z</time>
      </trkpt>
      <trkpt lat="45.82937" lon="4.94956">
        <ele>255.94736</ele>
        <time>2023-07-11T07:53:14.000Z</time>
      </trkpt>
      <trkpt lat="45.82939" lon="4.94949">
        <ele>256.45956</ele>
        <time>2023-07-11T07:53:15.000Z</time>
      </trkpt>
      <trkpt lat="45.82941" lon="4.94943">
        <ele>256.91916</ele>
        <time>2023-07-11T07:53:16.000Z</time>
      </trkpt>
      <trkpt lat="45.82942" lon="4.94937">
        <ele>257.40494</ele>
        <time>2023-07-11T07:53:17.000Z</time>
      </trkpt>
      <trkpt lat="45.82943" lon="4.9493">
        <ele>257.91922</ele>
        <time>2023-07-11T07:53:18.000Z</time>
      </trkpt>
      <trkpt lat="45.82944" lon="4.94923">
        <ele>258.44196</ele>
        <time>2023-07-11T07:53:19.000Z</time>
      </trkpt>
      <trkpt lat="45.82944" lon="4.94916">
        <ele>258.97229</ele>
        <time>2023-07-11T07:53:20.000Z</time>
      </trkpt>
      <trkpt lat="45.82945" lon="4.94909">
        <ele>259.55865</ele>
        <time>2023-07-11T07:53:21.000Z</time>
      </trkpt>
      <trkpt lat="45.82946" lon="4.94902">
        <ele>260.10651</ele>
        <time>2023-07-11T07:53:22.000Z</time>
      </trkpt>
      <trkpt lat="45.82945" lon="4.94894">
        <ele>260.66776</ele>
        <time>2023-07-11T07:53:23.000Z</time>
      </trkpt>
      <trkpt lat="45.82946" lon="4.94887">
        <ele>261.2475</ele>
        <time>2023-07-11T07:53:24.000Z</time>
      </trkpt>
      <trkpt lat="45.82946" lon="4.94881">
        <ele>261.8468</ele>
        <time>2023-07-11T07:53:25.000Z</time>
      </trkpt>
      <trkpt lat="45.82947" lon="4.94873">
        <ele>262.49356</ele>
        <time>2023-07-11T07:53:26.000Z</time>
      </trkpt>
      <trkpt lat="45.82947" lon="4.94866">
        <ele>263.09515</ele>
        <time>2023-07-11T07:53:27.000Z</time>
      </trkpt>
      <trkpt lat="45.82949" lon="4.94859">
        <ele>263.62433</ele>
        <time>2023-07-11T07:53:28.000Z</time>
      </trkpt>
      <trkpt lat="45.8295" lon="4.94851">
        <ele>264.1655</ele>
        <time>2023-07-11T07:53:29.000Z</time>
      </trkpt>
      <trkpt lat="45.8295" lon="4.94845">
        <ele>264.58759</ele>
        <time>2023-07-11T07:53:30.000Z</time>
      </trkpt>
      <trkpt lat="45.82951" lon="4.94838">
        <ele>265.02133</ele>
        <time>2023-07-11T07:53:31.000Z</time>
      </trkpt>
      <trkpt lat="45.82953" lon="4.94831">
        <ele>265.3678</ele>
        <time>2023-07-11T07:53:32.000Z</time>
      </trkpt>
      <trkpt lat="45.82954" lon="4.94824">
        <ele>266.06311</ele>
        <time>2023-07-11T07:53:33.000Z</time>
      </trkpt>
      <trkpt lat="45.82955" lon="4.94816">
        <ele>266.69809</ele>
        <time>2023-07-11T07:53:34.000Z</time>
      </trkpt>
      <trkpt lat="45.82955" lon="4.9481">
        <ele>267.34653</ele>
        <time>2023-07-11T07:53:35.000Z</time>
      </trkpt>
      <trkpt lat="45.82956" lon="4.94802">
        <ele>268.02756</ele>
        <time>2023-07-11T07:53:36.000Z</time>
      </trkpt>
      <trkpt lat="45.82957" lon="4.94795">
        <ele>268.65283</ele>
        <time>2023-07-11T07:53:37.000Z</time>
      </trkpt>
      <trkpt lat="45.82957" lon="4.94787">
        <ele>269.24872</ele>
        <time>2023-07-11T07:53:38.000Z</time>
      </trkpt>
      <trkpt lat="45.82958" lon="4.9478">
        <ele>269.84836</ele>
        <time>2023-07-11T07:53:39.000Z</time>
      </trkpt>
      <trkpt lat="45.82959" lon="4.94774">
        <ele>270.44272</ele>
        <time>2023-07-11T07:53:40.000Z</time>
      </trkpt>
      <trkpt lat="45.82961" lon="4.94767">
        <ele>271.03329</ele>
        <time>2023-07-11T07:53:41.000Z</time>
      </trkpt>
      <trkpt lat="45.82964" lon="4.9476">
        <ele>271.64072</ele>
        <time>2023-07-11T07:53:42.000Z</time>
      </trkpt>
      <trkpt lat="45.82965" lon="4.94753">
        <ele>272.73059</ele>
        <time>2023-07-11T07:53:43.000Z</time>
      </trkpt>
      <trkpt lat="45.82967" lon="4.94747">
        <ele>273.86536</ele>
        <time>2023-07-11T07:53:44.000Z</time>
      </trkpt>
      <trkpt lat="45.82969" lon="4.94742">
        <ele>275.00372</ele>
        <time>2023-07-11T07:53:45.000Z</time>
      </trkpt>
      <trkpt lat="45.82971" lon="4.94737">
        <ele>276.29565</ele>
        <time>2023-07-11T07:53:46.000Z</time>
      </trkpt>
      <trkpt lat="45.82973" lon="4.94732">
        <ele>277.58722</ele>
        <time>2023-07-11T07:53:47.000Z</time>
      </trkpt>
      <trkpt lat="45.82975" lon="4.94729">
        <ele>278.84</ele>
        <time>2023-07-11T07:53:48.000Z</time>
      </trkpt>
      <trkpt lat="45.82978" lon="4.94726">
        <ele>280.05386</ele>
        <time>2023-07-11T07:53:49.000Z</time>
      </trkpt>
      <trkpt lat="45.82982" lon="4.94724">
        <ele>279.44897</ele>
        <time>2023-07-11T07:53:50.000Z</time>
      </trkpt>
      <trkpt lat="45.82985" lon="4.94721">
        <ele>278.83197</ele>
        <time>2023-07-11T07:53:51.000Z</time>
      </trkpt>
      <trkpt lat="45.82988" lon="4.94718">
        <ele>278.27228</ele>
        <time>2023-07-11T07:53:52.000Z</time>
      </trkpt>
      <trkpt lat="45.8299" lon="4.94714">
        <ele>277.00912</ele>
        <time>2023-07-11T07:53:53.000Z</time>
      </trkpt>
      <trkpt lat="45.82993" lon="4.94711">
        <ele>275.71832</ele>
        <time>2023-07-11T07:53:54.000Z</time>
      </trkpt>
      <trkpt lat="45.82996" lon="4.94708">
        <ele>275.43283</ele>
        <time>2023-07-11T07:53:55.000Z</time>
      </trkpt>
      <trkpt lat="45.82999" lon="4.94705">
        <ele>274.98346</ele>
        <time>2023-07-11T07:53:56.000Z</time>
      </trkpt>
      <trkpt lat="45.83002" lon="4.94703">
        <ele>274.51898</ele>
        <time>2023-07-11T07:53:57.000Z</time>
      </trkpt>
      <trkpt lat="45.83004" lon="4.94701">
        <ele>274.06516</ele>
        <time>2023-07-11T07:53:58.000Z</time>
      </trkpt>
      <trkpt lat="45.83007" lon="4.94699">
        <ele>273.61139</ele>
        <time>2023-07-11T07:53:59.000Z</time>
      </trkpt>
      <trkpt lat="45.83009" lon="4.94698">
        <ele>273.15741</ele>
        <time>2023-07-11T07:54:00.000Z</time>
      </trkpt>
      <trkpt lat="45.83011" lon="4.94697">
        <ele>272.65005</ele>
        <time>2023-07-11T07:54:01.000Z</time>
      </trkpt>
      <trkpt lat="45.83014" lon="4.94695">
        <ele>273.30051</ele>
        <time>2023-07-11T07:54:03.000Z</time>
      </trkpt>
      <trkpt lat="45.83016" lon="4.94693">
        <ele>273.77008</ele>
        <time>2023-07-11T07:54:05.000Z</time>
      </trkpt>
      <trkpt lat="45.83016" lon="4.94689">
        <ele>274.2197</ele>
        <time>2023-07-11T07:54:14.000Z</time>
      </trkpt>
      <trkpt lat="45.83016" lon="4.94687">
        <ele>274.63483</ele>
        <time>2023-07-11T07:54:15.000Z</time>
      </trkpt>
      <trkpt lat="45.83015" lon="4.94684">
        <ele>274.87408</ele>
        <time>2023-07-11T07:54:16.000Z</time>
      </trkpt>
      <trkpt lat="45.83014" lon="4.94681">
        <ele>272.8056</ele>
        <time>2023-07-11T07:54:17.000Z</time>
      </trkpt>
      <trkpt lat="45.83011" lon="4.94679">
        <ele>271.22571</ele>
        <time>2023-07-11T07:54:18.000Z</time>
      </trkpt>
      <trkpt lat="45.83008" lon="4.94676">
        <ele>269.88696</ele>
        <time>2023-07-11T07:54:19.000Z</time>
      </trkpt>
      <trkpt lat="45.83006" lon="4.94673">
        <ele>270.56329</ele>
        <time>2023-07-11T07:54:20.000Z</time>
      </trkpt>
      <trkpt lat="45.83003" lon="4.9467">
        <ele>271.22443</ele>
        <time>2023-07-11T07:54:21.000Z</time>
      </trkpt>
      <trkpt lat="45.83" lon="4.94666">
        <ele>271.96136</ele>
        <time>2023-07-11T07:54:22.000Z</time>
      </trkpt>
      <trkpt lat="45.82997" lon="4.94664">
        <ele>272.81601</ele>
        <time>2023-07-11T07:54:23.000Z</time>
      </trkpt>
      <trkpt lat="45.82994" lon="4.94661">
        <ele>273.83548</ele>
        <time>2023-07-11T07:54:24.000Z</time>
      </trkpt>
      <trkpt lat="45.82991" lon="4.94659">
        <ele>273.80804</ele>
        <time>2023-07-11T07:54:25.000Z</time>
      </trkpt>
      <trkpt lat="45.82989" lon="4.94656">
        <ele>273.93668</ele>
        <time>2023-07-11T07:54:26.000Z</time>
      </trkpt>
      <trkpt lat="45.82986" lon="4.94653">
        <ele>275.24371</ele>
        <time>2023-07-11T07:54:27.000Z</time>
      </trkpt>
      <trkpt lat="45.82983" lon="4.9465">
        <ele>276.56952</ele>
        <time>2023-07-11T07:54:28.000Z</time>
      </trkpt>
      <trkpt lat="45.8298" lon="4.94648">
        <ele>277.87912</ele>
        <time>2023-07-11T07:54:29.000Z</time>
      </trkpt>
      <trkpt lat="45.82977" lon="4.94645">
        <ele>279.43484</ele>
        <time>2023-07-11T07:54:30.000Z</time>
      </trkpt>
      <trkpt lat="45.82974" lon="4.94641">
        <ele>280.99161</ele>
        <time>2023-07-11T07:54:31.000Z</time>
      </trkpt>
      <trkpt lat="45.82971" lon="4.94637">
        <ele>280.99454</ele>
        <time>2023-07-11T07:54:32.000Z</time>
      </trkpt>
      <trkpt lat="45.82968" lon="4.94633">
        <ele>280.68817</ele>
        <time>2023-07-11T07:54:33.000Z</time>
      </trkpt>
      <trkpt lat="45.82965" lon="4.94628">
        <ele>280.28107</ele>
        <time>2023-07-11T07:54:34.000Z</time>
      </trkpt>
      <trkpt lat="45.82961" lon="4.94625">
        <ele>280.16254</ele>
        <time>2023-07-11T07:54:35.000Z</time>
      </trkpt>
      <trkpt lat="45.82958" lon="4.94622">
        <ele>280.0278</ele>
        <time>2023-07-11T07:54:36.000Z</time>
      </trkpt>
      <trkpt lat="45.82954" lon="4.94618">
        <ele>282.17154</ele>
        <time>2023-07-11T07:54:37.000Z</time>
      </trkpt>
      <trkpt lat="45.82951" lon="4.94615">
        <ele>283.77686</ele>
        <time>2023-07-11T07:54:38.000Z</time>
      </trkpt>
      <trkpt lat="45.82948" lon="4.94611">
        <ele>285.27576</ele>
        <time>2023-07-11T07:54:39.000Z</time>
      </trkpt>
      <trkpt lat="45.82945" lon="4.94608">
        <ele>286.66595</ele>
        <time>2023-07-11T07:54:40.000Z</time>
      </trkpt>
      <trkpt lat="45.82941" lon="4.94604">
        <ele>288.05603</ele>
        <time>2023-07-11T07:54:41.000Z</time>
      </trkpt>
      <trkpt lat="45.82937" lon="4.94601">
        <ele>289.38757</ele>
        <time>2023-07-11T07:54:42.000Z</time>
      </trkpt>
      <trkpt lat="45.82933" lon="4.946">
        <ele>290.98923</ele>
        <time>2023-07-11T07:54:43.000Z</time>
      </trkpt>
      <trkpt lat="45.82929" lon="4.946">
        <ele>292.44696</ele>
        <time>2023-07-11T07:54:44.000Z</time>
      </trkpt>
      <trkpt lat="45.82924" lon="4.94602">
        <ele>293.90393</ele>
        <time>2023-07-11T07:54:45.000Z</time>
      </trkpt>
      <trkpt lat="45.8292" lon="4.94605">
        <ele>295.39798</ele>
        <time>2023-07-11T07:54:46.000Z</time>
      </trkpt>
      <trkpt lat="45.82915" lon="4.94608">
        <ele>295.71429</ele>
        <time>2023-07-11T07:54:47.000Z</time>
      </trkpt>
      <trkpt lat="45.8291" lon="4.94612">
        <ele>295.98575</ele>
        <time>2023-07-11T07:54:48.000Z</time>
      </trkpt>
      <trkpt lat="45.82904" lon="4.94615">
        <ele>296.24023</ele>
        <time>2023-07-11T07:54:49.000Z</time>
      </trkpt>
      <trkpt lat="45.82898" lon="4.94619">
        <ele>296.21457</ele>
        <time>2023-07-11T07:54:50.000Z</time>
      </trkpt>
      <trkpt lat="45.82892" lon="4.94622">
        <ele>296.16846</ele>
        <time>2023-07-11T07:54:51.000Z</time>
      </trkpt>
      <trkpt lat="45.82886" lon="4.94626">
        <ele>296.44571</ele>
        <time>2023-07-11T07:54:52.000Z</time>
      </trkpt>
      <trkpt lat="45.8288" lon="4.9463">
        <ele>296.75253</ele>
        <time>2023-07-11T07:54:53.000Z</time>
      </trkpt>
      <trkpt lat="45.82874" lon="4.94634">
        <ele>297.0575</ele>
        <time>2023-07-11T07:54:54.000Z</time>
      </trkpt>
      <trkpt lat="45.82868" lon="4.94638">
        <ele>297.02069</ele>
        <time>2023-07-11T07:54:55.000Z</time>
      </trkpt>
      <trkpt lat="45.82861" lon="4.94642">
        <ele>296.96466</ele>
        <time>2023-07-11T07:54:56.000Z</time>
      </trkpt>
      <trkpt lat="45.82855" lon="4.94647">
        <ele>296.90952</ele>
        <time>2023-07-11T07:54:57.000Z</time>
      </trkpt>
      <trkpt lat="45.82848" lon="4.94651">
        <ele>296.88727</ele>
        <time>2023-07-11T07:54:58.000Z</time>
      </trkpt>
      <trkpt lat="45.82841" lon="4.94655">
        <ele>296.71649</ele>
        <time>2023-07-11T07:54:59.000Z</time>
      </trkpt>
      <trkpt lat="45.82834" lon="4.94659">
        <ele>296.56256</ele>
        <time>2023-07-11T07:55:00.000Z</time>
      </trkpt>
      <trkpt lat="45.82827" lon="4.94666">
        <ele>296.37961</ele>
        <time>2023-07-11T07:55:01.000Z</time>
      </trkpt>
      <trkpt lat="45.8282" lon="4.94672">
        <ele>296.168</ele>
        <time>2023-07-11T07:55:02.000Z</time>
      </trkpt>
      <trkpt lat="45.82814" lon="4.94679">
        <ele>295.89426</ele>
        <time>2023-07-11T07:55:03.000Z</time>
      </trkpt>
      <trkpt lat="45.82808" lon="4.94686">
        <ele>295.63254</ele>
        <time>2023-07-11T07:55:04.000Z</time>
      </trkpt>
      <trkpt lat="45.82802" lon="4.94696">
        <ele>295.35776</ele>
        <time>2023-07-11T07:55:05.000Z</time>
      </trkpt>
      <trkpt lat="45.82799" lon="4.94705">
        <ele>295.02652</ele>
        <time>2023-07-11T07:55:06.000Z</time>
      </trkpt>
      <trkpt lat="45.82797" lon="4.94717">
        <ele>294.68985</ele>
        <time>2023-07-11T07:55:07.000Z</time>
      </trkpt>
      <trkpt lat="45.82797" lon="4.9473">
        <ele>294.36127</ele>
        <time>2023-07-11T07:55:08.000Z</time>
      </trkpt>
      <trkpt lat="45.82798" lon="4.94742">
        <ele>294.00763</ele>
        <time>2023-07-11T07:55:09.000Z</time>
      </trkpt>
      <trkpt lat="45.828" lon="4.94755">
        <ele>293.65311</ele>
        <time>2023-07-11T07:55:10.000Z</time>
      </trkpt>
      <trkpt lat="45.82803" lon="4.94767">
        <ele>293.2955</ele>
        <time>2023-07-11T07:55:11.000Z</time>
      </trkpt>
      <trkpt lat="45.82805" lon="4.9478">
        <ele>292.95419</ele>
        <time>2023-07-11T07:55:12.000Z</time>
      </trkpt>
      <trkpt lat="45.82808" lon="4.94793">
        <ele>292.56842</ele>
        <time>2023-07-11T07:55:13.000Z</time>
      </trkpt>
      <trkpt lat="45.8281" lon="4.94805">
        <ele>292.25031</ele>
        <time>2023-07-11T07:55:14.000Z</time>
      </trkpt>
      <trkpt lat="45.82813" lon="4.94818">
        <ele>292.10535</ele>
        <time>2023-07-11T07:55:15.000Z</time>
      </trkpt>
      <trkpt lat="45.82817" lon="4.94831">
        <ele>291.97086</ele>
        <time>2023-07-11T07:55:16.000Z</time>
      </trkpt>
      <trkpt lat="45.82821" lon="4.94842">
        <ele>291.716</ele>
        <time>2023-07-11T07:55:17.000Z</time>
      </trkpt>
      <trkpt lat="45.82828" lon="4.94853">
        <ele>291.46057</ele>
        <time>2023-07-11T07:55:18.000Z</time>
      </trkpt>
      <trkpt lat="45.82836" lon="4.9486">
        <ele>291.18674</ele>
        <time>2023-07-11T07:55:19.000Z</time>
      </trkpt>
      <trkpt lat="45.82845" lon="4.94867">
        <ele>290.87549</ele>
        <time>2023-07-11T07:55:20.000Z</time>
      </trkpt>
      <trkpt lat="45.82852" lon="4.94875">
        <ele>290.58698</ele>
        <time>2023-07-11T07:55:21.000Z</time>
      </trkpt>
      <trkpt lat="45.82856" lon="4.94886">
        <ele>290.27112</ele>
        <time>2023-07-11T07:55:22.000Z</time>
      </trkpt>
      <trkpt lat="45.82859" lon="4.94898">
        <ele>289.95923</ele>
        <time>2023-07-11T07:55:23.000Z</time>
      </trkpt>
      <trkpt lat="45.8286" lon="4.94911">
        <ele>289.62531</ele>
        <time>2023-07-11T07:55:24.000Z</time>
      </trkpt>
      <trkpt lat="45.82859" lon="4.94922">
        <ele>289.29929</ele>
        <time>2023-07-11T07:55:25.000Z</time>
      </trkpt>
      <trkpt lat="45.82858" lon="4.94932">
        <ele>288.97714</ele>
        <time>2023-07-11T07:55:26.000Z</time>
      </trkpt>
      <trkpt lat="45.82859" lon="4.94942">
        <ele>288.61676</ele>
        <time>2023-07-11T07:55:27.000Z</time>
      </trkpt>
      <trkpt lat="45.8286" lon="4.94952">
        <ele>288.25507</ele>
        <time>2023-07-11T07:55:28.000Z</time>
      </trkpt>
      <trkpt lat="45.82859" lon="4.9496">
        <ele>287.88654</ele>
        <time>2023-07-11T07:55:29.000Z</time>
      </trkpt>
      <trkpt lat="45.82858" lon="4.94969">
        <ele>287.53641</ele>
        <time>2023-07-11T07:55:30.000Z</time>
      </trkpt>
      <trkpt lat="45.82854" lon="4.94974">
        <ele>287.25491</ele>
        <time>2023-07-11T07:55:31.000Z</time>
      </trkpt>
      <trkpt lat="45.82849" lon="4.94974">
        <ele>286.82489</ele>
        <time>2023-07-11T07:55:32.000Z</time>
      </trkpt>
      <trkpt lat="45.82845" lon="4.94968">
        <ele>286.27139</ele>
        <time>2023-07-11T07:55:33.000Z</time>
      </trkpt>
      <trkpt lat="45.82842" lon="4.9496">
        <ele>285.65717</ele>
        <time>2023-07-11T07:55:34.000Z</time>
      </trkpt>
      <trkpt lat="45.8284" lon="4.94952">
        <ele>284.88379</ele>
        <time>2023-07-11T07:55:35.000Z</time>
      </trkpt>
      <trkpt lat="45.82839" lon="4.94943">
        <ele>284.03168</ele>
        <time>2023-07-11T07:55:36.000Z</time>
      </trkpt>
      <trkpt lat="45.82837" lon="4.94933">
        <ele>283.30411</ele>
        <time>2023-07-11T07:55:37.000Z</time>
      </trkpt>
      <trkpt lat="45.82836" lon="4.94924">
        <ele>282.60724</ele>
        <time>2023-07-11T07:55:38.000Z</time>
      </trkpt>
      <trkpt lat="45.82833" lon="4.94915">
        <ele>281.9346</ele>
        <time>2023-07-11T07:55:39.000Z</time>
      </trkpt>
      <trkpt lat="45.8283" lon="4.94906">
        <ele>281.2785</ele>
        <time>2023-07-11T07:55:40.000Z</time>
      </trkpt>
      <trkpt lat="45.82825" lon="4.94897">
        <ele>280.62286</ele>
        <time>2023-07-11T07:55:41.000Z</time>
      </trkpt>
      <trkpt lat="45.8282" lon="4.94891">
        <ele>279.99271</ele>
        <time>2023-07-11T07:55:42.000Z</time>
      </trkpt>
      <trkpt lat="45.82815" lon="4.94885">
        <ele>279.35019</ele>
        <time>2023-07-11T07:55:43.000Z</time>
      </trkpt>
      <trkpt lat="45.82809" lon="4.94876">
        <ele>278.73239</ele>
        <time>2023-07-11T07:55:44.000Z</time>
      </trkpt>
      <trkpt lat="45.82804" lon="4.94868">
        <ele>278.09766</ele>
        <time>2023-07-11T07:55:45.000Z</time>
      </trkpt>
      <trkpt lat="45.828" lon="4.9486">
        <ele>277.46362</ele>
        <time>2023-07-11T07:55:46.000Z</time>
      </trkpt>
      <trkpt lat="45.82796" lon="4.94851">
        <ele>276.84113</ele>
        <time>2023-07-11T07:55:47.000Z</time>
      </trkpt>
      <trkpt lat="45.82792" lon="4.94841">
        <ele>276.17493</ele>
        <time>2023-07-11T07:55:48.000Z</time>
      </trkpt>
      <trkpt lat="45.82788" lon="4.94832">
        <ele>275.54993</ele>
        <time>2023-07-11T07:55:49.000Z</time>
      </trkpt>
      <trkpt lat="45.82785" lon="4.94822">
        <ele>274.91083</ele>
        <time>2023-07-11T07:55:50.000Z</time>
      </trkpt>
      <trkpt lat="45.82781" lon="4.94812">
        <ele>274.18863</ele>
        <time>2023-07-11T07:55:51.000Z</time>
      </trkpt>
      <trkpt lat="45.82777" lon="4.948">
        <ele>273.62979</ele>
        <time>2023-07-11T07:55:52.000Z</time>
      </trkpt>
      <trkpt lat="45.82773" lon="4.94791">
        <ele>273.19946</ele>
        <time>2023-07-11T07:55:53.000Z</time>
      </trkpt>
      <trkpt lat="45.8277" lon="4.94779">
        <ele>272.79889</ele>
        <time>2023-07-11T07:55:54.000Z</time>
      </trkpt>
      <trkpt lat="45.82767" lon="4.94768">
        <ele>272.40512</ele>
        <time>2023-07-11T07:55:55.000Z</time>
      </trkpt>
      <trkpt lat="45.82764" lon="4.94756">
        <ele>272.08942</ele>
        <time>2023-07-11T07:55:56.000Z</time>
      </trkpt>
      <trkpt lat="45.8276" lon="4.94744">
        <ele>271.79156</ele>
        <time>2023-07-11T07:55:57.000Z</time>
      </trkpt>
      <trkpt lat="45.82756" lon="4.94732">
        <ele>271.48853</ele>
        <time>2023-07-11T07:55:58.000Z</time>
      </trkpt>
      <trkpt lat="45.82752" lon="4.94719">
        <ele>271.19247</ele>
        <time>2023-07-11T07:55:59.000Z</time>
      </trkpt>
      <trkpt lat="45.82748" lon="4.94706">
        <ele>270.90393</ele>
        <time>2023-07-11T07:56:00.000Z</time>
      </trkpt>
      <trkpt lat="45.82744" lon="4.94693">
        <ele>270.6084</ele>
        <time>2023-07-11T07:56:01.000Z</time>
      </trkpt>
      <trkpt lat="45.82739" lon="4.9468">
        <ele>270.30621</ele>
        <time>2023-07-11T07:56:02.000Z</time>
      </trkpt>
      <trkpt lat="45.82733" lon="4.94669">
        <ele>270.00775</ele>
        <time>2023-07-11T07:56:03.000Z</time>
      </trkpt>
      <trkpt lat="45.82725" lon="4.94659">
        <ele>269.68817</ele>
        <time>2023-07-11T07:56:04.000Z</time>
      </trkpt>
      <trkpt lat="45.82718" lon="4.9465">
        <ele>269.35898</ele>
        <time>2023-07-11T07:56:05.000Z</time>
      </trkpt>
      <trkpt lat="45.82711" lon="4.94639">
        <ele>269.05148</ele>
        <time>2023-07-11T07:56:06.000Z</time>
      </trkpt>
      <trkpt lat="45.82704" lon="4.94628">
        <ele>268.7381</ele>
        <time>2023-07-11T07:56:07.000Z</time>
      </trkpt>
      <trkpt lat="45.82699" lon="4.94618">
        <ele>268.42465</ele>
        <time>2023-07-11T07:56:08.000Z</time>
      </trkpt>
      <trkpt lat="45.82692" lon="4.94605">
        <ele>268.09879</ele>
        <time>2023-07-11T07:56:09.000Z</time>
      </trkpt>
      <trkpt lat="45.82686" lon="4.94593">
        <ele>267.86859</ele>
        <time>2023-07-11T07:56:10.000Z</time>
      </trkpt>
      <trkpt lat="45.82682" lon="4.94581">
        <ele>267.64835</ele>
        <time>2023-07-11T07:56:11.000Z</time>
      </trkpt>
      <trkpt lat="45.82677" lon="4.94567">
        <ele>267.40503</ele>
        <time>2023-07-11T07:56:12.000Z</time>
      </trkpt>
      <trkpt lat="45.82674" lon="4.94554">
        <ele>267.1647</ele>
        <time>2023-07-11T07:56:13.000Z</time>
      </trkpt>
      <trkpt lat="45.82671" lon="4.9454">
        <ele>266.99887</ele>
        <time>2023-07-11T07:56:14.000Z</time>
      </trkpt>
      <trkpt lat="45.82668" lon="4.94527">
        <ele>266.84531</ele>
        <time>2023-07-11T07:56:15.000Z</time>
      </trkpt>
      <trkpt lat="45.82665" lon="4.94514">
        <ele>266.66821</ele>
        <time>2023-07-11T07:56:16.000Z</time>
      </trkpt>
      <trkpt lat="45.8266" lon="4.94502">
        <ele>266.2222</ele>
        <time>2023-07-11T07:56:17.000Z</time>
      </trkpt>
      <trkpt lat="45.82654" lon="4.94493">
        <ele>265.80569</ele>
        <time>2023-07-11T07:56:18.000Z</time>
      </trkpt>
      <trkpt lat="45.82648" lon="4.94484">
        <ele>265.36917</ele>
        <time>2023-07-11T07:56:19.000Z</time>
      </trkpt>
      <trkpt lat="45.82641" lon="4.94476">
        <ele>264.95374</ele>
        <time>2023-07-11T07:56:20.000Z</time>
      </trkpt>
      <trkpt lat="45.82634" lon="4.94468">
        <ele>264.54214</ele>
        <time>2023-07-11T07:56:21.000Z</time>
      </trkpt>
      <trkpt lat="45.82627" lon="4.9446">
        <ele>264.1897</ele>
        <time>2023-07-11T07:56:22.000Z</time>
      </trkpt>
      <trkpt lat="45.82621" lon="4.94453">
        <ele>263.85379</ele>
        <time>2023-07-11T07:56:23.000Z</time>
      </trkpt>
      <trkpt lat="45.82613" lon="4.94445">
        <ele>263.54523</ele>
        <time>2023-07-11T07:56:24.000Z</time>
      </trkpt>
      <trkpt lat="45.82606" lon="4.94437">
        <ele>263.28351</ele>
        <time>2023-07-11T07:56:25.000Z</time>
      </trkpt>
      <trkpt lat="45.82598" lon="4.94429">
        <ele>263.0209</ele>
        <time>2023-07-11T07:56:26.000Z</time>
      </trkpt>
      <trkpt lat="45.8259" lon="4.94422">
        <ele>262.81757</ele>
        <time>2023-07-11T07:56:27.000Z</time>
      </trkpt>
      <trkpt lat="45.82585" lon="4.94411">
        <ele>262.33588</ele>
        <time>2023-07-11T07:56:28.000Z</time>
      </trkpt>
      <trkpt lat="45.82577" lon="4.94403">
        <ele>261.76422</ele>
        <time>2023-07-11T07:56:29.000Z</time>
      </trkpt>
      <trkpt lat="45.82569" lon="4.94394">
        <ele>261.05057</ele>
        <time>2023-07-11T07:56:30.000Z</time>
      </trkpt>
      <trkpt lat="45.82562" lon="4.94385">
        <ele>260.3476</ele>
        <time>2023-07-11T07:56:31.000Z</time>
      </trkpt>
      <trkpt lat="45.82554" lon="4.94376">
        <ele>259.64569</ele>
        <time>2023-07-11T07:56:32.000Z</time>
      </trkpt>
      <trkpt lat="45.82548" lon="4.94366">
        <ele>258.91437</ele>
        <time>2023-07-11T07:56:33.000Z</time>
      </trkpt>
      <trkpt lat="45.82542" lon="4.94354">
        <ele>258.11398</ele>
        <time>2023-07-11T07:56:34.000Z</time>
      </trkpt>
      <trkpt lat="45.82538" lon="4.94341">
        <ele>257.23468</ele>
        <time>2023-07-11T07:56:35.000Z</time>
      </trkpt>
      <trkpt lat="45.82536" lon="4.94326">
        <ele>256.37454</ele>
        <time>2023-07-11T07:56:36.000Z</time>
      </trkpt>
      <trkpt lat="45.82535" lon="4.94312">
        <ele>255.77005</ele>
        <time>2023-07-11T07:56:37.000Z</time>
      </trkpt>
      <trkpt lat="45.82534" lon="4.94296">
        <ele>255.10721</ele>
        <time>2023-07-11T07:56:38.000Z</time>
      </trkpt>
      <trkpt lat="45.82534" lon="4.94282">
        <ele>254.44058</ele>
        <time>2023-07-11T07:56:39.000Z</time>
      </trkpt>
      <trkpt lat="45.82535" lon="4.94268">
        <ele>253.73125</ele>
        <time>2023-07-11T07:56:40.000Z</time>
      </trkpt>
      <trkpt lat="45.82535" lon="4.94255">
        <ele>251.97783</ele>
        <time>2023-07-11T07:56:41.000Z</time>
      </trkpt>
      <trkpt lat="45.82536" lon="4.94245">
        <ele>250.16951</ele>
        <time>2023-07-11T07:56:42.000Z</time>
      </trkpt>
      <trkpt lat="45.82536" lon="4.94235">
        <ele>248.35515</ele>
        <time>2023-07-11T07:56:43.000Z</time>
      </trkpt>
      <trkpt lat="45.82536" lon="4.94226">
        <ele>247.18106</ele>
        <time>2023-07-11T07:56:44.000Z</time>
      </trkpt>
      <trkpt lat="45.82534" lon="4.94218">
        <ele>245.95862</ele>
        <time>2023-07-11T07:56:45.000Z</time>
      </trkpt>
      <trkpt lat="45.82532" lon="4.94211">
        <ele>244.90276</ele>
        <time>2023-07-11T07:56:46.000Z</time>
      </trkpt>
      <trkpt lat="45.8253" lon="4.94205">
        <ele>243.81296</ele>
        <time>2023-07-11T07:56:47.000Z</time>
      </trkpt>
      <trkpt lat="45.82526" lon="4.94199">
        <ele>243.01932</ele>
        <time>2023-07-11T07:56:48.000Z</time>
      </trkpt>
      <trkpt lat="45.82521" lon="4.94194">
        <ele>241.50647</ele>
        <time>2023-07-11T07:56:49.000Z</time>
      </trkpt>
      <trkpt lat="45.82514" lon="4.94193">
        <ele>240.00468</ele>
        <time>2023-07-11T07:56:50.000Z</time>
      </trkpt>
      <trkpt lat="45.82506" lon="4.94193">
        <ele>238.45764</ele>
        <time>2023-07-11T07:56:51.000Z</time>
      </trkpt>
      <trkpt lat="45.82498" lon="4.94192">
        <ele>238.33752</ele>
        <time>2023-07-11T07:56:52.000Z</time>
      </trkpt>
      <trkpt lat="45.8249" lon="4.94191">
        <ele>238.23856</ele>
        <time>2023-07-11T07:56:53.000Z</time>
      </trkpt>
      <trkpt lat="45.82482" lon="4.94189">
        <ele>238.11186</ele>
        <time>2023-07-11T07:56:54.000Z</time>
      </trkpt>
      <trkpt lat="45.82475" lon="4.94188">
        <ele>238.11917</ele>
        <time>2023-07-11T07:56:55.000Z</time>
      </trkpt>
      <trkpt lat="45.82469" lon="4.94186">
        <ele>238.08728</ele>
        <time>2023-07-11T07:56:56.000Z</time>
      </trkpt>
      <trkpt lat="45.82464" lon="4.94183">
        <ele>238.05063</ele>
        <time>2023-07-11T07:56:57.000Z</time>
      </trkpt>
      <trkpt lat="45.8246" lon="4.9418">
        <ele>237.99797</ele>
        <time>2023-07-11T07:56:58.000Z</time>
      </trkpt>
      <trkpt lat="45.82455" lon="4.94181">
        <ele>237.92859</ele>
        <time>2023-07-11T07:56:59.000Z</time>
      </trkpt>
      <trkpt lat="45.8245" lon="4.94186">
        <ele>237.87032</ele>
        <time>2023-07-11T07:57:00.000Z</time>
      </trkpt>
      <trkpt lat="45.82446" lon="4.94193">
        <ele>238.16318</ele>
        <time>2023-07-11T07:57:01.000Z</time>
      </trkpt>
      <trkpt lat="45.82443" lon="4.94202">
        <ele>238.44595</ele>
        <time>2023-07-11T07:57:02.000Z</time>
      </trkpt>
      <trkpt lat="45.82439" lon="4.94212">
        <ele>238.82693</ele>
        <time>2023-07-11T07:57:03.000Z</time>
      </trkpt>
      <trkpt lat="45.82435" lon="4.94224">
        <ele>237.50069</ele>
        <time>2023-07-11T07:57:04.000Z</time>
      </trkpt>
      <trkpt lat="45.82431" lon="4.94236">
        <ele>236.16345</ele>
        <time>2023-07-11T07:57:05.000Z</time>
      </trkpt>
      <trkpt lat="45.82425" lon="4.94247">
        <ele>235.46233</ele>
        <time>2023-07-11T07:57:06.000Z</time>
      </trkpt>
      <trkpt lat="45.82419" lon="4.94259">
        <ele>234.71834</ele>
        <time>2023-07-11T07:57:07.000Z</time>
      </trkpt>
      <trkpt lat="45.82413" lon="4.94269">
        <ele>233.9642</ele>
        <time>2023-07-11T07:57:08.000Z</time>
      </trkpt>
      <trkpt lat="45.82408" lon="4.94278">
        <ele>233.99014</ele>
        <time>2023-07-11T07:57:09.000Z</time>
      </trkpt>
      <trkpt lat="45.82403" lon="4.94285">
        <ele>234.1412</ele>
        <time>2023-07-11T07:57:10.000Z</time>
      </trkpt>
      <trkpt lat="45.82398" lon="4.94293">
        <ele>234.33501</ele>
        <time>2023-07-11T07:57:11.000Z</time>
      </trkpt>
      <trkpt lat="45.82392" lon="4.94301">
        <ele>233.08957</ele>
        <time>2023-07-11T07:57:12.000Z</time>
      </trkpt>
      <trkpt lat="45.82384" lon="4.94307">
        <ele>231.83257</ele>
        <time>2023-07-11T07:57:13.000Z</time>
      </trkpt>
      <trkpt lat="45.82376" lon="4.94313">
        <ele>230.57744</ele>
        <time>2023-07-11T07:57:14.000Z</time>
      </trkpt>
      <trkpt lat="45.82367" lon="4.94319">
        <ele>229.24068</ele>
        <time>2023-07-11T07:57:15.000Z</time>
      </trkpt>
      <trkpt lat="45.82359" lon="4.94324">
        <ele>227.92154</ele>
        <time>2023-07-11T07:57:16.000Z</time>
      </trkpt>
      <trkpt lat="45.82351" lon="4.9433">
        <ele>226.56656</ele>
        <time>2023-07-11T07:57:17.000Z</time>
      </trkpt>
      <trkpt lat="45.82344" lon="4.94337">
        <ele>225.22717</ele>
        <time>2023-07-11T07:57:18.000Z</time>
      </trkpt>
      <trkpt lat="45.82337" lon="4.94343">
        <ele>224.10332</ele>
        <time>2023-07-11T07:57:19.000Z</time>
      </trkpt>
      <trkpt lat="45.82331" lon="4.94349">
        <ele>222.97803</ele>
        <time>2023-07-11T07:57:20.000Z</time>
      </trkpt>
      <trkpt lat="45.82324" lon="4.94356">
        <ele>222.51877</ele>
        <time>2023-07-11T07:57:21.000Z</time>
      </trkpt>
      <trkpt lat="45.82317" lon="4.94362">
        <ele>221.50508</ele>
        <time>2023-07-11T07:57:22.000Z</time>
      </trkpt>
      <trkpt lat="45.82312" lon="4.94368">
        <ele>220.33475</ele>
        <time>2023-07-11T07:57:23.000Z</time>
      </trkpt>
      <trkpt lat="45.82306" lon="4.94372">
        <ele>220.18828</ele>
        <time>2023-07-11T07:57:24.000Z</time>
      </trkpt>
      <trkpt lat="45.82302" lon="4.94376">
        <ele>220.03503</ele>
        <time>2023-07-11T07:57:25.000Z</time>
      </trkpt>
      <trkpt lat="45.82298" lon="4.9438">
        <ele>218.65625</ele>
        <time>2023-07-11T07:57:26.000Z</time>
      </trkpt>
      <trkpt lat="45.82295" lon="4.94383">
        <ele>217.30978</ele>
        <time>2023-07-11T07:57:27.000Z</time>
      </trkpt>
      <trkpt lat="45.82292" lon="4.94387">
        <ele>215.98318</ele>
        <time>2023-07-11T07:57:28.000Z</time>
      </trkpt>
      <trkpt lat="45.82287" lon="4.94391">
        <ele>214.67049</ele>
        <time>2023-07-11T07:57:29.000Z</time>
      </trkpt>
      <trkpt lat="45.82281" lon="4.94393">
        <ele>213.26828</ele>
        <time>2023-07-11T07:57:30.000Z</time>
      </trkpt>
      <trkpt lat="45.82276" lon="4.94395">
        <ele>211.87027</ele>
        <time>2023-07-11T07:57:31.000Z</time>
      </trkpt>
      <trkpt lat="45.8227" lon="4.94398">
        <ele>210.49655</ele>
        <time>2023-07-11T07:57:32.000Z</time>
      </trkpt>
      <trkpt lat="45.82263" lon="4.944">
        <ele>209.14421</ele>
        <time>2023-07-11T07:57:33.000Z</time>
      </trkpt>
      <trkpt lat="45.82256" lon="4.94402">
        <ele>207.79556</ele>
        <time>2023-07-11T07:57:34.000Z</time>
      </trkpt>
      <trkpt lat="45.82249" lon="4.94405">
        <ele>206.45691</ele>
        <time>2023-07-11T07:57:35.000Z</time>
      </trkpt>
      <trkpt lat="45.82242" lon="4.94408">
        <ele>205.12723</ele>
        <time>2023-07-11T07:57:36.000Z</time>
      </trkpt>
      <trkpt lat="45.82234" lon="4.94412">
        <ele>203.82018</ele>
        <time>2023-07-11T07:57:37.000Z</time>
      </trkpt>
      <trkpt lat="45.82226" lon="4.94415">
        <ele>202.5004</ele>
        <time>2023-07-11T07:57:38.000Z</time>
      </trkpt>
      <trkpt lat="45.82219" lon="4.94419">
        <ele>200.98369</ele>
        <time>2023-07-11T07:57:39.000Z</time>
      </trkpt>
      <trkpt lat="45.82211" lon="4.94423">
        <ele>199.47824</ele>
        <time>2023-07-11T07:57:40.000Z</time>
      </trkpt>
      <trkpt lat="45.82203" lon="4.94427">
        <ele>197.97137</ele>
        <time>2023-07-11T07:57:41.000Z</time>
      </trkpt>
      <trkpt lat="45.82195" lon="4.94431">
        <ele>197.0005</ele>
        <time>2023-07-11T07:57:42.000Z</time>
      </trkpt>
      <trkpt lat="45.82186" lon="4.94434">
        <ele>196.07674</ele>
        <time>2023-07-11T07:57:43.000Z</time>
      </trkpt>
      <trkpt lat="45.82177" lon="4.94438">
        <ele>195.14795</ele>
        <time>2023-07-11T07:57:44.000Z</time>
      </trkpt>
      <trkpt lat="45.82168" lon="4.94441">
        <ele>194.2377</ele>
        <time>2023-07-11T07:57:45.000Z</time>
      </trkpt>
      <trkpt lat="45.8216" lon="4.94443">
        <ele>193.72839</ele>
        <time>2023-07-11T07:57:46.000Z</time>
      </trkpt>
      <trkpt lat="45.82151" lon="4.94444">
        <ele>193.21259</ele>
        <time>2023-07-11T07:57:47.000Z</time>
      </trkpt>
      <trkpt lat="45.82142" lon="4.94445">
        <ele>192.7097</ele>
        <time>2023-07-11T07:57:48.000Z</time>
      </trkpt>
      <trkpt lat="45.82132" lon="4.94445">
        <ele>192.21359</ele>
        <time>2023-07-11T07:57:49.000Z</time>
      </trkpt>
      <trkpt lat="45.82124" lon="4.94445">
        <ele>191.73</ele>
        <time>2023-07-11T07:57:50.000Z</time>
      </trkpt>
      <trkpt lat="45.82115" lon="4.94446">
        <ele>191.25146</ele>
        <time>2023-07-11T07:57:51.000Z</time>
      </trkpt>
      <trkpt lat="45.82107" lon="4.94444">
        <ele>190.7798</ele>
        <time>2023-07-11T07:57:52.000Z</time>
      </trkpt>
      <trkpt lat="45.82099" lon="4.94443">
        <ele>190.03192</ele>
        <time>2023-07-11T07:57:53.000Z</time>
      </trkpt>
      <trkpt lat="45.82092" lon="4.94442">
        <ele>189.32021</ele>
        <time>2023-07-11T07:57:54.000Z</time>
      </trkpt>
      <trkpt lat="45.82084" lon="4.94442">
        <ele>188.62318</ele>
        <time>2023-07-11T07:57:55.000Z</time>
      </trkpt>
      <trkpt lat="45.82078" lon="4.94443">
        <ele>187.95473</ele>
        <time>2023-07-11T07:57:56.000Z</time>
      </trkpt>
      <trkpt lat="45.82073" lon="4.94443">
        <ele>187.26686</ele>
        <time>2023-07-11T07:57:57.000Z</time>
      </trkpt>
      <trkpt lat="45.82069" lon="4.94442">
        <ele>186.56219</ele>
        <time>2023-07-11T07:57:58.000Z</time>
      </trkpt>
      <trkpt lat="45.82067" lon="4.94442">
        <ele>185.89008</ele>
        <time>2023-07-11T07:57:59.000Z</time>
      </trkpt>
      <trkpt lat="45.82065" lon="4.94441">
        <ele>185.25748</ele>
        <time>2023-07-11T07:58:00.000Z</time>
      </trkpt>
      <trkpt lat="45.82063" lon="4.94439">
        <ele>184.64862</ele>
        <time>2023-07-11T07:58:01.000Z</time>
      </trkpt>
      <trkpt lat="45.82061" lon="4.94439">
        <ele>184.11662</ele>
        <time>2023-07-11T07:58:02.000Z</time>
      </trkpt>
      <trkpt lat="45.82058" lon="4.94439">
        <ele>183.63666</ele>
        <time>2023-07-11T07:58:03.000Z</time>
      </trkpt>
      <trkpt lat="45.82056" lon="4.9444">
        <ele>183.19962</ele>
        <time>2023-07-11T07:58:04.000Z</time>
      </trkpt>
      <trkpt lat="45.82053" lon="4.94441">
        <ele>182.78473</ele>
        <time>2023-07-11T07:58:05.000Z</time>
      </trkpt>
      <trkpt lat="45.82048" lon="4.94444">
        <ele>182.36417</ele>
        <time>2023-07-11T07:58:06.000Z</time>
      </trkpt>
      <trkpt lat="45.82044" lon="4.94448">
        <ele>181.95807</ele>
        <time>2023-07-11T07:58:07.000Z</time>
      </trkpt>
      <trkpt lat="45.8204" lon="4.94452">
        <ele>181.52188</ele>
        <time>2023-07-11T07:58:08.000Z</time>
      </trkpt>
      <trkpt lat="45.82035" lon="4.94455">
        <ele>181.10713</ele>
        <time>2023-07-11T07:58:09.000Z</time>
      </trkpt>
      <trkpt lat="45.82029" lon="4.94458">
        <ele>180.69217</ele>
        <time>2023-07-11T07:58:10.000Z</time>
      </trkpt>
      <trkpt lat="45.82023" lon="4.9446">
        <ele>180.24939</ele>
        <time>2023-07-11T07:58:11.000Z</time>
      </trkpt>
      <trkpt lat="45.82015" lon="4.94463">
        <ele>179.78134</ele>
        <time>2023-07-11T07:58:12.000Z</time>
      </trkpt>
      <trkpt lat="45.82007" lon="4.94466">
        <ele>179.58029</ele>
        <time>2023-07-11T07:58:13.000Z</time>
      </trkpt>
      <trkpt lat="45.81999" lon="4.94468">
        <ele>179.37302</ele>
        <time>2023-07-11T07:58:14.000Z</time>
      </trkpt>
      <trkpt lat="45.81991" lon="4.94468">
        <ele>179.12946</ele>
        <time>2023-07-11T07:58:15.000Z</time>
      </trkpt>
      <trkpt lat="45.81984" lon="4.94469">
        <ele>178.87207</ele>
        <time>2023-07-11T07:58:16.000Z</time>
      </trkpt>
      <trkpt lat="45.81978" lon="4.9447">
        <ele>178.64674</ele>
        <time>2023-07-11T07:58:17.000Z</time>
      </trkpt>
      <trkpt lat="45.81972" lon="4.94471">
        <ele>178.45708</ele>
        <time>2023-07-11T07:58:18.000Z</time>
      </trkpt>
      <trkpt lat="45.81966" lon="4.9447">
        <ele>178.24734</ele>
        <time>2023-07-11T07:58:19.000Z</time>
      </trkpt>
      <trkpt lat="45.81963" lon="4.94468">
        <ele>178.02866</ele>
        <time>2023-07-11T07:58:20.000Z</time>
      </trkpt>
      <trkpt lat="45.81961" lon="4.94471">
        <ele>177.83386</ele>
        <time>2023-07-11T07:58:22.000Z</time>
      </trkpt>
      <trkpt lat="45.8196" lon="4.94474">
        <ele>177.6214</ele>
        <time>2023-07-11T07:58:23.000Z</time>
      </trkpt>
      <trkpt lat="45.8196" lon="4.94477">
        <ele>177.35968</ele>
        <time>2023-07-11T07:58:24.000Z</time>
      </trkpt>
      <trkpt lat="45.81962" lon="4.94477">
        <ele>177.08624</ele>
        <time>2023-07-11T07:58:25.000Z</time>
      </trkpt>
      <trkpt lat="45.81965" lon="4.94475">
        <ele>176.79379</ele>
        <time>2023-07-11T07:58:26.000Z</time>
      </trkpt>
      <trkpt lat="45.81964" lon="4.94472">
        <ele>176.52756</ele>
        <time>2023-07-11T07:58:27.000Z</time>
      </trkpt>
      <trkpt lat="45.81962" lon="4.9447">
        <ele>176.29254</ele>
        <time>2023-07-11T07:58:28.000Z</time>
      </trkpt>
      <trkpt lat="45.8196" lon="4.94468">
        <ele>176.10857</ele>
        <time>2023-07-11T07:58:29.000Z</time>
      </trkpt>
      <trkpt lat="45.81959" lon="4.94466">
        <ele>175.95309</ele>
        <time>2023-07-11T07:58:30.000Z</time>
      </trkpt>
      <trkpt lat="45.81959" lon="4.94463">
        <ele>175.8154</ele>
        <time>2023-07-11T07:58:31.000Z</time>
      </trkpt>
      <trkpt lat="45.8196" lon="4.94461">
        <ele>175.73187</ele>
        <time>2023-07-11T07:58:32.000Z</time>
      </trkpt>
      <trkpt lat="45.8196" lon="4.94458">
        <ele>175.65906</ele>
        <time>2023-07-11T07:58:33.000Z</time>
      </trkpt>
      <trkpt lat="45.81958" lon="4.94455">
        <ele>175.62274</ele>
        <time>2023-07-11T07:58:34.000Z</time>
      </trkpt>
      <trkpt lat="45.81956" lon="4.94451">
        <ele>175.61076</ele>
        <time>2023-07-11T07:58:35.000Z</time>
      </trkpt>
      <trkpt lat="45.81954" lon="4.94446">
        <ele>175.61826</ele>
        <time>2023-07-11T07:58:36.000Z</time>
      </trkpt>
      <trkpt lat="45.81953" lon="4.94441">
        <ele>175.65176</ele>
        <time>2023-07-11T07:58:37.000Z</time>
      </trkpt>
      <trkpt lat="45.81951" lon="4.94436">
        <ele>175.72029</ele>
        <time>2023-07-11T07:58:38.000Z</time>
      </trkpt>
      <trkpt lat="45.8195" lon="4.9443">
        <ele>175.81371</ele>
        <time>2023-07-11T07:58:39.000Z</time>
      </trkpt>
      <trkpt lat="45.81948" lon="4.94425">
        <ele>175.91496</ele>
        <time>2023-07-11T07:58:40.000Z</time>
      </trkpt>
      <trkpt lat="45.81946" lon="4.9442">
        <ele>176.02994</ele>
        <time>2023-07-11T07:58:41.000Z</time>
      </trkpt>
      <trkpt lat="45.81944" lon="4.94413">
        <ele>176.12904</ele>
        <time>2023-07-11T07:58:42.000Z</time>
      </trkpt>
      <trkpt lat="45.81943" lon="4.94406">
        <ele>176.20952</ele>
        <time>2023-07-11T07:58:43.000Z</time>
      </trkpt>
      <trkpt lat="45.8194" lon="4.94399">
        <ele>176.31102</ele>
        <time>2023-07-11T07:58:44.000Z</time>
      </trkpt>
      <trkpt lat="45.81938" lon="4.94392">
        <ele>176.39761</ele>
        <time>2023-07-11T07:58:45.000Z</time>
      </trkpt>
      <trkpt lat="45.81936" lon="4.94384">
        <ele>176.52042</ele>
        <time>2023-07-11T07:58:46.000Z</time>
      </trkpt>
      <trkpt lat="45.81934" lon="4.94377">
        <ele>176.64616</ele>
        <time>2023-07-11T07:58:47.000Z</time>
      </trkpt>
      <trkpt lat="45.81931" lon="4.94369">
        <ele>176.7562</ele>
        <time>2023-07-11T07:58:48.000Z</time>
      </trkpt>
      <trkpt lat="45.8193" lon="4.94362">
        <ele>176.82376</ele>
        <time>2023-07-11T07:58:49.000Z</time>
      </trkpt>
      <trkpt lat="45.81927" lon="4.94355">
        <ele>176.86511</ele>
        <time>2023-07-11T07:58:50.000Z</time>
      </trkpt>
      <trkpt lat="45.81926" lon="4.94349">
        <ele>176.89632</ele>
        <time>2023-07-11T07:58:51.000Z</time>
      </trkpt>
      <trkpt lat="45.81924" lon="4.94342">
        <ele>176.89108</ele>
        <time>2023-07-11T07:58:52.000Z</time>
      </trkpt>
      <trkpt lat="45.81921" lon="4.94335">
        <ele>176.90323</ele>
        <time>2023-07-11T07:58:53.000Z</time>
      </trkpt>
      <trkpt lat="45.81919" lon="4.94329">
        <ele>176.90649</ele>
        <time>2023-07-11T07:58:54.000Z</time>
      </trkpt>
      <trkpt lat="45.81918" lon="4.94321">
        <ele>176.85663</ele>
        <time>2023-07-11T07:58:55.000Z</time>
      </trkpt>
      <trkpt lat="45.81916" lon="4.94314">
        <ele>176.85118</ele>
        <time>2023-07-11T07:58:56.000Z</time>
      </trkpt>
      <trkpt lat="45.81913" lon="4.94307">
        <ele>176.82535</ele>
        <time>2023-07-11T07:58:57.000Z</time>
      </trkpt>
      <trkpt lat="45.81911" lon="4.94302">
        <ele>176.76382</ele>
        <time>2023-07-11T07:58:58.000Z</time>
      </trkpt>
      <trkpt lat="45.8191" lon="4.94295">
        <ele>176.68536</ele>
        <time>2023-07-11T07:58:59.000Z</time>
      </trkpt>
      <trkpt lat="45.81908" lon="4.94289">
        <ele>176.61938</ele>
        <time>2023-07-11T07:59:00.000Z</time>
      </trkpt>
      <trkpt lat="45.81906" lon="4.94284">
        <ele>176.5296</ele>
        <time>2023-07-11T07:59:01.000Z</time>
      </trkpt>
      <trkpt lat="45.81904" lon="4.94279">
        <ele>176.44322</ele>
        <time>2023-07-11T07:59:02.000Z</time>
      </trkpt>
      <trkpt lat="45.81903" lon="4.94274">
        <ele>176.36008</ele>
        <time>2023-07-11T07:59:03.000Z</time>
      </trkpt>
      <trkpt lat="45.81901" lon="4.94269">
        <ele>176.24565</ele>
        <time>2023-07-11T07:59:04.000Z</time>
      </trkpt>
      <trkpt lat="45.81901" lon="4.94265">
        <ele>176.13297</ele>
        <time>2023-07-11T07:59:05.000Z</time>
      </trkpt>
      <trkpt lat="45.81899" lon="4.9426">
        <ele>176.00986</ele>
        <time>2023-07-11T07:59:06.000Z</time>
      </trkpt>
      <trkpt lat="45.81898" lon="4.94256">
        <ele>175.87726</ele>
        <time>2023-07-11T07:59:07.000Z</time>
      </trkpt>
      <trkpt lat="45.81897" lon="4.94252">
        <ele>175.75665</ele>
        <time>2023-07-11T07:59:08.000Z</time>
      </trkpt>
      <trkpt lat="45.81895" lon="4.94248">
        <ele>175.67712</ele>
        <time>2023-07-11T07:59:09.000Z</time>
      </trkpt>
      <trkpt lat="45.81895" lon="4.94244">
        <ele>175.57816</ele>
        <time>2023-07-11T07:59:10.000Z</time>
      </trkpt>
      <trkpt lat="45.81893" lon="4.9424">
        <ele>175.46626</ele>
        <time>2023-07-11T07:59:11.000Z</time>
      </trkpt>
      <trkpt lat="45.81892" lon="4.94236">
        <ele>175.381</ele>
        <time>2023-07-11T07:59:12.000Z</time>
      </trkpt>
      <trkpt lat="45.81891" lon="4.94233">
        <ele>175.28577</ele>
        <time>2023-07-11T07:59:13.000Z</time>
      </trkpt>
      <trkpt lat="45.8189" lon="4.94229">
        <ele>175.17929</ele>
        <time>2023-07-11T07:59:14.000Z</time>
      </trkpt>
      <trkpt lat="45.81889" lon="4.94226">
        <ele>175.10147</ele>
        <time>2023-07-11T07:59:15.000Z</time>
      </trkpt>
      <trkpt lat="45.81888" lon="4.94223">
        <ele>175.02338</ele>
        <time>2023-07-11T07:59:16.000Z</time>
      </trkpt>
      <trkpt lat="45.81887" lon="4.94221">
        <ele>174.95979</ele>
        <time>2023-07-11T07:59:17.000Z</time>
      </trkpt>
      <trkpt lat="45.81886" lon="4.94219">
        <ele>174.90163</ele>
        <time>2023-07-11T07:59:18.000Z</time>
      </trkpt>
      <trkpt lat="45.81885" lon="4.94216">
        <ele>174.85724</ele>
        <time>2023-07-11T07:59:19.000Z</time>
      </trkpt>
      <trkpt lat="45.81884" lon="4.94213">
        <ele>174.81044</ele>
        <time>2023-07-11T07:59:20.000Z</time>
      </trkpt>
      <trkpt lat="45.81883" lon="4.94211">
        <ele>174.76118</ele>
        <time>2023-07-11T07:59:21.000Z</time>
      </trkpt>
      <trkpt lat="45.81882" lon="4.94208">
        <ele>174.71941</ele>
        <time>2023-07-11T07:59:22.000Z</time>
      </trkpt>
      <trkpt lat="45.81882" lon="4.94205">
        <ele>174.69487</ele>
        <time>2023-07-11T07:59:23.000Z</time>
      </trkpt>
      <trkpt lat="45.81881" lon="4.94203">
        <ele>174.66656</ele>
        <time>2023-07-11T07:59:24.000Z</time>
      </trkpt>
      <trkpt lat="45.8188" lon="4.942">
        <ele>174.64847</ele>
        <time>2023-07-11T07:59:25.000Z</time>
      </trkpt>
      <trkpt lat="45.81879" lon="4.94197">
        <ele>174.61777</ele>
        <time>2023-07-11T07:59:26.000Z</time>
      </trkpt>
      <trkpt lat="45.81878" lon="4.94194">
        <ele>174.57031</ele>
        <time>2023-07-11T07:59:27.000Z</time>
      </trkpt>
      <trkpt lat="45.81877" lon="4.94191">
        <ele>174.50803</ele>
        <time>2023-07-11T07:59:28.000Z</time>
      </trkpt>
      <trkpt lat="45.81875" lon="4.94188">
        <ele>174.43716</ele>
        <time>2023-07-11T07:59:29.000Z</time>
      </trkpt>
      <trkpt lat="45.81874" lon="4.94184">
        <ele>174.3824</ele>
        <time>2023-07-11T07:59:30.000Z</time>
      </trkpt>
      <trkpt lat="45.81873" lon="4.94181">
        <ele>174.32991</ele>
        <time>2023-07-11T07:59:31.000Z</time>
      </trkpt>
      <trkpt lat="45.81872" lon="4.94178">
        <ele>174.27142</ele>
        <time>2023-07-11T07:59:32.000Z</time>
      </trkpt>
      <trkpt lat="45.81871" lon="4.94174">
        <ele>174.22604</ele>
        <time>2023-07-11T07:59:33.000Z</time>
      </trkpt>
      <trkpt lat="45.8187" lon="4.9417">
        <ele>174.17667</ele>
        <time>2023-07-11T07:59:34.000Z</time>
      </trkpt>
      <trkpt lat="45.81869" lon="4.94167">
        <ele>174.12869</ele>
        <time>2023-07-11T07:59:35.000Z</time>
      </trkpt>
      <trkpt lat="45.81867" lon="4.94163">
        <ele>174.01082</ele>
        <time>2023-07-11T07:59:36.000Z</time>
      </trkpt>
      <trkpt lat="45.81866" lon="4.9416">
        <ele>173.90273</ele>
        <time>2023-07-11T07:59:38.000Z</time>
      </trkpt>
      <trkpt lat="45.81864" lon="4.94158">
        <ele>173.81705</ele>
        <time>2023-07-11T07:59:40.000Z</time>
      </trkpt>
      <trkpt lat="45.81862" lon="4.94155">
        <ele>173.66219</ele>
        <time>2023-07-11T07:59:48.000Z</time>
      </trkpt>
      <trkpt lat="45.81862" lon="4.94152">
        <ele>173.48299</ele>
        <time>2023-07-11T07:59:50.000Z</time>
      </trkpt>
      <trkpt lat="45.81861" lon="4.94149">
        <ele>173.30385</ele>
        <time>2023-07-11T07:59:52.000Z</time>
      </trkpt>
      <trkpt lat="45.8186" lon="4.94144">
        <ele>173.15471</ele>
        <time>2023-07-11T08:00:02.000Z</time>
      </trkpt>
      <trkpt lat="45.81859" lon="4.94141">
        <ele>172.99451</ele>
        <time>2023-07-11T08:00:03.000Z</time>
      </trkpt>
      <trkpt lat="45.81858" lon="4.94138">
        <ele>172.86327</ele>
        <time>2023-07-11T08:00:04.000Z</time>
      </trkpt>
      <trkpt lat="45.81857" lon="4.94135">
        <ele>172.72331</ele>
        <time>2023-07-11T08:00:05.000Z</time>
      </trkpt>
      <trkpt lat="45.81856" lon="4.94132">
        <ele>172.60847</ele>
        <time>2023-07-11T08:00:06.000Z</time>
      </trkpt>
      <trkpt lat="45.81855" lon="4.9413">
        <ele>172.52168</ele>
        <time>2023-07-11T08:00:07.000Z</time>
      </trkpt>
      <trkpt lat="45.81854" lon="4.94128">
        <ele>172.43266</ele>
        <time>2023-07-11T08:00:08.000Z</time>
      </trkpt>
      <trkpt lat="45.81853" lon="4.94125">
        <ele>172.35384</ele>
        <time>2023-07-11T08:00:09.000Z</time>
      </trkpt>
      <trkpt lat="45.81852" lon="4.94122">
        <ele>172.26852</ele>
        <time>2023-07-11T08:00:10.000Z</time>
      </trkpt>
      <trkpt lat="45.81851" lon="4.94118">
        <ele>172.15811</ele>
        <time>2023-07-11T08:00:11.000Z</time>
      </trkpt>
      <trkpt lat="45.81849" lon="4.94115">
        <ele>172.07428</ele>
        <time>2023-07-11T08:00:12.000Z</time>
      </trkpt>
      <trkpt lat="45.81848" lon="4.94112">
        <ele>172.01413</ele>
        <time>2023-07-11T08:00:13.000Z</time>
      </trkpt>
      <trkpt lat="45.81846" lon="4.94109">
        <ele>171.9731</ele>
        <time>2023-07-11T08:00:14.000Z</time>
      </trkpt>
      <trkpt lat="45.81844" lon="4.94105">
        <ele>171.93771</ele>
        <time>2023-07-11T08:00:15.000Z</time>
      </trkpt>
      <trkpt lat="45.81843" lon="4.94101">
        <ele>171.98398</ele>
        <time>2023-07-11T08:00:16.000Z</time>
      </trkpt>
      <trkpt lat="45.81841" lon="4.94097">
        <ele>172.02335</ele>
        <time>2023-07-11T08:00:17.000Z</time>
      </trkpt>
      <trkpt lat="45.8184" lon="4.94094">
        <ele>172.06674</ele>
        <time>2023-07-11T08:00:18.000Z</time>
      </trkpt>
      <trkpt lat="45.81839" lon="4.9409">
        <ele>172.18269</ele>
        <time>2023-07-11T08:00:19.000Z</time>
      </trkpt>
      <trkpt lat="45.81837" lon="4.94086">
        <ele>172.31126</ele>
        <time>2023-07-11T08:00:20.000Z</time>
      </trkpt>
      <trkpt lat="45.81836" lon="4.94082">
        <ele>172.42836</ele>
        <time>2023-07-11T08:00:21.000Z</time>
      </trkpt>
      <trkpt lat="45.81835" lon="4.94078">
        <ele>172.51573</ele>
        <time>2023-07-11T08:00:22.000Z</time>
      </trkpt>
      <trkpt lat="45.81834" lon="4.94073">
        <ele>172.56168</ele>
        <time>2023-07-11T08:00:23.000Z</time>
      </trkpt>
      <trkpt lat="45.81832" lon="4.94069">
        <ele>172.57867</ele>
        <time>2023-07-11T08:00:24.000Z</time>
      </trkpt>
      <trkpt lat="45.81832" lon="4.94066">
        <ele>172.62434</ele>
        <time>2023-07-11T08:00:25.000Z</time>
      </trkpt>
      <trkpt lat="45.81831" lon="4.94062">
        <ele>172.64697</ele>
        <time>2023-07-11T08:00:26.000Z</time>
      </trkpt>
      <trkpt lat="45.81829" lon="4.94059">
        <ele>172.64561</ele>
        <time>2023-07-11T08:00:27.000Z</time>
      </trkpt>
      <trkpt lat="45.81829" lon="4.94055">
        <ele>172.6232</ele>
        <time>2023-07-11T08:00:28.000Z</time>
      </trkpt>
      <trkpt lat="45.81827" lon="4.94051">
        <ele>172.57089</ele>
        <time>2023-07-11T08:00:29.000Z</time>
      </trkpt>
      <trkpt lat="45.81826" lon="4.94046">
        <ele>172.51149</ele>
        <time>2023-07-11T08:00:30.000Z</time>
      </trkpt>
      <trkpt lat="45.81826" lon="4.94042">
        <ele>172.49904</ele>
        <time>2023-07-11T08:00:31.000Z</time>
      </trkpt>
      <trkpt lat="45.81826" lon="4.94037">
        <ele>172.48346</ele>
        <time>2023-07-11T08:00:32.000Z</time>
      </trkpt>
      <trkpt lat="45.81827" lon="4.94033">
        <ele>172.45518</ele>
        <time>2023-07-11T08:00:33.000Z</time>
      </trkpt>
      <trkpt lat="45.81829" lon="4.94029">
        <ele>172.4012</ele>
        <time>2023-07-11T08:00:34.000Z</time>
      </trkpt>
      <trkpt lat="45.81829" lon="4.94025">
        <ele>172.33771</ele>
        <time>2023-07-11T08:00:35.000Z</time>
      </trkpt>
      <trkpt lat="45.81831" lon="4.94025">
        <ele>172.36606</ele>
        <time>2023-07-11T08:02:38.000Z</time>
      </trkpt>
      <trkpt lat="45.81829" lon="4.94027">
        <ele>172.40872</ele>
        <time>2023-07-11T08:02:54.000Z</time>
      </trkpt>
      <trkpt lat="45.81827" lon="4.94025">
        <ele>172.40932</ele>
        <time>2023-07-11T08:03:05.000Z</time>
      </trkpt>
      <trkpt lat="45.81826" lon="4.94022">
        <ele>172.39825</ele>
        <time>2023-07-11T08:03:06.000Z</time>
      </trkpt>
      <trkpt lat="45.81824" lon="4.94018">
        <ele>172.40431</ele>
        <time>2023-07-11T08:03:07.000Z</time>
      </trkpt>
      <trkpt lat="45.81821" lon="4.94015">
        <ele>172.41852</ele>
        <time>2023-07-11T08:03:08.000Z</time>
      </trkpt>
      <trkpt lat="45.81818" lon="4.94012">
        <ele>172.42883</ele>
        <time>2023-07-11T08:03:09.000Z</time>
      </trkpt>
      <trkpt lat="45.81814" lon="4.9401">
        <ele>172.46983</ele>
        <time>2023-07-11T08:03:10.000Z</time>
      </trkpt>
      <trkpt lat="45.81811" lon="4.94006">
        <ele>172.51549</ele>
        <time>2023-07-11T08:03:11.000Z</time>
      </trkpt>
      <trkpt lat="45.81807" lon="4.94002">
        <ele>172.57585</ele>
        <time>2023-07-11T08:03:12.000Z</time>
      </trkpt>
      <trkpt lat="45.81804" lon="4.93996">
        <ele>172.65164</ele>
        <time>2023-07-11T08:03:13.000Z</time>
      </trkpt>
      <trkpt lat="45.81801" lon="4.9399">
        <ele>172.74062</ele>
        <time>2023-07-11T08:03:14.000Z</time>
      </trkpt>
      <trkpt lat="45.81798" lon="4.93984">
        <ele>172.85446</ele>
        <time>2023-07-11T08:03:15.000Z</time>
      </trkpt>
      <trkpt lat="45.81795" lon="4.93978">
        <ele>172.99811</ele>
        <time>2023-07-11T08:03:16.000Z</time>
      </trkpt>
      <trkpt lat="45.81792" lon="4.93972">
        <ele>173.17319</ele>
        <time>2023-07-11T08:03:17.000Z</time>
      </trkpt>
      <trkpt lat="45.81789" lon="4.93966">
        <ele>173.32637</ele>
        <time>2023-07-11T08:03:18.000Z</time>
      </trkpt>
      <trkpt lat="45.81786" lon="4.9396">
        <ele>173.43266</ele>
        <time>2023-07-11T08:03:19.000Z</time>
      </trkpt>
      <trkpt lat="45.81784" lon="4.93954">
        <ele>173.52817</ele>
        <time>2023-07-11T08:03:20.000Z</time>
      </trkpt>
      <trkpt lat="45.81781" lon="4.93949">
        <ele>173.64467</ele>
        <time>2023-07-11T08:03:21.000Z</time>
      </trkpt>
      <trkpt lat="45.81779" lon="4.93943">
        <ele>173.77597</ele>
        <time>2023-07-11T08:03:22.000Z</time>
      </trkpt>
      <trkpt lat="45.81777" lon="4.93938">
        <ele>173.80879</ele>
        <time>2023-07-11T08:03:23.000Z</time>
      </trkpt>
      <trkpt lat="45.81776" lon="4.93931">
        <ele>173.78189</ele>
        <time>2023-07-11T08:03:24.000Z</time>
      </trkpt>
      <trkpt lat="45.81773" lon="4.93925">
        <ele>173.78207</ele>
        <time>2023-07-11T08:03:25.000Z</time>
      </trkpt>
      <trkpt lat="45.8177" lon="4.93919">
        <ele>173.79388</ele>
        <time>2023-07-11T08:03:26.000Z</time>
      </trkpt>
      <trkpt lat="45.81768" lon="4.93913">
        <ele>173.79994</ele>
        <time>2023-07-11T08:03:27.000Z</time>
      </trkpt>
      <trkpt lat="45.81765" lon="4.93907">
        <ele>173.80759</ele>
        <time>2023-07-11T08:03:28.000Z</time>
      </trkpt>
      <trkpt lat="45.81763" lon="4.93901">
        <ele>173.83408</ele>
        <time>2023-07-11T08:03:29.000Z</time>
      </trkpt>
      <trkpt lat="45.81761" lon="4.93895">
        <ele>173.90878</ele>
        <time>2023-07-11T08:03:30.000Z</time>
      </trkpt>
      <trkpt lat="45.81759" lon="4.93889">
        <ele>174.00317</ele>
        <time>2023-07-11T08:03:31.000Z</time>
      </trkpt>
      <trkpt lat="45.81757" lon="4.93882">
        <ele>174.07954</ele>
        <time>2023-07-11T08:03:32.000Z</time>
      </trkpt>
      <trkpt lat="45.81755" lon="4.93874">
        <ele>174.15569</ele>
        <time>2023-07-11T08:03:33.000Z</time>
      </trkpt>
      <trkpt lat="45.81754" lon="4.93866">
        <ele>174.24559</ele>
        <time>2023-07-11T08:03:34.000Z</time>
      </trkpt>
      <trkpt lat="45.81753" lon="4.93858">
        <ele>174.36113</ele>
        <time>2023-07-11T08:03:35.000Z</time>
      </trkpt>
      <trkpt lat="45.81752" lon="4.93851">
        <ele>174.45297</ele>
        <time>2023-07-11T08:03:36.000Z</time>
      </trkpt>
      <trkpt lat="45.81751" lon="4.93844">
        <ele>174.55923</ele>
        <time>2023-07-11T08:03:37.000Z</time>
      </trkpt>
      <trkpt lat="45.8175" lon="4.93837">
        <ele>174.70079</ele>
        <time>2023-07-11T08:03:38.000Z</time>
      </trkpt>
      <trkpt lat="45.81749" lon="4.93832">
        <ele>174.90634</ele>
        <time>2023-07-11T08:03:39.000Z</time>
      </trkpt>
      <trkpt lat="45.81748" lon="4.93828">
        <ele>175.0808</ele>
        <time>2023-07-11T08:03:40.000Z</time>
      </trkpt>
      <trkpt lat="45.81747" lon="4.93825">
        <ele>175.26491</ele>
        <time>2023-07-11T08:03:41.000Z</time>
      </trkpt>
      <trkpt lat="45.81745" lon="4.93824">
        <ele>175.44919</ele>
        <time>2023-07-11T08:03:42.000Z</time>
      </trkpt>
      <trkpt lat="45.81742" lon="4.93823">
        <ele>175.59879</ele>
        <time>2023-07-11T08:03:43.000Z</time>
      </trkpt>
      <trkpt lat="45.81738" lon="4.93826">
        <ele>175.79263</ele>
        <time>2023-07-11T08:03:45.000Z</time>
      </trkpt>
      <trkpt lat="45.81736" lon="4.93829">
        <ele>175.96141</ele>
        <time>2023-07-11T08:03:46.000Z</time>
      </trkpt>
      <trkpt lat="45.81733" lon="4.93831">
        <ele>176.13824</ele>
        <time>2023-07-11T08:03:47.000Z</time>
      </trkpt>
      <trkpt lat="45.81729" lon="4.93834">
        <ele>176.32065</ele>
        <time>2023-07-11T08:03:48.000Z</time>
      </trkpt>
      <trkpt lat="45.81725" lon="4.93838">
        <ele>176.50896</ele>
        <time>2023-07-11T08:03:49.000Z</time>
      </trkpt>
      <trkpt lat="45.8172" lon="4.93841">
        <ele>176.63782</ele>
        <time>2023-07-11T08:03:50.000Z</time>
      </trkpt>
      <trkpt lat="45.81717" lon="4.93843">
        <ele>176.68442</ele>
        <time>2023-07-11T08:03:51.000Z</time>
      </trkpt>
      <trkpt lat="45.81713" lon="4.93846">
        <ele>176.7211</ele>
        <time>2023-07-11T08:03:52.000Z</time>
      </trkpt>
      <trkpt lat="45.8171" lon="4.9385">
        <ele>176.75751</ele>
        <time>2023-07-11T08:03:53.000Z</time>
      </trkpt>
      <trkpt lat="45.81705" lon="4.93854">
        <ele>176.79155</ele>
        <time>2023-07-11T08:03:54.000Z</time>
      </trkpt>
      <trkpt lat="45.81701" lon="4.93857">
        <ele>176.79788</ele>
        <time>2023-07-11T08:03:55.000Z</time>
      </trkpt>
      <trkpt lat="45.81697" lon="4.93861">
        <ele>176.77145</ele>
        <time>2023-07-11T08:03:56.000Z</time>
      </trkpt>
      <trkpt lat="45.81692" lon="4.93866">
        <ele>176.74495</ele>
        <time>2023-07-11T08:03:57.000Z</time>
      </trkpt>
      <trkpt lat="45.81688" lon="4.93871">
        <ele>176.71049</ele>
        <time>2023-07-11T08:03:58.000Z</time>
      </trkpt>
      <trkpt lat="45.81684" lon="4.93874">
        <ele>176.66608</ele>
        <time>2023-07-11T08:03:59.000Z</time>
      </trkpt>
      <trkpt lat="45.8168" lon="4.93878">
        <ele>176.55629</ele>
        <time>2023-07-11T08:04:00.000Z</time>
      </trkpt>
      <trkpt lat="45.81676" lon="4.93882">
        <ele>176.46654</ele>
        <time>2023-07-11T08:04:01.000Z</time>
      </trkpt>
      <trkpt lat="45.81672" lon="4.93886">
        <ele>176.37283</ele>
        <time>2023-07-11T08:04:02.000Z</time>
      </trkpt>
      <trkpt lat="45.81668" lon="4.9389">
        <ele>176.26584</ele>
        <time>2023-07-11T08:04:03.000Z</time>
      </trkpt>
      <trkpt lat="45.81664" lon="4.93893">
        <ele>176.16183</ele>
        <time>2023-07-11T08:04:04.000Z</time>
      </trkpt>
      <trkpt lat="45.8166" lon="4.93896">
        <ele>176.04073</ele>
        <time>2023-07-11T08:04:05.000Z</time>
      </trkpt>
      <trkpt lat="45.81657" lon="4.939">
        <ele>175.9453</ele>
        <time>2023-07-11T08:04:06.000Z</time>
      </trkpt>
      <trkpt lat="45.81654" lon="4.93902">
        <ele>175.82748</ele>
        <time>2023-07-11T08:04:07.000Z</time>
      </trkpt>
      <trkpt lat="45.8165" lon="4.93904">
        <ele>175.68147</ele>
        <time>2023-07-11T08:04:08.000Z</time>
      </trkpt>
      <trkpt lat="45.81647" lon="4.93903">
        <ele>175.50784</ele>
        <time>2023-07-11T08:04:09.000Z</time>
      </trkpt>
      <trkpt lat="45.81643" lon="4.93901">
        <ele>175.37845</ele>
        <time>2023-07-11T08:04:10.000Z</time>
      </trkpt>
      <trkpt lat="45.81639" lon="4.93897">
        <ele>175.30283</ele>
        <time>2023-07-11T08:04:11.000Z</time>
      </trkpt>
      <trkpt lat="45.81635" lon="4.93893">
        <ele>175.19102</ele>
        <time>2023-07-11T08:04:12.000Z</time>
      </trkpt>
      <trkpt lat="45.81633" lon="4.93886">
        <ele>175.0576</ele>
        <time>2023-07-11T08:04:13.000Z</time>
      </trkpt>
      <trkpt lat="45.8163" lon="4.9388">
        <ele>174.90085</ele>
        <time>2023-07-11T08:04:14.000Z</time>
      </trkpt>
      <trkpt lat="45.81627" lon="4.93873">
        <ele>174.73874</ele>
        <time>2023-07-11T08:04:15.000Z</time>
      </trkpt>
      <trkpt lat="45.81623" lon="4.93867">
        <ele>174.58365</ele>
        <time>2023-07-11T08:04:16.000Z</time>
      </trkpt>
      <trkpt lat="45.81621" lon="4.93861">
        <ele>174.45776</ele>
        <time>2023-07-11T08:04:17.000Z</time>
      </trkpt>
      <trkpt lat="45.81618" lon="4.93855">
        <ele>174.32919</ele>
        <time>2023-07-11T08:04:18.000Z</time>
      </trkpt>
      <trkpt lat="45.81615" lon="4.93849">
        <ele>174.19258</ele>
        <time>2023-07-11T08:04:19.000Z</time>
      </trkpt>
      <trkpt lat="45.81612" lon="4.93843">
        <ele>174.08841</ele>
        <time>2023-07-11T08:04:20.000Z</time>
      </trkpt>
      <trkpt lat="45.81609" lon="4.93837">
        <ele>173.9765</ele>
        <time>2023-07-11T08:04:21.000Z</time>
      </trkpt>
      <trkpt lat="45.81606" lon="4.93832">
        <ele>173.88596</ele>
        <time>2023-07-11T08:04:22.000Z</time>
      </trkpt>
      <trkpt lat="45.81604" lon="4.93826">
        <ele>173.78593</ele>
        <time>2023-07-11T08:04:23.000Z</time>
      </trkpt>
      <trkpt lat="45.81602" lon="4.93819">
        <ele>173.633</ele>
        <time>2023-07-11T08:04:24.000Z</time>
      </trkpt>
      <trkpt lat="45.81599" lon="4.93812">
        <ele>173.5016</ele>
        <time>2023-07-11T08:04:25.000Z</time>
      </trkpt>
      <trkpt lat="45.81596" lon="4.93806">
        <ele>173.3727</ele>
        <time>2023-07-11T08:04:26.000Z</time>
      </trkpt>
      <trkpt lat="45.81593" lon="4.938">
        <ele>173.2571</ele>
        <time>2023-07-11T08:04:27.000Z</time>
      </trkpt>
      <trkpt lat="45.8159" lon="4.93793">
        <ele>173.17375</ele>
        <time>2023-07-11T08:04:28.000Z</time>
      </trkpt>
      <trkpt lat="45.81587" lon="4.93787">
        <ele>173.13388</ele>
        <time>2023-07-11T08:04:29.000Z</time>
      </trkpt>
      <trkpt lat="45.81585" lon="4.9378">
        <ele>173.07901</ele>
        <time>2023-07-11T08:04:30.000Z</time>
      </trkpt>
      <trkpt lat="45.81582" lon="4.93773">
        <ele>173.04831</ele>
        <time>2023-07-11T08:04:31.000Z</time>
      </trkpt>
      <trkpt lat="45.81579" lon="4.93767">
        <ele>173.05499</ele>
        <time>2023-07-11T08:04:32.000Z</time>
      </trkpt>
      <trkpt lat="45.81576" lon="4.93761">
        <ele>173.06271</ele>
        <time>2023-07-11T08:04:33.000Z</time>
      </trkpt>
      <trkpt lat="45.81572" lon="4.93755">
        <ele>173.07632</ele>
        <time>2023-07-11T08:04:34.000Z</time>
      </trkpt>
      <trkpt lat="45.8157" lon="4.93748">
        <ele>173.10519</ele>
        <time>2023-07-11T08:04:35.000Z</time>
      </trkpt>
      <trkpt lat="45.81567" lon="4.93742">
        <ele>173.14725</ele>
        <time>2023-07-11T08:04:36.000Z</time>
      </trkpt>
      <trkpt lat="45.81564" lon="4.93736">
        <ele>173.18207</ele>
        <time>2023-07-11T08:04:37.000Z</time>
      </trkpt>
      <trkpt lat="45.8156" lon="4.93728">
        <ele>173.19257</ele>
        <time>2023-07-11T08:04:38.000Z</time>
      </trkpt>
      <trkpt lat="45.81557" lon="4.93721">
        <ele>173.19055</ele>
        <time>2023-07-11T08:04:39.000Z</time>
      </trkpt>
      <trkpt lat="45.81554" lon="4.93715">
        <ele>173.20967</ele>
        <time>2023-07-11T08:04:40.000Z</time>
      </trkpt>
      <trkpt lat="45.81551" lon="4.93708">
        <ele>173.23982</ele>
        <time>2023-07-11T08:04:41.000Z</time>
      </trkpt>
      <trkpt lat="45.81547" lon="4.93701">
        <ele>173.22166</ele>
        <time>2023-07-11T08:04:42.000Z</time>
      </trkpt>
      <trkpt lat="45.81544" lon="4.93695">
        <ele>173.21776</ele>
        <time>2023-07-11T08:04:43.000Z</time>
      </trkpt>
      <trkpt lat="45.81541" lon="4.93687">
        <ele>173.26584</ele>
        <time>2023-07-11T08:04:44.000Z</time>
      </trkpt>
      <trkpt lat="45.81538" lon="4.93681">
        <ele>173.34064</ele>
        <time>2023-07-11T08:04:45.000Z</time>
      </trkpt>
      <trkpt lat="45.81535" lon="4.93675">
        <ele>173.405</ele>
        <time>2023-07-11T08:04:46.000Z</time>
      </trkpt>
      <trkpt lat="45.81532" lon="4.93669">
        <ele>173.46643</ele>
        <time>2023-07-11T08:04:47.000Z</time>
      </trkpt>
      <trkpt lat="45.81529" lon="4.93661">
        <ele>173.52164</ele>
        <time>2023-07-11T08:04:48.000Z</time>
      </trkpt>
      <trkpt lat="45.81526" lon="4.93654">
        <ele>173.57022</ele>
        <time>2023-07-11T08:04:49.000Z</time>
      </trkpt>
      <trkpt lat="45.81524" lon="4.93647">
        <ele>173.62469</ele>
        <time>2023-07-11T08:04:50.000Z</time>
      </trkpt>
      <trkpt lat="45.8152" lon="4.93639">
        <ele>173.66872</ele>
        <time>2023-07-11T08:04:51.000Z</time>
      </trkpt>
      <trkpt lat="45.81517" lon="4.93632">
        <ele>173.71342</ele>
        <time>2023-07-11T08:04:52.000Z</time>
      </trkpt>
      <trkpt lat="45.81515" lon="4.93625">
        <ele>173.80328</ele>
        <time>2023-07-11T08:04:53.000Z</time>
      </trkpt>
      <trkpt lat="45.81511" lon="4.93618">
        <ele>173.89485</ele>
        <time>2023-07-11T08:04:54.000Z</time>
      </trkpt>
      <trkpt lat="45.81508" lon="4.93611">
        <ele>174.00557</ele>
        <time>2023-07-11T08:04:55.000Z</time>
      </trkpt>
      <trkpt lat="45.81505" lon="4.93604">
        <ele>174.09439</ele>
        <time>2023-07-11T08:04:56.000Z</time>
      </trkpt>
      <trkpt lat="45.81501" lon="4.93597">
        <ele>174.17839</ele>
        <time>2023-07-11T08:04:57.000Z</time>
      </trkpt>
      <trkpt lat="45.81499" lon="4.93589">
        <ele>174.23167</ele>
        <time>2023-07-11T08:04:58.000Z</time>
      </trkpt>
      <trkpt lat="45.81495" lon="4.93582">
        <ele>174.27786</ele>
        <time>2023-07-11T08:04:59.000Z</time>
      </trkpt>
      <trkpt lat="45.81492" lon="4.93575">
        <ele>174.30565</ele>
        <time>2023-07-11T08:05:00.000Z</time>
      </trkpt>
      <trkpt lat="45.81489" lon="4.93568">
        <ele>174.3293</ele>
        <time>2023-07-11T08:05:01.000Z</time>
      </trkpt>
      <trkpt lat="45.81486" lon="4.93561">
        <ele>174.37099</ele>
        <time>2023-07-11T08:05:02.000Z</time>
      </trkpt>
      <trkpt lat="45.81483" lon="4.93554">
        <ele>174.42186</ele>
        <time>2023-07-11T08:05:03.000Z</time>
      </trkpt>
      <trkpt lat="45.81479" lon="4.93547">
        <ele>174.45259</ele>
        <time>2023-07-11T08:05:04.000Z</time>
      </trkpt>
      <trkpt lat="45.81476" lon="4.93541">
        <ele>174.46182</ele>
        <time>2023-07-11T08:05:05.000Z</time>
      </trkpt>
      <trkpt lat="45.81474" lon="4.93533">
        <ele>174.46609</ele>
        <time>2023-07-11T08:05:06.000Z</time>
      </trkpt>
      <trkpt lat="45.81471" lon="4.93526">
        <ele>174.47452</ele>
        <time>2023-07-11T08:05:07.000Z</time>
      </trkpt>
      <trkpt lat="45.81467" lon="4.93519">
        <ele>174.50415</ele>
        <time>2023-07-11T08:05:08.000Z</time>
      </trkpt>
      <trkpt lat="45.81463" lon="4.93512">
        <ele>174.50862</ele>
        <time>2023-07-11T08:05:09.000Z</time>
      </trkpt>
      <trkpt lat="45.81459" lon="4.93505">
        <ele>174.56053</ele>
        <time>2023-07-11T08:05:10.000Z</time>
      </trkpt>
      <trkpt lat="45.81456" lon="4.93497">
        <ele>174.57114</ele>
        <time>2023-07-11T08:05:11.000Z</time>
      </trkpt>
      <trkpt lat="45.81452" lon="4.9349">
        <ele>174.56229</ele>
        <time>2023-07-11T08:05:12.000Z</time>
      </trkpt>
      <trkpt lat="45.8145" lon="4.93484">
        <ele>174.52545</ele>
        <time>2023-07-11T08:05:13.000Z</time>
      </trkpt>
      <trkpt lat="45.81447" lon="4.93476">
        <ele>174.4326</ele>
        <time>2023-07-11T08:05:14.000Z</time>
      </trkpt>
      <trkpt lat="45.81443" lon="4.9347">
        <ele>174.31546</ele>
        <time>2023-07-11T08:05:15.000Z</time>
      </trkpt>
      <trkpt lat="45.81442" lon="4.93464">
        <ele>174.20743</ele>
        <time>2023-07-11T08:05:16.000Z</time>
      </trkpt>
      <trkpt lat="45.8144" lon="4.93458">
        <ele>174.11461</ele>
        <time>2023-07-11T08:05:17.000Z</time>
      </trkpt>
      <trkpt lat="45.81439" lon="4.93451">
        <ele>174.05019</ele>
        <time>2023-07-11T08:05:18.000Z</time>
      </trkpt>
      <trkpt lat="45.81438" lon="4.93446">
        <ele>173.99583</ele>
        <time>2023-07-11T08:05:19.000Z</time>
      </trkpt>
      <trkpt lat="45.81436" lon="4.93442">
        <ele>173.94833</ele>
        <time>2023-07-11T08:05:20.000Z</time>
      </trkpt>
      <trkpt lat="45.81432" lon="4.93441">
        <ele>173.89522</ele>
        <time>2023-07-11T08:05:21.000Z</time>
      </trkpt>
      <trkpt lat="45.81429" lon="4.9344">
        <ele>173.8409</ele>
        <time>2023-07-11T08:05:22.000Z</time>
      </trkpt>
      <trkpt lat="45.81427" lon="4.93439">
        <ele>173.78651</ele>
        <time>2023-07-11T08:05:23.000Z</time>
      </trkpt>
      <trkpt lat="45.81425" lon="4.93438">
        <ele>173.77843</ele>
        <time>2023-07-11T08:05:24.000Z</time>
      </trkpt>
      <trkpt lat="45.81424" lon="4.93436">
        <ele>173.76729</ele>
        <time>2023-07-11T08:05:25.000Z</time>
      </trkpt>
      <trkpt lat="45.81424" lon="4.93433">
        <ele>173.78954</ele>
        <time>2023-07-11T08:05:26.000Z</time>
      </trkpt>
      <trkpt lat="45.81424" lon="4.93427">
        <ele>173.76448</ele>
        <time>2023-07-11T08:05:28.000Z</time>
      </trkpt>
      <trkpt lat="45.81423" lon="4.93423">
        <ele>173.69922</ele>
        <time>2023-07-11T08:05:29.000Z</time>
      </trkpt>
      <trkpt lat="45.81422" lon="4.93417">
        <ele>173.63837</ele>
        <time>2023-07-11T08:05:30.000Z</time>
      </trkpt>
      <trkpt lat="45.81419" lon="4.93411">
        <ele>173.53444</ele>
        <time>2023-07-11T08:05:31.000Z</time>
      </trkpt>
      <trkpt lat="45.81417" lon="4.93404">
        <ele>173.45757</ele>
        <time>2023-07-11T08:05:32.000Z</time>
      </trkpt>
      <trkpt lat="45.81413" lon="4.93398">
        <ele>173.40572</ele>
        <time>2023-07-11T08:05:33.000Z</time>
      </trkpt>
      <trkpt lat="45.8141" lon="4.93391">
        <ele>173.35088</ele>
        <time>2023-07-11T08:05:34.000Z</time>
      </trkpt>
      <trkpt lat="45.81407" lon="4.93384">
        <ele>173.3486</ele>
        <time>2023-07-11T08:05:35.000Z</time>
      </trkpt>
      <trkpt lat="45.81404" lon="4.93377">
        <ele>173.34265</ele>
        <time>2023-07-11T08:05:36.000Z</time>
      </trkpt>
      <trkpt lat="45.81401" lon="4.9337">
        <ele>173.37027</ele>
        <time>2023-07-11T08:05:37.000Z</time>
      </trkpt>
      <trkpt lat="45.81398" lon="4.93364">
        <ele>173.37767</ele>
        <time>2023-07-11T08:05:38.000Z</time>
      </trkpt>
      <trkpt lat="45.81394" lon="4.93357">
        <ele>173.36778</ele>
        <time>2023-07-11T08:05:39.000Z</time>
      </trkpt>
      <trkpt lat="45.81391" lon="4.9335">
        <ele>173.36942</ele>
        <time>2023-07-11T08:05:40.000Z</time>
      </trkpt>
      <trkpt lat="45.81388" lon="4.93343">
        <ele>173.36693</ele>
        <time>2023-07-11T08:05:41.000Z</time>
      </trkpt>
      <trkpt lat="45.81385" lon="4.93338">
        <ele>173.35361</ele>
        <time>2023-07-11T08:05:42.000Z</time>
      </trkpt>
      <trkpt lat="45.81382" lon="4.93331">
        <ele>173.32716</ele>
        <time>2023-07-11T08:05:43.000Z</time>
      </trkpt>
      <trkpt lat="45.81378" lon="4.93324">
        <ele>173.29292</ele>
        <time>2023-07-11T08:05:44.000Z</time>
      </trkpt>
      <trkpt lat="45.81375" lon="4.93316">
        <ele>174.36853</ele>
        <time>2023-07-11T08:05:45.000Z</time>
      </trkpt>
      <trkpt lat="45.81373" lon="4.93308">
        <ele>174.96725</ele>
        <time>2023-07-11T08:05:46.000Z</time>
      </trkpt>
      <trkpt lat="45.81369" lon="4.93301">
        <ele>175.54308</ele>
        <time>2023-07-11T08:05:47.000Z</time>
      </trkpt>
      <trkpt lat="45.81366" lon="4.93293">
        <ele>176.19858</ele>
        <time>2023-07-11T08:05:48.000Z</time>
      </trkpt>
      <trkpt lat="45.81363" lon="4.93286">
        <ele>176.86287</ele>
        <time>2023-07-11T08:05:49.000Z</time>
      </trkpt>
      <trkpt lat="45.81359" lon="4.93278">
        <ele>177.48093</ele>
        <time>2023-07-11T08:05:50.000Z</time>
      </trkpt>
      <trkpt lat="45.81355" lon="4.93271">
        <ele>178.05402</ele>
        <time>2023-07-11T08:05:51.000Z</time>
      </trkpt>
      <trkpt lat="45.81352" lon="4.93265">
        <ele>178.85278</ele>
        <time>2023-07-11T08:05:52.000Z</time>
      </trkpt>
      <trkpt lat="45.81349" lon="4.93258">
        <ele>179.65262</ele>
        <time>2023-07-11T08:05:53.000Z</time>
      </trkpt>
      <trkpt lat="45.81346" lon="4.93251">
        <ele>180.46043</ele>
        <time>2023-07-11T08:05:54.000Z</time>
      </trkpt>
      <trkpt lat="45.81342" lon="4.93244">
        <ele>181.43781</ele>
        <time>2023-07-11T08:05:55.000Z</time>
      </trkpt>
      <trkpt lat="45.81339" lon="4.93237">
        <ele>181.97209</ele>
        <time>2023-07-11T08:05:56.000Z</time>
      </trkpt>
      <trkpt lat="45.81336" lon="4.93229">
        <ele>182.55922</ele>
        <time>2023-07-11T08:05:57.000Z</time>
      </trkpt>
      <trkpt lat="45.81332" lon="4.93222">
        <ele>183.1768</ele>
        <time>2023-07-11T08:05:58.000Z</time>
      </trkpt>
      <trkpt lat="45.81329" lon="4.93215">
        <ele>183.80365</ele>
        <time>2023-07-11T08:05:59.000Z</time>
      </trkpt>
      <trkpt lat="45.81326" lon="4.93208">
        <ele>184.5024</ele>
        <time>2023-07-11T08:06:00.000Z</time>
      </trkpt>
      <trkpt lat="45.81323" lon="4.93201">
        <ele>185.10779</ele>
        <time>2023-07-11T08:06:01.000Z</time>
      </trkpt>
      <trkpt lat="45.81319" lon="4.93194">
        <ele>185.69394</ele>
        <time>2023-07-11T08:06:02.000Z</time>
      </trkpt>
      <trkpt lat="45.81315" lon="4.93187">
        <ele>186.30606</ele>
        <time>2023-07-11T08:06:03.000Z</time>
      </trkpt>
      <trkpt lat="45.81312" lon="4.93179">
        <ele>186.93198</ele>
        <time>2023-07-11T08:06:04.000Z</time>
      </trkpt>
      <trkpt lat="45.81309" lon="4.93172">
        <ele>186.48721</ele>
        <time>2023-07-11T08:06:05.000Z</time>
      </trkpt>
      <trkpt lat="45.81306" lon="4.93165">
        <ele>186.51157</ele>
        <time>2023-07-11T08:06:06.000Z</time>
      </trkpt>
      <trkpt lat="45.81302" lon="4.93157">
        <ele>186.48856</ele>
        <time>2023-07-11T08:06:07.000Z</time>
      </trkpt>
      <trkpt lat="45.813" lon="4.9315">
        <ele>186.47157</ele>
        <time>2023-07-11T08:06:08.000Z</time>
      </trkpt>
      <trkpt lat="45.81296" lon="4.93142">
        <ele>186.40831</ele>
        <time>2023-07-11T08:06:09.000Z</time>
      </trkpt>
      <trkpt lat="45.81293" lon="4.93134">
        <ele>186.31143</ele>
        <time>2023-07-11T08:06:10.000Z</time>
      </trkpt>
      <trkpt lat="45.8129" lon="4.93126">
        <ele>186.21397</ele>
        <time>2023-07-11T08:06:11.000Z</time>
      </trkpt>
      <trkpt lat="45.81287" lon="4.93119">
        <ele>185.86948</ele>
        <time>2023-07-11T08:06:12.000Z</time>
      </trkpt>
      <trkpt lat="45.81284" lon="4.93111">
        <ele>185.47696</ele>
        <time>2023-07-11T08:06:13.000Z</time>
      </trkpt>
      <trkpt lat="45.8128" lon="4.93104">
        <ele>185.0873</ele>
        <time>2023-07-11T08:06:14.000Z</time>
      </trkpt>
      <trkpt lat="45.81277" lon="4.93097">
        <ele>184.54758</ele>
        <time>2023-07-11T08:06:15.000Z</time>
      </trkpt>
      <trkpt lat="45.81274" lon="4.9309">
        <ele>184.48056</ele>
        <time>2023-07-11T08:06:16.000Z</time>
      </trkpt>
      <trkpt lat="45.81271" lon="4.93083">
        <ele>184.37039</ele>
        <time>2023-07-11T08:06:17.000Z</time>
      </trkpt>
      <trkpt lat="45.81268" lon="4.93076">
        <ele>184.48721</ele>
        <time>2023-07-11T08:06:18.000Z</time>
      </trkpt>
      <trkpt lat="45.81263" lon="4.93069">
        <ele>184.78766</ele>
        <time>2023-07-11T08:06:19.000Z</time>
      </trkpt>
      <trkpt lat="45.8126" lon="4.93062">
        <ele>185.02243</ele>
        <time>2023-07-11T08:06:20.000Z</time>
      </trkpt>
      <trkpt lat="45.81256" lon="4.93055">
        <ele>184.90916</ele>
        <time>2023-07-11T08:06:21.000Z</time>
      </trkpt>
      <trkpt lat="45.81252" lon="4.93048">
        <ele>184.91887</ele>
        <time>2023-07-11T08:06:22.000Z</time>
      </trkpt>
      <trkpt lat="45.81249" lon="4.93042">
        <ele>184.89313</ele>
        <time>2023-07-11T08:06:23.000Z</time>
      </trkpt>
      <trkpt lat="45.81245" lon="4.93035">
        <ele>184.86098</ele>
        <time>2023-07-11T08:06:24.000Z</time>
      </trkpt>
      <trkpt lat="45.81242" lon="4.93028">
        <ele>184.77591</ele>
        <time>2023-07-11T08:06:25.000Z</time>
      </trkpt>
      <trkpt lat="45.81237" lon="4.93021">
        <ele>184.67458</ele>
        <time>2023-07-11T08:06:26.000Z</time>
      </trkpt>
      <trkpt lat="45.81233" lon="4.93014">
        <ele>184.62032</ele>
        <time>2023-07-11T08:06:27.000Z</time>
      </trkpt>
      <trkpt lat="45.81228" lon="4.93007">
        <ele>184.52834</ele>
        <time>2023-07-11T08:06:28.000Z</time>
      </trkpt>
      <trkpt lat="45.81224" lon="4.93">
        <ele>184.49055</ele>
        <time>2023-07-11T08:06:29.000Z</time>
      </trkpt>
      <trkpt lat="45.8122" lon="4.92994">
        <ele>184.552</ele>
        <time>2023-07-11T08:06:30.000Z</time>
      </trkpt>
      <trkpt lat="45.81216" lon="4.92987">
        <ele>184.68277</ele>
        <time>2023-07-11T08:06:31.000Z</time>
      </trkpt>
      <trkpt lat="45.81211" lon="4.92981">
        <ele>184.85944</ele>
        <time>2023-07-11T08:06:32.000Z</time>
      </trkpt>
      <trkpt lat="45.81207" lon="4.92974">
        <ele>185.0999</ele>
        <time>2023-07-11T08:06:33.000Z</time>
      </trkpt>
      <trkpt lat="45.81203" lon="4.92968">
        <ele>185.37123</ele>
        <time>2023-07-11T08:06:34.000Z</time>
      </trkpt>
      <trkpt lat="45.81199" lon="4.92961">
        <ele>185.66356</ele>
        <time>2023-07-11T08:06:35.000Z</time>
      </trkpt>
      <trkpt lat="45.81195" lon="4.92955">
        <ele>186.15172</ele>
        <time>2023-07-11T08:06:36.000Z</time>
      </trkpt>
      <trkpt lat="45.81191" lon="4.92949">
        <ele>186.75168</ele>
        <time>2023-07-11T08:06:37.000Z</time>
      </trkpt>
      <trkpt lat="45.81186" lon="4.92943">
        <ele>187.0889</ele>
        <time>2023-07-11T08:06:38.000Z</time>
      </trkpt>
      <trkpt lat="45.81181" lon="4.92937">
        <ele>186.83362</ele>
        <time>2023-07-11T08:06:39.000Z</time>
      </trkpt>
      <trkpt lat="45.81177" lon="4.9293">
        <ele>186.64438</ele>
        <time>2023-07-11T08:06:40.000Z</time>
      </trkpt>
      <trkpt lat="45.81173" lon="4.92925">
        <ele>186.81723</ele>
        <time>2023-07-11T08:06:41.000Z</time>
      </trkpt>
      <trkpt lat="45.81169" lon="4.92918">
        <ele>186.94641</ele>
        <time>2023-07-11T08:06:42.000Z</time>
      </trkpt>
      <trkpt lat="45.81165" lon="4.92912">
        <ele>187.12138</ele>
        <time>2023-07-11T08:06:43.000Z</time>
      </trkpt>
      <trkpt lat="45.8116" lon="4.92906">
        <ele>187.27126</ele>
        <time>2023-07-11T08:06:44.000Z</time>
      </trkpt>
      <trkpt lat="45.81155" lon="4.92898">
        <ele>187.41129</ele>
        <time>2023-07-11T08:06:45.000Z</time>
      </trkpt>
      <trkpt lat="45.81151" lon="4.92892">
        <ele>187.54303</ele>
        <time>2023-07-11T08:06:46.000Z</time>
      </trkpt>
      <trkpt lat="45.81147" lon="4.92886">
        <ele>187.66298</ele>
        <time>2023-07-11T08:06:47.000Z</time>
      </trkpt>
      <trkpt lat="45.81142" lon="4.9288">
        <ele>187.76555</ele>
        <time>2023-07-11T08:06:48.000Z</time>
      </trkpt>
      <trkpt lat="45.81139" lon="4.92873">
        <ele>187.84099</ele>
        <time>2023-07-11T08:06:49.000Z</time>
      </trkpt>
      <trkpt lat="45.81134" lon="4.92867">
        <ele>187.89645</ele>
        <time>2023-07-11T08:06:50.000Z</time>
      </trkpt>
      <trkpt lat="45.81131" lon="4.92861">
        <ele>187.93274</ele>
        <time>2023-07-11T08:06:51.000Z</time>
      </trkpt>
      <trkpt lat="45.81126" lon="4.92854">
        <ele>187.91084</ele>
        <time>2023-07-11T08:06:52.000Z</time>
      </trkpt>
      <trkpt lat="45.81122" lon="4.92848">
        <ele>187.85381</ele>
        <time>2023-07-11T08:06:53.000Z</time>
      </trkpt>
      <trkpt lat="45.81118" lon="4.92841">
        <ele>187.77869</ele>
        <time>2023-07-11T08:06:54.000Z</time>
      </trkpt>
      <trkpt lat="45.81114" lon="4.92834">
        <ele>187.69479</ele>
        <time>2023-07-11T08:06:55.000Z</time>
      </trkpt>
      <trkpt lat="45.8111" lon="4.92828">
        <ele>187.61069</ele>
        <time>2023-07-11T08:06:56.000Z</time>
      </trkpt>
      <trkpt lat="45.81105" lon="4.92822">
        <ele>187.55211</ele>
        <time>2023-07-11T08:06:57.000Z</time>
      </trkpt>
      <trkpt lat="45.81101" lon="4.92816">
        <ele>187.05807</ele>
        <time>2023-07-11T08:06:58.000Z</time>
      </trkpt>
      <trkpt lat="45.81097" lon="4.9281">
        <ele>187.07474</ele>
        <time>2023-07-11T08:06:59.000Z</time>
      </trkpt>
      <trkpt lat="45.81093" lon="4.92804">
        <ele>187.00665</ele>
        <time>2023-07-11T08:07:00.000Z</time>
      </trkpt>
      <trkpt lat="45.81089" lon="4.92799">
        <ele>187.05687</ele>
        <time>2023-07-11T08:07:01.000Z</time>
      </trkpt>
      <trkpt lat="45.81085" lon="4.92793">
        <ele>187.10323</ele>
        <time>2023-07-11T08:07:02.000Z</time>
      </trkpt>
      <trkpt lat="45.81082" lon="4.92786">
        <ele>187.1331</ele>
        <time>2023-07-11T08:07:03.000Z</time>
      </trkpt>
      <trkpt lat="45.81078" lon="4.9278">
        <ele>187.29099</ele>
        <time>2023-07-11T08:07:04.000Z</time>
      </trkpt>
      <trkpt lat="45.81073" lon="4.92774">
        <ele>187.42889</ele>
        <time>2023-07-11T08:07:05.000Z</time>
      </trkpt>
      <trkpt lat="45.81069" lon="4.92767">
        <ele>187.52182</ele>
        <time>2023-07-11T08:07:06.000Z</time>
      </trkpt>
      <trkpt lat="45.81066" lon="4.9276">
        <ele>187.65353</ele>
        <time>2023-07-11T08:07:07.000Z</time>
      </trkpt>
      <trkpt lat="45.81061" lon="4.92754">
        <ele>187.85843</ele>
        <time>2023-07-11T08:07:08.000Z</time>
      </trkpt>
      <trkpt lat="45.81058" lon="4.92745">
        <ele>188.09244</ele>
        <time>2023-07-11T08:07:09.000Z</time>
      </trkpt>
      <trkpt lat="45.81053" lon="4.92739">
        <ele>188.5472</ele>
        <time>2023-07-11T08:07:10.000Z</time>
      </trkpt>
      <trkpt lat="45.81048" lon="4.92732">
        <ele>189.17636</ele>
        <time>2023-07-11T08:07:11.000Z</time>
      </trkpt>
      <trkpt lat="45.81045" lon="4.92728">
        <ele>189.90503</ele>
        <time>2023-07-11T08:07:12.000Z</time>
      </trkpt>
      <trkpt lat="45.81041" lon="4.92722">
        <ele>190.17705</ele>
        <time>2023-07-11T08:07:13.000Z</time>
      </trkpt>
      <trkpt lat="45.81037" lon="4.92715">
        <ele>190.58574</ele>
        <time>2023-07-11T08:07:14.000Z</time>
      </trkpt>
      <trkpt lat="45.81033" lon="4.92709">
        <ele>190.86346</ele>
        <time>2023-07-11T08:07:15.000Z</time>
      </trkpt>
      <trkpt lat="45.81029" lon="4.92702">
        <ele>190.81178</ele>
        <time>2023-07-11T08:07:16.000Z</time>
      </trkpt>
      <trkpt lat="45.81025" lon="4.92695">
        <ele>190.521</ele>
        <time>2023-07-11T08:07:17.000Z</time>
      </trkpt>
      <trkpt lat="45.81021" lon="4.92688">
        <ele>190.681</ele>
        <time>2023-07-11T08:07:18.000Z</time>
      </trkpt>
      <trkpt lat="45.81016" lon="4.92682">
        <ele>190.75787</ele>
        <time>2023-07-11T08:07:19.000Z</time>
      </trkpt>
      <trkpt lat="45.81013" lon="4.92675">
        <ele>190.82309</ele>
        <time>2023-07-11T08:07:20.000Z</time>
      </trkpt>
      <trkpt lat="45.8101" lon="4.92667">
        <ele>190.85497</ele>
        <time>2023-07-11T08:07:21.000Z</time>
      </trkpt>
      <trkpt lat="45.81006" lon="4.9266">
        <ele>190.85001</ele>
        <time>2023-07-11T08:07:22.000Z</time>
      </trkpt>
      <trkpt lat="45.81002" lon="4.92653">
        <ele>190.85555</ele>
        <time>2023-07-11T08:07:23.000Z</time>
      </trkpt>
      <trkpt lat="45.80999" lon="4.92646">
        <ele>190.73126</ele>
        <time>2023-07-11T08:07:24.000Z</time>
      </trkpt>
      <trkpt lat="45.80996" lon="4.9264">
        <ele>190.62552</ele>
        <time>2023-07-11T08:07:25.000Z</time>
      </trkpt>
      <trkpt lat="45.80992" lon="4.92632">
        <ele>190.59187</ele>
        <time>2023-07-11T08:07:26.000Z</time>
      </trkpt>
      <trkpt lat="45.80989" lon="4.92625">
        <ele>190.54208</ele>
        <time>2023-07-11T08:07:27.000Z</time>
      </trkpt>
      <trkpt lat="45.80986" lon="4.92617">
        <ele>190.37814</ele>
        <time>2023-07-11T08:07:28.000Z</time>
      </trkpt>
      <trkpt lat="45.80982" lon="4.9261">
        <ele>190.23398</ele>
        <time>2023-07-11T08:07:29.000Z</time>
      </trkpt>
      <trkpt lat="45.80979" lon="4.92602">
        <ele>189.88126</ele>
        <time>2023-07-11T08:07:30.000Z</time>
      </trkpt>
      <trkpt lat="45.80976" lon="4.92595">
        <ele>189.33533</ele>
        <time>2023-07-11T08:07:31.000Z</time>
      </trkpt>
      <trkpt lat="45.80972" lon="4.92589">
        <ele>188.71838</ele>
        <time>2023-07-11T08:07:32.000Z</time>
      </trkpt>
      <trkpt lat="45.8097" lon="4.92582">
        <ele>188.56595</ele>
        <time>2023-07-11T08:07:33.000Z</time>
      </trkpt>
      <trkpt lat="45.80967" lon="4.92573">
        <ele>188.19746</ele>
        <time>2023-07-11T08:07:34.000Z</time>
      </trkpt>
      <trkpt lat="45.80964" lon="4.92565">
        <ele>187.95844</ele>
        <time>2023-07-11T08:07:35.000Z</time>
      </trkpt>
      <trkpt lat="45.8096" lon="4.92557">
        <ele>187.82208</ele>
        <time>2023-07-11T08:07:36.000Z</time>
      </trkpt>
      <trkpt lat="45.80957" lon="4.9255">
        <ele>187.7439</ele>
        <time>2023-07-11T08:07:37.000Z</time>
      </trkpt>
      <trkpt lat="45.80954" lon="4.92543">
        <ele>187.6731</ele>
        <time>2023-07-11T08:07:38.000Z</time>
      </trkpt>
      <trkpt lat="45.80951" lon="4.92536">
        <ele>187.60988</ele>
        <time>2023-07-11T08:07:39.000Z</time>
      </trkpt>
      <trkpt lat="45.80947" lon="4.92528">
        <ele>187.55087</ele>
        <time>2023-07-11T08:07:40.000Z</time>
      </trkpt>
      <trkpt lat="45.80944" lon="4.92521">
        <ele>187.44125</ele>
        <time>2023-07-11T08:07:41.000Z</time>
      </trkpt>
      <trkpt lat="45.80941" lon="4.92514">
        <ele>187.32623</ele>
        <time>2023-07-11T08:07:42.000Z</time>
      </trkpt>
      <trkpt lat="45.80938" lon="4.92506">
        <ele>187.18188</ele>
        <time>2023-07-11T08:07:43.000Z</time>
      </trkpt>
      <trkpt lat="45.80935" lon="4.92499">
        <ele>187.09886</ele>
        <time>2023-07-11T08:07:44.000Z</time>
      </trkpt>
      <trkpt lat="45.80933" lon="4.92491">
        <ele>186.35313</ele>
        <time>2023-07-11T08:07:45.000Z</time>
      </trkpt>
      <trkpt lat="45.80929" lon="4.92483">
        <ele>185.57576</ele>
        <time>2023-07-11T08:07:46.000Z</time>
      </trkpt>
      <trkpt lat="45.80927" lon="4.92474">
        <ele>184.72598</ele>
        <time>2023-07-11T08:07:47.000Z</time>
      </trkpt>
      <trkpt lat="45.80923" lon="4.92466">
        <ele>183.96063</ele>
        <time>2023-07-11T08:07:48.000Z</time>
      </trkpt>
      <trkpt lat="45.80921" lon="4.92458">
        <ele>183.13077</ele>
        <time>2023-07-11T08:07:49.000Z</time>
      </trkpt>
      <trkpt lat="45.80918" lon="4.9245">
        <ele>182.28653</ele>
        <time>2023-07-11T08:07:50.000Z</time>
      </trkpt>
      <trkpt lat="45.80915" lon="4.92443">
        <ele>181.45064</ele>
        <time>2023-07-11T08:07:51.000Z</time>
      </trkpt>
      <trkpt lat="45.80911" lon="4.92437">
        <ele>180.67123</ele>
        <time>2023-07-11T08:07:52.000Z</time>
      </trkpt>
      <trkpt lat="45.80909" lon="4.92429">
        <ele>179.92035</ele>
        <time>2023-07-11T08:07:53.000Z</time>
      </trkpt>
      <trkpt lat="45.80906" lon="4.92421">
        <ele>179.22726</ele>
        <time>2023-07-11T08:07:54.000Z</time>
      </trkpt>
      <trkpt lat="45.80904" lon="4.92414">
        <ele>178.52458</ele>
        <time>2023-07-11T08:07:55.000Z</time>
      </trkpt>
      <trkpt lat="45.809" lon="4.92407">
        <ele>177.84055</ele>
        <time>2023-07-11T08:07:56.000Z</time>
      </trkpt>
      <trkpt lat="45.80897" lon="4.92399">
        <ele>177.17459</ele>
        <time>2023-07-11T08:07:57.000Z</time>
      </trkpt>
      <trkpt lat="45.80893" lon="4.92392">
        <ele>176.51169</ele>
        <time>2023-07-11T08:07:58.000Z</time>
      </trkpt>
      <trkpt lat="45.8089" lon="4.92385">
        <ele>175.81648</ele>
        <time>2023-07-11T08:07:59.000Z</time>
      </trkpt>
      <trkpt lat="45.80887" lon="4.92378">
        <ele>175.14876</ele>
        <time>2023-07-11T08:08:00.000Z</time>
      </trkpt>
      <trkpt lat="45.80884" lon="4.9237">
        <ele>174.47832</ele>
        <time>2023-07-11T08:08:01.000Z</time>
      </trkpt>
      <trkpt lat="45.80881" lon="4.92363">
        <ele>173.8436</ele>
        <time>2023-07-11T08:08:02.000Z</time>
      </trkpt>
      <trkpt lat="45.80878" lon="4.92355">
        <ele>173.24448</ele>
        <time>2023-07-11T08:08:03.000Z</time>
      </trkpt>
      <trkpt lat="45.80875" lon="4.92347">
        <ele>172.7027</ele>
        <time>2023-07-11T08:08:04.000Z</time>
      </trkpt>
      <trkpt lat="45.80872" lon="4.92338">
        <ele>172.84729</ele>
        <time>2023-07-11T08:08:05.000Z</time>
      </trkpt>
      <trkpt lat="45.80869" lon="4.92331">
        <ele>173.03854</ele>
        <time>2023-07-11T08:08:06.000Z</time>
      </trkpt>
      <trkpt lat="45.80866" lon="4.92323">
        <ele>173.27164</ele>
        <time>2023-07-11T08:08:07.000Z</time>
      </trkpt>
      <trkpt lat="45.80863" lon="4.92315">
        <ele>173.46953</ele>
        <time>2023-07-11T08:08:08.000Z</time>
      </trkpt>
      <trkpt lat="45.8086" lon="4.92307">
        <ele>173.72951</ele>
        <time>2023-07-11T08:08:09.000Z</time>
      </trkpt>
      <trkpt lat="45.80858" lon="4.923">
        <ele>173.96585</ele>
        <time>2023-07-11T08:08:10.000Z</time>
      </trkpt>
      <trkpt lat="45.80856" lon="4.92292">
        <ele>174.20343</ele>
        <time>2023-07-11T08:08:11.000Z</time>
      </trkpt>
      <trkpt lat="45.80853" lon="4.92285">
        <ele>174.37817</ele>
        <time>2023-07-11T08:08:12.000Z</time>
      </trkpt>
      <trkpt lat="45.8085" lon="4.92277">
        <ele>174.55374</ele>
        <time>2023-07-11T08:08:13.000Z</time>
      </trkpt>
      <trkpt lat="45.80847" lon="4.9227">
        <ele>174.74344</ele>
        <time>2023-07-11T08:08:14.000Z</time>
      </trkpt>
      <trkpt lat="45.80843" lon="4.92263">
        <ele>174.95236</ele>
        <time>2023-07-11T08:08:15.000Z</time>
      </trkpt>
      <trkpt lat="45.8084" lon="4.92256">
        <ele>175.11295</ele>
        <time>2023-07-11T08:08:16.000Z</time>
      </trkpt>
      <trkpt lat="45.80837" lon="4.92248">
        <ele>175.25266</ele>
        <time>2023-07-11T08:08:17.000Z</time>
      </trkpt>
      <trkpt lat="45.80834" lon="4.92242">
        <ele>175.35204</ele>
        <time>2023-07-11T08:08:18.000Z</time>
      </trkpt>
      <trkpt lat="45.80831" lon="4.92233">
        <ele>175.47728</ele>
        <time>2023-07-11T08:08:19.000Z</time>
      </trkpt>
      <trkpt lat="45.80828" lon="4.92226">
        <ele>175.60707</ele>
        <time>2023-07-11T08:08:20.000Z</time>
      </trkpt>
      <trkpt lat="45.80824" lon="4.92218">
        <ele>175.76453</ele>
        <time>2023-07-11T08:08:21.000Z</time>
      </trkpt>
      <trkpt lat="45.80822" lon="4.92211">
        <ele>175.90359</ele>
        <time>2023-07-11T08:08:22.000Z</time>
      </trkpt>
      <trkpt lat="45.8082" lon="4.92203">
        <ele>176.06087</ele>
        <time>2023-07-11T08:08:23.000Z</time>
      </trkpt>
      <trkpt lat="45.80818" lon="4.92195">
        <ele>176.09032</ele>
        <time>2023-07-11T08:08:24.000Z</time>
      </trkpt>
      <trkpt lat="45.80815" lon="4.92187">
        <ele>176.08542</ele>
        <time>2023-07-11T08:08:25.000Z</time>
      </trkpt>
      <trkpt lat="45.80812" lon="4.9218">
        <ele>176.06845</ele>
        <time>2023-07-11T08:08:26.000Z</time>
      </trkpt>
      <trkpt lat="45.80808" lon="4.92172">
        <ele>176.05061</ele>
        <time>2023-07-11T08:08:27.000Z</time>
      </trkpt>
      <trkpt lat="45.80806" lon="4.92163">
        <ele>176.02019</ele>
        <time>2023-07-11T08:08:28.000Z</time>
      </trkpt>
      <trkpt lat="45.80804" lon="4.92155">
        <ele>175.95755</ele>
        <time>2023-07-11T08:08:29.000Z</time>
      </trkpt>
      <trkpt lat="45.80801" lon="4.92148">
        <ele>175.91739</ele>
        <time>2023-07-11T08:08:30.000Z</time>
      </trkpt>
      <trkpt lat="45.80797" lon="4.9214">
        <ele>175.89224</ele>
        <time>2023-07-11T08:08:31.000Z</time>
      </trkpt>
      <trkpt lat="45.80793" lon="4.92133">
        <ele>175.86464</ele>
        <time>2023-07-11T08:08:32.000Z</time>
      </trkpt>
      <trkpt lat="45.8079" lon="4.92127">
        <ele>175.80911</ele>
        <time>2023-07-11T08:08:33.000Z</time>
      </trkpt>
      <trkpt lat="45.80787" lon="4.92119">
        <ele>175.73792</ele>
        <time>2023-07-11T08:08:34.000Z</time>
      </trkpt>
      <trkpt lat="45.80784" lon="4.92111">
        <ele>175.64035</ele>
        <time>2023-07-11T08:08:35.000Z</time>
      </trkpt>
      <trkpt lat="45.80781" lon="4.92103">
        <ele>175.63913</ele>
        <time>2023-07-11T08:08:36.000Z</time>
      </trkpt>
      <trkpt lat="45.80778" lon="4.92096">
        <ele>175.67094</ele>
        <time>2023-07-11T08:08:37.000Z</time>
      </trkpt>
      <trkpt lat="45.80775" lon="4.92088">
        <ele>175.70151</ele>
        <time>2023-07-11T08:08:38.000Z</time>
      </trkpt>
      <trkpt lat="45.80772" lon="4.9208">
        <ele>175.71318</ele>
        <time>2023-07-11T08:08:39.000Z</time>
      </trkpt>
      <trkpt lat="45.8077" lon="4.92073">
        <ele>175.70914</ele>
        <time>2023-07-11T08:08:40.000Z</time>
      </trkpt>
      <trkpt lat="45.80766" lon="4.92064">
        <ele>175.72121</ele>
        <time>2023-07-11T08:08:41.000Z</time>
      </trkpt>
      <trkpt lat="45.80763" lon="4.92056">
        <ele>175.73251</ele>
        <time>2023-07-11T08:08:42.000Z</time>
      </trkpt>
      <trkpt lat="45.8076" lon="4.92049">
        <ele>175.58678</ele>
        <time>2023-07-11T08:08:43.000Z</time>
      </trkpt>
      <trkpt lat="45.80757" lon="4.92041">
        <ele>175.48787</ele>
        <time>2023-07-11T08:08:44.000Z</time>
      </trkpt>
      <trkpt lat="45.80754" lon="4.92034">
        <ele>175.51102</ele>
        <time>2023-07-11T08:08:45.000Z</time>
      </trkpt>
      <trkpt lat="45.80751" lon="4.92027">
        <ele>175.51443</ele>
        <time>2023-07-11T08:08:46.000Z</time>
      </trkpt>
      <trkpt lat="45.80747" lon="4.92019">
        <ele>175.50543</ele>
        <time>2023-07-11T08:08:47.000Z</time>
      </trkpt>
      <trkpt lat="45.80743" lon="4.92011">
        <ele>175.51053</ele>
        <time>2023-07-11T08:08:48.000Z</time>
      </trkpt>
      <trkpt lat="45.80741" lon="4.92003">
        <ele>175.49927</ele>
        <time>2023-07-11T08:08:49.000Z</time>
      </trkpt>
      <trkpt lat="45.80738" lon="4.91994">
        <ele>175.42677</ele>
        <time>2023-07-11T08:08:50.000Z</time>
      </trkpt>
      <trkpt lat="45.80736" lon="4.91985">
        <ele>175.30887</ele>
        <time>2023-07-11T08:08:51.000Z</time>
      </trkpt>
      <trkpt lat="45.80732" lon="4.91976">
        <ele>175.21671</ele>
        <time>2023-07-11T08:08:52.000Z</time>
      </trkpt>
      <trkpt lat="45.8073" lon="4.91968">
        <ele>175.15265</ele>
        <time>2023-07-11T08:08:53.000Z</time>
      </trkpt>
      <trkpt lat="45.80727" lon="4.9196">
        <ele>175.08965</ele>
        <time>2023-07-11T08:08:54.000Z</time>
      </trkpt>
      <trkpt lat="45.80723" lon="4.91953">
        <ele>175.02646</ele>
        <time>2023-07-11T08:08:55.000Z</time>
      </trkpt>
      <trkpt lat="45.8072" lon="4.91945">
        <ele>174.97488</ele>
        <time>2023-07-11T08:08:56.000Z</time>
      </trkpt>
      <trkpt lat="45.80716" lon="4.91937">
        <ele>174.87201</ele>
        <time>2023-07-11T08:08:57.000Z</time>
      </trkpt>
      <trkpt lat="45.80713" lon="4.9193">
        <ele>174.72563</ele>
        <time>2023-07-11T08:08:58.000Z</time>
      </trkpt>
      <trkpt lat="45.80711" lon="4.91921">
        <ele>174.57942</ele>
        <time>2023-07-11T08:08:59.000Z</time>
      </trkpt>
      <trkpt lat="45.80708" lon="4.91915">
        <ele>174.33139</ele>
        <time>2023-07-11T08:09:00.000Z</time>
      </trkpt>
      <trkpt lat="45.80705" lon="4.91908">
        <ele>174.1019</ele>
        <time>2023-07-11T08:09:01.000Z</time>
      </trkpt>
      <trkpt lat="45.80702" lon="4.91899">
        <ele>173.85141</ele>
        <time>2023-07-11T08:09:02.000Z</time>
      </trkpt>
      <trkpt lat="45.80698" lon="4.91892">
        <ele>173.75194</ele>
        <time>2023-07-11T08:09:03.000Z</time>
      </trkpt>
      <trkpt lat="45.80696" lon="4.91883">
        <ele>173.62041</ele>
        <time>2023-07-11T08:09:04.000Z</time>
      </trkpt>
      <trkpt lat="45.80693" lon="4.91875">
        <ele>173.38911</ele>
        <time>2023-07-11T08:09:05.000Z</time>
      </trkpt>
      <trkpt lat="45.8069" lon="4.91868">
        <ele>173.15611</ele>
        <time>2023-07-11T08:09:06.000Z</time>
      </trkpt>
      <trkpt lat="45.80686" lon="4.91861">
        <ele>172.98776</ele>
        <time>2023-07-11T08:09:07.000Z</time>
      </trkpt>
      <trkpt lat="45.80684" lon="4.91853">
        <ele>172.80473</ele>
        <time>2023-07-11T08:09:08.000Z</time>
      </trkpt>
      <trkpt lat="45.80681" lon="4.91845">
        <ele>172.62839</ele>
        <time>2023-07-11T08:09:09.000Z</time>
      </trkpt>
      <trkpt lat="45.80678" lon="4.91838">
        <ele>172.53244</ele>
        <time>2023-07-11T08:09:10.000Z</time>
      </trkpt>
      <trkpt lat="45.80675" lon="4.9183">
        <ele>172.48441</ele>
        <time>2023-07-11T08:09:11.000Z</time>
      </trkpt>
      <trkpt lat="45.80672" lon="4.91823">
        <ele>172.40277</ele>
        <time>2023-07-11T08:09:12.000Z</time>
      </trkpt>
      <trkpt lat="45.80669" lon="4.91815">
        <ele>172.31425</ele>
        <time>2023-07-11T08:09:13.000Z</time>
      </trkpt>
      <trkpt lat="45.80667" lon="4.91808">
        <ele>172.20723</ele>
        <time>2023-07-11T08:09:14.000Z</time>
      </trkpt>
      <trkpt lat="45.80663" lon="4.918">
        <ele>172.09433</ele>
        <time>2023-07-11T08:09:15.000Z</time>
      </trkpt>
      <trkpt lat="45.8066" lon="4.91792">
        <ele>171.91936</ele>
        <time>2023-07-11T08:09:16.000Z</time>
      </trkpt>
      <trkpt lat="45.80657" lon="4.91785">
        <ele>171.74643</ele>
        <time>2023-07-11T08:09:17.000Z</time>
      </trkpt>
      <trkpt lat="45.80655" lon="4.91778">
        <ele>171.59062</ele>
        <time>2023-07-11T08:09:18.000Z</time>
      </trkpt>
      <trkpt lat="45.80652" lon="4.91772">
        <ele>171.45103</ele>
        <time>2023-07-11T08:09:19.000Z</time>
      </trkpt>
      <trkpt lat="45.8065" lon="4.91765">
        <ele>171.37636</ele>
        <time>2023-07-11T08:09:20.000Z</time>
      </trkpt>
      <trkpt lat="45.80646" lon="4.91756">
        <ele>171.28909</ele>
        <time>2023-07-11T08:09:21.000Z</time>
      </trkpt>
      <trkpt lat="45.80643" lon="4.91748">
        <ele>171.20967</ele>
        <time>2023-07-11T08:09:22.000Z</time>
      </trkpt>
      <trkpt lat="45.80639" lon="4.9174">
        <ele>171.11871</ele>
        <time>2023-07-11T08:09:23.000Z</time>
      </trkpt>
      <trkpt lat="45.80636" lon="4.91732">
        <ele>171.06836</ele>
        <time>2023-07-11T08:09:24.000Z</time>
      </trkpt>
      <trkpt lat="45.80632" lon="4.91725">
        <ele>171.03319</ele>
        <time>2023-07-11T08:09:25.000Z</time>
      </trkpt>
      <trkpt lat="45.80628" lon="4.91718">
        <ele>170.99344</ele>
        <time>2023-07-11T08:09:26.000Z</time>
      </trkpt>
      <trkpt lat="45.80626" lon="4.91711">
        <ele>170.92473</ele>
        <time>2023-07-11T08:09:27.000Z</time>
      </trkpt>
      <trkpt lat="45.80623" lon="4.91703">
        <ele>170.8694</ele>
        <time>2023-07-11T08:09:28.000Z</time>
      </trkpt>
      <trkpt lat="45.8062" lon="4.91695">
        <ele>170.81505</ele>
        <time>2023-07-11T08:09:29.000Z</time>
      </trkpt>
      <trkpt lat="45.80618" lon="4.91686">
        <ele>170.74336</ele>
        <time>2023-07-11T08:09:30.000Z</time>
      </trkpt>
      <trkpt lat="45.80614" lon="4.91678">
        <ele>170.72626</ele>
        <time>2023-07-11T08:09:31.000Z</time>
      </trkpt>
      <trkpt lat="45.80611" lon="4.91671">
        <ele>170.73212</ele>
        <time>2023-07-11T08:09:32.000Z</time>
      </trkpt>
      <trkpt lat="45.80608" lon="4.91664">
        <ele>170.73581</ele>
        <time>2023-07-11T08:09:33.000Z</time>
      </trkpt>
      <trkpt lat="45.80606" lon="4.91656">
        <ele>170.74612</ele>
        <time>2023-07-11T08:09:34.000Z</time>
      </trkpt>
      <trkpt lat="45.80603" lon="4.91647">
        <ele>170.79501</ele>
        <time>2023-07-11T08:09:35.000Z</time>
      </trkpt>
      <trkpt lat="45.80601" lon="4.91639">
        <ele>170.84053</ele>
        <time>2023-07-11T08:09:36.000Z</time>
      </trkpt>
      <trkpt lat="45.80598" lon="4.91631">
        <ele>170.93086</ele>
        <time>2023-07-11T08:09:37.000Z</time>
      </trkpt>
      <trkpt lat="45.80595" lon="4.91623">
        <ele>171.04526</ele>
        <time>2023-07-11T08:09:38.000Z</time>
      </trkpt>
      <trkpt lat="45.80593" lon="4.91616">
        <ele>171.16293</ele>
        <time>2023-07-11T08:09:39.000Z</time>
      </trkpt>
      <trkpt lat="45.8059" lon="4.91608">
        <ele>171.31557</ele>
        <time>2023-07-11T08:09:40.000Z</time>
      </trkpt>
      <trkpt lat="45.80588" lon="4.91599">
        <ele>171.41019</ele>
        <time>2023-07-11T08:09:41.000Z</time>
      </trkpt>
      <trkpt lat="45.80585" lon="4.91591">
        <ele>171.5173</ele>
        <time>2023-07-11T08:09:42.000Z</time>
      </trkpt>
      <trkpt lat="45.80582" lon="4.91584">
        <ele>171.61046</ele>
        <time>2023-07-11T08:09:43.000Z</time>
      </trkpt>
      <trkpt lat="45.8058" lon="4.91575">
        <ele>171.68275</ele>
        <time>2023-07-11T08:09:44.000Z</time>
      </trkpt>
      <trkpt lat="45.80577" lon="4.91567">
        <ele>171.75259</ele>
        <time>2023-07-11T08:09:45.000Z</time>
      </trkpt>
      <trkpt lat="45.80576" lon="4.9156">
        <ele>171.86787</ele>
        <time>2023-07-11T08:09:46.000Z</time>
      </trkpt>
      <trkpt lat="45.80574" lon="4.91552">
        <ele>171.99641</ele>
        <time>2023-07-11T08:09:47.000Z</time>
      </trkpt>
      <trkpt lat="45.80572" lon="4.91543">
        <ele>172.12781</ele>
        <time>2023-07-11T08:09:48.000Z</time>
      </trkpt>
      <trkpt lat="45.8057" lon="4.91536">
        <ele>172.28882</ele>
        <time>2023-07-11T08:09:49.000Z</time>
      </trkpt>
      <trkpt lat="45.80567" lon="4.91528">
        <ele>172.46025</ele>
        <time>2023-07-11T08:09:50.000Z</time>
      </trkpt>
      <trkpt lat="45.80565" lon="4.9152">
        <ele>172.58279</ele>
        <time>2023-07-11T08:09:51.000Z</time>
      </trkpt>
      <trkpt lat="45.80562" lon="4.91511">
        <ele>172.69608</ele>
        <time>2023-07-11T08:09:52.000Z</time>
      </trkpt>
      <trkpt lat="45.80559" lon="4.91502">
        <ele>172.77933</ele>
        <time>2023-07-11T08:09:53.000Z</time>
      </trkpt>
      <trkpt lat="45.80557" lon="4.91495">
        <ele>172.87282</ele>
        <time>2023-07-11T08:09:54.000Z</time>
      </trkpt>
      <trkpt lat="45.80556" lon="4.91487">
        <ele>172.91451</ele>
        <time>2023-07-11T08:09:55.000Z</time>
      </trkpt>
      <trkpt lat="45.80554" lon="4.91479">
        <ele>172.97307</ele>
        <time>2023-07-11T08:09:56.000Z</time>
      </trkpt>
      <trkpt lat="45.80552" lon="4.9147">
        <ele>173.01657</ele>
        <time>2023-07-11T08:09:57.000Z</time>
      </trkpt>
      <trkpt lat="45.80551" lon="4.91462">
        <ele>173.08105</ele>
        <time>2023-07-11T08:09:58.000Z</time>
      </trkpt>
      <trkpt lat="45.80549" lon="4.91454">
        <ele>173.12961</ele>
        <time>2023-07-11T08:09:59.000Z</time>
      </trkpt>
      <trkpt lat="45.80548" lon="4.91446">
        <ele>173.16345</ele>
        <time>2023-07-11T08:10:00.000Z</time>
      </trkpt>
      <trkpt lat="45.80546" lon="4.91439">
        <ele>173.24216</ele>
        <time>2023-07-11T08:10:01.000Z</time>
      </trkpt>
      <trkpt lat="45.80544" lon="4.9143">
        <ele>173.32187</ele>
        <time>2023-07-11T08:10:02.000Z</time>
      </trkpt>
      <trkpt lat="45.80543" lon="4.91423">
        <ele>173.36046</ele>
        <time>2023-07-11T08:10:03.000Z</time>
      </trkpt>
      <trkpt lat="45.80541" lon="4.91415">
        <ele>173.39931</ele>
        <time>2023-07-11T08:10:04.000Z</time>
      </trkpt>
      <trkpt lat="45.8054" lon="4.91406">
        <ele>173.4082</ele>
        <time>2023-07-11T08:10:05.000Z</time>
      </trkpt>
      <trkpt lat="45.80537" lon="4.91398">
        <ele>173.39803</ele>
        <time>2023-07-11T08:10:06.000Z</time>
      </trkpt>
      <trkpt lat="45.80535" lon="4.91389">
        <ele>173.3757</ele>
        <time>2023-07-11T08:10:07.000Z</time>
      </trkpt>
      <trkpt lat="45.80534" lon="4.91379">
        <ele>173.35962</ele>
        <time>2023-07-11T08:10:08.000Z</time>
      </trkpt>
      <trkpt lat="45.80532" lon="4.9137">
        <ele>173.33597</ele>
        <time>2023-07-11T08:10:09.000Z</time>
      </trkpt>
      <trkpt lat="45.8053" lon="4.91361">
        <ele>173.31671</ele>
        <time>2023-07-11T08:10:10.000Z</time>
      </trkpt>
      <trkpt lat="45.80529" lon="4.91353">
        <ele>173.29179</ele>
        <time>2023-07-11T08:10:11.000Z</time>
      </trkpt>
      <trkpt lat="45.80528" lon="4.91344">
        <ele>173.30182</ele>
        <time>2023-07-11T08:10:12.000Z</time>
      </trkpt>
      <trkpt lat="45.80526" lon="4.91335">
        <ele>173.34235</ele>
        <time>2023-07-11T08:10:13.000Z</time>
      </trkpt>
      <trkpt lat="45.80526" lon="4.91326">
        <ele>173.37488</ele>
        <time>2023-07-11T08:10:14.000Z</time>
      </trkpt>
      <trkpt lat="45.80524" lon="4.91317">
        <ele>173.44453</ele>
        <time>2023-07-11T08:10:15.000Z</time>
      </trkpt>
      <trkpt lat="45.80523" lon="4.91309">
        <ele>173.50281</ele>
        <time>2023-07-11T08:10:16.000Z</time>
      </trkpt>
      <trkpt lat="45.80522" lon="4.913">
        <ele>173.53596</ele>
        <time>2023-07-11T08:10:17.000Z</time>
      </trkpt>
      <trkpt lat="45.8052" lon="4.91291">
        <ele>173.57072</ele>
        <time>2023-07-11T08:10:18.000Z</time>
      </trkpt>
      <trkpt lat="45.80519" lon="4.91282">
        <ele>173.64072</ele>
        <time>2023-07-11T08:10:19.000Z</time>
      </trkpt>
      <trkpt lat="45.80519" lon="4.91274">
        <ele>173.72539</ele>
        <time>2023-07-11T08:10:20.000Z</time>
      </trkpt>
      <trkpt lat="45.80517" lon="4.91265">
        <ele>173.87234</ele>
        <time>2023-07-11T08:10:21.000Z</time>
      </trkpt>
      <trkpt lat="45.80516" lon="4.91255">
        <ele>174.02585</ele>
        <time>2023-07-11T08:10:22.000Z</time>
      </trkpt>
      <trkpt lat="45.80514" lon="4.91248">
        <ele>174.21774</ele>
        <time>2023-07-11T08:10:23.000Z</time>
      </trkpt>
      <trkpt lat="45.80513" lon="4.9124">
        <ele>174.42786</ele>
        <time>2023-07-11T08:10:24.000Z</time>
      </trkpt>
      <trkpt lat="45.80512" lon="4.91232">
        <ele>174.63475</ele>
        <time>2023-07-11T08:10:25.000Z</time>
      </trkpt>
      <trkpt lat="45.80512" lon="4.91224">
        <ele>174.84439</ele>
        <time>2023-07-11T08:10:26.000Z</time>
      </trkpt>
      <trkpt lat="45.80512" lon="4.91215">
        <ele>175.03854</ele>
        <time>2023-07-11T08:10:27.000Z</time>
      </trkpt>
      <trkpt lat="45.80512" lon="4.91206">
        <ele>175.23863</ele>
        <time>2023-07-11T08:10:28.000Z</time>
      </trkpt>
      <trkpt lat="45.80511" lon="4.91198">
        <ele>175.43161</ele>
        <time>2023-07-11T08:10:29.000Z</time>
      </trkpt>
      <trkpt lat="45.8051" lon="4.91189">
        <ele>175.63701</ele>
        <time>2023-07-11T08:10:30.000Z</time>
      </trkpt>
      <trkpt lat="45.8051" lon="4.91179">
        <ele>175.84683</ele>
        <time>2023-07-11T08:10:31.000Z</time>
      </trkpt>
      <trkpt lat="45.8051" lon="4.9117">
        <ele>176.02109</ele>
        <time>2023-07-11T08:10:32.000Z</time>
      </trkpt>
      <trkpt lat="45.8051" lon="4.91161">
        <ele>176.17897</ele>
        <time>2023-07-11T08:10:33.000Z</time>
      </trkpt>
      <trkpt lat="45.80509" lon="4.91153">
        <ele>176.30853</ele>
        <time>2023-07-11T08:10:34.000Z</time>
      </trkpt>
      <trkpt lat="45.80509" lon="4.91143">
        <ele>176.40237</ele>
        <time>2023-07-11T08:10:35.000Z</time>
      </trkpt>
      <trkpt lat="45.80508" lon="4.91136">
        <ele>176.53177</ele>
        <time>2023-07-11T08:10:36.000Z</time>
      </trkpt>
      <trkpt lat="45.80507" lon="4.91126">
        <ele>176.65424</ele>
        <time>2023-07-11T08:10:37.000Z</time>
      </trkpt>
      <trkpt lat="45.80507" lon="4.91117">
        <ele>176.7924</ele>
        <time>2023-07-11T08:10:38.000Z</time>
      </trkpt>
      <trkpt lat="45.80507" lon="4.91108">
        <ele>176.93217</ele>
        <time>2023-07-11T08:10:39.000Z</time>
      </trkpt>
      <trkpt lat="45.80506" lon="4.91099">
        <ele>177.04086</ele>
        <time>2023-07-11T08:10:40.000Z</time>
      </trkpt>
      <trkpt lat="45.80505" lon="4.91089">
        <ele>177.09496</ele>
        <time>2023-07-11T08:10:41.000Z</time>
      </trkpt>
      <trkpt lat="45.80504" lon="4.9108">
        <ele>177.11481</ele>
        <time>2023-07-11T08:10:42.000Z</time>
      </trkpt>
      <trkpt lat="45.80504" lon="4.91072">
        <ele>177.12616</ele>
        <time>2023-07-11T08:10:43.000Z</time>
      </trkpt>
      <trkpt lat="45.80505" lon="4.91064">
        <ele>177.10883</ele>
        <time>2023-07-11T08:10:44.000Z</time>
      </trkpt>
      <trkpt lat="45.80505" lon="4.91055">
        <ele>177.08551</ele>
        <time>2023-07-11T08:10:45.000Z</time>
      </trkpt>
      <trkpt lat="45.80504" lon="4.91047">
        <ele>177.0414</ele>
        <time>2023-07-11T08:10:46.000Z</time>
      </trkpt>
      <trkpt lat="45.80504" lon="4.91038">
        <ele>177.00064</ele>
        <time>2023-07-11T08:10:47.000Z</time>
      </trkpt>
      <trkpt lat="45.80503" lon="4.91031">
        <ele>176.95279</ele>
        <time>2023-07-11T08:10:48.000Z</time>
      </trkpt>
      <trkpt lat="45.80504" lon="4.91022">
        <ele>176.91325</ele>
        <time>2023-07-11T08:10:49.000Z</time>
      </trkpt>
      <trkpt lat="45.80503" lon="4.91013">
        <ele>176.85204</ele>
        <time>2023-07-11T08:10:50.000Z</time>
      </trkpt>
      <trkpt lat="45.80503" lon="4.91004">
        <ele>176.75766</ele>
        <time>2023-07-11T08:10:51.000Z</time>
      </trkpt>
      <trkpt lat="45.80503" lon="4.90996">
        <ele>176.66058</ele>
        <time>2023-07-11T08:10:52.000Z</time>
      </trkpt>
      <trkpt lat="45.80502" lon="4.90987">
        <ele>176.53238</ele>
        <time>2023-07-11T08:10:53.000Z</time>
      </trkpt>
      <trkpt lat="45.80503" lon="4.90979">
        <ele>176.42433</ele>
        <time>2023-07-11T08:10:54.000Z</time>
      </trkpt>
      <trkpt lat="45.80503" lon="4.90971">
        <ele>176.33911</ele>
        <time>2023-07-11T08:10:55.000Z</time>
      </trkpt>
      <trkpt lat="45.80503" lon="4.90962">
        <ele>176.20212</ele>
        <time>2023-07-11T08:10:56.000Z</time>
      </trkpt>
      <trkpt lat="45.80503" lon="4.90954">
        <ele>176.09225</ele>
        <time>2023-07-11T08:10:57.000Z</time>
      </trkpt>
      <trkpt lat="45.80504" lon="4.90946">
        <ele>175.95273</ele>
        <time>2023-07-11T08:10:58.000Z</time>
      </trkpt>
      <trkpt lat="45.80506" lon="4.90938">
        <ele>175.78641</ele>
        <time>2023-07-11T08:10:59.000Z</time>
      </trkpt>
      <trkpt lat="45.80506" lon="4.90928">
        <ele>175.65233</ele>
        <time>2023-07-11T08:11:00.000Z</time>
      </trkpt>
      <trkpt lat="45.80506" lon="4.90919">
        <ele>175.52699</ele>
        <time>2023-07-11T08:11:01.000Z</time>
      </trkpt>
      <trkpt lat="45.80507" lon="4.90909">
        <ele>175.45908</ele>
        <time>2023-07-11T08:11:02.000Z</time>
      </trkpt>
      <trkpt lat="45.80508" lon="4.90901">
        <ele>175.36568</ele>
        <time>2023-07-11T08:11:03.000Z</time>
      </trkpt>
      <trkpt lat="45.80508" lon="4.90891">
        <ele>175.28801</ele>
        <time>2023-07-11T08:11:04.000Z</time>
      </trkpt>
      <trkpt lat="45.80508" lon="4.90883">
        <ele>175.2357</ele>
        <time>2023-07-11T08:11:05.000Z</time>
      </trkpt>
      <trkpt lat="45.80509" lon="4.90874">
        <ele>175.18236</ele>
        <time>2023-07-11T08:11:06.000Z</time>
      </trkpt>
      <trkpt lat="45.8051" lon="4.90865">
        <ele>175.1468</ele>
        <time>2023-07-11T08:11:07.000Z</time>
      </trkpt>
      <trkpt lat="45.8051" lon="4.90856">
        <ele>175.1218</ele>
        <time>2023-07-11T08:11:08.000Z</time>
      </trkpt>
      <trkpt lat="45.80511" lon="4.90847">
        <ele>175.08142</ele>
        <time>2023-07-11T08:11:09.000Z</time>
      </trkpt>
      <trkpt lat="45.80511" lon="4.90838">
        <ele>175.0719</ele>
        <time>2023-07-11T08:11:10.000Z</time>
      </trkpt>
      <trkpt lat="45.80512" lon="4.90828">
        <ele>175.0782</ele>
        <time>2023-07-11T08:11:11.000Z</time>
      </trkpt>
      <trkpt lat="45.80512" lon="4.90819">
        <ele>175.09586</ele>
        <time>2023-07-11T08:11:12.000Z</time>
      </trkpt>
      <trkpt lat="45.80513" lon="4.9081">
        <ele>175.13866</ele>
        <time>2023-07-11T08:11:13.000Z</time>
      </trkpt>
      <trkpt lat="45.80513" lon="4.90801">
        <ele>175.19881</ele>
        <time>2023-07-11T08:11:14.000Z</time>
      </trkpt>
      <trkpt lat="45.80514" lon="4.90793">
        <ele>175.25479</ele>
        <time>2023-07-11T08:11:15.000Z</time>
      </trkpt>
      <trkpt lat="45.80514" lon="4.90783">
        <ele>175.33817</ele>
        <time>2023-07-11T08:11:16.000Z</time>
      </trkpt>
      <trkpt lat="45.80515" lon="4.90774">
        <ele>175.39413</ele>
        <time>2023-07-11T08:11:17.000Z</time>
      </trkpt>
      <trkpt lat="45.80516" lon="4.90766">
        <ele>175.44942</ele>
        <time>2023-07-11T08:11:18.000Z</time>
      </trkpt>
      <trkpt lat="45.80516" lon="4.90757">
        <ele>175.52806</ele>
        <time>2023-07-11T08:11:19.000Z</time>
      </trkpt>
      <trkpt lat="45.80517" lon="4.90748">
        <ele>175.58244</ele>
        <time>2023-07-11T08:11:20.000Z</time>
      </trkpt>
      <trkpt lat="45.80517" lon="4.90739">
        <ele>175.62328</ele>
        <time>2023-07-11T08:11:21.000Z</time>
      </trkpt>
      <trkpt lat="45.80518" lon="4.9073">
        <ele>175.62108</ele>
        <time>2023-07-11T08:11:22.000Z</time>
      </trkpt>
      <trkpt lat="45.80518" lon="4.90721">
        <ele>175.67111</ele>
        <time>2023-07-11T08:11:23.000Z</time>
      </trkpt>
      <trkpt lat="45.80518" lon="4.90713">
        <ele>175.67787</ele>
        <time>2023-07-11T08:11:24.000Z</time>
      </trkpt>
      <trkpt lat="45.80518" lon="4.90703">
        <ele>175.6982</ele>
        <time>2023-07-11T08:11:25.000Z</time>
      </trkpt>
      <trkpt lat="45.80519" lon="4.90694">
        <ele>175.72505</ele>
        <time>2023-07-11T08:11:26.000Z</time>
      </trkpt>
      <trkpt lat="45.80519" lon="4.90686">
        <ele>175.75185</ele>
        <time>2023-07-11T08:11:27.000Z</time>
      </trkpt>
      <trkpt lat="45.8052" lon="4.90678">
        <ele>175.75833</ele>
        <time>2023-07-11T08:11:28.000Z</time>
      </trkpt>
      <trkpt lat="45.8052" lon="4.90668">
        <ele>175.77005</ele>
        <time>2023-07-11T08:11:29.000Z</time>
      </trkpt>
      <trkpt lat="45.80521" lon="4.90659">
        <ele>175.7005</ele>
        <time>2023-07-11T08:11:30.000Z</time>
      </trkpt>
      <trkpt lat="45.8052" lon="4.9065">
        <ele>175.62375</ele>
        <time>2023-07-11T08:11:31.000Z</time>
      </trkpt>
      <trkpt lat="45.8052" lon="4.90641">
        <ele>175.56007</ele>
        <time>2023-07-11T08:11:32.000Z</time>
      </trkpt>
      <trkpt lat="45.8052" lon="4.90632">
        <ele>175.49869</ele>
        <time>2023-07-11T08:11:33.000Z</time>
      </trkpt>
      <trkpt lat="45.8052" lon="4.90623">
        <ele>175.46004</ele>
        <time>2023-07-11T08:11:34.000Z</time>
      </trkpt>
      <trkpt lat="45.80521" lon="4.90614">
        <ele>175.40997</ele>
        <time>2023-07-11T08:11:35.000Z</time>
      </trkpt>
      <trkpt lat="45.80521" lon="4.90606">
        <ele>175.37418</ele>
        <time>2023-07-11T08:11:36.000Z</time>
      </trkpt>
      <trkpt lat="45.80521" lon="4.90597">
        <ele>175.36957</ele>
        <time>2023-07-11T08:11:37.000Z</time>
      </trkpt>
      <trkpt lat="45.80521" lon="4.90589">
        <ele>175.38467</ele>
        <time>2023-07-11T08:11:38.000Z</time>
      </trkpt>
      <trkpt lat="45.80521" lon="4.90579">
        <ele>175.39841</ele>
        <time>2023-07-11T08:11:39.000Z</time>
      </trkpt>
      <trkpt lat="45.80521" lon="4.9057">
        <ele>175.4462</ele>
        <time>2023-07-11T08:11:40.000Z</time>
      </trkpt>
      <trkpt lat="45.80521" lon="4.90561">
        <ele>175.47791</ele>
        <time>2023-07-11T08:11:41.000Z</time>
      </trkpt>
      <trkpt lat="45.80522" lon="4.90553">
        <ele>175.51845</ele>
        <time>2023-07-11T08:11:42.000Z</time>
      </trkpt>
      <trkpt lat="45.80523" lon="4.90544">
        <ele>175.54285</ele>
        <time>2023-07-11T08:11:43.000Z</time>
      </trkpt>
      <trkpt lat="45.80522" lon="4.90536">
        <ele>175.55698</ele>
        <time>2023-07-11T08:11:44.000Z</time>
      </trkpt>
      <trkpt lat="45.80523" lon="4.90527">
        <ele>175.57695</ele>
        <time>2023-07-11T08:11:45.000Z</time>
      </trkpt>
      <trkpt lat="45.80523" lon="4.90518">
        <ele>175.57401</ele>
        <time>2023-07-11T08:11:46.000Z</time>
      </trkpt>
      <trkpt lat="45.80524" lon="4.90509">
        <ele>175.61513</ele>
        <time>2023-07-11T08:11:47.000Z</time>
      </trkpt>
      <trkpt lat="45.80522" lon="4.90501">
        <ele>175.63762</ele>
        <time>2023-07-11T08:11:48.000Z</time>
      </trkpt>
      <trkpt lat="45.80522" lon="4.90492">
        <ele>175.63516</ele>
        <time>2023-07-11T08:11:49.000Z</time>
      </trkpt>
      <trkpt lat="45.80523" lon="4.90483">
        <ele>175.70145</ele>
        <time>2023-07-11T08:11:50.000Z</time>
      </trkpt>
      <trkpt lat="45.80523" lon="4.90473">
        <ele>175.78036</ele>
        <time>2023-07-11T08:11:51.000Z</time>
      </trkpt>
      <trkpt lat="45.80522" lon="4.90464">
        <ele>175.80901</ele>
        <time>2023-07-11T08:11:52.000Z</time>
      </trkpt>
      <trkpt lat="45.80521" lon="4.90455">
        <ele>175.84409</ele>
        <time>2023-07-11T08:11:53.000Z</time>
      </trkpt>
      <trkpt lat="45.8052" lon="4.90446">
        <ele>175.84076</ele>
        <time>2023-07-11T08:11:54.000Z</time>
      </trkpt>
      <trkpt lat="45.8052" lon="4.90439">
        <ele>175.86841</ele>
        <time>2023-07-11T08:11:55.000Z</time>
      </trkpt>
      <trkpt lat="45.80521" lon="4.9043">
        <ele>175.85635</ele>
        <time>2023-07-11T08:11:56.000Z</time>
      </trkpt>
      <trkpt lat="45.80521" lon="4.90421">
        <ele>175.86505</ele>
        <time>2023-07-11T08:11:57.000Z</time>
      </trkpt>
      <trkpt lat="45.80521" lon="4.90413">
        <ele>175.832</ele>
        <time>2023-07-11T08:11:58.000Z</time>
      </trkpt>
      <trkpt lat="45.80521" lon="4.90404">
        <ele>175.82089</ele>
        <time>2023-07-11T08:11:59.000Z</time>
      </trkpt>
      <trkpt lat="45.8052" lon="4.90396">
        <ele>175.80849</ele>
        <time>2023-07-11T08:12:00.000Z</time>
      </trkpt>
      <trkpt lat="45.8052" lon="4.90388">
        <ele>175.78824</ele>
        <time>2023-07-11T08:12:01.000Z</time>
      </trkpt>
      <trkpt lat="45.8052" lon="4.90378">
        <ele>175.73775</ele>
        <time>2023-07-11T08:12:02.000Z</time>
      </trkpt>
      <trkpt lat="45.80519" lon="4.9037">
        <ele>175.65919</ele>
        <time>2023-07-11T08:12:03.000Z</time>
      </trkpt>
      <trkpt lat="45.80519" lon="4.90361">
        <ele>175.61182</ele>
        <time>2023-07-11T08:12:04.000Z</time>
      </trkpt>
      <trkpt lat="45.80519" lon="4.90353">
        <ele>175.53592</ele>
        <time>2023-07-11T08:12:05.000Z</time>
      </trkpt>
      <trkpt lat="45.80519" lon="4.90345">
        <ele>175.47066</ele>
        <time>2023-07-11T08:12:06.000Z</time>
      </trkpt>
      <trkpt lat="45.80519" lon="4.90336">
        <ele>175.3027</ele>
        <time>2023-07-11T08:12:07.000Z</time>
      </trkpt>
      <trkpt lat="45.80518" lon="4.90327">
        <ele>175.12914</ele>
        <time>2023-07-11T08:12:08.000Z</time>
      </trkpt>
      <trkpt lat="45.80517" lon="4.90319">
        <ele>174.93295</ele>
        <time>2023-07-11T08:12:09.000Z</time>
      </trkpt>
      <trkpt lat="45.80516" lon="4.90311">
        <ele>174.7235</ele>
        <time>2023-07-11T08:12:10.000Z</time>
      </trkpt>
      <trkpt lat="45.80517" lon="4.90301">
        <ele>174.5182</ele>
        <time>2023-07-11T08:12:11.000Z</time>
      </trkpt>
      <trkpt lat="45.80516" lon="4.90293">
        <ele>174.33951</ele>
        <time>2023-07-11T08:12:12.000Z</time>
      </trkpt>
      <trkpt lat="45.80516" lon="4.90285">
        <ele>174.14734</ele>
        <time>2023-07-11T08:12:13.000Z</time>
      </trkpt>
      <trkpt lat="45.80516" lon="4.90275">
        <ele>173.97787</ele>
        <time>2023-07-11T08:12:14.000Z</time>
      </trkpt>
      <trkpt lat="45.80516" lon="4.90267">
        <ele>173.7924</ele>
        <time>2023-07-11T08:12:15.000Z</time>
      </trkpt>
      <trkpt lat="45.80516" lon="4.90258">
        <ele>173.64748</ele>
        <time>2023-07-11T08:12:16.000Z</time>
      </trkpt>
      <trkpt lat="45.80515" lon="4.9025">
        <ele>173.49477</ele>
        <time>2023-07-11T08:12:17.000Z</time>
      </trkpt>
      <trkpt lat="45.80515" lon="4.90241">
        <ele>173.36807</ele>
        <time>2023-07-11T08:12:18.000Z</time>
      </trkpt>
      <trkpt lat="45.80515" lon="4.90232">
        <ele>173.21214</ele>
        <time>2023-07-11T08:12:19.000Z</time>
      </trkpt>
      <trkpt lat="45.80514" lon="4.90224">
        <ele>173.02267</ele>
        <time>2023-07-11T08:12:20.000Z</time>
      </trkpt>
      <trkpt lat="45.80513" lon="4.90214">
        <ele>172.84349</ele>
        <time>2023-07-11T08:12:21.000Z</time>
      </trkpt>
      <trkpt lat="45.80512" lon="4.90205">
        <ele>172.67979</ele>
        <time>2023-07-11T08:12:22.000Z</time>
      </trkpt>
      <trkpt lat="45.80512" lon="4.90196">
        <ele>172.55606</ele>
        <time>2023-07-11T08:12:23.000Z</time>
      </trkpt>
      <trkpt lat="45.80512" lon="4.90189">
        <ele>172.45377</ele>
        <time>2023-07-11T08:12:24.000Z</time>
      </trkpt>
      <trkpt lat="45.80511" lon="4.9018">
        <ele>172.39558</ele>
        <time>2023-07-11T08:12:25.000Z</time>
      </trkpt>
      <trkpt lat="45.80511" lon="4.90171">
        <ele>172.35925</ele>
        <time>2023-07-11T08:12:26.000Z</time>
      </trkpt>
      <trkpt lat="45.8051" lon="4.90163">
        <ele>172.42294</ele>
        <time>2023-07-11T08:12:27.000Z</time>
      </trkpt>
      <trkpt lat="45.8051" lon="4.90154">
        <ele>172.51944</ele>
        <time>2023-07-11T08:12:28.000Z</time>
      </trkpt>
      <trkpt lat="45.80509" lon="4.90145">
        <ele>172.66354</ele>
        <time>2023-07-11T08:12:29.000Z</time>
      </trkpt>
      <trkpt lat="45.80509" lon="4.90137">
        <ele>172.78403</ele>
        <time>2023-07-11T08:12:30.000Z</time>
      </trkpt>
      <trkpt lat="45.80508" lon="4.90128">
        <ele>172.91028</ele>
        <time>2023-07-11T08:12:31.000Z</time>
      </trkpt>
      <trkpt lat="45.80508" lon="4.9012">
        <ele>173.03108</ele>
        <time>2023-07-11T08:12:32.000Z</time>
      </trkpt>
      <trkpt lat="45.80507" lon="4.90111">
        <ele>173.12682</ele>
        <time>2023-07-11T08:12:33.000Z</time>
      </trkpt>
      <trkpt lat="45.80506" lon="4.90102">
        <ele>173.23546</ele>
        <time>2023-07-11T08:12:34.000Z</time>
      </trkpt>
      <trkpt lat="45.80505" lon="4.90093">
        <ele>173.34738</ele>
        <time>2023-07-11T08:12:35.000Z</time>
      </trkpt>
      <trkpt lat="45.80505" lon="4.90084">
        <ele>173.40456</ele>
        <time>2023-07-11T08:12:36.000Z</time>
      </trkpt>
      <trkpt lat="45.80504" lon="4.90075">
        <ele>173.42645</ele>
        <time>2023-07-11T08:12:37.000Z</time>
      </trkpt>
      <trkpt lat="45.80503" lon="4.90066">
        <ele>173.4567</ele>
        <time>2023-07-11T08:12:38.000Z</time>
      </trkpt>
      <trkpt lat="45.80502" lon="4.90058">
        <ele>173.4545</ele>
        <time>2023-07-11T08:12:39.000Z</time>
      </trkpt>
      <trkpt lat="45.80501" lon="4.90048">
        <ele>173.44583</ele>
        <time>2023-07-11T08:12:40.000Z</time>
      </trkpt>
      <trkpt lat="45.80501" lon="4.9004">
        <ele>173.45018</ele>
        <time>2023-07-11T08:12:41.000Z</time>
      </trkpt>
      <trkpt lat="45.805" lon="4.90032">
        <ele>173.45596</ele>
        <time>2023-07-11T08:12:42.000Z</time>
      </trkpt>
      <trkpt lat="45.805" lon="4.90022">
        <ele>173.41061</ele>
        <time>2023-07-11T08:12:43.000Z</time>
      </trkpt>
      <trkpt lat="45.805" lon="4.90013">
        <ele>173.36583</ele>
        <time>2023-07-11T08:12:44.000Z</time>
      </trkpt>
      <trkpt lat="45.80499" lon="4.90004">
        <ele>173.26517</ele>
        <time>2023-07-11T08:12:45.000Z</time>
      </trkpt>
      <trkpt lat="45.80499" lon="4.89995">
        <ele>173.15489</ele>
        <time>2023-07-11T08:12:46.000Z</time>
      </trkpt>
      <trkpt lat="45.80498" lon="4.89988">
        <ele>172.98685</ele>
        <time>2023-07-11T08:12:47.000Z</time>
      </trkpt>
      <trkpt lat="45.80497" lon="4.89979">
        <ele>172.81967</ele>
        <time>2023-07-11T08:12:48.000Z</time>
      </trkpt>
      <trkpt lat="45.80496" lon="4.8997">
        <ele>172.67863</ele>
        <time>2023-07-11T08:12:49.000Z</time>
      </trkpt>
      <trkpt lat="45.80495" lon="4.89961">
        <ele>172.53609</ele>
        <time>2023-07-11T08:12:50.000Z</time>
      </trkpt>
      <trkpt lat="45.80494" lon="4.89952">
        <ele>172.38171</ele>
        <time>2023-07-11T08:12:51.000Z</time>
      </trkpt>
      <trkpt lat="45.80493" lon="4.89943">
        <ele>172.24557</ele>
        <time>2023-07-11T08:12:52.000Z</time>
      </trkpt>
      <trkpt lat="45.80492" lon="4.89936">
        <ele>172.18832</ele>
        <time>2023-07-11T08:12:53.000Z</time>
      </trkpt>
      <trkpt lat="45.80491" lon="4.89928">
        <ele>172.11368</ele>
        <time>2023-07-11T08:12:54.000Z</time>
      </trkpt>
      <trkpt lat="45.8049" lon="4.89918">
        <ele>172.02879</ele>
        <time>2023-07-11T08:12:55.000Z</time>
      </trkpt>
      <trkpt lat="45.80489" lon="4.8991">
        <ele>171.9521</ele>
        <time>2023-07-11T08:12:56.000Z</time>
      </trkpt>
      <trkpt lat="45.80489" lon="4.899">
        <ele>171.87393</ele>
        <time>2023-07-11T08:12:57.000Z</time>
      </trkpt>
      <trkpt lat="45.80489" lon="4.89893">
        <ele>171.77927</ele>
        <time>2023-07-11T08:12:58.000Z</time>
      </trkpt>
      <trkpt lat="45.80488" lon="4.89884">
        <ele>171.70142</ele>
        <time>2023-07-11T08:12:59.000Z</time>
      </trkpt>
      <trkpt lat="45.80486" lon="4.89876">
        <ele>171.68117</ele>
        <time>2023-07-11T08:13:00.000Z</time>
      </trkpt>
      <trkpt lat="45.80485" lon="4.89868">
        <ele>171.6615</ele>
        <time>2023-07-11T08:13:01.000Z</time>
      </trkpt>
      <trkpt lat="45.80484" lon="4.89859">
        <ele>171.64972</ele>
        <time>2023-07-11T08:13:02.000Z</time>
      </trkpt>
      <trkpt lat="45.80484" lon="4.89849">
        <ele>171.66922</ele>
        <time>2023-07-11T08:13:03.000Z</time>
      </trkpt>
      <trkpt lat="45.80483" lon="4.8984">
        <ele>171.65652</ele>
        <time>2023-07-11T08:13:04.000Z</time>
      </trkpt>
      <trkpt lat="45.80482" lon="4.89831">
        <ele>171.66095</ele>
        <time>2023-07-11T08:13:05.000Z</time>
      </trkpt>
      <trkpt lat="45.80481" lon="4.89823">
        <ele>171.65085</ele>
        <time>2023-07-11T08:13:06.000Z</time>
      </trkpt>
      <trkpt lat="45.80479" lon="4.89816">
        <ele>171.68597</ele>
        <time>2023-07-11T08:13:07.000Z</time>
      </trkpt>
      <trkpt lat="45.80478" lon="4.89808">
        <ele>171.71852</ele>
        <time>2023-07-11T08:13:08.000Z</time>
      </trkpt>
      <trkpt lat="45.80477" lon="4.898">
        <ele>171.7402</ele>
        <time>2023-07-11T08:13:09.000Z</time>
      </trkpt>
      <trkpt lat="45.80476" lon="4.89792">
        <ele>171.79706</ele>
        <time>2023-07-11T08:13:10.000Z</time>
      </trkpt>
      <trkpt lat="45.80474" lon="4.89783">
        <ele>171.85225</ele>
        <time>2023-07-11T08:13:11.000Z</time>
      </trkpt>
      <trkpt lat="45.80472" lon="4.89774">
        <ele>171.90311</ele>
        <time>2023-07-11T08:13:12.000Z</time>
      </trkpt>
      <trkpt lat="45.80471" lon="4.89766">
        <ele>171.94215</ele>
        <time>2023-07-11T08:13:13.000Z</time>
      </trkpt>
      <trkpt lat="45.8047" lon="4.89758">
        <ele>171.99522</ele>
        <time>2023-07-11T08:13:14.000Z</time>
      </trkpt>
      <trkpt lat="45.8047" lon="4.89749">
        <ele>172.06049</ele>
        <time>2023-07-11T08:13:15.000Z</time>
      </trkpt>
      <trkpt lat="45.80468" lon="4.89742">
        <ele>172.15874</ele>
        <time>2023-07-11T08:13:16.000Z</time>
      </trkpt>
      <trkpt lat="45.80467" lon="4.89734">
        <ele>172.27786</ele>
        <time>2023-07-11T08:13:17.000Z</time>
      </trkpt>
      <trkpt lat="45.80466" lon="4.89725">
        <ele>172.42349</ele>
        <time>2023-07-11T08:13:18.000Z</time>
      </trkpt>
      <trkpt lat="45.80465" lon="4.89715">
        <ele>172.56259</ele>
        <time>2023-07-11T08:13:19.000Z</time>
      </trkpt>
      <trkpt lat="45.80462" lon="4.89707">
        <ele>172.63094</ele>
        <time>2023-07-11T08:13:20.000Z</time>
      </trkpt>
      <trkpt lat="45.8046" lon="4.89698">
        <ele>172.71095</ele>
        <time>2023-07-11T08:13:21.000Z</time>
      </trkpt>
      <trkpt lat="45.80459" lon="4.8969">
        <ele>172.78227</ele>
        <time>2023-07-11T08:13:22.000Z</time>
      </trkpt>
      <trkpt lat="45.80458" lon="4.89681">
        <ele>172.86494</ele>
        <time>2023-07-11T08:13:23.000Z</time>
      </trkpt>
      <trkpt lat="45.80456" lon="4.89672">
        <ele>172.968</ele>
        <time>2023-07-11T08:13:24.000Z</time>
      </trkpt>
      <trkpt lat="45.80456" lon="4.89663">
        <ele>173.09888</ele>
        <time>2023-07-11T08:13:25.000Z</time>
      </trkpt>
      <trkpt lat="45.80454" lon="4.89655">
        <ele>173.24486</ele>
        <time>2023-07-11T08:13:26.000Z</time>
      </trkpt>
      <trkpt lat="45.80453" lon="4.89646">
        <ele>173.34274</ele>
        <time>2023-07-11T08:13:27.000Z</time>
      </trkpt>
      <trkpt lat="45.80452" lon="4.89638">
        <ele>173.45485</ele>
        <time>2023-07-11T08:13:28.000Z</time>
      </trkpt>
      <trkpt lat="45.8045" lon="4.89629">
        <ele>173.5589</ele>
        <time>2023-07-11T08:13:29.000Z</time>
      </trkpt>
      <trkpt lat="45.80448" lon="4.8962">
        <ele>173.66219</ele>
        <time>2023-07-11T08:13:30.000Z</time>
      </trkpt>
      <trkpt lat="45.80447" lon="4.89612">
        <ele>173.77907</ele>
        <time>2023-07-11T08:13:31.000Z</time>
      </trkpt>
      <trkpt lat="45.80446" lon="4.89602">
        <ele>173.87759</ele>
        <time>2023-07-11T08:13:32.000Z</time>
      </trkpt>
      <trkpt lat="45.80445" lon="4.89594">
        <ele>173.94307</ele>
        <time>2023-07-11T08:13:33.000Z</time>
      </trkpt>
      <trkpt lat="45.80443" lon="4.89586">
        <ele>173.98111</ele>
        <time>2023-07-11T08:13:34.000Z</time>
      </trkpt>
      <trkpt lat="45.80442" lon="4.89577">
        <ele>173.98375</ele>
        <time>2023-07-11T08:13:35.000Z</time>
      </trkpt>
      <trkpt lat="45.8044" lon="4.89569">
        <ele>173.95102</ele>
        <time>2023-07-11T08:13:36.000Z</time>
      </trkpt>
      <trkpt lat="45.80439" lon="4.89559">
        <ele>173.91006</ele>
        <time>2023-07-11T08:13:37.000Z</time>
      </trkpt>
      <trkpt lat="45.80438" lon="4.89551">
        <ele>173.87463</ele>
        <time>2023-07-11T08:13:38.000Z</time>
      </trkpt>
      <trkpt lat="45.80436" lon="4.89542">
        <ele>173.83769</ele>
        <time>2023-07-11T08:13:39.000Z</time>
      </trkpt>
      <trkpt lat="45.80435" lon="4.89533">
        <ele>173.84615</ele>
        <time>2023-07-11T08:13:40.000Z</time>
      </trkpt>
      <trkpt lat="45.80433" lon="4.89525">
        <ele>173.81708</ele>
        <time>2023-07-11T08:13:41.000Z</time>
      </trkpt>
      <trkpt lat="45.80431" lon="4.89517">
        <ele>173.8038</ele>
        <time>2023-07-11T08:13:42.000Z</time>
      </trkpt>
      <trkpt lat="45.80429" lon="4.89509">
        <ele>173.78304</ele>
        <time>2023-07-11T08:13:43.000Z</time>
      </trkpt>
      <trkpt lat="45.80426" lon="4.895">
        <ele>173.77136</ele>
        <time>2023-07-11T08:13:44.000Z</time>
      </trkpt>
      <trkpt lat="45.80425" lon="4.89491">
        <ele>173.7459</ele>
        <time>2023-07-11T08:13:45.000Z</time>
      </trkpt>
      <trkpt lat="45.80423" lon="4.89482">
        <ele>173.70999</ele>
        <time>2023-07-11T08:13:46.000Z</time>
      </trkpt>
      <trkpt lat="45.80421" lon="4.89474">
        <ele>173.69327</ele>
        <time>2023-07-11T08:13:47.000Z</time>
      </trkpt>
      <trkpt lat="45.80419" lon="4.89466">
        <ele>173.66582</ele>
        <time>2023-07-11T08:13:48.000Z</time>
      </trkpt>
      <trkpt lat="45.80417" lon="4.89457">
        <ele>173.66524</ele>
        <time>2023-07-11T08:13:49.000Z</time>
      </trkpt>
      <trkpt lat="45.80416" lon="4.89448">
        <ele>173.66118</ele>
        <time>2023-07-11T08:13:50.000Z</time>
      </trkpt>
      <trkpt lat="45.80414" lon="4.89439">
        <ele>173.65822</ele>
        <time>2023-07-11T08:13:51.000Z</time>
      </trkpt>
      <trkpt lat="45.80413" lon="4.89431">
        <ele>173.66295</ele>
        <time>2023-07-11T08:13:52.000Z</time>
      </trkpt>
      <trkpt lat="45.80411" lon="4.89422">
        <ele>173.66599</ele>
        <time>2023-07-11T08:13:53.000Z</time>
      </trkpt>
      <trkpt lat="45.80409" lon="4.89414">
        <ele>173.67429</ele>
        <time>2023-07-11T08:13:54.000Z</time>
      </trkpt>
      <trkpt lat="45.80408" lon="4.89406">
        <ele>173.7196</ele>
        <time>2023-07-11T08:13:55.000Z</time>
      </trkpt>
      <trkpt lat="45.80406" lon="4.89398">
        <ele>173.75621</ele>
        <time>2023-07-11T08:13:56.000Z</time>
      </trkpt>
      <trkpt lat="45.80405" lon="4.89389">
        <ele>173.80453</ele>
        <time>2023-07-11T08:13:57.000Z</time>
      </trkpt>
      <trkpt lat="45.80404" lon="4.8938">
        <ele>173.86075</ele>
        <time>2023-07-11T08:13:58.000Z</time>
      </trkpt>
      <trkpt lat="45.80401" lon="4.89372">
        <ele>173.90997</ele>
        <time>2023-07-11T08:13:59.000Z</time>
      </trkpt>
      <trkpt lat="45.80399" lon="4.89365">
        <ele>173.95981</ele>
        <time>2023-07-11T08:14:00.000Z</time>
      </trkpt>
      <trkpt lat="45.80397" lon="4.89355">
        <ele>174.02783</ele>
        <time>2023-07-11T08:14:01.000Z</time>
      </trkpt>
      <trkpt lat="45.80395" lon="4.89347">
        <ele>174.10324</ele>
        <time>2023-07-11T08:14:02.000Z</time>
      </trkpt>
      <trkpt lat="45.80393" lon="4.89338">
        <ele>174.15276</ele>
        <time>2023-07-11T08:14:03.000Z</time>
      </trkpt>
      <trkpt lat="45.80391" lon="4.8933">
        <ele>174.19928</ele>
        <time>2023-07-11T08:14:04.000Z</time>
      </trkpt>
      <trkpt lat="45.80389" lon="4.89321">
        <ele>174.26047</ele>
        <time>2023-07-11T08:14:05.000Z</time>
      </trkpt>
      <trkpt lat="45.80386" lon="4.89313">
        <ele>174.33591</ele>
        <time>2023-07-11T08:14:06.000Z</time>
      </trkpt>
      <trkpt lat="45.80385" lon="4.89304">
        <ele>174.40689</ele>
        <time>2023-07-11T08:14:07.000Z</time>
      </trkpt>
      <trkpt lat="45.80383" lon="4.89296">
        <ele>174.44781</ele>
        <time>2023-07-11T08:14:08.000Z</time>
      </trkpt>
      <trkpt lat="45.80381" lon="4.89288">
        <ele>174.45438</ele>
        <time>2023-07-11T08:14:09.000Z</time>
      </trkpt>
      <trkpt lat="45.8038" lon="4.8928">
        <ele>174.45134</ele>
        <time>2023-07-11T08:14:10.000Z</time>
      </trkpt>
      <trkpt lat="45.80378" lon="4.89271">
        <ele>174.41243</ele>
        <time>2023-07-11T08:14:11.000Z</time>
      </trkpt>
      <trkpt lat="45.80376" lon="4.89263">
        <ele>174.40309</ele>
        <time>2023-07-11T08:14:12.000Z</time>
      </trkpt>
      <trkpt lat="45.80374" lon="4.89255">
        <ele>174.39351</ele>
        <time>2023-07-11T08:14:13.000Z</time>
      </trkpt>
      <trkpt lat="45.80373" lon="4.89247">
        <ele>174.40352</ele>
        <time>2023-07-11T08:14:14.000Z</time>
      </trkpt>
      <trkpt lat="45.80371" lon="4.89238">
        <ele>174.41167</ele>
        <time>2023-07-11T08:14:15.000Z</time>
      </trkpt>
      <trkpt lat="45.8037" lon="4.8923">
        <ele>174.46532</ele>
        <time>2023-07-11T08:14:16.000Z</time>
      </trkpt>
      <trkpt lat="45.80368" lon="4.89222">
        <ele>174.51967</ele>
        <time>2023-07-11T08:14:17.000Z</time>
      </trkpt>
      <trkpt lat="45.80366" lon="4.89214">
        <ele>174.5531</ele>
        <time>2023-07-11T08:14:18.000Z</time>
      </trkpt>
      <trkpt lat="45.80364" lon="4.89206">
        <ele>174.61063</ele>
        <time>2023-07-11T08:14:19.000Z</time>
      </trkpt>
      <trkpt lat="45.80362" lon="4.89199">
        <ele>174.63135</ele>
        <time>2023-07-11T08:14:20.000Z</time>
      </trkpt>
      <trkpt lat="45.8036" lon="4.89192">
        <ele>174.64696</ele>
        <time>2023-07-11T08:14:21.000Z</time>
      </trkpt>
      <trkpt lat="45.80358" lon="4.89185">
        <ele>174.6404</ele>
        <time>2023-07-11T08:14:22.000Z</time>
      </trkpt>
      <trkpt lat="45.80356" lon="4.89177">
        <ele>174.6496</ele>
        <time>2023-07-11T08:14:23.000Z</time>
      </trkpt>
      <trkpt lat="45.80354" lon="4.8917">
        <ele>174.63525</ele>
        <time>2023-07-11T08:14:24.000Z</time>
      </trkpt>
      <trkpt lat="45.80352" lon="4.89162">
        <ele>174.58966</ele>
        <time>2023-07-11T08:14:25.000Z</time>
      </trkpt>
      <trkpt lat="45.80349" lon="4.89153">
        <ele>174.5231</ele>
        <time>2023-07-11T08:14:26.000Z</time>
      </trkpt>
      <trkpt lat="45.80346" lon="4.89144">
        <ele>174.45433</ele>
        <time>2023-07-11T08:14:27.000Z</time>
      </trkpt>
      <trkpt lat="45.80344" lon="4.89136">
        <ele>174.39761</ele>
        <time>2023-07-11T08:14:28.000Z</time>
      </trkpt>
      <trkpt lat="45.80342" lon="4.89128">
        <ele>174.34227</ele>
        <time>2023-07-11T08:14:29.000Z</time>
      </trkpt>
      <trkpt lat="45.80339" lon="4.89119">
        <ele>174.28236</ele>
        <time>2023-07-11T08:14:30.000Z</time>
      </trkpt>
      <trkpt lat="45.80337" lon="4.89111">
        <ele>174.22455</ele>
        <time>2023-07-11T08:14:31.000Z</time>
      </trkpt>
      <trkpt lat="45.80336" lon="4.89102">
        <ele>174.15317</ele>
        <time>2023-07-11T08:14:32.000Z</time>
      </trkpt>
      <trkpt lat="45.80333" lon="4.89095">
        <ele>174.06163</ele>
        <time>2023-07-11T08:14:33.000Z</time>
      </trkpt>
      <trkpt lat="45.80331" lon="4.89086">
        <ele>173.95438</ele>
        <time>2023-07-11T08:14:34.000Z</time>
      </trkpt>
      <trkpt lat="45.80329" lon="4.89079">
        <ele>173.8542</ele>
        <time>2023-07-11T08:14:35.000Z</time>
      </trkpt>
      <trkpt lat="45.80327" lon="4.8907">
        <ele>173.74313</ele>
        <time>2023-07-11T08:14:36.000Z</time>
      </trkpt>
      <trkpt lat="45.80325" lon="4.89061">
        <ele>173.61638</ele>
        <time>2023-07-11T08:14:37.000Z</time>
      </trkpt>
      <trkpt lat="45.80323" lon="4.89053">
        <ele>173.51627</ele>
        <time>2023-07-11T08:14:38.000Z</time>
      </trkpt>
      <trkpt lat="45.80321" lon="4.89044">
        <ele>173.41858</ele>
        <time>2023-07-11T08:14:39.000Z</time>
      </trkpt>
      <trkpt lat="45.80319" lon="4.89036">
        <ele>173.3472</ele>
        <time>2023-07-11T08:14:40.000Z</time>
      </trkpt>
      <trkpt lat="45.80316" lon="4.89028">
        <ele>173.28976</ele>
        <time>2023-07-11T08:14:41.000Z</time>
      </trkpt>
      <trkpt lat="45.80315" lon="4.89019">
        <ele>173.19133</ele>
        <time>2023-07-11T08:14:42.000Z</time>
      </trkpt>
      <trkpt lat="45.80313" lon="4.89011">
        <ele>173.08975</ele>
        <time>2023-07-11T08:14:43.000Z</time>
      </trkpt>
      <trkpt lat="45.8031" lon="4.89003">
        <ele>172.98923</ele>
        <time>2023-07-11T08:14:44.000Z</time>
      </trkpt>
      <trkpt lat="45.80308" lon="4.88995">
        <ele>172.89383</ele>
        <time>2023-07-11T08:14:45.000Z</time>
      </trkpt>
      <trkpt lat="45.80306" lon="4.88986">
        <ele>172.84473</ele>
        <time>2023-07-11T08:14:46.000Z</time>
      </trkpt>
      <trkpt lat="45.80304" lon="4.88978">
        <ele>172.81039</ele>
        <time>2023-07-11T08:14:47.000Z</time>
      </trkpt>
      <trkpt lat="45.80302" lon="4.88971">
        <ele>172.79385</ele>
        <time>2023-07-11T08:14:48.000Z</time>
      </trkpt>
      <trkpt lat="45.803" lon="4.88963">
        <ele>172.79663</ele>
        <time>2023-07-11T08:14:49.000Z</time>
      </trkpt>
      <trkpt lat="45.80298" lon="4.88954">
        <ele>172.80252</ele>
        <time>2023-07-11T08:14:50.000Z</time>
      </trkpt>
      <trkpt lat="45.80295" lon="4.88944">
        <ele>172.81064</ele>
        <time>2023-07-11T08:14:51.000Z</time>
      </trkpt>
      <trkpt lat="45.80293" lon="4.88936">
        <ele>172.83594</ele>
        <time>2023-07-11T08:14:52.000Z</time>
      </trkpt>
      <trkpt lat="45.8029" lon="4.88928">
        <ele>172.88376</ele>
        <time>2023-07-11T08:14:53.000Z</time>
      </trkpt>
      <trkpt lat="45.80288" lon="4.8892">
        <ele>172.94075</ele>
        <time>2023-07-11T08:14:54.000Z</time>
      </trkpt>
      <trkpt lat="45.80285" lon="4.88912">
        <ele>172.98227</ele>
        <time>2023-07-11T08:14:55.000Z</time>
      </trkpt>
      <trkpt lat="45.80283" lon="4.88904">
        <ele>173.01674</ele>
        <time>2023-07-11T08:14:56.000Z</time>
      </trkpt>
      <trkpt lat="45.8028" lon="4.88896">
        <ele>173.05783</ele>
        <time>2023-07-11T08:14:57.000Z</time>
      </trkpt>
      <trkpt lat="45.80277" lon="4.88888">
        <ele>173.06613</ele>
        <time>2023-07-11T08:14:58.000Z</time>
      </trkpt>
      <trkpt lat="45.80275" lon="4.88881">
        <ele>173.06148</ele>
        <time>2023-07-11T08:14:59.000Z</time>
      </trkpt>
      <trkpt lat="45.80272" lon="4.88873">
        <ele>173.08278</ele>
        <time>2023-07-11T08:15:00.000Z</time>
      </trkpt>
      <trkpt lat="45.8027" lon="4.88866">
        <ele>173.09769</ele>
        <time>2023-07-11T08:15:01.000Z</time>
      </trkpt>
      <trkpt lat="45.80268" lon="4.88857">
        <ele>173.1445</ele>
        <time>2023-07-11T08:15:02.000Z</time>
      </trkpt>
      <trkpt lat="45.80265" lon="4.88849">
        <ele>173.19609</ele>
        <time>2023-07-11T08:15:03.000Z</time>
      </trkpt>
      <trkpt lat="45.80262" lon="4.88842">
        <ele>173.25578</ele>
        <time>2023-07-11T08:15:04.000Z</time>
      </trkpt>
      <trkpt lat="45.80258" lon="4.88834">
        <ele>173.29193</ele>
        <time>2023-07-11T08:15:05.000Z</time>
      </trkpt>
      <trkpt lat="45.80255" lon="4.88826">
        <ele>173.29364</ele>
        <time>2023-07-11T08:15:06.000Z</time>
      </trkpt>
      <trkpt lat="45.80252" lon="4.88818">
        <ele>173.23392</ele>
        <time>2023-07-11T08:15:07.000Z</time>
      </trkpt>
      <trkpt lat="45.8025" lon="4.8881">
        <ele>173.12082</ele>
        <time>2023-07-11T08:15:08.000Z</time>
      </trkpt>
      <trkpt lat="45.80247" lon="4.88802">
        <ele>172.99066</ele>
        <time>2023-07-11T08:15:09.000Z</time>
      </trkpt>
      <trkpt lat="45.80244" lon="4.88795">
        <ele>172.86606</ele>
        <time>2023-07-11T08:15:10.000Z</time>
      </trkpt>
      <trkpt lat="45.80241" lon="4.88787">
        <ele>172.73196</ele>
        <time>2023-07-11T08:15:11.000Z</time>
      </trkpt>
      <trkpt lat="45.80238" lon="4.88779">
        <ele>172.55968</ele>
        <time>2023-07-11T08:15:12.000Z</time>
      </trkpt>
      <trkpt lat="45.80234" lon="4.88772">
        <ele>172.38438</ele>
        <time>2023-07-11T08:15:13.000Z</time>
      </trkpt>
      <trkpt lat="45.80232" lon="4.88763">
        <ele>172.18753</ele>
        <time>2023-07-11T08:15:14.000Z</time>
      </trkpt>
      <trkpt lat="45.80229" lon="4.88755">
        <ele>171.97519</ele>
        <time>2023-07-11T08:15:15.000Z</time>
      </trkpt>
      <trkpt lat="45.80226" lon="4.88748">
        <ele>171.77994</ele>
        <time>2023-07-11T08:15:16.000Z</time>
      </trkpt>
      <trkpt lat="45.80223" lon="4.88739">
        <ele>171.58878</ele>
        <time>2023-07-11T08:15:17.000Z</time>
      </trkpt>
      <trkpt lat="45.8022" lon="4.88731">
        <ele>171.39117</ele>
        <time>2023-07-11T08:15:18.000Z</time>
      </trkpt>
      <trkpt lat="45.80217" lon="4.88723">
        <ele>171.25787</ele>
        <time>2023-07-11T08:15:19.000Z</time>
      </trkpt>
      <trkpt lat="45.80214" lon="4.88716">
        <ele>171.10855</ele>
        <time>2023-07-11T08:15:20.000Z</time>
      </trkpt>
      <trkpt lat="45.80211" lon="4.88708">
        <ele>170.9673</ele>
        <time>2023-07-11T08:15:21.000Z</time>
      </trkpt>
      <trkpt lat="45.80208" lon="4.887">
        <ele>170.85991</ele>
        <time>2023-07-11T08:15:22.000Z</time>
      </trkpt>
      <trkpt lat="45.80205" lon="4.88693">
        <ele>170.75681</ele>
        <time>2023-07-11T08:15:23.000Z</time>
      </trkpt>
      <trkpt lat="45.80201" lon="4.88686">
        <ele>170.649</ele>
        <time>2023-07-11T08:15:24.000Z</time>
      </trkpt>
      <trkpt lat="45.80197" lon="4.88679">
        <ele>170.58739</ele>
        <time>2023-07-11T08:15:25.000Z</time>
      </trkpt>
      <trkpt lat="45.80193" lon="4.88672">
        <ele>170.52536</ele>
        <time>2023-07-11T08:15:26.000Z</time>
      </trkpt>
      <trkpt lat="45.80189" lon="4.88664">
        <ele>170.51489</ele>
        <time>2023-07-11T08:15:27.000Z</time>
      </trkpt>
      <trkpt lat="45.80186" lon="4.88657">
        <ele>170.57013</ele>
        <time>2023-07-11T08:15:28.000Z</time>
      </trkpt>
      <trkpt lat="45.80183" lon="4.8865">
        <ele>170.63632</ele>
        <time>2023-07-11T08:15:29.000Z</time>
      </trkpt>
      <trkpt lat="45.8018" lon="4.88642">
        <ele>170.70824</ele>
        <time>2023-07-11T08:15:30.000Z</time>
      </trkpt>
      <trkpt lat="45.80177" lon="4.88635">
        <ele>170.83165</ele>
        <time>2023-07-11T08:15:31.000Z</time>
      </trkpt>
      <trkpt lat="45.80173" lon="4.88628">
        <ele>170.97597</ele>
        <time>2023-07-11T08:15:32.000Z</time>
      </trkpt>
      <trkpt lat="45.8017" lon="4.88621">
        <ele>171.13663</ele>
        <time>2023-07-11T08:15:33.000Z</time>
      </trkpt>
      <trkpt lat="45.80167" lon="4.88613">
        <ele>171.28386</ele>
        <time>2023-07-11T08:15:34.000Z</time>
      </trkpt>
      <trkpt lat="45.80163" lon="4.88606">
        <ele>171.46738</ele>
        <time>2023-07-11T08:15:35.000Z</time>
      </trkpt>
      <trkpt lat="45.80159" lon="4.88599">
        <ele>171.63364</ele>
        <time>2023-07-11T08:15:36.000Z</time>
      </trkpt>
      <trkpt lat="45.80155" lon="4.88592">
        <ele>171.79761</ele>
        <time>2023-07-11T08:15:37.000Z</time>
      </trkpt>
      <trkpt lat="45.80152" lon="4.88586">
        <ele>171.9808</ele>
        <time>2023-07-11T08:15:38.000Z</time>
      </trkpt>
      <trkpt lat="45.80148" lon="4.88579">
        <ele>172.08122</ele>
        <time>2023-07-11T08:15:39.000Z</time>
      </trkpt>
      <trkpt lat="45.80145" lon="4.88571">
        <ele>172.16417</ele>
        <time>2023-07-11T08:15:40.000Z</time>
      </trkpt>
      <trkpt lat="45.80141" lon="4.88563">
        <ele>172.22903</ele>
        <time>2023-07-11T08:15:41.000Z</time>
      </trkpt>
      <trkpt lat="45.80138" lon="4.88556">
        <ele>172.30801</ele>
        <time>2023-07-11T08:15:42.000Z</time>
      </trkpt>
      <trkpt lat="45.80135" lon="4.88551">
        <ele>172.39464</ele>
        <time>2023-07-11T08:15:43.000Z</time>
      </trkpt>
      <trkpt lat="45.80131" lon="4.88544">
        <ele>172.52048</ele>
        <time>2023-07-11T08:15:44.000Z</time>
      </trkpt>
      <trkpt lat="45.80126" lon="4.88538">
        <ele>172.62344</ele>
        <time>2023-07-11T08:15:45.000Z</time>
      </trkpt>
      <trkpt lat="45.80122" lon="4.88532">
        <ele>172.71674</ele>
        <time>2023-07-11T08:15:46.000Z</time>
      </trkpt>
      <trkpt lat="45.80118" lon="4.88525">
        <ele>172.80388</ele>
        <time>2023-07-11T08:15:47.000Z</time>
      </trkpt>
      <trkpt lat="45.80114" lon="4.88519">
        <ele>172.89224</ele>
        <time>2023-07-11T08:15:48.000Z</time>
      </trkpt>
      <trkpt lat="45.80109" lon="4.88514">
        <ele>172.98274</ele>
        <time>2023-07-11T08:15:49.000Z</time>
      </trkpt>
      <trkpt lat="45.80106" lon="4.88508">
        <ele>173.05698</ele>
        <time>2023-07-11T08:15:50.000Z</time>
      </trkpt>
      <trkpt lat="45.80102" lon="4.88502">
        <ele>173.10681</ele>
        <time>2023-07-11T08:15:51.000Z</time>
      </trkpt>
      <trkpt lat="45.80098" lon="4.88494">
        <ele>173.16869</ele>
        <time>2023-07-11T08:15:52.000Z</time>
      </trkpt>
      <trkpt lat="45.80094" lon="4.88487">
        <ele>173.22354</ele>
        <time>2023-07-11T08:15:53.000Z</time>
      </trkpt>
      <trkpt lat="45.8009" lon="4.88481">
        <ele>173.29034</ele>
        <time>2023-07-11T08:15:54.000Z</time>
      </trkpt>
      <trkpt lat="45.80085" lon="4.88475">
        <ele>173.3398</ele>
        <time>2023-07-11T08:15:55.000Z</time>
      </trkpt>
      <trkpt lat="45.80082" lon="4.88469">
        <ele>173.41281</ele>
        <time>2023-07-11T08:15:56.000Z</time>
      </trkpt>
      <trkpt lat="45.80078" lon="4.88463">
        <ele>173.44693</ele>
        <time>2023-07-11T08:15:57.000Z</time>
      </trkpt>
      <trkpt lat="45.80074" lon="4.88456">
        <ele>173.46957</ele>
        <time>2023-07-11T08:15:58.000Z</time>
      </trkpt>
      <trkpt lat="45.80071" lon="4.88449">
        <ele>173.51004</ele>
        <time>2023-07-11T08:15:59.000Z</time>
      </trkpt>
      <trkpt lat="45.80066" lon="4.88443">
        <ele>173.5284</ele>
        <time>2023-07-11T08:16:00.000Z</time>
      </trkpt>
      <trkpt lat="45.80062" lon="4.88436">
        <ele>173.5809</ele>
        <time>2023-07-11T08:16:01.000Z</time>
      </trkpt>
      <trkpt lat="45.80058" lon="4.8843">
        <ele>173.58098</ele>
        <time>2023-07-11T08:16:02.000Z</time>
      </trkpt>
      <trkpt lat="45.80054" lon="4.88423">
        <ele>173.58597</ele>
        <time>2023-07-11T08:16:03.000Z</time>
      </trkpt>
      <trkpt lat="45.8005" lon="4.88416">
        <ele>173.54041</ele>
        <time>2023-07-11T08:16:04.000Z</time>
      </trkpt>
      <trkpt lat="45.80045" lon="4.8841">
        <ele>173.50999</ele>
        <time>2023-07-11T08:16:05.000Z</time>
      </trkpt>
      <trkpt lat="45.8004" lon="4.88404">
        <ele>173.49234</ele>
        <time>2023-07-11T08:16:06.000Z</time>
      </trkpt>
      <trkpt lat="45.80037" lon="4.88398">
        <ele>173.48</ele>
        <time>2023-07-11T08:16:07.000Z</time>
      </trkpt>
      <trkpt lat="45.80034" lon="4.8839">
        <ele>173.45506</ele>
        <time>2023-07-11T08:16:08.000Z</time>
      </trkpt>
      <trkpt lat="45.8003" lon="4.88383">
        <ele>173.41548</ele>
        <time>2023-07-11T08:16:09.000Z</time>
      </trkpt>
      <trkpt lat="45.80026" lon="4.88375">
        <ele>173.40337</ele>
        <time>2023-07-11T08:16:10.000Z</time>
      </trkpt>
      <trkpt lat="45.80022" lon="4.8837">
        <ele>173.41486</ele>
        <time>2023-07-11T08:16:11.000Z</time>
      </trkpt>
      <trkpt lat="45.80018" lon="4.88363">
        <ele>173.36508</ele>
        <time>2023-07-11T08:16:12.000Z</time>
      </trkpt>
      <trkpt lat="45.80014" lon="4.88357">
        <ele>173.31436</ele>
        <time>2023-07-11T08:16:13.000Z</time>
      </trkpt>
      <trkpt lat="45.8001" lon="4.8835">
        <ele>173.27493</ele>
        <time>2023-07-11T08:16:14.000Z</time>
      </trkpt>
      <trkpt lat="45.80006" lon="4.88343">
        <ele>173.17104</ele>
        <time>2023-07-11T08:16:15.000Z</time>
      </trkpt>
      <trkpt lat="45.80002" lon="4.88338">
        <ele>173.06326</ele>
        <time>2023-07-11T08:16:16.000Z</time>
      </trkpt>
      <trkpt lat="45.79998" lon="4.88331">
        <ele>172.98668</ele>
        <time>2023-07-11T08:16:17.000Z</time>
      </trkpt>
      <trkpt lat="45.79995" lon="4.88324">
        <ele>172.91441</ele>
        <time>2023-07-11T08:16:18.000Z</time>
      </trkpt>
      <trkpt lat="45.79991" lon="4.88317">
        <ele>172.82401</ele>
        <time>2023-07-11T08:16:19.000Z</time>
      </trkpt>
      <trkpt lat="45.79987" lon="4.88311">
        <ele>172.74789</ele>
        <time>2023-07-11T08:16:20.000Z</time>
      </trkpt>
      <trkpt lat="45.79983" lon="4.88305">
        <ele>172.65994</ele>
        <time>2023-07-11T08:16:21.000Z</time>
      </trkpt>
      <trkpt lat="45.79979" lon="4.88299">
        <ele>172.59746</ele>
        <time>2023-07-11T08:16:22.000Z</time>
      </trkpt>
      <trkpt lat="45.79975" lon="4.88291">
        <ele>172.52283</ele>
        <time>2023-07-11T08:16:23.000Z</time>
      </trkpt>
      <trkpt lat="45.79971" lon="4.88285">
        <ele>172.51112</ele>
        <time>2023-07-11T08:16:24.000Z</time>
      </trkpt>
      <trkpt lat="45.79968" lon="4.88279">
        <ele>172.48392</ele>
        <time>2023-07-11T08:16:25.000Z</time>
      </trkpt>
      <trkpt lat="45.79964" lon="4.88272">
        <ele>172.44543</ele>
        <time>2023-07-11T08:16:26.000Z</time>
      </trkpt>
      <trkpt lat="45.79959" lon="4.88266">
        <ele>172.40852</ele>
        <time>2023-07-11T08:16:27.000Z</time>
      </trkpt>
      <trkpt lat="45.79955" lon="4.88259">
        <ele>172.37018</ele>
        <time>2023-07-11T08:16:28.000Z</time>
      </trkpt>
      <trkpt lat="45.79952" lon="4.88253">
        <ele>172.34024</ele>
        <time>2023-07-11T08:16:29.000Z</time>
      </trkpt>
      <trkpt lat="45.79948" lon="4.88246">
        <ele>172.31238</ele>
        <time>2023-07-11T08:16:30.000Z</time>
      </trkpt>
      <trkpt lat="45.79944" lon="4.88239">
        <ele>172.26552</ele>
        <time>2023-07-11T08:16:31.000Z</time>
      </trkpt>
      <trkpt lat="45.79939" lon="4.88232">
        <ele>172.26434</ele>
        <time>2023-07-11T08:16:32.000Z</time>
      </trkpt>
      <trkpt lat="45.79935" lon="4.88225">
        <ele>172.25468</ele>
        <time>2023-07-11T08:16:33.000Z</time>
      </trkpt>
      <trkpt lat="45.79931" lon="4.88219">
        <ele>172.24083</ele>
        <time>2023-07-11T08:16:34.000Z</time>
      </trkpt>
      <trkpt lat="45.79927" lon="4.88212">
        <ele>172.28186</ele>
        <time>2023-07-11T08:16:35.000Z</time>
      </trkpt>
      <trkpt lat="45.79923" lon="4.88206">
        <ele>172.30649</ele>
        <time>2023-07-11T08:16:36.000Z</time>
      </trkpt>
      <trkpt lat="45.79919" lon="4.882">
        <ele>172.353</ele>
        <time>2023-07-11T08:16:37.000Z</time>
      </trkpt>
      <trkpt lat="45.79914" lon="4.88194">
        <ele>172.40324</ele>
        <time>2023-07-11T08:16:38.000Z</time>
      </trkpt>
      <trkpt lat="45.79911" lon="4.88188">
        <ele>172.43216</ele>
        <time>2023-07-11T08:16:39.000Z</time>
      </trkpt>
      <trkpt lat="45.79908" lon="4.88181">
        <ele>172.47925</ele>
        <time>2023-07-11T08:16:40.000Z</time>
      </trkpt>
      <trkpt lat="45.79904" lon="4.88175">
        <ele>172.54181</ele>
        <time>2023-07-11T08:16:41.000Z</time>
      </trkpt>
      <trkpt lat="45.79899" lon="4.88169">
        <ele>172.63524</ele>
        <time>2023-07-11T08:16:42.000Z</time>
      </trkpt>
      <trkpt lat="45.79896" lon="4.88161">
        <ele>172.69449</ele>
        <time>2023-07-11T08:16:43.000Z</time>
      </trkpt>
      <trkpt lat="45.79892" lon="4.88155">
        <ele>172.72781</ele>
        <time>2023-07-11T08:16:44.000Z</time>
      </trkpt>
      <trkpt lat="45.79889" lon="4.88148">
        <ele>172.7205</ele>
        <time>2023-07-11T08:16:45.000Z</time>
      </trkpt>
      <trkpt lat="45.79884" lon="4.88142">
        <ele>172.72469</ele>
        <time>2023-07-11T08:16:46.000Z</time>
      </trkpt>
      <trkpt lat="45.7988" lon="4.88135">
        <ele>172.72307</ele>
        <time>2023-07-11T08:16:47.000Z</time>
      </trkpt>
      <trkpt lat="45.79876" lon="4.88128">
        <ele>172.69583</ele>
        <time>2023-07-11T08:16:48.000Z</time>
      </trkpt>
      <trkpt lat="45.79871" lon="4.88122">
        <ele>172.66412</ele>
        <time>2023-07-11T08:16:49.000Z</time>
      </trkpt>
      <trkpt lat="45.79868" lon="4.88114">
        <ele>172.62822</ele>
        <time>2023-07-11T08:16:50.000Z</time>
      </trkpt>
      <trkpt lat="45.79865" lon="4.88108">
        <ele>172.60185</ele>
        <time>2023-07-11T08:16:51.000Z</time>
      </trkpt>
      <trkpt lat="45.79861" lon="4.88103">
        <ele>172.56691</ele>
        <time>2023-07-11T08:16:52.000Z</time>
      </trkpt>
      <trkpt lat="45.79856" lon="4.88096">
        <ele>172.55087</ele>
        <time>2023-07-11T08:16:53.000Z</time>
      </trkpt>
      <trkpt lat="45.79853" lon="4.88089">
        <ele>172.50998</ele>
        <time>2023-07-11T08:16:54.000Z</time>
      </trkpt>
      <trkpt lat="45.79849" lon="4.88083">
        <ele>172.47087</ele>
        <time>2023-07-11T08:16:55.000Z</time>
      </trkpt>
      <trkpt lat="45.79846" lon="4.88078">
        <ele>172.41342</ele>
        <time>2023-07-11T08:16:56.000Z</time>
      </trkpt>
      <trkpt lat="45.79842" lon="4.88071">
        <ele>172.33382</ele>
        <time>2023-07-11T08:16:57.000Z</time>
      </trkpt>
      <trkpt lat="45.79837" lon="4.88065">
        <ele>172.25096</ele>
        <time>2023-07-11T08:16:58.000Z</time>
      </trkpt>
      <trkpt lat="45.79832" lon="4.88058">
        <ele>172.18503</ele>
        <time>2023-07-11T08:16:59.000Z</time>
      </trkpt>
      <trkpt lat="45.79828" lon="4.88051">
        <ele>172.10246</ele>
        <time>2023-07-11T08:17:00.000Z</time>
      </trkpt>
      <trkpt lat="45.79823" lon="4.88045">
        <ele>171.93996</ele>
        <time>2023-07-11T08:17:01.000Z</time>
      </trkpt>
      <trkpt lat="45.79819" lon="4.88038">
        <ele>171.73586</ele>
        <time>2023-07-11T08:17:02.000Z</time>
      </trkpt>
      <trkpt lat="45.79814" lon="4.88032">
        <ele>171.55067</ele>
        <time>2023-07-11T08:17:03.000Z</time>
      </trkpt>
      <trkpt lat="45.7981" lon="4.88026">
        <ele>171.36798</ele>
        <time>2023-07-11T08:17:04.000Z</time>
      </trkpt>
      <trkpt lat="45.79805" lon="4.8802">
        <ele>171.25343</ele>
        <time>2023-07-11T08:17:05.000Z</time>
      </trkpt>
      <trkpt lat="45.79802" lon="4.88015">
        <ele>171.09247</ele>
        <time>2023-07-11T08:17:06.000Z</time>
      </trkpt>
      <trkpt lat="45.79797" lon="4.88007">
        <ele>170.97081</ele>
        <time>2023-07-11T08:17:07.000Z</time>
      </trkpt>
      <trkpt lat="45.79793" lon="4.88">
        <ele>170.88808</ele>
        <time>2023-07-11T08:17:08.000Z</time>
      </trkpt>
      <trkpt lat="45.7979" lon="4.87993">
        <ele>170.82735</ele>
        <time>2023-07-11T08:17:09.000Z</time>
      </trkpt>
      <trkpt lat="45.79786" lon="4.87985">
        <ele>171.1288</ele>
        <time>2023-07-11T08:17:10.000Z</time>
      </trkpt>
      <trkpt lat="45.79781" lon="4.87977">
        <ele>171.43739</ele>
        <time>2023-07-11T08:17:11.000Z</time>
      </trkpt>
      <trkpt lat="45.79777" lon="4.87971">
        <ele>171.71916</ele>
        <time>2023-07-11T08:17:12.000Z</time>
      </trkpt>
      <trkpt lat="45.79773" lon="4.87963">
        <ele>172.00363</ele>
        <time>2023-07-11T08:17:13.000Z</time>
      </trkpt>
      <trkpt lat="45.79768" lon="4.87957">
        <ele>172.20015</ele>
        <time>2023-07-11T08:17:14.000Z</time>
      </trkpt>
      <trkpt lat="45.79764" lon="4.87952">
        <ele>172.39908</ele>
        <time>2023-07-11T08:17:15.000Z</time>
      </trkpt>
      <trkpt lat="45.79759" lon="4.87945">
        <ele>172.63861</ele>
        <time>2023-07-11T08:17:16.000Z</time>
      </trkpt>
      <trkpt lat="45.79755" lon="4.87938">
        <ele>172.90309</ele>
        <time>2023-07-11T08:17:17.000Z</time>
      </trkpt>
      <trkpt lat="45.79751" lon="4.87931">
        <ele>173.13362</ele>
        <time>2023-07-11T08:17:18.000Z</time>
      </trkpt>
      <trkpt lat="45.79747" lon="4.87926">
        <ele>173.36125</ele>
        <time>2023-07-11T08:17:19.000Z</time>
      </trkpt>
      <trkpt lat="45.79742" lon="4.87919">
        <ele>173.61293</ele>
        <time>2023-07-11T08:17:20.000Z</time>
      </trkpt>
      <trkpt lat="45.79738" lon="4.87912">
        <ele>173.90382</ele>
        <time>2023-07-11T08:17:21.000Z</time>
      </trkpt>
      <trkpt lat="45.79734" lon="4.87906">
        <ele>174.13148</ele>
        <time>2023-07-11T08:17:22.000Z</time>
      </trkpt>
      <trkpt lat="45.79729" lon="4.879">
        <ele>174.3549</ele>
        <time>2023-07-11T08:17:23.000Z</time>
      </trkpt>
      <trkpt lat="45.79725" lon="4.87893">
        <ele>174.56834</ele>
        <time>2023-07-11T08:17:24.000Z</time>
      </trkpt>
      <trkpt lat="45.7972" lon="4.87886">
        <ele>174.75085</ele>
        <time>2023-07-11T08:17:25.000Z</time>
      </trkpt>
      <trkpt lat="45.79716" lon="4.87881">
        <ele>174.94638</ele>
        <time>2023-07-11T08:17:26.000Z</time>
      </trkpt>
      <trkpt lat="45.79712" lon="4.87874">
        <ele>175.16895</ele>
        <time>2023-07-11T08:17:27.000Z</time>
      </trkpt>
      <trkpt lat="45.79709" lon="4.87868">
        <ele>175.369</ele>
        <time>2023-07-11T08:17:28.000Z</time>
      </trkpt>
      <trkpt lat="45.79706" lon="4.87861">
        <ele>175.54939</ele>
        <time>2023-07-11T08:17:29.000Z</time>
      </trkpt>
      <trkpt lat="45.79702" lon="4.87855">
        <ele>175.35074</ele>
        <time>2023-07-11T08:17:30.000Z</time>
      </trkpt>
      <trkpt lat="45.79699" lon="4.87851">
        <ele>175.16235</ele>
        <time>2023-07-11T08:17:31.000Z</time>
      </trkpt>
      <trkpt lat="45.79695" lon="4.87844">
        <ele>175.01225</ele>
        <time>2023-07-11T08:17:32.000Z</time>
      </trkpt>
      <trkpt lat="45.79691" lon="4.87837">
        <ele>174.828</ele>
        <time>2023-07-11T08:17:33.000Z</time>
      </trkpt>
      <trkpt lat="45.79687" lon="4.8783">
        <ele>174.72208</ele>
        <time>2023-07-11T08:17:34.000Z</time>
      </trkpt>
      <trkpt lat="45.79684" lon="4.87824">
        <ele>174.66583</ele>
        <time>2023-07-11T08:17:35.000Z</time>
      </trkpt>
      <trkpt lat="45.79681" lon="4.87817">
        <ele>174.59496</ele>
        <time>2023-07-11T08:17:36.000Z</time>
      </trkpt>
      <trkpt lat="45.79677" lon="4.87811">
        <ele>174.49916</ele>
        <time>2023-07-11T08:17:37.000Z</time>
      </trkpt>
      <trkpt lat="45.79673" lon="4.87804">
        <ele>174.42093</ele>
        <time>2023-07-11T08:17:38.000Z</time>
      </trkpt>
      <trkpt lat="45.79669" lon="4.87798">
        <ele>174.38655</ele>
        <time>2023-07-11T08:17:39.000Z</time>
      </trkpt>
      <trkpt lat="45.79664" lon="4.87792">
        <ele>174.32108</ele>
        <time>2023-07-11T08:17:40.000Z</time>
      </trkpt>
      <trkpt lat="45.7966" lon="4.87785">
        <ele>174.25838</ele>
        <time>2023-07-11T08:17:41.000Z</time>
      </trkpt>
      <trkpt lat="45.79656" lon="4.87779">
        <ele>174.24536</ele>
        <time>2023-07-11T08:17:42.000Z</time>
      </trkpt>
      <trkpt lat="45.79652" lon="4.87773">
        <ele>174.2664</ele>
        <time>2023-07-11T08:17:43.000Z</time>
      </trkpt>
      <trkpt lat="45.79648" lon="4.87766">
        <ele>174.28581</ele>
        <time>2023-07-11T08:17:44.000Z</time>
      </trkpt>
      <trkpt lat="45.79643" lon="4.87761">
        <ele>174.33559</ele>
        <time>2023-07-11T08:17:45.000Z</time>
      </trkpt>
      <trkpt lat="45.79639" lon="4.87755">
        <ele>174.43887</ele>
        <time>2023-07-11T08:17:46.000Z</time>
      </trkpt>
      <trkpt lat="45.79635" lon="4.87751">
        <ele>174.5141</ele>
        <time>2023-07-11T08:17:47.000Z</time>
      </trkpt>
      <trkpt lat="45.7963" lon="4.87748">
        <ele>174.6095</ele>
        <time>2023-07-11T08:17:48.000Z</time>
      </trkpt>
      <trkpt lat="45.79625" lon="4.87745">
        <ele>174.65265</ele>
        <time>2023-07-11T08:17:49.000Z</time>
      </trkpt>
      <trkpt lat="45.79621" lon="4.87744">
        <ele>174.69357</ele>
        <time>2023-07-11T08:17:50.000Z</time>
      </trkpt>
      <trkpt lat="45.79615" lon="4.87742">
        <ele>174.71616</ele>
        <time>2023-07-11T08:17:51.000Z</time>
      </trkpt>
      <trkpt lat="45.7961" lon="4.87741">
        <ele>174.75638</ele>
        <time>2023-07-11T08:17:52.000Z</time>
      </trkpt>
      <trkpt lat="45.79605" lon="4.87739">
        <ele>174.84995</ele>
        <time>2023-07-11T08:17:53.000Z</time>
      </trkpt>
      <trkpt lat="45.79599" lon="4.87738">
        <ele>174.88785</ele>
        <time>2023-07-11T08:17:54.000Z</time>
      </trkpt>
      <trkpt lat="45.79594" lon="4.87737">
        <ele>174.90381</ele>
        <time>2023-07-11T08:17:55.000Z</time>
      </trkpt>
      <trkpt lat="45.79589" lon="4.87737">
        <ele>174.96317</ele>
        <time>2023-07-11T08:17:56.000Z</time>
      </trkpt>
      <trkpt lat="45.79583" lon="4.87736">
        <ele>175.0305</ele>
        <time>2023-07-11T08:17:57.000Z</time>
      </trkpt>
      <trkpt lat="45.79578" lon="4.87734">
        <ele>175.10484</ele>
        <time>2023-07-11T08:17:58.000Z</time>
      </trkpt>
      <trkpt lat="45.79574" lon="4.87731">
        <ele>175.15311</ele>
        <time>2023-07-11T08:17:59.000Z</time>
      </trkpt>
      <trkpt lat="45.79569" lon="4.87727">
        <ele>175.19186</ele>
        <time>2023-07-11T08:18:00.000Z</time>
      </trkpt>
      <trkpt lat="45.79565" lon="4.87725">
        <ele>175.24506</ele>
        <time>2023-07-11T08:18:01.000Z</time>
      </trkpt>
      <trkpt lat="45.7956" lon="4.87722">
        <ele>175.33023</ele>
        <time>2023-07-11T08:18:02.000Z</time>
      </trkpt>
      <trkpt lat="45.79555" lon="4.8772">
        <ele>175.41148</ele>
        <time>2023-07-11T08:18:03.000Z</time>
      </trkpt>
      <trkpt lat="45.7955" lon="4.87719">
        <ele>175.50504</ele>
        <time>2023-07-11T08:18:04.000Z</time>
      </trkpt>
      <trkpt lat="45.79545" lon="4.87717">
        <ele>175.59915</ele>
        <time>2023-07-11T08:18:05.000Z</time>
      </trkpt>
      <trkpt lat="45.7954" lon="4.87715">
        <ele>175.67007</ele>
        <time>2023-07-11T08:18:06.000Z</time>
      </trkpt>
      <trkpt lat="45.79535" lon="4.87714">
        <ele>175.68576</ele>
        <time>2023-07-11T08:18:07.000Z</time>
      </trkpt>
      <trkpt lat="45.7953" lon="4.87712">
        <ele>175.7103</ele>
        <time>2023-07-11T08:18:08.000Z</time>
      </trkpt>
      <trkpt lat="45.79525" lon="4.8771">
        <ele>175.79218</ele>
        <time>2023-07-11T08:18:09.000Z</time>
      </trkpt>
      <trkpt lat="45.79521" lon="4.87706">
        <ele>175.8441</ele>
        <time>2023-07-11T08:18:10.000Z</time>
      </trkpt>
      <trkpt lat="45.79516" lon="4.87703">
        <ele>175.87895</ele>
        <time>2023-07-11T08:18:11.000Z</time>
      </trkpt>
      <trkpt lat="45.79511" lon="4.877">
        <ele>175.85938</ele>
        <time>2023-07-11T08:18:12.000Z</time>
      </trkpt>
      <trkpt lat="45.79505" lon="4.87698">
        <ele>175.80516</ele>
        <time>2023-07-11T08:18:13.000Z</time>
      </trkpt>
      <trkpt lat="45.795" lon="4.87695">
        <ele>175.85378</ele>
        <time>2023-07-11T08:18:14.000Z</time>
      </trkpt>
      <trkpt lat="45.79495" lon="4.87692">
        <ele>175.86264</ele>
        <time>2023-07-11T08:18:15.000Z</time>
      </trkpt>
      <trkpt lat="45.7949" lon="4.87689">
        <ele>175.79979</ele>
        <time>2023-07-11T08:18:16.000Z</time>
      </trkpt>
      <trkpt lat="45.79485" lon="4.87686">
        <ele>175.72362</ele>
        <time>2023-07-11T08:18:17.000Z</time>
      </trkpt>
      <trkpt lat="45.79479" lon="4.87683">
        <ele>175.66129</ele>
        <time>2023-07-11T08:18:18.000Z</time>
      </trkpt>
      <trkpt lat="45.79474" lon="4.87679">
        <ele>175.62918</ele>
        <time>2023-07-11T08:18:19.000Z</time>
      </trkpt>
      <trkpt lat="45.79469" lon="4.87676">
        <ele>175.63669</ele>
        <time>2023-07-11T08:18:20.000Z</time>
      </trkpt>
      <trkpt lat="45.79463" lon="4.87673">
        <ele>175.64894</ele>
        <time>2023-07-11T08:18:21.000Z</time>
      </trkpt>
      <trkpt lat="45.79458" lon="4.87669">
        <ele>175.66919</ele>
        <time>2023-07-11T08:18:22.000Z</time>
      </trkpt>
      <trkpt lat="45.79453" lon="4.87666">
        <ele>175.66953</ele>
        <time>2023-07-11T08:18:23.000Z</time>
      </trkpt>
      <trkpt lat="45.79448" lon="4.87661">
        <ele>175.64755</ele>
        <time>2023-07-11T08:18:24.000Z</time>
      </trkpt>
      <trkpt lat="45.79443" lon="4.87657">
        <ele>175.62038</ele>
        <time>2023-07-11T08:18:25.000Z</time>
      </trkpt>
      <trkpt lat="45.79437" lon="4.87653">
        <ele>175.57742</ele>
        <time>2023-07-11T08:18:26.000Z</time>
      </trkpt>
      <trkpt lat="45.79433" lon="4.87648">
        <ele>175.61684</ele>
        <time>2023-07-11T08:18:27.000Z</time>
      </trkpt>
      <trkpt lat="45.79427" lon="4.87644">
        <ele>175.53545</ele>
        <time>2023-07-11T08:18:28.000Z</time>
      </trkpt>
      <trkpt lat="45.79422" lon="4.87639">
        <ele>175.43478</ele>
        <time>2023-07-11T08:18:29.000Z</time>
      </trkpt>
      <trkpt lat="45.79416" lon="4.87635">
        <ele>175.42007</ele>
        <time>2023-07-11T08:18:30.000Z</time>
      </trkpt>
      <trkpt lat="45.7941" lon="4.87632">
        <ele>175.41833</ele>
        <time>2023-07-11T08:18:31.000Z</time>
      </trkpt>
      <trkpt lat="45.79405" lon="4.87628">
        <ele>175.43307</ele>
        <time>2023-07-11T08:18:32.000Z</time>
      </trkpt>
      <trkpt lat="45.79399" lon="4.87625">
        <ele>175.46521</ele>
        <time>2023-07-11T08:18:33.000Z</time>
      </trkpt>
      <trkpt lat="45.79394" lon="4.87621">
        <ele>175.52515</ele>
        <time>2023-07-11T08:18:34.000Z</time>
      </trkpt>
      <trkpt lat="45.79389" lon="4.87618">
        <ele>175.60698</ele>
        <time>2023-07-11T08:18:35.000Z</time>
      </trkpt>
      <trkpt lat="45.79384" lon="4.87614">
        <ele>175.59775</ele>
        <time>2023-07-11T08:18:36.000Z</time>
      </trkpt>
      <trkpt lat="45.79379" lon="4.8761">
        <ele>175.62619</ele>
        <time>2023-07-11T08:18:37.000Z</time>
      </trkpt>
      <trkpt lat="45.79373" lon="4.87607">
        <ele>175.65411</ele>
        <time>2023-07-11T08:18:38.000Z</time>
      </trkpt>
      <trkpt lat="45.79369" lon="4.87603">
        <ele>175.66348</ele>
        <time>2023-07-11T08:18:39.000Z</time>
      </trkpt>
      <trkpt lat="45.79365" lon="4.876">
        <ele>175.64684</ele>
        <time>2023-07-11T08:18:40.000Z</time>
      </trkpt>
      <trkpt lat="45.79361" lon="4.87595">
        <ele>175.60013</ele>
        <time>2023-07-11T08:18:41.000Z</time>
      </trkpt>
      <trkpt lat="45.79357" lon="4.87592">
        <ele>175.5313</ele>
        <time>2023-07-11T08:18:42.000Z</time>
      </trkpt>
      <trkpt lat="45.79353" lon="4.87588">
        <ele>175.46938</ele>
        <time>2023-07-11T08:18:43.000Z</time>
      </trkpt>
      <trkpt lat="45.79351" lon="4.87585">
        <ele>175.28023</ele>
        <time>2023-07-11T08:18:44.000Z</time>
      </trkpt>
      <trkpt lat="45.79347" lon="4.87582">
        <ele>175.10672</ele>
        <time>2023-07-11T08:18:45.000Z</time>
      </trkpt>
      <trkpt lat="45.79343" lon="4.87577">
        <ele>174.95235</ele>
        <time>2023-07-11T08:18:46.000Z</time>
      </trkpt>
      <trkpt lat="45.7934" lon="4.87575">
        <ele>174.72981</ele>
        <time>2023-07-11T08:18:47.000Z</time>
      </trkpt>
      <trkpt lat="45.79337" lon="4.87571">
        <ele>174.62704</ele>
        <time>2023-07-11T08:18:48.000Z</time>
      </trkpt>
      <trkpt lat="45.79332" lon="4.8757">
        <ele>174.57042</ele>
        <time>2023-07-11T08:18:49.000Z</time>
      </trkpt>
      <trkpt lat="45.79329" lon="4.8757">
        <ele>174.53253</ele>
        <time>2023-07-11T08:18:50.000Z</time>
      </trkpt>
      <trkpt lat="45.79326" lon="4.87571">
        <ele>174.32962</ele>
        <time>2023-07-11T08:18:51.000Z</time>
      </trkpt>
      <trkpt lat="45.79323" lon="4.87572">
        <ele>174.28275</ele>
        <time>2023-07-11T08:18:52.000Z</time>
      </trkpt>
      <trkpt lat="45.79321" lon="4.87575">
        <ele>174.04305</ele>
        <time>2023-07-11T08:18:53.000Z</time>
      </trkpt>
      <trkpt lat="45.79318" lon="4.87579">
        <ele>173.66003</ele>
        <time>2023-07-11T08:18:55.000Z</time>
      </trkpt>
      <trkpt lat="45.79316" lon="4.87581">
        <ele>173.25702</ele>
        <time>2023-07-11T08:18:56.000Z</time>
      </trkpt>
      <trkpt lat="45.79315" lon="4.87584">
        <ele>172.98837</ele>
        <time>2023-07-11T08:18:57.000Z</time>
      </trkpt>
      <trkpt lat="45.79313" lon="4.87586">
        <ele>172.69769</ele>
        <time>2023-07-11T08:18:58.000Z</time>
      </trkpt>
      <trkpt lat="45.7931" lon="4.87588">
        <ele>172.43211</ele>
        <time>2023-07-11T08:18:59.000Z</time>
      </trkpt>
      <trkpt lat="45.79308" lon="4.8759">
        <ele>172.1678</ele>
        <time>2023-07-11T08:19:00.000Z</time>
      </trkpt>
      <trkpt lat="45.79307" lon="4.87592">
        <ele>171.91048</ele>
        <time>2023-07-11T08:19:01.000Z</time>
      </trkpt>
      <trkpt lat="45.79305" lon="4.87593">
        <ele>171.67236</ele>
        <time>2023-07-11T08:19:02.000Z</time>
      </trkpt>
      <trkpt lat="45.79303" lon="4.87595">
        <ele>171.46518</ele>
        <time>2023-07-11T08:19:03.000Z</time>
      </trkpt>
      <trkpt lat="45.79301" lon="4.87597">
        <ele>171.27225</ele>
        <time>2023-07-11T08:19:04.000Z</time>
      </trkpt>
      <trkpt lat="45.793" lon="4.87599">
        <ele>171.22977</ele>
        <time>2023-07-11T08:19:06.000Z</time>
      </trkpt>
      <trkpt lat="45.79301" lon="4.87601">
        <ele>171.14366</ele>
        <time>2023-07-11T08:20:59.000Z</time>
      </trkpt>
      <trkpt lat="45.79304" lon="4.876">
        <ele>171.07726</ele>
        <time>2023-07-11T08:21:01.000Z</time>
      </trkpt>
      <trkpt lat="45.79306" lon="4.87598">
        <ele>171.03159</ele>
        <time>2023-07-11T08:21:02.000Z</time>
      </trkpt>
      <trkpt lat="45.79308" lon="4.87595">
        <ele>170.97227</ele>
        <time>2023-07-11T08:21:03.000Z</time>
      </trkpt>
      <trkpt lat="45.7931" lon="4.87592">
        <ele>170.86093</ele>
        <time>2023-07-11T08:21:04.000Z</time>
      </trkpt>
      <trkpt lat="45.79311" lon="4.87588">
        <ele>170.63814</ele>
        <time>2023-07-11T08:21:05.000Z</time>
      </trkpt>
      <trkpt lat="45.79312" lon="4.87584">
        <ele>170.55464</ele>
        <time>2023-07-11T08:21:06.000Z</time>
      </trkpt>
      <trkpt lat="45.79314" lon="4.87579">
        <ele>170.32262</ele>
        <time>2023-07-11T08:21:07.000Z</time>
      </trkpt>
      <trkpt lat="45.79316" lon="4.87575">
        <ele>170.2307</ele>
        <time>2023-07-11T08:21:08.000Z</time>
      </trkpt>
      <trkpt lat="45.79318" lon="4.87571">
        <ele>170.21695</ele>
        <time>2023-07-11T08:21:09.000Z</time>
      </trkpt>
      <trkpt lat="45.7932" lon="4.87567">
        <ele>170.20975</ele>
        <time>2023-07-11T08:21:10.000Z</time>
      </trkpt>
      <trkpt lat="45.79321" lon="4.87563">
        <ele>170.19142</ele>
        <time>2023-07-11T08:21:11.000Z</time>
      </trkpt>
      <trkpt lat="45.79322" lon="4.87558">
        <ele>170.16977</ele>
        <time>2023-07-11T08:21:12.000Z</time>
      </trkpt>
      <trkpt lat="45.79321" lon="4.87552">
        <ele>170.09872</ele>
        <time>2023-07-11T08:21:13.000Z</time>
      </trkpt>
      <trkpt lat="45.79319" lon="4.87547">
        <ele>170.02103</ele>
        <time>2023-07-11T08:21:14.000Z</time>
      </trkpt>
      <trkpt lat="45.79315" lon="4.87542">
        <ele>169.96227</ele>
        <time>2023-07-11T08:21:15.000Z</time>
      </trkpt>
      <trkpt lat="45.79312" lon="4.87538">
        <ele>169.90385</ele>
        <time>2023-07-11T08:21:16.000Z</time>
      </trkpt>
      <trkpt lat="45.7931" lon="4.87533">
        <ele>169.81503</ele>
        <time>2023-07-11T08:21:17.000Z</time>
      </trkpt>
      <trkpt lat="45.79306" lon="4.87528">
        <ele>169.72237</ele>
        <time>2023-07-11T08:21:18.000Z</time>
      </trkpt>
      <trkpt lat="45.79304" lon="4.87523">
        <ele>169.59428</ele>
        <time>2023-07-11T08:21:19.000Z</time>
      </trkpt>
      <trkpt lat="45.793" lon="4.87518">
        <ele>169.47745</ele>
        <time>2023-07-11T08:21:20.000Z</time>
      </trkpt>
      <trkpt lat="45.79297" lon="4.87513">
        <ele>169.33537</ele>
        <time>2023-07-11T08:21:21.000Z</time>
      </trkpt>
      <trkpt lat="45.79293" lon="4.87507">
        <ele>169.18507</ele>
        <time>2023-07-11T08:21:22.000Z</time>
      </trkpt>
      <trkpt lat="45.7929" lon="4.87501">
        <ele>169.00949</ele>
        <time>2023-07-11T08:21:23.000Z</time>
      </trkpt>
      <trkpt lat="45.79287" lon="4.87495">
        <ele>168.80597</ele>
        <time>2023-07-11T08:21:24.000Z</time>
      </trkpt>
      <trkpt lat="45.79282" lon="4.8749">
        <ele>168.61407</ele>
        <time>2023-07-11T08:21:25.000Z</time>
      </trkpt>
      <trkpt lat="45.79279" lon="4.87485">
        <ele>168.42834</ele>
        <time>2023-07-11T08:21:26.000Z</time>
      </trkpt>
      <trkpt lat="45.79275" lon="4.8748">
        <ele>168.26215</ele>
        <time>2023-07-11T08:21:27.000Z</time>
      </trkpt>
      <trkpt lat="45.79271" lon="4.87475">
        <ele>168.10986</ele>
        <time>2023-07-11T08:21:28.000Z</time>
      </trkpt>
      <trkpt lat="45.79267" lon="4.8747">
        <ele>167.95358</ele>
        <time>2023-07-11T08:21:29.000Z</time>
      </trkpt>
      <trkpt lat="45.79262" lon="4.87464">
        <ele>167.81229</ele>
        <time>2023-07-11T08:21:30.000Z</time>
      </trkpt>
      <trkpt lat="45.79257" lon="4.87459">
        <ele>167.65897</ele>
        <time>2023-07-11T08:21:31.000Z</time>
      </trkpt>
      <trkpt lat="45.79251" lon="4.87453">
        <ele>167.40709</ele>
        <time>2023-07-11T08:21:32.000Z</time>
      </trkpt>
      <trkpt lat="45.79246" lon="4.87447">
        <ele>167.15804</ele>
        <time>2023-07-11T08:21:33.000Z</time>
      </trkpt>
      <trkpt lat="45.79241" lon="4.8744">
        <ele>166.91911</ele>
        <time>2023-07-11T08:21:34.000Z</time>
      </trkpt>
      <trkpt lat="45.79236" lon="4.87434">
        <ele>166.66528</ele>
        <time>2023-07-11T08:21:35.000Z</time>
      </trkpt>
      <trkpt lat="45.79231" lon="4.87426">
        <ele>166.41678</ele>
        <time>2023-07-11T08:21:36.000Z</time>
      </trkpt>
      <trkpt lat="45.79228" lon="4.87418">
        <ele>166.19363</ele>
        <time>2023-07-11T08:21:37.000Z</time>
      </trkpt>
      <trkpt lat="45.79224" lon="4.87411">
        <ele>165.96481</ele>
        <time>2023-07-11T08:21:38.000Z</time>
      </trkpt>
      <trkpt lat="45.79221" lon="4.87403">
        <ele>165.77406</ele>
        <time>2023-07-11T08:21:39.000Z</time>
      </trkpt>
      <trkpt lat="45.79218" lon="4.87395">
        <ele>165.58519</ele>
        <time>2023-07-11T08:21:40.000Z</time>
      </trkpt>
      <trkpt lat="45.79215" lon="4.87387">
        <ele>165.45096</ele>
        <time>2023-07-11T08:21:41.000Z</time>
      </trkpt>
      <trkpt lat="45.79212" lon="4.8738">
        <ele>165.31799</ele>
        <time>2023-07-11T08:21:42.000Z</time>
      </trkpt>
      <trkpt lat="45.79208" lon="4.87373">
        <ele>165.13884</ele>
        <time>2023-07-11T08:21:43.000Z</time>
      </trkpt>
      <trkpt lat="45.79204" lon="4.87366">
        <ele>165.0063</ele>
        <time>2023-07-11T08:21:44.000Z</time>
      </trkpt>
      <trkpt lat="45.792" lon="4.87359">
        <ele>164.8989</ele>
        <time>2023-07-11T08:21:45.000Z</time>
      </trkpt>
      <trkpt lat="45.79196" lon="4.87352">
        <ele>164.81059</ele>
        <time>2023-07-11T08:21:46.000Z</time>
      </trkpt>
      <trkpt lat="45.79192" lon="4.87345">
        <ele>164.70154</ele>
        <time>2023-07-11T08:21:47.000Z</time>
      </trkpt>
      <trkpt lat="45.79188" lon="4.87339">
        <ele>164.64867</ele>
        <time>2023-07-11T08:21:48.000Z</time>
      </trkpt>
      <trkpt lat="45.79185" lon="4.87332">
        <ele>164.63206</ele>
        <time>2023-07-11T08:21:49.000Z</time>
      </trkpt>
      <trkpt lat="45.7918" lon="4.87326">
        <ele>164.61504</ele>
        <time>2023-07-11T08:21:50.000Z</time>
      </trkpt>
      <trkpt lat="45.79176" lon="4.87321">
        <ele>164.59842</ele>
        <time>2023-07-11T08:21:51.000Z</time>
      </trkpt>
      <trkpt lat="45.79171" lon="4.87315">
        <ele>164.66646</ele>
        <time>2023-07-11T08:21:52.000Z</time>
      </trkpt>
      <trkpt lat="45.79166" lon="4.8731">
        <ele>164.73746</ele>
        <time>2023-07-11T08:21:53.000Z</time>
      </trkpt>
      <trkpt lat="45.79161" lon="4.87305">
        <ele>164.80984</ele>
        <time>2023-07-11T08:21:54.000Z</time>
      </trkpt>
      <trkpt lat="45.79156" lon="4.87301">
        <ele>164.89745</ele>
        <time>2023-07-11T08:21:55.000Z</time>
      </trkpt>
      <trkpt lat="45.7915" lon="4.87296">
        <ele>165.26001</ele>
        <time>2023-07-11T08:21:56.000Z</time>
      </trkpt>
      <trkpt lat="45.79145" lon="4.8729">
        <ele>165.58113</ele>
        <time>2023-07-11T08:21:57.000Z</time>
      </trkpt>
      <trkpt lat="45.7914" lon="4.87285">
        <ele>165.91235</ele>
        <time>2023-07-11T08:21:58.000Z</time>
      </trkpt>
      <trkpt lat="45.79134" lon="4.8728">
        <ele>166.23416</ele>
        <time>2023-07-11T08:21:59.000Z</time>
      </trkpt>
      <trkpt lat="45.79129" lon="4.87274">
        <ele>166.54779</ele>
        <time>2023-07-11T08:22:00.000Z</time>
      </trkpt>
      <trkpt lat="45.79126" lon="4.87269">
        <ele>166.83954</ele>
        <time>2023-07-11T08:22:01.000Z</time>
      </trkpt>
      <trkpt lat="45.7912" lon="4.87263">
        <ele>167.10136</ele>
        <time>2023-07-11T08:22:02.000Z</time>
      </trkpt>
      <trkpt lat="45.79117" lon="4.87256">
        <ele>167.45773</ele>
        <time>2023-07-11T08:22:03.000Z</time>
      </trkpt>
      <trkpt lat="45.79112" lon="4.8725">
        <ele>167.787</ele>
        <time>2023-07-11T08:22:04.000Z</time>
      </trkpt>
      <trkpt lat="45.79107" lon="4.87244">
        <ele>168.09895</ele>
        <time>2023-07-11T08:22:05.000Z</time>
      </trkpt>
      <trkpt lat="45.79103" lon="4.87238">
        <ele>168.49922</ele>
        <time>2023-07-11T08:22:06.000Z</time>
      </trkpt>
      <trkpt lat="45.79098" lon="4.87232">
        <ele>168.89705</ele>
        <time>2023-07-11T08:22:07.000Z</time>
      </trkpt>
      <trkpt lat="45.79094" lon="4.87225">
        <ele>169.11212</ele>
        <time>2023-07-11T08:22:08.000Z</time>
      </trkpt>
      <trkpt lat="45.7909" lon="4.8722">
        <ele>169.35706</ele>
        <time>2023-07-11T08:22:09.000Z</time>
      </trkpt>
      <trkpt lat="45.79086" lon="4.87214">
        <ele>169.5867</ele>
        <time>2023-07-11T08:22:10.000Z</time>
      </trkpt>
      <trkpt lat="45.79082" lon="4.87207">
        <ele>169.86258</ele>
        <time>2023-07-11T08:22:11.000Z</time>
      </trkpt>
      <trkpt lat="45.79079" lon="4.872">
        <ele>170.0499</ele>
        <time>2023-07-11T08:22:12.000Z</time>
      </trkpt>
      <trkpt lat="45.79076" lon="4.87193">
        <ele>170.23763</ele>
        <time>2023-07-11T08:22:13.000Z</time>
      </trkpt>
      <trkpt lat="45.79072" lon="4.87186">
        <ele>170.40851</ele>
        <time>2023-07-11T08:22:14.000Z</time>
      </trkpt>
      <trkpt lat="45.79069" lon="4.87179">
        <ele>170.60118</ele>
        <time>2023-07-11T08:22:15.000Z</time>
      </trkpt>
      <trkpt lat="45.79065" lon="4.87173">
        <ele>170.49387</ele>
        <time>2023-07-11T08:22:16.000Z</time>
      </trkpt>
      <trkpt lat="45.79062" lon="4.87166">
        <ele>170.41357</ele>
        <time>2023-07-11T08:22:17.000Z</time>
      </trkpt>
      <trkpt lat="45.79057" lon="4.87159">
        <ele>170.3206</ele>
        <time>2023-07-11T08:22:18.000Z</time>
      </trkpt>
      <trkpt lat="45.79053" lon="4.87152">
        <ele>170.20744</ele>
        <time>2023-07-11T08:22:19.000Z</time>
      </trkpt>
      <trkpt lat="45.79049" lon="4.87145">
        <ele>170.17488</ele>
        <time>2023-07-11T08:22:20.000Z</time>
      </trkpt>
      <trkpt lat="45.79046" lon="4.87137">
        <ele>170.08655</ele>
        <time>2023-07-11T08:22:21.000Z</time>
      </trkpt>
      <trkpt lat="45.79042" lon="4.8713">
        <ele>170.02084</ele>
        <time>2023-07-11T08:22:22.000Z</time>
      </trkpt>
      <trkpt lat="45.79038" lon="4.87122">
        <ele>169.92349</ele>
        <time>2023-07-11T08:22:23.000Z</time>
      </trkpt>
      <trkpt lat="45.79034" lon="4.87114">
        <ele>169.84413</ele>
        <time>2023-07-11T08:22:24.000Z</time>
      </trkpt>
      <trkpt lat="45.79031" lon="4.87107">
        <ele>169.82077</ele>
        <time>2023-07-11T08:22:25.000Z</time>
      </trkpt>
      <trkpt lat="45.79028" lon="4.87099">
        <ele>169.58922</ele>
        <time>2023-07-11T08:22:26.000Z</time>
      </trkpt>
      <trkpt lat="45.79026" lon="4.87091">
        <ele>169.40102</ele>
        <time>2023-07-11T08:22:27.000Z</time>
      </trkpt>
      <trkpt lat="45.79023" lon="4.87083">
        <ele>169.3576</ele>
        <time>2023-07-11T08:22:28.000Z</time>
      </trkpt>
      <trkpt lat="45.79021" lon="4.87075">
        <ele>169.27161</ele>
        <time>2023-07-11T08:22:29.000Z</time>
      </trkpt>
      <trkpt lat="45.79019" lon="4.87067">
        <ele>169.06387</ele>
        <time>2023-07-11T08:22:30.000Z</time>
      </trkpt>
      <trkpt lat="45.79018" lon="4.87059">
        <ele>168.78232</ele>
        <time>2023-07-11T08:22:31.000Z</time>
      </trkpt>
      <trkpt lat="45.79016" lon="4.87051">
        <ele>168.59537</ele>
        <time>2023-07-11T08:22:32.000Z</time>
      </trkpt>
      <trkpt lat="45.79015" lon="4.87042">
        <ele>168.42377</ele>
        <time>2023-07-11T08:22:33.000Z</time>
      </trkpt>
      <trkpt lat="45.79014" lon="4.87033">
        <ele>168.27521</ele>
        <time>2023-07-11T08:22:34.000Z</time>
      </trkpt>
      <trkpt lat="45.79013" lon="4.87025">
        <ele>168.05991</ele>
        <time>2023-07-11T08:22:35.000Z</time>
      </trkpt>
      <trkpt lat="45.79012" lon="4.87017">
        <ele>167.86674</ele>
        <time>2023-07-11T08:22:36.000Z</time>
      </trkpt>
      <trkpt lat="45.79011" lon="4.87008">
        <ele>167.67415</ele>
        <time>2023-07-11T08:22:37.000Z</time>
      </trkpt>
      <trkpt lat="45.79009" lon="4.87">
        <ele>167.46916</ele>
        <time>2023-07-11T08:22:38.000Z</time>
      </trkpt>
      <trkpt lat="45.79008" lon="4.86992">
        <ele>167.27072</ele>
        <time>2023-07-11T08:22:39.000Z</time>
      </trkpt>
      <trkpt lat="45.79007" lon="4.86983">
        <ele>166.99869</ele>
        <time>2023-07-11T08:22:40.000Z</time>
      </trkpt>
      <trkpt lat="45.79005" lon="4.86974">
        <ele>166.76089</ele>
        <time>2023-07-11T08:22:41.000Z</time>
      </trkpt>
      <trkpt lat="45.79006" lon="4.86969">
        <ele>166.52434</ele>
        <time>2023-07-11T08:22:42.000Z</time>
      </trkpt>
      <trkpt lat="45.79003" lon="4.8696">
        <ele>166.23848</ele>
        <time>2023-07-11T08:22:43.000Z</time>
      </trkpt>
      <trkpt lat="45.79001" lon="4.86952">
        <ele>165.97037</ele>
        <time>2023-07-11T08:22:44.000Z</time>
      </trkpt>
      <trkpt lat="45.78999" lon="4.86944">
        <ele>165.67288</ele>
        <time>2023-07-11T08:22:45.000Z</time>
      </trkpt>
      <trkpt lat="45.78996" lon="4.86936">
        <ele>165.4935</ele>
        <time>2023-07-11T08:22:46.000Z</time>
      </trkpt>
      <trkpt lat="45.78994" lon="4.86928">
        <ele>165.25017</ele>
        <time>2023-07-11T08:22:47.000Z</time>
      </trkpt>
      <trkpt lat="45.7899" lon="4.8692">
        <ele>165.0309</ele>
        <time>2023-07-11T08:22:48.000Z</time>
      </trkpt>
      <trkpt lat="45.78986" lon="4.86913">
        <ele>164.85538</ele>
        <time>2023-07-11T08:22:49.000Z</time>
      </trkpt>
      <trkpt lat="45.78983" lon="4.86905">
        <ele>164.80295</ele>
        <time>2023-07-11T08:22:50.000Z</time>
      </trkpt>
      <trkpt lat="45.78978" lon="4.86898">
        <ele>164.74168</ele>
        <time>2023-07-11T08:22:51.000Z</time>
      </trkpt>
      <trkpt lat="45.78974" lon="4.86893">
        <ele>164.70421</ele>
        <time>2023-07-11T08:22:52.000Z</time>
      </trkpt>
      <trkpt lat="45.7897" lon="4.86886">
        <ele>164.67532</ele>
        <time>2023-07-11T08:22:53.000Z</time>
      </trkpt>
      <trkpt lat="45.78966" lon="4.86879">
        <ele>164.57616</ele>
        <time>2023-07-11T08:22:54.000Z</time>
      </trkpt>
      <trkpt lat="45.78962" lon="4.86873">
        <ele>164.54662</ele>
        <time>2023-07-11T08:22:55.000Z</time>
      </trkpt>
      <trkpt lat="45.78958" lon="4.86868">
        <ele>164.53084</ele>
        <time>2023-07-11T08:22:56.000Z</time>
      </trkpt>
      <trkpt lat="45.78955" lon="4.86861">
        <ele>164.51152</ele>
        <time>2023-07-11T08:22:57.000Z</time>
      </trkpt>
      <trkpt lat="45.78952" lon="4.86855">
        <ele>164.5321</ele>
        <time>2023-07-11T08:22:58.000Z</time>
      </trkpt>
      <trkpt lat="45.7895" lon="4.86848">
        <ele>164.53464</ele>
        <time>2023-07-11T08:22:59.000Z</time>
      </trkpt>
      <trkpt lat="45.78946" lon="4.86841">
        <ele>164.5271</ele>
        <time>2023-07-11T08:23:00.000Z</time>
      </trkpt>
      <trkpt lat="45.78942" lon="4.86834">
        <ele>164.51776</ele>
        <time>2023-07-11T08:23:01.000Z</time>
      </trkpt>
      <trkpt lat="45.78938" lon="4.86827">
        <ele>164.51701</ele>
        <time>2023-07-11T08:23:02.000Z</time>
      </trkpt>
      <trkpt lat="45.78933" lon="4.86822">
        <ele>164.56316</ele>
        <time>2023-07-11T08:23:03.000Z</time>
      </trkpt>
      <trkpt lat="45.78929" lon="4.86815">
        <ele>164.62152</ele>
        <time>2023-07-11T08:23:04.000Z</time>
      </trkpt>
      <trkpt lat="45.78926" lon="4.86806">
        <ele>164.68533</ele>
        <time>2023-07-11T08:23:05.000Z</time>
      </trkpt>
      <trkpt lat="45.7892" lon="4.86799">
        <ele>164.71048</ele>
        <time>2023-07-11T08:23:06.000Z</time>
      </trkpt>
      <trkpt lat="45.78917" lon="4.86791">
        <ele>164.81485</ele>
        <time>2023-07-11T08:23:07.000Z</time>
      </trkpt>
      <trkpt lat="45.78914" lon="4.86784">
        <ele>164.91862</ele>
        <time>2023-07-11T08:23:08.000Z</time>
      </trkpt>
      <trkpt lat="45.7891" lon="4.86777">
        <ele>164.94572</ele>
        <time>2023-07-11T08:23:09.000Z</time>
      </trkpt>
      <trkpt lat="45.78906" lon="4.8677">
        <ele>164.98151</ele>
        <time>2023-07-11T08:23:10.000Z</time>
      </trkpt>
      <trkpt lat="45.78902" lon="4.86762">
        <ele>165.0578</ele>
        <time>2023-07-11T08:23:11.000Z</time>
      </trkpt>
      <trkpt lat="45.78899" lon="4.86757">
        <ele>165.10623</ele>
        <time>2023-07-11T08:23:12.000Z</time>
      </trkpt>
      <trkpt lat="45.78896" lon="4.86749">
        <ele>165.1595</ele>
        <time>2023-07-11T08:23:13.000Z</time>
      </trkpt>
      <trkpt lat="45.78893" lon="4.86742">
        <ele>165.27853</ele>
        <time>2023-07-11T08:23:14.000Z</time>
      </trkpt>
      <trkpt lat="45.78889" lon="4.86735">
        <ele>165.36746</ele>
        <time>2023-07-11T08:23:15.000Z</time>
      </trkpt>
      <trkpt lat="45.78886" lon="4.86728">
        <ele>165.43648</ele>
        <time>2023-07-11T08:23:16.000Z</time>
      </trkpt>
      <trkpt lat="45.78883" lon="4.86721">
        <ele>165.48895</ele>
        <time>2023-07-11T08:23:17.000Z</time>
      </trkpt>
      <trkpt lat="45.78879" lon="4.86714">
        <ele>165.5276</ele>
        <time>2023-07-11T08:23:18.000Z</time>
      </trkpt>
      <trkpt lat="45.78876" lon="4.86706">
        <ele>165.59854</ele>
        <time>2023-07-11T08:23:19.000Z</time>
      </trkpt>
      <trkpt lat="45.78872" lon="4.867">
        <ele>165.69006</ele>
        <time>2023-07-11T08:23:20.000Z</time>
      </trkpt>
      <trkpt lat="45.78868" lon="4.86692">
        <ele>165.77255</ele>
        <time>2023-07-11T08:23:21.000Z</time>
      </trkpt>
      <trkpt lat="45.78865" lon="4.86685">
        <ele>165.87224</ele>
        <time>2023-07-11T08:23:22.000Z</time>
      </trkpt>
      <trkpt lat="45.78862" lon="4.86677">
        <ele>165.90054</ele>
        <time>2023-07-11T08:23:23.000Z</time>
      </trkpt>
      <trkpt lat="45.78859" lon="4.86669">
        <ele>165.90881</ele>
        <time>2023-07-11T08:23:24.000Z</time>
      </trkpt>
      <trkpt lat="45.78855" lon="4.86662">
        <ele>165.90811</ele>
        <time>2023-07-11T08:23:25.000Z</time>
      </trkpt>
      <trkpt lat="45.78852" lon="4.86655">
        <ele>165.93704</ele>
        <time>2023-07-11T08:23:26.000Z</time>
      </trkpt>
      <trkpt lat="45.78848" lon="4.86648">
        <ele>165.92984</ele>
        <time>2023-07-11T08:23:27.000Z</time>
      </trkpt>
      <trkpt lat="45.78844" lon="4.86642">
        <ele>165.90045</ele>
        <time>2023-07-11T08:23:28.000Z</time>
      </trkpt>
      <trkpt lat="45.7884" lon="4.86635">
        <ele>165.9344</ele>
        <time>2023-07-11T08:23:29.000Z</time>
      </trkpt>
      <trkpt lat="45.78837" lon="4.86628">
        <ele>165.98111</ele>
        <time>2023-07-11T08:23:30.000Z</time>
      </trkpt>
      <trkpt lat="45.78833" lon="4.86621">
        <ele>166.03061</ele>
        <time>2023-07-11T08:23:31.000Z</time>
      </trkpt>
      <trkpt lat="45.78829" lon="4.86613">
        <ele>166.0874</ele>
        <time>2023-07-11T08:23:32.000Z</time>
      </trkpt>
      <trkpt lat="45.78826" lon="4.86606">
        <ele>166.11797</ele>
        <time>2023-07-11T08:23:33.000Z</time>
      </trkpt>
      <trkpt lat="45.78822" lon="4.86599">
        <ele>166.1467</ele>
        <time>2023-07-11T08:23:34.000Z</time>
      </trkpt>
      <trkpt lat="45.78818" lon="4.86592">
        <ele>166.17015</ele>
        <time>2023-07-11T08:23:35.000Z</time>
      </trkpt>
      <trkpt lat="45.78814" lon="4.86585">
        <ele>166.1982</ele>
        <time>2023-07-11T08:23:36.000Z</time>
      </trkpt>
      <trkpt lat="45.78811" lon="4.86577">
        <ele>166.23453</ele>
        <time>2023-07-11T08:23:37.000Z</time>
      </trkpt>
      <trkpt lat="45.78808" lon="4.8657">
        <ele>166.26787</ele>
        <time>2023-07-11T08:23:38.000Z</time>
      </trkpt>
      <trkpt lat="45.78805" lon="4.86562">
        <ele>166.28557</ele>
        <time>2023-07-11T08:23:39.000Z</time>
      </trkpt>
      <trkpt lat="45.78802" lon="4.86554">
        <ele>166.28883</ele>
        <time>2023-07-11T08:23:40.000Z</time>
      </trkpt>
      <trkpt lat="45.78799" lon="4.86546">
        <ele>166.28656</ele>
        <time>2023-07-11T08:23:41.000Z</time>
      </trkpt>
      <trkpt lat="45.78796" lon="4.86538">
        <ele>166.24478</ele>
        <time>2023-07-11T08:23:42.000Z</time>
      </trkpt>
      <trkpt lat="45.78794" lon="4.8653">
        <ele>166.2766</ele>
        <time>2023-07-11T08:23:43.000Z</time>
      </trkpt>
      <trkpt lat="45.78792" lon="4.86522">
        <ele>166.29587</ele>
        <time>2023-07-11T08:23:44.000Z</time>
      </trkpt>
      <trkpt lat="45.7879" lon="4.86513">
        <ele>166.31503</ele>
        <time>2023-07-11T08:23:45.000Z</time>
      </trkpt>
      <trkpt lat="45.78787" lon="4.86505">
        <ele>166.32266</ele>
        <time>2023-07-11T08:23:46.000Z</time>
      </trkpt>
      <trkpt lat="45.78785" lon="4.86497">
        <ele>166.35796</ele>
        <time>2023-07-11T08:23:47.000Z</time>
      </trkpt>
      <trkpt lat="45.78783" lon="4.86489">
        <ele>166.38547</ele>
        <time>2023-07-11T08:23:48.000Z</time>
      </trkpt>
      <trkpt lat="45.78781" lon="4.86481">
        <ele>166.39977</ele>
        <time>2023-07-11T08:23:49.000Z</time>
      </trkpt>
      <trkpt lat="45.78779" lon="4.86472">
        <ele>166.38507</ele>
        <time>2023-07-11T08:23:50.000Z</time>
      </trkpt>
      <trkpt lat="45.78778" lon="4.86464">
        <ele>166.38673</ele>
        <time>2023-07-11T08:23:51.000Z</time>
      </trkpt>
      <trkpt lat="45.78777" lon="4.86455">
        <ele>166.39787</ele>
        <time>2023-07-11T08:23:52.000Z</time>
      </trkpt>
      <trkpt lat="45.78775" lon="4.86447">
        <ele>166.42462</ele>
        <time>2023-07-11T08:23:53.000Z</time>
      </trkpt>
      <trkpt lat="45.78774" lon="4.86439">
        <ele>166.44119</ele>
        <time>2023-07-11T08:23:54.000Z</time>
      </trkpt>
      <trkpt lat="45.78774" lon="4.8643">
        <ele>166.45889</ele>
        <time>2023-07-11T08:23:55.000Z</time>
      </trkpt>
      <trkpt lat="45.78773" lon="4.86421">
        <ele>166.47012</ele>
        <time>2023-07-11T08:23:56.000Z</time>
      </trkpt>
      <trkpt lat="45.78772" lon="4.86413">
        <ele>166.48062</ele>
        <time>2023-07-11T08:23:57.000Z</time>
      </trkpt>
      <trkpt lat="45.78772" lon="4.86405">
        <ele>166.45918</ele>
        <time>2023-07-11T08:23:58.000Z</time>
      </trkpt>
      <trkpt lat="45.78772" lon="4.86395">
        <ele>166.46747</ele>
        <time>2023-07-11T08:23:59.000Z</time>
      </trkpt>
      <trkpt lat="45.78771" lon="4.86386">
        <ele>166.49335</ele>
        <time>2023-07-11T08:24:00.000Z</time>
      </trkpt>
      <trkpt lat="45.78771" lon="4.86376">
        <ele>166.52545</ele>
        <time>2023-07-11T08:24:01.000Z</time>
      </trkpt>
      <trkpt lat="45.78771" lon="4.86368">
        <ele>166.54361</ele>
        <time>2023-07-11T08:24:02.000Z</time>
      </trkpt>
      <trkpt lat="45.78769" lon="4.86359">
        <ele>166.55586</ele>
        <time>2023-07-11T08:24:03.000Z</time>
      </trkpt>
      <trkpt lat="45.78768" lon="4.8635">
        <ele>166.59128</ele>
        <time>2023-07-11T08:24:04.000Z</time>
      </trkpt>
      <trkpt lat="45.78767" lon="4.86342">
        <ele>166.63014</ele>
        <time>2023-07-11T08:24:05.000Z</time>
      </trkpt>
      <trkpt lat="45.78767" lon="4.86335">
        <ele>166.69698</ele>
        <time>2023-07-11T08:24:06.000Z</time>
      </trkpt>
      <trkpt lat="45.78765" lon="4.86326">
        <ele>166.73091</ele>
        <time>2023-07-11T08:24:07.000Z</time>
      </trkpt>
      <trkpt lat="45.78764" lon="4.86317">
        <ele>166.76804</ele>
        <time>2023-07-11T08:24:08.000Z</time>
      </trkpt>
      <trkpt lat="45.78763" lon="4.86308">
        <ele>166.77699</ele>
        <time>2023-07-11T08:24:09.000Z</time>
      </trkpt>
      <trkpt lat="45.78761" lon="4.86299">
        <ele>166.81793</ele>
        <time>2023-07-11T08:24:10.000Z</time>
      </trkpt>
      <trkpt lat="45.7876" lon="4.86291">
        <ele>166.8261</ele>
        <time>2023-07-11T08:24:11.000Z</time>
      </trkpt>
      <trkpt lat="45.78759" lon="4.86282">
        <ele>166.83336</ele>
        <time>2023-07-11T08:24:12.000Z</time>
      </trkpt>
      <trkpt lat="45.78757" lon="4.86272">
        <ele>166.79623</ele>
        <time>2023-07-11T08:24:13.000Z</time>
      </trkpt>
      <trkpt lat="45.78756" lon="4.86263">
        <ele>166.76791</ele>
        <time>2023-07-11T08:24:14.000Z</time>
      </trkpt>
      <trkpt lat="45.78756" lon="4.86254">
        <ele>166.73203</ele>
        <time>2023-07-11T08:24:15.000Z</time>
      </trkpt>
      <trkpt lat="45.78755" lon="4.86246">
        <ele>166.71092</ele>
        <time>2023-07-11T08:24:16.000Z</time>
      </trkpt>
      <trkpt lat="45.78754" lon="4.86237">
        <ele>166.69743</ele>
        <time>2023-07-11T08:24:17.000Z</time>
      </trkpt>
      <trkpt lat="45.78754" lon="4.86228">
        <ele>166.7119</ele>
        <time>2023-07-11T08:24:18.000Z</time>
      </trkpt>
      <trkpt lat="45.78753" lon="4.86219">
        <ele>166.7088</ele>
        <time>2023-07-11T08:24:19.000Z</time>
      </trkpt>
      <trkpt lat="45.78752" lon="4.86209">
        <ele>166.66219</ele>
        <time>2023-07-11T08:24:20.000Z</time>
      </trkpt>
      <trkpt lat="45.78752" lon="4.862">
        <ele>166.61983</ele>
        <time>2023-07-11T08:24:21.000Z</time>
      </trkpt>
      <trkpt lat="45.78752" lon="4.86192">
        <ele>166.59824</ele>
        <time>2023-07-11T08:24:22.000Z</time>
      </trkpt>
      <trkpt lat="45.78751" lon="4.86184">
        <ele>166.59447</ele>
        <time>2023-07-11T08:24:23.000Z</time>
      </trkpt>
      <trkpt lat="45.78751" lon="4.86175">
        <ele>166.72812</ele>
        <time>2023-07-11T08:24:24.000Z</time>
      </trkpt>
      <trkpt lat="45.7875" lon="4.86167">
        <ele>166.72942</ele>
        <time>2023-07-11T08:24:25.000Z</time>
      </trkpt>
      <trkpt lat="45.78751" lon="4.86158">
        <ele>166.71812</ele>
        <time>2023-07-11T08:24:26.000Z</time>
      </trkpt>
      <trkpt lat="45.78751" lon="4.86149">
        <ele>166.70132</ele>
        <time>2023-07-11T08:24:27.000Z</time>
      </trkpt>
      <trkpt lat="45.78751" lon="4.86141">
        <ele>166.69522</ele>
        <time>2023-07-11T08:24:28.000Z</time>
      </trkpt>
      <trkpt lat="45.78751" lon="4.86132">
        <ele>166.70924</ele>
        <time>2023-07-11T08:24:29.000Z</time>
      </trkpt>
      <trkpt lat="45.78751" lon="4.86124">
        <ele>166.71664</ele>
        <time>2023-07-11T08:24:30.000Z</time>
      </trkpt>
      <trkpt lat="45.78752" lon="4.86115">
        <ele>166.86978</ele>
        <time>2023-07-11T08:24:31.000Z</time>
      </trkpt>
      <trkpt lat="45.78752" lon="4.86106">
        <ele>167.02089</ele>
        <time>2023-07-11T08:24:32.000Z</time>
      </trkpt>
      <trkpt lat="45.78753" lon="4.86098">
        <ele>167.20303</ele>
        <time>2023-07-11T08:24:33.000Z</time>
      </trkpt>
      <trkpt lat="45.78754" lon="4.86088">
        <ele>167.37939</ele>
        <time>2023-07-11T08:24:34.000Z</time>
      </trkpt>
      <trkpt lat="45.78754" lon="4.86079">
        <ele>167.55557</ele>
        <time>2023-07-11T08:24:35.000Z</time>
      </trkpt>
      <trkpt lat="45.78755" lon="4.8607">
        <ele>167.70993</ele>
        <time>2023-07-11T08:24:36.000Z</time>
      </trkpt>
      <trkpt lat="45.78755" lon="4.86061">
        <ele>167.86746</ele>
        <time>2023-07-11T08:24:37.000Z</time>
      </trkpt>
      <trkpt lat="45.78755" lon="4.86052">
        <ele>168.022</ele>
        <time>2023-07-11T08:24:38.000Z</time>
      </trkpt>
      <trkpt lat="45.78756" lon="4.86045">
        <ele>168.18942</ele>
        <time>2023-07-11T08:24:39.000Z</time>
      </trkpt>
      <trkpt lat="45.78757" lon="4.86036">
        <ele>168.43823</ele>
        <time>2023-07-11T08:24:40.000Z</time>
      </trkpt>
      <trkpt lat="45.78757" lon="4.86027">
        <ele>168.6769</ele>
        <time>2023-07-11T08:24:41.000Z</time>
      </trkpt>
      <trkpt lat="45.78756" lon="4.86018">
        <ele>168.97119</ele>
        <time>2023-07-11T08:24:42.000Z</time>
      </trkpt>
      <trkpt lat="45.78756" lon="4.86009">
        <ele>169.23764</ele>
        <time>2023-07-11T08:24:43.000Z</time>
      </trkpt>
      <trkpt lat="45.78757" lon="4.86001">
        <ele>169.34734</ele>
        <time>2023-07-11T08:24:44.000Z</time>
      </trkpt>
      <trkpt lat="45.78757" lon="4.85993">
        <ele>169.61172</ele>
        <time>2023-07-11T08:24:45.000Z</time>
      </trkpt>
      <trkpt lat="45.78758" lon="4.85984">
        <ele>169.78296</ele>
        <time>2023-07-11T08:24:46.000Z</time>
      </trkpt>
      <trkpt lat="45.78757" lon="4.85975">
        <ele>170.01968</ele>
        <time>2023-07-11T08:24:47.000Z</time>
      </trkpt>
      <trkpt lat="45.78758" lon="4.85968">
        <ele>170.20679</ele>
        <time>2023-07-11T08:24:48.000Z</time>
      </trkpt>
      <trkpt lat="45.78758" lon="4.85959">
        <ele>170.27544</ele>
        <time>2023-07-11T08:24:49.000Z</time>
      </trkpt>
      <trkpt lat="45.78759" lon="4.8595">
        <ele>170.27304</ele>
        <time>2023-07-11T08:24:50.000Z</time>
      </trkpt>
      <trkpt lat="45.78759" lon="4.85941">
        <ele>170.17209</ele>
        <time>2023-07-11T08:24:51.000Z</time>
      </trkpt>
      <trkpt lat="45.7876" lon="4.85932">
        <ele>170.05264</ele>
        <time>2023-07-11T08:24:52.000Z</time>
      </trkpt>
      <trkpt lat="45.7876" lon="4.85923">
        <ele>170.12794</ele>
        <time>2023-07-11T08:24:53.000Z</time>
      </trkpt>
      <trkpt lat="45.78761" lon="4.85915">
        <ele>170.00282</ele>
        <time>2023-07-11T08:24:54.000Z</time>
      </trkpt>
      <trkpt lat="45.78761" lon="4.85906">
        <ele>169.85841</ele>
        <time>2023-07-11T08:24:55.000Z</time>
      </trkpt>
      <trkpt lat="45.78761" lon="4.85897">
        <ele>169.7225</ele>
        <time>2023-07-11T08:24:56.000Z</time>
      </trkpt>
      <trkpt lat="45.78762" lon="4.85889">
        <ele>169.62022</ele>
        <time>2023-07-11T08:24:57.000Z</time>
      </trkpt>
      <trkpt lat="45.78762" lon="4.8588">
        <ele>169.53044</ele>
        <time>2023-07-11T08:24:58.000Z</time>
      </trkpt>
      <trkpt lat="45.78763" lon="4.85871">
        <ele>169.41451</ele>
        <time>2023-07-11T08:24:59.000Z</time>
      </trkpt>
      <trkpt lat="45.78763" lon="4.85862">
        <ele>169.23007</ele>
        <time>2023-07-11T08:25:00.000Z</time>
      </trkpt>
      <trkpt lat="45.78762" lon="4.85853">
        <ele>169.04538</ele>
        <time>2023-07-11T08:25:01.000Z</time>
      </trkpt>
      <trkpt lat="45.78762" lon="4.85844">
        <ele>168.81619</ele>
        <time>2023-07-11T08:25:02.000Z</time>
      </trkpt>
      <trkpt lat="45.78762" lon="4.85835">
        <ele>168.61929</ele>
        <time>2023-07-11T08:25:03.000Z</time>
      </trkpt>
      <trkpt lat="45.78762" lon="4.85825">
        <ele>168.40163</ele>
        <time>2023-07-11T08:25:04.000Z</time>
      </trkpt>
      <trkpt lat="45.78761" lon="4.85815">
        <ele>168.16092</ele>
        <time>2023-07-11T08:25:05.000Z</time>
      </trkpt>
      <trkpt lat="45.78761" lon="4.85805">
        <ele>168.02878</ele>
        <time>2023-07-11T08:25:06.000Z</time>
      </trkpt>
      <trkpt lat="45.78761" lon="4.85797">
        <ele>167.82582</ele>
        <time>2023-07-11T08:25:07.000Z</time>
      </trkpt>
      <trkpt lat="45.78761" lon="4.85788">
        <ele>167.65657</ele>
        <time>2023-07-11T08:25:08.000Z</time>
      </trkpt>
      <trkpt lat="45.78762" lon="4.85779">
        <ele>167.65491</ele>
        <time>2023-07-11T08:25:09.000Z</time>
      </trkpt>
      <trkpt lat="45.78763" lon="4.85771">
        <ele>167.72891</ele>
        <time>2023-07-11T08:25:10.000Z</time>
      </trkpt>
      <trkpt lat="45.78763" lon="4.85762">
        <ele>167.76805</ele>
        <time>2023-07-11T08:25:11.000Z</time>
      </trkpt>
      <trkpt lat="45.78763" lon="4.85753">
        <ele>167.85979</ele>
        <time>2023-07-11T08:25:12.000Z</time>
      </trkpt>
      <trkpt lat="45.78764" lon="4.85746">
        <ele>167.78</ele>
        <time>2023-07-11T08:25:13.000Z</time>
      </trkpt>
      <trkpt lat="45.78764" lon="4.85737">
        <ele>167.88022</ele>
        <time>2023-07-11T08:25:14.000Z</time>
      </trkpt>
      <trkpt lat="45.78764" lon="4.85729">
        <ele>168.01189</ele>
        <time>2023-07-11T08:25:15.000Z</time>
      </trkpt>
      <trkpt lat="45.78764" lon="4.8572">
        <ele>168.13107</ele>
        <time>2023-07-11T08:25:16.000Z</time>
      </trkpt>
      <trkpt lat="45.78765" lon="4.85711">
        <ele>168.21687</ele>
        <time>2023-07-11T08:25:17.000Z</time>
      </trkpt>
      <trkpt lat="45.78766" lon="4.85701">
        <ele>168.28752</ele>
        <time>2023-07-11T08:25:18.000Z</time>
      </trkpt>
      <trkpt lat="45.78767" lon="4.85693">
        <ele>168.3562</ele>
        <time>2023-07-11T08:25:19.000Z</time>
      </trkpt>
      <trkpt lat="45.78767" lon="4.85684">
        <ele>168.4534</ele>
        <time>2023-07-11T08:25:20.000Z</time>
      </trkpt>
      <trkpt lat="45.78767" lon="4.85676">
        <ele>168.53311</ele>
        <time>2023-07-11T08:25:21.000Z</time>
      </trkpt>
      <trkpt lat="45.78767" lon="4.85667">
        <ele>168.56865</ele>
        <time>2023-07-11T08:25:22.000Z</time>
      </trkpt>
      <trkpt lat="45.78768" lon="4.85659">
        <ele>168.58273</ele>
        <time>2023-07-11T08:25:23.000Z</time>
      </trkpt>
      <trkpt lat="45.78768" lon="4.85649">
        <ele>168.63951</ele>
        <time>2023-07-11T08:25:24.000Z</time>
      </trkpt>
      <trkpt lat="45.78769" lon="4.8564">
        <ele>168.70274</ele>
        <time>2023-07-11T08:25:25.000Z</time>
      </trkpt>
      <trkpt lat="45.78769" lon="4.85632">
        <ele>168.72729</ele>
        <time>2023-07-11T08:25:26.000Z</time>
      </trkpt>
      <trkpt lat="45.78769" lon="4.85623">
        <ele>168.74715</ele>
        <time>2023-07-11T08:25:27.000Z</time>
      </trkpt>
      <trkpt lat="45.78768" lon="4.85615">
        <ele>168.78172</ele>
        <time>2023-07-11T08:25:28.000Z</time>
      </trkpt>
      <trkpt lat="45.78769" lon="4.85606">
        <ele>168.79906</ele>
        <time>2023-07-11T08:25:29.000Z</time>
      </trkpt>
      <trkpt lat="45.7877" lon="4.85597">
        <ele>168.80791</ele>
        <time>2023-07-11T08:25:30.000Z</time>
      </trkpt>
      <trkpt lat="45.7877" lon="4.85588">
        <ele>168.85081</ele>
        <time>2023-07-11T08:25:31.000Z</time>
      </trkpt>
      <trkpt lat="45.7877" lon="4.85579">
        <ele>168.84882</ele>
        <time>2023-07-11T08:25:32.000Z</time>
      </trkpt>
      <trkpt lat="45.78771" lon="4.85569">
        <ele>168.77512</ele>
        <time>2023-07-11T08:25:33.000Z</time>
      </trkpt>
      <trkpt lat="45.78771" lon="4.8556">
        <ele>168.70032</ele>
        <time>2023-07-11T08:25:34.000Z</time>
      </trkpt>
      <trkpt lat="45.78771" lon="4.85551">
        <ele>168.62244</ele>
        <time>2023-07-11T08:25:35.000Z</time>
      </trkpt>
      <trkpt lat="45.78771" lon="4.85542">
        <ele>168.59029</ele>
        <time>2023-07-11T08:25:36.000Z</time>
      </trkpt>
      <trkpt lat="45.78771" lon="4.85533">
        <ele>168.5535</ele>
        <time>2023-07-11T08:25:37.000Z</time>
      </trkpt>
      <trkpt lat="45.78772" lon="4.85524">
        <ele>168.5018</ele>
        <time>2023-07-11T08:25:38.000Z</time>
      </trkpt>
      <trkpt lat="45.78771" lon="4.85515">
        <ele>168.46582</ele>
        <time>2023-07-11T08:25:39.000Z</time>
      </trkpt>
      <trkpt lat="45.78771" lon="4.85507">
        <ele>168.43219</ele>
        <time>2023-07-11T08:25:40.000Z</time>
      </trkpt>
      <trkpt lat="45.7877" lon="4.85497">
        <ele>168.40739</ele>
        <time>2023-07-11T08:25:41.000Z</time>
      </trkpt>
      <trkpt lat="45.7877" lon="4.85489">
        <ele>168.4111</ele>
        <time>2023-07-11T08:25:42.000Z</time>
      </trkpt>
      <trkpt lat="45.7877" lon="4.85479">
        <ele>168.42619</ele>
        <time>2023-07-11T08:25:43.000Z</time>
      </trkpt>
      <trkpt lat="45.7877" lon="4.85471">
        <ele>168.42661</ele>
        <time>2023-07-11T08:25:44.000Z</time>
      </trkpt>
      <trkpt lat="45.7877" lon="4.85462">
        <ele>168.41136</ele>
        <time>2023-07-11T08:25:45.000Z</time>
      </trkpt>
      <trkpt lat="45.7877" lon="4.85453">
        <ele>168.41187</ele>
        <time>2023-07-11T08:25:46.000Z</time>
      </trkpt>
      <trkpt lat="45.78769" lon="4.85444">
        <ele>168.43137</ele>
        <time>2023-07-11T08:25:47.000Z</time>
      </trkpt>
      <trkpt lat="45.78768" lon="4.85436">
        <ele>168.44888</ele>
        <time>2023-07-11T08:25:48.000Z</time>
      </trkpt>
      <trkpt lat="45.78766" lon="4.85428">
        <ele>168.43594</ele>
        <time>2023-07-11T08:25:49.000Z</time>
      </trkpt>
      <trkpt lat="45.78763" lon="4.85419">
        <ele>168.41757</ele>
        <time>2023-07-11T08:25:50.000Z</time>
      </trkpt>
      <trkpt lat="45.78761" lon="4.85411">
        <ele>168.36011</ele>
        <time>2023-07-11T08:25:51.000Z</time>
      </trkpt>
      <trkpt lat="45.78759" lon="4.85403">
        <ele>168.32352</ele>
        <time>2023-07-11T08:25:52.000Z</time>
      </trkpt>
      <trkpt lat="45.78757" lon="4.85395">
        <ele>168.33385</ele>
        <time>2023-07-11T08:25:53.000Z</time>
      </trkpt>
      <trkpt lat="45.78755" lon="4.85387">
        <ele>168.35587</ele>
        <time>2023-07-11T08:25:54.000Z</time>
      </trkpt>
      <trkpt lat="45.78755" lon="4.85378">
        <ele>168.37444</ele>
        <time>2023-07-11T08:25:55.000Z</time>
      </trkpt>
      <trkpt lat="45.78753" lon="4.8537">
        <ele>168.36975</ele>
        <time>2023-07-11T08:25:56.000Z</time>
      </trkpt>
      <trkpt lat="45.78751" lon="4.85361">
        <ele>168.36368</ele>
        <time>2023-07-11T08:25:57.000Z</time>
      </trkpt>
      <trkpt lat="45.78751" lon="4.85353">
        <ele>168.38097</ele>
        <time>2023-07-11T08:25:58.000Z</time>
      </trkpt>
      <trkpt lat="45.78749" lon="4.85344">
        <ele>168.40118</ele>
        <time>2023-07-11T08:25:59.000Z</time>
      </trkpt>
      <trkpt lat="45.78748" lon="4.85336">
        <ele>168.38464</ele>
        <time>2023-07-11T08:26:00.000Z</time>
      </trkpt>
      <trkpt lat="45.78747" lon="4.85326">
        <ele>168.37479</ele>
        <time>2023-07-11T08:26:01.000Z</time>
      </trkpt>
      <trkpt lat="45.78745" lon="4.85318">
        <ele>168.36659</ele>
        <time>2023-07-11T08:26:02.000Z</time>
      </trkpt>
      <trkpt lat="45.78745" lon="4.8531">
        <ele>168.35565</ele>
        <time>2023-07-11T08:26:03.000Z</time>
      </trkpt>
      <trkpt lat="45.78744" lon="4.85301">
        <ele>168.36751</ele>
        <time>2023-07-11T08:26:04.000Z</time>
      </trkpt>
      <trkpt lat="45.78744" lon="4.85293">
        <ele>168.37843</ele>
        <time>2023-07-11T08:26:05.000Z</time>
      </trkpt>
      <trkpt lat="45.78743" lon="4.85285">
        <ele>168.38551</ele>
        <time>2023-07-11T08:26:06.000Z</time>
      </trkpt>
      <trkpt lat="45.78742" lon="4.85276">
        <ele>168.37018</ele>
        <time>2023-07-11T08:26:07.000Z</time>
      </trkpt>
      <trkpt lat="45.78741" lon="4.85267">
        <ele>168.37924</ele>
        <time>2023-07-11T08:26:08.000Z</time>
      </trkpt>
      <trkpt lat="45.78741" lon="4.85258">
        <ele>168.38332</ele>
        <time>2023-07-11T08:26:09.000Z</time>
      </trkpt>
      <trkpt lat="45.7874" lon="4.85251">
        <ele>168.40617</ele>
        <time>2023-07-11T08:26:10.000Z</time>
      </trkpt>
      <trkpt lat="45.7874" lon="4.85241">
        <ele>168.41861</ele>
        <time>2023-07-11T08:26:11.000Z</time>
      </trkpt>
      <trkpt lat="45.78738" lon="4.85232">
        <ele>168.42615</ele>
        <time>2023-07-11T08:26:12.000Z</time>
      </trkpt>
      <trkpt lat="45.78735" lon="4.85226">
        <ele>168.42621</ele>
        <time>2023-07-11T08:26:13.000Z</time>
      </trkpt>
      <trkpt lat="45.78732" lon="4.8522">
        <ele>168.42258</ele>
        <time>2023-07-11T08:26:14.000Z</time>
      </trkpt>
      <trkpt lat="45.78728" lon="4.85213">
        <ele>168.42088</ele>
        <time>2023-07-11T08:26:15.000Z</time>
      </trkpt>
      <trkpt lat="45.78726" lon="4.85206">
        <ele>168.39424</ele>
        <time>2023-07-11T08:26:16.000Z</time>
      </trkpt>
      <trkpt lat="45.78723" lon="4.85198">
        <ele>168.36934</ele>
        <time>2023-07-11T08:26:17.000Z</time>
      </trkpt>
      <trkpt lat="45.7872" lon="4.8519">
        <ele>168.33569</ele>
        <time>2023-07-11T08:26:18.000Z</time>
      </trkpt>
      <trkpt lat="45.78716" lon="4.85183">
        <ele>168.30283</ele>
        <time>2023-07-11T08:26:19.000Z</time>
      </trkpt>
      <trkpt lat="45.78713" lon="4.85177">
        <ele>168.30231</ele>
        <time>2023-07-11T08:26:20.000Z</time>
      </trkpt>
      <trkpt lat="45.78709" lon="4.8517">
        <ele>168.33177</ele>
        <time>2023-07-11T08:26:21.000Z</time>
      </trkpt>
      <trkpt lat="45.78707" lon="4.85163">
        <ele>168.37106</ele>
        <time>2023-07-11T08:26:22.000Z</time>
      </trkpt>
      <trkpt lat="45.78703" lon="4.85155">
        <ele>168.41304</ele>
        <time>2023-07-11T08:26:23.000Z</time>
      </trkpt>
      <trkpt lat="45.787" lon="4.85148">
        <ele>168.43364</ele>
        <time>2023-07-11T08:26:24.000Z</time>
      </trkpt>
      <trkpt lat="45.78696" lon="4.85141">
        <ele>168.45049</ele>
        <time>2023-07-11T08:26:25.000Z</time>
      </trkpt>
      <trkpt lat="45.78692" lon="4.85134">
        <ele>168.4816</ele>
        <time>2023-07-11T08:26:26.000Z</time>
      </trkpt>
      <trkpt lat="45.78688" lon="4.85127">
        <ele>168.53748</ele>
        <time>2023-07-11T08:26:27.000Z</time>
      </trkpt>
      <trkpt lat="45.78684" lon="4.85119">
        <ele>168.56871</ele>
        <time>2023-07-11T08:26:28.000Z</time>
      </trkpt>
      <trkpt lat="45.78681" lon="4.85111">
        <ele>168.56389</ele>
        <time>2023-07-11T08:26:29.000Z</time>
      </trkpt>
      <trkpt lat="45.78678" lon="4.85104">
        <ele>168.55406</ele>
        <time>2023-07-11T08:26:30.000Z</time>
      </trkpt>
      <trkpt lat="45.78675" lon="4.85097">
        <ele>168.55795</ele>
        <time>2023-07-11T08:26:31.000Z</time>
      </trkpt>
      <trkpt lat="45.78671" lon="4.8509">
        <ele>168.55827</ele>
        <time>2023-07-11T08:26:32.000Z</time>
      </trkpt>
      <trkpt lat="45.78669" lon="4.85083">
        <ele>168.55992</ele>
        <time>2023-07-11T08:26:33.000Z</time>
      </trkpt>
      <trkpt lat="45.78665" lon="4.85077">
        <ele>168.55484</ele>
        <time>2023-07-11T08:26:34.000Z</time>
      </trkpt>
      <trkpt lat="45.78661" lon="4.85069">
        <ele>168.53389</ele>
        <time>2023-07-11T08:26:35.000Z</time>
      </trkpt>
      <trkpt lat="45.78658" lon="4.85063">
        <ele>168.54082</ele>
        <time>2023-07-11T08:26:36.000Z</time>
      </trkpt>
      <trkpt lat="45.78654" lon="4.85055">
        <ele>168.55412</ele>
        <time>2023-07-11T08:26:37.000Z</time>
      </trkpt>
      <trkpt lat="45.78651" lon="4.85048">
        <ele>168.577</ele>
        <time>2023-07-11T08:26:38.000Z</time>
      </trkpt>
      <trkpt lat="45.78647" lon="4.8504">
        <ele>168.56429</ele>
        <time>2023-07-11T08:26:39.000Z</time>
      </trkpt>
      <trkpt lat="45.78644" lon="4.85033">
        <ele>168.53323</ele>
        <time>2023-07-11T08:26:40.000Z</time>
      </trkpt>
      <trkpt lat="45.7864" lon="4.85026">
        <ele>168.47142</ele>
        <time>2023-07-11T08:26:41.000Z</time>
      </trkpt>
      <trkpt lat="45.78637" lon="4.85019">
        <ele>168.38193</ele>
        <time>2023-07-11T08:26:42.000Z</time>
      </trkpt>
      <trkpt lat="45.78633" lon="4.85012">
        <ele>168.32231</ele>
        <time>2023-07-11T08:26:43.000Z</time>
      </trkpt>
      <trkpt lat="45.7863" lon="4.85005">
        <ele>168.26498</ele>
        <time>2023-07-11T08:26:44.000Z</time>
      </trkpt>
      <trkpt lat="45.78626" lon="4.84998">
        <ele>168.22034</ele>
        <time>2023-07-11T08:26:45.000Z</time>
      </trkpt>
      <trkpt lat="45.78623" lon="4.8499">
        <ele>168.19164</ele>
        <time>2023-07-11T08:26:46.000Z</time>
      </trkpt>
      <trkpt lat="45.7862" lon="4.84983">
        <ele>168.14223</ele>
        <time>2023-07-11T08:26:47.000Z</time>
      </trkpt>
      <trkpt lat="45.78616" lon="4.84975">
        <ele>168.11145</ele>
        <time>2023-07-11T08:26:48.000Z</time>
      </trkpt>
      <trkpt lat="45.78612" lon="4.84968">
        <ele>168.12907</ele>
        <time>2023-07-11T08:26:49.000Z</time>
      </trkpt>
      <trkpt lat="45.7861" lon="4.8496">
        <ele>168.12589</ele>
        <time>2023-07-11T08:26:50.000Z</time>
      </trkpt>
      <trkpt lat="45.78606" lon="4.84953">
        <ele>168.12711</ele>
        <time>2023-07-11T08:26:51.000Z</time>
      </trkpt>
      <trkpt lat="45.78602" lon="4.84946">
        <ele>168.10078</ele>
        <time>2023-07-11T08:26:52.000Z</time>
      </trkpt>
      <trkpt lat="45.78598" lon="4.84939">
        <ele>168.10794</ele>
        <time>2023-07-11T08:26:53.000Z</time>
      </trkpt>
      <trkpt lat="45.78595" lon="4.84931">
        <ele>168.12007</ele>
        <time>2023-07-11T08:26:54.000Z</time>
      </trkpt>
      <trkpt lat="45.78592" lon="4.84924">
        <ele>168.16776</ele>
        <time>2023-07-11T08:26:55.000Z</time>
      </trkpt>
      <trkpt lat="45.78589" lon="4.84916">
        <ele>168.19131</ele>
        <time>2023-07-11T08:26:56.000Z</time>
      </trkpt>
      <trkpt lat="45.78586" lon="4.8491">
        <ele>168.20744</ele>
        <time>2023-07-11T08:26:57.000Z</time>
      </trkpt>
      <trkpt lat="45.78581" lon="4.84903">
        <ele>168.20476</ele>
        <time>2023-07-11T08:26:58.000Z</time>
      </trkpt>
      <trkpt lat="45.78578" lon="4.84895">
        <ele>168.21144</ele>
        <time>2023-07-11T08:26:59.000Z</time>
      </trkpt>
      <trkpt lat="45.78574" lon="4.84888">
        <ele>168.25905</ele>
        <time>2023-07-11T08:27:00.000Z</time>
      </trkpt>
      <trkpt lat="45.78571" lon="4.84881">
        <ele>168.29881</ele>
        <time>2023-07-11T08:27:01.000Z</time>
      </trkpt>
      <trkpt lat="45.78567" lon="4.84874">
        <ele>168.31494</ele>
        <time>2023-07-11T08:27:02.000Z</time>
      </trkpt>
      <trkpt lat="45.78563" lon="4.84866">
        <ele>168.30174</ele>
        <time>2023-07-11T08:27:03.000Z</time>
      </trkpt>
      <trkpt lat="45.7856" lon="4.84859">
        <ele>168.29282</ele>
        <time>2023-07-11T08:27:04.000Z</time>
      </trkpt>
      <trkpt lat="45.78556" lon="4.84853">
        <ele>168.2998</ele>
        <time>2023-07-11T08:27:05.000Z</time>
      </trkpt>
      <trkpt lat="45.78552" lon="4.84845">
        <ele>168.2943</ele>
        <time>2023-07-11T08:27:06.000Z</time>
      </trkpt>
      <trkpt lat="45.78548" lon="4.84838">
        <ele>168.31004</ele>
        <time>2023-07-11T08:27:07.000Z</time>
      </trkpt>
      <trkpt lat="45.78545" lon="4.84831">
        <ele>168.28323</ele>
        <time>2023-07-11T08:27:08.000Z</time>
      </trkpt>
      <trkpt lat="45.78542" lon="4.84823">
        <ele>168.27231</ele>
        <time>2023-07-11T08:27:09.000Z</time>
      </trkpt>
      <trkpt lat="45.78538" lon="4.84816">
        <ele>168.24966</ele>
        <time>2023-07-11T08:27:10.000Z</time>
      </trkpt>
      <trkpt lat="45.78535" lon="4.84809">
        <ele>168.24774</ele>
        <time>2023-07-11T08:27:11.000Z</time>
      </trkpt>
      <trkpt lat="45.78532" lon="4.84801">
        <ele>168.32005</ele>
        <time>2023-07-11T08:27:12.000Z</time>
      </trkpt>
      <trkpt lat="45.78529" lon="4.84794">
        <ele>168.38461</ele>
        <time>2023-07-11T08:27:13.000Z</time>
      </trkpt>
      <trkpt lat="45.78526" lon="4.84786">
        <ele>168.48419</ele>
        <time>2023-07-11T08:27:14.000Z</time>
      </trkpt>
      <trkpt lat="45.78522" lon="4.84779">
        <ele>168.57158</ele>
        <time>2023-07-11T08:27:15.000Z</time>
      </trkpt>
      <trkpt lat="45.78518" lon="4.84771">
        <ele>168.65587</ele>
        <time>2023-07-11T08:27:16.000Z</time>
      </trkpt>
      <trkpt lat="45.78514" lon="4.84765">
        <ele>168.70229</ele>
        <time>2023-07-11T08:27:17.000Z</time>
      </trkpt>
      <trkpt lat="45.7851" lon="4.84758">
        <ele>168.74948</ele>
        <time>2023-07-11T08:27:18.000Z</time>
      </trkpt>
      <trkpt lat="45.78506" lon="4.84751">
        <ele>168.80887</ele>
        <time>2023-07-11T08:27:19.000Z</time>
      </trkpt>
      <trkpt lat="45.78503" lon="4.84744">
        <ele>168.85892</ele>
        <time>2023-07-11T08:27:20.000Z</time>
      </trkpt>
      <trkpt lat="45.78499" lon="4.84737">
        <ele>168.93144</ele>
        <time>2023-07-11T08:27:21.000Z</time>
      </trkpt>
      <trkpt lat="45.78495" lon="4.84731">
        <ele>169.07253</ele>
        <time>2023-07-11T08:27:22.000Z</time>
      </trkpt>
      <trkpt lat="45.78491" lon="4.84724">
        <ele>169.22299</ele>
        <time>2023-07-11T08:27:23.000Z</time>
      </trkpt>
      <trkpt lat="45.78488" lon="4.84718">
        <ele>169.34697</ele>
        <time>2023-07-11T08:27:24.000Z</time>
      </trkpt>
      <trkpt lat="45.78486" lon="4.8471">
        <ele>169.45494</ele>
        <time>2023-07-11T08:27:25.000Z</time>
      </trkpt>
      <trkpt lat="45.78483" lon="4.84705">
        <ele>169.55957</ele>
        <time>2023-07-11T08:27:26.000Z</time>
      </trkpt>
      <trkpt lat="45.78481" lon="4.847">
        <ele>169.64525</ele>
        <time>2023-07-11T08:27:27.000Z</time>
      </trkpt>
      <trkpt lat="45.78477" lon="4.84696">
        <ele>169.74014</ele>
        <time>2023-07-11T08:27:28.000Z</time>
      </trkpt>
      <trkpt lat="45.78473" lon="4.84692">
        <ele>169.83519</ele>
        <time>2023-07-11T08:27:29.000Z</time>
      </trkpt>
      <trkpt lat="45.7847" lon="4.84687">
        <ele>169.9601</ele>
        <time>2023-07-11T08:27:30.000Z</time>
      </trkpt>
      <trkpt lat="45.78466" lon="4.84679">
        <ele>170.04874</ele>
        <time>2023-07-11T08:27:31.000Z</time>
      </trkpt>
      <trkpt lat="45.78461" lon="4.84675">
        <ele>170.0972</ele>
        <time>2023-07-11T08:27:32.000Z</time>
      </trkpt>
      <trkpt lat="45.78458" lon="4.84669">
        <ele>170.11079</ele>
        <time>2023-07-11T08:27:33.000Z</time>
      </trkpt>
      <trkpt lat="45.78455" lon="4.84664">
        <ele>170.0853</ele>
        <time>2023-07-11T08:27:34.000Z</time>
      </trkpt>
      <trkpt lat="45.78451" lon="4.84658">
        <ele>170.01793</ele>
        <time>2023-07-11T08:27:35.000Z</time>
      </trkpt>
      <trkpt lat="45.78448" lon="4.84653">
        <ele>169.93983</ele>
        <time>2023-07-11T08:27:36.000Z</time>
      </trkpt>
      <trkpt lat="45.78445" lon="4.84648">
        <ele>169.85056</ele>
        <time>2023-07-11T08:27:37.000Z</time>
      </trkpt>
      <trkpt lat="45.78441" lon="4.84643">
        <ele>169.72456</ele>
        <time>2023-07-11T08:27:38.000Z</time>
      </trkpt>
      <trkpt lat="45.78438" lon="4.84639">
        <ele>169.59492</ele>
        <time>2023-07-11T08:27:39.000Z</time>
      </trkpt>
      <trkpt lat="45.78434" lon="4.84634">
        <ele>169.4263</ele>
        <time>2023-07-11T08:27:40.000Z</time>
      </trkpt>
      <trkpt lat="45.78432" lon="4.8463">
        <ele>169.23972</ele>
        <time>2023-07-11T08:27:41.000Z</time>
      </trkpt>
      <trkpt lat="45.78429" lon="4.84626">
        <ele>169.03654</ele>
        <time>2023-07-11T08:27:42.000Z</time>
      </trkpt>
      <trkpt lat="45.78427" lon="4.84622">
        <ele>168.81882</ele>
        <time>2023-07-11T08:27:43.000Z</time>
      </trkpt>
      <trkpt lat="45.78424" lon="4.84618">
        <ele>168.60167</ele>
        <time>2023-07-11T08:27:44.000Z</time>
      </trkpt>
      <trkpt lat="45.78423" lon="4.84616">
        <ele>168.3793</ele>
        <time>2023-07-11T08:27:45.000Z</time>
      </trkpt>
      <trkpt lat="45.7842" lon="4.84611">
        <ele>168.14702</ele>
        <time>2023-07-11T08:27:47.000Z</time>
      </trkpt>
      <trkpt lat="45.78419" lon="4.84609">
        <ele>167.92123</ele>
        <time>2023-07-11T08:27:48.000Z</time>
      </trkpt>
      <trkpt lat="45.78417" lon="4.84607">
        <ele>167.70319</ele>
        <time>2023-07-11T08:27:49.000Z</time>
      </trkpt>
      <trkpt lat="45.78415" lon="4.84605">
        <ele>167.46349</ele>
        <time>2023-07-11T08:27:50.000Z</time>
      </trkpt>
      <trkpt lat="45.78412" lon="4.84602">
        <ele>167.24063</ele>
        <time>2023-07-11T08:27:51.000Z</time>
      </trkpt>
      <trkpt lat="45.7841" lon="4.84599">
        <ele>167.05206</ele>
        <time>2023-07-11T08:27:52.000Z</time>
      </trkpt>
      <trkpt lat="45.78408" lon="4.84597">
        <ele>166.84755</ele>
        <time>2023-07-11T08:27:53.000Z</time>
      </trkpt>
      <trkpt lat="45.78405" lon="4.84593">
        <ele>166.66881</ele>
        <time>2023-07-11T08:27:54.000Z</time>
      </trkpt>
      <trkpt lat="45.78403" lon="4.84589">
        <ele>166.51541</ele>
        <time>2023-07-11T08:27:55.000Z</time>
      </trkpt>
      <trkpt lat="45.78399" lon="4.84584">
        <ele>166.39413</ele>
        <time>2023-07-11T08:27:56.000Z</time>
      </trkpt>
      <trkpt lat="45.78396" lon="4.8458">
        <ele>166.30002</ele>
        <time>2023-07-11T08:27:57.000Z</time>
      </trkpt>
      <trkpt lat="45.78391" lon="4.84574">
        <ele>166.19986</ele>
        <time>2023-07-11T08:27:58.000Z</time>
      </trkpt>
      <trkpt lat="45.78388" lon="4.84571">
        <ele>166.22815</ele>
        <time>2023-07-11T08:27:59.000Z</time>
      </trkpt>
      <trkpt lat="45.78385" lon="4.84567">
        <ele>166.26489</ele>
        <time>2023-07-11T08:28:00.000Z</time>
      </trkpt>
      <trkpt lat="45.78382" lon="4.84563">
        <ele>166.29791</ele>
        <time>2023-07-11T08:28:01.000Z</time>
      </trkpt>
      <trkpt lat="45.78378" lon="4.84558">
        <ele>166.33963</ele>
        <time>2023-07-11T08:28:02.000Z</time>
      </trkpt>
      <trkpt lat="45.78375" lon="4.84553">
        <ele>166.39105</ele>
        <time>2023-07-11T08:28:03.000Z</time>
      </trkpt>
      <trkpt lat="45.78373" lon="4.84552">
        <ele>166.41359</ele>
        <time>2023-07-11T08:28:04.000Z</time>
      </trkpt>
      <trkpt lat="45.78369" lon="4.84547">
        <ele>166.40805</ele>
        <time>2023-07-11T08:28:05.000Z</time>
      </trkpt>
      <trkpt lat="45.78367" lon="4.84543">
        <ele>166.38597</ele>
        <time>2023-07-11T08:28:06.000Z</time>
      </trkpt>
      <trkpt lat="45.78365" lon="4.8454">
        <ele>166.37912</ele>
        <time>2023-07-11T08:28:07.000Z</time>
      </trkpt>
      <trkpt lat="45.78362" lon="4.84536">
        <ele>166.38023</ele>
        <time>2023-07-11T08:28:08.000Z</time>
      </trkpt>
      <trkpt lat="45.78359" lon="4.84532">
        <ele>166.3571</ele>
        <time>2023-07-11T08:28:09.000Z</time>
      </trkpt>
      <trkpt lat="45.78357" lon="4.84528">
        <ele>166.30548</ele>
        <time>2023-07-11T08:28:10.000Z</time>
      </trkpt>
      <trkpt lat="45.78354" lon="4.84523">
        <ele>166.24138</ele>
        <time>2023-07-11T08:28:11.000Z</time>
      </trkpt>
      <trkpt lat="45.78351" lon="4.84519">
        <ele>166.16003</ele>
        <time>2023-07-11T08:28:12.000Z</time>
      </trkpt>
      <trkpt lat="45.78348" lon="4.84514">
        <ele>166.10988</ele>
        <time>2023-07-11T08:28:13.000Z</time>
      </trkpt>
      <trkpt lat="45.78346" lon="4.8451">
        <ele>166.06625</ele>
        <time>2023-07-11T08:28:14.000Z</time>
      </trkpt>
      <trkpt lat="45.78343" lon="4.84505">
        <ele>165.99319</ele>
        <time>2023-07-11T08:28:15.000Z</time>
      </trkpt>
      <trkpt lat="45.7834" lon="4.845">
        <ele>165.93661</ele>
        <time>2023-07-11T08:28:16.000Z</time>
      </trkpt>
      <trkpt lat="45.78336" lon="4.84496">
        <ele>165.88066</ele>
        <time>2023-07-11T08:28:17.000Z</time>
      </trkpt>
      <trkpt lat="45.78332" lon="4.84491">
        <ele>165.90445</ele>
        <time>2023-07-11T08:28:18.000Z</time>
      </trkpt>
      <trkpt lat="45.78329" lon="4.84487">
        <ele>165.87631</ele>
        <time>2023-07-11T08:28:19.000Z</time>
      </trkpt>
      <trkpt lat="45.78325" lon="4.84483">
        <ele>165.85776</ele>
        <time>2023-07-11T08:28:20.000Z</time>
      </trkpt>
      <trkpt lat="45.78321" lon="4.84479">
        <ele>165.8967</ele>
        <time>2023-07-11T08:28:21.000Z</time>
      </trkpt>
      <trkpt lat="45.78317" lon="4.84475">
        <ele>165.9368</ele>
        <time>2023-07-11T08:28:22.000Z</time>
      </trkpt>
      <trkpt lat="45.78314" lon="4.84472">
        <ele>166.00027</ele>
        <time>2023-07-11T08:28:23.000Z</time>
      </trkpt>
      <trkpt lat="45.78311" lon="4.84468">
        <ele>166.08003</ele>
        <time>2023-07-11T08:28:24.000Z</time>
      </trkpt>
      <trkpt lat="45.78308" lon="4.84465">
        <ele>166.22783</ele>
        <time>2023-07-11T08:28:25.000Z</time>
      </trkpt>
      <trkpt lat="45.78305" lon="4.84462">
        <ele>166.425</ele>
        <time>2023-07-11T08:28:26.000Z</time>
      </trkpt>
      <trkpt lat="45.78302" lon="4.84459">
        <ele>166.63515</ele>
        <time>2023-07-11T08:28:27.000Z</time>
      </trkpt>
      <trkpt lat="45.78299" lon="4.84456">
        <ele>166.88927</ele>
        <time>2023-07-11T08:28:28.000Z</time>
      </trkpt>
      <trkpt lat="45.78296" lon="4.84453">
        <ele>167.18185</ele>
        <time>2023-07-11T08:28:29.000Z</time>
      </trkpt>
      <trkpt lat="45.78293" lon="4.84451">
        <ele>167.52142</ele>
        <time>2023-07-11T08:28:30.000Z</time>
      </trkpt>
      <trkpt lat="45.78291" lon="4.84448">
        <ele>167.86555</ele>
        <time>2023-07-11T08:28:31.000Z</time>
      </trkpt>
      <trkpt lat="45.78288" lon="4.84444">
        <ele>168.1991</ele>
        <time>2023-07-11T08:28:32.000Z</time>
      </trkpt>
      <trkpt lat="45.78285" lon="4.84441">
        <ele>168.52812</ele>
        <time>2023-07-11T08:28:33.000Z</time>
      </trkpt>
      <trkpt lat="45.78282" lon="4.84439">
        <ele>168.82019</ele>
        <time>2023-07-11T08:28:34.000Z</time>
      </trkpt>
      <trkpt lat="45.78279" lon="4.84435">
        <ele>169.09933</ele>
        <time>2023-07-11T08:28:35.000Z</time>
      </trkpt>
      <trkpt lat="45.78275" lon="4.84432">
        <ele>169.38229</ele>
        <time>2023-07-11T08:28:36.000Z</time>
      </trkpt>
      <trkpt lat="45.78271" lon="4.84429">
        <ele>169.69156</ele>
        <time>2023-07-11T08:28:37.000Z</time>
      </trkpt>
      <trkpt lat="45.78269" lon="4.84426">
        <ele>169.9549</ele>
        <time>2023-07-11T08:28:38.000Z</time>
      </trkpt>
      <trkpt lat="45.78266" lon="4.84423">
        <ele>170.20602</ele>
        <time>2023-07-11T08:28:39.000Z</time>
      </trkpt>
      <trkpt lat="45.78263" lon="4.8442">
        <ele>170.48701</ele>
        <time>2023-07-11T08:28:40.000Z</time>
      </trkpt>
      <trkpt lat="45.7826" lon="4.84418">
        <ele>170.69287</ele>
        <time>2023-07-11T08:28:41.000Z</time>
      </trkpt>
      <trkpt lat="45.78258" lon="4.84416">
        <ele>170.94109</ele>
        <time>2023-07-11T08:28:42.000Z</time>
      </trkpt>
      <trkpt lat="45.78256" lon="4.84416">
        <ele>171.08047</ele>
        <time>2023-07-11T08:28:44.000Z</time>
      </trkpt>
      <trkpt lat="45.78254" lon="4.84415">
        <ele>171.24208</ele>
        <time>2023-07-11T08:28:47.000Z</time>
      </trkpt>
      <trkpt lat="45.78252" lon="4.84413">
        <ele>171.41055</ele>
        <time>2023-07-11T08:28:50.000Z</time>
      </trkpt>
      <trkpt lat="45.78251" lon="4.84411">
        <ele>171.57004</ele>
        <time>2023-07-11T08:28:51.000Z</time>
      </trkpt>
      <trkpt lat="45.78249" lon="4.84409">
        <ele>171.68178</ele>
        <time>2023-07-11T08:28:52.000Z</time>
      </trkpt>
      <trkpt lat="45.78246" lon="4.84406">
        <ele>171.76009</ele>
        <time>2023-07-11T08:28:53.000Z</time>
      </trkpt>
      <trkpt lat="45.78244" lon="4.84403">
        <ele>171.7907</ele>
        <time>2023-07-11T08:28:54.000Z</time>
      </trkpt>
      <trkpt lat="45.78241" lon="4.844">
        <ele>171.79422</ele>
        <time>2023-07-11T08:28:55.000Z</time>
      </trkpt>
      <trkpt lat="45.78239" lon="4.84398">
        <ele>171.80579</ele>
        <time>2023-07-11T08:28:56.000Z</time>
      </trkpt>
      <trkpt lat="45.78237" lon="4.84395">
        <ele>171.82219</ele>
        <time>2023-07-11T08:28:57.000Z</time>
      </trkpt>
      <trkpt lat="45.78235" lon="4.84393">
        <ele>171.80453</ele>
        <time>2023-07-11T08:28:58.000Z</time>
      </trkpt>
      <trkpt lat="45.78232" lon="4.84389">
        <ele>171.68051</ele>
        <time>2023-07-11T08:28:59.000Z</time>
      </trkpt>
      <trkpt lat="45.78229" lon="4.84387">
        <ele>171.63533</ele>
        <time>2023-07-11T08:29:00.000Z</time>
      </trkpt>
      <trkpt lat="45.78227" lon="4.84384">
        <ele>171.56195</ele>
        <time>2023-07-11T08:29:01.000Z</time>
      </trkpt>
      <trkpt lat="45.78224" lon="4.8438">
        <ele>171.46796</ele>
        <time>2023-07-11T08:29:02.000Z</time>
      </trkpt>
      <trkpt lat="45.78221" lon="4.84377">
        <ele>171.39886</ele>
        <time>2023-07-11T08:29:03.000Z</time>
      </trkpt>
      <trkpt lat="45.78219" lon="4.84374">
        <ele>171.306</ele>
        <time>2023-07-11T08:29:04.000Z</time>
      </trkpt>
      <trkpt lat="45.78217" lon="4.84373">
        <ele>171.18088</ele>
        <time>2023-07-11T08:29:05.000Z</time>
      </trkpt>
      <trkpt lat="45.78215" lon="4.84371">
        <ele>171.02756</ele>
        <time>2023-07-11T08:29:08.000Z</time>
      </trkpt>
      <trkpt lat="45.78213" lon="4.84369">
        <ele>170.8154</ele>
        <time>2023-07-11T08:29:11.000Z</time>
      </trkpt>
      <trkpt lat="45.78211" lon="4.84369">
        <ele>170.71359</ele>
        <time>2023-07-11T08:29:13.000Z</time>
      </trkpt>
      <trkpt lat="45.7821" lon="4.84367">
        <ele>170.59373</ele>
        <time>2023-07-11T08:29:19.000Z</time>
      </trkpt>
      <trkpt lat="45.78208" lon="4.84365">
        <ele>170.40628</ele>
        <time>2023-07-11T08:29:22.000Z</time>
      </trkpt>
      <trkpt lat="45.78206" lon="4.84364">
        <ele>170.23831</ele>
        <time>2023-07-11T08:29:26.000Z</time>
      </trkpt>
      <trkpt lat="45.78204" lon="4.84362">
        <ele>170.09232</ele>
        <time>2023-07-11T08:29:28.000Z</time>
      </trkpt>
      <trkpt lat="45.78203" lon="4.8436">
        <ele>169.9659</ele>
        <time>2023-07-11T08:29:30.000Z</time>
      </trkpt>
      <trkpt lat="45.78201" lon="4.84359">
        <ele>169.8746</ele>
        <time>2023-07-11T08:29:32.000Z</time>
      </trkpt>
      <trkpt lat="45.78199" lon="4.84357">
        <ele>169.79732</ele>
        <time>2023-07-11T08:29:35.000Z</time>
      </trkpt>
      <trkpt lat="45.78197" lon="4.84355">
        <ele>169.67493</ele>
        <time>2023-07-11T08:29:37.000Z</time>
      </trkpt>
      <trkpt lat="45.78195" lon="4.84352">
        <ele>169.53474</ele>
        <time>2023-07-11T08:29:39.000Z</time>
      </trkpt>
      <trkpt lat="45.78192" lon="4.84349">
        <ele>169.40726</ele>
        <time>2023-07-11T08:29:41.000Z</time>
      </trkpt>
      <trkpt lat="45.78191" lon="4.84347">
        <ele>169.40179</ele>
        <time>2023-07-11T08:29:42.000Z</time>
      </trkpt>
      <trkpt lat="45.78189" lon="4.84345">
        <ele>169.35519</ele>
        <time>2023-07-11T08:29:43.000Z</time>
      </trkpt>
      <trkpt lat="45.78187" lon="4.84343">
        <ele>169.34334</ele>
        <time>2023-07-11T08:29:44.000Z</time>
      </trkpt>
      <trkpt lat="45.78185" lon="4.84341">
        <ele>169.22533</ele>
        <time>2023-07-11T08:29:45.000Z</time>
      </trkpt>
      <trkpt lat="45.78184" lon="4.84339">
        <ele>169.07954</ele>
        <time>2023-07-11T08:29:46.000Z</time>
      </trkpt>
      <trkpt lat="45.78182" lon="4.84336">
        <ele>168.95822</ele>
        <time>2023-07-11T08:29:47.000Z</time>
      </trkpt>
      <trkpt lat="45.7818" lon="4.84335">
        <ele>168.84602</ele>
        <time>2023-07-11T08:29:48.000Z</time>
      </trkpt>
      <trkpt lat="45.78178" lon="4.84333">
        <ele>168.80553</ele>
        <time>2023-07-11T08:29:49.000Z</time>
      </trkpt>
      <trkpt lat="45.78176" lon="4.84332">
        <ele>168.7953</ele>
        <time>2023-07-11T08:29:50.000Z</time>
      </trkpt>
      <trkpt lat="45.78173" lon="4.8433">
        <ele>168.77554</ele>
        <time>2023-07-11T08:29:51.000Z</time>
      </trkpt>
      <trkpt lat="45.7817" lon="4.84327">
        <ele>168.77127</ele>
        <time>2023-07-11T08:29:52.000Z</time>
      </trkpt>
      <trkpt lat="45.78167" lon="4.84325">
        <ele>168.82693</ele>
        <time>2023-07-11T08:29:53.000Z</time>
      </trkpt>
      <trkpt lat="45.78164" lon="4.84322">
        <ele>168.86772</ele>
        <time>2023-07-11T08:29:54.000Z</time>
      </trkpt>
      <trkpt lat="45.78162" lon="4.8432">
        <ele>168.90231</ele>
        <time>2023-07-11T08:29:55.000Z</time>
      </trkpt>
      <trkpt lat="45.78159" lon="4.84318">
        <ele>168.89117</ele>
        <time>2023-07-11T08:29:56.000Z</time>
      </trkpt>
      <trkpt lat="45.78156" lon="4.84315">
        <ele>168.92624</ele>
        <time>2023-07-11T08:29:57.000Z</time>
      </trkpt>
      <trkpt lat="45.78154" lon="4.84313">
        <ele>168.95242</ele>
        <time>2023-07-11T08:29:58.000Z</time>
      </trkpt>
      <trkpt lat="45.78152" lon="4.84312">
        <ele>168.98183</ele>
        <time>2023-07-11T08:29:59.000Z</time>
      </trkpt>
      <trkpt lat="45.7815" lon="4.8431">
        <ele>169.04013</ele>
        <time>2023-07-11T08:30:00.000Z</time>
      </trkpt>
      <trkpt lat="45.78147" lon="4.84307">
        <ele>169.10838</ele>
        <time>2023-07-11T08:30:01.000Z</time>
      </trkpt>
      <trkpt lat="45.78144" lon="4.84304">
        <ele>169.21487</ele>
        <time>2023-07-11T08:30:02.000Z</time>
      </trkpt>
      <trkpt lat="45.7814" lon="4.84302">
        <ele>169.34497</ele>
        <time>2023-07-11T08:30:03.000Z</time>
      </trkpt>
      <trkpt lat="45.78138" lon="4.84299">
        <ele>169.42775</ele>
        <time>2023-07-11T08:30:04.000Z</time>
      </trkpt>
      <trkpt lat="45.78134" lon="4.84296">
        <ele>169.61745</ele>
        <time>2023-07-11T08:30:05.000Z</time>
      </trkpt>
      <trkpt lat="45.78131" lon="4.84292">
        <ele>169.85027</ele>
        <time>2023-07-11T08:30:06.000Z</time>
      </trkpt>
      <trkpt lat="45.78127" lon="4.84289">
        <ele>170.08105</ele>
        <time>2023-07-11T08:30:07.000Z</time>
      </trkpt>
      <trkpt lat="45.78124" lon="4.84286">
        <ele>170.29984</ele>
        <time>2023-07-11T08:30:08.000Z</time>
      </trkpt>
      <trkpt lat="45.78122" lon="4.84284">
        <ele>170.48903</ele>
        <time>2023-07-11T08:30:09.000Z</time>
      </trkpt>
      <trkpt lat="45.78119" lon="4.84282">
        <ele>170.66368</ele>
        <time>2023-07-11T08:30:10.000Z</time>
      </trkpt>
      <trkpt lat="45.78115" lon="4.84281">
        <ele>170.80774</ele>
        <time>2023-07-11T08:30:11.000Z</time>
      </trkpt>
      <trkpt lat="45.78112" lon="4.84279">
        <ele>170.95035</ele>
        <time>2023-07-11T08:30:12.000Z</time>
      </trkpt>
      <trkpt lat="45.78109" lon="4.84276">
        <ele>171.0601</ele>
        <time>2023-07-11T08:30:13.000Z</time>
      </trkpt>
      <trkpt lat="45.78106" lon="4.84274">
        <ele>171.16043</ele>
        <time>2023-07-11T08:30:14.000Z</time>
      </trkpt>
      <trkpt lat="45.78104" lon="4.84272">
        <ele>171.22534</ele>
        <time>2023-07-11T08:30:15.000Z</time>
      </trkpt>
      <trkpt lat="45.78101" lon="4.8427">
        <ele>171.30411</ele>
        <time>2023-07-11T08:30:16.000Z</time>
      </trkpt>
      <trkpt lat="45.78098" lon="4.84267">
        <ele>171.36633</ele>
        <time>2023-07-11T08:30:17.000Z</time>
      </trkpt>
      <trkpt lat="45.78095" lon="4.84265">
        <ele>171.45691</ele>
        <time>2023-07-11T08:30:18.000Z</time>
      </trkpt>
      <trkpt lat="45.78092" lon="4.84264">
        <ele>171.5343</ele>
        <time>2023-07-11T08:30:19.000Z</time>
      </trkpt>
      <trkpt lat="45.78088" lon="4.84262">
        <ele>171.60732</ele>
        <time>2023-07-11T08:30:20.000Z</time>
      </trkpt>
      <trkpt lat="45.78085" lon="4.8426">
        <ele>171.69304</ele>
        <time>2023-07-11T08:30:21.000Z</time>
      </trkpt>
      <trkpt lat="45.78081" lon="4.84257">
        <ele>171.7377</ele>
        <time>2023-07-11T08:30:22.000Z</time>
      </trkpt>
      <trkpt lat="45.78078" lon="4.84254">
        <ele>171.76291</ele>
        <time>2023-07-11T08:30:23.000Z</time>
      </trkpt>
      <trkpt lat="45.78075" lon="4.84251">
        <ele>171.78975</ele>
        <time>2023-07-11T08:30:24.000Z</time>
      </trkpt>
      <trkpt lat="45.78071" lon="4.84248">
        <ele>171.81862</ele>
        <time>2023-07-11T08:30:25.000Z</time>
      </trkpt>
      <trkpt lat="45.78067" lon="4.84247">
        <ele>171.85065</ele>
        <time>2023-07-11T08:30:26.000Z</time>
      </trkpt>
      <trkpt lat="45.78063" lon="4.84246">
        <ele>171.8555</ele>
        <time>2023-07-11T08:30:27.000Z</time>
      </trkpt>
      <trkpt lat="45.78054" lon="4.84243">
        <ele>171.85304</ele>
        <time>2023-07-11T08:30:28.000Z</time>
      </trkpt>
      <trkpt lat="45.7805" lon="4.8424">
        <ele>171.86389</ele>
        <time>2023-07-11T08:30:29.000Z</time>
      </trkpt>
      <trkpt lat="45.78047" lon="4.84237">
        <ele>171.83781</ele>
        <time>2023-07-11T08:30:30.000Z</time>
      </trkpt>
      <trkpt lat="45.78045" lon="4.84234">
        <ele>171.81339</ele>
        <time>2023-07-11T08:30:31.000Z</time>
      </trkpt>
      <trkpt lat="45.7804" lon="4.84231">
        <ele>171.76662</ele>
        <time>2023-07-11T08:30:32.000Z</time>
      </trkpt>
      <trkpt lat="45.78036" lon="4.84229">
        <ele>171.75555</ele>
        <time>2023-07-11T08:30:33.000Z</time>
      </trkpt>
      <trkpt lat="45.78032" lon="4.84226">
        <ele>171.70451</ele>
        <time>2023-07-11T08:30:34.000Z</time>
      </trkpt>
      <trkpt lat="45.78029" lon="4.84223">
        <ele>171.71265</ele>
        <time>2023-07-11T08:30:35.000Z</time>
      </trkpt>
      <trkpt lat="45.78027" lon="4.84221">
        <ele>171.72928</ele>
        <time>2023-07-11T08:30:36.000Z</time>
      </trkpt>
      <trkpt lat="45.78025" lon="4.84218">
        <ele>171.68306</ele>
        <time>2023-07-11T08:30:37.000Z</time>
      </trkpt>
      <trkpt lat="45.78022" lon="4.84217">
        <ele>171.63591</ele>
        <time>2023-07-11T08:30:39.000Z</time>
      </trkpt>
      <trkpt lat="45.7802" lon="4.84217">
        <ele>171.67474</ele>
        <time>2023-07-11T08:30:48.000Z</time>
      </trkpt>
      <trkpt lat="45.78018" lon="4.84216">
        <ele>171.70139</ele>
        <time>2023-07-11T08:30:55.000Z</time>
      </trkpt>
      <trkpt lat="45.78015" lon="4.84214">
        <ele>171.69717</ele>
        <time>2023-07-11T08:30:57.000Z</time>
      </trkpt>
      <trkpt lat="45.78012" lon="4.84211">
        <ele>171.7132</ele>
        <time>2023-07-11T08:30:59.000Z</time>
      </trkpt>
      <trkpt lat="45.78009" lon="4.84209">
        <ele>171.72269</ele>
        <time>2023-07-11T08:31:00.000Z</time>
      </trkpt>
      <trkpt lat="45.78006" lon="4.84207">
        <ele>171.73729</ele>
        <time>2023-07-11T08:31:01.000Z</time>
      </trkpt>
      <trkpt lat="45.78003" lon="4.84205">
        <ele>171.7448</ele>
        <time>2023-07-11T08:31:02.000Z</time>
      </trkpt>
      <trkpt lat="45.77999" lon="4.84202">
        <ele>171.73563</ele>
        <time>2023-07-11T08:31:03.000Z</time>
      </trkpt>
      <trkpt lat="45.77996" lon="4.842">
        <ele>171.73547</ele>
        <time>2023-07-11T08:31:04.000Z</time>
      </trkpt>
      <trkpt lat="45.77992" lon="4.84198">
        <ele>171.73871</ele>
        <time>2023-07-11T08:31:05.000Z</time>
      </trkpt>
      <trkpt lat="45.77989" lon="4.84197">
        <ele>171.75089</ele>
        <time>2023-07-11T08:31:06.000Z</time>
      </trkpt>
      <trkpt lat="45.77987" lon="4.84195">
        <ele>171.83406</ele>
        <time>2023-07-11T08:31:07.000Z</time>
      </trkpt>
      <trkpt lat="45.77984" lon="4.84194">
        <ele>171.87051</ele>
        <time>2023-07-11T08:31:08.000Z</time>
      </trkpt>
      <trkpt lat="45.77981" lon="4.84192">
        <ele>171.9305</ele>
        <time>2023-07-11T08:31:09.000Z</time>
      </trkpt>
      <trkpt lat="45.77978" lon="4.8419">
        <ele>171.9722</ele>
        <time>2023-07-11T08:31:10.000Z</time>
      </trkpt>
      <trkpt lat="45.77975" lon="4.84187">
        <ele>172.06252</ele>
        <time>2023-07-11T08:31:11.000Z</time>
      </trkpt>
      <trkpt lat="45.77972" lon="4.84185">
        <ele>172.14645</ele>
        <time>2023-07-11T08:31:12.000Z</time>
      </trkpt>
      <trkpt lat="45.77969" lon="4.84183">
        <ele>172.19733</ele>
        <time>2023-07-11T08:31:13.000Z</time>
      </trkpt>
      <trkpt lat="45.77967" lon="4.84181">
        <ele>172.29637</ele>
        <time>2023-07-11T08:31:14.000Z</time>
      </trkpt>
      <trkpt lat="45.77964" lon="4.8418">
        <ele>172.36639</ele>
        <time>2023-07-11T08:31:15.000Z</time>
      </trkpt>
      <trkpt lat="45.77961" lon="4.84178">
        <ele>172.37479</ele>
        <time>2023-07-11T08:31:16.000Z</time>
      </trkpt>
      <trkpt lat="45.77958" lon="4.84177">
        <ele>172.38214</ele>
        <time>2023-07-11T08:31:17.000Z</time>
      </trkpt>
      <trkpt lat="45.77956" lon="4.84176">
        <ele>172.409</ele>
        <time>2023-07-11T08:31:18.000Z</time>
      </trkpt>
      <trkpt lat="45.77953" lon="4.84174">
        <ele>172.50273</ele>
        <time>2023-07-11T08:31:20.000Z</time>
      </trkpt>
      <trkpt lat="45.7795" lon="4.84172">
        <ele>172.60854</ele>
        <time>2023-07-11T08:31:22.000Z</time>
      </trkpt>
      <trkpt lat="45.77948" lon="4.8417">
        <ele>172.77254</ele>
        <time>2023-07-11T08:31:23.000Z</time>
      </trkpt>
      <trkpt lat="45.77947" lon="4.84169">
        <ele>172.95003</ele>
        <time>2023-07-11T08:31:24.000Z</time>
      </trkpt>
      <trkpt lat="45.77945" lon="4.84168">
        <ele>173.16461</ele>
        <time>2023-07-11T08:31:25.000Z</time>
      </trkpt>
      <trkpt lat="45.77943" lon="4.84167">
        <ele>173.4118</ele>
        <time>2023-07-11T08:31:26.000Z</time>
      </trkpt>
      <trkpt lat="45.77941" lon="4.84166">
        <ele>173.64612</ele>
        <time>2023-07-11T08:31:27.000Z</time>
      </trkpt>
      <trkpt lat="45.77939" lon="4.84165">
        <ele>173.86066</ele>
        <time>2023-07-11T08:31:28.000Z</time>
      </trkpt>
      <trkpt lat="45.77937" lon="4.84165">
        <ele>174.04614</ele>
        <time>2023-07-11T08:31:29.000Z</time>
      </trkpt>
      <trkpt lat="45.77935" lon="4.84164">
        <ele>174.27255</ele>
        <time>2023-07-11T08:31:30.000Z</time>
      </trkpt>
      <trkpt lat="45.77932" lon="4.84163">
        <ele>174.48331</ele>
        <time>2023-07-11T08:31:32.000Z</time>
      </trkpt>
      <trkpt lat="45.7793" lon="4.84162">
        <ele>174.69534</ele>
        <time>2023-07-11T08:31:33.000Z</time>
      </trkpt>
      <trkpt lat="45.77928" lon="4.84162">
        <ele>174.84604</ele>
        <time>2023-07-11T08:31:34.000Z</time>
      </trkpt>
      <trkpt lat="45.77926" lon="4.84161">
        <ele>175.01744</ele>
        <time>2023-07-11T08:31:35.000Z</time>
      </trkpt>
      <trkpt lat="45.77924" lon="4.8416">
        <ele>175.20734</ele>
        <time>2023-07-11T08:31:36.000Z</time>
      </trkpt>
      <trkpt lat="45.77922" lon="4.8416">
        <ele>175.37347</ele>
        <time>2023-07-11T08:31:37.000Z</time>
      </trkpt>
      <trkpt lat="45.7792" lon="4.84159">
        <ele>175.5806</ele>
        <time>2023-07-11T08:31:38.000Z</time>
      </trkpt>
      <trkpt lat="45.77917" lon="4.84159">
        <ele>175.79277</ele>
        <time>2023-07-11T08:31:39.000Z</time>
      </trkpt>
      <trkpt lat="45.77914" lon="4.84159">
        <ele>176.01874</ele>
        <time>2023-07-11T08:31:40.000Z</time>
      </trkpt>
      <trkpt lat="45.7791" lon="4.84158">
        <ele>176.2187</ele>
        <time>2023-07-11T08:31:41.000Z</time>
      </trkpt>
      <trkpt lat="45.77907" lon="4.84158">
        <ele>176.34427</ele>
        <time>2023-07-11T08:31:42.000Z</time>
      </trkpt>
      <trkpt lat="45.77903" lon="4.84157">
        <ele>176.44331</ele>
        <time>2023-07-11T08:31:43.000Z</time>
      </trkpt>
      <trkpt lat="45.77899" lon="4.84156">
        <ele>176.49443</ele>
        <time>2023-07-11T08:31:44.000Z</time>
      </trkpt>
      <trkpt lat="45.77896" lon="4.84155">
        <ele>176.54858</ele>
        <time>2023-07-11T08:31:45.000Z</time>
      </trkpt>
      <trkpt lat="45.77893" lon="4.84153">
        <ele>176.53233</ele>
        <time>2023-07-11T08:31:46.000Z</time>
      </trkpt>
      <trkpt lat="45.77891" lon="4.84149">
        <ele>176.46422</ele>
        <time>2023-07-11T08:31:47.000Z</time>
      </trkpt>
      <trkpt lat="45.77889" lon="4.84147">
        <ele>176.39706</ele>
        <time>2023-07-11T08:31:48.000Z</time>
      </trkpt>
      <trkpt lat="45.77886" lon="4.84144">
        <ele>176.34468</ele>
        <time>2023-07-11T08:31:49.000Z</time>
      </trkpt>
      <trkpt lat="45.77884" lon="4.84143">
        <ele>176.29393</ele>
        <time>2023-07-11T08:31:50.000Z</time>
      </trkpt>
      <trkpt lat="45.77881" lon="4.84141">
        <ele>176.23015</ele>
        <time>2023-07-11T08:31:51.000Z</time>
      </trkpt>
      <trkpt lat="45.77879" lon="4.84139">
        <ele>176.13065</ele>
        <time>2023-07-11T08:31:53.000Z</time>
      </trkpt>
      <trkpt lat="45.77877" lon="4.84138">
        <ele>175.91055</ele>
        <time>2023-07-11T08:31:58.000Z</time>
      </trkpt>
      <trkpt lat="45.77875" lon="4.84136">
        <ele>175.69415</ele>
        <time>2023-07-11T08:32:01.000Z</time>
      </trkpt>
      <trkpt lat="45.77874" lon="4.84134">
        <ele>175.3817</ele>
        <time>2023-07-11T08:32:11.000Z</time>
      </trkpt>
      <trkpt lat="45.77872" lon="4.84132">
        <ele>175.19666</ele>
        <time>2023-07-11T08:32:17.000Z</time>
      </trkpt>
      <trkpt lat="45.77871" lon="4.8413">
        <ele>175.02977</ele>
        <time>2023-07-11T08:32:23.000Z</time>
      </trkpt>
      <trkpt lat="45.7787" lon="4.84129">
        <ele>174.81479</ele>
        <time>2023-07-11T08:32:30.000Z</time>
      </trkpt>
      <trkpt lat="45.77867" lon="4.84127">
        <ele>174.50772</ele>
        <time>2023-07-11T08:32:34.000Z</time>
      </trkpt>
      <trkpt lat="45.77866" lon="4.84128">
        <ele>174.1636</ele>
        <time>2023-07-11T08:32:49.000Z</time>
      </trkpt>
      <trkpt lat="45.77863" lon="4.84126">
        <ele>173.86299</ele>
        <time>2023-07-11T08:32:51.000Z</time>
      </trkpt>
      <trkpt lat="45.77862" lon="4.84124">
        <ele>173.59419</ele>
        <time>2023-07-11T08:32:53.000Z</time>
      </trkpt>
      <trkpt lat="45.77859" lon="4.84122">
        <ele>173.30974</ele>
        <time>2023-07-11T08:32:55.000Z</time>
      </trkpt>
      <trkpt lat="45.77856" lon="4.84121">
        <ele>173.03941</ele>
        <time>2023-07-11T08:32:56.000Z</time>
      </trkpt>
      <trkpt lat="45.77854" lon="4.84119">
        <ele>172.72757</ele>
        <time>2023-07-11T08:32:57.000Z</time>
      </trkpt>
      <trkpt lat="45.77852" lon="4.84118">
        <ele>172.45145</ele>
        <time>2023-07-11T08:32:58.000Z</time>
      </trkpt>
      <trkpt lat="45.7785" lon="4.84117">
        <ele>172.15849</ele>
        <time>2023-07-11T08:32:59.000Z</time>
      </trkpt>
      <trkpt lat="45.77848" lon="4.84115">
        <ele>171.89621</ele>
        <time>2023-07-11T08:33:00.000Z</time>
      </trkpt>
      <trkpt lat="45.77846" lon="4.84114">
        <ele>171.66232</ele>
        <time>2023-07-11T08:33:01.000Z</time>
      </trkpt>
      <trkpt lat="45.77844" lon="4.84113">
        <ele>171.44991</ele>
        <time>2023-07-11T08:33:02.000Z</time>
      </trkpt>
      <trkpt lat="45.77842" lon="4.84111">
        <ele>171.25357</ele>
        <time>2023-07-11T08:33:04.000Z</time>
      </trkpt>
      <trkpt lat="45.7784" lon="4.84109">
        <ele>171.12935</ele>
        <time>2023-07-11T08:33:06.000Z</time>
      </trkpt>
      <trkpt lat="45.77836" lon="4.84107">
        <ele>171.15921</ele>
        <time>2023-07-11T08:33:08.000Z</time>
      </trkpt>
      <trkpt lat="45.77835" lon="4.84105">
        <ele>171.21646</ele>
        <time>2023-07-11T08:33:09.000Z</time>
      </trkpt>
      <trkpt lat="45.77832" lon="4.84103">
        <ele>171.39812</ele>
        <time>2023-07-11T08:33:11.000Z</time>
      </trkpt>
      <trkpt lat="45.77829" lon="4.84103">
        <ele>171.4608</ele>
        <time>2023-07-11T08:33:13.000Z</time>
      </trkpt>
      <trkpt lat="45.77828" lon="4.84102">
        <ele>171.5159</ele>
        <time>2023-07-11T08:33:14.000Z</time>
      </trkpt>
      <trkpt lat="45.77826" lon="4.84102">
        <ele>171.58105</ele>
        <time>2023-07-11T08:33:15.000Z</time>
      </trkpt>
      <trkpt lat="45.77822" lon="4.84101">
        <ele>171.71347</ele>
        <time>2023-07-11T08:33:17.000Z</time>
      </trkpt>
      <trkpt lat="45.7782" lon="4.84101">
        <ele>171.81412</ele>
        <time>2023-07-11T08:33:18.000Z</time>
      </trkpt>
      <trkpt lat="45.77817" lon="4.84099">
        <ele>171.91476</ele>
        <time>2023-07-11T08:33:19.000Z</time>
      </trkpt>
      <trkpt lat="45.77815" lon="4.84097">
        <ele>171.97762</ele>
        <time>2023-07-11T08:33:20.000Z</time>
      </trkpt>
      <trkpt lat="45.77813" lon="4.84095">
        <ele>172.10631</ele>
        <time>2023-07-11T08:33:21.000Z</time>
      </trkpt>
      <trkpt lat="45.77811" lon="4.84094">
        <ele>172.24057</ele>
        <time>2023-07-11T08:33:22.000Z</time>
      </trkpt>
      <trkpt lat="45.77809" lon="4.84093">
        <ele>172.42416</ele>
        <time>2023-07-11T08:33:23.000Z</time>
      </trkpt>
      <trkpt lat="45.77806" lon="4.84092">
        <ele>172.60318</ele>
        <time>2023-07-11T08:33:24.000Z</time>
      </trkpt>
      <trkpt lat="45.77804" lon="4.84091">
        <ele>172.68068</ele>
        <time>2023-07-11T08:33:25.000Z</time>
      </trkpt>
      <trkpt lat="45.77802" lon="4.8409">
        <ele>172.73625</ele>
        <time>2023-07-11T08:33:26.000Z</time>
      </trkpt>
      <trkpt lat="45.77799" lon="4.84089">
        <ele>172.7648</ele>
        <time>2023-07-11T08:33:27.000Z</time>
      </trkpt>
      <trkpt lat="45.77796" lon="4.84087">
        <ele>172.77689</ele>
        <time>2023-07-11T08:33:28.000Z</time>
      </trkpt>
      <trkpt lat="45.77792" lon="4.84086">
        <ele>172.79742</ele>
        <time>2023-07-11T08:33:29.000Z</time>
      </trkpt>
      <trkpt lat="45.77789" lon="4.84085">
        <ele>172.79665</ele>
        <time>2023-07-11T08:33:30.000Z</time>
      </trkpt>
      <trkpt lat="45.77786" lon="4.84083">
        <ele>172.74786</ele>
        <time>2023-07-11T08:33:31.000Z</time>
      </trkpt>
      <trkpt lat="45.77782" lon="4.84081">
        <ele>172.61514</ele>
        <time>2023-07-11T08:33:32.000Z</time>
      </trkpt>
      <trkpt lat="45.77779" lon="4.84079">
        <ele>172.3997</ele>
        <time>2023-07-11T08:33:33.000Z</time>
      </trkpt>
      <trkpt lat="45.77775" lon="4.84077">
        <ele>172.20981</ele>
        <time>2023-07-11T08:33:34.000Z</time>
      </trkpt>
      <trkpt lat="45.77771" lon="4.84074">
        <ele>172.03021</ele>
        <time>2023-07-11T08:33:35.000Z</time>
      </trkpt>
      <trkpt lat="45.77768" lon="4.84073">
        <ele>171.83823</ele>
        <time>2023-07-11T08:33:36.000Z</time>
      </trkpt>
      <trkpt lat="45.77764" lon="4.84072">
        <ele>171.67953</ele>
        <time>2023-07-11T08:33:37.000Z</time>
      </trkpt>
      <trkpt lat="45.7776" lon="4.8407">
        <ele>171.51749</ele>
        <time>2023-07-11T08:33:38.000Z</time>
      </trkpt>
      <trkpt lat="45.77755" lon="4.84068">
        <ele>171.36494</ele>
        <time>2023-07-11T08:33:39.000Z</time>
      </trkpt>
      <trkpt lat="45.77748" lon="4.84064">
        <ele>171.24078</ele>
        <time>2023-07-11T08:33:40.000Z</time>
      </trkpt>
      <trkpt lat="45.77742" lon="4.84061">
        <ele>171.11313</ele>
        <time>2023-07-11T08:33:41.000Z</time>
      </trkpt>
      <trkpt lat="45.77738" lon="4.84058">
        <ele>170.94598</ele>
        <time>2023-07-11T08:33:42.000Z</time>
      </trkpt>
      <trkpt lat="45.77734" lon="4.84057">
        <ele>170.7164</ele>
        <time>2023-07-11T08:33:43.000Z</time>
      </trkpt>
      <trkpt lat="45.77729" lon="4.84056">
        <ele>170.49112</ele>
        <time>2023-07-11T08:33:44.000Z</time>
      </trkpt>
      <trkpt lat="45.77726" lon="4.84054">
        <ele>170.40025</ele>
        <time>2023-07-11T08:33:45.000Z</time>
      </trkpt>
      <trkpt lat="45.77723" lon="4.84051">
        <ele>170.33063</ele>
        <time>2023-07-11T08:33:46.000Z</time>
      </trkpt>
      <trkpt lat="45.7772" lon="4.8405">
        <ele>170.28331</ele>
        <time>2023-07-11T08:33:47.000Z</time>
      </trkpt>
      <trkpt lat="45.77717" lon="4.84048">
        <ele>170.23424</ele>
        <time>2023-07-11T08:33:48.000Z</time>
      </trkpt>
      <trkpt lat="45.77715" lon="4.84047">
        <ele>170.16023</ele>
        <time>2023-07-11T08:33:49.000Z</time>
      </trkpt>
      <trkpt lat="45.77711" lon="4.84046">
        <ele>170.10585</ele>
        <time>2023-07-11T08:33:51.000Z</time>
      </trkpt>
      <trkpt lat="45.77708" lon="4.84044">
        <ele>170.03084</ele>
        <time>2023-07-11T08:33:53.000Z</time>
      </trkpt>
      <trkpt lat="45.77706" lon="4.84043">
        <ele>170.04105</ele>
        <time>2023-07-11T08:33:55.000Z</time>
      </trkpt>
      <trkpt lat="45.77702" lon="4.84041">
        <ele>170.06888</ele>
        <time>2023-07-11T08:33:57.000Z</time>
      </trkpt>
      <trkpt lat="45.77699" lon="4.8404">
        <ele>170.03986</ele>
        <time>2023-07-11T08:33:58.000Z</time>
      </trkpt>
      <trkpt lat="45.77696" lon="4.84038">
        <ele>169.99219</ele>
        <time>2023-07-11T08:33:59.000Z</time>
      </trkpt>
      <trkpt lat="45.77693" lon="4.84036">
        <ele>169.94936</ele>
        <time>2023-07-11T08:34:00.000Z</time>
      </trkpt>
      <trkpt lat="45.77688" lon="4.84032">
        <ele>169.84285</ele>
        <time>2023-07-11T08:34:01.000Z</time>
      </trkpt>
      <trkpt lat="45.77684" lon="4.84029">
        <ele>169.81961</ele>
        <time>2023-07-11T08:34:02.000Z</time>
      </trkpt>
      <trkpt lat="45.77679" lon="4.84027">
        <ele>169.7749</ele>
        <time>2023-07-11T08:34:03.000Z</time>
      </trkpt>
      <trkpt lat="45.77676" lon="4.84025">
        <ele>169.69229</ele>
        <time>2023-07-11T08:34:04.000Z</time>
      </trkpt>
      <trkpt lat="45.77672" lon="4.84024">
        <ele>169.54263</ele>
        <time>2023-07-11T08:34:05.000Z</time>
      </trkpt>
      <trkpt lat="45.77669" lon="4.84022">
        <ele>169.43539</ele>
        <time>2023-07-11T08:34:06.000Z</time>
      </trkpt>
      <trkpt lat="45.77666" lon="4.84019">
        <ele>169.40248</ele>
        <time>2023-07-11T08:34:07.000Z</time>
      </trkpt>
      <trkpt lat="45.77663" lon="4.84019">
        <ele>169.36064</ele>
        <time>2023-07-11T08:34:08.000Z</time>
      </trkpt>
      <trkpt lat="45.7766" lon="4.84017">
        <ele>169.34555</ele>
        <time>2023-07-11T08:34:09.000Z</time>
      </trkpt>
      <trkpt lat="45.77659" lon="4.84015">
        <ele>169.32869</ele>
        <time>2023-07-11T08:34:10.000Z</time>
      </trkpt>
      <trkpt lat="45.77657" lon="4.84013">
        <ele>169.29124</ele>
        <time>2023-07-11T08:34:11.000Z</time>
      </trkpt>
      <trkpt lat="45.77655" lon="4.84012">
        <ele>169.24951</ele>
        <time>2023-07-11T08:34:12.000Z</time>
      </trkpt>
      <trkpt lat="45.77652" lon="4.84011">
        <ele>169.26389</ele>
        <time>2023-07-11T08:34:13.000Z</time>
      </trkpt>
      <trkpt lat="45.7765" lon="4.8401">
        <ele>169.23105</ele>
        <time>2023-07-11T08:34:14.000Z</time>
      </trkpt>
      <trkpt lat="45.77648" lon="4.84009">
        <ele>169.24364</ele>
        <time>2023-07-11T08:34:15.000Z</time>
      </trkpt>
      <trkpt lat="45.77645" lon="4.84007">
        <ele>169.28154</ele>
        <time>2023-07-11T08:34:16.000Z</time>
      </trkpt>
      <trkpt lat="45.77643" lon="4.84006">
        <ele>169.29691</ele>
        <time>2023-07-11T08:34:17.000Z</time>
      </trkpt>
      <trkpt lat="45.7764" lon="4.84004">
        <ele>169.3429</ele>
        <time>2023-07-11T08:34:18.000Z</time>
      </trkpt>
      <trkpt lat="45.77637" lon="4.84003">
        <ele>169.42455</ele>
        <time>2023-07-11T08:34:19.000Z</time>
      </trkpt>
      <trkpt lat="45.77634" lon="4.84001">
        <ele>169.52313</ele>
        <time>2023-07-11T08:34:20.000Z</time>
      </trkpt>
      <trkpt lat="45.7763" lon="4.84">
        <ele>169.68008</ele>
        <time>2023-07-11T08:34:21.000Z</time>
      </trkpt>
      <trkpt lat="45.77627" lon="4.83998">
        <ele>169.82925</ele>
        <time>2023-07-11T08:34:22.000Z</time>
      </trkpt>
      <trkpt lat="45.77624" lon="4.83997">
        <ele>169.97771</ele>
        <time>2023-07-11T08:34:23.000Z</time>
      </trkpt>
      <trkpt lat="45.77621" lon="4.83995">
        <ele>170.16005</ele>
        <time>2023-07-11T08:34:24.000Z</time>
      </trkpt>
      <trkpt lat="45.77618" lon="4.83994">
        <ele>170.37746</ele>
        <time>2023-07-11T08:34:25.000Z</time>
      </trkpt>
      <trkpt lat="45.77615" lon="4.83993">
        <ele>170.59859</ele>
        <time>2023-07-11T08:34:26.000Z</time>
      </trkpt>
      <trkpt lat="45.77612" lon="4.83991">
        <ele>170.79227</ele>
        <time>2023-07-11T08:34:27.000Z</time>
      </trkpt>
      <trkpt lat="45.77608" lon="4.8399">
        <ele>170.97502</ele>
        <time>2023-07-11T08:34:28.000Z</time>
      </trkpt>
      <trkpt lat="45.77605" lon="4.83988">
        <ele>171.17949</ele>
        <time>2023-07-11T08:34:29.000Z</time>
      </trkpt>
      <trkpt lat="45.77601" lon="4.83987">
        <ele>171.33969</ele>
        <time>2023-07-11T08:34:30.000Z</time>
      </trkpt>
      <trkpt lat="45.77598" lon="4.83986">
        <ele>171.48369</ele>
        <time>2023-07-11T08:34:31.000Z</time>
      </trkpt>
      <trkpt lat="45.77594" lon="4.83984">
        <ele>171.63464</ele>
        <time>2023-07-11T08:34:32.000Z</time>
      </trkpt>
      <trkpt lat="45.7759" lon="4.83982">
        <ele>171.7271</ele>
        <time>2023-07-11T08:34:33.000Z</time>
      </trkpt>
      <trkpt lat="45.77586" lon="4.8398">
        <ele>171.84085</ele>
        <time>2023-07-11T08:34:34.000Z</time>
      </trkpt>
      <trkpt lat="45.77583" lon="4.83978">
        <ele>171.95091</ele>
        <time>2023-07-11T08:34:35.000Z</time>
      </trkpt>
      <trkpt lat="45.7758" lon="4.83976">
        <ele>172.0491</ele>
        <time>2023-07-11T08:34:36.000Z</time>
      </trkpt>
      <trkpt lat="45.77577" lon="4.83974">
        <ele>172.17221</ele>
        <time>2023-07-11T08:34:37.000Z</time>
      </trkpt>
      <trkpt lat="45.77575" lon="4.83973">
        <ele>172.2704</ele>
        <time>2023-07-11T08:34:38.000Z</time>
      </trkpt>
      <trkpt lat="45.77571" lon="4.83971">
        <ele>172.35251</ele>
        <time>2023-07-11T08:34:39.000Z</time>
      </trkpt>
      <trkpt lat="45.77567" lon="4.83969">
        <ele>172.41075</ele>
        <time>2023-07-11T08:34:40.000Z</time>
      </trkpt>
      <trkpt lat="45.77563" lon="4.83966">
        <ele>172.43719</ele>
        <time>2023-07-11T08:34:41.000Z</time>
      </trkpt>
      <trkpt lat="45.77559" lon="4.83964">
        <ele>172.46121</ele>
        <time>2023-07-11T08:34:42.000Z</time>
      </trkpt>
      <trkpt lat="45.77555" lon="4.83962">
        <ele>172.47202</ele>
        <time>2023-07-11T08:34:43.000Z</time>
      </trkpt>
      <trkpt lat="45.77551" lon="4.83961">
        <ele>172.46021</ele>
        <time>2023-07-11T08:34:44.000Z</time>
      </trkpt>
      <trkpt lat="45.77547" lon="4.83959">
        <ele>172.46909</ele>
        <time>2023-07-11T08:34:45.000Z</time>
      </trkpt>
      <trkpt lat="45.77543" lon="4.83957">
        <ele>172.47214</ele>
        <time>2023-07-11T08:34:46.000Z</time>
      </trkpt>
      <trkpt lat="45.77539" lon="4.83954">
        <ele>172.4568</ele>
        <time>2023-07-11T08:34:47.000Z</time>
      </trkpt>
      <trkpt lat="45.77536" lon="4.83952">
        <ele>172.44376</ele>
        <time>2023-07-11T08:34:48.000Z</time>
      </trkpt>
      <trkpt lat="45.77532" lon="4.8395">
        <ele>172.36627</ele>
        <time>2023-07-11T08:34:49.000Z</time>
      </trkpt>
      <trkpt lat="45.77528" lon="4.83947">
        <ele>172.35526</ele>
        <time>2023-07-11T08:34:50.000Z</time>
      </trkpt>
      <trkpt lat="45.77524" lon="4.83945">
        <ele>172.39684</ele>
        <time>2023-07-11T08:34:51.000Z</time>
      </trkpt>
      <trkpt lat="45.7752" lon="4.83943">
        <ele>172.43257</ele>
        <time>2023-07-11T08:34:52.000Z</time>
      </trkpt>
      <trkpt lat="45.77516" lon="4.83941">
        <ele>172.47675</ele>
        <time>2023-07-11T08:34:53.000Z</time>
      </trkpt>
      <trkpt lat="45.77512" lon="4.83939">
        <ele>172.53127</ele>
        <time>2023-07-11T08:34:54.000Z</time>
      </trkpt>
      <trkpt lat="45.77509" lon="4.83936">
        <ele>172.57242</ele>
        <time>2023-07-11T08:34:55.000Z</time>
      </trkpt>
      <trkpt lat="45.77505" lon="4.83933">
        <ele>172.58206</ele>
        <time>2023-07-11T08:34:56.000Z</time>
      </trkpt>
      <trkpt lat="45.77501" lon="4.8393">
        <ele>172.588</ele>
        <time>2023-07-11T08:34:57.000Z</time>
      </trkpt>
      <trkpt lat="45.77497" lon="4.83928">
        <ele>172.60648</ele>
        <time>2023-07-11T08:34:58.000Z</time>
      </trkpt>
      <trkpt lat="45.77493" lon="4.83927">
        <ele>172.63474</ele>
        <time>2023-07-11T08:34:59.000Z</time>
      </trkpt>
      <trkpt lat="45.7749" lon="4.83925">
        <ele>172.67679</ele>
        <time>2023-07-11T08:35:00.000Z</time>
      </trkpt>
      <trkpt lat="45.77486" lon="4.83923">
        <ele>172.65889</ele>
        <time>2023-07-11T08:35:01.000Z</time>
      </trkpt>
      <trkpt lat="45.77482" lon="4.83921">
        <ele>172.62427</ele>
        <time>2023-07-11T08:35:02.000Z</time>
      </trkpt>
      <trkpt lat="45.77478" lon="4.83919">
        <ele>172.58055</ele>
        <time>2023-07-11T08:35:03.000Z</time>
      </trkpt>
      <trkpt lat="45.77474" lon="4.83917">
        <ele>172.52426</ele>
        <time>2023-07-11T08:35:04.000Z</time>
      </trkpt>
      <trkpt lat="45.7747" lon="4.83915">
        <ele>172.44084</ele>
        <time>2023-07-11T08:35:05.000Z</time>
      </trkpt>
      <trkpt lat="45.77466" lon="4.83914">
        <ele>172.36652</ele>
        <time>2023-07-11T08:35:06.000Z</time>
      </trkpt>
      <trkpt lat="45.77462" lon="4.83912">
        <ele>172.30141</ele>
        <time>2023-07-11T08:35:07.000Z</time>
      </trkpt>
      <trkpt lat="45.77458" lon="4.8391">
        <ele>172.26308</ele>
        <time>2023-07-11T08:35:08.000Z</time>
      </trkpt>
      <trkpt lat="45.77455" lon="4.83907">
        <ele>172.21074</ele>
        <time>2023-07-11T08:35:09.000Z</time>
      </trkpt>
      <trkpt lat="45.77451" lon="4.83904">
        <ele>172.13388</ele>
        <time>2023-07-11T08:35:10.000Z</time>
      </trkpt>
      <trkpt lat="45.77448" lon="4.83902">
        <ele>172.04263</ele>
        <time>2023-07-11T08:35:11.000Z</time>
      </trkpt>
      <trkpt lat="45.77444" lon="4.83901">
        <ele>171.95604</ele>
        <time>2023-07-11T08:35:12.000Z</time>
      </trkpt>
      <trkpt lat="45.77441" lon="4.839">
        <ele>171.91312</ele>
        <time>2023-07-11T08:35:13.000Z</time>
      </trkpt>
      <trkpt lat="45.77437" lon="4.83898">
        <ele>171.87955</ele>
        <time>2023-07-11T08:35:14.000Z</time>
      </trkpt>
      <trkpt lat="45.77434" lon="4.83897">
        <ele>171.81871</ele>
        <time>2023-07-11T08:35:15.000Z</time>
      </trkpt>
      <trkpt lat="45.7743" lon="4.83895">
        <ele>171.77715</ele>
        <time>2023-07-11T08:35:16.000Z</time>
      </trkpt>
      <trkpt lat="45.77426" lon="4.83893">
        <ele>171.76695</ele>
        <time>2023-07-11T08:35:17.000Z</time>
      </trkpt>
      <trkpt lat="45.77423" lon="4.83891">
        <ele>171.76053</ele>
        <time>2023-07-11T08:35:18.000Z</time>
      </trkpt>
      <trkpt lat="45.77419" lon="4.83889">
        <ele>171.71863</ele>
        <time>2023-07-11T08:35:19.000Z</time>
      </trkpt>
      <trkpt lat="45.77415" lon="4.83887">
        <ele>171.71223</ele>
        <time>2023-07-11T08:35:20.000Z</time>
      </trkpt>
      <trkpt lat="45.77412" lon="4.83885">
        <ele>171.82254</ele>
        <time>2023-07-11T08:35:21.000Z</time>
      </trkpt>
      <trkpt lat="45.77408" lon="4.83883">
        <ele>171.90674</ele>
        <time>2023-07-11T08:35:22.000Z</time>
      </trkpt>
      <trkpt lat="45.77405" lon="4.83881">
        <ele>171.98691</ele>
        <time>2023-07-11T08:35:23.000Z</time>
      </trkpt>
      <trkpt lat="45.77402" lon="4.83879">
        <ele>172.04243</ele>
        <time>2023-07-11T08:35:24.000Z</time>
      </trkpt>
      <trkpt lat="45.77399" lon="4.83877">
        <ele>172.09943</ele>
        <time>2023-07-11T08:35:25.000Z</time>
      </trkpt>
      <trkpt lat="45.77396" lon="4.83875">
        <ele>172.14748</ele>
        <time>2023-07-11T08:35:26.000Z</time>
      </trkpt>
      <trkpt lat="45.77392" lon="4.83874">
        <ele>172.20642</ele>
        <time>2023-07-11T08:35:27.000Z</time>
      </trkpt>
      <trkpt lat="45.77389" lon="4.83873">
        <ele>172.26167</ele>
        <time>2023-07-11T08:35:28.000Z</time>
      </trkpt>
      <trkpt lat="45.77386" lon="4.83872">
        <ele>172.34256</ele>
        <time>2023-07-11T08:35:29.000Z</time>
      </trkpt>
      <trkpt lat="45.77383" lon="4.83872">
        <ele>172.39026</ele>
        <time>2023-07-11T08:35:30.000Z</time>
      </trkpt>
      <trkpt lat="45.7738" lon="4.83871">
        <ele>172.37851</ele>
        <time>2023-07-11T08:35:31.000Z</time>
      </trkpt>
      <trkpt lat="45.77378" lon="4.8387">
        <ele>172.38898</ele>
        <time>2023-07-11T08:35:32.000Z</time>
      </trkpt>
      <trkpt lat="45.77376" lon="4.83869">
        <ele>172.35815</ele>
        <time>2023-07-11T08:35:33.000Z</time>
      </trkpt>
      <trkpt lat="45.77374" lon="4.83866">
        <ele>172.31491</ele>
        <time>2023-07-11T08:35:34.000Z</time>
      </trkpt>
      <trkpt lat="45.77372" lon="4.83863">
        <ele>172.30006</ele>
        <time>2023-07-11T08:35:35.000Z</time>
      </trkpt>
      <trkpt lat="45.77372" lon="4.8386">
        <ele>172.30231</ele>
        <time>2023-07-11T08:35:36.000Z</time>
      </trkpt>
      <trkpt lat="45.77374" lon="4.83856">
        <ele>172.29565</ele>
        <time>2023-07-11T08:35:38.000Z</time>
      </trkpt>
      <trkpt lat="45.77376" lon="4.83856">
        <ele>172.27701</ele>
        <time>2023-07-11T08:35:41.000Z</time>
      </trkpt>
      <trkpt lat="45.77377" lon="4.83852">
        <ele>172.2711</ele>
        <time>2023-07-11T08:35:43.000Z</time>
      </trkpt>
      <trkpt lat="45.77377" lon="4.83849">
        <ele>172.21182</ele>
        <time>2023-07-11T08:35:44.000Z</time>
      </trkpt>
      <trkpt lat="45.77378" lon="4.83846">
        <ele>172.18478</ele>
        <time>2023-07-11T08:35:45.000Z</time>
      </trkpt>
      <trkpt lat="45.77379" lon="4.83843">
        <ele>172.1853</ele>
        <time>2023-07-11T08:35:46.000Z</time>
      </trkpt>
      <trkpt lat="45.77379" lon="4.8384">
        <ele>172.17085</ele>
        <time>2023-07-11T08:35:47.000Z</time>
      </trkpt>
      <trkpt lat="45.7738" lon="4.83836">
        <ele>172.1871</ele>
        <time>2023-07-11T08:35:49.000Z</time>
      </trkpt>
      <trkpt lat="45.77381" lon="4.83832">
        <ele>172.22238</ele>
        <time>2023-07-11T08:35:50.000Z</time>
      </trkpt>
      <trkpt lat="45.77382" lon="4.83829">
        <ele>172.23282</ele>
        <time>2023-07-11T08:35:51.000Z</time>
      </trkpt>
      <trkpt lat="45.77383" lon="4.83826">
        <ele>172.235</ele>
        <time>2023-07-11T08:35:52.000Z</time>
      </trkpt>
      <trkpt lat="45.77384" lon="4.83823">
        <ele>172.22578</ele>
        <time>2023-07-11T08:35:53.000Z</time>
      </trkpt>
      <trkpt lat="45.77384" lon="4.8382">
        <ele>172.2048</ele>
        <time>2023-07-11T08:35:54.000Z</time>
      </trkpt>
      <trkpt lat="45.77383" lon="4.83816">
        <ele>172.21725</ele>
        <time>2023-07-11T08:35:55.000Z</time>
      </trkpt>
      <trkpt lat="45.7738" lon="4.83811">
        <ele>172.29605</ele>
        <time>2023-07-11T08:35:56.000Z</time>
      </trkpt>
      <trkpt lat="45.77377" lon="4.83808">
        <ele>172.33096</ele>
        <time>2023-07-11T08:35:57.000Z</time>
      </trkpt>
      <trkpt lat="45.77375" lon="4.83804">
        <ele>172.37669</ele>
        <time>2023-07-11T08:35:58.000Z</time>
      </trkpt>
      <trkpt lat="45.77372" lon="4.838">
        <ele>172.36348</ele>
        <time>2023-07-11T08:35:59.000Z</time>
      </trkpt>
      <trkpt lat="45.77369" lon="4.83796">
        <ele>172.34358</ele>
        <time>2023-07-11T08:36:00.000Z</time>
      </trkpt>
      <trkpt lat="45.77366" lon="4.83791">
        <ele>172.31285</ele>
        <time>2023-07-11T08:36:01.000Z</time>
      </trkpt>
      <trkpt lat="45.77363" lon="4.83787">
        <ele>172.255</ele>
        <time>2023-07-11T08:36:02.000Z</time>
      </trkpt>
      <trkpt lat="45.77359" lon="4.83783">
        <ele>172.20987</ele>
        <time>2023-07-11T08:36:03.000Z</time>
      </trkpt>
      <trkpt lat="45.77354" lon="4.83781">
        <ele>172.18771</ele>
        <time>2023-07-11T08:36:04.000Z</time>
      </trkpt>
      <trkpt lat="45.77349" lon="4.83778">
        <ele>172.18471</ele>
        <time>2023-07-11T08:36:05.000Z</time>
      </trkpt>
      <trkpt lat="45.77345" lon="4.83774">
        <ele>172.10385</ele>
        <time>2023-07-11T08:36:06.000Z</time>
      </trkpt>
      <trkpt lat="45.77341" lon="4.83772">
        <ele>172.04446</ele>
        <time>2023-07-11T08:36:07.000Z</time>
      </trkpt>
      <trkpt lat="45.77337" lon="4.83769">
        <ele>172.02763</ele>
        <time>2023-07-11T08:36:08.000Z</time>
      </trkpt>
      <trkpt lat="45.77332" lon="4.83766">
        <ele>172.01602</ele>
        <time>2023-07-11T08:36:09.000Z</time>
      </trkpt>
      <trkpt lat="45.77328" lon="4.83763">
        <ele>172.01038</ele>
        <time>2023-07-11T08:36:10.000Z</time>
      </trkpt>
      <trkpt lat="45.77324" lon="4.8376">
        <ele>172.03297</ele>
        <time>2023-07-11T08:36:11.000Z</time>
      </trkpt>
      <trkpt lat="45.77319" lon="4.83758">
        <ele>172.05342</ele>
        <time>2023-07-11T08:36:12.000Z</time>
      </trkpt>
      <trkpt lat="45.77314" lon="4.83756">
        <ele>172.07419</ele>
        <time>2023-07-11T08:36:13.000Z</time>
      </trkpt>
      <trkpt lat="45.77311" lon="4.83754">
        <ele>172.12138</ele>
        <time>2023-07-11T08:36:14.000Z</time>
      </trkpt>
      <trkpt lat="45.77307" lon="4.83752">
        <ele>172.15575</ele>
        <time>2023-07-11T08:36:15.000Z</time>
      </trkpt>
      <trkpt lat="45.77304" lon="4.83749">
        <ele>172.15756</ele>
        <time>2023-07-11T08:36:16.000Z</time>
      </trkpt>
      <trkpt lat="45.77301" lon="4.83746">
        <ele>172.20839</ele>
        <time>2023-07-11T08:36:17.000Z</time>
      </trkpt>
      <trkpt lat="45.77298" lon="4.83743">
        <ele>172.25153</ele>
        <time>2023-07-11T08:36:18.000Z</time>
      </trkpt>
      <trkpt lat="45.77295" lon="4.8374">
        <ele>172.30322</ele>
        <time>2023-07-11T08:36:19.000Z</time>
      </trkpt>
      <trkpt lat="45.77291" lon="4.83738">
        <ele>172.37863</ele>
        <time>2023-07-11T08:36:20.000Z</time>
      </trkpt>
      <trkpt lat="45.7729" lon="4.83735">
        <ele>172.43054</ele>
        <time>2023-07-11T08:36:21.000Z</time>
      </trkpt>
      <trkpt lat="45.77289" lon="4.8373">
        <ele>172.49963</ele>
        <time>2023-07-11T08:36:22.000Z</time>
      </trkpt>
      <trkpt lat="45.77289" lon="4.83726">
        <ele>172.6227</ele>
        <time>2023-07-11T08:36:23.000Z</time>
      </trkpt>
      <trkpt lat="45.77289" lon="4.8372">
        <ele>172.67363</ele>
        <time>2023-07-11T08:36:24.000Z</time>
      </trkpt>
      <trkpt lat="45.7729" lon="4.83712">
        <ele>172.72922</ele>
        <time>2023-07-11T08:36:25.000Z</time>
      </trkpt>
      <trkpt lat="45.77291" lon="4.83705">
        <ele>172.83389</ele>
        <time>2023-07-11T08:36:26.000Z</time>
      </trkpt>
      <trkpt lat="45.77292" lon="4.83697">
        <ele>172.93816</ele>
        <time>2023-07-11T08:36:27.000Z</time>
      </trkpt>
      <trkpt lat="45.77293" lon="4.83693">
        <ele>172.9993</ele>
        <time>2023-07-11T08:36:28.000Z</time>
      </trkpt>
      <trkpt lat="45.77295" lon="4.83687">
        <ele>173.04953</ele>
        <time>2023-07-11T08:36:29.000Z</time>
      </trkpt>
      <trkpt lat="45.77296" lon="4.83681">
        <ele>173.08069</ele>
        <time>2023-07-11T08:36:30.000Z</time>
      </trkpt>
      <trkpt lat="45.77295" lon="4.83676">
        <ele>173.11732</ele>
        <time>2023-07-11T08:36:31.000Z</time>
      </trkpt>
      <trkpt lat="45.77295" lon="4.83671">
        <ele>173.15562</ele>
        <time>2023-07-11T08:36:32.000Z</time>
      </trkpt>
      <trkpt lat="45.77296" lon="4.83675">
        <ele>173.20761</ele>
        <time>2023-07-11T08:36:33.000Z</time>
      </trkpt>
      <trkpt lat="45.77297" lon="4.83674">
        <ele>173.28006</ele>
        <time>2023-07-11T08:36:35.000Z</time>
      </trkpt>
      <trkpt lat="45.77299" lon="4.83671">
        <ele>173.36079</ele>
        <time>2023-07-11T08:36:37.000Z</time>
      </trkpt>
      <trkpt lat="45.773" lon="4.83667">
        <ele>173.45221</ele>
        <time>2023-07-11T08:36:39.000Z</time>
      </trkpt>
      <trkpt lat="45.77302" lon="4.83662">
        <ele>173.51759</ele>
        <time>2023-07-11T08:36:41.000Z</time>
      </trkpt>
      <trkpt lat="45.77303" lon="4.83657">
        <ele>173.59044</ele>
        <time>2023-07-11T08:36:44.000Z</time>
      </trkpt>
      <trkpt lat="45.77302" lon="4.83653">
        <ele>173.70512</ele>
        <time>2023-07-11T08:36:45.000Z</time>
      </trkpt>
      <trkpt lat="45.77302" lon="4.8365">
        <ele>173.80048</ele>
        <time>2023-07-11T08:36:46.000Z</time>
      </trkpt>
      <trkpt lat="45.77302" lon="4.83646">
        <ele>173.9137</ele>
        <time>2023-07-11T08:36:47.000Z</time>
      </trkpt>
      <trkpt lat="45.77302" lon="4.83643">
        <ele>174.02342</ele>
        <time>2023-07-11T08:36:48.000Z</time>
      </trkpt>
      <trkpt lat="45.77302" lon="4.83639">
        <ele>174.07751</ele>
        <time>2023-07-11T08:36:49.000Z</time>
      </trkpt>
      <trkpt lat="45.77305" lon="4.83637">
        <ele>174.18686</ele>
        <time>2023-07-11T08:36:50.000Z</time>
      </trkpt>
      <trkpt lat="45.7722" lon="4.8413">
        <ele>174.6698</ele>
        <time>2023-07-11T08:37:11.268Z</time>
      </trkpt>
      <trkpt lat="45.77442" lon="4.81416">
        <ele>170.42155</ele>
        <time>2023-07-11T08:40:57.000Z</time>
      </trkpt>
      <trkpt lat="45.77452" lon="4.81407">
        <ele>171.06731</ele>
        <time>2023-07-11T08:40:58.000Z</time>
      </trkpt>
      <trkpt lat="45.77456" lon="4.81404">
        <ele>171.08177</ele>
        <time>2023-07-11T08:40:59.000Z</time>
      </trkpt>
      <trkpt lat="45.77464" lon="4.81401">
        <ele>170.88475</ele>
        <time>2023-07-11T08:41:00.000Z</time>
      </trkpt>
      <trkpt lat="45.77469" lon="4.81398">
        <ele>170.70364</ele>
        <time>2023-07-11T08:41:01.000Z</time>
      </trkpt>
      <trkpt lat="45.7747" lon="4.81391">
        <ele>170.59256</ele>
        <time>2023-07-11T08:41:02.000Z</time>
      </trkpt>
      <trkpt lat="45.7747" lon="4.81385">
        <ele>170.63632</ele>
        <time>2023-07-11T08:41:03.000Z</time>
      </trkpt>
      <trkpt lat="45.77471" lon="4.8138">
        <ele>170.61026</ele>
        <time>2023-07-11T08:41:04.000Z</time>
      </trkpt>
      <trkpt lat="45.77471" lon="4.81374">
        <ele>170.70518</ele>
        <time>2023-07-11T08:41:05.000Z</time>
      </trkpt>
      <trkpt lat="45.77472" lon="4.81368">
        <ele>170.80728</ele>
        <time>2023-07-11T08:41:06.000Z</time>
      </trkpt>
      <trkpt lat="45.77473" lon="4.81363">
        <ele>170.88885</ele>
        <time>2023-07-11T08:41:07.000Z</time>
      </trkpt>
      <trkpt lat="45.77473" lon="4.81356">
        <ele>170.98505</ele>
        <time>2023-07-11T08:41:08.000Z</time>
      </trkpt>
      <trkpt lat="45.77473" lon="4.8135">
        <ele>171.06886</ele>
        <time>2023-07-11T08:41:09.000Z</time>
      </trkpt>
      <trkpt lat="45.77474" lon="4.81344">
        <ele>171.15428</ele>
        <time>2023-07-11T08:41:10.000Z</time>
      </trkpt>
      <trkpt lat="45.77473" lon="4.81338">
        <ele>171.20351</ele>
        <time>2023-07-11T08:41:11.000Z</time>
      </trkpt>
      <trkpt lat="45.77473" lon="4.81332">
        <ele>171.24257</ele>
        <time>2023-07-11T08:41:12.000Z</time>
      </trkpt>
      <trkpt lat="45.77474" lon="4.81326">
        <ele>171.28142</ele>
        <time>2023-07-11T08:41:13.000Z</time>
      </trkpt>
      <trkpt lat="45.77475" lon="4.81319">
        <ele>171.33615</ele>
        <time>2023-07-11T08:41:14.000Z</time>
      </trkpt>
      <trkpt lat="45.77476" lon="4.81312">
        <ele>171.38814</ele>
        <time>2023-07-11T08:41:15.000Z</time>
      </trkpt>
      <trkpt lat="45.77475" lon="4.81306">
        <ele>171.40907</ele>
        <time>2023-07-11T08:41:16.000Z</time>
      </trkpt>
      <trkpt lat="45.77476" lon="4.81298">
        <ele>171.47122</ele>
        <time>2023-07-11T08:41:17.000Z</time>
      </trkpt>
      <trkpt lat="45.77476" lon="4.81291">
        <ele>171.4366</ele>
        <time>2023-07-11T08:41:18.000Z</time>
      </trkpt>
      <trkpt lat="45.77476" lon="4.81285">
        <ele>171.43483</ele>
        <time>2023-07-11T08:41:19.000Z</time>
      </trkpt>
      <trkpt lat="45.77477" lon="4.81278">
        <ele>171.47559</ele>
        <time>2023-07-11T08:41:20.000Z</time>
      </trkpt>
      <trkpt lat="45.77477" lon="4.8127">
        <ele>171.53545</ele>
        <time>2023-07-11T08:41:21.000Z</time>
      </trkpt>
      <trkpt lat="45.77478" lon="4.81262">
        <ele>171.59251</ele>
        <time>2023-07-11T08:41:22.000Z</time>
      </trkpt>
      <trkpt lat="45.77479" lon="4.81254">
        <ele>171.61913</ele>
        <time>2023-07-11T08:41:23.000Z</time>
      </trkpt>
      <trkpt lat="45.7748" lon="4.81246">
        <ele>171.64752</ele>
        <time>2023-07-11T08:41:24.000Z</time>
      </trkpt>
      <trkpt lat="45.77481" lon="4.81239">
        <ele>171.62476</ele>
        <time>2023-07-11T08:41:25.000Z</time>
      </trkpt>
      <trkpt lat="45.77481" lon="4.81231">
        <ele>171.58701</ele>
        <time>2023-07-11T08:41:26.000Z</time>
      </trkpt>
      <trkpt lat="45.77482" lon="4.81223">
        <ele>171.56055</ele>
        <time>2023-07-11T08:41:27.000Z</time>
      </trkpt>
      <trkpt lat="45.77483" lon="4.81215">
        <ele>171.50867</ele>
        <time>2023-07-11T08:41:28.000Z</time>
      </trkpt>
      <trkpt lat="45.77484" lon="4.81206">
        <ele>171.47833</ele>
        <time>2023-07-11T08:41:29.000Z</time>
      </trkpt>
      <trkpt lat="45.77485" lon="4.81197">
        <ele>171.44936</ele>
        <time>2023-07-11T08:41:30.000Z</time>
      </trkpt>
      <trkpt lat="45.77486" lon="4.81189">
        <ele>171.43292</ele>
        <time>2023-07-11T08:41:31.000Z</time>
      </trkpt>
      <trkpt lat="45.77487" lon="4.81181">
        <ele>171.42174</ele>
        <time>2023-07-11T08:41:32.000Z</time>
      </trkpt>
      <trkpt lat="45.77487" lon="4.81173">
        <ele>171.40254</ele>
        <time>2023-07-11T08:41:33.000Z</time>
      </trkpt>
      <trkpt lat="45.77488" lon="4.81164">
        <ele>171.36942</ele>
        <time>2023-07-11T08:41:34.000Z</time>
      </trkpt>
      <trkpt lat="45.77489" lon="4.81155">
        <ele>171.31766</ele>
        <time>2023-07-11T08:41:35.000Z</time>
      </trkpt>
      <trkpt lat="45.7749" lon="4.81147">
        <ele>171.2795</ele>
        <time>2023-07-11T08:41:36.000Z</time>
      </trkpt>
      <trkpt lat="45.7749" lon="4.8114">
        <ele>171.24989</ele>
        <time>2023-07-11T08:41:37.000Z</time>
      </trkpt>
      <trkpt lat="45.77492" lon="4.81132">
        <ele>171.2775</ele>
        <time>2023-07-11T08:41:38.000Z</time>
      </trkpt>
      <trkpt lat="45.77493" lon="4.81125">
        <ele>171.29543</ele>
        <time>2023-07-11T08:41:39.000Z</time>
      </trkpt>
      <trkpt lat="45.77493" lon="4.81118">
        <ele>171.35391</ele>
        <time>2023-07-11T08:41:40.000Z</time>
      </trkpt>
      <trkpt lat="45.77493" lon="4.8111">
        <ele>171.37904</ele>
        <time>2023-07-11T08:41:41.000Z</time>
      </trkpt>
      <trkpt lat="45.77494" lon="4.81104">
        <ele>171.42194</ele>
        <time>2023-07-11T08:41:42.000Z</time>
      </trkpt>
      <trkpt lat="45.77494" lon="4.81097">
        <ele>171.43008</ele>
        <time>2023-07-11T08:41:43.000Z</time>
      </trkpt>
      <trkpt lat="45.77495" lon="4.81092">
        <ele>171.45367</ele>
        <time>2023-07-11T08:41:44.000Z</time>
      </trkpt>
      <trkpt lat="45.77496" lon="4.81087">
        <ele>171.47931</ele>
        <time>2023-07-11T08:41:45.000Z</time>
      </trkpt>
      <trkpt lat="45.77495" lon="4.81082">
        <ele>171.51753</ele>
        <time>2023-07-11T08:41:46.000Z</time>
      </trkpt>
      <trkpt lat="45.77495" lon="4.81077">
        <ele>171.53947</ele>
        <time>2023-07-11T08:41:47.000Z</time>
      </trkpt>
      <trkpt lat="45.77495" lon="4.81075">
        <ele>171.59329</ele>
        <time>2023-07-11T08:41:48.000Z</time>
      </trkpt>
      <trkpt lat="45.77494" lon="4.81071">
        <ele>171.64618</ele>
        <time>2023-07-11T08:41:50.000Z</time>
      </trkpt>
      <trkpt lat="45.77492" lon="4.8107">
        <ele>171.65335</ele>
        <time>2023-07-11T08:41:52.000Z</time>
      </trkpt>
      <trkpt lat="45.77489" lon="4.81072">
        <ele>171.74014</ele>
        <time>2023-07-11T08:42:11.000Z</time>
      </trkpt>
      <trkpt lat="45.77489" lon="4.81076">
        <ele>171.82251</ele>
        <time>2023-07-11T08:42:12.000Z</time>
      </trkpt>
      <trkpt lat="45.77489" lon="4.8108">
        <ele>171.88005</ele>
        <time>2023-07-11T08:42:13.000Z</time>
      </trkpt>
      <trkpt lat="45.7749" lon="4.81084">
        <ele>171.92177</ele>
        <time>2023-07-11T08:42:14.000Z</time>
      </trkpt>
      <trkpt lat="45.77492" lon="4.81088">
        <ele>171.98398</ele>
        <time>2023-07-11T08:42:15.000Z</time>
      </trkpt>
      <trkpt lat="45.77492" lon="4.81092">
        <ele>172.08047</ele>
        <time>2023-07-11T08:42:16.000Z</time>
      </trkpt>
      <trkpt lat="45.77492" lon="4.81096">
        <ele>172.22324</ele>
        <time>2023-07-11T08:42:17.000Z</time>
      </trkpt>
      <trkpt lat="45.77491" lon="4.81099">
        <ele>172.35716</ele>
        <time>2023-07-11T08:42:18.000Z</time>
      </trkpt>
      <trkpt lat="45.77491" lon="4.81103">
        <ele>172.49974</ele>
        <time>2023-07-11T08:42:19.000Z</time>
      </trkpt>
      <trkpt lat="45.7749" lon="4.81106">
        <ele>172.60518</ele>
        <time>2023-07-11T08:42:20.000Z</time>
      </trkpt>
      <trkpt lat="45.77489" lon="4.81109">
        <ele>172.73813</ele>
        <time>2023-07-11T08:42:21.000Z</time>
      </trkpt>
      <trkpt lat="45.77487" lon="4.81111">
        <ele>172.84399</ele>
        <time>2023-07-11T08:42:22.000Z</time>
      </trkpt>
      <trkpt lat="45.77485" lon="4.8111">
        <ele>172.97165</ele>
        <time>2023-07-11T08:42:24.000Z</time>
      </trkpt>
      <trkpt lat="45.77486" lon="4.81107">
        <ele>173.16273</ele>
        <time>2023-07-11T08:42:28.000Z</time>
      </trkpt>
      <trkpt lat="45.77483" lon="4.81104">
        <ele>173.3429</ele>
        <time>2023-07-11T08:42:35.000Z</time>
      </trkpt>
      <trkpt lat="45.7748" lon="4.81104">
        <ele>173.49393</ele>
        <time>2023-07-11T08:42:36.000Z</time>
      </trkpt>
      <trkpt lat="45.77477" lon="4.81103">
        <ele>173.65733</ele>
        <time>2023-07-11T08:42:37.000Z</time>
      </trkpt>
      <trkpt lat="45.77474" lon="4.81102">
        <ele>173.77269</ele>
        <time>2023-07-11T08:42:38.000Z</time>
      </trkpt>
      <trkpt lat="45.77471" lon="4.81102">
        <ele>173.84036</ele>
        <time>2023-07-11T08:42:39.000Z</time>
      </trkpt>
      <trkpt lat="45.77468" lon="4.811">
        <ele>173.93643</ele>
        <time>2023-07-11T08:42:40.000Z</time>
      </trkpt>
      <trkpt lat="45.77465" lon="4.81099">
        <ele>173.93802</ele>
        <time>2023-07-11T08:42:41.000Z</time>
      </trkpt>
      <trkpt lat="45.77462" lon="4.81096">
        <ele>173.99191</ele>
        <time>2023-07-11T08:42:42.000Z</time>
      </trkpt>
      <trkpt lat="45.77461" lon="4.81091">
        <ele>174.08749</ele>
        <time>2023-07-11T08:42:43.000Z</time>
      </trkpt>
      <trkpt lat="45.77461" lon="4.81087">
        <ele>174.16656</ele>
        <time>2023-07-11T08:42:44.000Z</time>
      </trkpt>
      <trkpt lat="45.7746" lon="4.81083">
        <ele>174.22066</ele>
        <time>2023-07-11T08:42:45.000Z</time>
      </trkpt>
      <trkpt lat="45.77457" lon="4.81081">
        <ele>174.23465</ele>
        <time>2023-07-11T08:42:46.000Z</time>
      </trkpt>
      <trkpt lat="45.77454" lon="4.81082">
        <ele>174.18796</ele>
        <time>2023-07-11T08:42:47.000Z</time>
      </trkpt>
      <trkpt lat="45.77451" lon="4.81083">
        <ele>174.11797</ele>
        <time>2023-07-11T08:42:48.000Z</time>
      </trkpt>
      <trkpt lat="45.77447" lon="4.81085">
        <ele>174.02951</ele>
        <time>2023-07-11T08:42:49.000Z</time>
      </trkpt>
      <trkpt lat="45.77444" lon="4.81088">
        <ele>173.92334</ele>
        <time>2023-07-11T08:42:50.000Z</time>
      </trkpt>
      <trkpt lat="45.77441" lon="4.8109">
        <ele>173.82852</ele>
        <time>2023-07-11T08:42:51.000Z</time>
      </trkpt>
      <trkpt lat="45.77438" lon="4.81093">
        <ele>173.72154</ele>
        <time>2023-07-11T08:42:52.000Z</time>
      </trkpt>
      <trkpt lat="45.77434" lon="4.81097">
        <ele>173.59416</ele>
        <time>2023-07-11T08:42:53.000Z</time>
      </trkpt>
      <trkpt lat="45.77431" lon="4.81102">
        <ele>173.40108</ele>
        <time>2023-07-11T08:42:54.000Z</time>
      </trkpt>
      <trkpt lat="45.77427" lon="4.81106">
        <ele>173.22592</ele>
        <time>2023-07-11T08:42:55.000Z</time>
      </trkpt>
      <trkpt lat="45.77424" lon="4.81111">
        <ele>173.0575</ele>
        <time>2023-07-11T08:42:56.000Z</time>
      </trkpt>
      <trkpt lat="45.7742" lon="4.81115">
        <ele>172.88547</ele>
        <time>2023-07-11T08:42:57.000Z</time>
      </trkpt>
      <trkpt lat="45.77417" lon="4.81118">
        <ele>172.73447</ele>
        <time>2023-07-11T08:42:58.000Z</time>
      </trkpt>
      <trkpt lat="45.77413" lon="4.8112">
        <ele>172.61884</ele>
        <time>2023-07-11T08:42:59.000Z</time>
      </trkpt>
      <trkpt lat="45.7741" lon="4.81122">
        <ele>172.51212</ele>
        <time>2023-07-11T08:43:00.000Z</time>
      </trkpt>
      <trkpt lat="45.77408" lon="4.81127">
        <ele>172.40494</ele>
        <time>2023-07-11T08:43:01.000Z</time>
      </trkpt>
      <trkpt lat="45.77406" lon="4.81133">
        <ele>172.21646</ele>
        <time>2023-07-11T08:43:02.000Z</time>
      </trkpt>
      <trkpt lat="45.77404" lon="4.81137">
        <ele>172.00807</ele>
        <time>2023-07-11T08:43:03.000Z</time>
      </trkpt>
      <trkpt lat="45.77402" lon="4.81142">
        <ele>171.84369</ele>
        <time>2023-07-11T08:43:04.000Z</time>
      </trkpt>
      <trkpt lat="45.774" lon="4.81147">
        <ele>171.71193</ele>
        <time>2023-07-11T08:43:05.000Z</time>
      </trkpt>
      <trkpt lat="45.77397" lon="4.81151">
        <ele>171.59718</ele>
        <time>2023-07-11T08:43:06.000Z</time>
      </trkpt>
      <trkpt lat="45.77394" lon="4.81156">
        <ele>171.47012</ele>
        <time>2023-07-11T08:43:07.000Z</time>
      </trkpt>
      <trkpt lat="45.77391" lon="4.8116">
        <ele>171.33984</ele>
        <time>2023-07-11T08:43:08.000Z</time>
      </trkpt>
      <trkpt lat="45.77389" lon="4.81163">
        <ele>171.21191</ele>
        <time>2023-07-11T08:43:09.000Z</time>
      </trkpt>
      <trkpt lat="45.77386" lon="4.81167">
        <ele>171.08554</ele>
        <time>2023-07-11T08:43:10.000Z</time>
      </trkpt>
      <trkpt lat="45.77384" lon="4.81172">
        <ele>170.935</ele>
        <time>2023-07-11T08:43:11.000Z</time>
      </trkpt>
      <trkpt lat="45.77381" lon="4.81176">
        <ele>170.79526</ele>
        <time>2023-07-11T08:43:12.000Z</time>
      </trkpt>
      <trkpt lat="45.77379" lon="4.81181">
        <ele>170.681</ele>
        <time>2023-07-11T08:43:13.000Z</time>
      </trkpt>
      <trkpt lat="45.77378" lon="4.81185">
        <ele>170.57652</ele>
        <time>2023-07-11T08:43:14.000Z</time>
      </trkpt>
      <trkpt lat="45.77376" lon="4.81189">
        <ele>170.44803</ele>
        <time>2023-07-11T08:43:15.000Z</time>
      </trkpt>
      <trkpt lat="45.77374" lon="4.81193">
        <ele>170.31551</ele>
        <time>2023-07-11T08:43:16.000Z</time>
      </trkpt>
      <trkpt lat="45.77372" lon="4.81195">
        <ele>170.17911</ele>
        <time>2023-07-11T08:43:17.000Z</time>
      </trkpt>
      <trkpt lat="45.77369" lon="4.81196">
        <ele>170.02882</ele>
        <time>2023-07-11T08:43:18.000Z</time>
      </trkpt>
      <trkpt lat="45.77367" lon="4.81195">
        <ele>169.87589</ele>
        <time>2023-07-11T08:43:21.000Z</time>
      </trkpt>
      <trkpt lat="45.77364" lon="4.81193">
        <ele>169.71526</ele>
        <time>2023-07-11T08:43:23.000Z</time>
      </trkpt>
      <trkpt lat="45.77362" lon="4.81192">
        <ele>169.58711</ele>
        <time>2023-07-11T08:43:24.000Z</time>
      </trkpt>
      <trkpt lat="45.7736" lon="4.81192">
        <ele>169.51443</ele>
        <time>2023-07-11T08:43:25.000Z</time>
      </trkpt>
      <trkpt lat="45.77359" lon="4.81193">
        <ele>169.46603</ele>
        <time>2023-07-11T08:43:26.000Z</time>
      </trkpt>
      <trkpt lat="45.77357" lon="4.81195">
        <ele>169.39816</ele>
        <time>2023-07-11T08:43:27.000Z</time>
      </trkpt>
      <trkpt lat="45.77355" lon="4.81196">
        <ele>169.35217</ele>
        <time>2023-07-11T08:43:30.000Z</time>
      </trkpt>
      <trkpt lat="45.77353" lon="4.81195">
        <ele>169.31378</ele>
        <time>2023-07-11T08:43:31.000Z</time>
      </trkpt>
      <trkpt lat="45.7735" lon="4.81196">
        <ele>169.31703</ele>
        <time>2023-07-11T08:43:32.000Z</time>
      </trkpt>
      <trkpt lat="45.77348" lon="4.81198">
        <ele>169.30943</ele>
        <time>2023-07-11T08:43:33.000Z</time>
      </trkpt>
      <trkpt lat="45.77347" lon="4.81201">
        <ele>169.32269</ele>
        <time>2023-07-11T08:43:34.000Z</time>
      </trkpt>
      <trkpt lat="45.77346" lon="4.81204">
        <ele>169.36624</ele>
        <time>2023-07-11T08:43:36.000Z</time>
      </trkpt>
      <trkpt lat="45.77348" lon="4.81205">
        <ele>169.35797</ele>
        <time>2023-07-11T08:43:45.000Z</time>
      </trkpt>
      <trkpt lat="45.77346" lon="4.81208">
        <ele>169.39897</ele>
        <time>2023-07-11T08:43:52.000Z</time>
      </trkpt>
      <trkpt lat="45.77344" lon="4.81211">
        <ele>169.44833</ele>
        <time>2023-07-11T08:43:53.000Z</time>
      </trkpt>
      <trkpt lat="45.77342" lon="4.81215">
        <ele>169.47952</ele>
        <time>2023-07-11T08:43:54.000Z</time>
      </trkpt>
      <trkpt lat="45.77338" lon="4.81221">
        <ele>169.51428</ele>
        <time>2023-07-11T08:43:55.000Z</time>
      </trkpt>
      <trkpt lat="45.77334" lon="4.81225">
        <ele>169.53827</ele>
        <time>2023-07-11T08:43:56.000Z</time>
      </trkpt>
      <trkpt lat="45.7733" lon="4.81229">
        <ele>169.53738</ele>
        <time>2023-07-11T08:43:57.000Z</time>
      </trkpt>
      <trkpt lat="45.77326" lon="4.81234">
        <ele>169.5392</ele>
        <time>2023-07-11T08:43:58.000Z</time>
      </trkpt>
      <trkpt lat="45.77322" lon="4.81239">
        <ele>169.51498</ele>
        <time>2023-07-11T08:43:59.000Z</time>
      </trkpt>
      <trkpt lat="45.77318" lon="4.81244">
        <ele>169.49295</ele>
        <time>2023-07-11T08:44:00.000Z</time>
      </trkpt>
      <trkpt lat="45.77314" lon="4.81248">
        <ele>169.44189</ele>
        <time>2023-07-11T08:44:01.000Z</time>
      </trkpt>
      <trkpt lat="45.7731" lon="4.81253">
        <ele>169.35336</ele>
        <time>2023-07-11T08:44:02.000Z</time>
      </trkpt>
      <trkpt lat="45.77307" lon="4.81256">
        <ele>169.23119</ele>
        <time>2023-07-11T08:44:03.000Z</time>
      </trkpt>
      <trkpt lat="45.77303" lon="4.8126">
        <ele>169.11485</ele>
        <time>2023-07-11T08:44:04.000Z</time>
      </trkpt>
      <trkpt lat="45.773" lon="4.81264">
        <ele>168.96274</ele>
        <time>2023-07-11T08:44:05.000Z</time>
      </trkpt>
      <trkpt lat="45.77295" lon="4.81267">
        <ele>168.81969</ele>
        <time>2023-07-11T08:44:06.000Z</time>
      </trkpt>
      <trkpt lat="45.77292" lon="4.81271">
        <ele>168.64963</ele>
        <time>2023-07-11T08:44:07.000Z</time>
      </trkpt>
      <trkpt lat="45.77288" lon="4.81274">
        <ele>168.49779</ele>
        <time>2023-07-11T08:44:08.000Z</time>
      </trkpt>
      <trkpt lat="45.77285" lon="4.81278">
        <ele>168.33237</ele>
        <time>2023-07-11T08:44:09.000Z</time>
      </trkpt>
      <trkpt lat="45.77281" lon="4.81281">
        <ele>168.18176</ele>
        <time>2023-07-11T08:44:10.000Z</time>
      </trkpt>
      <trkpt lat="45.77276" lon="4.81283">
        <ele>168.10599</ele>
        <time>2023-07-11T08:44:11.000Z</time>
      </trkpt>
      <trkpt lat="45.77273" lon="4.81286">
        <ele>167.99315</ele>
        <time>2023-07-11T08:44:12.000Z</time>
      </trkpt>
      <trkpt lat="45.77268" lon="4.81292">
        <ele>167.87312</ele>
        <time>2023-07-11T08:44:13.000Z</time>
      </trkpt>
      <trkpt lat="45.77263" lon="4.81294">
        <ele>167.76089</ele>
        <time>2023-07-11T08:44:14.000Z</time>
      </trkpt>
      <trkpt lat="45.7726" lon="4.81294">
        <ele>167.68507</ele>
        <time>2023-07-11T08:44:15.000Z</time>
      </trkpt>
      <trkpt lat="45.77256" lon="4.81298">
        <ele>167.59384</ele>
        <time>2023-07-11T08:44:16.000Z</time>
      </trkpt>
      <trkpt lat="45.77252" lon="4.81302">
        <ele>167.53577</ele>
        <time>2023-07-11T08:44:17.000Z</time>
      </trkpt>
      <trkpt lat="45.77248" lon="4.81306">
        <ele>167.45767</ele>
        <time>2023-07-11T08:44:18.000Z</time>
      </trkpt>
      <trkpt lat="45.77242" lon="4.8131">
        <ele>167.3735</ele>
        <time>2023-07-11T08:44:19.000Z</time>
      </trkpt>
      <trkpt lat="45.77238" lon="4.81312">
        <ele>167.30812</ele>
        <time>2023-07-11T08:44:20.000Z</time>
      </trkpt>
      <trkpt lat="45.77233" lon="4.81314">
        <ele>167.27975</ele>
        <time>2023-07-11T08:44:21.000Z</time>
      </trkpt>
      <trkpt lat="45.77228" lon="4.81318">
        <ele>167.2951</ele>
        <time>2023-07-11T08:44:22.000Z</time>
      </trkpt>
      <trkpt lat="45.77223" lon="4.81321">
        <ele>167.32588</ele>
        <time>2023-07-11T08:44:23.000Z</time>
      </trkpt>
      <trkpt lat="45.77218" lon="4.81325">
        <ele>167.38339</ele>
        <time>2023-07-11T08:44:24.000Z</time>
      </trkpt>
      <trkpt lat="45.77214" lon="4.81328">
        <ele>167.42435</ele>
        <time>2023-07-11T08:44:25.000Z</time>
      </trkpt>
      <trkpt lat="45.77209" lon="4.8133">
        <ele>167.47789</ele>
        <time>2023-07-11T08:44:26.000Z</time>
      </trkpt>
      <trkpt lat="45.77203" lon="4.81333">
        <ele>167.51326</ele>
        <time>2023-07-11T08:44:27.000Z</time>
      </trkpt>
      <trkpt lat="45.77198" lon="4.81336">
        <ele>167.5455</ele>
        <time>2023-07-11T08:44:28.000Z</time>
      </trkpt>
      <trkpt lat="45.77193" lon="4.81338">
        <ele>167.57701</ele>
        <time>2023-07-11T08:44:29.000Z</time>
      </trkpt>
      <trkpt lat="45.77188" lon="4.81341">
        <ele>167.57225</ele>
        <time>2023-07-11T08:44:30.000Z</time>
      </trkpt>
      <trkpt lat="45.77183" lon="4.81343">
        <ele>167.55942</ele>
        <time>2023-07-11T08:44:31.000Z</time>
      </trkpt>
      <trkpt lat="45.77178" lon="4.81346">
        <ele>167.53873</ele>
        <time>2023-07-11T08:44:32.000Z</time>
      </trkpt>
      <trkpt lat="45.77173" lon="4.81347">
        <ele>167.50345</ele>
        <time>2023-07-11T08:44:33.000Z</time>
      </trkpt>
      <trkpt lat="45.77168" lon="4.8135">
        <ele>167.4697</ele>
        <time>2023-07-11T08:44:34.000Z</time>
      </trkpt>
      <trkpt lat="45.77163" lon="4.81353">
        <ele>167.45055</ele>
        <time>2023-07-11T08:44:35.000Z</time>
      </trkpt>
      <trkpt lat="45.77158" lon="4.81355">
        <ele>167.49176</ele>
        <time>2023-07-11T08:44:36.000Z</time>
      </trkpt>
      <trkpt lat="45.77152" lon="4.81357">
        <ele>167.54901</ele>
        <time>2023-07-11T08:44:37.000Z</time>
      </trkpt>
      <trkpt lat="45.77147" lon="4.81359">
        <ele>167.63943</ele>
        <time>2023-07-11T08:44:38.000Z</time>
      </trkpt>
      <trkpt lat="45.77143" lon="4.81362">
        <ele>167.73055</ele>
        <time>2023-07-11T08:44:39.000Z</time>
      </trkpt>
      <trkpt lat="45.77138" lon="4.81364">
        <ele>167.80154</ele>
        <time>2023-07-11T08:44:40.000Z</time>
      </trkpt>
      <trkpt lat="45.77133" lon="4.81367">
        <ele>167.86037</ele>
        <time>2023-07-11T08:44:41.000Z</time>
      </trkpt>
      <trkpt lat="45.77128" lon="4.81369">
        <ele>167.86214</ele>
        <time>2023-07-11T08:44:42.000Z</time>
      </trkpt>
      <trkpt lat="45.77123" lon="4.81372">
        <ele>167.85838</ele>
        <time>2023-07-11T08:44:43.000Z</time>
      </trkpt>
      <trkpt lat="45.77118" lon="4.81373">
        <ele>167.84665</ele>
        <time>2023-07-11T08:44:44.000Z</time>
      </trkpt>
      <trkpt lat="45.77113" lon="4.81375">
        <ele>167.8549</ele>
        <time>2023-07-11T08:44:45.000Z</time>
      </trkpt>
      <trkpt lat="45.77108" lon="4.81376">
        <ele>167.84171</ele>
        <time>2023-07-11T08:44:46.000Z</time>
      </trkpt>
      <trkpt lat="45.77103" lon="4.81378">
        <ele>167.88304</ele>
        <time>2023-07-11T08:44:47.000Z</time>
      </trkpt>
      <trkpt lat="45.77097" lon="4.81379">
        <ele>167.88287</ele>
        <time>2023-07-11T08:44:48.000Z</time>
      </trkpt>
      <trkpt lat="45.77092" lon="4.8138">
        <ele>167.925</ele>
        <time>2023-07-11T08:44:49.000Z</time>
      </trkpt>
      <trkpt lat="45.77087" lon="4.81381">
        <ele>167.97221</ele>
        <time>2023-07-11T08:44:50.000Z</time>
      </trkpt>
      <trkpt lat="45.77081" lon="4.81383">
        <ele>168.01918</ele>
        <time>2023-07-11T08:44:51.000Z</time>
      </trkpt>
      <trkpt lat="45.77076" lon="4.81384">
        <ele>168.06635</ele>
        <time>2023-07-11T08:44:52.000Z</time>
      </trkpt>
      <trkpt lat="45.77071" lon="4.81386">
        <ele>168.12289</ele>
        <time>2023-07-11T08:44:53.000Z</time>
      </trkpt>
      <trkpt lat="45.77065" lon="4.81388">
        <ele>168.18268</ele>
        <time>2023-07-11T08:44:54.000Z</time>
      </trkpt>
      <trkpt lat="45.7706" lon="4.8139">
        <ele>168.20781</ele>
        <time>2023-07-11T08:44:55.000Z</time>
      </trkpt>
      <trkpt lat="45.77054" lon="4.81391">
        <ele>168.21852</ele>
        <time>2023-07-11T08:44:56.000Z</time>
      </trkpt>
      <trkpt lat="45.77049" lon="4.81393">
        <ele>168.23296</ele>
        <time>2023-07-11T08:44:57.000Z</time>
      </trkpt>
      <trkpt lat="45.77044" lon="4.81394">
        <ele>168.25081</ele>
        <time>2023-07-11T08:44:58.000Z</time>
      </trkpt>
      <trkpt lat="45.77037" lon="4.81394">
        <ele>168.29732</ele>
        <time>2023-07-11T08:44:59.000Z</time>
      </trkpt>
      <trkpt lat="45.77033" lon="4.81396">
        <ele>168.371</ele>
        <time>2023-07-11T08:45:00.000Z</time>
      </trkpt>
      <trkpt lat="45.77029" lon="4.81397">
        <ele>168.45793</ele>
        <time>2023-07-11T08:45:01.000Z</time>
      </trkpt>
      <trkpt lat="45.77023" lon="4.81399">
        <ele>168.51607</ele>
        <time>2023-07-11T08:45:02.000Z</time>
      </trkpt>
      <trkpt lat="45.77013" lon="4.81394">
        <ele>168.57945</ele>
        <time>2023-07-11T08:45:03.000Z</time>
      </trkpt>
      <trkpt lat="45.77008" lon="4.81399">
        <ele>168.65154</ele>
        <time>2023-07-11T08:45:04.000Z</time>
      </trkpt>
      <trkpt lat="45.77002" lon="4.81402">
        <ele>168.71149</ele>
        <time>2023-07-11T08:45:05.000Z</time>
      </trkpt>
      <trkpt lat="45.76996" lon="4.81403">
        <ele>168.75449</ele>
        <time>2023-07-11T08:45:06.000Z</time>
      </trkpt>
      <trkpt lat="45.76991" lon="4.81406">
        <ele>168.76228</ele>
        <time>2023-07-11T08:45:07.000Z</time>
      </trkpt>
      <trkpt lat="45.76985" lon="4.81409">
        <ele>168.80229</ele>
        <time>2023-07-11T08:45:08.000Z</time>
      </trkpt>
      <trkpt lat="45.76981" lon="4.81413">
        <ele>168.81659</ele>
        <time>2023-07-11T08:45:09.000Z</time>
      </trkpt>
      <trkpt lat="45.76977" lon="4.81416">
        <ele>168.83409</ele>
        <time>2023-07-11T08:45:10.000Z</time>
      </trkpt>
      <trkpt lat="45.76972" lon="4.81419">
        <ele>168.86761</ele>
        <time>2023-07-11T08:45:11.000Z</time>
      </trkpt>
      <trkpt lat="45.76968" lon="4.81422">
        <ele>168.90207</ele>
        <time>2023-07-11T08:45:12.000Z</time>
      </trkpt>
      <trkpt lat="45.76963" lon="4.81425">
        <ele>168.93851</ele>
        <time>2023-07-11T08:45:13.000Z</time>
      </trkpt>
      <trkpt lat="45.76958" lon="4.81428">
        <ele>168.96649</ele>
        <time>2023-07-11T08:45:14.000Z</time>
      </trkpt>
      <trkpt lat="45.76954" lon="4.81431">
        <ele>169.01884</ele>
        <time>2023-07-11T08:45:15.000Z</time>
      </trkpt>
      <trkpt lat="45.76949" lon="4.81434">
        <ele>169.04343</ele>
        <time>2023-07-11T08:45:16.000Z</time>
      </trkpt>
      <trkpt lat="45.76944" lon="4.81437">
        <ele>169.0416</ele>
        <time>2023-07-11T08:45:17.000Z</time>
      </trkpt>
      <trkpt lat="45.76939" lon="4.8144">
        <ele>169.04483</ele>
        <time>2023-07-11T08:45:18.000Z</time>
      </trkpt>
      <trkpt lat="45.76934" lon="4.81443">
        <ele>169.03682</ele>
        <time>2023-07-11T08:45:19.000Z</time>
      </trkpt>
      <trkpt lat="45.76929" lon="4.81446">
        <ele>169.00854</ele>
        <time>2023-07-11T08:45:20.000Z</time>
      </trkpt>
      <trkpt lat="45.76924" lon="4.81449">
        <ele>168.95505</ele>
        <time>2023-07-11T08:45:21.000Z</time>
      </trkpt>
      <trkpt lat="45.76919" lon="4.81452">
        <ele>168.95407</ele>
        <time>2023-07-11T08:45:22.000Z</time>
      </trkpt>
      <trkpt lat="45.76914" lon="4.81455">
        <ele>168.94774</ele>
        <time>2023-07-11T08:45:23.000Z</time>
      </trkpt>
      <trkpt lat="45.76909" lon="4.81458">
        <ele>168.89839</ele>
        <time>2023-07-11T08:45:24.000Z</time>
      </trkpt>
      <trkpt lat="45.76904" lon="4.81461">
        <ele>168.86047</ele>
        <time>2023-07-11T08:45:25.000Z</time>
      </trkpt>
      <trkpt lat="45.76898" lon="4.81462">
        <ele>168.82613</ele>
        <time>2023-07-11T08:45:26.000Z</time>
      </trkpt>
      <trkpt lat="45.76893" lon="4.81465">
        <ele>168.8036</ele>
        <time>2023-07-11T08:45:27.000Z</time>
      </trkpt>
      <trkpt lat="45.76889" lon="4.81468">
        <ele>168.7963</ele>
        <time>2023-07-11T08:45:28.000Z</time>
      </trkpt>
      <trkpt lat="45.76884" lon="4.81472">
        <ele>168.77</ele>
        <time>2023-07-11T08:45:29.000Z</time>
      </trkpt>
      <trkpt lat="45.76879" lon="4.81475">
        <ele>168.75591</ele>
        <time>2023-07-11T08:45:30.000Z</time>
      </trkpt>
      <trkpt lat="45.76874" lon="4.81479">
        <ele>168.70999</ele>
        <time>2023-07-11T08:45:31.000Z</time>
      </trkpt>
      <trkpt lat="45.76869" lon="4.81484">
        <ele>168.67271</ele>
        <time>2023-07-11T08:45:32.000Z</time>
      </trkpt>
      <trkpt lat="45.76865" lon="4.81488">
        <ele>168.6304</ele>
        <time>2023-07-11T08:45:33.000Z</time>
      </trkpt>
      <trkpt lat="45.7686" lon="4.81493">
        <ele>168.59987</ele>
        <time>2023-07-11T08:45:34.000Z</time>
      </trkpt>
      <trkpt lat="45.76856" lon="4.81497">
        <ele>168.5421</ele>
        <time>2023-07-11T08:45:35.000Z</time>
      </trkpt>
      <trkpt lat="45.76851" lon="4.81501">
        <ele>168.50577</ele>
        <time>2023-07-11T08:45:36.000Z</time>
      </trkpt>
      <trkpt lat="45.76847" lon="4.81505">
        <ele>168.48515</ele>
        <time>2023-07-11T08:45:37.000Z</time>
      </trkpt>
      <trkpt lat="45.76843" lon="4.81511">
        <ele>168.45804</ele>
        <time>2023-07-11T08:45:38.000Z</time>
      </trkpt>
      <trkpt lat="45.76838" lon="4.81517">
        <ele>168.40756</ele>
        <time>2023-07-11T08:45:39.000Z</time>
      </trkpt>
      <trkpt lat="45.76835" lon="4.81523">
        <ele>168.35493</ele>
        <time>2023-07-11T08:45:40.000Z</time>
      </trkpt>
      <trkpt lat="45.76831" lon="4.81528">
        <ele>168.30981</ele>
        <time>2023-07-11T08:45:41.000Z</time>
      </trkpt>
      <trkpt lat="45.76828" lon="4.81534">
        <ele>168.2668</ele>
        <time>2023-07-11T08:45:42.000Z</time>
      </trkpt>
      <trkpt lat="45.76826" lon="4.81539">
        <ele>168.22435</ele>
        <time>2023-07-11T08:45:43.000Z</time>
      </trkpt>
      <trkpt lat="45.76824" lon="4.81543">
        <ele>168.19608</ele>
        <time>2023-07-11T08:45:44.000Z</time>
      </trkpt>
      <trkpt lat="45.76822" lon="4.81549">
        <ele>168.15901</ele>
        <time>2023-07-11T08:45:45.000Z</time>
      </trkpt>
      <trkpt lat="45.76819" lon="4.81555">
        <ele>168.12448</ele>
        <time>2023-07-11T08:45:46.000Z</time>
      </trkpt>
      <trkpt lat="45.76816" lon="4.8156">
        <ele>168.07762</ele>
        <time>2023-07-11T08:45:47.000Z</time>
      </trkpt>
      <trkpt lat="45.76814" lon="4.81565">
        <ele>168.02902</ele>
        <time>2023-07-11T08:45:48.000Z</time>
      </trkpt>
      <trkpt lat="45.76811" lon="4.81572">
        <ele>167.96579</ele>
        <time>2023-07-11T08:45:49.000Z</time>
      </trkpt>
      <trkpt lat="45.76808" lon="4.81578">
        <ele>167.87619</ele>
        <time>2023-07-11T08:45:50.000Z</time>
      </trkpt>
      <trkpt lat="45.76805" lon="4.81583">
        <ele>167.77258</ele>
        <time>2023-07-11T08:45:51.000Z</time>
      </trkpt>
      <trkpt lat="45.76802" lon="4.81589">
        <ele>167.67239</ele>
        <time>2023-07-11T08:45:52.000Z</time>
      </trkpt>
      <trkpt lat="45.76799" lon="4.81594">
        <ele>167.53621</ele>
        <time>2023-07-11T08:45:53.000Z</time>
      </trkpt>
      <trkpt lat="45.76797" lon="4.81598">
        <ele>167.41336</ele>
        <time>2023-07-11T08:45:54.000Z</time>
      </trkpt>
      <trkpt lat="45.76796" lon="4.81605">
        <ele>167.26926</ele>
        <time>2023-07-11T08:45:55.000Z</time>
      </trkpt>
      <trkpt lat="45.76794" lon="4.8161">
        <ele>167.14732</ele>
        <time>2023-07-11T08:45:56.000Z</time>
      </trkpt>
      <trkpt lat="45.76792" lon="4.81615">
        <ele>167.00899</ele>
        <time>2023-07-11T08:45:57.000Z</time>
      </trkpt>
      <trkpt lat="45.7679" lon="4.81621">
        <ele>166.84406</ele>
        <time>2023-07-11T08:45:58.000Z</time>
      </trkpt>
      <trkpt lat="45.76789" lon="4.81627">
        <ele>166.7135</ele>
        <time>2023-07-11T08:45:59.000Z</time>
      </trkpt>
      <trkpt lat="45.76787" lon="4.81633">
        <ele>166.54428</ele>
        <time>2023-07-11T08:46:00.000Z</time>
      </trkpt>
      <trkpt lat="45.76786" lon="4.81639">
        <ele>166.3772</ele>
        <time>2023-07-11T08:46:01.000Z</time>
      </trkpt>
      <trkpt lat="45.76784" lon="4.81646">
        <ele>166.1813</ele>
        <time>2023-07-11T08:46:02.000Z</time>
      </trkpt>
      <trkpt lat="45.76782" lon="4.81652">
        <ele>166.0023</ele>
        <time>2023-07-11T08:46:03.000Z</time>
      </trkpt>
      <trkpt lat="45.76781" lon="4.81659">
        <ele>165.81021</ele>
        <time>2023-07-11T08:46:04.000Z</time>
      </trkpt>
      <trkpt lat="45.76779" lon="4.81665">
        <ele>165.63449</ele>
        <time>2023-07-11T08:46:05.000Z</time>
      </trkpt>
      <trkpt lat="45.76777" lon="4.81672">
        <ele>165.46011</ele>
        <time>2023-07-11T08:46:06.000Z</time>
      </trkpt>
      <trkpt lat="45.76776" lon="4.81679">
        <ele>165.29277</ele>
        <time>2023-07-11T08:46:07.000Z</time>
      </trkpt>
      <trkpt lat="45.76774" lon="4.81687">
        <ele>165.12285</ele>
        <time>2023-07-11T08:46:08.000Z</time>
      </trkpt>
      <trkpt lat="45.76772" lon="4.81693">
        <ele>164.98807</ele>
        <time>2023-07-11T08:46:09.000Z</time>
      </trkpt>
      <trkpt lat="45.76771" lon="4.81699">
        <ele>164.85056</ele>
        <time>2023-07-11T08:46:10.000Z</time>
      </trkpt>
      <trkpt lat="45.76769" lon="4.81706">
        <ele>164.75272</ele>
        <time>2023-07-11T08:46:11.000Z</time>
      </trkpt>
      <trkpt lat="45.76767" lon="4.81712">
        <ele>164.64847</ele>
        <time>2023-07-11T08:46:12.000Z</time>
      </trkpt>
      <trkpt lat="45.76766" lon="4.81718">
        <ele>164.59407</ele>
        <time>2023-07-11T08:46:13.000Z</time>
      </trkpt>
      <trkpt lat="45.76765" lon="4.81724">
        <ele>164.53725</ele>
        <time>2023-07-11T08:46:14.000Z</time>
      </trkpt>
      <trkpt lat="45.76763" lon="4.81731">
        <ele>164.5101</ele>
        <time>2023-07-11T08:46:15.000Z</time>
      </trkpt>
      <trkpt lat="45.76762" lon="4.81737">
        <ele>164.46469</ele>
        <time>2023-07-11T08:46:16.000Z</time>
      </trkpt>
      <trkpt lat="45.76761" lon="4.81745">
        <ele>164.41617</ele>
        <time>2023-07-11T08:46:17.000Z</time>
      </trkpt>
      <trkpt lat="45.76759" lon="4.81752">
        <ele>164.41045</ele>
        <time>2023-07-11T08:46:18.000Z</time>
      </trkpt>
      <trkpt lat="45.76757" lon="4.81758">
        <ele>164.40102</ele>
        <time>2023-07-11T08:46:19.000Z</time>
      </trkpt>
      <trkpt lat="45.76756" lon="4.81765">
        <ele>164.39879</ele>
        <time>2023-07-11T08:46:20.000Z</time>
      </trkpt>
      <trkpt lat="45.76755" lon="4.81772">
        <ele>164.3871</ele>
        <time>2023-07-11T08:46:21.000Z</time>
      </trkpt>
      <trkpt lat="45.76754" lon="4.81779">
        <ele>164.41878</ele>
        <time>2023-07-11T08:46:22.000Z</time>
      </trkpt>
      <trkpt lat="45.76752" lon="4.81786">
        <ele>164.44286</ele>
        <time>2023-07-11T08:46:23.000Z</time>
      </trkpt>
      <trkpt lat="45.76751" lon="4.81793">
        <ele>164.4883</ele>
        <time>2023-07-11T08:46:24.000Z</time>
      </trkpt>
      <trkpt lat="45.7675" lon="4.81801">
        <ele>164.52548</ele>
        <time>2023-07-11T08:46:25.000Z</time>
      </trkpt>
      <trkpt lat="45.76749" lon="4.81808">
        <ele>164.57938</ele>
        <time>2023-07-11T08:46:26.000Z</time>
      </trkpt>
      <trkpt lat="45.76748" lon="4.81816">
        <ele>164.64072</ele>
        <time>2023-07-11T08:46:27.000Z</time>
      </trkpt>
      <trkpt lat="45.76747" lon="4.81823">
        <ele>164.69762</ele>
        <time>2023-07-11T08:46:28.000Z</time>
      </trkpt>
      <trkpt lat="45.76745" lon="4.81831">
        <ele>164.74701</ele>
        <time>2023-07-11T08:46:29.000Z</time>
      </trkpt>
      <trkpt lat="45.76745" lon="4.81838">
        <ele>164.80768</ele>
        <time>2023-07-11T08:46:30.000Z</time>
      </trkpt>
      <trkpt lat="45.76744" lon="4.81846">
        <ele>164.85843</ele>
        <time>2023-07-11T08:46:31.000Z</time>
      </trkpt>
      <trkpt lat="45.76744" lon="4.81853">
        <ele>164.90553</ele>
        <time>2023-07-11T08:46:32.000Z</time>
      </trkpt>
      <trkpt lat="45.76744" lon="4.8186">
        <ele>164.94504</ele>
        <time>2023-07-11T08:46:33.000Z</time>
      </trkpt>
      <trkpt lat="45.76745" lon="4.81868">
        <ele>164.97484</ele>
        <time>2023-07-11T08:46:34.000Z</time>
      </trkpt>
      <trkpt lat="45.76746" lon="4.81875">
        <ele>164.99182</ele>
        <time>2023-07-11T08:46:35.000Z</time>
      </trkpt>
      <trkpt lat="45.76747" lon="4.81883">
        <ele>165.00848</ele>
        <time>2023-07-11T08:46:36.000Z</time>
      </trkpt>
      <trkpt lat="45.76748" lon="4.81891">
        <ele>165.04166</ele>
        <time>2023-07-11T08:46:37.000Z</time>
      </trkpt>
      <trkpt lat="45.7675" lon="4.81897">
        <ele>165.06474</ele>
        <time>2023-07-11T08:46:38.000Z</time>
      </trkpt>
      <trkpt lat="45.76751" lon="4.81905">
        <ele>165.07877</ele>
        <time>2023-07-11T08:46:39.000Z</time>
      </trkpt>
      <trkpt lat="45.76753" lon="4.81912">
        <ele>165.12715</ele>
        <time>2023-07-11T08:46:40.000Z</time>
      </trkpt>
      <trkpt lat="45.76754" lon="4.81918">
        <ele>165.18849</ele>
        <time>2023-07-11T08:46:41.000Z</time>
      </trkpt>
      <trkpt lat="45.76755" lon="4.81924">
        <ele>165.25156</ele>
        <time>2023-07-11T08:46:42.000Z</time>
      </trkpt>
      <trkpt lat="45.76757" lon="4.81931">
        <ele>165.3163</ele>
        <time>2023-07-11T08:46:43.000Z</time>
      </trkpt>
      <trkpt lat="45.76759" lon="4.81937">
        <ele>165.38438</ele>
        <time>2023-07-11T08:46:44.000Z</time>
      </trkpt>
      <trkpt lat="45.76761" lon="4.81943">
        <ele>165.47665</ele>
        <time>2023-07-11T08:46:45.000Z</time>
      </trkpt>
      <trkpt lat="45.76763" lon="4.8195">
        <ele>165.52173</ele>
        <time>2023-07-11T08:46:46.000Z</time>
      </trkpt>
      <trkpt lat="45.76763" lon="4.81956">
        <ele>165.60266</ele>
        <time>2023-07-11T08:46:47.000Z</time>
      </trkpt>
      <trkpt lat="45.76764" lon="4.81962">
        <ele>165.72836</ele>
        <time>2023-07-11T08:46:48.000Z</time>
      </trkpt>
      <trkpt lat="45.76764" lon="4.81967">
        <ele>165.87657</ele>
        <time>2023-07-11T08:46:49.000Z</time>
      </trkpt>
      <trkpt lat="45.76765" lon="4.81972">
        <ele>166.04691</ele>
        <time>2023-07-11T08:46:50.000Z</time>
      </trkpt>
      <trkpt lat="45.76766" lon="4.81977">
        <ele>166.23038</ele>
        <time>2023-07-11T08:46:51.000Z</time>
      </trkpt>
      <trkpt lat="45.76767" lon="4.81982">
        <ele>166.43944</ele>
        <time>2023-07-11T08:46:52.000Z</time>
      </trkpt>
      <trkpt lat="45.76767" lon="4.81987">
        <ele>166.6541</ele>
        <time>2023-07-11T08:46:53.000Z</time>
      </trkpt>
      <trkpt lat="45.76768" lon="4.81991">
        <ele>166.86971</ele>
        <time>2023-07-11T08:46:54.000Z</time>
      </trkpt>
      <trkpt lat="45.76769" lon="4.81996">
        <ele>167.18527</ele>
        <time>2023-07-11T08:46:55.000Z</time>
      </trkpt>
      <trkpt lat="45.76771" lon="4.82">
        <ele>167.49583</ele>
        <time>2023-07-11T08:46:56.000Z</time>
      </trkpt>
      <trkpt lat="45.76773" lon="4.82004">
        <ele>167.80777</ele>
        <time>2023-07-11T08:46:57.000Z</time>
      </trkpt>
      <trkpt lat="45.76775" lon="4.82008">
        <ele>168.11322</ele>
        <time>2023-07-11T08:46:58.000Z</time>
      </trkpt>
      <trkpt lat="45.76776" lon="4.82012">
        <ele>168.42969</ele>
        <time>2023-07-11T08:46:59.000Z</time>
      </trkpt>
      <trkpt lat="45.76777" lon="4.82015">
        <ele>168.76111</ele>
        <time>2023-07-11T08:47:00.000Z</time>
      </trkpt>
      <trkpt lat="45.76778" lon="4.82018">
        <ele>169.07674</ele>
        <time>2023-07-11T08:47:01.000Z</time>
      </trkpt>
      <trkpt lat="45.76778" lon="4.82021">
        <ele>169.35992</ele>
        <time>2023-07-11T08:47:02.000Z</time>
      </trkpt>
      <trkpt lat="45.76779" lon="4.82026">
        <ele>169.61862</ele>
        <time>2023-07-11T08:47:04.000Z</time>
      </trkpt>
      <trkpt lat="45.76779" lon="4.82029">
        <ele>169.86389</ele>
        <time>2023-07-11T08:47:05.000Z</time>
      </trkpt>
      <trkpt lat="45.76779" lon="4.82031">
        <ele>170.08878</ele>
        <time>2023-07-11T08:47:06.000Z</time>
      </trkpt>
      <trkpt lat="45.76779" lon="4.82035">
        <ele>170.35982</ele>
        <time>2023-07-11T08:47:07.000Z</time>
      </trkpt>
      <trkpt lat="45.7678" lon="4.82038">
        <ele>170.5856</ele>
        <time>2023-07-11T08:47:08.000Z</time>
      </trkpt>
      <trkpt lat="45.7678" lon="4.82042">
        <ele>170.75998</ele>
        <time>2023-07-11T08:47:09.000Z</time>
      </trkpt>
      <trkpt lat="45.76781" lon="4.82045">
        <ele>170.87296</ele>
        <time>2023-07-11T08:47:10.000Z</time>
      </trkpt>
      <trkpt lat="45.76781" lon="4.8205">
        <ele>170.93979</ele>
        <time>2023-07-11T08:47:11.000Z</time>
      </trkpt>
      <trkpt lat="45.76781" lon="4.82053">
        <ele>171.06763</ele>
        <time>2023-07-11T08:47:12.000Z</time>
      </trkpt>
      <trkpt lat="45.76782" lon="4.82057">
        <ele>171.15485</ele>
        <time>2023-07-11T08:47:13.000Z</time>
      </trkpt>
      <trkpt lat="45.76782" lon="4.82062">
        <ele>171.18124</ele>
        <time>2023-07-11T08:47:15.000Z</time>
      </trkpt>
      <trkpt lat="45.76782" lon="4.82066">
        <ele>171.17628</ele>
        <time>2023-07-11T08:47:16.000Z</time>
      </trkpt>
      <trkpt lat="45.76782" lon="4.8207">
        <ele>171.02367</ele>
        <time>2023-07-11T08:47:17.000Z</time>
      </trkpt>
      <trkpt lat="45.76784" lon="4.82074">
        <ele>170.86649</ele>
        <time>2023-07-11T08:47:18.000Z</time>
      </trkpt>
      <trkpt lat="45.76785" lon="4.82077">
        <ele>170.69968</ele>
        <time>2023-07-11T08:47:19.000Z</time>
      </trkpt>
      <trkpt lat="45.76785" lon="4.8208">
        <ele>170.53981</ele>
        <time>2023-07-11T08:47:20.000Z</time>
      </trkpt>
      <trkpt lat="45.76786" lon="4.82083">
        <ele>170.38148</ele>
        <time>2023-07-11T08:47:21.000Z</time>
      </trkpt>
      <trkpt lat="45.76786" lon="4.82086">
        <ele>170.19077</ele>
        <time>2023-07-11T08:47:22.000Z</time>
      </trkpt>
      <trkpt lat="45.76787" lon="4.82089">
        <ele>170.0024</ele>
        <time>2023-07-11T08:47:23.000Z</time>
      </trkpt>
      <trkpt lat="45.76787" lon="4.82092">
        <ele>169.82986</ele>
        <time>2023-07-11T08:47:24.000Z</time>
      </trkpt>
      <trkpt lat="45.76788" lon="4.82095">
        <ele>169.65242</ele>
        <time>2023-07-11T08:47:25.000Z</time>
      </trkpt>
      <trkpt lat="45.76789" lon="4.82098">
        <ele>169.46461</ele>
        <time>2023-07-11T08:47:26.000Z</time>
      </trkpt>
      <trkpt lat="45.7679" lon="4.82102">
        <ele>169.27968</ele>
        <time>2023-07-11T08:47:27.000Z</time>
      </trkpt>
      <trkpt lat="45.76793" lon="4.82108">
        <ele>169.07089</ele>
        <time>2023-07-11T08:47:28.000Z</time>
      </trkpt>
      <trkpt lat="45.76794" lon="4.82114">
        <ele>168.88095</ele>
        <time>2023-07-11T08:47:29.000Z</time>
      </trkpt>
      <trkpt lat="45.76796" lon="4.82122">
        <ele>168.668</ele>
        <time>2023-07-11T08:47:30.000Z</time>
      </trkpt>
      <trkpt lat="45.76797" lon="4.82131">
        <ele>168.46162</ele>
        <time>2023-07-11T08:47:31.000Z</time>
      </trkpt>
      <trkpt lat="45.768" lon="4.82139">
        <ele>168.2384</ele>
        <time>2023-07-11T08:47:32.000Z</time>
      </trkpt>
      <trkpt lat="45.76801" lon="4.82149">
        <ele>167.93398</ele>
        <time>2023-07-11T08:47:33.000Z</time>
      </trkpt>
      <trkpt lat="45.76802" lon="4.82159">
        <ele>167.66116</ele>
        <time>2023-07-11T08:47:34.000Z</time>
      </trkpt>
      <trkpt lat="45.76802" lon="4.8217">
        <ele>167.45114</ele>
        <time>2023-07-11T08:47:35.000Z</time>
      </trkpt>
      <trkpt lat="45.76804" lon="4.8218">
        <ele>167.27615</ele>
        <time>2023-07-11T08:47:36.000Z</time>
      </trkpt>
      <trkpt lat="45.76806" lon="4.82189">
        <ele>167.1431</ele>
        <time>2023-07-11T08:47:37.000Z</time>
      </trkpt>
      <trkpt lat="45.76808" lon="4.82198">
        <ele>167.02275</ele>
        <time>2023-07-11T08:47:38.000Z</time>
      </trkpt>
      <trkpt lat="45.76809" lon="4.82208">
        <ele>166.87741</ele>
        <time>2023-07-11T08:47:39.000Z</time>
      </trkpt>
      <trkpt lat="45.76812" lon="4.82216">
        <ele>166.72162</ele>
        <time>2023-07-11T08:47:40.000Z</time>
      </trkpt>
      <trkpt lat="45.76814" lon="4.82224">
        <ele>166.55478</ele>
        <time>2023-07-11T08:47:41.000Z</time>
      </trkpt>
      <trkpt lat="45.76816" lon="4.82232">
        <ele>166.37845</ele>
        <time>2023-07-11T08:47:42.000Z</time>
      </trkpt>
      <trkpt lat="45.76816" lon="4.8224">
        <ele>166.21472</ele>
        <time>2023-07-11T08:47:43.000Z</time>
      </trkpt>
      <trkpt lat="45.76817" lon="4.82248">
        <ele>166.05598</ele>
        <time>2023-07-11T08:47:44.000Z</time>
      </trkpt>
      <trkpt lat="45.76817" lon="4.82256">
        <ele>165.93372</ele>
        <time>2023-07-11T08:47:45.000Z</time>
      </trkpt>
      <trkpt lat="45.76818" lon="4.82264">
        <ele>165.83049</ele>
        <time>2023-07-11T08:47:46.000Z</time>
      </trkpt>
      <trkpt lat="45.76818" lon="4.82273">
        <ele>165.70204</ele>
        <time>2023-07-11T08:47:47.000Z</time>
      </trkpt>
      <trkpt lat="45.76819" lon="4.82281">
        <ele>165.60707</ele>
        <time>2023-07-11T08:47:48.000Z</time>
      </trkpt>
      <trkpt lat="45.76819" lon="4.82288">
        <ele>165.49272</ele>
        <time>2023-07-11T08:47:49.000Z</time>
      </trkpt>
      <trkpt lat="45.76819" lon="4.82296">
        <ele>165.44557</ele>
        <time>2023-07-11T08:47:50.000Z</time>
      </trkpt>
      <trkpt lat="45.7682" lon="4.82303">
        <ele>165.41133</ele>
        <time>2023-07-11T08:47:51.000Z</time>
      </trkpt>
      <trkpt lat="45.7682" lon="4.82311">
        <ele>165.40649</ele>
        <time>2023-07-11T08:47:52.000Z</time>
      </trkpt>
      <trkpt lat="45.7682" lon="4.82319">
        <ele>165.41501</ele>
        <time>2023-07-11T08:47:53.000Z</time>
      </trkpt>
      <trkpt lat="45.76821" lon="4.82327">
        <ele>165.41257</ele>
        <time>2023-07-11T08:47:54.000Z</time>
      </trkpt>
      <trkpt lat="45.76821" lon="4.82335">
        <ele>165.39568</ele>
        <time>2023-07-11T08:47:55.000Z</time>
      </trkpt>
      <trkpt lat="45.76822" lon="4.82343">
        <ele>165.36935</ele>
        <time>2023-07-11T08:47:56.000Z</time>
      </trkpt>
      <trkpt lat="45.76822" lon="4.82351">
        <ele>165.36491</ele>
        <time>2023-07-11T08:47:57.000Z</time>
      </trkpt>
      <trkpt lat="45.76822" lon="4.82358">
        <ele>165.35817</ele>
        <time>2023-07-11T08:47:58.000Z</time>
      </trkpt>
      <trkpt lat="45.76823" lon="4.82366">
        <ele>165.37701</ele>
        <time>2023-07-11T08:47:59.000Z</time>
      </trkpt>
      <trkpt lat="45.76823" lon="4.82374">
        <ele>165.39793</ele>
        <time>2023-07-11T08:48:00.000Z</time>
      </trkpt>
      <trkpt lat="45.76823" lon="4.82382">
        <ele>165.42618</ele>
        <time>2023-07-11T08:48:01.000Z</time>
      </trkpt>
      <trkpt lat="45.76825" lon="4.82389">
        <ele>165.46968</ele>
        <time>2023-07-11T08:48:02.000Z</time>
      </trkpt>
      <trkpt lat="45.76826" lon="4.82396">
        <ele>165.51743</ele>
        <time>2023-07-11T08:48:03.000Z</time>
      </trkpt>
      <trkpt lat="45.76827" lon="4.82403">
        <ele>165.54433</ele>
        <time>2023-07-11T08:48:04.000Z</time>
      </trkpt>
      <trkpt lat="45.76828" lon="4.82411">
        <ele>165.55463</ele>
        <time>2023-07-11T08:48:05.000Z</time>
      </trkpt>
      <trkpt lat="45.76827" lon="4.82419">
        <ele>165.54587</ele>
        <time>2023-07-11T08:48:06.000Z</time>
      </trkpt>
      <trkpt lat="45.76828" lon="4.82426">
        <ele>165.55399</ele>
        <time>2023-07-11T08:48:07.000Z</time>
      </trkpt>
      <trkpt lat="45.76828" lon="4.82434">
        <ele>165.53314</ele>
        <time>2023-07-11T08:48:08.000Z</time>
      </trkpt>
      <trkpt lat="45.76829" lon="4.82441">
        <ele>165.52202</ele>
        <time>2023-07-11T08:48:09.000Z</time>
      </trkpt>
      <trkpt lat="45.76829" lon="4.82448">
        <ele>165.49088</ele>
        <time>2023-07-11T08:48:10.000Z</time>
      </trkpt>
      <trkpt lat="45.76829" lon="4.82456">
        <ele>165.47441</ele>
        <time>2023-07-11T08:48:11.000Z</time>
      </trkpt>
      <trkpt lat="45.7683" lon="4.82464">
        <ele>165.47403</ele>
        <time>2023-07-11T08:48:12.000Z</time>
      </trkpt>
      <trkpt lat="45.7683" lon="4.82471">
        <ele>165.47269</ele>
        <time>2023-07-11T08:48:13.000Z</time>
      </trkpt>
      <trkpt lat="45.76831" lon="4.82479">
        <ele>165.46284</ele>
        <time>2023-07-11T08:48:14.000Z</time>
      </trkpt>
      <trkpt lat="45.76831" lon="4.82488">
        <ele>165.44637</ele>
        <time>2023-07-11T08:48:15.000Z</time>
      </trkpt>
      <trkpt lat="45.76832" lon="4.82496">
        <ele>165.43188</ele>
        <time>2023-07-11T08:48:16.000Z</time>
      </trkpt>
      <trkpt lat="45.76832" lon="4.82505">
        <ele>165.40637</ele>
        <time>2023-07-11T08:48:17.000Z</time>
      </trkpt>
      <trkpt lat="45.76832" lon="4.82512">
        <ele>165.37943</ele>
        <time>2023-07-11T08:48:18.000Z</time>
      </trkpt>
      <trkpt lat="45.76832" lon="4.8252">
        <ele>165.34818</ele>
        <time>2023-07-11T08:48:19.000Z</time>
      </trkpt>
      <trkpt lat="45.76832" lon="4.82528">
        <ele>165.30971</ele>
        <time>2023-07-11T08:48:20.000Z</time>
      </trkpt>
      <trkpt lat="45.76832" lon="4.82536">
        <ele>165.26025</ele>
        <time>2023-07-11T08:48:21.000Z</time>
      </trkpt>
      <trkpt lat="45.76832" lon="4.82543">
        <ele>165.23009</ele>
        <time>2023-07-11T08:48:22.000Z</time>
      </trkpt>
      <trkpt lat="45.76832" lon="4.82551">
        <ele>165.18802</ele>
        <time>2023-07-11T08:48:23.000Z</time>
      </trkpt>
      <trkpt lat="45.76832" lon="4.82558">
        <ele>165.17874</ele>
        <time>2023-07-11T08:48:24.000Z</time>
      </trkpt>
      <trkpt lat="45.76833" lon="4.82566">
        <ele>165.18124</ele>
        <time>2023-07-11T08:48:25.000Z</time>
      </trkpt>
      <trkpt lat="45.76834" lon="4.82573">
        <ele>165.20029</ele>
        <time>2023-07-11T08:48:26.000Z</time>
      </trkpt>
      <trkpt lat="45.76834" lon="4.82581">
        <ele>165.21559</ele>
        <time>2023-07-11T08:48:27.000Z</time>
      </trkpt>
      <trkpt lat="45.76834" lon="4.82589">
        <ele>165.23575</ele>
        <time>2023-07-11T08:48:28.000Z</time>
      </trkpt>
      <trkpt lat="45.76833" lon="4.82597">
        <ele>165.24301</ele>
        <time>2023-07-11T08:48:29.000Z</time>
      </trkpt>
      <trkpt lat="45.76832" lon="4.82604">
        <ele>165.26303</ele>
        <time>2023-07-11T08:48:30.000Z</time>
      </trkpt>
      <trkpt lat="45.76831" lon="4.82612">
        <ele>165.26537</ele>
        <time>2023-07-11T08:48:31.000Z</time>
      </trkpt>
      <trkpt lat="45.76831" lon="4.82619">
        <ele>165.25101</ele>
        <time>2023-07-11T08:48:32.000Z</time>
      </trkpt>
      <trkpt lat="45.7683" lon="4.82627">
        <ele>165.22765</ele>
        <time>2023-07-11T08:48:33.000Z</time>
      </trkpt>
      <trkpt lat="45.76829" lon="4.82634">
        <ele>165.20682</ele>
        <time>2023-07-11T08:48:34.000Z</time>
      </trkpt>
      <trkpt lat="45.76828" lon="4.82642">
        <ele>165.19342</ele>
        <time>2023-07-11T08:48:35.000Z</time>
      </trkpt>
      <trkpt lat="45.76827" lon="4.8265">
        <ele>165.18582</ele>
        <time>2023-07-11T08:48:36.000Z</time>
      </trkpt>
      <trkpt lat="45.76826" lon="4.82657">
        <ele>165.16647</ele>
        <time>2023-07-11T08:48:37.000Z</time>
      </trkpt>
      <trkpt lat="45.76824" lon="4.82665">
        <ele>165.13983</ele>
        <time>2023-07-11T08:48:38.000Z</time>
      </trkpt>
      <trkpt lat="45.76823" lon="4.82672">
        <ele>165.11417</ele>
        <time>2023-07-11T08:48:39.000Z</time>
      </trkpt>
      <trkpt lat="45.76821" lon="4.8268">
        <ele>165.10612</ele>
        <time>2023-07-11T08:48:40.000Z</time>
      </trkpt>
      <trkpt lat="45.7682" lon="4.82687">
        <ele>165.1059</ele>
        <time>2023-07-11T08:48:41.000Z</time>
      </trkpt>
      <trkpt lat="45.76818" lon="4.82695">
        <ele>165.10434</ele>
        <time>2023-07-11T08:48:42.000Z</time>
      </trkpt>
      <trkpt lat="45.76816" lon="4.82702">
        <ele>165.10895</ele>
        <time>2023-07-11T08:48:43.000Z</time>
      </trkpt>
      <trkpt lat="45.76814" lon="4.8271">
        <ele>165.08267</ele>
        <time>2023-07-11T08:48:44.000Z</time>
      </trkpt>
      <trkpt lat="45.76813" lon="4.82717">
        <ele>165.05936</ele>
        <time>2023-07-11T08:48:45.000Z</time>
      </trkpt>
      <trkpt lat="45.76811" lon="4.82725">
        <ele>165.02396</ele>
        <time>2023-07-11T08:48:46.000Z</time>
      </trkpt>
      <trkpt lat="45.76809" lon="4.82733">
        <ele>165.00302</ele>
        <time>2023-07-11T08:48:47.000Z</time>
      </trkpt>
      <trkpt lat="45.76807" lon="4.82741">
        <ele>164.99052</ele>
        <time>2023-07-11T08:48:48.000Z</time>
      </trkpt>
      <trkpt lat="45.76806" lon="4.82749">
        <ele>164.9837</ele>
        <time>2023-07-11T08:48:49.000Z</time>
      </trkpt>
      <trkpt lat="45.76803" lon="4.82756">
        <ele>165.02231</ele>
        <time>2023-07-11T08:48:50.000Z</time>
      </trkpt>
      <trkpt lat="45.76802" lon="4.82762">
        <ele>165.12665</ele>
        <time>2023-07-11T08:48:51.000Z</time>
      </trkpt>
      <trkpt lat="45.768" lon="4.82768">
        <ele>165.27145</ele>
        <time>2023-07-11T08:48:52.000Z</time>
      </trkpt>
      <trkpt lat="45.76799" lon="4.82773">
        <ele>165.43936</ele>
        <time>2023-07-11T08:48:53.000Z</time>
      </trkpt>
      <trkpt lat="45.76797" lon="4.82779">
        <ele>165.63538</ele>
        <time>2023-07-11T08:48:54.000Z</time>
      </trkpt>
      <trkpt lat="45.76796" lon="4.82784">
        <ele>165.81697</ele>
        <time>2023-07-11T08:48:55.000Z</time>
      </trkpt>
      <trkpt lat="45.76796" lon="4.82787">
        <ele>165.9761</ele>
        <time>2023-07-11T08:48:56.000Z</time>
      </trkpt>
      <trkpt lat="45.76794" lon="4.8279">
        <ele>166.12625</ele>
        <time>2023-07-11T08:48:57.000Z</time>
      </trkpt>
      <trkpt lat="45.76795" lon="4.82794">
        <ele>166.24329</ele>
        <time>2023-07-11T08:48:58.000Z</time>
      </trkpt>
      <trkpt lat="45.76793" lon="4.82797">
        <ele>166.35863</ele>
        <time>2023-07-11T08:48:59.000Z</time>
      </trkpt>
      <trkpt lat="45.76791" lon="4.828">
        <ele>166.4843</ele>
        <time>2023-07-11T08:49:00.000Z</time>
      </trkpt>
      <trkpt lat="45.7679" lon="4.82803">
        <ele>166.61995</ele>
        <time>2023-07-11T08:49:01.000Z</time>
      </trkpt>
      <trkpt lat="45.7679" lon="4.82807">
        <ele>166.68625</ele>
        <time>2023-07-11T08:49:03.000Z</time>
      </trkpt>
      <trkpt lat="45.76789" lon="4.8281">
        <ele>166.76653</ele>
        <time>2023-07-11T08:49:04.000Z</time>
      </trkpt>
      <trkpt lat="45.76788" lon="4.82812">
        <ele>166.87082</ele>
        <time>2023-07-11T08:49:06.000Z</time>
      </trkpt>
      <trkpt lat="45.76787" lon="4.82814">
        <ele>166.9781</ele>
        <time>2023-07-11T08:49:12.000Z</time>
      </trkpt>
      <trkpt lat="45.76785" lon="4.82817">
        <ele>167.09872</ele>
        <time>2023-07-11T08:49:14.000Z</time>
      </trkpt>
      <trkpt lat="45.76784" lon="4.8282">
        <ele>167.18356</ele>
        <time>2023-07-11T08:49:15.000Z</time>
      </trkpt>
      <trkpt lat="45.76783" lon="4.82822">
        <ele>167.27448</ele>
        <time>2023-07-11T08:49:16.000Z</time>
      </trkpt>
      <trkpt lat="45.76781" lon="4.82825">
        <ele>167.35422</ele>
        <time>2023-07-11T08:49:17.000Z</time>
      </trkpt>
      <trkpt lat="45.7678" lon="4.82827">
        <ele>167.36295</ele>
        <time>2023-07-11T08:49:18.000Z</time>
      </trkpt>
      <trkpt lat="45.76779" lon="4.82832">
        <ele>167.32053</ele>
        <time>2023-07-11T08:49:20.000Z</time>
      </trkpt>
      <trkpt lat="45.76777" lon="4.82834">
        <ele>167.27628</ele>
        <time>2023-07-11T08:49:21.000Z</time>
      </trkpt>
      <trkpt lat="45.76775" lon="4.82838">
        <ele>167.21785</ele>
        <time>2023-07-11T08:49:23.000Z</time>
      </trkpt>
      <trkpt lat="45.76773" lon="4.82842">
        <ele>167.10841</ele>
        <time>2023-07-11T08:49:24.000Z</time>
      </trkpt>
      <trkpt lat="45.76769" lon="4.82851">
        <ele>167.01906</ele>
        <time>2023-07-11T08:49:25.000Z</time>
      </trkpt>
      <trkpt lat="45.76765" lon="4.82856">
        <ele>166.9628</ele>
        <time>2023-07-11T08:49:26.000Z</time>
      </trkpt>
      <trkpt lat="45.7676" lon="4.82863">
        <ele>166.90945</ele>
        <time>2023-07-11T08:49:27.000Z</time>
      </trkpt>
      <trkpt lat="45.76755" lon="4.82872">
        <ele>166.8676</ele>
        <time>2023-07-11T08:49:28.000Z</time>
      </trkpt>
      <trkpt lat="45.76749" lon="4.82878">
        <ele>166.85948</ele>
        <time>2023-07-11T08:49:29.000Z</time>
      </trkpt>
      <trkpt lat="45.76744" lon="4.82886">
        <ele>166.82498</ele>
        <time>2023-07-11T08:49:30.000Z</time>
      </trkpt>
      <trkpt lat="45.7674" lon="4.82895">
        <ele>166.78236</ele>
        <time>2023-07-11T08:49:31.000Z</time>
      </trkpt>
      <trkpt lat="45.76737" lon="4.82904">
        <ele>166.78865</ele>
        <time>2023-07-11T08:49:32.000Z</time>
      </trkpt>
      <trkpt lat="45.76733" lon="4.82913">
        <ele>166.75912</ele>
        <time>2023-07-11T08:49:33.000Z</time>
      </trkpt>
      <trkpt lat="45.7673" lon="4.82919">
        <ele>166.72646</ele>
        <time>2023-07-11T08:49:34.000Z</time>
      </trkpt>
      <trkpt lat="45.76727" lon="4.82926">
        <ele>166.69537</ele>
        <time>2023-07-11T08:49:35.000Z</time>
      </trkpt>
      <trkpt lat="45.76723" lon="4.8293">
        <ele>166.67036</ele>
        <time>2023-07-11T08:49:36.000Z</time>
      </trkpt>
      <trkpt lat="45.7672" lon="4.82935">
        <ele>166.69193</ele>
        <time>2023-07-11T08:49:37.000Z</time>
      </trkpt>
      <trkpt lat="45.76717" lon="4.82942">
        <ele>166.64919</ele>
        <time>2023-07-11T08:49:38.000Z</time>
      </trkpt>
      <trkpt lat="45.76715" lon="4.82947">
        <ele>166.63693</ele>
        <time>2023-07-11T08:49:39.000Z</time>
      </trkpt>
      <trkpt lat="45.76713" lon="4.82953">
        <ele>166.61423</ele>
        <time>2023-07-11T08:49:40.000Z</time>
      </trkpt>
      <trkpt lat="45.76711" lon="4.82958">
        <ele>166.61996</ele>
        <time>2023-07-11T08:49:41.000Z</time>
      </trkpt>
      <trkpt lat="45.76708" lon="4.82961">
        <ele>166.60347</ele>
        <time>2023-07-11T08:49:42.000Z</time>
      </trkpt>
      <trkpt lat="45.76704" lon="4.82964">
        <ele>166.60268</ele>
        <time>2023-07-11T08:49:43.000Z</time>
      </trkpt>
      <trkpt lat="45.76702" lon="4.82968">
        <ele>166.6709</ele>
        <time>2023-07-11T08:49:44.000Z</time>
      </trkpt>
      <trkpt lat="45.76701" lon="4.82973">
        <ele>166.74117</ele>
        <time>2023-07-11T08:49:45.000Z</time>
      </trkpt>
      <trkpt lat="45.76699" lon="4.82977">
        <ele>166.81967</ele>
        <time>2023-07-11T08:49:46.000Z</time>
      </trkpt>
      <trkpt lat="45.76696" lon="4.82981">
        <ele>166.9325</ele>
        <time>2023-07-11T08:49:47.000Z</time>
      </trkpt>
      <trkpt lat="45.76693" lon="4.82984">
        <ele>167.10756</ele>
        <time>2023-07-11T08:49:48.000Z</time>
      </trkpt>
      <trkpt lat="45.7669" lon="4.82988">
        <ele>167.25819</ele>
        <time>2023-07-11T08:49:49.000Z</time>
      </trkpt>
      <trkpt lat="45.76688" lon="4.82991">
        <ele>167.43275</ele>
        <time>2023-07-11T08:49:50.000Z</time>
      </trkpt>
      <trkpt lat="45.76685" lon="4.82995">
        <ele>167.63365</ele>
        <time>2023-07-11T08:49:51.000Z</time>
      </trkpt>
      <trkpt lat="45.76682" lon="4.82997">
        <ele>167.82431</ele>
        <time>2023-07-11T08:49:52.000Z</time>
      </trkpt>
      <trkpt lat="45.76679" lon="4.82998">
        <ele>168.03517</ele>
        <time>2023-07-11T08:49:53.000Z</time>
      </trkpt>
      <trkpt lat="45.76675" lon="4.82989">
        <ele>168.25949</ele>
        <time>2023-07-11T08:49:54.000Z</time>
      </trkpt>
      <trkpt lat="45.76673" lon="4.82983">
        <ele>168.48007</ele>
        <time>2023-07-11T08:49:55.000Z</time>
      </trkpt>
      <trkpt lat="45.7667" lon="4.82978">
        <ele>168.67432</ele>
        <time>2023-07-11T08:49:56.000Z</time>
      </trkpt>
      <trkpt lat="45.76668" lon="4.82973">
        <ele>168.8587</ele>
        <time>2023-07-11T08:49:57.000Z</time>
      </trkpt>
      <trkpt lat="45.76666" lon="4.82967">
        <ele>169.12025</ele>
        <time>2023-07-11T08:49:58.000Z</time>
      </trkpt>
      <trkpt lat="45.76664" lon="4.82961">
        <ele>169.36655</ele>
        <time>2023-07-11T08:49:59.000Z</time>
      </trkpt>
      <trkpt lat="45.76662" lon="4.82955">
        <ele>169.6227</ele>
        <time>2023-07-11T08:50:00.000Z</time>
      </trkpt>
      <trkpt lat="45.7666" lon="4.8295">
        <ele>169.83829</ele>
        <time>2023-07-11T08:50:01.000Z</time>
      </trkpt>
      <trkpt lat="45.76658" lon="4.82944">
        <ele>170.04221</ele>
        <time>2023-07-11T08:50:02.000Z</time>
      </trkpt>
      <trkpt lat="45.76656" lon="4.82939">
        <ele>170.21864</ele>
        <time>2023-07-11T08:50:03.000Z</time>
      </trkpt>
      <trkpt lat="45.76654" lon="4.82934">
        <ele>170.36276</ele>
        <time>2023-07-11T08:50:04.000Z</time>
      </trkpt>
      <trkpt lat="45.76652" lon="4.8293">
        <ele>170.49135</ele>
        <time>2023-07-11T08:50:05.000Z</time>
      </trkpt>
      <trkpt lat="45.76651" lon="4.82925">
        <ele>170.59467</ele>
        <time>2023-07-11T08:50:06.000Z</time>
      </trkpt>
      <trkpt lat="45.7665" lon="4.82921">
        <ele>170.75055</ele>
        <time>2023-07-11T08:50:07.000Z</time>
      </trkpt>
      <trkpt lat="45.76648" lon="4.82917">
        <ele>170.85814</ele>
        <time>2023-07-11T08:50:08.000Z</time>
      </trkpt>
      <trkpt lat="45.76647" lon="4.82913">
        <ele>170.95209</ele>
        <time>2023-07-11T08:50:09.000Z</time>
      </trkpt>
      <trkpt lat="45.76645" lon="4.82909">
        <ele>171.01173</ele>
        <time>2023-07-11T08:50:10.000Z</time>
      </trkpt>
      <trkpt lat="45.76643" lon="4.82904">
        <ele>171.03635</ele>
        <time>2023-07-11T08:50:11.000Z</time>
      </trkpt>
      <trkpt lat="45.76641" lon="4.82899">
        <ele>171.08008</ele>
        <time>2023-07-11T08:50:12.000Z</time>
      </trkpt>
      <trkpt lat="45.76639" lon="4.82894">
        <ele>171.11757</ele>
        <time>2023-07-11T08:50:13.000Z</time>
      </trkpt>
      <trkpt lat="45.76638" lon="4.82889">
        <ele>171.10992</ele>
        <time>2023-07-11T08:50:14.000Z</time>
      </trkpt>
      <trkpt lat="45.76636" lon="4.82883">
        <ele>171.08829</ele>
        <time>2023-07-11T08:50:15.000Z</time>
      </trkpt>
      <trkpt lat="45.76635" lon="4.82879">
        <ele>171.08179</ele>
        <time>2023-07-11T08:50:16.000Z</time>
      </trkpt>
      <trkpt lat="45.76635" lon="4.82876">
        <ele>171.06114</ele>
        <time>2023-07-11T08:50:17.000Z</time>
      </trkpt>
      <trkpt lat="45.76636" lon="4.82873">
        <ele>171.01323</ele>
        <time>2023-07-11T08:50:18.000Z</time>
      </trkpt>
      <trkpt lat="45.76637" lon="4.8287">
        <ele>170.96127</ele>
        <time>2023-07-11T08:50:19.000Z</time>
      </trkpt>
      <trkpt lat="45.76638" lon="4.82866">
        <ele>170.89639</ele>
        <time>2023-07-11T08:50:20.000Z</time>
      </trkpt>
      <trkpt lat="45.76637" lon="4.82863">
        <ele>170.86101</ele>
        <time>2023-07-11T08:50:21.000Z</time>
      </trkpt>
      <trkpt lat="45.76635" lon="4.8286">
        <ele>170.83453</ele>
        <time>2023-07-11T08:50:22.000Z</time>
      </trkpt>
      <trkpt lat="45.76634" lon="4.82859">
        <ele>170.82681</ele>
        <time>2023-07-11T08:50:23.000Z</time>
      </trkpt>
      <trkpt lat="45.76632" lon="4.82858">
        <ele>170.83023</ele>
        <time>2023-07-11T08:50:26.000Z</time>
      </trkpt>
      <trkpt lat="45.76629" lon="4.82853">
        <ele>170.85544</ele>
        <time>2023-07-11T08:50:28.000Z</time>
      </trkpt>
      <trkpt lat="45.76628" lon="4.8285">
        <ele>170.88602</ele>
        <time>2023-07-11T08:50:29.000Z</time>
      </trkpt>
      <trkpt lat="45.76627" lon="4.82845">
        <ele>170.83763</ele>
        <time>2023-07-11T08:50:30.000Z</time>
      </trkpt>
      <trkpt lat="45.76626" lon="4.82841">
        <ele>170.79707</ele>
        <time>2023-07-11T08:50:31.000Z</time>
      </trkpt>
      <trkpt lat="45.76625" lon="4.82836">
        <ele>170.7614</ele>
        <time>2023-07-11T08:50:32.000Z</time>
      </trkpt>
      <trkpt lat="45.76624" lon="4.82831">
        <ele>170.71638</ele>
        <time>2023-07-11T08:50:33.000Z</time>
      </trkpt>
      <trkpt lat="45.76622" lon="4.82827">
        <ele>170.67105</ele>
        <time>2023-07-11T08:50:34.000Z</time>
      </trkpt>
      <trkpt lat="45.76621" lon="4.82822">
        <ele>170.60573</ele>
        <time>2023-07-11T08:50:35.000Z</time>
      </trkpt>
      <trkpt lat="45.7662" lon="4.82818">
        <ele>170.53175</ele>
        <time>2023-07-11T08:50:36.000Z</time>
      </trkpt>
      <trkpt lat="45.7662" lon="4.82814">
        <ele>170.4967</ele>
        <time>2023-07-11T08:50:37.000Z</time>
      </trkpt>
      <trkpt lat="45.76619" lon="4.82809">
        <ele>170.476</ele>
        <time>2023-07-11T08:50:38.000Z</time>
      </trkpt>
      <trkpt lat="45.76618" lon="4.82805">
        <ele>170.44252</ele>
        <time>2023-07-11T08:50:39.000Z</time>
      </trkpt>
      <trkpt lat="45.76617" lon="4.82802">
        <ele>170.416</ele>
        <time>2023-07-11T08:50:40.000Z</time>
      </trkpt>
      <trkpt lat="45.76616" lon="4.82798">
        <ele>170.38406</ele>
        <time>2023-07-11T08:50:41.000Z</time>
      </trkpt>
      <trkpt lat="45.76614" lon="4.82794">
        <ele>170.32822</ele>
        <time>2023-07-11T08:50:42.000Z</time>
      </trkpt>
      <trkpt lat="45.76613" lon="4.82791">
        <ele>170.32547</ele>
        <time>2023-07-11T08:50:43.000Z</time>
      </trkpt>
      <trkpt lat="45.76612" lon="4.82789">
        <ele>170.32059</ele>
        <time>2023-07-11T08:50:44.000Z</time>
      </trkpt>
      <trkpt lat="45.76611" lon="4.82787">
        <ele>170.2986</ele>
        <time>2023-07-11T08:50:46.000Z</time>
      </trkpt>
      <trkpt lat="45.76609" lon="4.82783">
        <ele>170.27029</ele>
        <time>2023-07-11T08:50:48.000Z</time>
      </trkpt>
      <trkpt lat="45.76608" lon="4.8278">
        <ele>170.22423</ele>
        <time>2023-07-11T08:50:50.000Z</time>
      </trkpt>
      <trkpt lat="45.76608" lon="4.82777">
        <ele>170.18538</ele>
        <time>2023-07-11T08:50:52.000Z</time>
      </trkpt>
      <trkpt lat="45.76607" lon="4.82774">
        <ele>170.14023</ele>
        <time>2023-07-11T08:51:06.000Z</time>
      </trkpt>
      <trkpt lat="45.76607" lon="4.82774">
        <ele>170.14023</ele>
      </trkpt>
      <trkpt lat="45.76604" lon="4.82769">
        <ele>171.20163</ele>
      </trkpt>
      <trkpt lat="45.76605" lon="4.82766">
        <ele>172.34964</ele>
      </trkpt>
      <trkpt lat="45.76605" lon="4.82766">
        <ele>172.34964</ele>
        <time>2023-07-11T09:14:10.000Z</time>
      </trkpt>
      <trkpt lat="45.76605" lon="4.82763">
        <ele>173.49886</ele>
        <time>2023-07-11T09:14:12.000Z</time>
      </trkpt>
      <trkpt lat="45.76604" lon="4.8276">
        <ele>174.71457</ele>
        <time>2023-07-11T09:14:17.000Z</time>
      </trkpt>
      <trkpt lat="45.76601" lon="4.82757">
        <ele>175.88803</ele>
        <time>2023-07-11T09:14:19.000Z</time>
      </trkpt>
      <trkpt lat="45.766" lon="4.82755">
        <ele>177.11331</ele>
        <time>2023-07-11T09:14:20.000Z</time>
      </trkpt>
      <trkpt lat="45.76599" lon="4.82751">
        <ele>178.33023</ele>
        <time>2023-07-11T09:14:21.000Z</time>
      </trkpt>
      <trkpt lat="45.766" lon="4.82747">
        <ele>179.5443</ele>
        <time>2023-07-11T09:14:22.000Z</time>
      </trkpt>
      <trkpt lat="45.76602" lon="4.82743">
        <ele>180.73166</ele>
        <time>2023-07-11T09:14:23.000Z</time>
      </trkpt>
      <trkpt lat="45.76604" lon="4.82738">
        <ele>181.91795</ele>
        <time>2023-07-11T09:14:24.000Z</time>
      </trkpt>
      <trkpt lat="45.76604" lon="4.82734">
        <ele>183.05132</ele>
        <time>2023-07-11T09:14:25.000Z</time>
      </trkpt>
      <trkpt lat="45.76605" lon="4.8273">
        <ele>184.15041</ele>
        <time>2023-07-11T09:14:26.000Z</time>
      </trkpt>
      <trkpt lat="45.76604" lon="4.82727">
        <ele>185.30775</ele>
        <time>2023-07-11T09:14:27.000Z</time>
      </trkpt>
      <trkpt lat="45.76602" lon="4.82724">
        <ele>186.4026</ele>
        <time>2023-07-11T09:14:28.000Z</time>
      </trkpt>
      <trkpt lat="45.76598" lon="4.82724">
        <ele>187.45778</ele>
        <time>2023-07-11T09:14:29.000Z</time>
      </trkpt>
      <trkpt lat="45.76595" lon="4.82724">
        <ele>188.48036</ele>
        <time>2023-07-11T09:14:30.000Z</time>
      </trkpt>
      <trkpt lat="45.76592" lon="4.82724">
        <ele>189.45602</ele>
        <time>2023-07-11T09:14:31.000Z</time>
      </trkpt>
      <trkpt lat="45.76589" lon="4.82724">
        <ele>190.41333</ele>
        <time>2023-07-11T09:14:32.000Z</time>
      </trkpt>
      <trkpt lat="45.76586" lon="4.82723">
        <ele>191.35324</ele>
        <time>2023-07-11T09:14:33.000Z</time>
      </trkpt>
      <trkpt lat="45.76583" lon="4.8272">
        <ele>192.28166</ele>
        <time>2023-07-11T09:14:34.000Z</time>
      </trkpt>
      <trkpt lat="45.76582" lon="4.82716">
        <ele>192.1272</ele>
        <time>2023-07-11T09:14:35.000Z</time>
      </trkpt>
      <trkpt lat="45.7658" lon="4.82711">
        <ele>191.84235</ele>
        <time>2023-07-11T09:14:36.000Z</time>
      </trkpt>
      <trkpt lat="45.7658" lon="4.82706">
        <ele>191.58316</ele>
        <time>2023-07-11T09:14:37.000Z</time>
      </trkpt>
      <trkpt lat="45.76581" lon="4.82701">
        <ele>191.30234</ele>
        <time>2023-07-11T09:14:38.000Z</time>
      </trkpt>
      <trkpt lat="45.76582" lon="4.82695">
        <ele>191.08565</ele>
        <time>2023-07-11T09:14:39.000Z</time>
      </trkpt>
      <trkpt lat="45.76583" lon="4.82689">
        <ele>190.85281</ele>
        <time>2023-07-11T09:14:40.000Z</time>
      </trkpt>
      <trkpt lat="45.76584" lon="4.82684">
        <ele>190.65086</ele>
        <time>2023-07-11T09:14:41.000Z</time>
      </trkpt>
      <trkpt lat="45.76584" lon="4.82679">
        <ele>190.42799</ele>
        <time>2023-07-11T09:14:42.000Z</time>
      </trkpt>
      <trkpt lat="45.76584" lon="4.82676">
        <ele>190.26241</ele>
        <time>2023-07-11T09:14:43.000Z</time>
      </trkpt>
      <trkpt lat="45.76582" lon="4.82673">
        <ele>190.09006</ele>
        <time>2023-07-11T09:14:44.000Z</time>
      </trkpt>
      <trkpt lat="45.76578" lon="4.82671">
        <ele>189.9359</ele>
        <time>2023-07-11T09:14:45.000Z</time>
      </trkpt>
      <trkpt lat="45.76575" lon="4.82671">
        <ele>189.84361</ele>
        <time>2023-07-11T09:14:46.000Z</time>
      </trkpt>
      <trkpt lat="45.76572" lon="4.82672">
        <ele>189.7092</ele>
        <time>2023-07-11T09:14:47.000Z</time>
      </trkpt>
      <trkpt lat="45.76567" lon="4.82672">
        <ele>189.61932</ele>
        <time>2023-07-11T09:14:48.000Z</time>
      </trkpt>
      <trkpt lat="45.76563" lon="4.82671">
        <ele>189.57553</ele>
        <time>2023-07-11T09:14:49.000Z</time>
      </trkpt>
      <trkpt lat="45.76559" lon="4.8267">
        <ele>189.54305</ele>
        <time>2023-07-11T09:14:50.000Z</time>
      </trkpt>
      <trkpt lat="45.76555" lon="4.82667">
        <ele>189.58818</ele>
        <time>2023-07-11T09:14:51.000Z</time>
      </trkpt>
      <trkpt lat="45.76551" lon="4.82664">
        <ele>189.65091</ele>
        <time>2023-07-11T09:14:52.000Z</time>
      </trkpt>
      <trkpt lat="45.76547" lon="4.82662">
        <ele>189.70212</ele>
        <time>2023-07-11T09:14:53.000Z</time>
      </trkpt>
      <trkpt lat="45.76542" lon="4.82662">
        <ele>189.73569</ele>
        <time>2023-07-11T09:14:54.000Z</time>
      </trkpt>
      <trkpt lat="45.76537" lon="4.82663">
        <ele>189.7731</ele>
        <time>2023-07-11T09:14:55.000Z</time>
      </trkpt>
      <trkpt lat="45.76532" lon="4.82662">
        <ele>189.8755</ele>
        <time>2023-07-11T09:14:56.000Z</time>
      </trkpt>
      <trkpt lat="45.76529" lon="4.82661">
        <ele>189.92404</ele>
        <time>2023-07-11T09:14:57.000Z</time>
      </trkpt>
      <trkpt lat="45.76525" lon="4.8266">
        <ele>189.96115</ele>
        <time>2023-07-11T09:14:58.000Z</time>
      </trkpt>
      <trkpt lat="45.76521" lon="4.82658">
        <ele>189.99075</ele>
        <time>2023-07-11T09:14:59.000Z</time>
      </trkpt>
      <trkpt lat="45.76516" lon="4.82655">
        <ele>190.01117</ele>
        <time>2023-07-11T09:15:00.000Z</time>
      </trkpt>
      <trkpt lat="45.76512" lon="4.82654">
        <ele>189.97</ele>
        <time>2023-07-11T09:15:01.000Z</time>
      </trkpt>
      <trkpt lat="45.76506" lon="4.82654">
        <ele>189.9707</ele>
        <time>2023-07-11T09:15:02.000Z</time>
      </trkpt>
      <trkpt lat="45.76501" lon="4.82654">
        <ele>189.93239</ele>
        <time>2023-07-11T09:15:03.000Z</time>
      </trkpt>
      <trkpt lat="45.76496" lon="4.82655">
        <ele>189.93002</ele>
        <time>2023-07-11T09:15:04.000Z</time>
      </trkpt>
      <trkpt lat="45.76491" lon="4.82655">
        <ele>189.95207</ele>
        <time>2023-07-11T09:15:05.000Z</time>
      </trkpt>
      <trkpt lat="45.76488" lon="4.82653">
        <ele>189.94714</ele>
        <time>2023-07-11T09:15:06.000Z</time>
      </trkpt>
      <trkpt lat="45.76484" lon="4.82653">
        <ele>189.97414</ele>
        <time>2023-07-11T09:15:07.000Z</time>
      </trkpt>
      <trkpt lat="45.7648" lon="4.82654">
        <ele>190.01126</ele>
        <time>2023-07-11T09:15:08.000Z</time>
      </trkpt>
      <trkpt lat="45.76476" lon="4.82653">
        <ele>190.04814</ele>
        <time>2023-07-11T09:15:09.000Z</time>
      </trkpt>
      <trkpt lat="45.76471" lon="4.8265">
        <ele>190.10379</ele>
        <time>2023-07-11T09:15:10.000Z</time>
      </trkpt>
      <trkpt lat="45.76468" lon="4.82648">
        <ele>190.15547</ele>
        <time>2023-07-11T09:15:11.000Z</time>
      </trkpt>
      <trkpt lat="45.76462" lon="4.82646">
        <ele>190.19412</ele>
        <time>2023-07-11T09:15:12.000Z</time>
      </trkpt>
      <trkpt lat="45.76458" lon="4.82644">
        <ele>190.2601</ele>
        <time>2023-07-11T09:15:13.000Z</time>
      </trkpt>
      <trkpt lat="45.76453" lon="4.82644">
        <ele>190.41464</ele>
        <time>2023-07-11T09:15:14.000Z</time>
      </trkpt>
      <trkpt lat="45.76449" lon="4.82643">
        <ele>190.58475</ele>
        <time>2023-07-11T09:15:15.000Z</time>
      </trkpt>
      <trkpt lat="45.76444" lon="4.82643">
        <ele>190.78517</ele>
        <time>2023-07-11T09:15:16.000Z</time>
      </trkpt>
      <trkpt lat="45.76439" lon="4.82644">
        <ele>190.97554</ele>
        <time>2023-07-11T09:15:17.000Z</time>
      </trkpt>
      <trkpt lat="45.76435" lon="4.82642">
        <ele>191.19965</ele>
        <time>2023-07-11T09:15:18.000Z</time>
      </trkpt>
      <trkpt lat="45.76431" lon="4.8264">
        <ele>191.42917</ele>
        <time>2023-07-11T09:15:19.000Z</time>
      </trkpt>
      <trkpt lat="45.76427" lon="4.82638">
        <ele>191.63109</ele>
        <time>2023-07-11T09:15:20.000Z</time>
      </trkpt>
      <trkpt lat="45.76424" lon="4.82637">
        <ele>191.87088</ele>
        <time>2023-07-11T09:15:21.000Z</time>
      </trkpt>
      <trkpt lat="45.76421" lon="4.82636">
        <ele>192.11087</ele>
        <time>2023-07-11T09:15:22.000Z</time>
      </trkpt>
      <trkpt lat="45.76417" lon="4.82636">
        <ele>192.3857</ele>
        <time>2023-07-11T09:15:23.000Z</time>
      </trkpt>
      <trkpt lat="45.76413" lon="4.82635">
        <ele>192.64221</ele>
        <time>2023-07-11T09:15:24.000Z</time>
      </trkpt>
      <trkpt lat="45.76409" lon="4.82633">
        <ele>192.93137</ele>
        <time>2023-07-11T09:15:25.000Z</time>
      </trkpt>
      <trkpt lat="45.76405" lon="4.82632">
        <ele>193.25893</ele>
        <time>2023-07-11T09:15:26.000Z</time>
      </trkpt>
      <trkpt lat="45.76401" lon="4.82631">
        <ele>193.57507</ele>
        <time>2023-07-11T09:15:27.000Z</time>
      </trkpt>
      <trkpt lat="45.76396" lon="4.8263">
        <ele>193.91342</ele>
        <time>2023-07-11T09:15:28.000Z</time>
      </trkpt>
      <trkpt lat="45.76393" lon="4.82627">
        <ele>194.2579</ele>
        <time>2023-07-11T09:15:29.000Z</time>
      </trkpt>
      <trkpt lat="45.76389" lon="4.82626">
        <ele>194.61235</ele>
        <time>2023-07-11T09:15:30.000Z</time>
      </trkpt>
      <trkpt lat="45.76385" lon="4.82625">
        <ele>194.9588</ele>
        <time>2023-07-11T09:15:31.000Z</time>
      </trkpt>
      <trkpt lat="45.76382" lon="4.82624">
        <ele>195.24922</ele>
        <time>2023-07-11T09:15:32.000Z</time>
      </trkpt>
      <trkpt lat="45.76378" lon="4.82622">
        <ele>195.59468</ele>
        <time>2023-07-11T09:15:33.000Z</time>
      </trkpt>
      <trkpt lat="45.76373" lon="4.8262">
        <ele>195.89626</ele>
        <time>2023-07-11T09:15:34.000Z</time>
      </trkpt>
      <trkpt lat="45.76369" lon="4.82618">
        <ele>196.29239</ele>
        <time>2023-07-11T09:15:35.000Z</time>
      </trkpt>
      <trkpt lat="45.76365" lon="4.82617">
        <ele>196.67618</ele>
        <time>2023-07-11T09:15:36.000Z</time>
      </trkpt>
      <trkpt lat="45.76361" lon="4.82615">
        <ele>197.09726</ele>
        <time>2023-07-11T09:15:37.000Z</time>
      </trkpt>
      <trkpt lat="45.76358" lon="4.82614">
        <ele>197.53563</ele>
        <time>2023-07-11T09:15:38.000Z</time>
      </trkpt>
      <trkpt lat="45.76355" lon="4.82612">
        <ele>198.0002</ele>
        <time>2023-07-11T09:15:39.000Z</time>
      </trkpt>
      <trkpt lat="45.76352" lon="4.82609">
        <ele>198.46042</ele>
        <time>2023-07-11T09:15:40.000Z</time>
      </trkpt>
      <trkpt lat="45.7635" lon="4.82605">
        <ele>198.94019</ele>
        <time>2023-07-11T09:15:41.000Z</time>
      </trkpt>
      <trkpt lat="45.76347" lon="4.82602">
        <ele>199.40591</ele>
        <time>2023-07-11T09:15:42.000Z</time>
      </trkpt>
      <trkpt lat="45.76345" lon="4.82599">
        <ele>199.84772</ele>
        <time>2023-07-11T09:15:43.000Z</time>
      </trkpt>
      <trkpt lat="45.76343" lon="4.82596">
        <ele>200.31982</ele>
        <time>2023-07-11T09:15:44.000Z</time>
      </trkpt>
      <trkpt lat="45.7634" lon="4.82593">
        <ele>200.77264</ele>
        <time>2023-07-11T09:15:45.000Z</time>
      </trkpt>
      <trkpt lat="45.76338" lon="4.82591">
        <ele>201.22906</ele>
        <time>2023-07-11T09:15:46.000Z</time>
      </trkpt>
      <trkpt lat="45.76335" lon="4.82588">
        <ele>201.71924</ele>
        <time>2023-07-11T09:15:47.000Z</time>
      </trkpt>
      <trkpt lat="45.76332" lon="4.82585">
        <ele>202.174</ele>
        <time>2023-07-11T09:15:48.000Z</time>
      </trkpt>
      <trkpt lat="45.7633" lon="4.82583">
        <ele>202.6573</ele>
        <time>2023-07-11T09:15:49.000Z</time>
      </trkpt>
      <trkpt lat="45.76327" lon="4.8258">
        <ele>203.19319</ele>
        <time>2023-07-11T09:15:50.000Z</time>
      </trkpt>
      <trkpt lat="45.76324" lon="4.82579">
        <ele>203.70734</ele>
        <time>2023-07-11T09:15:51.000Z</time>
      </trkpt>
      <trkpt lat="45.76322" lon="4.82577">
        <ele>204.28777</ele>
        <time>2023-07-11T09:15:52.000Z</time>
      </trkpt>
      <trkpt lat="45.76319" lon="4.82574">
        <ele>204.79657</ele>
        <time>2023-07-11T09:15:53.000Z</time>
      </trkpt>
      <trkpt lat="45.76316" lon="4.82571">
        <ele>205.28076</ele>
        <time>2023-07-11T09:15:54.000Z</time>
      </trkpt>
      <trkpt lat="45.76314" lon="4.82567">
        <ele>205.67435</ele>
        <time>2023-07-11T09:15:55.000Z</time>
      </trkpt>
      <trkpt lat="45.76311" lon="4.82564">
        <ele>206.02837</ele>
        <time>2023-07-11T09:15:56.000Z</time>
      </trkpt>
      <trkpt lat="45.76308" lon="4.8256">
        <ele>206.50354</ele>
        <time>2023-07-11T09:15:57.000Z</time>
      </trkpt>
      <trkpt lat="45.76306" lon="4.82558">
        <ele>206.95699</ele>
        <time>2023-07-11T09:15:58.000Z</time>
      </trkpt>
      <trkpt lat="45.76303" lon="4.82557">
        <ele>207.39963</ele>
        <time>2023-07-11T09:15:59.000Z</time>
      </trkpt>
      <trkpt lat="45.763" lon="4.82555">
        <ele>207.90031</ele>
        <time>2023-07-11T09:16:00.000Z</time>
      </trkpt>
      <trkpt lat="45.76297" lon="4.82552">
        <ele>208.53825</ele>
        <time>2023-07-11T09:16:01.000Z</time>
      </trkpt>
      <trkpt lat="45.76294" lon="4.8255">
        <ele>209.15768</ele>
        <time>2023-07-11T09:16:02.000Z</time>
      </trkpt>
      <trkpt lat="45.76291" lon="4.82547">
        <ele>209.76175</ele>
        <time>2023-07-11T09:16:03.000Z</time>
      </trkpt>
      <trkpt lat="45.76289" lon="4.82544">
        <ele>210.3304</ele>
        <time>2023-07-11T09:16:04.000Z</time>
      </trkpt>
      <trkpt lat="45.76286" lon="4.82541">
        <ele>210.91544</ele>
        <time>2023-07-11T09:16:05.000Z</time>
      </trkpt>
      <trkpt lat="45.76284" lon="4.82538">
        <ele>211.4915</ele>
        <time>2023-07-11T09:16:06.000Z</time>
      </trkpt>
      <trkpt lat="45.76281" lon="4.82535">
        <ele>212.04489</ele>
        <time>2023-07-11T09:16:07.000Z</time>
      </trkpt>
      <trkpt lat="45.76279" lon="4.82532">
        <ele>212.61935</ele>
        <time>2023-07-11T09:16:08.000Z</time>
      </trkpt>
      <trkpt lat="45.76276" lon="4.82529">
        <ele>213.15976</ele>
        <time>2023-07-11T09:16:09.000Z</time>
      </trkpt>
      <trkpt lat="45.76273" lon="4.82526">
        <ele>213.46021</ele>
        <time>2023-07-11T09:16:10.000Z</time>
      </trkpt>
      <trkpt lat="45.7627" lon="4.82524">
        <ele>213.77966</ele>
        <time>2023-07-11T09:16:11.000Z</time>
      </trkpt>
      <trkpt lat="45.76268" lon="4.82521">
        <ele>214.12505</ele>
        <time>2023-07-11T09:16:12.000Z</time>
      </trkpt>
      <trkpt lat="45.76266" lon="4.82518">
        <ele>214.46628</ele>
        <time>2023-07-11T09:16:13.000Z</time>
      </trkpt>
      <trkpt lat="45.76264" lon="4.82515">
        <ele>214.85738</ele>
        <time>2023-07-11T09:16:14.000Z</time>
      </trkpt>
      <trkpt lat="45.76262" lon="4.82512">
        <ele>215.39914</ele>
        <time>2023-07-11T09:16:15.000Z</time>
      </trkpt>
      <trkpt lat="45.76259" lon="4.82508">
        <ele>216.00813</ele>
        <time>2023-07-11T09:16:16.000Z</time>
      </trkpt>
      <trkpt lat="45.76257" lon="4.82505">
        <ele>216.52238</ele>
        <time>2023-07-11T09:16:17.000Z</time>
      </trkpt>
      <trkpt lat="45.76255" lon="4.82502">
        <ele>217.05911</ele>
        <time>2023-07-11T09:16:18.000Z</time>
      </trkpt>
      <trkpt lat="45.76252" lon="4.82499">
        <ele>217.60876</ele>
        <time>2023-07-11T09:16:19.000Z</time>
      </trkpt>
      <trkpt lat="45.7625" lon="4.82496">
        <ele>218.12219</ele>
        <time>2023-07-11T09:16:20.000Z</time>
      </trkpt>
      <trkpt lat="45.76247" lon="4.82493">
        <ele>218.51033</ele>
        <time>2023-07-11T09:16:21.000Z</time>
      </trkpt>
      <trkpt lat="45.76245" lon="4.8249">
        <ele>218.91634</ele>
        <time>2023-07-11T09:16:22.000Z</time>
      </trkpt>
      <trkpt lat="45.76243" lon="4.82487">
        <ele>219.33801</ele>
        <time>2023-07-11T09:16:23.000Z</time>
      </trkpt>
      <trkpt lat="45.76241" lon="4.82483">
        <ele>219.41183</ele>
        <time>2023-07-11T09:16:24.000Z</time>
      </trkpt>
      <trkpt lat="45.76239" lon="4.82479">
        <ele>219.58823</ele>
        <time>2023-07-11T09:16:25.000Z</time>
      </trkpt>
      <trkpt lat="45.76237" lon="4.82475">
        <ele>219.66577</ele>
        <time>2023-07-11T09:16:26.000Z</time>
      </trkpt>
      <trkpt lat="45.76235" lon="4.82471">
        <ele>220.03435</ele>
        <time>2023-07-11T09:16:27.000Z</time>
      </trkpt>
      <trkpt lat="45.76233" lon="4.82468">
        <ele>220.39058</ele>
        <time>2023-07-11T09:16:28.000Z</time>
      </trkpt>
      <trkpt lat="45.76231" lon="4.82464">
        <ele>220.73396</ele>
        <time>2023-07-11T09:16:29.000Z</time>
      </trkpt>
      <trkpt lat="45.76229" lon="4.8246">
        <ele>221.28723</ele>
        <time>2023-07-11T09:16:30.000Z</time>
      </trkpt>
      <trkpt lat="45.76227" lon="4.82457">
        <ele>221.89851</ele>
        <time>2023-07-11T09:16:31.000Z</time>
      </trkpt>
      <trkpt lat="45.76225" lon="4.82453">
        <ele>222.48393</ele>
        <time>2023-07-11T09:16:32.000Z</time>
      </trkpt>
      <trkpt lat="45.76223" lon="4.8245">
        <ele>223.06662</ele>
        <time>2023-07-11T09:16:33.000Z</time>
      </trkpt>
      <trkpt lat="45.76221" lon="4.82446">
        <ele>223.59685</ele>
        <time>2023-07-11T09:16:34.000Z</time>
      </trkpt>
      <trkpt lat="45.7622" lon="4.82442">
        <ele>223.94279</ele>
        <time>2023-07-11T09:16:35.000Z</time>
      </trkpt>
      <trkpt lat="45.76218" lon="4.82438">
        <ele>224.24104</ele>
        <time>2023-07-11T09:16:36.000Z</time>
      </trkpt>
      <trkpt lat="45.76216" lon="4.82434">
        <ele>224.51167</ele>
        <time>2023-07-11T09:16:37.000Z</time>
      </trkpt>
      <trkpt lat="45.76214" lon="4.8243">
        <ele>224.69524</ele>
        <time>2023-07-11T09:16:38.000Z</time>
      </trkpt>
      <trkpt lat="45.76211" lon="4.82427">
        <ele>224.45975</ele>
        <time>2023-07-11T09:16:39.000Z</time>
      </trkpt>
      <trkpt lat="45.76208" lon="4.82424">
        <ele>224.23523</ele>
        <time>2023-07-11T09:16:40.000Z</time>
      </trkpt>
      <trkpt lat="45.76205" lon="4.82422">
        <ele>224.2131</ele>
        <time>2023-07-11T09:16:41.000Z</time>
      </trkpt>
      <trkpt lat="45.76202" lon="4.8242">
        <ele>224.23015</ele>
        <time>2023-07-11T09:16:42.000Z</time>
      </trkpt>
      <trkpt lat="45.76199" lon="4.82417">
        <ele>224.52332</ele>
        <time>2023-07-11T09:16:43.000Z</time>
      </trkpt>
      <trkpt lat="45.76195" lon="4.82414">
        <ele>225.14536</ele>
        <time>2023-07-11T09:16:44.000Z</time>
      </trkpt>
      <trkpt lat="45.76191" lon="4.82411">
        <ele>225.68314</ele>
        <time>2023-07-11T09:16:45.000Z</time>
      </trkpt>
      <trkpt lat="45.76187" lon="4.82408">
        <ele>226.32706</ele>
        <time>2023-07-11T09:16:46.000Z</time>
      </trkpt>
      <trkpt lat="45.76182" lon="4.82408">
        <ele>226.88193</ele>
        <time>2023-07-11T09:16:47.000Z</time>
      </trkpt>
      <trkpt lat="45.76178" lon="4.82406">
        <ele>227.45108</ele>
        <time>2023-07-11T09:16:48.000Z</time>
      </trkpt>
      <trkpt lat="45.76174" lon="4.82405">
        <ele>228.03647</ele>
        <time>2023-07-11T09:16:49.000Z</time>
      </trkpt>
      <trkpt lat="45.7617" lon="4.82404">
        <ele>228.634</ele>
        <time>2023-07-11T09:16:50.000Z</time>
      </trkpt>
      <trkpt lat="45.76166" lon="4.82403">
        <ele>228.87654</ele>
        <time>2023-07-11T09:16:51.000Z</time>
      </trkpt>
      <trkpt lat="45.76162" lon="4.82401">
        <ele>229.14954</ele>
        <time>2023-07-11T09:16:52.000Z</time>
      </trkpt>
      <trkpt lat="45.76158" lon="4.82401">
        <ele>229.45767</ele>
        <time>2023-07-11T09:16:53.000Z</time>
      </trkpt>
      <trkpt lat="45.76154" lon="4.82399">
        <ele>229.81006</ele>
        <time>2023-07-11T09:16:54.000Z</time>
      </trkpt>
      <trkpt lat="45.76151" lon="4.82397">
        <ele>230.1573</ele>
        <time>2023-07-11T09:16:55.000Z</time>
      </trkpt>
      <trkpt lat="45.76146" lon="4.82395">
        <ele>230.50728</ele>
        <time>2023-07-11T09:16:56.000Z</time>
      </trkpt>
      <trkpt lat="45.76143" lon="4.82394">
        <ele>230.85995</ele>
        <time>2023-07-11T09:16:57.000Z</time>
      </trkpt>
      <trkpt lat="45.7614" lon="4.82392">
        <ele>231.28091</ele>
        <time>2023-07-11T09:16:58.000Z</time>
      </trkpt>
      <trkpt lat="45.76136" lon="4.82391">
        <ele>232.10625</ele>
        <time>2023-07-11T09:16:59.000Z</time>
      </trkpt>
      <trkpt lat="45.76132" lon="4.8239">
        <ele>232.97603</ele>
        <time>2023-07-11T09:17:00.000Z</time>
      </trkpt>
      <trkpt lat="45.76129" lon="4.82389">
        <ele>233.6442</ele>
        <time>2023-07-11T09:17:01.000Z</time>
      </trkpt>
      <trkpt lat="45.76125" lon="4.82388">
        <ele>234.27405</ele>
        <time>2023-07-11T09:17:02.000Z</time>
      </trkpt>
      <trkpt lat="45.76122" lon="4.82388">
        <ele>234.65471</ele>
        <time>2023-07-11T09:17:03.000Z</time>
      </trkpt>
      <trkpt lat="45.76118" lon="4.82387">
        <ele>235.08955</ele>
        <time>2023-07-11T09:17:04.000Z</time>
      </trkpt>
      <trkpt lat="45.76114" lon="4.82387">
        <ele>235.49519</ele>
        <time>2023-07-11T09:17:05.000Z</time>
      </trkpt>
      <trkpt lat="45.76108" lon="4.82392">
        <ele>235.92046</ele>
        <time>2023-07-11T09:17:06.000Z</time>
      </trkpt>
      <trkpt lat="45.76104" lon="4.82393">
        <ele>236.12253</ele>
        <time>2023-07-11T09:17:07.000Z</time>
      </trkpt>
      <trkpt lat="45.76101" lon="4.82393">
        <ele>236.29106</ele>
        <time>2023-07-11T09:17:08.000Z</time>
      </trkpt>
      <trkpt lat="45.76097" lon="4.82394">
        <ele>236.48502</ele>
        <time>2023-07-11T09:17:09.000Z</time>
      </trkpt>
      <trkpt lat="45.76093" lon="4.82392">
        <ele>236.64438</ele>
        <time>2023-07-11T09:17:10.000Z</time>
      </trkpt>
      <trkpt lat="45.76089" lon="4.82388">
        <ele>237.48538</ele>
        <time>2023-07-11T09:17:11.000Z</time>
      </trkpt>
      <trkpt lat="45.76086" lon="4.82386">
        <ele>238.32471</ele>
        <time>2023-07-11T09:17:12.000Z</time>
      </trkpt>
      <trkpt lat="45.76082" lon="4.82384">
        <ele>239.13582</ele>
        <time>2023-07-11T09:17:13.000Z</time>
      </trkpt>
      <trkpt lat="45.76079" lon="4.82382">
        <ele>239.95187</ele>
        <time>2023-07-11T09:17:14.000Z</time>
      </trkpt>
      <trkpt lat="45.76075" lon="4.82379">
        <ele>240.75459</ele>
        <time>2023-07-11T09:17:15.000Z</time>
      </trkpt>
      <trkpt lat="45.76071" lon="4.82376">
        <ele>241.54776</ele>
        <time>2023-07-11T09:17:16.000Z</time>
      </trkpt>
      <trkpt lat="45.76067" lon="4.82374">
        <ele>242.37732</ele>
        <time>2023-07-11T09:17:17.000Z</time>
      </trkpt>
      <trkpt lat="45.76064" lon="4.82371">
        <ele>243.18863</ele>
        <time>2023-07-11T09:17:18.000Z</time>
      </trkpt>
      <trkpt lat="45.7606" lon="4.82368">
        <ele>243.9836</ele>
        <time>2023-07-11T09:17:19.000Z</time>
      </trkpt>
      <trkpt lat="45.76057" lon="4.82365">
        <ele>244.19748</ele>
        <time>2023-07-11T09:17:20.000Z</time>
      </trkpt>
      <trkpt lat="45.76054" lon="4.82361">
        <ele>244.39937</ele>
        <time>2023-07-11T09:17:21.000Z</time>
      </trkpt>
      <trkpt lat="45.7605" lon="4.82358">
        <ele>244.61075</ele>
        <time>2023-07-11T09:17:22.000Z</time>
      </trkpt>
      <trkpt lat="45.76046" lon="4.82355">
        <ele>244.78772</ele>
        <time>2023-07-11T09:17:23.000Z</time>
      </trkpt>
      <trkpt lat="45.76043" lon="4.82352">
        <ele>244.96677</ele>
        <time>2023-07-11T09:17:24.000Z</time>
      </trkpt>
      <trkpt lat="45.76041" lon="4.82347">
        <ele>245.12602</ele>
        <time>2023-07-11T09:17:25.000Z</time>
      </trkpt>
      <trkpt lat="45.76039" lon="4.82342">
        <ele>245.26065</ele>
        <time>2023-07-11T09:17:26.000Z</time>
      </trkpt>
      <trkpt lat="45.76037" lon="4.82338">
        <ele>245.39816</ele>
        <time>2023-07-11T09:17:27.000Z</time>
      </trkpt>
      <trkpt lat="45.76034" lon="4.82335">
        <ele>245.36301</ele>
        <time>2023-07-11T09:17:28.000Z</time>
      </trkpt>
      <trkpt lat="45.76032" lon="4.82331">
        <ele>245.29636</ele>
        <time>2023-07-11T09:17:29.000Z</time>
      </trkpt>
      <trkpt lat="45.76029" lon="4.82326">
        <ele>245.26704</ele>
        <time>2023-07-11T09:17:30.000Z</time>
      </trkpt>
      <trkpt lat="45.76027" lon="4.82322">
        <ele>244.87691</ele>
        <time>2023-07-11T09:17:31.000Z</time>
      </trkpt>
      <trkpt lat="45.76025" lon="4.82317">
        <ele>244.45842</ele>
        <time>2023-07-11T09:17:32.000Z</time>
      </trkpt>
      <trkpt lat="45.76023" lon="4.82313">
        <ele>244.04243</ele>
        <time>2023-07-11T09:17:33.000Z</time>
      </trkpt>
      <trkpt lat="45.76021" lon="4.82308">
        <ele>243.59766</ele>
        <time>2023-07-11T09:17:34.000Z</time>
      </trkpt>
      <trkpt lat="45.76018" lon="4.82303">
        <ele>243.16316</ele>
        <time>2023-07-11T09:17:35.000Z</time>
      </trkpt>
      <trkpt lat="45.76016" lon="4.82298">
        <ele>242.74899</ele>
        <time>2023-07-11T09:17:36.000Z</time>
      </trkpt>
      <trkpt lat="45.76014" lon="4.82293">
        <ele>242.32211</ele>
        <time>2023-07-11T09:17:37.000Z</time>
      </trkpt>
      <trkpt lat="45.76012" lon="4.82289">
        <ele>241.89828</ele>
        <time>2023-07-11T09:17:38.000Z</time>
      </trkpt>
      <trkpt lat="45.76009" lon="4.82284">
        <ele>241.47916</ele>
        <time>2023-07-11T09:17:39.000Z</time>
      </trkpt>
      <trkpt lat="45.76007" lon="4.8228">
        <ele>241.62573</ele>
        <time>2023-07-11T09:17:40.000Z</time>
      </trkpt>
      <trkpt lat="45.76005" lon="4.82277">
        <ele>241.77547</ele>
        <time>2023-07-11T09:17:41.000Z</time>
      </trkpt>
      <trkpt lat="45.76004" lon="4.82274">
        <ele>241.89217</ele>
        <time>2023-07-11T09:17:42.000Z</time>
      </trkpt>
      <trkpt lat="45.76002" lon="4.82271">
        <ele>242.03288</ele>
        <time>2023-07-11T09:17:43.000Z</time>
      </trkpt>
      <trkpt lat="45.76001" lon="4.82269">
        <ele>242.14937</ele>
        <time>2023-07-11T09:17:44.000Z</time>
      </trkpt>
      <trkpt lat="45.75999" lon="4.82267">
        <ele>242.27225</ele>
        <time>2023-07-11T09:17:45.000Z</time>
      </trkpt>
      <trkpt lat="45.75998" lon="4.82264">
        <ele>242.39714</ele>
        <time>2023-07-11T09:17:46.000Z</time>
      </trkpt>
      <trkpt lat="45.75997" lon="4.82261">
        <ele>242.56686</ele>
        <time>2023-07-11T09:17:47.000Z</time>
      </trkpt>
      <trkpt lat="45.75998" lon="4.82257">
        <ele>242.72881</ele>
        <time>2023-07-11T09:17:48.000Z</time>
      </trkpt>
      <trkpt lat="45.76002" lon="4.82253">
        <ele>242.88455</ele>
        <time>2023-07-11T09:17:49.000Z</time>
      </trkpt>
      <trkpt lat="45.76006" lon="4.82252">
        <ele>243.01834</ele>
        <time>2023-07-11T09:17:50.000Z</time>
      </trkpt>
      <trkpt lat="45.7601" lon="4.82253">
        <ele>243.11377</ele>
        <time>2023-07-11T09:17:51.000Z</time>
      </trkpt>
      <trkpt lat="45.76014" lon="4.82255">
        <ele>243.21318</ele>
        <time>2023-07-11T09:17:52.000Z</time>
      </trkpt>
      <trkpt lat="45.76018" lon="4.82257">
        <ele>245.43965</ele>
        <time>2023-07-11T09:17:53.000Z</time>
      </trkpt>
      <trkpt lat="45.76022" lon="4.82257">
        <ele>245.64751</ele>
        <time>2023-07-11T09:17:54.000Z</time>
      </trkpt>
      <trkpt lat="45.76026" lon="4.82255">
        <ele>245.86691</ele>
        <time>2023-07-11T09:17:55.000Z</time>
      </trkpt>
      <trkpt lat="45.7603" lon="4.82252">
        <ele>246.07114</ele>
        <time>2023-07-11T09:17:56.000Z</time>
      </trkpt>
      <trkpt lat="45.76032" lon="4.82247">
        <ele>246.25911</ele>
        <time>2023-07-11T09:17:57.000Z</time>
      </trkpt>
      <trkpt lat="45.76034" lon="4.82241">
        <ele>246.43222</ele>
        <time>2023-07-11T09:17:58.000Z</time>
      </trkpt>
      <trkpt lat="45.76034" lon="4.82235">
        <ele>248.5518</ele>
        <time>2023-07-11T09:17:59.000Z</time>
      </trkpt>
      <trkpt lat="45.76035" lon="4.8223">
        <ele>248.79329</ele>
        <time>2023-07-11T09:18:00.000Z</time>
      </trkpt>
      <trkpt lat="45.76034" lon="4.82222">
        <ele>250.34567</ele>
        <time>2023-07-11T09:18:01.000Z</time>
      </trkpt>
      <trkpt lat="45.76036" lon="4.82214">
        <ele>251.89224</ele>
        <time>2023-07-11T09:18:02.000Z</time>
      </trkpt>
      <trkpt lat="45.76037" lon="4.82206">
        <ele>253.40573</ele>
        <time>2023-07-11T09:18:03.000Z</time>
      </trkpt>
      <trkpt lat="45.76038" lon="4.82199">
        <ele>254.89482</ele>
        <time>2023-07-11T09:18:04.000Z</time>
      </trkpt>
      <trkpt lat="45.76039" lon="4.82192">
        <ele>256.53497</ele>
        <time>2023-07-11T09:18:05.000Z</time>
      </trkpt>
      <trkpt lat="45.76043" lon="4.82189">
        <ele>257.26361</ele>
        <time>2023-07-11T09:18:06.000Z</time>
      </trkpt>
      <trkpt lat="45.7605" lon="4.82191">
        <ele>258.04782</ele>
        <time>2023-07-11T09:18:07.000Z</time>
      </trkpt>
      <trkpt lat="45.76055" lon="4.82192">
        <ele>259.43759</ele>
        <time>2023-07-11T09:18:08.000Z</time>
      </trkpt>
      <trkpt lat="45.76059" lon="4.82194">
        <ele>260.79443</ele>
        <time>2023-07-11T09:18:09.000Z</time>
      </trkpt>
      <trkpt lat="45.76063" lon="4.82196">
        <ele>262.40326</ele>
        <time>2023-07-11T09:18:10.000Z</time>
      </trkpt>
      <trkpt lat="45.76067" lon="4.82199">
        <ele>264.00259</ele>
        <time>2023-07-11T09:18:11.000Z</time>
      </trkpt>
      <trkpt lat="45.76072" lon="4.82201">
        <ele>265.60339</ele>
        <time>2023-07-11T09:18:12.000Z</time>
      </trkpt>
      <trkpt lat="45.76076" lon="4.82203">
        <ele>265.11044</ele>
        <time>2023-07-11T09:18:13.000Z</time>
      </trkpt>
      <trkpt lat="45.76081" lon="4.82204">
        <ele>266.65851</ele>
        <time>2023-07-11T09:18:14.000Z</time>
      </trkpt>
      <trkpt lat="45.76085" lon="4.82206">
        <ele>268.20673</ele>
        <time>2023-07-11T09:18:15.000Z</time>
      </trkpt>
      <trkpt lat="45.7609" lon="4.82206">
        <ele>269.70361</ele>
        <time>2023-07-11T09:18:16.000Z</time>
      </trkpt>
      <trkpt lat="45.76096" lon="4.82208">
        <ele>271.16577</ele>
        <time>2023-07-11T09:18:17.000Z</time>
      </trkpt>
      <trkpt lat="45.76103" lon="4.82209">
        <ele>272.57361</ele>
        <time>2023-07-11T09:18:18.000Z</time>
      </trkpt>
      <trkpt lat="45.76108" lon="4.82214">
        <ele>272.08942</ele>
        <time>2023-07-11T09:18:19.000Z</time>
      </trkpt>
      <trkpt lat="45.76113" lon="4.82216">
        <ele>273.43292</ele>
        <time>2023-07-11T09:18:20.000Z</time>
      </trkpt>
      <trkpt lat="45.76119" lon="4.82218">
        <ele>273.42038</ele>
        <time>2023-07-11T09:18:21.000Z</time>
      </trkpt>
      <trkpt lat="45.76122" lon="4.82218">
        <ele>273.40253</ele>
        <time>2023-07-11T09:18:22.000Z</time>
      </trkpt>
      <trkpt lat="45.76128" lon="4.82218">
        <ele>273.5144</ele>
        <time>2023-07-11T09:18:23.000Z</time>
      </trkpt>
      <trkpt lat="45.76134" lon="4.82218">
        <ele>273.59885</ele>
        <time>2023-07-11T09:18:24.000Z</time>
      </trkpt>
      <trkpt lat="45.76138" lon="4.82215">
        <ele>273.55621</ele>
        <time>2023-07-11T09:18:25.000Z</time>
      </trkpt>
      <trkpt lat="45.76143" lon="4.8221">
        <ele>274.30908</ele>
        <time>2023-07-11T09:18:26.000Z</time>
      </trkpt>
      <trkpt lat="45.76148" lon="4.82206">
        <ele>275.30869</ele>
        <time>2023-07-11T09:18:27.000Z</time>
      </trkpt>
      <trkpt lat="45.76152" lon="4.82203">
        <ele>275.97272</ele>
        <time>2023-07-11T09:18:28.000Z</time>
      </trkpt>
      <trkpt lat="45.76155" lon="4.822">
        <ele>276.66888</ele>
        <time>2023-07-11T09:18:29.000Z</time>
      </trkpt>
      <trkpt lat="45.76159" lon="4.82198">
        <ele>277.10239</ele>
        <time>2023-07-11T09:18:30.000Z</time>
      </trkpt>
      <trkpt lat="45.76162" lon="4.82195">
        <ele>277.54193</ele>
        <time>2023-07-11T09:18:31.000Z</time>
      </trkpt>
      <trkpt lat="45.76164" lon="4.82194">
        <ele>277.94501</ele>
        <time>2023-07-11T09:18:32.000Z</time>
      </trkpt>
      <trkpt lat="45.76167" lon="4.82194">
        <ele>278.26154</ele>
        <time>2023-07-11T09:18:33.000Z</time>
      </trkpt>
      <trkpt lat="45.76171" lon="4.82194">
        <ele>278.50836</ele>
        <time>2023-07-11T09:18:34.000Z</time>
      </trkpt>
      <trkpt lat="45.76174" lon="4.82195">
        <ele>278.75357</ele>
        <time>2023-07-11T09:18:35.000Z</time>
      </trkpt>
      <trkpt lat="45.76176" lon="4.82196">
        <ele>279.2063</ele>
        <time>2023-07-11T09:18:36.000Z</time>
      </trkpt>
      <trkpt lat="45.76178" lon="4.82196">
        <ele>279.57764</ele>
        <time>2023-07-11T09:18:37.000Z</time>
      </trkpt>
      <trkpt lat="45.7618" lon="4.82196">
        <ele>279.99359</ele>
        <time>2023-07-11T09:18:38.000Z</time>
      </trkpt>
      <trkpt lat="45.76184" lon="4.82197">
        <ele>280.3833</ele>
        <time>2023-07-11T09:18:39.000Z</time>
      </trkpt>
      <trkpt lat="45.76187" lon="4.82197">
        <ele>280.74915</ele>
        <time>2023-07-11T09:18:40.000Z</time>
      </trkpt>
      <trkpt lat="45.76189" lon="4.82198">
        <ele>281.19214</ele>
        <time>2023-07-11T09:18:41.000Z</time>
      </trkpt>
      <trkpt lat="45.76192" lon="4.82198">
        <ele>281.70154</ele>
        <time>2023-07-11T09:18:42.000Z</time>
      </trkpt>
      <trkpt lat="45.76194" lon="4.82199">
        <ele>282.09561</ele>
        <time>2023-07-11T09:18:43.000Z</time>
      </trkpt>
      <trkpt lat="45.76197" lon="4.82199">
        <ele>282.60522</ele>
        <time>2023-07-11T09:18:44.000Z</time>
      </trkpt>
      <trkpt lat="45.76199" lon="4.82198">
        <ele>283.08548</ele>
        <time>2023-07-11T09:18:45.000Z</time>
      </trkpt>
      <trkpt lat="45.76202" lon="4.82197">
        <ele>283.70142</ele>
        <time>2023-07-11T09:18:46.000Z</time>
      </trkpt>
      <trkpt lat="45.76203" lon="4.82194">
        <ele>284.00064</ele>
        <time>2023-07-11T09:18:47.000Z</time>
      </trkpt>
      <trkpt lat="45.76204" lon="4.82189">
        <ele>284.20306</ele>
        <time>2023-07-11T09:18:48.000Z</time>
      </trkpt>
      <trkpt lat="45.76204" lon="4.82184">
        <ele>284.44427</ele>
        <time>2023-07-11T09:18:49.000Z</time>
      </trkpt>
      <trkpt lat="45.76205" lon="4.82179">
        <ele>284.70258</ele>
        <time>2023-07-11T09:18:50.000Z</time>
      </trkpt>
      <trkpt lat="45.76206" lon="4.82174">
        <ele>284.94641</ele>
        <time>2023-07-11T09:18:51.000Z</time>
      </trkpt>
      <trkpt lat="45.76206" lon="4.82169">
        <ele>285.12836</ele>
        <time>2023-07-11T09:18:52.000Z</time>
      </trkpt>
      <trkpt lat="45.76206" lon="4.82164">
        <ele>285.37872</ele>
        <time>2023-07-11T09:18:53.000Z</time>
      </trkpt>
      <trkpt lat="45.76206" lon="4.82159">
        <ele>285.56931</ele>
        <time>2023-07-11T09:18:54.000Z</time>
      </trkpt>
      <trkpt lat="45.76207" lon="4.82155">
        <ele>285.77271</ele>
        <time>2023-07-11T09:18:55.000Z</time>
      </trkpt>
      <trkpt lat="45.76209" lon="4.82151">
        <ele>286.06409</ele>
        <time>2023-07-11T09:18:56.000Z</time>
      </trkpt>
      <trkpt lat="45.76211" lon="4.82149">
        <ele>286.44711</ele>
        <time>2023-07-11T09:18:57.000Z</time>
      </trkpt>
      <trkpt lat="45.76214" lon="4.82148">
        <ele>286.85117</ele>
        <time>2023-07-11T09:18:58.000Z</time>
      </trkpt>
      <trkpt lat="45.76218" lon="4.82148">
        <ele>287.22485</ele>
        <time>2023-07-11T09:18:59.000Z</time>
      </trkpt>
      <trkpt lat="45.76221" lon="4.82149">
        <ele>287.64142</ele>
        <time>2023-07-11T09:19:00.000Z</time>
      </trkpt>
      <trkpt lat="45.76224" lon="4.8215">
        <ele>288.03458</ele>
        <time>2023-07-11T09:19:01.000Z</time>
      </trkpt>
      <trkpt lat="45.76227" lon="4.82152">
        <ele>288.37723</ele>
        <time>2023-07-11T09:19:02.000Z</time>
      </trkpt>
      <trkpt lat="45.7623" lon="4.82153">
        <ele>288.69775</ele>
        <time>2023-07-11T09:19:03.000Z</time>
      </trkpt>
      <trkpt lat="45.76233" lon="4.82154">
        <ele>288.92487</ele>
        <time>2023-07-11T09:19:04.000Z</time>
      </trkpt>
      <trkpt lat="45.76236" lon="4.82156">
        <ele>289.14819</ele>
        <time>2023-07-11T09:19:05.000Z</time>
      </trkpt>
      <trkpt lat="45.7624" lon="4.82158">
        <ele>289.30872</ele>
        <time>2023-07-11T09:19:06.000Z</time>
      </trkpt>
      <trkpt lat="45.76243" lon="4.82159">
        <ele>289.34967</ele>
        <time>2023-07-11T09:19:07.000Z</time>
      </trkpt>
      <trkpt lat="45.76247" lon="4.82161">
        <ele>289.39899</ele>
        <time>2023-07-11T09:19:08.000Z</time>
      </trkpt>
      <trkpt lat="45.76251" lon="4.82161">
        <ele>289.38785</ele>
        <time>2023-07-11T09:19:09.000Z</time>
      </trkpt>
      <trkpt lat="45.76255" lon="4.82162">
        <ele>289.35214</ele>
        <time>2023-07-11T09:19:10.000Z</time>
      </trkpt>
      <trkpt lat="45.76259" lon="4.82162">
        <ele>289.26266</ele>
        <time>2023-07-11T09:19:11.000Z</time>
      </trkpt>
      <trkpt lat="45.76263" lon="4.82163">
        <ele>289.25177</ele>
        <time>2023-07-11T09:19:12.000Z</time>
      </trkpt>
      <trkpt lat="45.76266" lon="4.82165">
        <ele>289.41122</ele>
        <time>2023-07-11T09:19:13.000Z</time>
      </trkpt>
      <trkpt lat="45.76268" lon="4.82168">
        <ele>289.6167</ele>
        <time>2023-07-11T09:19:14.000Z</time>
      </trkpt>
      <trkpt lat="45.76269" lon="4.82173">
        <ele>289.83218</ele>
        <time>2023-07-11T09:19:15.000Z</time>
      </trkpt>
      <trkpt lat="45.76269" lon="4.8218">
        <ele>289.7981</ele>
        <time>2023-07-11T09:19:16.000Z</time>
      </trkpt>
      <trkpt lat="45.76267" lon="4.82186">
        <ele>289.77353</ele>
        <time>2023-07-11T09:19:17.000Z</time>
      </trkpt>
      <trkpt lat="45.76266" lon="4.82191">
        <ele>289.71759</ele>
        <time>2023-07-11T09:19:18.000Z</time>
      </trkpt>
      <trkpt lat="45.76266" lon="4.82197">
        <ele>289.62244</ele>
        <time>2023-07-11T09:19:19.000Z</time>
      </trkpt>
      <trkpt lat="45.76265" lon="4.82203">
        <ele>289.52939</ele>
        <time>2023-07-11T09:19:20.000Z</time>
      </trkpt>
      <trkpt lat="45.76265" lon="4.82208">
        <ele>289.40924</ele>
        <time>2023-07-11T09:19:21.000Z</time>
      </trkpt>
      <trkpt lat="45.76265" lon="4.82213">
        <ele>289.29352</ele>
        <time>2023-07-11T09:19:22.000Z</time>
      </trkpt>
      <trkpt lat="45.76265" lon="4.82217">
        <ele>289.21237</ele>
        <time>2023-07-11T09:19:23.000Z</time>
      </trkpt>
      <trkpt lat="45.76266" lon="4.8222">
        <ele>289.17352</ele>
        <time>2023-07-11T09:19:24.000Z</time>
      </trkpt>
      <trkpt lat="45.76267" lon="4.82224">
        <ele>289.13049</ele>
        <time>2023-07-11T09:19:26.000Z</time>
      </trkpt>
      <trkpt lat="45.76267" lon="4.8223">
        <ele>289.06805</ele>
        <time>2023-07-11T09:19:28.000Z</time>
      </trkpt>
      <trkpt lat="45.76266" lon="4.82234">
        <ele>289.11121</ele>
        <time>2023-07-11T09:19:29.000Z</time>
      </trkpt>
      <trkpt lat="45.76265" lon="4.82238">
        <ele>289.17465</ele>
        <time>2023-07-11T09:19:30.000Z</time>
      </trkpt>
      <trkpt lat="45.76264" lon="4.82242">
        <ele>289.25311</ele>
        <time>2023-07-11T09:19:31.000Z</time>
      </trkpt>
      <trkpt lat="45.76263" lon="4.82246">
        <ele>289.32346</ele>
        <time>2023-07-11T09:19:32.000Z</time>
      </trkpt>
      <trkpt lat="45.76263" lon="4.8225">
        <ele>289.45581</ele>
        <time>2023-07-11T09:19:33.000Z</time>
      </trkpt>
      <trkpt lat="45.76262" lon="4.82254">
        <ele>289.63199</ele>
        <time>2023-07-11T09:19:34.000Z</time>
      </trkpt>
      <trkpt lat="45.76261" lon="4.82258">
        <ele>289.62201</ele>
        <time>2023-07-11T09:19:35.000Z</time>
      </trkpt>
      <trkpt lat="45.76261" lon="4.82262">
        <ele>289.6684</ele>
        <time>2023-07-11T09:19:36.000Z</time>
      </trkpt>
      <trkpt lat="45.76262" lon="4.82266">
        <ele>289.66241</ele>
        <time>2023-07-11T09:19:37.000Z</time>
      </trkpt>
      <trkpt lat="45.76263" lon="4.82269">
        <ele>289.56311</ele>
        <time>2023-07-11T09:19:38.000Z</time>
      </trkpt>
      <trkpt lat="45.76264" lon="4.82273">
        <ele>289.46179</ele>
        <time>2023-07-11T09:19:39.000Z</time>
      </trkpt>
      <trkpt lat="45.76265" lon="4.82276">
        <ele>289.37604</ele>
        <time>2023-07-11T09:19:40.000Z</time>
      </trkpt>
      <trkpt lat="45.76265" lon="4.82281">
        <ele>289.33432</ele>
        <time>2023-07-11T09:19:42.000Z</time>
      </trkpt>
      <trkpt lat="45.76263" lon="4.82286">
        <ele>289.22449</ele>
        <time>2023-07-11T09:19:44.000Z</time>
      </trkpt>
      <trkpt lat="45.76263" lon="4.82289">
        <ele>289.10529</ele>
        <time>2023-07-11T09:19:45.000Z</time>
      </trkpt>
      <trkpt lat="45.76263" lon="4.82293">
        <ele>289.10034</ele>
        <time>2023-07-11T09:19:47.000Z</time>
      </trkpt>
      <trkpt lat="45.76264" lon="4.82296">
        <ele>289.13916</ele>
        <time>2023-07-11T09:19:48.000Z</time>
      </trkpt>
      <trkpt lat="45.76267" lon="4.82298">
        <ele>289.16367</ele>
        <time>2023-07-11T09:19:49.000Z</time>
      </trkpt>
      <trkpt lat="45.76269" lon="4.82299">
        <ele>289.17508</ele>
        <time>2023-07-11T09:19:50.000Z</time>
      </trkpt>
      <trkpt lat="45.76271" lon="4.82299">
        <ele>289.26352</ele>
        <time>2023-07-11T09:19:51.000Z</time>
      </trkpt>
      <trkpt lat="45.76273" lon="4.823">
        <ele>289.33594</ele>
        <time>2023-07-11T09:19:52.000Z</time>
      </trkpt>
      <trkpt lat="45.76276" lon="4.823">
        <ele>289.39816</ele>
        <time>2023-07-11T09:19:53.000Z</time>
      </trkpt>
      <trkpt lat="45.76278" lon="4.82301">
        <ele>289.44775</ele>
        <time>2023-07-11T09:19:54.000Z</time>
      </trkpt>
      <trkpt lat="45.7628" lon="4.82303">
        <ele>289.44244</ele>
        <time>2023-07-11T09:19:55.000Z</time>
      </trkpt>
      <trkpt lat="45.76282" lon="4.82305">
        <ele>289.3765</ele>
        <time>2023-07-11T09:19:57.000Z</time>
      </trkpt>
      <trkpt lat="45.76284" lon="4.82306">
        <ele>289.43677</ele>
        <time>2023-07-11T09:20:10.000Z</time>
      </trkpt>
      <trkpt lat="45.76282" lon="4.82304">
        <ele>289.54749</ele>
        <time>2023-07-11T09:20:23.000Z</time>
      </trkpt>
      <trkpt lat="45.76284" lon="4.82306">
        <ele>289.74701</ele>
        <time>2023-07-11T09:20:52.000Z</time>
      </trkpt>
      <trkpt lat="45.76286" lon="4.82306">
        <ele>290.03436</ele>
        <time>2023-07-11T09:23:10.000Z</time>
      </trkpt>
      <trkpt lat="45.76289" lon="4.82304">
        <ele>290.42569</ele>
        <time>2023-07-11T09:23:12.000Z</time>
      </trkpt>
      <trkpt lat="45.76289" lon="4.82301">
        <ele>290.82391</ele>
        <time>2023-07-11T09:23:13.000Z</time>
      </trkpt>
      <trkpt lat="45.76288" lon="4.82298">
        <ele>291.19147</ele>
        <time>2023-07-11T09:23:14.000Z</time>
      </trkpt>
      <trkpt lat="45.76286" lon="4.82295">
        <ele>291.54669</ele>
        <time>2023-07-11T09:23:15.000Z</time>
      </trkpt>
      <trkpt lat="45.76284" lon="4.82292">
        <ele>291.96893</ele>
        <time>2023-07-11T09:23:16.000Z</time>
      </trkpt>
      <trkpt lat="45.76283" lon="4.82288">
        <ele>292.40759</ele>
        <time>2023-07-11T09:23:17.000Z</time>
      </trkpt>
      <trkpt lat="45.76282" lon="4.82283">
        <ele>292.74738</ele>
        <time>2023-07-11T09:23:18.000Z</time>
      </trkpt>
      <trkpt lat="45.76283" lon="4.82277">
        <ele>293.02948</ele>
        <time>2023-07-11T09:23:19.000Z</time>
      </trkpt>
      <trkpt lat="45.76285" lon="4.82272">
        <ele>293.31735</ele>
        <time>2023-07-11T09:23:20.000Z</time>
      </trkpt>
      <trkpt lat="45.76287" lon="4.8227">
        <ele>293.61618</ele>
        <time>2023-07-11T09:23:21.000Z</time>
      </trkpt>
      <trkpt lat="45.7629" lon="4.82269">
        <ele>293.85947</ele>
        <time>2023-07-11T09:23:22.000Z</time>
      </trkpt>
      <trkpt lat="45.76292" lon="4.82269">
        <ele>294.12152</ele>
        <time>2023-07-11T09:23:23.000Z</time>
      </trkpt>
      <trkpt lat="45.76294" lon="4.82267">
        <ele>294.34589</ele>
        <time>2023-07-11T09:23:24.000Z</time>
      </trkpt>
      <trkpt lat="45.76296" lon="4.82263">
        <ele>294.56219</ele>
        <time>2023-07-11T09:23:25.000Z</time>
      </trkpt>
      <trkpt lat="45.76297" lon="4.82258">
        <ele>294.84528</ele>
        <time>2023-07-11T09:23:26.000Z</time>
      </trkpt>
      <trkpt lat="45.76298" lon="4.82252">
        <ele>295.18732</ele>
        <time>2023-07-11T09:23:27.000Z</time>
      </trkpt>
      <trkpt lat="45.76299" lon="4.82247">
        <ele>295.37872</ele>
        <time>2023-07-11T09:23:28.000Z</time>
      </trkpt>
      <trkpt lat="45.763" lon="4.82241">
        <ele>295.50742</ele>
        <time>2023-07-11T09:23:29.000Z</time>
      </trkpt>
      <trkpt lat="45.76301" lon="4.82236">
        <ele>295.53723</ele>
        <time>2023-07-11T09:23:30.000Z</time>
      </trkpt>
      <trkpt lat="45.76301" lon="4.82231">
        <ele>295.46637</ele>
        <time>2023-07-11T09:23:31.000Z</time>
      </trkpt>
      <trkpt lat="45.76301" lon="4.82226">
        <ele>295.38159</ele>
        <time>2023-07-11T09:23:32.000Z</time>
      </trkpt>
      <trkpt lat="45.76301" lon="4.82222">
        <ele>295.27951</ele>
        <time>2023-07-11T09:23:33.000Z</time>
      </trkpt>
      <trkpt lat="45.763" lon="4.8222">
        <ele>295.20685</ele>
        <time>2023-07-11T09:23:34.000Z</time>
      </trkpt>
      <trkpt lat="45.76301" lon="4.82217">
        <ele>295.15338</ele>
        <time>2023-07-11T09:23:35.000Z</time>
      </trkpt>
      <trkpt lat="45.76304" lon="4.82215">
        <ele>295.08551</ele>
        <time>2023-07-11T09:23:36.000Z</time>
      </trkpt>
      <trkpt lat="45.76308" lon="4.82215">
        <ele>295.02188</ele>
        <time>2023-07-11T09:23:37.000Z</time>
      </trkpt>
      <trkpt lat="45.76312" lon="4.82215">
        <ele>294.94354</ele>
        <time>2023-07-11T09:23:38.000Z</time>
      </trkpt>
      <trkpt lat="45.76316" lon="4.82216">
        <ele>294.84222</ele>
        <time>2023-07-11T09:23:39.000Z</time>
      </trkpt>
      <trkpt lat="45.7632" lon="4.82217">
        <ele>294.70111</ele>
        <time>2023-07-11T09:23:40.000Z</time>
      </trkpt>
      <trkpt lat="45.76324" lon="4.82217">
        <ele>294.56955</ele>
        <time>2023-07-11T09:23:41.000Z</time>
      </trkpt>
      <trkpt lat="45.76328" lon="4.82218">
        <ele>294.42523</ele>
        <time>2023-07-11T09:23:42.000Z</time>
      </trkpt>
      <trkpt lat="45.76333" lon="4.82219">
        <ele>294.27142</ele>
        <time>2023-07-11T09:23:43.000Z</time>
      </trkpt>
      <trkpt lat="45.76337" lon="4.82221">
        <ele>294.1402</ele>
        <time>2023-07-11T09:23:44.000Z</time>
      </trkpt>
      <trkpt lat="45.76343" lon="4.8222">
        <ele>294.0134</ele>
        <time>2023-07-11T09:23:45.000Z</time>
      </trkpt>
      <trkpt lat="45.76347" lon="4.82219">
        <ele>293.86111</ele>
        <time>2023-07-11T09:23:46.000Z</time>
      </trkpt>
      <trkpt lat="45.76352" lon="4.8222">
        <ele>293.70074</ele>
        <time>2023-07-11T09:23:47.000Z</time>
      </trkpt>
      <trkpt lat="45.76356" lon="4.8222">
        <ele>293.52759</ele>
        <time>2023-07-11T09:23:48.000Z</time>
      </trkpt>
      <trkpt lat="45.76362" lon="4.82221">
        <ele>293.36298</ele>
        <time>2023-07-11T09:23:49.000Z</time>
      </trkpt>
      <trkpt lat="45.76367" lon="4.82221">
        <ele>293.20074</ele>
        <time>2023-07-11T09:23:50.000Z</time>
      </trkpt>
      <trkpt lat="45.76372" lon="4.82225">
        <ele>293.04568</ele>
        <time>2023-07-11T09:23:51.000Z</time>
      </trkpt>
      <trkpt lat="45.76378" lon="4.82231">
        <ele>292.80698</ele>
        <time>2023-07-11T09:23:52.000Z</time>
      </trkpt>
      <trkpt lat="45.76381" lon="4.82237">
        <ele>292.60992</ele>
        <time>2023-07-11T09:23:53.000Z</time>
      </trkpt>
      <trkpt lat="45.76382" lon="4.82243">
        <ele>292.44891</ele>
        <time>2023-07-11T09:23:54.000Z</time>
      </trkpt>
      <trkpt lat="45.76383" lon="4.82249">
        <ele>292.20819</ele>
        <time>2023-07-11T09:23:55.000Z</time>
      </trkpt>
      <trkpt lat="45.76385" lon="4.82255">
        <ele>291.9837</ele>
        <time>2023-07-11T09:23:56.000Z</time>
      </trkpt>
      <trkpt lat="45.76388" lon="4.8226">
        <ele>291.76871</ele>
        <time>2023-07-11T09:23:57.000Z</time>
      </trkpt>
      <trkpt lat="45.76389" lon="4.82264">
        <ele>291.58853</ele>
        <time>2023-07-11T09:23:58.000Z</time>
      </trkpt>
      <trkpt lat="45.76391" lon="4.82267">
        <ele>291.3811</ele>
        <time>2023-07-11T09:23:59.000Z</time>
      </trkpt>
      <trkpt lat="45.76395" lon="4.8227">
        <ele>291.24017</ele>
        <time>2023-07-11T09:24:00.000Z</time>
      </trkpt>
      <trkpt lat="45.76399" lon="4.8227">
        <ele>291.13019</ele>
        <time>2023-07-11T09:24:01.000Z</time>
      </trkpt>
      <trkpt lat="45.76399" lon="4.82267">
        <ele>291.04074</ele>
        <time>2023-07-11T09:24:02.000Z</time>
      </trkpt>
      <trkpt lat="45.76401" lon="4.82267">
        <ele>290.92108</ele>
        <time>2023-07-11T09:24:03.000Z</time>
      </trkpt>
      <trkpt lat="45.76404" lon="4.82266">
        <ele>290.81439</ele>
        <time>2023-07-11T09:24:04.000Z</time>
      </trkpt>
      <trkpt lat="45.76407" lon="4.82266">
        <ele>290.71811</ele>
        <time>2023-07-11T09:24:05.000Z</time>
      </trkpt>
      <trkpt lat="45.7641" lon="4.82265">
        <ele>290.64899</ele>
        <time>2023-07-11T09:24:06.000Z</time>
      </trkpt>
      <trkpt lat="45.76412" lon="4.82264">
        <ele>290.58923</ele>
        <time>2023-07-11T09:24:07.000Z</time>
      </trkpt>
      <trkpt lat="45.76414" lon="4.82264">
        <ele>290.53336</ele>
        <time>2023-07-11T09:24:08.000Z</time>
      </trkpt>
      <trkpt lat="45.76417" lon="4.82265">
        <ele>287.25226</ele>
        <time>2023-07-11T09:24:09.000Z</time>
      </trkpt>
      <trkpt lat="45.76419" lon="4.82266">
        <ele>287.03845</ele>
        <time>2023-07-11T09:24:10.000Z</time>
      </trkpt>
      <trkpt lat="45.76422" lon="4.82267">
        <ele>286.84027</ele>
        <time>2023-07-11T09:24:11.000Z</time>
      </trkpt>
      <trkpt lat="45.76424" lon="4.82268">
        <ele>286.7135</ele>
        <time>2023-07-11T09:24:12.000Z</time>
      </trkpt>
      <trkpt lat="45.76427" lon="4.8227">
        <ele>282.79175</ele>
        <time>2023-07-11T09:24:15.000Z</time>
      </trkpt>
      <trkpt lat="45.7643" lon="4.8227">
        <ele>282.39835</ele>
        <time>2023-07-11T09:24:17.000Z</time>
      </trkpt>
      <trkpt lat="45.76433" lon="4.8227">
        <ele>282.04355</ele>
        <time>2023-07-11T09:24:19.000Z</time>
      </trkpt>
      <trkpt lat="45.76436" lon="4.82271">
        <ele>277.7171</ele>
        <time>2023-07-11T09:24:21.000Z</time>
      </trkpt>
      <trkpt lat="45.76438" lon="4.82271">
        <ele>277.10858</ele>
        <time>2023-07-11T09:24:22.000Z</time>
      </trkpt>
      <trkpt lat="45.7644" lon="4.82271">
        <ele>276.43118</ele>
        <time>2023-07-11T09:24:23.000Z</time>
      </trkpt>
      <trkpt lat="45.76443" lon="4.82272">
        <ele>275.75992</ele>
        <time>2023-07-11T09:24:25.000Z</time>
      </trkpt>
      <trkpt lat="45.76446" lon="4.82273">
        <ele>272.02496</ele>
        <time>2023-07-11T09:24:27.000Z</time>
      </trkpt>
      <trkpt lat="45.76449" lon="4.82275">
        <ele>271.07294</ele>
        <time>2023-07-11T09:24:29.000Z</time>
      </trkpt>
      <trkpt lat="45.76451" lon="4.82276">
        <ele>270.07526</ele>
        <time>2023-07-11T09:24:30.000Z</time>
      </trkpt>
      <trkpt lat="45.76453" lon="4.82278">
        <ele>269.04581</ele>
        <time>2023-07-11T09:24:32.000Z</time>
      </trkpt>
      <trkpt lat="45.76455" lon="4.8228">
        <ele>266.14948</ele>
        <time>2023-07-11T09:24:33.000Z</time>
      </trkpt>
      <trkpt lat="45.76456" lon="4.82281">
        <ele>264.9162</ele>
        <time>2023-07-11T09:24:34.000Z</time>
      </trkpt>
      <trkpt lat="45.76459" lon="4.82282">
        <ele>262.24649</ele>
        <time>2023-07-11T09:24:36.000Z</time>
      </trkpt>
      <trkpt lat="45.76462" lon="4.82284">
        <ele>259.60464</ele>
        <time>2023-07-11T09:24:38.000Z</time>
      </trkpt>
      <trkpt lat="45.76465" lon="4.82286">
        <ele>256.81583</ele>
        <time>2023-07-11T09:24:40.000Z</time>
      </trkpt>
      <trkpt lat="45.76467" lon="4.82288">
        <ele>256.9809</ele>
        <time>2023-07-11T09:24:42.000Z</time>
      </trkpt>
      <trkpt lat="45.7647" lon="4.8229">
        <ele>254.34195</ele>
        <time>2023-07-11T09:24:44.000Z</time>
      </trkpt>
      <trkpt lat="45.76472" lon="4.82293">
        <ele>251.69019</ele>
        <time>2023-07-11T09:24:46.000Z</time>
      </trkpt>
      <trkpt lat="45.76473" lon="4.82295">
        <ele>248.9166</ele>
        <time>2023-07-11T09:24:48.000Z</time>
      </trkpt>
      <trkpt lat="45.76475" lon="4.82298">
        <ele>249.89761</ele>
        <time>2023-07-11T09:24:51.000Z</time>
      </trkpt>
      <trkpt lat="45.76476" lon="4.82301">
        <ele>247.07813</ele>
        <time>2023-07-11T09:24:53.000Z</time>
      </trkpt>
      <trkpt lat="45.76478" lon="4.82304">
        <ele>243.89453</ele>
        <time>2023-07-11T09:24:55.000Z</time>
      </trkpt>
      <trkpt lat="45.7648" lon="4.82307">
        <ele>245.44458</ele>
        <time>2023-07-11T09:24:57.000Z</time>
      </trkpt>
      <trkpt lat="45.76482" lon="4.8231">
        <ele>243.38638</ele>
        <time>2023-07-11T09:24:59.000Z</time>
      </trkpt>
      <trkpt lat="45.76483" lon="4.82312">
        <ele>241.30588</ele>
        <time>2023-07-11T09:25:00.000Z</time>
      </trkpt>
      <trkpt lat="45.76485" lon="4.82314">
        <ele>238.97908</ele>
        <time>2023-07-11T09:25:03.000Z</time>
      </trkpt>
      <trkpt lat="45.76487" lon="4.82318">
        <ele>239.72632</ele>
        <time>2023-07-11T09:25:05.000Z</time>
      </trkpt>
      <trkpt lat="45.7649" lon="4.82321">
        <ele>237.81445</ele>
        <time>2023-07-11T09:25:07.000Z</time>
      </trkpt>
      <trkpt lat="45.76491" lon="4.82323">
        <ele>235.93222</ele>
        <time>2023-07-11T09:25:08.000Z</time>
      </trkpt>
      <trkpt lat="45.76493" lon="4.82326">
        <ele>233.6221</ele>
        <time>2023-07-11T09:25:10.000Z</time>
      </trkpt>
      <trkpt lat="45.76496" lon="4.8233">
        <ele>233.09021</ele>
        <time>2023-07-11T09:25:12.000Z</time>
      </trkpt>
      <trkpt lat="45.76498" lon="4.82333">
        <ele>230.13882</ele>
        <time>2023-07-11T09:25:15.000Z</time>
      </trkpt>
      <trkpt lat="45.76499" lon="4.82336">
        <ele>228.64456</ele>
        <time>2023-07-11T09:25:17.000Z</time>
      </trkpt>
      <trkpt lat="45.76501" lon="4.8234">
        <ele>228.18619</ele>
        <time>2023-07-11T09:25:19.000Z</time>
      </trkpt>
      <trkpt lat="45.76503" lon="4.82342">
        <ele>227.07462</ele>
        <time>2023-07-11T09:25:21.000Z</time>
      </trkpt>
      <trkpt lat="45.76505" lon="4.82345">
        <ele>226.13663</ele>
        <time>2023-07-11T09:25:23.000Z</time>
      </trkpt>
      <trkpt lat="45.76508" lon="4.82348">
        <ele>225.17404</ele>
        <time>2023-07-11T09:25:25.000Z</time>
      </trkpt>
      <trkpt lat="45.7651" lon="4.8235">
        <ele>224.27278</ele>
        <time>2023-07-11T09:25:26.000Z</time>
      </trkpt>
      <trkpt lat="45.76511" lon="4.82353">
        <ele>223.575</ele>
        <time>2023-07-11T09:25:28.000Z</time>
      </trkpt>
      <trkpt lat="45.76514" lon="4.82356">
        <ele>222.19614</ele>
        <time>2023-07-11T09:25:30.000Z</time>
      </trkpt>
      <trkpt lat="45.76516" lon="4.82357">
        <ele>220.77974</ele>
        <time>2023-07-11T09:25:31.000Z</time>
      </trkpt>
      <trkpt lat="45.76519" lon="4.82358">
        <ele>219.70859</ele>
        <time>2023-07-11T09:25:32.000Z</time>
      </trkpt>
      <trkpt lat="45.7652" lon="4.8236">
        <ele>217.64348</ele>
        <time>2023-07-11T09:25:33.000Z</time>
      </trkpt>
      <trkpt lat="45.76522" lon="4.82362">
        <ele>215.61752</ele>
        <time>2023-07-11T09:25:34.000Z</time>
      </trkpt>
      <trkpt lat="45.76523" lon="4.82363">
        <ele>213.57268</ele>
        <time>2023-07-11T09:25:44.000Z</time>
      </trkpt>
      <trkpt lat="45.76525" lon="4.82365">
        <ele>211.85905</ele>
        <time>2023-07-11T09:25:58.000Z</time>
      </trkpt>
      <trkpt lat="45.76527" lon="4.82368">
        <ele>210.43108</ele>
        <time>2023-07-11T09:26:00.000Z</time>
      </trkpt>
      <trkpt lat="45.76528" lon="4.8237">
        <ele>209.33549</ele>
        <time>2023-07-11T09:26:01.000Z</time>
      </trkpt>
      <trkpt lat="45.7653" lon="4.82372">
        <ele>208.43567</ele>
        <time>2023-07-11T09:26:02.000Z</time>
      </trkpt>
      <trkpt lat="45.76531" lon="4.82374">
        <ele>208.09138</ele>
        <time>2023-07-11T09:26:03.000Z</time>
      </trkpt>
      <trkpt lat="45.76533" lon="4.82376">
        <ele>208.10733</ele>
        <time>2023-07-11T09:26:04.000Z</time>
      </trkpt>
      <trkpt lat="45.76535" lon="4.82378">
        <ele>209.05879</ele>
        <time>2023-07-11T09:26:06.000Z</time>
      </trkpt>
      <trkpt lat="45.76537" lon="4.82381">
        <ele>209.94739</ele>
        <time>2023-07-11T09:26:08.000Z</time>
      </trkpt>
      <trkpt lat="45.7654" lon="4.82383">
        <ele>210.22183</ele>
        <time>2023-07-11T09:26:10.000Z</time>
      </trkpt>
      <trkpt lat="45.76542" lon="4.82384">
        <ele>211.2467</ele>
        <time>2023-07-11T09:26:12.000Z</time>
      </trkpt>
      <trkpt lat="45.76545" lon="4.82386">
        <ele>212.29227</ele>
        <time>2023-07-11T09:26:14.000Z</time>
      </trkpt>
      <trkpt lat="45.76547" lon="4.82387">
        <ele>213.05893</ele>
        <time>2023-07-11T09:26:16.000Z</time>
      </trkpt>
      <trkpt lat="45.76549" lon="4.82389">
        <ele>213.79849</ele>
        <time>2023-07-11T09:26:17.000Z</time>
      </trkpt>
      <trkpt lat="45.76551" lon="4.82391">
        <ele>214.46921</ele>
        <time>2023-07-11T09:26:19.000Z</time>
      </trkpt>
      <trkpt lat="45.76553" lon="4.82393">
        <ele>215.6636</ele>
        <time>2023-07-11T09:26:21.000Z</time>
      </trkpt>
      <trkpt lat="45.76556" lon="4.82396">
        <ele>217.06128</ele>
        <time>2023-07-11T09:26:23.000Z</time>
      </trkpt>
      <trkpt lat="45.76558" lon="4.82398">
        <ele>218.38432</ele>
        <time>2023-07-11T09:26:25.000Z</time>
      </trkpt>
      <trkpt lat="45.7656" lon="4.82401">
        <ele>220.09192</ele>
        <time>2023-07-11T09:26:27.000Z</time>
      </trkpt>
      <trkpt lat="45.76563" lon="4.82404">
        <ele>221.52902</ele>
        <time>2023-07-11T09:26:29.000Z</time>
      </trkpt>
      <trkpt lat="45.76565" lon="4.82405">
        <ele>222.96902</ele>
        <time>2023-07-11T09:26:30.000Z</time>
      </trkpt>
      <trkpt lat="45.76568" lon="4.82406">
        <ele>224.31979</ele>
        <time>2023-07-11T09:26:32.000Z</time>
      </trkpt>
      <trkpt lat="45.76571" lon="4.82409">
        <ele>225.24362</ele>
        <time>2023-07-11T09:26:34.000Z</time>
      </trkpt>
      <trkpt lat="45.76573" lon="4.82411">
        <ele>225.69104</ele>
        <time>2023-07-11T09:26:35.000Z</time>
      </trkpt>
      <trkpt lat="45.76574" lon="4.82413">
        <ele>225.87268</ele>
        <time>2023-07-11T09:26:36.000Z</time>
      </trkpt>
      <trkpt lat="45.76577" lon="4.82416">
        <ele>225.88855</ele>
        <time>2023-07-11T09:26:38.000Z</time>
      </trkpt>
      <trkpt lat="45.76579" lon="4.82417">
        <ele>225.68181</ele>
        <time>2023-07-11T09:26:39.000Z</time>
      </trkpt>
      <trkpt lat="45.76581" lon="4.82418">
        <ele>225.35034</ele>
        <time>2023-07-11T09:26:40.000Z</time>
      </trkpt>
      <trkpt lat="45.76583" lon="4.8242">
        <ele>225.08646</ele>
        <time>2023-07-11T09:26:41.000Z</time>
      </trkpt>
      <trkpt lat="45.76585" lon="4.82421">
        <ele>224.37212</ele>
        <time>2023-07-11T09:26:42.000Z</time>
      </trkpt>
      <trkpt lat="45.76587" lon="4.82422">
        <ele>223.68201</ele>
        <time>2023-07-11T09:26:43.000Z</time>
      </trkpt>
      <trkpt lat="45.76588" lon="4.82424">
        <ele>223.08379</ele>
        <time>2023-07-11T09:26:44.000Z</time>
      </trkpt>
      <trkpt lat="45.7659" lon="4.82425">
        <ele>222.47224</ele>
        <time>2023-07-11T09:26:45.000Z</time>
      </trkpt>
      <trkpt lat="45.76591" lon="4.82428">
        <ele>221.83948</ele>
        <time>2023-07-11T09:26:55.000Z</time>
      </trkpt>
      <trkpt lat="45.76594" lon="4.82432">
        <ele>221.09354</ele>
        <time>2023-07-11T09:26:57.000Z</time>
      </trkpt>
      <trkpt lat="45.76596" lon="4.82435">
        <ele>220.45926</ele>
        <time>2023-07-11T09:26:59.000Z</time>
      </trkpt>
      <trkpt lat="45.76598" lon="4.82439">
        <ele>219.85165</ele>
        <time>2023-07-11T09:27:01.000Z</time>
      </trkpt>
      <trkpt lat="45.766" lon="4.82441">
        <ele>219.28494</ele>
        <time>2023-07-11T09:27:02.000Z</time>
      </trkpt>
      <trkpt lat="45.76603" lon="4.82444">
        <ele>218.37509</ele>
        <time>2023-07-11T09:27:04.000Z</time>
      </trkpt>
      <trkpt lat="45.76605" lon="4.82446">
        <ele>217.59799</ele>
        <time>2023-07-11T09:27:05.000Z</time>
      </trkpt>
      <trkpt lat="45.76606" lon="4.82448">
        <ele>216.90486</ele>
        <time>2023-07-11T09:27:06.000Z</time>
      </trkpt>
      <trkpt lat="45.76608" lon="4.82449">
        <ele>216.28218</ele>
        <time>2023-07-11T09:27:07.000Z</time>
      </trkpt>
      <trkpt lat="45.7661" lon="4.8245">
        <ele>215.79875</ele>
        <time>2023-07-11T09:27:08.000Z</time>
      </trkpt>
      <trkpt lat="45.76612" lon="4.82451">
        <ele>215.31564</ele>
        <time>2023-07-11T09:27:09.000Z</time>
      </trkpt>
      <trkpt lat="45.76614" lon="4.82452">
        <ele>214.72824</ele>
        <time>2023-07-11T09:27:10.000Z</time>
      </trkpt>
      <trkpt lat="45.76616" lon="4.82453">
        <ele>214.21098</ele>
        <time>2023-07-11T09:27:11.000Z</time>
      </trkpt>
      <trkpt lat="45.76618" lon="4.82455">
        <ele>213.71565</ele>
        <time>2023-07-11T09:27:14.000Z</time>
      </trkpt>
      <trkpt lat="45.76618" lon="4.82458">
        <ele>213.45479</ele>
        <time>2023-07-11T09:27:16.000Z</time>
      </trkpt>
      <trkpt lat="45.76617" lon="4.8246">
        <ele>213.00127</ele>
        <time>2023-07-11T09:27:23.000Z</time>
      </trkpt>
      <trkpt lat="45.76617" lon="4.82462">
        <ele>212.57805</ele>
        <time>2023-07-11T09:28:17.000Z</time>
      </trkpt>
      <trkpt lat="45.76617" lon="4.82465">
        <ele>212.20699</ele>
        <time>2023-07-11T09:28:18.000Z</time>
      </trkpt>
      <trkpt lat="45.76617" lon="4.82468">
        <ele>211.80688</ele>
        <time>2023-07-11T09:28:19.000Z</time>
      </trkpt>
      <trkpt lat="45.76617" lon="4.82471">
        <ele>211.38062</ele>
        <time>2023-07-11T09:28:20.000Z</time>
      </trkpt>
      <trkpt lat="45.76616" lon="4.82475">
        <ele>210.97607</ele>
        <time>2023-07-11T09:28:21.000Z</time>
      </trkpt>
      <trkpt lat="45.76615" lon="4.82481">
        <ele>210.85237</ele>
        <time>2023-07-11T09:28:22.000Z</time>
      </trkpt>
      <trkpt lat="45.76614" lon="4.82486">
        <ele>210.85745</ele>
        <time>2023-07-11T09:28:23.000Z</time>
      </trkpt>
      <trkpt lat="45.76615" lon="4.82493">
        <ele>210.83786</ele>
        <time>2023-07-11T09:28:24.000Z</time>
      </trkpt>
      <trkpt lat="45.76615" lon="4.82499">
        <ele>210.88867</ele>
        <time>2023-07-11T09:28:25.000Z</time>
      </trkpt>
      <trkpt lat="45.76612" lon="4.82505">
        <ele>211.11279</ele>
        <time>2023-07-11T09:28:26.000Z</time>
      </trkpt>
      <trkpt lat="45.76611" lon="4.8251">
        <ele>211.22481</ele>
        <time>2023-07-11T09:28:27.000Z</time>
      </trkpt>
      <trkpt lat="45.76609" lon="4.82513">
        <ele>211.29349</ele>
        <time>2023-07-11T09:28:28.000Z</time>
      </trkpt>
      <trkpt lat="45.76607" lon="4.82517">
        <ele>211.30945</ele>
        <time>2023-07-11T09:28:29.000Z</time>
      </trkpt>
      <trkpt lat="45.76607" lon="4.82519">
        <ele>211.28462</ele>
        <time>2023-07-11T09:28:30.000Z</time>
      </trkpt>
      <trkpt lat="45.76606" lon="4.82523">
        <ele>210.84695</ele>
        <time>2023-07-11T09:28:31.000Z</time>
      </trkpt>
      <trkpt lat="45.76607" lon="4.82525">
        <ele>211.11723</ele>
        <time>2023-07-11T09:28:32.000Z</time>
      </trkpt>
      <trkpt lat="45.76605" lon="4.8253">
        <ele>211.38802</ele>
        <time>2023-07-11T09:28:34.000Z</time>
      </trkpt>
      <trkpt lat="45.76605" lon="4.82534">
        <ele>211.5538</ele>
        <time>2023-07-11T09:28:35.000Z</time>
      </trkpt>
      <trkpt lat="45.76604" lon="4.82539">
        <ele>211.34714</ele>
        <time>2023-07-11T09:28:37.000Z</time>
      </trkpt>
      <trkpt lat="45.76603" lon="4.82542">
        <ele>211.27238</ele>
        <time>2023-07-11T09:28:38.000Z</time>
      </trkpt>
      <trkpt lat="45.76603" lon="4.82545">
        <ele>211.17842</ele>
        <time>2023-07-11T09:28:39.000Z</time>
      </trkpt>
      <trkpt lat="45.76602" lon="4.82548">
        <ele>211.07922</ele>
        <time>2023-07-11T09:28:40.000Z</time>
      </trkpt>
      <trkpt lat="45.76602" lon="4.82551">
        <ele>210.97937</ele>
        <time>2023-07-11T09:28:41.000Z</time>
      </trkpt>
      <trkpt lat="45.76602" lon="4.82554">
        <ele>211.10649</ele>
        <time>2023-07-11T09:28:42.000Z</time>
      </trkpt>
      <trkpt lat="45.76602" lon="4.82557">
        <ele>211.14497</ele>
        <time>2023-07-11T09:28:43.000Z</time>
      </trkpt>
      <trkpt lat="45.76603" lon="4.82559">
        <ele>211.00179</ele>
        <time>2023-07-11T09:28:44.000Z</time>
      </trkpt>
      <trkpt lat="45.76603" lon="4.82562">
        <ele>210.81552</ele>
        <time>2023-07-11T09:28:45.000Z</time>
      </trkpt>
      <trkpt lat="45.76603" lon="4.82565">
        <ele>210.70906</ele>
        <time>2023-07-11T09:28:46.000Z</time>
      </trkpt>
      <trkpt lat="45.76602" lon="4.82568">
        <ele>210.63266</ele>
        <time>2023-07-11T09:28:47.000Z</time>
      </trkpt>
      <trkpt lat="45.76602" lon="4.82571">
        <ele>210.54147</ele>
        <time>2023-07-11T09:28:48.000Z</time>
      </trkpt>
      <trkpt lat="45.76602" lon="4.82574">
        <ele>210.49002</ele>
        <time>2023-07-11T09:28:49.000Z</time>
      </trkpt>
      <trkpt lat="45.76602" lon="4.82577">
        <ele>210.43526</ele>
        <time>2023-07-11T09:28:50.000Z</time>
      </trkpt>
      <trkpt lat="45.76602" lon="4.8258">
        <ele>210.4368</ele>
        <time>2023-07-11T09:28:51.000Z</time>
      </trkpt>
      <trkpt lat="45.76604" lon="4.82582">
        <ele>210.44646</ele>
        <time>2023-07-11T09:28:52.000Z</time>
      </trkpt>
      <trkpt lat="45.76605" lon="4.82584">
        <ele>210.8763</ele>
        <time>2023-07-11T09:28:53.000Z</time>
      </trkpt>
      <trkpt lat="45.76607" lon="4.82586">
        <ele>210.35478</ele>
        <time>2023-07-11T09:28:54.000Z</time>
      </trkpt>
      <trkpt lat="45.76608" lon="4.82588">
        <ele>209.78775</ele>
        <time>2023-07-11T09:28:55.000Z</time>
      </trkpt>
      <trkpt lat="45.7661" lon="4.82592">
        <ele>209.24191</ele>
        <time>2023-07-11T09:28:57.000Z</time>
      </trkpt>
      <trkpt lat="45.76611" lon="4.82595">
        <ele>208.77271</ele>
        <time>2023-07-11T09:28:58.000Z</time>
      </trkpt>
      <trkpt lat="45.76612" lon="4.82598">
        <ele>208.41716</ele>
        <time>2023-07-11T09:28:59.000Z</time>
      </trkpt>
      <trkpt lat="45.76613" lon="4.82602">
        <ele>207.96799</ele>
        <time>2023-07-11T09:29:00.000Z</time>
      </trkpt>
      <trkpt lat="45.76613" lon="4.82604">
        <ele>207.55505</ele>
        <time>2023-07-11T09:29:01.000Z</time>
      </trkpt>
      <trkpt lat="45.76612" lon="4.82607">
        <ele>207.07503</ele>
        <time>2023-07-11T09:29:02.000Z</time>
      </trkpt>
      <trkpt lat="45.76611" lon="4.82611">
        <ele>206.4288</ele>
        <time>2023-07-11T09:29:03.000Z</time>
      </trkpt>
      <trkpt lat="45.7661" lon="4.82614">
        <ele>205.82211</ele>
        <time>2023-07-11T09:29:04.000Z</time>
      </trkpt>
      <trkpt lat="45.7661" lon="4.82619">
        <ele>205.1331</ele>
        <time>2023-07-11T09:29:06.000Z</time>
      </trkpt>
      <trkpt lat="45.7661" lon="4.82622">
        <ele>204.40572</ele>
        <time>2023-07-11T09:29:07.000Z</time>
      </trkpt>
      <trkpt lat="45.76611" lon="4.82624">
        <ele>203.6373</ele>
        <time>2023-07-11T09:29:08.000Z</time>
      </trkpt>
      <trkpt lat="45.7661" lon="4.8263">
        <ele>202.81631</ele>
        <time>2023-07-11T09:29:10.000Z</time>
      </trkpt>
      <trkpt lat="45.76608" lon="4.82633">
        <ele>201.98575</ele>
        <time>2023-07-11T09:29:11.000Z</time>
      </trkpt>
      <trkpt lat="45.76606" lon="4.82635">
        <ele>201.16042</ele>
        <time>2023-07-11T09:29:12.000Z</time>
      </trkpt>
      <trkpt lat="45.76604" lon="4.82637">
        <ele>200.31459</ele>
        <time>2023-07-11T09:29:13.000Z</time>
      </trkpt>
      <trkpt lat="45.76602" lon="4.82639">
        <ele>199.4144</ele>
        <time>2023-07-11T09:29:14.000Z</time>
      </trkpt>
      <trkpt lat="45.76601" lon="4.82642">
        <ele>198.49181</ele>
        <time>2023-07-11T09:29:15.000Z</time>
      </trkpt>
      <trkpt lat="45.766" lon="4.82647">
        <ele>197.56717</ele>
        <time>2023-07-11T09:29:17.000Z</time>
      </trkpt>
      <trkpt lat="45.76598" lon="4.8265">
        <ele>197.08131</ele>
        <time>2023-07-11T09:29:19.000Z</time>
      </trkpt>
      <trkpt lat="45.76596" lon="4.82652">
        <ele>196.63943</ele>
        <time>2023-07-11T09:29:20.000Z</time>
      </trkpt>
      <trkpt lat="45.76594" lon="4.82654">
        <ele>196.17612</ele>
        <time>2023-07-11T09:29:21.000Z</time>
      </trkpt>
      <trkpt lat="45.76592" lon="4.82656">
        <ele>195.64134</ele>
        <time>2023-07-11T09:29:22.000Z</time>
      </trkpt>
      <trkpt lat="45.76591" lon="4.82659">
        <ele>195.01852</ele>
        <time>2023-07-11T09:29:23.000Z</time>
      </trkpt>
      <trkpt lat="45.7659" lon="4.82661">
        <ele>194.44936</ele>
        <time>2023-07-11T09:29:24.000Z</time>
      </trkpt>
      <trkpt lat="45.76589" lon="4.82664">
        <ele>193.86398</ele>
        <time>2023-07-11T09:29:25.000Z</time>
      </trkpt>
      <trkpt lat="45.76588" lon="4.82668">
        <ele>193.37798</ele>
        <time>2023-07-11T09:29:26.000Z</time>
      </trkpt>
      <trkpt lat="45.76587" lon="4.82673">
        <ele>192.90915</ele>
        <time>2023-07-11T09:29:27.000Z</time>
      </trkpt>
      <trkpt lat="45.76587" lon="4.82679">
        <ele>192.47458</ele>
        <time>2023-07-11T09:29:28.000Z</time>
      </trkpt>
      <trkpt lat="45.76586" lon="4.82686">
        <ele>192.07512</ele>
        <time>2023-07-11T09:29:29.000Z</time>
      </trkpt>
      <trkpt lat="45.76585" lon="4.82695">
        <ele>191.64825</ele>
        <time>2023-07-11T09:29:30.000Z</time>
      </trkpt>
      <trkpt lat="45.76586" lon="4.82709">
        <ele>191.06705</ele>
        <time>2023-07-11T09:29:31.000Z</time>
      </trkpt>
      <trkpt lat="45.76585" lon="4.82717">
        <ele>190.1879</ele>
        <time>2023-07-11T09:29:32.000Z</time>
      </trkpt>
      <trkpt lat="45.76583" lon="4.82722">
        <ele>189.34386</ele>
        <time>2023-07-11T09:29:33.000Z</time>
      </trkpt>
      <trkpt lat="45.7658" lon="4.82724">
        <ele>188.69479</ele>
        <time>2023-07-11T09:29:34.000Z</time>
      </trkpt>
      <trkpt lat="45.76578" lon="4.82725">
        <ele>188.08704</ele>
        <time>2023-07-11T09:29:35.000Z</time>
      </trkpt>
      <trkpt lat="45.76575" lon="4.82726">
        <ele>187.46545</ele>
        <time>2023-07-11T09:29:36.000Z</time>
      </trkpt>
      <trkpt lat="45.76573" lon="4.82725">
        <ele>186.85464</ele>
        <time>2023-07-11T09:29:37.000Z</time>
      </trkpt>
      <trkpt lat="45.7657" lon="4.82726">
        <ele>186.31744</ele>
        <time>2023-07-11T09:29:39.000Z</time>
      </trkpt>
      <trkpt lat="45.76567" lon="4.82728">
        <ele>185.80208</ele>
        <time>2023-07-11T09:29:41.000Z</time>
      </trkpt>
      <trkpt lat="45.76565" lon="4.82729">
        <ele>185.34653</ele>
        <time>2023-07-11T09:29:42.000Z</time>
      </trkpt>
      <trkpt lat="45.76563" lon="4.82729">
        <ele>184.75662</ele>
        <time>2023-07-11T09:29:43.000Z</time>
      </trkpt>
      <trkpt lat="45.76561" lon="4.82728">
        <ele>184.2888</ele>
        <time>2023-07-11T09:29:44.000Z</time>
      </trkpt>
      <trkpt lat="45.76559" lon="4.82729">
        <ele>183.81181</ele>
        <time>2023-07-11T09:29:45.000Z</time>
      </trkpt>
      <trkpt lat="45.76555" lon="4.8273">
        <ele>183.36618</ele>
        <time>2023-07-11T09:29:47.000Z</time>
      </trkpt>
      <trkpt lat="45.76551" lon="4.8273">
        <ele>182.89316</ele>
        <time>2023-07-11T09:29:48.000Z</time>
      </trkpt>
      <trkpt lat="45.76549" lon="4.8273">
        <ele>182.41103</ele>
        <time>2023-07-11T09:29:49.000Z</time>
      </trkpt>
      <trkpt lat="45.76547" lon="4.82731">
        <ele>182.00626</ele>
        <time>2023-07-11T09:29:53.000Z</time>
      </trkpt>
      <trkpt lat="45.76545" lon="4.8273">
        <ele>181.63223</ele>
        <time>2023-07-11T09:29:54.000Z</time>
      </trkpt>
      <trkpt lat="45.76542" lon="4.8273">
        <ele>181.36472</ele>
        <time>2023-07-11T09:29:55.000Z</time>
      </trkpt>
      <trkpt lat="45.7654" lon="4.82731">
        <ele>181.14703</ele>
        <time>2023-07-11T09:29:56.000Z</time>
      </trkpt>
      <trkpt lat="45.76538" lon="4.82731">
        <ele>181.19052</ele>
        <time>2023-07-11T09:29:57.000Z</time>
      </trkpt>
      <trkpt lat="45.76536" lon="4.82731">
        <ele>181.56783</ele>
        <time>2023-07-11T09:29:58.000Z</time>
      </trkpt>
      <trkpt lat="45.76533" lon="4.82731">
        <ele>181.97562</ele>
        <time>2023-07-11T09:29:59.000Z</time>
      </trkpt>
      <trkpt lat="45.76529" lon="4.82729">
        <ele>182.21338</ele>
        <time>2023-07-11T09:30:00.000Z</time>
      </trkpt>
      <trkpt lat="45.76524" lon="4.82728">
        <ele>182.45932</ele>
        <time>2023-07-11T09:30:01.000Z</time>
      </trkpt>
      <trkpt lat="45.7652" lon="4.82728">
        <ele>182.73668</ele>
        <time>2023-07-11T09:30:02.000Z</time>
      </trkpt>
      <trkpt lat="45.76516" lon="4.82727">
        <ele>183.00034</ele>
        <time>2023-07-11T09:30:03.000Z</time>
      </trkpt>
      <trkpt lat="45.76511" lon="4.82726">
        <ele>183.19067</ele>
        <time>2023-07-11T09:30:04.000Z</time>
      </trkpt>
      <trkpt lat="45.76507" lon="4.82725">
        <ele>183.36026</ele>
        <time>2023-07-11T09:30:05.000Z</time>
      </trkpt>
      <trkpt lat="45.76502" lon="4.82725">
        <ele>183.53329</ele>
        <time>2023-07-11T09:30:06.000Z</time>
      </trkpt>
      <trkpt lat="45.76498" lon="4.82726">
        <ele>183.85471</ele>
        <time>2023-07-11T09:30:07.000Z</time>
      </trkpt>
      <trkpt lat="45.76493" lon="4.82726">
        <ele>184.16924</ele>
        <time>2023-07-11T09:30:08.000Z</time>
      </trkpt>
      <trkpt lat="45.76484" lon="4.82729">
        <ele>184.45975</ele>
        <time>2023-07-11T09:30:09.000Z</time>
      </trkpt>
      <trkpt lat="45.7648" lon="4.82729">
        <ele>184.71988</ele>
        <time>2023-07-11T09:30:10.000Z</time>
      </trkpt>
      <trkpt lat="45.76477" lon="4.8273">
        <ele>184.99403</ele>
        <time>2023-07-11T09:30:11.000Z</time>
      </trkpt>
      <trkpt lat="45.76474" lon="4.8273">
        <ele>185.27553</ele>
        <time>2023-07-11T09:30:12.000Z</time>
      </trkpt>
      <trkpt lat="45.7647" lon="4.82732">
        <ele>185.38232</ele>
        <time>2023-07-11T09:30:14.000Z</time>
      </trkpt>
      <trkpt lat="45.76472" lon="4.82735">
        <ele>185.36804</ele>
        <time>2023-07-11T09:30:16.000Z</time>
      </trkpt>
      <trkpt lat="45.76472" lon="4.82738">
        <ele>185.30579</ele>
        <time>2023-07-11T09:30:17.000Z</time>
      </trkpt>
      <trkpt lat="45.7647" lon="4.82744">
        <ele>185.21951</ele>
        <time>2023-07-11T09:30:18.000Z</time>
      </trkpt>
      <trkpt lat="45.76469" lon="4.82749">
        <ele>184.79268</ele>
        <time>2023-07-11T09:30:19.000Z</time>
      </trkpt>
      <trkpt lat="45.76467" lon="4.82752">
        <ele>184.75925</ele>
        <time>2023-07-11T09:30:20.000Z</time>
      </trkpt>
      <trkpt lat="45.76467" lon="4.82757">
        <ele>184.69443</ele>
        <time>2023-07-11T09:30:21.000Z</time>
      </trkpt>
      <trkpt lat="45.76466" lon="4.82762">
        <ele>184.64352</ele>
        <time>2023-07-11T09:30:22.000Z</time>
      </trkpt>
      <trkpt lat="45.76465" lon="4.82767">
        <ele>184.5925</ele>
        <time>2023-07-11T09:30:23.000Z</time>
      </trkpt>
      <trkpt lat="45.76461" lon="4.8277">
        <ele>184.53979</ele>
        <time>2023-07-11T09:30:24.000Z</time>
      </trkpt>
      <trkpt lat="45.76458" lon="4.82772">
        <ele>186.23682</ele>
        <time>2023-07-11T09:30:25.000Z</time>
      </trkpt>
      <trkpt lat="45.76455" lon="4.82771">
        <ele>187.74405</ele>
        <time>2023-07-11T09:30:26.000Z</time>
      </trkpt>
      <trkpt lat="45.76452" lon="4.8277">
        <ele>189.30435</ele>
        <time>2023-07-11T09:30:27.000Z</time>
      </trkpt>
      <trkpt lat="45.76452" lon="4.82767">
        <ele>188.77217</ele>
        <time>2023-07-11T09:30:54.000Z</time>
      </trkpt>
      <trkpt lat="45.7645" lon="4.82768">
        <ele>189.68745</ele>
        <time>2023-07-11T09:31:00.000Z</time>
      </trkpt>
      <trkpt lat="45.76448" lon="4.82771">
        <ele>191.26755</ele>
        <time>2023-07-11T09:31:01.000Z</time>
      </trkpt>
      <trkpt lat="45.76446" lon="4.82773">
        <ele>191.5274</ele>
        <time>2023-07-11T09:31:02.000Z</time>
      </trkpt>
      <trkpt lat="45.76444" lon="4.82776">
        <ele>191.83247</ele>
        <time>2023-07-11T09:31:04.000Z</time>
      </trkpt>
      <trkpt lat="45.76442" lon="4.82777">
        <ele>192.1277</ele>
        <time>2023-07-11T09:31:05.000Z</time>
      </trkpt>
      <trkpt lat="45.76439" lon="4.82779">
        <ele>192.4231</ele>
        <time>2023-07-11T09:31:06.000Z</time>
      </trkpt>
      <trkpt lat="45.76437" lon="4.82779">
        <ele>194.45509</ele>
        <time>2023-07-11T09:31:07.000Z</time>
      </trkpt>
      <trkpt lat="45.76435" lon="4.82778">
        <ele>195.06779</ele>
        <time>2023-07-11T09:31:08.000Z</time>
      </trkpt>
      <trkpt lat="45.76432" lon="4.82776">
        <ele>195.71091</ele>
        <time>2023-07-11T09:31:09.000Z</time>
      </trkpt>
      <trkpt lat="45.76431" lon="4.82775">
        <ele>196.40207</ele>
        <time>2023-07-11T09:31:10.000Z</time>
      </trkpt>
      <trkpt lat="45.76429" lon="4.82774">
        <ele>197.38737</ele>
        <time>2023-07-11T09:31:12.000Z</time>
      </trkpt>
      <trkpt lat="45.76427" lon="4.82773">
        <ele>201.35384</ele>
        <time>2023-07-11T09:31:14.000Z</time>
      </trkpt>
      <trkpt lat="45.76425" lon="4.82772">
        <ele>202.18356</ele>
        <time>2023-07-11T09:31:15.000Z</time>
      </trkpt>
      <trkpt lat="45.76423" lon="4.82772">
        <ele>203.05801</ele>
        <time>2023-07-11T09:31:17.000Z</time>
      </trkpt>
      <trkpt lat="45.7642" lon="4.82772">
        <ele>203.97874</ele>
        <time>2023-07-11T09:31:19.000Z</time>
      </trkpt>
      <trkpt lat="45.76417" lon="4.82772">
        <ele>207.5144</ele>
        <time>2023-07-11T09:31:21.000Z</time>
      </trkpt>
      <trkpt lat="45.76414" lon="4.82771">
        <ele>206.92337</ele>
        <time>2023-07-11T09:31:22.000Z</time>
      </trkpt>
      <trkpt lat="45.76411" lon="4.82771">
        <ele>206.48355</ele>
        <time>2023-07-11T09:31:24.000Z</time>
      </trkpt>
      <trkpt lat="45.76408" lon="4.82771">
        <ele>205.96443</ele>
        <time>2023-07-11T09:31:26.000Z</time>
      </trkpt>
      <trkpt lat="45.76406" lon="4.82772">
        <ele>208.96875</ele>
        <time>2023-07-11T09:31:28.000Z</time>
      </trkpt>
      <trkpt lat="45.76403" lon="4.82771">
        <ele>210.3562</ele>
        <time>2023-07-11T09:31:31.000Z</time>
      </trkpt>
      <trkpt lat="45.76401" lon="4.82769">
        <ele>209.94263</ele>
        <time>2023-07-11T09:31:33.000Z</time>
      </trkpt>
      <trkpt lat="45.76399" lon="4.82768">
        <ele>212.3455</ele>
        <time>2023-07-11T09:31:35.000Z</time>
      </trkpt>
      <trkpt lat="45.76395" lon="4.82767">
        <ele>214.37415</ele>
        <time>2023-07-11T09:31:37.000Z</time>
      </trkpt>
      <trkpt lat="45.76392" lon="4.82767">
        <ele>216.62654</ele>
        <time>2023-07-11T09:31:39.000Z</time>
      </trkpt>
      <trkpt lat="45.7639" lon="4.82767">
        <ele>218.80647</ele>
        <time>2023-07-11T09:31:40.000Z</time>
      </trkpt>
      <trkpt lat="45.76387" lon="4.82767">
        <ele>219.35051</ele>
        <time>2023-07-11T09:31:41.000Z</time>
      </trkpt>
      <trkpt lat="45.76385" lon="4.82767">
        <ele>221.46123</ele>
        <time>2023-07-11T09:31:42.000Z</time>
      </trkpt>
      <trkpt lat="45.76382" lon="4.82766">
        <ele>223.73386</ele>
        <time>2023-07-11T09:31:43.000Z</time>
      </trkpt>
      <trkpt lat="45.76379" lon="4.82765">
        <ele>225.89261</ele>
        <time>2023-07-11T09:31:44.000Z</time>
      </trkpt>
      <trkpt lat="45.76377" lon="4.82764">
        <ele>227.92851</ele>
        <time>2023-07-11T09:31:45.000Z</time>
      </trkpt>
      <trkpt lat="45.76374" lon="4.82762">
        <ele>226.64148</ele>
        <time>2023-07-11T09:31:46.000Z</time>
      </trkpt>
      <trkpt lat="45.7637" lon="4.82762">
        <ele>228.70247</ele>
        <time>2023-07-11T09:31:47.000Z</time>
      </trkpt>
      <trkpt lat="45.76367" lon="4.82762">
        <ele>229.61203</ele>
        <time>2023-07-11T09:31:48.000Z</time>
      </trkpt>
      <trkpt lat="45.76364" lon="4.82763">
        <ele>230.57532</ele>
        <time>2023-07-11T09:31:49.000Z</time>
      </trkpt>
      <trkpt lat="45.7636" lon="4.82764">
        <ele>229.61458</ele>
        <time>2023-07-11T09:31:51.000Z</time>
      </trkpt>
      <trkpt lat="45.76358" lon="4.82764">
        <ele>231.32614</ele>
        <time>2023-07-11T09:31:52.000Z</time>
      </trkpt>
      <trkpt lat="45.76355" lon="4.82762">
        <ele>233.10464</ele>
        <time>2023-07-11T09:31:53.000Z</time>
      </trkpt>
      <trkpt lat="45.76351" lon="4.8276">
        <ele>235.12381</ele>
        <time>2023-07-11T09:31:54.000Z</time>
      </trkpt>
      <trkpt lat="45.76349" lon="4.82757">
        <ele>236.0079</ele>
        <time>2023-07-11T09:31:55.000Z</time>
      </trkpt>
      <trkpt lat="45.76341" lon="4.82745">
        <ele>237.43816</ele>
        <time>2023-07-11T09:31:56.000Z</time>
      </trkpt>
      <trkpt lat="45.76339" lon="4.82736">
        <ele>240.08456</ele>
        <time>2023-07-11T09:31:57.000Z</time>
      </trkpt>
      <trkpt lat="45.76337" lon="4.82735">
        <ele>241.28049</ele>
        <time>2023-07-11T09:31:58.000Z</time>
      </trkpt>
      <trkpt lat="45.76335" lon="4.82734">
        <ele>242.60611</ele>
        <time>2023-07-11T09:31:59.000Z</time>
      </trkpt>
      <trkpt lat="45.76331" lon="4.82732">
        <ele>243.67081</ele>
        <time>2023-07-11T09:32:00.000Z</time>
      </trkpt>
      <trkpt lat="45.76328" lon="4.82731">
        <ele>244.97881</ele>
        <time>2023-07-11T09:32:01.000Z</time>
      </trkpt>
      <trkpt lat="45.76327" lon="4.8273">
        <ele>246.26685</ele>
        <time>2023-07-11T09:32:02.000Z</time>
      </trkpt>
      <trkpt lat="45.76323" lon="4.82729">
        <ele>247.86113</ele>
        <time>2023-07-11T09:32:03.000Z</time>
      </trkpt>
      <trkpt lat="45.7632" lon="4.82729">
        <ele>248.22818</ele>
        <time>2023-07-11T09:32:04.000Z</time>
      </trkpt>
      <trkpt lat="45.76317" lon="4.82726">
        <ele>250.05583</ele>
        <time>2023-07-11T09:32:05.000Z</time>
      </trkpt>
      <trkpt lat="45.76313" lon="4.82726">
        <ele>251.89523</ele>
        <time>2023-07-11T09:32:06.000Z</time>
      </trkpt>
      <trkpt lat="45.7631" lon="4.82725">
        <ele>253.48848</ele>
        <time>2023-07-11T09:32:07.000Z</time>
      </trkpt>
      <trkpt lat="45.76308" lon="4.82723">
        <ele>254.6633</ele>
        <time>2023-07-11T09:32:08.000Z</time>
      </trkpt>
      <trkpt lat="45.76306" lon="4.82721">
        <ele>256.67291</ele>
        <time>2023-07-11T09:32:09.000Z</time>
      </trkpt>
      <trkpt lat="45.76303" lon="4.82721">
        <ele>258.46271</ele>
        <time>2023-07-11T09:32:10.000Z</time>
      </trkpt>
      <trkpt lat="45.76301" lon="4.82721">
        <ele>259.66663</ele>
        <time>2023-07-11T09:32:11.000Z</time>
      </trkpt>
      <trkpt lat="45.76299" lon="4.8272">
        <ele>260.58627</ele>
        <time>2023-07-11T09:32:12.000Z</time>
      </trkpt>
      <trkpt lat="45.76297" lon="4.82719">
        <ele>261.1962</ele>
        <time>2023-07-11T09:32:15.000Z</time>
      </trkpt>
      <trkpt lat="45.76296" lon="4.82718">
        <ele>260.33984</ele>
        <time>2023-07-11T09:32:28.000Z</time>
      </trkpt>
      <trkpt lat="45.76294" lon="4.82716">
        <ele>259.26563</ele>
        <time>2023-07-11T09:32:30.000Z</time>
      </trkpt>
      <trkpt lat="45.76292" lon="4.82714">
        <ele>258.2688</ele>
        <time>2023-07-11T09:32:31.000Z</time>
      </trkpt>
      <trkpt lat="45.76291" lon="4.8271">
        <ele>257.63657</ele>
        <time>2023-07-11T09:32:33.000Z</time>
      </trkpt>
      <trkpt lat="45.76289" lon="4.82711">
        <ele>257.11859</ele>
        <time>2023-07-11T09:32:38.000Z</time>
      </trkpt>
      <trkpt lat="45.76288" lon="4.82714">
        <ele>257.0332</ele>
        <time>2023-07-11T09:32:48.000Z</time>
      </trkpt>
      <trkpt lat="45.7629" lon="4.82716">
        <ele>257.42017</ele>
        <time>2023-07-11T09:32:51.000Z</time>
      </trkpt>
      <trkpt lat="45.7629" lon="4.82719">
        <ele>257.68915</ele>
        <time>2023-07-11T09:32:53.000Z</time>
      </trkpt>
      <trkpt lat="45.76288" lon="4.82717">
        <ele>257.76678</ele>
        <time>2023-07-11T09:32:55.000Z</time>
      </trkpt>
      <trkpt lat="45.76287" lon="4.82715">
        <ele>257.40936</ele>
        <time>2023-07-11T09:32:56.000Z</time>
      </trkpt>
      <trkpt lat="45.76286" lon="4.82711">
        <ele>258.21222</ele>
        <time>2023-07-11T09:32:58.000Z</time>
      </trkpt>
      <trkpt lat="45.76284" lon="4.82708">
        <ele>257.78</ele>
        <time>2023-07-11T09:33:00.000Z</time>
      </trkpt>
      <trkpt lat="45.76281" lon="4.82706">
        <ele>257.46182</ele>
        <time>2023-07-11T09:33:01.000Z</time>
      </trkpt>
      <trkpt lat="45.76279" lon="4.82704">
        <ele>257.39819</ele>
        <time>2023-07-11T09:33:03.000Z</time>
      </trkpt>
      <trkpt lat="45.76276" lon="4.82702">
        <ele>257.71368</ele>
        <time>2023-07-11T09:33:06.000Z</time>
      </trkpt>
      <trkpt lat="45.76274" lon="4.82702">
        <ele>257.39719</ele>
        <time>2023-07-11T09:33:07.000Z</time>
      </trkpt>
      <trkpt lat="45.76272" lon="4.82702">
        <ele>257.44684</ele>
        <time>2023-07-11T09:33:08.000Z</time>
      </trkpt>
      <trkpt lat="45.76269" lon="4.82701">
        <ele>257.31073</ele>
        <time>2023-07-11T09:33:10.000Z</time>
      </trkpt>
      <trkpt lat="45.76272" lon="4.82699">
        <ele>257.16931</ele>
        <time>2023-07-11T09:33:12.000Z</time>
      </trkpt>
      <trkpt lat="45.76274" lon="4.82695">
        <ele>253.75748</ele>
        <time>2023-07-11T09:33:14.000Z</time>
      </trkpt>
      <trkpt lat="45.76275" lon="4.8269">
        <ele>254.95834</ele>
        <time>2023-07-11T09:33:16.000Z</time>
      </trkpt>
      <trkpt lat="45.76275" lon="4.82687">
        <ele>256.09695</ele>
        <time>2023-07-11T09:33:17.000Z</time>
      </trkpt>
      <trkpt lat="45.76275" lon="4.82684">
        <ele>256.84576</ele>
        <time>2023-07-11T09:33:18.000Z</time>
      </trkpt>
      <trkpt lat="45.76274" lon="4.82681">
        <ele>257.15607</ele>
        <time>2023-07-11T09:33:19.000Z</time>
      </trkpt>
      <trkpt lat="45.76272" lon="4.82678">
        <ele>253.67851</ele>
        <time>2023-07-11T09:33:20.000Z</time>
      </trkpt>
      <trkpt lat="45.7627" lon="4.82675">
        <ele>253.51724</ele>
        <time>2023-07-11T09:33:21.000Z</time>
      </trkpt>
      <trkpt lat="45.76268" lon="4.82673">
        <ele>252.89742</ele>
        <time>2023-07-11T09:33:22.000Z</time>
      </trkpt>
      <trkpt lat="45.76265" lon="4.82671">
        <ele>252.17899</ele>
        <time>2023-07-11T09:33:23.000Z</time>
      </trkpt>
      <trkpt lat="45.76262" lon="4.8267">
        <ele>251.64214</ele>
        <time>2023-07-11T09:33:24.000Z</time>
      </trkpt>
      <trkpt lat="45.7626" lon="4.82668">
        <ele>251.15393</ele>
        <time>2023-07-11T09:33:25.000Z</time>
      </trkpt>
      <trkpt lat="45.76257" lon="4.82666">
        <ele>245.53073</ele>
        <time>2023-07-11T09:33:26.000Z</time>
      </trkpt>
      <trkpt lat="45.76255" lon="4.82663">
        <ele>244.46756</ele>
        <time>2023-07-11T09:33:27.000Z</time>
      </trkpt>
      <trkpt lat="45.76253" lon="4.82661">
        <ele>243.31372</ele>
        <time>2023-07-11T09:33:28.000Z</time>
      </trkpt>
      <trkpt lat="45.7625" lon="4.8266">
        <ele>242.03072</ele>
        <time>2023-07-11T09:33:29.000Z</time>
      </trkpt>
      <trkpt lat="45.76247" lon="4.82658">
        <ele>240.51326</ele>
        <time>2023-07-11T09:33:30.000Z</time>
      </trkpt>
      <trkpt lat="45.76244" lon="4.82657">
        <ele>239.82706</ele>
        <time>2023-07-11T09:33:31.000Z</time>
      </trkpt>
      <trkpt lat="45.7624" lon="4.82654">
        <ele>235.9165</ele>
        <time>2023-07-11T09:33:32.000Z</time>
      </trkpt>
      <trkpt lat="45.76236" lon="4.8265">
        <ele>234.84</ele>
        <time>2023-07-11T09:33:33.000Z</time>
      </trkpt>
      <trkpt lat="45.76233" lon="4.82647">
        <ele>233.71646</ele>
        <time>2023-07-11T09:33:34.000Z</time>
      </trkpt>
      <trkpt lat="45.76229" lon="4.82645">
        <ele>236.07954</ele>
        <time>2023-07-11T09:33:35.000Z</time>
      </trkpt>
      <trkpt lat="45.76225" lon="4.82642">
        <ele>235.19565</ele>
        <time>2023-07-11T09:33:36.000Z</time>
      </trkpt>
      <trkpt lat="45.76221" lon="4.8264">
        <ele>234.20752</ele>
        <time>2023-07-11T09:33:37.000Z</time>
      </trkpt>
      <trkpt lat="45.76217" lon="4.82638">
        <ele>230.93863</ele>
        <time>2023-07-11T09:33:38.000Z</time>
      </trkpt>
      <trkpt lat="45.76213" lon="4.82636">
        <ele>229.64326</ele>
        <time>2023-07-11T09:33:39.000Z</time>
      </trkpt>
      <trkpt lat="45.76211" lon="4.82633">
        <ele>231.95877</ele>
        <time>2023-07-11T09:33:40.000Z</time>
      </trkpt>
      <trkpt lat="45.76209" lon="4.8263">
        <ele>230.87277</ele>
        <time>2023-07-11T09:33:41.000Z</time>
      </trkpt>
      <trkpt lat="45.76206" lon="4.82628">
        <ele>229.74055</ele>
        <time>2023-07-11T09:33:42.000Z</time>
      </trkpt>
      <trkpt lat="45.76204" lon="4.82627">
        <ele>228.58272</ele>
        <time>2023-07-11T09:33:43.000Z</time>
      </trkpt>
      <trkpt lat="45.76203" lon="4.82629">
        <ele>225.564</ele>
        <time>2023-07-11T09:33:44.000Z</time>
      </trkpt>
      <trkpt lat="45.76202" lon="4.82631">
        <ele>224.26009</ele>
        <time>2023-07-11T09:33:45.000Z</time>
      </trkpt>
      <trkpt lat="45.76198" lon="4.82637">
        <ele>227.90034</ele>
        <time>2023-07-11T09:33:46.000Z</time>
      </trkpt>
      <trkpt lat="45.76195" lon="4.82643">
        <ele>227.01883</ele>
        <time>2023-07-11T09:33:47.000Z</time>
      </trkpt>
      <trkpt lat="45.76192" lon="4.82649">
        <ele>226.14639</ele>
        <time>2023-07-11T09:33:48.000Z</time>
      </trkpt>
      <trkpt lat="45.76189" lon="4.82655">
        <ele>225.28804</ele>
        <time>2023-07-11T09:33:49.000Z</time>
      </trkpt>
      <trkpt lat="45.76187" lon="4.8266">
        <ele>222.63908</ele>
        <time>2023-07-11T09:33:50.000Z</time>
      </trkpt>
      <trkpt lat="45.76185" lon="4.82665">
        <ele>221.74539</ele>
        <time>2023-07-11T09:33:51.000Z</time>
      </trkpt>
      <trkpt lat="45.76182" lon="4.82671">
        <ele>223.78757</ele>
        <time>2023-07-11T09:33:52.000Z</time>
      </trkpt>
      <trkpt lat="45.76179" lon="4.82676">
        <ele>223.18112</ele>
        <time>2023-07-11T09:33:53.000Z</time>
      </trkpt>
      <trkpt lat="45.76174" lon="4.82682">
        <ele>222.59819</ele>
        <time>2023-07-11T09:33:55.000Z</time>
      </trkpt>
      <trkpt lat="45.76173" lon="4.82686">
        <ele>220.38858</ele>
        <time>2023-07-11T09:33:57.000Z</time>
      </trkpt>
      <trkpt lat="45.76169" lon="4.8269">
        <ele>219.60403</ele>
        <time>2023-07-11T09:33:58.000Z</time>
      </trkpt>
      <trkpt lat="45.76167" lon="4.82695">
        <ele>218.82443</ele>
        <time>2023-07-11T09:33:59.000Z</time>
      </trkpt>
      <trkpt lat="45.76165" lon="4.82699">
        <ele>220.22969</ele>
        <time>2023-07-11T09:34:00.000Z</time>
      </trkpt>
      <trkpt lat="45.76164" lon="4.82703">
        <ele>219.69424</ele>
        <time>2023-07-11T09:34:01.000Z</time>
      </trkpt>
      <trkpt lat="45.76161" lon="4.82707">
        <ele>219.19681</ele>
        <time>2023-07-11T09:34:02.000Z</time>
      </trkpt>
      <trkpt lat="45.7616" lon="4.82711">
        <ele>216.65427</ele>
        <time>2023-07-11T09:34:03.000Z</time>
      </trkpt>
      <trkpt lat="45.7616" lon="4.82715">
        <ele>214.75671</ele>
        <time>2023-07-11T09:34:05.000Z</time>
      </trkpt>
      <trkpt lat="45.7616" lon="4.82718">
        <ele>212.80368</ele>
        <time>2023-07-11T09:34:06.000Z</time>
      </trkpt>
      <trkpt lat="45.7616" lon="4.82721">
        <ele>212.73177</ele>
        <time>2023-07-11T09:34:07.000Z</time>
      </trkpt>
      <trkpt lat="45.76158" lon="4.82724">
        <ele>211.2045</ele>
        <time>2023-07-11T09:34:08.000Z</time>
      </trkpt>
      <trkpt lat="45.76157" lon="4.8273">
        <ele>209.40677</ele>
        <time>2023-07-11T09:34:09.000Z</time>
      </trkpt>
      <trkpt lat="45.76156" lon="4.82736">
        <ele>207.18999</ele>
        <time>2023-07-11T09:34:10.000Z</time>
      </trkpt>
      <trkpt lat="45.76158" lon="4.82746">
        <ele>205.01733</ele>
        <time>2023-07-11T09:34:11.000Z</time>
      </trkpt>
      <trkpt lat="45.76158" lon="4.82753">
        <ele>203.00479</ele>
        <time>2023-07-11T09:34:12.000Z</time>
      </trkpt>
      <trkpt lat="45.76155" lon="4.8276">
        <ele>202.84239</ele>
        <time>2023-07-11T09:34:13.000Z</time>
      </trkpt>
      <trkpt lat="45.76156" lon="4.82767">
        <ele>200.9986</ele>
        <time>2023-07-11T09:34:14.000Z</time>
      </trkpt>
      <trkpt lat="45.76153" lon="4.82773">
        <ele>199.30777</ele>
        <time>2023-07-11T09:34:15.000Z</time>
      </trkpt>
      <trkpt lat="45.76152" lon="4.82781">
        <ele>197.27208</ele>
        <time>2023-07-11T09:34:16.000Z</time>
      </trkpt>
      <trkpt lat="45.7615" lon="4.8279">
        <ele>194.91481</ele>
        <time>2023-07-11T09:34:17.000Z</time>
      </trkpt>
      <trkpt lat="45.7615" lon="4.82796">
        <ele>194.28398</ele>
        <time>2023-07-11T09:34:18.000Z</time>
      </trkpt>
      <trkpt lat="45.76149" lon="4.82804">
        <ele>192.10452</ele>
        <time>2023-07-11T09:34:19.000Z</time>
      </trkpt>
      <trkpt lat="45.76147" lon="4.82809">
        <ele>189.90724</ele>
        <time>2023-07-11T09:34:20.000Z</time>
      </trkpt>
      <trkpt lat="45.76146" lon="4.82817">
        <ele>187.58028</ele>
        <time>2023-07-11T09:34:21.000Z</time>
      </trkpt>
      <trkpt lat="45.76145" lon="4.82822">
        <ele>185.16763</ele>
        <time>2023-07-11T09:34:22.000Z</time>
      </trkpt>
      <trkpt lat="45.76143" lon="4.82828">
        <ele>182.82758</ele>
        <time>2023-07-11T09:34:23.000Z</time>
      </trkpt>
      <trkpt lat="45.76143" lon="4.82833">
        <ele>183.33652</ele>
        <time>2023-07-11T09:34:24.000Z</time>
      </trkpt>
      <trkpt lat="45.76141" lon="4.82839">
        <ele>183.09677</ele>
        <time>2023-07-11T09:34:25.000Z</time>
      </trkpt>
      <trkpt lat="45.7614" lon="4.82843">
        <ele>182.95363</ele>
        <time>2023-07-11T09:34:26.000Z</time>
      </trkpt>
      <trkpt lat="45.76138" lon="4.82847">
        <ele>182.96573</ele>
        <time>2023-07-11T09:34:27.000Z</time>
      </trkpt>
      <trkpt lat="45.76137" lon="4.82852">
        <ele>182.38197</ele>
        <time>2023-07-11T09:34:28.000Z</time>
      </trkpt>
      <trkpt lat="45.76135" lon="4.82856">
        <ele>182.20398</ele>
        <time>2023-07-11T09:34:29.000Z</time>
      </trkpt>
      <trkpt lat="45.76134" lon="4.8286">
        <ele>182.2762</ele>
        <time>2023-07-11T09:34:30.000Z</time>
      </trkpt>
      <trkpt lat="45.76132" lon="4.82862">
        <ele>182.3333</ele>
        <time>2023-07-11T09:34:31.000Z</time>
      </trkpt>
      <trkpt lat="45.7613" lon="4.82865">
        <ele>182.27858</ele>
        <time>2023-07-11T09:34:32.000Z</time>
      </trkpt>
      <trkpt lat="45.76131" lon="4.8287">
        <ele>182.24831</ele>
        <time>2023-07-11T09:34:33.000Z</time>
      </trkpt>
      <trkpt lat="45.76133" lon="4.82873">
        <ele>182.21671</ele>
        <time>2023-07-11T09:34:34.000Z</time>
      </trkpt>
      <trkpt lat="45.76136" lon="4.82875">
        <ele>182.06537</ele>
        <time>2023-07-11T09:34:35.000Z</time>
      </trkpt>
      <trkpt lat="45.7614" lon="4.82875">
        <ele>182.13069</ele>
        <time>2023-07-11T09:34:36.000Z</time>
      </trkpt>
      <trkpt lat="45.76145" lon="4.82876">
        <ele>182.55452</ele>
        <time>2023-07-11T09:34:37.000Z</time>
      </trkpt>
      <trkpt lat="45.7615" lon="4.82876">
        <ele>182.93741</ele>
        <time>2023-07-11T09:34:38.000Z</time>
      </trkpt>
      <trkpt lat="45.76154" lon="4.82877">
        <ele>183.32343</ele>
        <time>2023-07-11T09:34:39.000Z</time>
      </trkpt>
      <trkpt lat="45.76159" lon="4.82879">
        <ele>183.79697</ele>
        <time>2023-07-11T09:34:40.000Z</time>
      </trkpt>
      <trkpt lat="45.76163" lon="4.8288">
        <ele>184.42679</ele>
        <time>2023-07-11T09:34:41.000Z</time>
      </trkpt>
      <trkpt lat="45.76167" lon="4.82881">
        <ele>185.05524</ele>
        <time>2023-07-11T09:34:42.000Z</time>
      </trkpt>
      <trkpt lat="45.76171" lon="4.82882">
        <ele>185.63834</ele>
        <time>2023-07-11T09:34:43.000Z</time>
      </trkpt>
      <trkpt lat="45.76174" lon="4.82884">
        <ele>185.24437</ele>
        <time>2023-07-11T09:34:44.000Z</time>
      </trkpt>
      <trkpt lat="45.76178" lon="4.82886">
        <ele>185.05032</ele>
        <time>2023-07-11T09:34:45.000Z</time>
      </trkpt>
      <trkpt lat="45.76181" lon="4.82888">
        <ele>184.85208</ele>
        <time>2023-07-11T09:34:46.000Z</time>
      </trkpt>
      <trkpt lat="45.76185" lon="4.8289">
        <ele>184.50508</ele>
        <time>2023-07-11T09:34:47.000Z</time>
      </trkpt>
      <trkpt lat="45.7619" lon="4.82892">
        <ele>184.5126</ele>
        <time>2023-07-11T09:34:48.000Z</time>
      </trkpt>
      <trkpt lat="45.76195" lon="4.82894">
        <ele>184.4744</ele>
        <time>2023-07-11T09:34:49.000Z</time>
      </trkpt>
      <trkpt lat="45.762" lon="4.82897">
        <ele>183.97287</ele>
        <time>2023-07-11T09:34:50.000Z</time>
      </trkpt>
      <trkpt lat="45.76204" lon="4.829">
        <ele>183.49139</ele>
        <time>2023-07-11T09:34:51.000Z</time>
      </trkpt>
      <trkpt lat="45.76209" lon="4.82903">
        <ele>183.01494</ele>
        <time>2023-07-11T09:34:52.000Z</time>
      </trkpt>
      <trkpt lat="45.76215" lon="4.82906">
        <ele>182.50223</ele>
        <time>2023-07-11T09:34:53.000Z</time>
      </trkpt>
      <trkpt lat="45.7622" lon="4.82909">
        <ele>181.99132</ele>
        <time>2023-07-11T09:34:54.000Z</time>
      </trkpt>
      <trkpt lat="45.76225" lon="4.82912">
        <ele>181.50458</ele>
        <time>2023-07-11T09:34:55.000Z</time>
      </trkpt>
      <trkpt lat="45.76229" lon="4.82914">
        <ele>181.02347</ele>
        <time>2023-07-11T09:34:56.000Z</time>
      </trkpt>
      <trkpt lat="45.76234" lon="4.82917">
        <ele>180.53287</ele>
        <time>2023-07-11T09:34:57.000Z</time>
      </trkpt>
      <trkpt lat="45.76239" lon="4.8292">
        <ele>180.05104</ele>
        <time>2023-07-11T09:34:58.000Z</time>
      </trkpt>
      <trkpt lat="45.76244" lon="4.82923">
        <ele>179.57303</ele>
        <time>2023-07-11T09:34:59.000Z</time>
      </trkpt>
      <trkpt lat="45.7625" lon="4.82925">
        <ele>179.06213</ele>
        <time>2023-07-11T09:35:00.000Z</time>
      </trkpt>
      <trkpt lat="45.76255" lon="4.82927">
        <ele>178.6561</ele>
        <time>2023-07-11T09:35:01.000Z</time>
      </trkpt>
      <trkpt lat="45.76261" lon="4.82928">
        <ele>178.27805</ele>
        <time>2023-07-11T09:35:02.000Z</time>
      </trkpt>
      <trkpt lat="45.76267" lon="4.8293">
        <ele>177.78946</ele>
        <time>2023-07-11T09:35:03.000Z</time>
      </trkpt>
      <trkpt lat="45.76273" lon="4.82931">
        <ele>177.37122</ele>
        <time>2023-07-11T09:35:04.000Z</time>
      </trkpt>
      <trkpt lat="45.76278" lon="4.82932">
        <ele>176.91737</ele>
        <time>2023-07-11T09:35:05.000Z</time>
      </trkpt>
      <trkpt lat="45.76283" lon="4.82933">
        <ele>176.50383</ele>
        <time>2023-07-11T09:35:06.000Z</time>
      </trkpt>
      <trkpt lat="45.76289" lon="4.82934">
        <ele>176.05917</ele>
        <time>2023-07-11T09:35:07.000Z</time>
      </trkpt>
      <trkpt lat="45.76294" lon="4.82937">
        <ele>175.66611</ele>
        <time>2023-07-11T09:35:08.000Z</time>
      </trkpt>
      <trkpt lat="45.76299" lon="4.82939">
        <ele>175.22791</ele>
        <time>2023-07-11T09:35:09.000Z</time>
      </trkpt>
      <trkpt lat="45.76305" lon="4.82939">
        <ele>175.2982</ele>
        <time>2023-07-11T09:35:10.000Z</time>
      </trkpt>
      <trkpt lat="45.76311" lon="4.82939">
        <ele>175.28839</ele>
        <time>2023-07-11T09:35:11.000Z</time>
      </trkpt>
      <trkpt lat="45.76315" lon="4.8294">
        <ele>175.3185</ele>
        <time>2023-07-11T09:35:12.000Z</time>
      </trkpt>
      <trkpt lat="45.7632" lon="4.82941">
        <ele>175.38205</ele>
        <time>2023-07-11T09:35:13.000Z</time>
      </trkpt>
      <trkpt lat="45.76324" lon="4.8294">
        <ele>175.47011</ele>
        <time>2023-07-11T09:35:14.000Z</time>
      </trkpt>
      <trkpt lat="45.76327" lon="4.82941">
        <ele>175.5475</ele>
        <time>2023-07-11T09:35:15.000Z</time>
      </trkpt>
      <trkpt lat="45.7633" lon="4.82942">
        <ele>175.66348</ele>
        <time>2023-07-11T09:35:16.000Z</time>
      </trkpt>
      <trkpt lat="45.76334" lon="4.82941">
        <ele>175.78915</ele>
        <time>2023-07-11T09:35:17.000Z</time>
      </trkpt>
      <trkpt lat="45.76335" lon="4.82946">
        <ele>175.91348</ele>
        <time>2023-07-11T09:35:18.000Z</time>
      </trkpt>
      <trkpt lat="45.76334" lon="4.8295">
        <ele>176.08989</ele>
        <time>2023-07-11T09:35:19.000Z</time>
      </trkpt>
      <trkpt lat="45.76334" lon="4.82956">
        <ele>176.27318</ele>
        <time>2023-07-11T09:35:20.000Z</time>
      </trkpt>
      <trkpt lat="45.76336" lon="4.82962">
        <ele>176.38882</ele>
        <time>2023-07-11T09:35:21.000Z</time>
      </trkpt>
      <trkpt lat="45.76337" lon="4.82968">
        <ele>176.51105</ele>
        <time>2023-07-11T09:35:22.000Z</time>
      </trkpt>
      <trkpt lat="45.76337" lon="4.82974">
        <ele>176.73392</ele>
        <time>2023-07-11T09:35:23.000Z</time>
      </trkpt>
      <trkpt lat="45.76338" lon="4.8298">
        <ele>176.93208</ele>
        <time>2023-07-11T09:35:24.000Z</time>
      </trkpt>
      <trkpt lat="45.76338" lon="4.82986">
        <ele>177.12222</ele>
        <time>2023-07-11T09:35:25.000Z</time>
      </trkpt>
      <trkpt lat="45.76337" lon="4.82992">
        <ele>177.28629</ele>
        <time>2023-07-11T09:35:26.000Z</time>
      </trkpt>
      <trkpt lat="45.76337" lon="4.82998">
        <ele>177.50246</ele>
        <time>2023-07-11T09:35:27.000Z</time>
      </trkpt>
      <trkpt lat="45.76337" lon="4.83004">
        <ele>177.66745</ele>
        <time>2023-07-11T09:35:28.000Z</time>
      </trkpt>
      <trkpt lat="45.76337" lon="4.8301">
        <ele>177.86159</ele>
        <time>2023-07-11T09:35:29.000Z</time>
      </trkpt>
      <trkpt lat="45.76337" lon="4.83016">
        <ele>178.00455</ele>
        <time>2023-07-11T09:35:30.000Z</time>
      </trkpt>
      <trkpt lat="45.76336" lon="4.83022">
        <ele>178.23395</ele>
        <time>2023-07-11T09:35:31.000Z</time>
      </trkpt>
      <trkpt lat="45.76336" lon="4.83028">
        <ele>178.41183</ele>
        <time>2023-07-11T09:35:32.000Z</time>
      </trkpt>
      <trkpt lat="45.76336" lon="4.83034">
        <ele>178.57294</ele>
        <time>2023-07-11T09:35:33.000Z</time>
      </trkpt>
      <trkpt lat="45.76336" lon="4.83039">
        <ele>178.72252</ele>
        <time>2023-07-11T09:35:34.000Z</time>
      </trkpt>
      <trkpt lat="45.76336" lon="4.83045">
        <ele>178.90575</ele>
        <time>2023-07-11T09:35:35.000Z</time>
      </trkpt>
      <trkpt lat="45.76335" lon="4.8305">
        <ele>179.06418</ele>
        <time>2023-07-11T09:35:36.000Z</time>
      </trkpt>
      <trkpt lat="45.76335" lon="4.83056">
        <ele>179.21326</ele>
        <time>2023-07-11T09:35:37.000Z</time>
      </trkpt>
      <trkpt lat="45.76335" lon="4.83061">
        <ele>179.27823</ele>
        <time>2023-07-11T09:35:38.000Z</time>
      </trkpt>
      <trkpt lat="45.76335" lon="4.83066">
        <ele>179.27597</ele>
        <time>2023-07-11T09:35:39.000Z</time>
      </trkpt>
      <trkpt lat="45.76335" lon="4.83072">
        <ele>179.28535</ele>
        <time>2023-07-11T09:35:40.000Z</time>
      </trkpt>
      <trkpt lat="45.76335" lon="4.83077">
        <ele>179.22908</ele>
        <time>2023-07-11T09:35:41.000Z</time>
      </trkpt>
      <trkpt lat="45.76334" lon="4.83082">
        <ele>179.16377</ele>
        <time>2023-07-11T09:35:42.000Z</time>
      </trkpt>
      <trkpt lat="45.76334" lon="4.83087">
        <ele>179.10493</ele>
        <time>2023-07-11T09:35:43.000Z</time>
      </trkpt>
      <trkpt lat="45.76334" lon="4.83092">
        <ele>179.05884</ele>
        <time>2023-07-11T09:35:44.000Z</time>
      </trkpt>
      <trkpt lat="45.76334" lon="4.83096">
        <ele>179.01382</ele>
        <time>2023-07-11T09:35:45.000Z</time>
      </trkpt>
      <trkpt lat="45.76334" lon="4.831">
        <ele>178.96719</ele>
        <time>2023-07-11T09:35:46.000Z</time>
      </trkpt>
      <trkpt lat="45.76334" lon="4.83104">
        <ele>178.90137</ele>
        <time>2023-07-11T09:35:47.000Z</time>
      </trkpt>
      <trkpt lat="45.76335" lon="4.83108">
        <ele>178.84518</ele>
        <time>2023-07-11T09:35:48.000Z</time>
      </trkpt>
      <trkpt lat="45.76335" lon="4.83113">
        <ele>178.78421</ele>
        <time>2023-07-11T09:35:49.000Z</time>
      </trkpt>
      <trkpt lat="45.76335" lon="4.83117">
        <ele>178.7124</ele>
        <time>2023-07-11T09:35:50.000Z</time>
      </trkpt>
      <trkpt lat="45.76334" lon="4.8312">
        <ele>178.6183</ele>
        <time>2023-07-11T09:35:51.000Z</time>
      </trkpt>
      <trkpt lat="45.76334" lon="4.83124">
        <ele>178.51828</ele>
        <time>2023-07-11T09:35:52.000Z</time>
      </trkpt>
      <trkpt lat="45.76334" lon="4.83128">
        <ele>178.40642</ele>
        <time>2023-07-11T09:35:53.000Z</time>
      </trkpt>
      <trkpt lat="45.76334" lon="4.83132">
        <ele>178.27072</ele>
        <time>2023-07-11T09:35:54.000Z</time>
      </trkpt>
      <trkpt lat="45.76334" lon="4.83136">
        <ele>178.06683</ele>
        <time>2023-07-11T09:35:55.000Z</time>
      </trkpt>
      <trkpt lat="45.76333" lon="4.83141">
        <ele>177.87074</ele>
        <time>2023-07-11T09:35:56.000Z</time>
      </trkpt>
      <trkpt lat="45.76333" lon="4.83145">
        <ele>177.64969</ele>
        <time>2023-07-11T09:35:57.000Z</time>
      </trkpt>
      <trkpt lat="45.76332" lon="4.8315">
        <ele>177.48953</ele>
        <time>2023-07-11T09:35:58.000Z</time>
      </trkpt>
      <trkpt lat="45.76331" lon="4.83155">
        <ele>177.34499</ele>
        <time>2023-07-11T09:35:59.000Z</time>
      </trkpt>
      <trkpt lat="45.7633" lon="4.83161">
        <ele>177.17152</ele>
        <time>2023-07-11T09:36:00.000Z</time>
      </trkpt>
      <trkpt lat="45.76329" lon="4.83166">
        <ele>177.05344</ele>
        <time>2023-07-11T09:36:01.000Z</time>
      </trkpt>
      <trkpt lat="45.76329" lon="4.83171">
        <ele>176.91685</ele>
        <time>2023-07-11T09:36:02.000Z</time>
      </trkpt>
      <trkpt lat="45.76329" lon="4.83176">
        <ele>176.82227</ele>
        <time>2023-07-11T09:36:03.000Z</time>
      </trkpt>
      <trkpt lat="45.7633" lon="4.8318">
        <ele>176.71786</ele>
        <time>2023-07-11T09:36:04.000Z</time>
      </trkpt>
      <trkpt lat="45.7633" lon="4.83184">
        <ele>176.59821</ele>
        <time>2023-07-11T09:36:05.000Z</time>
      </trkpt>
      <trkpt lat="45.76331" lon="4.83187">
        <ele>176.49623</ele>
        <time>2023-07-11T09:36:06.000Z</time>
      </trkpt>
      <trkpt lat="45.76331" lon="4.8319">
        <ele>176.41489</ele>
        <time>2023-07-11T09:36:07.000Z</time>
      </trkpt>
      <trkpt lat="45.76332" lon="4.83193">
        <ele>176.35597</ele>
        <time>2023-07-11T09:36:08.000Z</time>
      </trkpt>
      <trkpt lat="45.76334" lon="4.83196">
        <ele>176.35446</ele>
        <time>2023-07-11T09:36:10.000Z</time>
      </trkpt>
      <trkpt lat="45.76335" lon="4.83199">
        <ele>176.35701</ele>
        <time>2023-07-11T09:36:11.000Z</time>
      </trkpt>
      <trkpt lat="45.76334" lon="4.83202">
        <ele>176.37874</ele>
        <time>2023-07-11T09:36:12.000Z</time>
      </trkpt>
      <trkpt lat="45.76334" lon="4.83206">
        <ele>176.40848</ele>
        <time>2023-07-11T09:36:13.000Z</time>
      </trkpt>
      <trkpt lat="45.76332" lon="4.83211">
        <ele>176.45236</ele>
        <time>2023-07-11T09:36:14.000Z</time>
      </trkpt>
      <trkpt lat="45.7633" lon="4.83216">
        <ele>176.49576</ele>
        <time>2023-07-11T09:36:15.000Z</time>
      </trkpt>
      <trkpt lat="45.76328" lon="4.83221">
        <ele>176.58635</ele>
        <time>2023-07-11T09:36:16.000Z</time>
      </trkpt>
      <trkpt lat="45.76328" lon="4.83226">
        <ele>176.67509</ele>
        <time>2023-07-11T09:36:17.000Z</time>
      </trkpt>
      <trkpt lat="45.76327" lon="4.83231">
        <ele>176.7744</ele>
        <time>2023-07-11T09:36:18.000Z</time>
      </trkpt>
      <trkpt lat="45.76327" lon="4.83235">
        <ele>176.90475</ele>
        <time>2023-07-11T09:36:19.000Z</time>
      </trkpt>
      <trkpt lat="45.76328" lon="4.8324">
        <ele>177.07204</ele>
        <time>2023-07-11T09:36:20.000Z</time>
      </trkpt>
      <trkpt lat="45.76328" lon="4.83244">
        <ele>177.25075</ele>
        <time>2023-07-11T09:36:21.000Z</time>
      </trkpt>
      <trkpt lat="45.76329" lon="4.83248">
        <ele>177.38179</ele>
        <time>2023-07-11T09:36:22.000Z</time>
      </trkpt>
      <trkpt lat="45.76329" lon="4.83252">
        <ele>177.50395</ele>
        <time>2023-07-11T09:36:23.000Z</time>
      </trkpt>
      <trkpt lat="45.76328" lon="4.83257">
        <ele>177.55756</ele>
        <time>2023-07-11T09:36:24.000Z</time>
      </trkpt>
      <trkpt lat="45.76328" lon="4.83262">
        <ele>177.59708</ele>
        <time>2023-07-11T09:36:25.000Z</time>
      </trkpt>
      <trkpt lat="45.76327" lon="4.83266">
        <ele>177.65349</ele>
        <time>2023-07-11T09:36:26.000Z</time>
      </trkpt>
      <trkpt lat="45.76327" lon="4.8327">
        <ele>177.6976</ele>
        <time>2023-07-11T09:36:27.000Z</time>
      </trkpt>
      <trkpt lat="45.76327" lon="4.83275">
        <ele>177.70549</ele>
        <time>2023-07-11T09:36:28.000Z</time>
      </trkpt>
      <trkpt lat="45.76327" lon="4.83279">
        <ele>177.68961</ele>
        <time>2023-07-11T09:36:29.000Z</time>
      </trkpt>
      <trkpt lat="45.76327" lon="4.83283">
        <ele>177.59882</ele>
        <time>2023-07-11T09:36:30.000Z</time>
      </trkpt>
      <trkpt lat="45.76327" lon="4.83287">
        <ele>177.49078</ele>
        <time>2023-07-11T09:36:32.000Z</time>
      </trkpt>
      <trkpt lat="45.76327" lon="4.83291">
        <ele>177.41495</ele>
        <time>2023-07-11T09:36:34.000Z</time>
      </trkpt>
      <trkpt lat="45.76326" lon="4.83294">
        <ele>177.35062</ele>
        <time>2023-07-11T09:36:36.000Z</time>
      </trkpt>
      <trkpt lat="45.76328" lon="4.83295">
        <ele>177.24797</ele>
        <time>2023-07-11T09:36:43.000Z</time>
      </trkpt>
      <trkpt lat="45.76329" lon="4.83299">
        <ele>177.11678</ele>
        <time>2023-07-11T09:37:11.000Z</time>
      </trkpt>
      <trkpt lat="45.76329" lon="4.83302">
        <ele>176.97636</ele>
        <time>2023-07-11T09:37:12.000Z</time>
      </trkpt>
      <trkpt lat="45.76329" lon="4.83305">
        <ele>176.82449</ele>
        <time>2023-07-11T09:37:13.000Z</time>
      </trkpt>
      <trkpt lat="45.76329" lon="4.83308">
        <ele>176.70844</ele>
        <time>2023-07-11T09:37:14.000Z</time>
      </trkpt>
      <trkpt lat="45.7633" lon="4.83311">
        <ele>176.58295</ele>
        <time>2023-07-11T09:37:16.000Z</time>
      </trkpt>
      <trkpt lat="45.76329" lon="4.83314">
        <ele>176.42599</ele>
        <time>2023-07-11T09:37:18.000Z</time>
      </trkpt>
      <trkpt lat="45.76329" lon="4.83319">
        <ele>176.23697</ele>
        <time>2023-07-11T09:37:20.000Z</time>
      </trkpt>
      <trkpt lat="45.7633" lon="4.83322">
        <ele>176.06606</ele>
        <time>2023-07-11T09:37:21.000Z</time>
      </trkpt>
      <trkpt lat="45.7633" lon="4.83326">
        <ele>175.91075</ele>
        <time>2023-07-11T09:37:22.000Z</time>
      </trkpt>
      <trkpt lat="45.7633" lon="4.83331">
        <ele>175.78838</ele>
        <time>2023-07-11T09:37:23.000Z</time>
      </trkpt>
      <trkpt lat="45.76329" lon="4.83337">
        <ele>175.68405</ele>
        <time>2023-07-11T09:37:24.000Z</time>
      </trkpt>
      <trkpt lat="45.7633" lon="4.83343">
        <ele>175.57138</ele>
        <time>2023-07-11T09:37:25.000Z</time>
      </trkpt>
      <trkpt lat="45.76331" lon="4.8335">
        <ele>175.38</ele>
        <time>2023-07-11T09:37:26.000Z</time>
      </trkpt>
      <trkpt lat="45.76332" lon="4.83357">
        <ele>175.19943</ele>
        <time>2023-07-11T09:37:27.000Z</time>
      </trkpt>
      <trkpt lat="45.76333" lon="4.83364">
        <ele>175.00494</ele>
        <time>2023-07-11T09:37:28.000Z</time>
      </trkpt>
      <trkpt lat="45.76334" lon="4.83372">
        <ele>174.8231</ele>
        <time>2023-07-11T09:37:29.000Z</time>
      </trkpt>
      <trkpt lat="45.76335" lon="4.8338">
        <ele>174.64175</ele>
        <time>2023-07-11T09:37:30.000Z</time>
      </trkpt>
      <trkpt lat="45.76336" lon="4.83389">
        <ele>174.40213</ele>
        <time>2023-07-11T09:37:31.000Z</time>
      </trkpt>
      <trkpt lat="45.76336" lon="4.83398">
        <ele>174.16051</ele>
        <time>2023-07-11T09:37:32.000Z</time>
      </trkpt>
      <trkpt lat="45.76337" lon="4.83407">
        <ele>173.95078</ele>
        <time>2023-07-11T09:37:33.000Z</time>
      </trkpt>
      <trkpt lat="45.76335" lon="4.83416">
        <ele>173.78172</ele>
        <time>2023-07-11T09:37:34.000Z</time>
      </trkpt>
      <trkpt lat="45.76336" lon="4.83423">
        <ele>173.60791</ele>
        <time>2023-07-11T09:37:35.000Z</time>
      </trkpt>
      <trkpt lat="45.76335" lon="4.8343">
        <ele>173.41302</ele>
        <time>2023-07-11T09:37:36.000Z</time>
      </trkpt>
      <trkpt lat="45.76335" lon="4.8344">
        <ele>173.18681</ele>
        <time>2023-07-11T09:37:37.000Z</time>
      </trkpt>
      <trkpt lat="45.76336" lon="4.83449">
        <ele>172.93945</ele>
        <time>2023-07-11T09:37:38.000Z</time>
      </trkpt>
      <trkpt lat="45.76337" lon="4.83458">
        <ele>172.68144</ele>
        <time>2023-07-11T09:37:39.000Z</time>
      </trkpt>
      <trkpt lat="45.76338" lon="4.83466">
        <ele>172.42474</ele>
        <time>2023-07-11T09:37:40.000Z</time>
      </trkpt>
      <trkpt lat="45.76338" lon="4.83476">
        <ele>172.18271</ele>
        <time>2023-07-11T09:37:41.000Z</time>
      </trkpt>
      <trkpt lat="45.7634" lon="4.83484">
        <ele>171.94505</ele>
        <time>2023-07-11T09:37:42.000Z</time>
      </trkpt>
      <trkpt lat="45.7634" lon="4.83493">
        <ele>171.77399</ele>
        <time>2023-07-11T09:37:43.000Z</time>
      </trkpt>
      <trkpt lat="45.7634" lon="4.83501">
        <ele>171.60596</ele>
        <time>2023-07-11T09:37:44.000Z</time>
      </trkpt>
      <trkpt lat="45.76341" lon="4.83509">
        <ele>171.45912</ele>
        <time>2023-07-11T09:37:45.000Z</time>
      </trkpt>
      <trkpt lat="45.76341" lon="4.83517">
        <ele>171.36421</ele>
        <time>2023-07-11T09:37:46.000Z</time>
      </trkpt>
      <trkpt lat="45.76342" lon="4.83527">
        <ele>171.29625</ele>
        <time>2023-07-11T09:37:47.000Z</time>
      </trkpt>
      <trkpt lat="45.76343" lon="4.83535">
        <ele>171.25215</ele>
        <time>2023-07-11T09:37:48.000Z</time>
      </trkpt>
      <trkpt lat="45.76342" lon="4.83543">
        <ele>171.21132</ele>
        <time>2023-07-11T09:37:49.000Z</time>
      </trkpt>
      <trkpt lat="45.76342" lon="4.83552">
        <ele>171.20575</ele>
        <time>2023-07-11T09:37:50.000Z</time>
      </trkpt>
      <trkpt lat="45.76343" lon="4.8356">
        <ele>171.21861</ele>
        <time>2023-07-11T09:37:51.000Z</time>
      </trkpt>
      <trkpt lat="45.76344" lon="4.83567">
        <ele>171.23218</ele>
        <time>2023-07-11T09:37:52.000Z</time>
      </trkpt>
      <trkpt lat="45.76345" lon="4.83575">
        <ele>171.24757</ele>
        <time>2023-07-11T09:37:53.000Z</time>
      </trkpt>
      <trkpt lat="45.76345" lon="4.83582">
        <ele>171.27194</ele>
        <time>2023-07-11T09:37:54.000Z</time>
      </trkpt>
      <trkpt lat="45.76345" lon="4.83589">
        <ele>171.29752</ele>
        <time>2023-07-11T09:37:55.000Z</time>
      </trkpt>
      <trkpt lat="45.76347" lon="4.83597">
        <ele>171.3602</ele>
        <time>2023-07-11T09:37:56.000Z</time>
      </trkpt>
      <trkpt lat="45.76347" lon="4.83604">
        <ele>171.43204</ele>
        <time>2023-07-11T09:37:57.000Z</time>
      </trkpt>
      <trkpt lat="45.76348" lon="4.83612">
        <ele>171.5009</ele>
        <time>2023-07-11T09:37:58.000Z</time>
      </trkpt>
      <trkpt lat="45.76348" lon="4.8362">
        <ele>171.59747</ele>
        <time>2023-07-11T09:37:59.000Z</time>
      </trkpt>
      <trkpt lat="45.76348" lon="4.83628">
        <ele>171.73294</ele>
        <time>2023-07-11T09:38:00.000Z</time>
      </trkpt>
      <trkpt lat="45.76348" lon="4.83636">
        <ele>171.88541</ele>
        <time>2023-07-11T09:38:01.000Z</time>
      </trkpt>
      <trkpt lat="45.76348" lon="4.83644">
        <ele>172.06387</ele>
        <time>2023-07-11T09:38:02.000Z</time>
      </trkpt>
      <trkpt lat="45.76347" lon="4.83652">
        <ele>172.15575</ele>
        <time>2023-07-11T09:38:03.000Z</time>
      </trkpt>
      <trkpt lat="45.76348" lon="4.83659">
        <ele>172.24437</ele>
        <time>2023-07-11T09:38:04.000Z</time>
      </trkpt>
      <trkpt lat="45.76349" lon="4.83665">
        <ele>172.31589</ele>
        <time>2023-07-11T09:38:05.000Z</time>
      </trkpt>
      <trkpt lat="45.76349" lon="4.8367">
        <ele>172.41928</ele>
        <time>2023-07-11T09:38:06.000Z</time>
      </trkpt>
      <trkpt lat="45.76349" lon="4.83676">
        <ele>172.49753</ele>
        <time>2023-07-11T09:38:07.000Z</time>
      </trkpt>
      <trkpt lat="45.76349" lon="4.83681">
        <ele>172.56801</ele>
        <time>2023-07-11T09:38:08.000Z</time>
      </trkpt>
      <trkpt lat="45.7635" lon="4.83685">
        <ele>172.64284</ele>
        <time>2023-07-11T09:38:09.000Z</time>
      </trkpt>
      <trkpt lat="45.7635" lon="4.83689">
        <ele>172.70358</ele>
        <time>2023-07-11T09:38:10.000Z</time>
      </trkpt>
      <trkpt lat="45.7635" lon="4.83692">
        <ele>172.77966</ele>
        <time>2023-07-11T09:38:11.000Z</time>
      </trkpt>
      <trkpt lat="45.7635" lon="4.83695">
        <ele>172.8349</ele>
        <time>2023-07-11T09:38:12.000Z</time>
      </trkpt>
      <trkpt lat="45.7635" lon="4.83699">
        <ele>172.88736</ele>
        <time>2023-07-11T09:38:13.000Z</time>
      </trkpt>
      <trkpt lat="45.76349" lon="4.83702">
        <ele>172.91959</ele>
        <time>2023-07-11T09:38:14.000Z</time>
      </trkpt>
      <trkpt lat="45.7635" lon="4.83706">
        <ele>172.94719</ele>
        <time>2023-07-11T09:38:16.000Z</time>
      </trkpt>
      <trkpt lat="45.76351" lon="4.8371">
        <ele>172.9581</ele>
        <time>2023-07-11T09:38:30.000Z</time>
      </trkpt>
      <trkpt lat="45.76352" lon="4.83715">
        <ele>172.98489</ele>
        <time>2023-07-11T09:38:31.000Z</time>
      </trkpt>
      <trkpt lat="45.76353" lon="4.83719">
        <ele>173.03188</ele>
        <time>2023-07-11T09:38:32.000Z</time>
      </trkpt>
      <trkpt lat="45.76354" lon="4.83723">
        <ele>173.0556</ele>
        <time>2023-07-11T09:38:33.000Z</time>
      </trkpt>
      <trkpt lat="45.76354" lon="4.83728">
        <ele>173.06332</ele>
        <time>2023-07-11T09:38:34.000Z</time>
      </trkpt>
      <trkpt lat="45.76354" lon="4.83734">
        <ele>173.05605</ele>
        <time>2023-07-11T09:38:35.000Z</time>
      </trkpt>
      <trkpt lat="45.76354" lon="4.83739">
        <ele>173.03003</ele>
        <time>2023-07-11T09:38:36.000Z</time>
      </trkpt>
      <trkpt lat="45.76354" lon="4.83745">
        <ele>173.02895</ele>
        <time>2023-07-11T09:38:37.000Z</time>
      </trkpt>
      <trkpt lat="45.76354" lon="4.8375">
        <ele>173.03525</ele>
        <time>2023-07-11T09:38:38.000Z</time>
      </trkpt>
      <trkpt lat="45.76354" lon="4.83755">
        <ele>173.04306</ele>
        <time>2023-07-11T09:38:39.000Z</time>
      </trkpt>
      <trkpt lat="45.76354" lon="4.83759">
        <ele>173.0399</ele>
        <time>2023-07-11T09:38:40.000Z</time>
      </trkpt>
      <trkpt lat="45.76354" lon="4.83762">
        <ele>173.05072</ele>
        <time>2023-07-11T09:38:41.000Z</time>
      </trkpt>
      <trkpt lat="45.76355" lon="4.83765">
        <ele>173.09164</ele>
        <time>2023-07-11T09:38:42.000Z</time>
      </trkpt>
      <trkpt lat="45.76355" lon="4.8377">
        <ele>173.1727</ele>
        <time>2023-07-11T09:38:44.000Z</time>
      </trkpt>
      <trkpt lat="45.76355" lon="4.83773">
        <ele>173.24719</ele>
        <time>2023-07-11T09:38:46.000Z</time>
      </trkpt>
      <trkpt lat="45.76355" lon="4.83776">
        <ele>173.30592</ele>
        <time>2023-07-11T09:38:48.000Z</time>
      </trkpt>
      <trkpt lat="45.76355" lon="4.8378">
        <ele>173.38516</ele>
        <time>2023-07-11T09:38:50.000Z</time>
      </trkpt>
      <trkpt lat="45.76354" lon="4.83784">
        <ele>173.43195</ele>
        <time>2023-07-11T09:38:52.000Z</time>
      </trkpt>
      <trkpt lat="45.76354" lon="4.8379">
        <ele>173.42162</ele>
        <time>2023-07-11T09:38:54.000Z</time>
      </trkpt>
      <trkpt lat="45.76353" lon="4.83792">
        <ele>173.43959</ele>
        <time>2023-07-11T09:38:55.000Z</time>
      </trkpt>
      <trkpt lat="45.76352" lon="4.83795">
        <ele>173.48213</ele>
        <time>2023-07-11T09:38:56.000Z</time>
      </trkpt>
      <trkpt lat="45.76351" lon="4.83798">
        <ele>173.50751</ele>
        <time>2023-07-11T09:38:57.000Z</time>
      </trkpt>
      <trkpt lat="45.7635" lon="4.83801">
        <ele>173.52316</ele>
        <time>2023-07-11T09:38:58.000Z</time>
      </trkpt>
      <trkpt lat="45.76348" lon="4.83802">
        <ele>173.56728</ele>
        <time>2023-07-11T09:39:01.000Z</time>
      </trkpt>
      <trkpt lat="45.76347" lon="4.83806">
        <ele>173.58997</ele>
        <time>2023-07-11T09:39:05.000Z</time>
      </trkpt>
      <trkpt lat="45.76345" lon="4.83811">
        <ele>173.57979</ele>
        <time>2023-07-11T09:39:07.000Z</time>
      </trkpt>
      <trkpt lat="45.76345" lon="4.83816">
        <ele>173.56264</ele>
        <time>2023-07-11T09:39:08.000Z</time>
      </trkpt>
      <trkpt lat="45.76346" lon="4.83821">
        <ele>173.55193</ele>
        <time>2023-07-11T09:39:09.000Z</time>
      </trkpt>
      <trkpt lat="45.76346" lon="4.83826">
        <ele>173.52353</ele>
        <time>2023-07-11T09:39:10.000Z</time>
      </trkpt>
      <trkpt lat="45.76346" lon="4.83832">
        <ele>173.50346</ele>
        <time>2023-07-11T09:39:11.000Z</time>
      </trkpt>
      <trkpt lat="45.76346" lon="4.83841">
        <ele>173.5099</ele>
        <time>2023-07-11T09:39:12.000Z</time>
      </trkpt>
      <trkpt lat="45.76347" lon="4.83848">
        <ele>173.51089</ele>
        <time>2023-07-11T09:39:13.000Z</time>
      </trkpt>
      <trkpt lat="45.76348" lon="4.83851">
        <ele>173.43906</ele>
        <time>2023-07-11T09:39:14.000Z</time>
      </trkpt>
      <trkpt lat="45.76349" lon="4.83859">
        <ele>173.33226</ele>
        <time>2023-07-11T09:39:15.000Z</time>
      </trkpt>
      <trkpt lat="45.76351" lon="4.83867">
        <ele>173.24971</ele>
        <time>2023-07-11T09:39:16.000Z</time>
      </trkpt>
      <trkpt lat="45.76352" lon="4.83876">
        <ele>173.16586</ele>
        <time>2023-07-11T09:39:17.000Z</time>
      </trkpt>
      <trkpt lat="45.76351" lon="4.83886">
        <ele>173.09491</ele>
        <time>2023-07-11T09:39:18.000Z</time>
      </trkpt>
      <trkpt lat="45.76352" lon="4.83894">
        <ele>173.07631</ele>
        <time>2023-07-11T09:39:19.000Z</time>
      </trkpt>
      <trkpt lat="45.76352" lon="4.83902">
        <ele>173.12973</ele>
        <time>2023-07-11T09:39:20.000Z</time>
      </trkpt>
      <trkpt lat="45.76352" lon="4.83911">
        <ele>173.15099</ele>
        <time>2023-07-11T09:39:21.000Z</time>
      </trkpt>
      <trkpt lat="45.76354" lon="4.83919">
        <ele>173.14496</ele>
        <time>2023-07-11T09:39:22.000Z</time>
      </trkpt>
      <trkpt lat="45.76353" lon="4.83926">
        <ele>173.09177</ele>
        <time>2023-07-11T09:39:23.000Z</time>
      </trkpt>
      <trkpt lat="45.76353" lon="4.83934">
        <ele>173.0359</ele>
        <time>2023-07-11T09:39:24.000Z</time>
      </trkpt>
      <trkpt lat="45.76353" lon="4.83942">
        <ele>172.95859</ele>
        <time>2023-07-11T09:39:25.000Z</time>
      </trkpt>
      <trkpt lat="45.76353" lon="4.8395">
        <ele>172.93123</ele>
        <time>2023-07-11T09:39:26.000Z</time>
      </trkpt>
      <trkpt lat="45.76353" lon="4.83957">
        <ele>172.95172</ele>
        <time>2023-07-11T09:39:27.000Z</time>
      </trkpt>
      <trkpt lat="45.76354" lon="4.83964">
        <ele>172.97049</ele>
        <time>2023-07-11T09:39:28.000Z</time>
      </trkpt>
      <trkpt lat="45.76354" lon="4.83971">
        <ele>172.98531</ele>
        <time>2023-07-11T09:39:29.000Z</time>
      </trkpt>
      <trkpt lat="45.76353" lon="4.8398">
        <ele>173.03278</ele>
        <time>2023-07-11T09:39:30.000Z</time>
      </trkpt>
      <trkpt lat="45.76353" lon="4.83989">
        <ele>173.09389</ele>
        <time>2023-07-11T09:39:31.000Z</time>
      </trkpt>
      <trkpt lat="45.76353" lon="4.83997">
        <ele>173.1236</ele>
        <time>2023-07-11T09:39:32.000Z</time>
      </trkpt>
      <trkpt lat="45.76353" lon="4.84003">
        <ele>173.14078</ele>
        <time>2023-07-11T09:39:33.000Z</time>
      </trkpt>
      <trkpt lat="45.76352" lon="4.84011">
        <ele>173.1944</ele>
        <time>2023-07-11T09:39:34.000Z</time>
      </trkpt>
      <trkpt lat="45.76353" lon="4.84019">
        <ele>173.24619</ele>
        <time>2023-07-11T09:39:35.000Z</time>
      </trkpt>
      <trkpt lat="45.76353" lon="4.84026">
        <ele>173.25235</ele>
        <time>2023-07-11T09:39:36.000Z</time>
      </trkpt>
      <trkpt lat="45.76353" lon="4.84034">
        <ele>173.27058</ele>
        <time>2023-07-11T09:39:37.000Z</time>
      </trkpt>
      <trkpt lat="45.76352" lon="4.84042">
        <ele>173.23813</ele>
        <time>2023-07-11T09:39:38.000Z</time>
      </trkpt>
      <trkpt lat="45.76352" lon="4.8405">
        <ele>173.19533</ele>
        <time>2023-07-11T09:39:39.000Z</time>
      </trkpt>
      <trkpt lat="45.76353" lon="4.84058">
        <ele>173.16772</ele>
        <time>2023-07-11T09:39:40.000Z</time>
      </trkpt>
      <trkpt lat="45.76353" lon="4.84066">
        <ele>173.15714</ele>
        <time>2023-07-11T09:39:41.000Z</time>
      </trkpt>
      <trkpt lat="45.76353" lon="4.84074">
        <ele>173.16208</ele>
        <time>2023-07-11T09:39:42.000Z</time>
      </trkpt>
      <trkpt lat="45.76352" lon="4.84082">
        <ele>173.22134</ele>
        <time>2023-07-11T09:39:43.000Z</time>
      </trkpt>
      <trkpt lat="45.76352" lon="4.84089">
        <ele>173.30014</ele>
        <time>2023-07-11T09:39:44.000Z</time>
      </trkpt>
      <trkpt lat="45.76352" lon="4.84096">
        <ele>173.39252</ele>
        <time>2023-07-11T09:39:45.000Z</time>
      </trkpt>
      <trkpt lat="45.76352" lon="4.84103">
        <ele>173.46202</ele>
        <time>2023-07-11T09:39:46.000Z</time>
      </trkpt>
      <trkpt lat="45.76353" lon="4.84109">
        <ele>173.52187</ele>
        <time>2023-07-11T09:39:47.000Z</time>
      </trkpt>
      <trkpt lat="45.76354" lon="4.84115">
        <ele>173.57887</ele>
        <time>2023-07-11T09:39:48.000Z</time>
      </trkpt>
      <trkpt lat="45.76356" lon="4.8412">
        <ele>173.62576</ele>
        <time>2023-07-11T09:39:49.000Z</time>
      </trkpt>
      <trkpt lat="45.76359" lon="4.84123">
        <ele>173.61935</ele>
        <time>2023-07-11T09:39:50.000Z</time>
      </trkpt>
      <trkpt lat="45.76363" lon="4.84124">
        <ele>173.58257</ele>
        <time>2023-07-11T09:39:51.000Z</time>
      </trkpt>
      <trkpt lat="45.76368" lon="4.84124">
        <ele>173.5778</ele>
        <time>2023-07-11T09:39:52.000Z</time>
      </trkpt>
      <trkpt lat="45.76373" lon="4.84123">
        <ele>173.55803</ele>
        <time>2023-07-11T09:39:53.000Z</time>
      </trkpt>
      <trkpt lat="45.76376" lon="4.84122">
        <ele>173.52895</ele>
        <time>2023-07-11T09:39:54.000Z</time>
      </trkpt>
      <trkpt lat="45.7638" lon="4.84122">
        <ele>173.48044</ele>
        <time>2023-07-11T09:39:55.000Z</time>
      </trkpt>
      <trkpt lat="45.76386" lon="4.84121">
        <ele>173.4735</ele>
        <time>2023-07-11T09:39:56.000Z</time>
      </trkpt>
      <trkpt lat="45.76391" lon="4.84121">
        <ele>173.43472</ele>
        <time>2023-07-11T09:39:57.000Z</time>
      </trkpt>
      <trkpt lat="45.76395" lon="4.84122">
        <ele>173.43633</ele>
        <time>2023-07-11T09:39:58.000Z</time>
      </trkpt>
      <trkpt lat="45.764" lon="4.84122">
        <ele>173.42522</ele>
        <time>2023-07-11T09:39:59.000Z</time>
      </trkpt>
      <trkpt lat="45.76405" lon="4.84124">
        <ele>173.31685</ele>
        <time>2023-07-11T09:40:00.000Z</time>
      </trkpt>
      <trkpt lat="45.76408" lon="4.84124">
        <ele>173.21277</ele>
        <time>2023-07-11T09:40:01.000Z</time>
      </trkpt>
      <trkpt lat="45.76412" lon="4.84124">
        <ele>173.03885</ele>
        <time>2023-07-11T09:40:02.000Z</time>
      </trkpt>
      <trkpt lat="45.76414" lon="4.84124">
        <ele>172.84811</ele>
        <time>2023-07-11T09:40:03.000Z</time>
      </trkpt>
      <trkpt lat="45.76417" lon="4.84124">
        <ele>172.6481</ele>
        <time>2023-07-11T09:40:04.000Z</time>
      </trkpt>
      <trkpt lat="45.76422" lon="4.84125">
        <ele>172.41412</ele>
        <time>2023-07-11T09:40:05.000Z</time>
      </trkpt>
      <trkpt lat="45.76425" lon="4.84126">
        <ele>172.18269</ele>
        <time>2023-07-11T09:40:06.000Z</time>
      </trkpt>
      <trkpt lat="45.76429" lon="4.84126">
        <ele>171.94287</ele>
        <time>2023-07-11T09:40:07.000Z</time>
      </trkpt>
      <trkpt lat="45.76433" lon="4.84125">
        <ele>171.68365</ele>
        <time>2023-07-11T09:40:08.000Z</time>
      </trkpt>
      <trkpt lat="45.76438" lon="4.84124">
        <ele>171.41934</ele>
        <time>2023-07-11T09:40:09.000Z</time>
      </trkpt>
      <trkpt lat="45.76443" lon="4.84123">
        <ele>171.20024</ele>
        <time>2023-07-11T09:40:10.000Z</time>
      </trkpt>
      <trkpt lat="45.76447" lon="4.84125">
        <ele>170.98337</ele>
        <time>2023-07-11T09:40:11.000Z</time>
      </trkpt>
      <trkpt lat="45.76453" lon="4.84125">
        <ele>170.73943</ele>
        <time>2023-07-11T09:40:12.000Z</time>
      </trkpt>
      <trkpt lat="45.76457" lon="4.84125">
        <ele>170.53331</ele>
        <time>2023-07-11T09:40:13.000Z</time>
      </trkpt>
      <trkpt lat="45.76461" lon="4.84126">
        <ele>170.31654</ele>
        <time>2023-07-11T09:40:15.000Z</time>
      </trkpt>
      <trkpt lat="45.76463" lon="4.84126">
        <ele>170.09084</ele>
        <time>2023-07-11T09:40:16.000Z</time>
      </trkpt>
      <trkpt lat="45.76467" lon="4.84126">
        <ele>169.87228</ele>
        <time>2023-07-11T09:40:18.000Z</time>
      </trkpt>
      <trkpt lat="45.76471" lon="4.84126">
        <ele>169.67484</ele>
        <time>2023-07-11T09:40:19.000Z</time>
      </trkpt>
      <trkpt lat="45.76475" lon="4.84126">
        <ele>169.46828</ele>
        <time>2023-07-11T09:40:20.000Z</time>
      </trkpt>
      <trkpt lat="45.76478" lon="4.84126">
        <ele>169.37833</ele>
        <time>2023-07-11T09:40:21.000Z</time>
      </trkpt>
      <trkpt lat="45.76482" lon="4.84126">
        <ele>169.31923</ele>
        <time>2023-07-11T09:40:22.000Z</time>
      </trkpt>
      <trkpt lat="45.76486" lon="4.84126">
        <ele>169.25122</ele>
        <time>2023-07-11T09:40:23.000Z</time>
      </trkpt>
      <trkpt lat="45.76491" lon="4.84126">
        <ele>169.26202</ele>
        <time>2023-07-11T09:40:24.000Z</time>
      </trkpt>
      <trkpt lat="45.76495" lon="4.84126">
        <ele>169.31262</ele>
        <time>2023-07-11T09:40:25.000Z</time>
      </trkpt>
      <trkpt lat="45.76499" lon="4.84126">
        <ele>169.3542</ele>
        <time>2023-07-11T09:40:26.000Z</time>
      </trkpt>
      <trkpt lat="45.76503" lon="4.84127">
        <ele>169.39487</ele>
        <time>2023-07-11T09:40:27.000Z</time>
      </trkpt>
      <trkpt lat="45.76507" lon="4.84128">
        <ele>169.45361</ele>
        <time>2023-07-11T09:40:28.000Z</time>
      </trkpt>
      <trkpt lat="45.76511" lon="4.84128">
        <ele>169.50461</ele>
        <time>2023-07-11T09:40:29.000Z</time>
      </trkpt>
      <trkpt lat="45.76516" lon="4.84128">
        <ele>169.60072</ele>
        <time>2023-07-11T09:40:30.000Z</time>
      </trkpt>
      <trkpt lat="45.7652" lon="4.84128">
        <ele>169.7269</ele>
        <time>2023-07-11T09:40:31.000Z</time>
      </trkpt>
      <trkpt lat="45.76523" lon="4.84128">
        <ele>169.84998</ele>
        <time>2023-07-11T09:40:32.000Z</time>
      </trkpt>
      <trkpt lat="45.76527" lon="4.84129">
        <ele>169.86093</ele>
        <time>2023-07-11T09:40:33.000Z</time>
      </trkpt>
      <trkpt lat="45.7653" lon="4.8413">
        <ele>169.86821</ele>
        <time>2023-07-11T09:40:34.000Z</time>
      </trkpt>
      <trkpt lat="45.76534" lon="4.84131">
        <ele>169.86197</ele>
        <time>2023-07-11T09:40:35.000Z</time>
      </trkpt>
      <trkpt lat="45.76539" lon="4.84131">
        <ele>169.88895</ele>
        <time>2023-07-11T09:40:36.000Z</time>
      </trkpt>
      <trkpt lat="45.76544" lon="4.84131">
        <ele>169.93402</ele>
        <time>2023-07-11T09:40:37.000Z</time>
      </trkpt>
      <trkpt lat="45.76548" lon="4.84132">
        <ele>169.94278</ele>
        <time>2023-07-11T09:40:38.000Z</time>
      </trkpt>
      <trkpt lat="45.76553" lon="4.84132">
        <ele>169.9575</ele>
        <time>2023-07-11T09:40:39.000Z</time>
      </trkpt>
      <trkpt lat="45.76557" lon="4.84132">
        <ele>169.95306</ele>
        <time>2023-07-11T09:40:40.000Z</time>
      </trkpt>
      <trkpt lat="45.76561" lon="4.84132">
        <ele>169.8252</ele>
        <time>2023-07-11T09:40:41.000Z</time>
      </trkpt>
      <trkpt lat="45.76565" lon="4.84132">
        <ele>169.7683</ele>
        <time>2023-07-11T09:40:42.000Z</time>
      </trkpt>
      <trkpt lat="45.76569" lon="4.84133">
        <ele>169.68573</ele>
        <time>2023-07-11T09:40:43.000Z</time>
      </trkpt>
      <trkpt lat="45.76573" lon="4.84134">
        <ele>169.61435</ele>
        <time>2023-07-11T09:40:44.000Z</time>
      </trkpt>
      <trkpt lat="45.76578" lon="4.84135">
        <ele>169.51328</ele>
        <time>2023-07-11T09:40:45.000Z</time>
      </trkpt>
      <trkpt lat="45.76582" lon="4.84136">
        <ele>169.42035</ele>
        <time>2023-07-11T09:40:46.000Z</time>
      </trkpt>
      <trkpt lat="45.76586" lon="4.84135">
        <ele>169.35461</ele>
        <time>2023-07-11T09:40:47.000Z</time>
      </trkpt>
      <trkpt lat="45.76589" lon="4.84134">
        <ele>169.2655</ele>
        <time>2023-07-11T09:40:48.000Z</time>
      </trkpt>
      <trkpt lat="45.76592" lon="4.84134">
        <ele>169.17764</ele>
        <time>2023-07-11T09:40:49.000Z</time>
      </trkpt>
      <trkpt lat="45.76596" lon="4.84134">
        <ele>169.07906</ele>
        <time>2023-07-11T09:40:50.000Z</time>
      </trkpt>
      <trkpt lat="45.766" lon="4.84135">
        <ele>168.96437</ele>
        <time>2023-07-11T09:40:51.000Z</time>
      </trkpt>
      <trkpt lat="45.76604" lon="4.84135">
        <ele>168.84567</ele>
        <time>2023-07-11T09:40:52.000Z</time>
      </trkpt>
      <trkpt lat="45.76609" lon="4.84131">
        <ele>168.83873</ele>
        <time>2023-07-11T09:40:53.000Z</time>
      </trkpt>
      <trkpt lat="45.76613" lon="4.84129">
        <ele>168.85033</ele>
        <time>2023-07-11T09:40:54.000Z</time>
      </trkpt>
      <trkpt lat="45.76619" lon="4.84126">
        <ele>168.93205</ele>
        <time>2023-07-11T09:40:55.000Z</time>
      </trkpt>
      <trkpt lat="45.76624" lon="4.84125">
        <ele>169.01187</ele>
        <time>2023-07-11T09:40:56.000Z</time>
      </trkpt>
      <trkpt lat="45.7663" lon="4.84125">
        <ele>169.07869</ele>
        <time>2023-07-11T09:40:57.000Z</time>
      </trkpt>
      <trkpt lat="45.76633" lon="4.84125">
        <ele>169.17059</ele>
        <time>2023-07-11T09:40:58.000Z</time>
      </trkpt>
      <trkpt lat="45.76639" lon="4.84125">
        <ele>169.23813</ele>
        <time>2023-07-11T09:40:59.000Z</time>
      </trkpt>
      <trkpt lat="45.76645" lon="4.84122">
        <ele>169.33809</ele>
        <time>2023-07-11T09:41:00.000Z</time>
      </trkpt>
      <trkpt lat="45.76651" lon="4.84122">
        <ele>169.44707</ele>
        <time>2023-07-11T09:41:01.000Z</time>
      </trkpt>
      <trkpt lat="45.76657" lon="4.8412">
        <ele>169.56607</ele>
        <time>2023-07-11T09:41:02.000Z</time>
      </trkpt>
      <trkpt lat="45.76661" lon="4.84121">
        <ele>169.6799</ele>
        <time>2023-07-11T09:41:03.000Z</time>
      </trkpt>
      <trkpt lat="45.76665" lon="4.84119">
        <ele>169.75052</ele>
        <time>2023-07-11T09:41:04.000Z</time>
      </trkpt>
      <trkpt lat="45.76672" lon="4.84119">
        <ele>169.82596</ele>
        <time>2023-07-11T09:41:05.000Z</time>
      </trkpt>
      <trkpt lat="45.76676" lon="4.84119">
        <ele>169.91556</ele>
        <time>2023-07-11T09:41:06.000Z</time>
      </trkpt>
      <trkpt lat="45.76681" lon="4.84119">
        <ele>169.9787</ele>
        <time>2023-07-11T09:41:07.000Z</time>
      </trkpt>
      <trkpt lat="45.76685" lon="4.84118">
        <ele>170.06509</ele>
        <time>2023-07-11T09:41:08.000Z</time>
      </trkpt>
      <trkpt lat="45.76688" lon="4.84117">
        <ele>170.18735</ele>
        <time>2023-07-11T09:41:09.000Z</time>
      </trkpt>
      <trkpt lat="45.76692" lon="4.84115">
        <ele>170.30255</ele>
        <time>2023-07-11T09:41:10.000Z</time>
      </trkpt>
      <trkpt lat="45.76696" lon="4.84111">
        <ele>170.41864</ele>
        <time>2023-07-11T09:41:11.000Z</time>
      </trkpt>
      <trkpt lat="45.767" lon="4.84108">
        <ele>170.56052</ele>
        <time>2023-07-11T09:41:12.000Z</time>
      </trkpt>
      <trkpt lat="45.76704" lon="4.84107">
        <ele>170.68472</ele>
        <time>2023-07-11T09:41:13.000Z</time>
      </trkpt>
      <trkpt lat="45.76708" lon="4.84104">
        <ele>170.81142</ele>
        <time>2023-07-11T09:41:14.000Z</time>
      </trkpt>
      <trkpt lat="45.76713" lon="4.84102">
        <ele>170.8878</ele>
        <time>2023-07-11T09:41:15.000Z</time>
      </trkpt>
      <trkpt lat="45.76719" lon="4.84101">
        <ele>170.95256</ele>
        <time>2023-07-11T09:41:16.000Z</time>
      </trkpt>
      <trkpt lat="45.76725" lon="4.84099">
        <ele>170.99382</ele>
        <time>2023-07-11T09:41:17.000Z</time>
      </trkpt>
      <trkpt lat="45.76732" lon="4.84096">
        <ele>171.00589</ele>
        <time>2023-07-11T09:41:18.000Z</time>
      </trkpt>
      <trkpt lat="45.76739" lon="4.84095">
        <ele>170.97835</ele>
        <time>2023-07-11T09:41:19.000Z</time>
      </trkpt>
      <trkpt lat="45.76748" lon="4.84092">
        <ele>170.91537</ele>
        <time>2023-07-11T09:41:20.000Z</time>
      </trkpt>
      <trkpt lat="45.76755" lon="4.8409">
        <ele>170.85289</ele>
        <time>2023-07-11T09:41:21.000Z</time>
      </trkpt>
      <trkpt lat="45.76763" lon="4.84088">
        <ele>170.75644</ele>
        <time>2023-07-11T09:41:22.000Z</time>
      </trkpt>
      <trkpt lat="45.7677" lon="4.84085">
        <ele>170.64835</ele>
        <time>2023-07-11T09:41:23.000Z</time>
      </trkpt>
      <trkpt lat="45.76777" lon="4.84082">
        <ele>170.54037</ele>
        <time>2023-07-11T09:41:24.000Z</time>
      </trkpt>
      <trkpt lat="45.76784" lon="4.84078">
        <ele>170.44504</ele>
        <time>2023-07-11T09:41:25.000Z</time>
      </trkpt>
      <trkpt lat="45.76791" lon="4.84076">
        <ele>170.30685</ele>
        <time>2023-07-11T09:41:26.000Z</time>
      </trkpt>
      <trkpt lat="45.76798" lon="4.84073">
        <ele>170.17867</ele>
        <time>2023-07-11T09:41:27.000Z</time>
      </trkpt>
      <trkpt lat="45.76805" lon="4.84073">
        <ele>170.05391</ele>
        <time>2023-07-11T09:41:28.000Z</time>
      </trkpt>
      <trkpt lat="45.76812" lon="4.84073">
        <ele>169.88684</ele>
        <time>2023-07-11T09:41:29.000Z</time>
      </trkpt>
      <trkpt lat="45.76819" lon="4.84072">
        <ele>169.72635</ele>
        <time>2023-07-11T09:41:30.000Z</time>
      </trkpt>
      <trkpt lat="45.76825" lon="4.84071">
        <ele>169.54079</ele>
        <time>2023-07-11T09:41:31.000Z</time>
      </trkpt>
      <trkpt lat="45.76832" lon="4.84071">
        <ele>169.32378</ele>
        <time>2023-07-11T09:41:32.000Z</time>
      </trkpt>
      <trkpt lat="45.76839" lon="4.84071">
        <ele>169.10959</ele>
        <time>2023-07-11T09:41:33.000Z</time>
      </trkpt>
      <trkpt lat="45.76845" lon="4.8407">
        <ele>168.91196</ele>
        <time>2023-07-11T09:41:34.000Z</time>
      </trkpt>
      <trkpt lat="45.76851" lon="4.84069">
        <ele>168.76848</ele>
        <time>2023-07-11T09:41:35.000Z</time>
      </trkpt>
      <trkpt lat="45.76858" lon="4.84068">
        <ele>168.65048</ele>
        <time>2023-07-11T09:41:36.000Z</time>
      </trkpt>
      <trkpt lat="45.76864" lon="4.84068">
        <ele>168.56604</ele>
        <time>2023-07-11T09:41:37.000Z</time>
      </trkpt>
      <trkpt lat="45.76871" lon="4.84069">
        <ele>168.50659</ele>
        <time>2023-07-11T09:41:38.000Z</time>
      </trkpt>
      <trkpt lat="45.76876" lon="4.84066">
        <ele>168.53018</ele>
        <time>2023-07-11T09:41:39.000Z</time>
      </trkpt>
      <trkpt lat="45.76883" lon="4.84065">
        <ele>168.58951</ele>
        <time>2023-07-11T09:41:40.000Z</time>
      </trkpt>
      <trkpt lat="45.76888" lon="4.84065">
        <ele>168.59561</ele>
        <time>2023-07-11T09:41:41.000Z</time>
      </trkpt>
      <trkpt lat="45.76895" lon="4.84065">
        <ele>168.63681</ele>
        <time>2023-07-11T09:41:42.000Z</time>
      </trkpt>
      <trkpt lat="45.76902" lon="4.84064">
        <ele>168.74893</ele>
        <time>2023-07-11T09:41:43.000Z</time>
      </trkpt>
      <trkpt lat="45.76908" lon="4.84064">
        <ele>168.88068</ele>
        <time>2023-07-11T09:41:44.000Z</time>
      </trkpt>
      <trkpt lat="45.76915" lon="4.84064">
        <ele>169.02133</ele>
        <time>2023-07-11T09:41:45.000Z</time>
      </trkpt>
      <trkpt lat="45.76922" lon="4.84065">
        <ele>169.15726</ele>
        <time>2023-07-11T09:41:46.000Z</time>
      </trkpt>
      <trkpt lat="45.76929" lon="4.84065">
        <ele>169.28973</ele>
        <time>2023-07-11T09:41:47.000Z</time>
      </trkpt>
      <trkpt lat="45.76935" lon="4.84066">
        <ele>169.37688</ele>
        <time>2023-07-11T09:41:48.000Z</time>
      </trkpt>
      <trkpt lat="45.76942" lon="4.84066">
        <ele>169.47144</ele>
        <time>2023-07-11T09:41:49.000Z</time>
      </trkpt>
      <trkpt lat="45.76948" lon="4.84065">
        <ele>169.57597</ele>
        <time>2023-07-11T09:41:50.000Z</time>
      </trkpt>
      <trkpt lat="45.76954" lon="4.84065">
        <ele>169.69255</ele>
        <time>2023-07-11T09:41:51.000Z</time>
      </trkpt>
      <trkpt lat="45.76962" lon="4.84064">
        <ele>169.77969</ele>
        <time>2023-07-11T09:41:52.000Z</time>
      </trkpt>
      <trkpt lat="45.76968" lon="4.84065">
        <ele>169.88797</ele>
        <time>2023-07-11T09:41:53.000Z</time>
      </trkpt>
      <trkpt lat="45.76975" lon="4.84065">
        <ele>169.96408</ele>
        <time>2023-07-11T09:41:54.000Z</time>
      </trkpt>
      <trkpt lat="45.76982" lon="4.84065">
        <ele>169.95906</ele>
        <time>2023-07-11T09:41:55.000Z</time>
      </trkpt>
      <trkpt lat="45.76988" lon="4.84065">
        <ele>169.95125</ele>
        <time>2023-07-11T09:41:56.000Z</time>
      </trkpt>
      <trkpt lat="45.76995" lon="4.84065">
        <ele>169.95367</ele>
        <time>2023-07-11T09:41:57.000Z</time>
      </trkpt>
      <trkpt lat="45.77002" lon="4.84064">
        <ele>169.94611</ele>
        <time>2023-07-11T09:41:58.000Z</time>
      </trkpt>
      <trkpt lat="45.77008" lon="4.84065">
        <ele>169.93103</ele>
        <time>2023-07-11T09:41:59.000Z</time>
      </trkpt>
      <trkpt lat="45.77015" lon="4.84065">
        <ele>169.91232</ele>
        <time>2023-07-11T09:42:00.000Z</time>
      </trkpt>
      <trkpt lat="45.77021" lon="4.84065">
        <ele>169.94527</ele>
        <time>2023-07-11T09:42:01.000Z</time>
      </trkpt>
      <trkpt lat="45.77027" lon="4.84065">
        <ele>169.94904</ele>
        <time>2023-07-11T09:42:02.000Z</time>
      </trkpt>
      <trkpt lat="45.77033" lon="4.84066">
        <ele>169.90184</ele>
        <time>2023-07-11T09:42:03.000Z</time>
      </trkpt>
      <trkpt lat="45.77039" lon="4.84066">
        <ele>169.84955</ele>
        <time>2023-07-11T09:42:04.000Z</time>
      </trkpt>
      <trkpt lat="45.77045" lon="4.84066">
        <ele>169.79402</ele>
        <time>2023-07-11T09:42:05.000Z</time>
      </trkpt>
      <trkpt lat="45.77051" lon="4.84066">
        <ele>169.77243</ele>
        <time>2023-07-11T09:42:06.000Z</time>
      </trkpt>
      <trkpt lat="45.77056" lon="4.84066">
        <ele>169.7352</ele>
        <time>2023-07-11T09:42:07.000Z</time>
      </trkpt>
      <trkpt lat="45.77063" lon="4.84067">
        <ele>169.74065</ele>
        <time>2023-07-11T09:42:08.000Z</time>
      </trkpt>
      <trkpt lat="45.77068" lon="4.84065">
        <ele>169.76881</ele>
        <time>2023-07-11T09:42:09.000Z</time>
      </trkpt>
      <trkpt lat="45.77074" lon="4.84065">
        <ele>169.7886</ele>
        <time>2023-07-11T09:42:10.000Z</time>
      </trkpt>
      <trkpt lat="45.7708" lon="4.84065">
        <ele>169.83102</ele>
        <time>2023-07-11T09:42:11.000Z</time>
      </trkpt>
      <trkpt lat="45.77086" lon="4.84065">
        <ele>169.92001</ele>
        <time>2023-07-11T09:42:12.000Z</time>
      </trkpt>
      <trkpt lat="45.77092" lon="4.84065">
        <ele>170.02324</ele>
        <time>2023-07-11T09:42:13.000Z</time>
      </trkpt>
      <trkpt lat="45.77099" lon="4.84067">
        <ele>170.11795</ele>
        <time>2023-07-11T09:42:14.000Z</time>
      </trkpt>
      <trkpt lat="45.77105" lon="4.84067">
        <ele>170.22469</ele>
        <time>2023-07-11T09:42:15.000Z</time>
      </trkpt>
      <trkpt lat="45.77111" lon="4.84068">
        <ele>170.30957</ele>
        <time>2023-07-11T09:42:16.000Z</time>
      </trkpt>
      <trkpt lat="45.77117" lon="4.84068">
        <ele>170.40634</ele>
        <time>2023-07-11T09:42:17.000Z</time>
      </trkpt>
      <trkpt lat="45.77124" lon="4.84068">
        <ele>170.50356</ele>
        <time>2023-07-11T09:42:18.000Z</time>
      </trkpt>
      <trkpt lat="45.7713" lon="4.84069">
        <ele>170.59184</ele>
        <time>2023-07-11T09:42:19.000Z</time>
      </trkpt>
      <trkpt lat="45.77136" lon="4.84069">
        <ele>170.65193</ele>
        <time>2023-07-11T09:42:20.000Z</time>
      </trkpt>
      <trkpt lat="45.77142" lon="4.84069">
        <ele>170.71791</ele>
        <time>2023-07-11T09:42:21.000Z</time>
      </trkpt>
      <trkpt lat="45.77149" lon="4.84069">
        <ele>170.72588</ele>
        <time>2023-07-11T09:42:22.000Z</time>
      </trkpt>
      <trkpt lat="45.77155" lon="4.8407">
        <ele>170.78409</ele>
        <time>2023-07-11T09:42:23.000Z</time>
      </trkpt>
      <trkpt lat="45.77162" lon="4.84069">
        <ele>170.83446</ele>
        <time>2023-07-11T09:42:24.000Z</time>
      </trkpt>
      <trkpt lat="45.77167" lon="4.84067">
        <ele>170.88168</ele>
        <time>2023-07-11T09:42:25.000Z</time>
      </trkpt>
      <trkpt lat="45.77173" lon="4.84067">
        <ele>170.93919</ele>
        <time>2023-07-11T09:42:26.000Z</time>
      </trkpt>
      <trkpt lat="45.77179" lon="4.84069">
        <ele>171.03972</ele>
        <time>2023-07-11T09:42:27.000Z</time>
      </trkpt>
      <trkpt lat="45.77185" lon="4.8407">
        <ele>171.12476</ele>
        <time>2023-07-11T09:42:28.000Z</time>
      </trkpt>
      <trkpt lat="45.77191" lon="4.8407">
        <ele>171.18703</ele>
        <time>2023-07-11T09:42:29.000Z</time>
      </trkpt>
      <trkpt lat="45.77197" lon="4.8407">
        <ele>171.2077</ele>
        <time>2023-07-11T09:42:30.000Z</time>
      </trkpt>
      <trkpt lat="45.77203" lon="4.8407">
        <ele>171.17723</ele>
        <time>2023-07-11T09:42:31.000Z</time>
      </trkpt>
      <trkpt lat="45.77209" lon="4.8407">
        <ele>171.16916</ele>
        <time>2023-07-11T09:42:32.000Z</time>
      </trkpt>
      <trkpt lat="45.77215" lon="4.8407">
        <ele>171.14978</ele>
        <time>2023-07-11T09:42:33.000Z</time>
      </trkpt>
      <trkpt lat="45.7722" lon="4.84071">
        <ele>171.16345</ele>
        <time>2023-07-11T09:42:34.000Z</time>
      </trkpt>
      <trkpt lat="45.77225" lon="4.84072">
        <ele>171.17967</ele>
        <time>2023-07-11T09:42:35.000Z</time>
      </trkpt>
      <trkpt lat="45.77232" lon="4.84073">
        <ele>171.20351</ele>
        <time>2023-07-11T09:42:36.000Z</time>
      </trkpt>
      <trkpt lat="45.77238" lon="4.84076">
        <ele>171.24855</ele>
        <time>2023-07-11T09:42:37.000Z</time>
      </trkpt>
      <trkpt lat="45.77245" lon="4.84076">
        <ele>171.20645</ele>
        <time>2023-07-11T09:42:38.000Z</time>
      </trkpt>
      <trkpt lat="45.77251" lon="4.84075">
        <ele>171.17947</ele>
        <time>2023-07-11T09:42:39.000Z</time>
      </trkpt>
      <trkpt lat="45.77258" lon="4.84078">
        <ele>171.16054</ele>
        <time>2023-07-11T09:42:40.000Z</time>
      </trkpt>
      <trkpt lat="45.77264" lon="4.84079">
        <ele>171.13008</ele>
        <time>2023-07-11T09:42:41.000Z</time>
      </trkpt>
      <trkpt lat="45.77271" lon="4.8408">
        <ele>171.1539</ele>
        <time>2023-07-11T09:42:42.000Z</time>
      </trkpt>
      <trkpt lat="45.77278" lon="4.84082">
        <ele>171.14209</ele>
        <time>2023-07-11T09:42:43.000Z</time>
      </trkpt>
      <trkpt lat="45.77284" lon="4.84085">
        <ele>171.13255</ele>
        <time>2023-07-11T09:42:44.000Z</time>
      </trkpt>
      <trkpt lat="45.77289" lon="4.84088">
        <ele>171.09769</ele>
        <time>2023-07-11T09:42:45.000Z</time>
      </trkpt>
      <trkpt lat="45.77295" lon="4.84092">
        <ele>171.03653</ele>
        <time>2023-07-11T09:42:46.000Z</time>
      </trkpt>
      <trkpt lat="45.77301" lon="4.84096">
        <ele>170.96234</ele>
        <time>2023-07-11T09:42:47.000Z</time>
      </trkpt>
      <trkpt lat="45.77307" lon="4.84099">
        <ele>170.88113</ele>
        <time>2023-07-11T09:42:48.000Z</time>
      </trkpt>
      <trkpt lat="45.77313" lon="4.84103">
        <ele>170.81195</ele>
        <time>2023-07-11T09:42:49.000Z</time>
      </trkpt>
      <trkpt lat="45.77318" lon="4.84107">
        <ele>170.76639</ele>
        <time>2023-07-11T09:42:50.000Z</time>
      </trkpt>
      <trkpt lat="45.77324" lon="4.84111">
        <ele>170.76385</ele>
        <time>2023-07-11T09:42:51.000Z</time>
      </trkpt>
      <trkpt lat="45.7733" lon="4.84115">
        <ele>170.73705</ele>
        <time>2023-07-11T09:42:52.000Z</time>
      </trkpt>
      <trkpt lat="45.77336" lon="4.84118">
        <ele>170.70079</ele>
        <time>2023-07-11T09:42:53.000Z</time>
      </trkpt>
      <trkpt lat="45.77341" lon="4.84123">
        <ele>170.64304</ele>
        <time>2023-07-11T09:42:54.000Z</time>
      </trkpt>
      <trkpt lat="45.77347" lon="4.84127">
        <ele>170.58792</ele>
        <time>2023-07-11T09:42:55.000Z</time>
      </trkpt>
      <trkpt lat="45.77352" lon="4.8413">
        <ele>170.53252</ele>
        <time>2023-07-11T09:42:56.000Z</time>
      </trkpt>
      <trkpt lat="45.77358" lon="4.84134">
        <ele>170.4389</ele>
        <time>2023-07-11T09:42:57.000Z</time>
      </trkpt>
      <trkpt lat="45.77363" lon="4.84137">
        <ele>170.40836</ele>
        <time>2023-07-11T09:42:58.000Z</time>
      </trkpt>
      <trkpt lat="45.77369" lon="4.84141">
        <ele>170.35275</ele>
        <time>2023-07-11T09:42:59.000Z</time>
      </trkpt>
      <trkpt lat="45.77374" lon="4.84144">
        <ele>170.29361</ele>
        <time>2023-07-11T09:43:00.000Z</time>
      </trkpt>
      <trkpt lat="45.77379" lon="4.84147">
        <ele>170.32544</ele>
        <time>2023-07-11T09:43:01.000Z</time>
      </trkpt>
      <trkpt lat="45.77384" lon="4.84152">
        <ele>170.31879</ele>
        <time>2023-07-11T09:43:02.000Z</time>
      </trkpt>
      <trkpt lat="45.7739" lon="4.84156">
        <ele>170.34901</ele>
        <time>2023-07-11T09:43:03.000Z</time>
      </trkpt>
      <trkpt lat="45.77395" lon="4.8416">
        <ele>170.37465</ele>
        <time>2023-07-11T09:43:04.000Z</time>
      </trkpt>
      <trkpt lat="45.77399" lon="4.84165">
        <ele>170.36511</ele>
        <time>2023-07-11T09:43:05.000Z</time>
      </trkpt>
      <trkpt lat="45.77405" lon="4.84168">
        <ele>170.38048</ele>
        <time>2023-07-11T09:43:06.000Z</time>
      </trkpt>
      <trkpt lat="45.77411" lon="4.84172">
        <ele>170.40364</ele>
        <time>2023-07-11T09:43:07.000Z</time>
      </trkpt>
      <trkpt lat="45.77416" lon="4.84176">
        <ele>170.40514</ele>
        <time>2023-07-11T09:43:08.000Z</time>
      </trkpt>
      <trkpt lat="45.77422" lon="4.84181">
        <ele>170.39539</ele>
        <time>2023-07-11T09:43:09.000Z</time>
      </trkpt>
      <trkpt lat="45.77428" lon="4.84185">
        <ele>170.38736</ele>
        <time>2023-07-11T09:43:10.000Z</time>
      </trkpt>
      <trkpt lat="45.77434" lon="4.84188">
        <ele>170.41873</ele>
        <time>2023-07-11T09:43:11.000Z</time>
      </trkpt>
      <trkpt lat="45.77439" lon="4.84193">
        <ele>170.43137</ele>
        <time>2023-07-11T09:43:12.000Z</time>
      </trkpt>
      <trkpt lat="45.77445" lon="4.84197">
        <ele>170.35814</ele>
        <time>2023-07-11T09:43:13.000Z</time>
      </trkpt>
      <trkpt lat="45.77451" lon="4.84201">
        <ele>170.31927</ele>
        <time>2023-07-11T09:43:14.000Z</time>
      </trkpt>
      <trkpt lat="45.77457" lon="4.84206">
        <ele>170.25945</ele>
        <time>2023-07-11T09:43:15.000Z</time>
      </trkpt>
      <trkpt lat="45.77462" lon="4.8421">
        <ele>170.18089</ele>
        <time>2023-07-11T09:43:16.000Z</time>
      </trkpt>
      <trkpt lat="45.77467" lon="4.84214">
        <ele>170.05209</ele>
        <time>2023-07-11T09:43:17.000Z</time>
      </trkpt>
      <trkpt lat="45.77473" lon="4.84218">
        <ele>169.96931</ele>
        <time>2023-07-11T09:43:18.000Z</time>
      </trkpt>
      <trkpt lat="45.77479" lon="4.84223">
        <ele>169.90164</ele>
        <time>2023-07-11T09:43:19.000Z</time>
      </trkpt>
      <trkpt lat="45.77485" lon="4.84227">
        <ele>169.87552</ele>
        <time>2023-07-11T09:43:20.000Z</time>
      </trkpt>
      <trkpt lat="45.77491" lon="4.8423">
        <ele>169.76891</ele>
        <time>2023-07-11T09:43:21.000Z</time>
      </trkpt>
      <trkpt lat="45.77497" lon="4.84234">
        <ele>169.70476</ele>
        <time>2023-07-11T09:43:22.000Z</time>
      </trkpt>
      <trkpt lat="45.77503" lon="4.84238">
        <ele>169.62071</ele>
        <time>2023-07-11T09:43:23.000Z</time>
      </trkpt>
      <trkpt lat="45.77508" lon="4.84242">
        <ele>169.59911</ele>
        <time>2023-07-11T09:43:24.000Z</time>
      </trkpt>
      <trkpt lat="45.77514" lon="4.84246">
        <ele>169.6082</ele>
        <time>2023-07-11T09:43:25.000Z</time>
      </trkpt>
      <trkpt lat="45.77519" lon="4.84249">
        <ele>169.63197</ele>
        <time>2023-07-11T09:43:26.000Z</time>
      </trkpt>
      <trkpt lat="45.77525" lon="4.84253">
        <ele>169.64172</ele>
        <time>2023-07-11T09:43:27.000Z</time>
      </trkpt>
      <trkpt lat="45.77531" lon="4.84256">
        <ele>169.66458</ele>
        <time>2023-07-11T09:43:28.000Z</time>
      </trkpt>
      <trkpt lat="45.77538" lon="4.84261">
        <ele>169.70509</ele>
        <time>2023-07-11T09:43:29.000Z</time>
      </trkpt>
      <trkpt lat="45.77545" lon="4.84264">
        <ele>169.71811</ele>
        <time>2023-07-11T09:43:30.000Z</time>
      </trkpt>
      <trkpt lat="45.77549" lon="4.84267">
        <ele>169.66928</ele>
        <time>2023-07-11T09:43:31.000Z</time>
      </trkpt>
      <trkpt lat="45.77555" lon="4.8427">
        <ele>169.62744</ele>
        <time>2023-07-11T09:43:32.000Z</time>
      </trkpt>
      <trkpt lat="45.77561" lon="4.84275">
        <ele>169.68069</ele>
        <time>2023-07-11T09:43:33.000Z</time>
      </trkpt>
      <trkpt lat="45.77566" lon="4.84277">
        <ele>169.74948</ele>
        <time>2023-07-11T09:43:34.000Z</time>
      </trkpt>
      <trkpt lat="45.77571" lon="4.84283">
        <ele>169.77676</ele>
        <time>2023-07-11T09:43:35.000Z</time>
      </trkpt>
      <trkpt lat="45.77577" lon="4.84287">
        <ele>169.79478</ele>
        <time>2023-07-11T09:43:36.000Z</time>
      </trkpt>
      <trkpt lat="45.77583" lon="4.8429">
        <ele>169.87619</ele>
        <time>2023-07-11T09:43:37.000Z</time>
      </trkpt>
      <trkpt lat="45.77589" lon="4.84293">
        <ele>169.99142</ele>
        <time>2023-07-11T09:43:38.000Z</time>
      </trkpt>
      <trkpt lat="45.77594" lon="4.84297">
        <ele>170.09196</ele>
        <time>2023-07-11T09:43:39.000Z</time>
      </trkpt>
      <trkpt lat="45.776" lon="4.84301">
        <ele>170.17317</ele>
        <time>2023-07-11T09:43:40.000Z</time>
      </trkpt>
      <trkpt lat="45.77606" lon="4.84305">
        <ele>170.2506</ele>
        <time>2023-07-11T09:43:41.000Z</time>
      </trkpt>
      <trkpt lat="45.77612" lon="4.8431">
        <ele>170.27498</ele>
        <time>2023-07-11T09:43:42.000Z</time>
      </trkpt>
      <trkpt lat="45.77618" lon="4.84315">
        <ele>170.28799</ele>
        <time>2023-07-11T09:43:43.000Z</time>
      </trkpt>
      <trkpt lat="45.77624" lon="4.84319">
        <ele>170.2991</ele>
        <time>2023-07-11T09:43:44.000Z</time>
      </trkpt>
      <trkpt lat="45.77628" lon="4.84324">
        <ele>170.2933</ele>
        <time>2023-07-11T09:43:45.000Z</time>
      </trkpt>
      <trkpt lat="45.77634" lon="4.84327">
        <ele>170.30527</ele>
        <time>2023-07-11T09:43:46.000Z</time>
      </trkpt>
      <trkpt lat="45.7764" lon="4.84332">
        <ele>170.29526</ele>
        <time>2023-07-11T09:43:47.000Z</time>
      </trkpt>
      <trkpt lat="45.77645" lon="4.84335">
        <ele>170.31116</ele>
        <time>2023-07-11T09:43:48.000Z</time>
      </trkpt>
      <trkpt lat="45.77651" lon="4.84339">
        <ele>170.31473</ele>
        <time>2023-07-11T09:43:49.000Z</time>
      </trkpt>
      <trkpt lat="45.77656" lon="4.84342">
        <ele>170.30247</ele>
        <time>2023-07-11T09:43:50.000Z</time>
      </trkpt>
      <trkpt lat="45.77662" lon="4.84346">
        <ele>170.32697</ele>
        <time>2023-07-11T09:43:51.000Z</time>
      </trkpt>
      <trkpt lat="45.77668" lon="4.84349">
        <ele>170.37366</ele>
        <time>2023-07-11T09:43:52.000Z</time>
      </trkpt>
      <trkpt lat="45.77674" lon="4.84353">
        <ele>170.40765</ele>
        <time>2023-07-11T09:43:53.000Z</time>
      </trkpt>
      <trkpt lat="45.7768" lon="4.84357">
        <ele>170.43062</ele>
        <time>2023-07-11T09:43:54.000Z</time>
      </trkpt>
      <trkpt lat="45.77686" lon="4.84362">
        <ele>170.49498</ele>
        <time>2023-07-11T09:43:55.000Z</time>
      </trkpt>
      <trkpt lat="45.77692" lon="4.84365">
        <ele>170.60318</ele>
        <time>2023-07-11T09:43:56.000Z</time>
      </trkpt>
      <trkpt lat="45.77698" lon="4.84368">
        <ele>170.56226</ele>
        <time>2023-07-11T09:43:57.000Z</time>
      </trkpt>
      <trkpt lat="45.77702" lon="4.84371">
        <ele>170.45584</ele>
        <time>2023-07-11T09:43:58.000Z</time>
      </trkpt>
      <trkpt lat="45.77708" lon="4.84373">
        <ele>170.34105</ele>
        <time>2023-07-11T09:43:59.000Z</time>
      </trkpt>
      <trkpt lat="45.77714" lon="4.84375">
        <ele>170.2446</ele>
        <time>2023-07-11T09:44:00.000Z</time>
      </trkpt>
      <trkpt lat="45.77719" lon="4.84374">
        <ele>170.13968</ele>
        <time>2023-07-11T09:44:01.000Z</time>
      </trkpt>
      <trkpt lat="45.77724" lon="4.84372">
        <ele>170.06207</ele>
        <time>2023-07-11T09:44:02.000Z</time>
      </trkpt>
      <trkpt lat="45.7773" lon="4.8437">
        <ele>169.97134</ele>
        <time>2023-07-11T09:44:03.000Z</time>
      </trkpt>
      <trkpt lat="45.77736" lon="4.84368">
        <ele>169.83153</ele>
        <time>2023-07-11T09:44:04.000Z</time>
      </trkpt>
      <trkpt lat="45.77743" lon="4.84367">
        <ele>169.74797</ele>
        <time>2023-07-11T09:44:05.000Z</time>
      </trkpt>
      <trkpt lat="45.77748" lon="4.84366">
        <ele>169.62642</ele>
        <time>2023-07-11T09:44:06.000Z</time>
      </trkpt>
      <trkpt lat="45.77754" lon="4.84366">
        <ele>169.61649</ele>
        <time>2023-07-11T09:44:07.000Z</time>
      </trkpt>
      <trkpt lat="45.7776" lon="4.84364">
        <ele>169.46481</ele>
        <time>2023-07-11T09:44:08.000Z</time>
      </trkpt>
      <trkpt lat="45.77766" lon="4.84364">
        <ele>169.2916</ele>
        <time>2023-07-11T09:44:09.000Z</time>
      </trkpt>
      <trkpt lat="45.77772" lon="4.84363">
        <ele>169.18091</ele>
        <time>2023-07-11T09:44:10.000Z</time>
      </trkpt>
      <trkpt lat="45.77778" lon="4.84363">
        <ele>169.03183</ele>
        <time>2023-07-11T09:44:11.000Z</time>
      </trkpt>
      <trkpt lat="45.77784" lon="4.84364">
        <ele>168.83939</ele>
        <time>2023-07-11T09:44:12.000Z</time>
      </trkpt>
      <trkpt lat="45.7779" lon="4.84366">
        <ele>168.64189</ele>
        <time>2023-07-11T09:44:13.000Z</time>
      </trkpt>
      <trkpt lat="45.77797" lon="4.84368">
        <ele>168.41978</ele>
        <time>2023-07-11T09:44:14.000Z</time>
      </trkpt>
      <trkpt lat="45.77803" lon="4.84371">
        <ele>168.24187</ele>
        <time>2023-07-11T09:44:15.000Z</time>
      </trkpt>
      <trkpt lat="45.7781" lon="4.84373">
        <ele>168.08466</ele>
        <time>2023-07-11T09:44:16.000Z</time>
      </trkpt>
      <trkpt lat="45.77816" lon="4.84376">
        <ele>168.05852</ele>
        <time>2023-07-11T09:44:17.000Z</time>
      </trkpt>
      <trkpt lat="45.77822" lon="4.84379">
        <ele>168.06523</ele>
        <time>2023-07-11T09:44:18.000Z</time>
      </trkpt>
      <trkpt lat="45.77827" lon="4.84382">
        <ele>168.07986</ele>
        <time>2023-07-11T09:44:19.000Z</time>
      </trkpt>
      <trkpt lat="45.7783" lon="4.84386">
        <ele>168.06644</ele>
        <time>2023-07-11T09:44:20.000Z</time>
      </trkpt>
      <trkpt lat="45.77834" lon="4.8439">
        <ele>168.05484</ele>
        <time>2023-07-11T09:44:21.000Z</time>
      </trkpt>
      <trkpt lat="45.77842" lon="4.84394">
        <ele>168.14253</ele>
        <time>2023-07-11T09:44:22.000Z</time>
      </trkpt>
      <trkpt lat="45.77848" lon="4.84398">
        <ele>168.22061</ele>
        <time>2023-07-11T09:44:23.000Z</time>
      </trkpt>
      <trkpt lat="45.77855" lon="4.84403">
        <ele>168.32513</ele>
        <time>2023-07-11T09:44:24.000Z</time>
      </trkpt>
      <trkpt lat="45.77862" lon="4.84407">
        <ele>168.37909</ele>
        <time>2023-07-11T09:44:25.000Z</time>
      </trkpt>
      <trkpt lat="45.77865" lon="4.84411">
        <ele>168.40991</ele>
        <time>2023-07-11T09:44:26.000Z</time>
      </trkpt>
      <trkpt lat="45.77872" lon="4.84415">
        <ele>168.43549</ele>
        <time>2023-07-11T09:44:27.000Z</time>
      </trkpt>
      <trkpt lat="45.77878" lon="4.84418">
        <ele>168.56308</ele>
        <time>2023-07-11T09:44:28.000Z</time>
      </trkpt>
      <trkpt lat="45.77883" lon="4.8442">
        <ele>168.75224</ele>
        <time>2023-07-11T09:44:29.000Z</time>
      </trkpt>
      <trkpt lat="45.7789" lon="4.84423">
        <ele>168.9482</ele>
        <time>2023-07-11T09:44:30.000Z</time>
      </trkpt>
      <trkpt lat="45.77897" lon="4.84427">
        <ele>169.12167</ele>
        <time>2023-07-11T09:44:31.000Z</time>
      </trkpt>
      <trkpt lat="45.77901" lon="4.84432">
        <ele>169.33037</ele>
        <time>2023-07-11T09:44:32.000Z</time>
      </trkpt>
      <trkpt lat="45.77907" lon="4.84435">
        <ele>169.43567</ele>
        <time>2023-07-11T09:44:33.000Z</time>
      </trkpt>
      <trkpt lat="45.77912" lon="4.84439">
        <ele>169.53123</ele>
        <time>2023-07-11T09:44:34.000Z</time>
      </trkpt>
      <trkpt lat="45.77918" lon="4.84444">
        <ele>169.59723</ele>
        <time>2023-07-11T09:44:35.000Z</time>
      </trkpt>
      <trkpt lat="45.77923" lon="4.84448">
        <ele>169.6553</ele>
        <time>2023-07-11T09:44:36.000Z</time>
      </trkpt>
      <trkpt lat="45.77928" lon="4.84451">
        <ele>169.69028</ele>
        <time>2023-07-11T09:44:37.000Z</time>
      </trkpt>
      <trkpt lat="45.77934" lon="4.84454">
        <ele>169.66025</ele>
        <time>2023-07-11T09:44:38.000Z</time>
      </trkpt>
      <trkpt lat="45.7794" lon="4.84457">
        <ele>169.65701</ele>
        <time>2023-07-11T09:44:39.000Z</time>
      </trkpt>
      <trkpt lat="45.77946" lon="4.84462">
        <ele>169.6613</ele>
        <time>2023-07-11T09:44:40.000Z</time>
      </trkpt>
      <trkpt lat="45.77951" lon="4.84466">
        <ele>169.69397</ele>
        <time>2023-07-11T09:44:41.000Z</time>
      </trkpt>
      <trkpt lat="45.77956" lon="4.8447">
        <ele>169.66258</ele>
        <time>2023-07-11T09:44:42.000Z</time>
      </trkpt>
      <trkpt lat="45.77961" lon="4.84473">
        <ele>169.64265</ele>
        <time>2023-07-11T09:44:43.000Z</time>
      </trkpt>
      <trkpt lat="45.77967" lon="4.84476">
        <ele>169.57916</ele>
        <time>2023-07-11T09:44:44.000Z</time>
      </trkpt>
      <trkpt lat="45.77973" lon="4.84479">
        <ele>169.55774</ele>
        <time>2023-07-11T09:44:45.000Z</time>
      </trkpt>
      <trkpt lat="45.77979" lon="4.84481">
        <ele>169.53751</ele>
        <time>2023-07-11T09:44:46.000Z</time>
      </trkpt>
      <trkpt lat="45.77984" lon="4.84485">
        <ele>169.43167</ele>
        <time>2023-07-11T09:44:47.000Z</time>
      </trkpt>
      <trkpt lat="45.7799" lon="4.84488">
        <ele>169.46423</ele>
        <time>2023-07-11T09:44:48.000Z</time>
      </trkpt>
      <trkpt lat="45.77996" lon="4.84493">
        <ele>169.46219</ele>
        <time>2023-07-11T09:44:49.000Z</time>
      </trkpt>
      <trkpt lat="45.78001" lon="4.84499">
        <ele>169.41312</ele>
        <time>2023-07-11T09:44:50.000Z</time>
      </trkpt>
      <trkpt lat="45.78006" lon="4.84505">
        <ele>169.41983</ele>
        <time>2023-07-11T09:44:51.000Z</time>
      </trkpt>
      <trkpt lat="45.78012" lon="4.84509">
        <ele>169.4044</ele>
        <time>2023-07-11T09:44:52.000Z</time>
      </trkpt>
      <trkpt lat="45.78017" lon="4.84514">
        <ele>169.53392</ele>
        <time>2023-07-11T09:44:53.000Z</time>
      </trkpt>
      <trkpt lat="45.78022" lon="4.84519">
        <ele>169.72031</ele>
        <time>2023-07-11T09:44:54.000Z</time>
      </trkpt>
      <trkpt lat="45.78026" lon="4.84525">
        <ele>169.84398</ele>
        <time>2023-07-11T09:44:55.000Z</time>
      </trkpt>
      <trkpt lat="45.78031" lon="4.8453">
        <ele>169.90991</ele>
        <time>2023-07-11T09:44:56.000Z</time>
      </trkpt>
      <trkpt lat="45.78036" lon="4.84534">
        <ele>170.00085</ele>
        <time>2023-07-11T09:44:57.000Z</time>
      </trkpt>
      <trkpt lat="45.78041" lon="4.84539">
        <ele>170.14383</ele>
        <time>2023-07-11T09:44:58.000Z</time>
      </trkpt>
      <trkpt lat="45.78047" lon="4.84544">
        <ele>170.26163</ele>
        <time>2023-07-11T09:44:59.000Z</time>
      </trkpt>
      <trkpt lat="45.78051" lon="4.84549">
        <ele>170.35881</ele>
        <time>2023-07-11T09:45:00.000Z</time>
      </trkpt>
      <trkpt lat="45.78056" lon="4.84556">
        <ele>170.46109</ele>
        <time>2023-07-11T09:45:01.000Z</time>
      </trkpt>
      <trkpt lat="45.78061" lon="4.84561">
        <ele>170.45956</ele>
        <time>2023-07-11T09:45:02.000Z</time>
      </trkpt>
      <trkpt lat="45.78067" lon="4.84565">
        <ele>170.44904</ele>
        <time>2023-07-11T09:45:03.000Z</time>
      </trkpt>
      <trkpt lat="45.78072" lon="4.84571">
        <ele>170.47128</ele>
        <time>2023-07-11T09:45:04.000Z</time>
      </trkpt>
      <trkpt lat="45.78077" lon="4.84577">
        <ele>170.47336</ele>
        <time>2023-07-11T09:45:05.000Z</time>
      </trkpt>
      <trkpt lat="45.78082" lon="4.84581">
        <ele>170.48459</ele>
        <time>2023-07-11T09:45:06.000Z</time>
      </trkpt>
      <trkpt lat="45.78088" lon="4.84586">
        <ele>170.51041</ele>
        <time>2023-07-11T09:45:07.000Z</time>
      </trkpt>
      <trkpt lat="45.78093" lon="4.84591">
        <ele>170.40073</ele>
        <time>2023-07-11T09:45:08.000Z</time>
      </trkpt>
      <trkpt lat="45.78098" lon="4.84596">
        <ele>170.27905</ele>
        <time>2023-07-11T09:45:09.000Z</time>
      </trkpt>
      <trkpt lat="45.78103" lon="4.84602">
        <ele>170.17976</ele>
        <time>2023-07-11T09:45:10.000Z</time>
      </trkpt>
      <trkpt lat="45.78109" lon="4.84606">
        <ele>170.06281</ele>
        <time>2023-07-11T09:45:11.000Z</time>
      </trkpt>
      <trkpt lat="45.78114" lon="4.84611">
        <ele>169.93446</ele>
        <time>2023-07-11T09:45:12.000Z</time>
      </trkpt>
      <trkpt lat="45.78118" lon="4.84616">
        <ele>169.76128</ele>
        <time>2023-07-11T09:45:13.000Z</time>
      </trkpt>
      <trkpt lat="45.78123" lon="4.84621">
        <ele>169.50934</ele>
        <time>2023-07-11T09:45:14.000Z</time>
      </trkpt>
      <trkpt lat="45.78128" lon="4.84627">
        <ele>169.29684</ele>
        <time>2023-07-11T09:45:15.000Z</time>
      </trkpt>
      <trkpt lat="45.78133" lon="4.84631">
        <ele>169.1348</ele>
        <time>2023-07-11T09:45:16.000Z</time>
      </trkpt>
      <trkpt lat="45.78139" lon="4.84636">
        <ele>168.99077</ele>
        <time>2023-07-11T09:45:17.000Z</time>
      </trkpt>
      <trkpt lat="45.78144" lon="4.8464">
        <ele>168.8414</ele>
        <time>2023-07-11T09:45:18.000Z</time>
      </trkpt>
      <trkpt lat="45.78149" lon="4.84644">
        <ele>168.72034</ele>
        <time>2023-07-11T09:45:19.000Z</time>
      </trkpt>
      <trkpt lat="45.78153" lon="4.84648">
        <ele>168.58614</ele>
        <time>2023-07-11T09:45:20.000Z</time>
      </trkpt>
      <trkpt lat="45.78158" lon="4.84652">
        <ele>168.44336</ele>
        <time>2023-07-11T09:45:21.000Z</time>
      </trkpt>
      <trkpt lat="45.78163" lon="4.84656">
        <ele>168.41743</ele>
        <time>2023-07-11T09:45:22.000Z</time>
      </trkpt>
      <trkpt lat="45.78168" lon="4.84659">
        <ele>168.38773</ele>
        <time>2023-07-11T09:45:23.000Z</time>
      </trkpt>
      <trkpt lat="45.78173" lon="4.8466">
        <ele>168.34787</ele>
        <time>2023-07-11T09:45:24.000Z</time>
      </trkpt>
      <trkpt lat="45.78179" lon="4.84662">
        <ele>168.32161</ele>
        <time>2023-07-11T09:45:25.000Z</time>
      </trkpt>
      <trkpt lat="45.78185" lon="4.84665">
        <ele>168.28084</ele>
        <time>2023-07-11T09:45:26.000Z</time>
      </trkpt>
      <trkpt lat="45.78191" lon="4.84668">
        <ele>168.25717</ele>
        <time>2023-07-11T09:45:27.000Z</time>
      </trkpt>
      <trkpt lat="45.78195" lon="4.84673">
        <ele>168.27443</ele>
        <time>2023-07-11T09:45:28.000Z</time>
      </trkpt>
      <trkpt lat="45.78202" lon="4.84677">
        <ele>168.3204</ele>
        <time>2023-07-11T09:45:29.000Z</time>
      </trkpt>
      <trkpt lat="45.78206" lon="4.84681">
        <ele>168.36963</ele>
        <time>2023-07-11T09:45:30.000Z</time>
      </trkpt>
      <trkpt lat="45.78213" lon="4.84684">
        <ele>168.40697</ele>
        <time>2023-07-11T09:45:31.000Z</time>
      </trkpt>
      <trkpt lat="45.78218" lon="4.84688">
        <ele>168.44826</ele>
        <time>2023-07-11T09:45:32.000Z</time>
      </trkpt>
      <trkpt lat="45.78223" lon="4.84692">
        <ele>168.51576</ele>
        <time>2023-07-11T09:45:33.000Z</time>
      </trkpt>
      <trkpt lat="45.78229" lon="4.84697">
        <ele>168.58177</ele>
        <time>2023-07-11T09:45:34.000Z</time>
      </trkpt>
      <trkpt lat="45.78234" lon="4.84702">
        <ele>168.68878</ele>
        <time>2023-07-11T09:45:35.000Z</time>
      </trkpt>
      <trkpt lat="45.78239" lon="4.84707">
        <ele>168.7576</ele>
        <time>2023-07-11T09:45:36.000Z</time>
      </trkpt>
      <trkpt lat="45.78243" lon="4.84711">
        <ele>168.78366</ele>
        <time>2023-07-11T09:45:37.000Z</time>
      </trkpt>
      <trkpt lat="45.78249" lon="4.84716">
        <ele>168.81528</ele>
        <time>2023-07-11T09:45:38.000Z</time>
      </trkpt>
      <trkpt lat="45.78254" lon="4.84721">
        <ele>168.81364</ele>
        <time>2023-07-11T09:45:39.000Z</time>
      </trkpt>
      <trkpt lat="45.78259" lon="4.84726">
        <ele>168.82767</ele>
        <time>2023-07-11T09:45:40.000Z</time>
      </trkpt>
      <trkpt lat="45.78264" lon="4.84731">
        <ele>168.81221</ele>
        <time>2023-07-11T09:45:41.000Z</time>
      </trkpt>
      <trkpt lat="45.78269" lon="4.84736">
        <ele>168.7291</ele>
        <time>2023-07-11T09:45:42.000Z</time>
      </trkpt>
      <trkpt lat="45.78274" lon="4.84741">
        <ele>168.65256</ele>
        <time>2023-07-11T09:45:43.000Z</time>
      </trkpt>
      <trkpt lat="45.78279" lon="4.84746">
        <ele>168.5629</ele>
        <time>2023-07-11T09:45:44.000Z</time>
      </trkpt>
      <trkpt lat="45.78284" lon="4.84751">
        <ele>168.47116</ele>
        <time>2023-07-11T09:45:45.000Z</time>
      </trkpt>
      <trkpt lat="45.78288" lon="4.84756">
        <ele>168.39384</ele>
        <time>2023-07-11T09:45:46.000Z</time>
      </trkpt>
      <trkpt lat="45.78293" lon="4.84762">
        <ele>168.27669</ele>
        <time>2023-07-11T09:45:47.000Z</time>
      </trkpt>
      <trkpt lat="45.78299" lon="4.84769">
        <ele>168.15073</ele>
        <time>2023-07-11T09:45:48.000Z</time>
      </trkpt>
      <trkpt lat="45.78303" lon="4.84774">
        <ele>168.00668</ele>
        <time>2023-07-11T09:45:49.000Z</time>
      </trkpt>
      <trkpt lat="45.78309" lon="4.8478">
        <ele>167.86777</ele>
        <time>2023-07-11T09:45:50.000Z</time>
      </trkpt>
      <trkpt lat="45.78312" lon="4.84786">
        <ele>167.66702</ele>
        <time>2023-07-11T09:45:51.000Z</time>
      </trkpt>
      <trkpt lat="45.78317" lon="4.84792">
        <ele>167.50186</ele>
        <time>2023-07-11T09:45:52.000Z</time>
      </trkpt>
      <trkpt lat="45.78322" lon="4.84799">
        <ele>167.31674</ele>
        <time>2023-07-11T09:45:53.000Z</time>
      </trkpt>
      <trkpt lat="45.78327" lon="4.84806">
        <ele>167.1669</ele>
        <time>2023-07-11T09:45:54.000Z</time>
      </trkpt>
      <trkpt lat="45.78332" lon="4.84811">
        <ele>166.97971</ele>
        <time>2023-07-11T09:45:55.000Z</time>
      </trkpt>
      <trkpt lat="45.78337" lon="4.84818">
        <ele>166.81638</ele>
        <time>2023-07-11T09:45:56.000Z</time>
      </trkpt>
      <trkpt lat="45.78342" lon="4.84824">
        <ele>166.69504</ele>
        <time>2023-07-11T09:45:57.000Z</time>
      </trkpt>
      <trkpt lat="45.78347" lon="4.84831">
        <ele>166.54727</ele>
        <time>2023-07-11T09:45:58.000Z</time>
      </trkpt>
      <trkpt lat="45.78352" lon="4.84838">
        <ele>166.39297</ele>
        <time>2023-07-11T09:45:59.000Z</time>
      </trkpt>
      <trkpt lat="45.78356" lon="4.84846">
        <ele>166.26935</ele>
        <time>2023-07-11T09:46:00.000Z</time>
      </trkpt>
      <trkpt lat="45.78361" lon="4.84853">
        <ele>166.17581</ele>
        <time>2023-07-11T09:46:01.000Z</time>
      </trkpt>
      <trkpt lat="45.78365" lon="4.84859">
        <ele>166.14125</ele>
        <time>2023-07-11T09:46:02.000Z</time>
      </trkpt>
      <trkpt lat="45.78369" lon="4.84866">
        <ele>166.10562</ele>
        <time>2023-07-11T09:46:03.000Z</time>
      </trkpt>
      <trkpt lat="45.78373" lon="4.84873">
        <ele>166.07005</ele>
        <time>2023-07-11T09:46:04.000Z</time>
      </trkpt>
      <trkpt lat="45.78377" lon="4.8488">
        <ele>166.01672</ele>
        <time>2023-07-11T09:46:05.000Z</time>
      </trkpt>
      <trkpt lat="45.78382" lon="4.84886">
        <ele>166.03755</ele>
        <time>2023-07-11T09:46:06.000Z</time>
      </trkpt>
      <trkpt lat="45.78386" lon="4.84894">
        <ele>166.07718</ele>
        <time>2023-07-11T09:46:07.000Z</time>
      </trkpt>
      <trkpt lat="45.78391" lon="4.84901">
        <ele>166.11436</ele>
        <time>2023-07-11T09:46:08.000Z</time>
      </trkpt>
      <trkpt lat="45.78395" lon="4.84907">
        <ele>166.15706</ele>
        <time>2023-07-11T09:46:09.000Z</time>
      </trkpt>
      <trkpt lat="45.784" lon="4.84914">
        <ele>166.19095</ele>
        <time>2023-07-11T09:46:10.000Z</time>
      </trkpt>
      <trkpt lat="45.78404" lon="4.84921">
        <ele>166.27565</ele>
        <time>2023-07-11T09:46:11.000Z</time>
      </trkpt>
      <trkpt lat="45.78408" lon="4.84927">
        <ele>166.31042</ele>
        <time>2023-07-11T09:46:12.000Z</time>
      </trkpt>
      <trkpt lat="45.78413" lon="4.84934">
        <ele>166.33768</ele>
        <time>2023-07-11T09:46:13.000Z</time>
      </trkpt>
      <trkpt lat="45.78417" lon="4.84941">
        <ele>166.38272</ele>
        <time>2023-07-11T09:46:14.000Z</time>
      </trkpt>
      <trkpt lat="45.78422" lon="4.84949">
        <ele>166.45114</ele>
        <time>2023-07-11T09:46:15.000Z</time>
      </trkpt>
      <trkpt lat="45.78426" lon="4.84956">
        <ele>166.51761</ele>
        <time>2023-07-11T09:46:16.000Z</time>
      </trkpt>
      <trkpt lat="45.7843" lon="4.84962">
        <ele>166.5556</ele>
        <time>2023-07-11T09:46:17.000Z</time>
      </trkpt>
      <trkpt lat="45.78434" lon="4.84969">
        <ele>166.6171</ele>
        <time>2023-07-11T09:46:18.000Z</time>
      </trkpt>
      <trkpt lat="45.78439" lon="4.84976">
        <ele>166.66843</ele>
        <time>2023-07-11T09:46:19.000Z</time>
      </trkpt>
      <trkpt lat="45.78443" lon="4.84983">
        <ele>166.72763</ele>
        <time>2023-07-11T09:46:20.000Z</time>
      </trkpt>
      <trkpt lat="45.78447" lon="4.84991">
        <ele>166.80128</ele>
        <time>2023-07-11T09:46:21.000Z</time>
      </trkpt>
      <trkpt lat="45.78451" lon="4.84998">
        <ele>166.87296</ele>
        <time>2023-07-11T09:46:22.000Z</time>
      </trkpt>
      <trkpt lat="45.78455" lon="4.85005">
        <ele>166.95386</ele>
        <time>2023-07-11T09:46:23.000Z</time>
      </trkpt>
      <trkpt lat="45.78458" lon="4.85012">
        <ele>167.04832</ele>
        <time>2023-07-11T09:46:24.000Z</time>
      </trkpt>
      <trkpt lat="45.78462" lon="4.85019">
        <ele>167.16054</ele>
        <time>2023-07-11T09:46:25.000Z</time>
      </trkpt>
      <trkpt lat="45.78465" lon="4.85027">
        <ele>167.1962</ele>
        <time>2023-07-11T09:46:26.000Z</time>
      </trkpt>
      <trkpt lat="45.78469" lon="4.85034">
        <ele>167.21132</ele>
        <time>2023-07-11T09:46:27.000Z</time>
      </trkpt>
      <trkpt lat="45.78472" lon="4.85041">
        <ele>167.22504</ele>
        <time>2023-07-11T09:46:28.000Z</time>
      </trkpt>
      <trkpt lat="45.78476" lon="4.85048">
        <ele>167.24068</ele>
        <time>2023-07-11T09:46:29.000Z</time>
      </trkpt>
      <trkpt lat="45.7848" lon="4.85054">
        <ele>167.26849</ele>
        <time>2023-07-11T09:46:30.000Z</time>
      </trkpt>
      <trkpt lat="45.78483" lon="4.85061">
        <ele>167.30095</ele>
        <time>2023-07-11T09:46:31.000Z</time>
      </trkpt>
      <trkpt lat="45.78487" lon="4.85068">
        <ele>167.39093</ele>
        <time>2023-07-11T09:46:32.000Z</time>
      </trkpt>
      <trkpt lat="45.78491" lon="4.85077">
        <ele>167.4977</ele>
        <time>2023-07-11T09:46:33.000Z</time>
      </trkpt>
      <trkpt lat="45.78495" lon="4.85083">
        <ele>167.56934</ele>
        <time>2023-07-11T09:46:34.000Z</time>
      </trkpt>
      <trkpt lat="45.78499" lon="4.85091">
        <ele>167.65576</ele>
        <time>2023-07-11T09:46:35.000Z</time>
      </trkpt>
      <trkpt lat="45.78502" lon="4.85099">
        <ele>167.73221</ele>
        <time>2023-07-11T09:46:36.000Z</time>
      </trkpt>
      <trkpt lat="45.78505" lon="4.85107">
        <ele>167.84592</ele>
        <time>2023-07-11T09:46:37.000Z</time>
      </trkpt>
      <trkpt lat="45.78509" lon="4.85115">
        <ele>167.98337</ele>
        <time>2023-07-11T09:46:38.000Z</time>
      </trkpt>
      <trkpt lat="45.78513" lon="4.85123">
        <ele>168.13828</ele>
        <time>2023-07-11T09:46:39.000Z</time>
      </trkpt>
      <trkpt lat="45.78516" lon="4.85132">
        <ele>168.2691</ele>
        <time>2023-07-11T09:46:40.000Z</time>
      </trkpt>
      <trkpt lat="45.78519" lon="4.8514">
        <ele>168.36194</ele>
        <time>2023-07-11T09:46:41.000Z</time>
      </trkpt>
      <trkpt lat="45.78523" lon="4.85147">
        <ele>168.44252</ele>
        <time>2023-07-11T09:46:42.000Z</time>
      </trkpt>
      <trkpt lat="45.78526" lon="4.85155">
        <ele>168.53987</ele>
        <time>2023-07-11T09:46:43.000Z</time>
      </trkpt>
      <trkpt lat="45.78529" lon="4.85161">
        <ele>168.62988</ele>
        <time>2023-07-11T09:46:44.000Z</time>
      </trkpt>
      <trkpt lat="45.78532" lon="4.8517">
        <ele>168.72987</ele>
        <time>2023-07-11T09:46:45.000Z</time>
      </trkpt>
      <trkpt lat="45.78536" lon="4.8518">
        <ele>168.88278</ele>
        <time>2023-07-11T09:46:46.000Z</time>
      </trkpt>
      <trkpt lat="45.78538" lon="4.85189">
        <ele>169.03989</ele>
        <time>2023-07-11T09:46:47.000Z</time>
      </trkpt>
      <trkpt lat="45.78542" lon="4.85197">
        <ele>169.16447</ele>
        <time>2023-07-11T09:46:48.000Z</time>
      </trkpt>
      <trkpt lat="45.78545" lon="4.85205">
        <ele>169.28468</ele>
        <time>2023-07-11T09:46:49.000Z</time>
      </trkpt>
      <trkpt lat="45.78548" lon="4.85213">
        <ele>169.40004</ele>
        <time>2023-07-11T09:46:50.000Z</time>
      </trkpt>
      <trkpt lat="45.78552" lon="4.85221">
        <ele>169.50668</ele>
        <time>2023-07-11T09:46:51.000Z</time>
      </trkpt>
      <trkpt lat="45.78554" lon="4.8523">
        <ele>169.60143</ele>
        <time>2023-07-11T09:46:52.000Z</time>
      </trkpt>
      <trkpt lat="45.78556" lon="4.85237">
        <ele>169.68971</ele>
        <time>2023-07-11T09:46:53.000Z</time>
      </trkpt>
      <trkpt lat="45.78558" lon="4.85245">
        <ele>169.76314</ele>
        <time>2023-07-11T09:46:54.000Z</time>
      </trkpt>
      <trkpt lat="45.7856" lon="4.85253">
        <ele>169.80537</ele>
        <time>2023-07-11T09:46:55.000Z</time>
      </trkpt>
      <trkpt lat="45.78562" lon="4.85262">
        <ele>169.86264</ele>
        <time>2023-07-11T09:46:56.000Z</time>
      </trkpt>
      <trkpt lat="45.78565" lon="4.85269">
        <ele>169.91214</ele>
        <time>2023-07-11T09:46:57.000Z</time>
      </trkpt>
      <trkpt lat="45.78568" lon="4.85277">
        <ele>169.93233</ele>
        <time>2023-07-11T09:46:58.000Z</time>
      </trkpt>
      <trkpt lat="45.7857" lon="4.85286">
        <ele>169.96265</ele>
        <time>2023-07-11T09:46:59.000Z</time>
      </trkpt>
      <trkpt lat="45.78572" lon="4.85294">
        <ele>170.00565</ele>
        <time>2023-07-11T09:47:00.000Z</time>
      </trkpt>
      <trkpt lat="45.78575" lon="4.85302">
        <ele>170.06769</ele>
        <time>2023-07-11T09:47:01.000Z</time>
      </trkpt>
      <trkpt lat="45.78578" lon="4.85311">
        <ele>170.10776</ele>
        <time>2023-07-11T09:47:02.000Z</time>
      </trkpt>
      <trkpt lat="45.7858" lon="4.8532">
        <ele>170.16644</ele>
        <time>2023-07-11T09:47:03.000Z</time>
      </trkpt>
      <trkpt lat="45.78582" lon="4.85328">
        <ele>170.22845</ele>
        <time>2023-07-11T09:47:04.000Z</time>
      </trkpt>
      <trkpt lat="45.78585" lon="4.85336">
        <ele>170.2739</ele>
        <time>2023-07-11T09:47:05.000Z</time>
      </trkpt>
      <trkpt lat="45.78587" lon="4.85345">
        <ele>170.26077</ele>
        <time>2023-07-11T09:47:06.000Z</time>
      </trkpt>
      <trkpt lat="45.78589" lon="4.85353">
        <ele>170.2525</ele>
        <time>2023-07-11T09:47:07.000Z</time>
      </trkpt>
      <trkpt lat="45.78591" lon="4.85362">
        <ele>170.28937</ele>
        <time>2023-07-11T09:47:08.000Z</time>
      </trkpt>
      <trkpt lat="45.78593" lon="4.85371">
        <ele>170.21809</ele>
        <time>2023-07-11T09:47:09.000Z</time>
      </trkpt>
      <trkpt lat="45.78595" lon="4.8538">
        <ele>170.15169</ele>
        <time>2023-07-11T09:47:10.000Z</time>
      </trkpt>
      <trkpt lat="45.78598" lon="4.85389">
        <ele>170.07993</ele>
        <time>2023-07-11T09:47:11.000Z</time>
      </trkpt>
      <trkpt lat="45.78599" lon="4.85397">
        <ele>170.00449</ele>
        <time>2023-07-11T09:47:12.000Z</time>
      </trkpt>
      <trkpt lat="45.786" lon="4.85405">
        <ele>169.9435</ele>
        <time>2023-07-11T09:47:13.000Z</time>
      </trkpt>
      <trkpt lat="45.78602" lon="4.85414">
        <ele>170.00504</ele>
        <time>2023-07-11T09:47:14.000Z</time>
      </trkpt>
      <trkpt lat="45.78604" lon="4.85423">
        <ele>170.09073</ele>
        <time>2023-07-11T09:47:15.000Z</time>
      </trkpt>
      <trkpt lat="45.78605" lon="4.85431">
        <ele>170.15414</ele>
        <time>2023-07-11T09:47:16.000Z</time>
      </trkpt>
      <trkpt lat="45.78606" lon="4.8544">
        <ele>170.19315</ele>
        <time>2023-07-11T09:47:17.000Z</time>
      </trkpt>
      <trkpt lat="45.78607" lon="4.85448">
        <ele>170.2213</ele>
        <time>2023-07-11T09:47:18.000Z</time>
      </trkpt>
      <trkpt lat="45.78609" lon="4.85458">
        <ele>170.23369</ele>
        <time>2023-07-11T09:47:19.000Z</time>
      </trkpt>
      <trkpt lat="45.7861" lon="4.85465">
        <ele>170.22377</ele>
        <time>2023-07-11T09:47:20.000Z</time>
      </trkpt>
      <trkpt lat="45.7861" lon="4.85472">
        <ele>170.21478</ele>
        <time>2023-07-11T09:47:21.000Z</time>
      </trkpt>
      <trkpt lat="45.7861" lon="4.85481">
        <ele>170.19876</ele>
        <time>2023-07-11T09:47:22.000Z</time>
      </trkpt>
      <trkpt lat="45.78612" lon="4.85489">
        <ele>170.16328</ele>
        <time>2023-07-11T09:47:23.000Z</time>
      </trkpt>
      <trkpt lat="45.78615" lon="4.85498">
        <ele>170.13657</ele>
        <time>2023-07-11T09:47:24.000Z</time>
      </trkpt>
      <trkpt lat="45.78616" lon="4.85506">
        <ele>170.09436</ele>
        <time>2023-07-11T09:47:25.000Z</time>
      </trkpt>
      <trkpt lat="45.78616" lon="4.85517">
        <ele>170.07205</ele>
        <time>2023-07-11T09:47:26.000Z</time>
      </trkpt>
      <trkpt lat="45.78617" lon="4.85526">
        <ele>170.04424</ele>
        <time>2023-07-11T09:47:27.000Z</time>
      </trkpt>
      <trkpt lat="45.78618" lon="4.85534">
        <ele>169.99091</ele>
        <time>2023-07-11T09:47:28.000Z</time>
      </trkpt>
      <trkpt lat="45.7862" lon="4.85542">
        <ele>170.05124</ele>
        <time>2023-07-11T09:47:29.000Z</time>
      </trkpt>
      <trkpt lat="45.78621" lon="4.85551">
        <ele>170.08635</ele>
        <time>2023-07-11T09:47:30.000Z</time>
      </trkpt>
      <trkpt lat="45.78622" lon="4.85559">
        <ele>170.16931</ele>
        <time>2023-07-11T09:47:31.000Z</time>
      </trkpt>
      <trkpt lat="45.78624" lon="4.85568">
        <ele>170.25577</ele>
        <time>2023-07-11T09:47:32.000Z</time>
      </trkpt>
      <trkpt lat="45.78625" lon="4.85577">
        <ele>170.33942</ele>
        <time>2023-07-11T09:47:33.000Z</time>
      </trkpt>
      <trkpt lat="45.78626" lon="4.85586">
        <ele>170.31885</ele>
        <time>2023-07-11T09:47:34.000Z</time>
      </trkpt>
      <trkpt lat="45.78627" lon="4.85594">
        <ele>170.26019</ele>
        <time>2023-07-11T09:47:35.000Z</time>
      </trkpt>
      <trkpt lat="45.78628" lon="4.85603">
        <ele>170.19705</ele>
        <time>2023-07-11T09:47:36.000Z</time>
      </trkpt>
      <trkpt lat="45.78628" lon="4.85612">
        <ele>170.14398</ele>
        <time>2023-07-11T09:47:37.000Z</time>
      </trkpt>
      <trkpt lat="45.78628" lon="4.8562">
        <ele>170.09094</ele>
        <time>2023-07-11T09:47:38.000Z</time>
      </trkpt>
      <trkpt lat="45.78629" lon="4.85629">
        <ele>170.03587</ele>
        <time>2023-07-11T09:47:39.000Z</time>
      </trkpt>
      <trkpt lat="45.78629" lon="4.85637">
        <ele>169.97269</ele>
        <time>2023-07-11T09:47:40.000Z</time>
      </trkpt>
      <trkpt lat="45.78631" lon="4.85646">
        <ele>169.91019</ele>
        <time>2023-07-11T09:47:41.000Z</time>
      </trkpt>
      <trkpt lat="45.78631" lon="4.85655">
        <ele>169.83836</ele>
        <time>2023-07-11T09:47:42.000Z</time>
      </trkpt>
      <trkpt lat="45.78632" lon="4.85664">
        <ele>169.76251</ele>
        <time>2023-07-11T09:47:43.000Z</time>
      </trkpt>
      <trkpt lat="45.78633" lon="4.85673">
        <ele>169.65068</ele>
        <time>2023-07-11T09:47:44.000Z</time>
      </trkpt>
      <trkpt lat="45.78634" lon="4.85681">
        <ele>169.59099</ele>
        <time>2023-07-11T09:47:45.000Z</time>
      </trkpt>
      <trkpt lat="45.78633" lon="4.85691">
        <ele>169.54091</ele>
        <time>2023-07-11T09:47:46.000Z</time>
      </trkpt>
      <trkpt lat="45.78633" lon="4.85699">
        <ele>169.47771</ele>
        <time>2023-07-11T09:47:47.000Z</time>
      </trkpt>
      <trkpt lat="45.78634" lon="4.85707">
        <ele>169.46574</ele>
        <time>2023-07-11T09:47:48.000Z</time>
      </trkpt>
      <trkpt lat="45.78634" lon="4.85718">
        <ele>169.45102</ele>
        <time>2023-07-11T09:47:49.000Z</time>
      </trkpt>
      <trkpt lat="45.78633" lon="4.85728">
        <ele>169.31551</ele>
        <time>2023-07-11T09:47:50.000Z</time>
      </trkpt>
      <trkpt lat="45.78632" lon="4.85737">
        <ele>169.16438</ele>
        <time>2023-07-11T09:47:51.000Z</time>
      </trkpt>
      <trkpt lat="45.78632" lon="4.85747">
        <ele>168.98148</ele>
        <time>2023-07-11T09:47:52.000Z</time>
      </trkpt>
      <trkpt lat="45.78631" lon="4.85756">
        <ele>168.81049</ele>
        <time>2023-07-11T09:47:53.000Z</time>
      </trkpt>
      <trkpt lat="45.78631" lon="4.85764">
        <ele>168.62659</ele>
        <time>2023-07-11T09:47:54.000Z</time>
      </trkpt>
      <trkpt lat="45.7863" lon="4.85772">
        <ele>168.46976</ele>
        <time>2023-07-11T09:47:55.000Z</time>
      </trkpt>
      <trkpt lat="45.7863" lon="4.85781">
        <ele>168.32497</ele>
        <time>2023-07-11T09:47:56.000Z</time>
      </trkpt>
      <trkpt lat="45.78629" lon="4.85789">
        <ele>168.17212</ele>
        <time>2023-07-11T09:47:57.000Z</time>
      </trkpt>
      <trkpt lat="45.7863" lon="4.85797">
        <ele>168.05432</ele>
        <time>2023-07-11T09:47:58.000Z</time>
      </trkpt>
      <trkpt lat="45.78629" lon="4.85806">
        <ele>167.94778</ele>
        <time>2023-07-11T09:47:59.000Z</time>
      </trkpt>
      <trkpt lat="45.78628" lon="4.85814">
        <ele>167.83463</ele>
        <time>2023-07-11T09:48:00.000Z</time>
      </trkpt>
      <trkpt lat="45.78627" lon="4.85823">
        <ele>167.71382</ele>
        <time>2023-07-11T09:48:01.000Z</time>
      </trkpt>
      <trkpt lat="45.78627" lon="4.85831">
        <ele>167.61635</ele>
        <time>2023-07-11T09:48:02.000Z</time>
      </trkpt>
      <trkpt lat="45.78627" lon="4.8584">
        <ele>167.53041</ele>
        <time>2023-07-11T09:48:03.000Z</time>
      </trkpt>
      <trkpt lat="45.78627" lon="4.85848">
        <ele>167.49844</ele>
        <time>2023-07-11T09:48:04.000Z</time>
      </trkpt>
      <trkpt lat="45.78626" lon="4.85857">
        <ele>167.42741</ele>
        <time>2023-07-11T09:48:05.000Z</time>
      </trkpt>
      <trkpt lat="45.78624" lon="4.85866">
        <ele>167.35501</ele>
        <time>2023-07-11T09:48:06.000Z</time>
      </trkpt>
      <trkpt lat="45.78624" lon="4.85873">
        <ele>167.29276</ele>
        <time>2023-07-11T09:48:07.000Z</time>
      </trkpt>
      <trkpt lat="45.78623" lon="4.85881">
        <ele>167.18114</ele>
        <time>2023-07-11T09:48:08.000Z</time>
      </trkpt>
      <trkpt lat="45.78622" lon="4.85889">
        <ele>167.084</ele>
        <time>2023-07-11T09:48:09.000Z</time>
      </trkpt>
      <trkpt lat="45.78622" lon="4.85897">
        <ele>167.13029</ele>
        <time>2023-07-11T09:48:10.000Z</time>
      </trkpt>
      <trkpt lat="45.7862" lon="4.85906">
        <ele>167.17038</ele>
        <time>2023-07-11T09:48:11.000Z</time>
      </trkpt>
      <trkpt lat="45.7862" lon="4.85915">
        <ele>167.24142</ele>
        <time>2023-07-11T09:48:12.000Z</time>
      </trkpt>
      <trkpt lat="45.78619" lon="4.85922">
        <ele>167.30998</ele>
        <time>2023-07-11T09:48:13.000Z</time>
      </trkpt>
      <trkpt lat="45.78618" lon="4.85931">
        <ele>167.39656</ele>
        <time>2023-07-11T09:48:14.000Z</time>
      </trkpt>
      <trkpt lat="45.78618" lon="4.8594">
        <ele>167.48352</ele>
        <time>2023-07-11T09:48:15.000Z</time>
      </trkpt>
      <trkpt lat="45.78617" lon="4.85949">
        <ele>167.56973</ele>
        <time>2023-07-11T09:48:16.000Z</time>
      </trkpt>
      <trkpt lat="45.78617" lon="4.85957">
        <ele>167.66879</ele>
        <time>2023-07-11T09:48:17.000Z</time>
      </trkpt>
      <trkpt lat="45.78617" lon="4.85966">
        <ele>167.73401</ele>
        <time>2023-07-11T09:48:18.000Z</time>
      </trkpt>
      <trkpt lat="45.78617" lon="4.85974">
        <ele>167.79401</ele>
        <time>2023-07-11T09:48:19.000Z</time>
      </trkpt>
      <trkpt lat="45.78617" lon="4.85981">
        <ele>167.85828</ele>
        <time>2023-07-11T09:48:20.000Z</time>
      </trkpt>
      <trkpt lat="45.78615" lon="4.8599">
        <ele>167.93903</ele>
        <time>2023-07-11T09:48:21.000Z</time>
      </trkpt>
      <trkpt lat="45.78615" lon="4.85998">
        <ele>168.02287</ele>
        <time>2023-07-11T09:48:22.000Z</time>
      </trkpt>
      <trkpt lat="45.78614" lon="4.86008">
        <ele>168.13528</ele>
        <time>2023-07-11T09:48:23.000Z</time>
      </trkpt>
      <trkpt lat="45.78607" lon="4.86017">
        <ele>168.17354</ele>
        <time>2023-07-11T09:48:24.000Z</time>
      </trkpt>
      <trkpt lat="45.78605" lon="4.86023">
        <ele>168.1933</ele>
        <time>2023-07-11T09:48:25.000Z</time>
      </trkpt>
      <trkpt lat="45.78608" lon="4.86032">
        <ele>168.19743</ele>
        <time>2023-07-11T09:48:26.000Z</time>
      </trkpt>
      <trkpt lat="45.78604" lon="4.86041">
        <ele>168.22708</ele>
        <time>2023-07-11T09:48:27.000Z</time>
      </trkpt>
      <trkpt lat="45.7861" lon="4.86053">
        <ele>168.30168</ele>
        <time>2023-07-11T09:48:28.000Z</time>
      </trkpt>
      <trkpt lat="45.78611" lon="4.86063">
        <ele>168.37234</ele>
        <time>2023-07-11T09:48:29.000Z</time>
      </trkpt>
      <trkpt lat="45.78611" lon="4.86074">
        <ele>168.43407</ele>
        <time>2023-07-11T09:48:30.000Z</time>
      </trkpt>
      <trkpt lat="45.7861" lon="4.86081">
        <ele>168.48215</ele>
        <time>2023-07-11T09:48:31.000Z</time>
      </trkpt>
      <trkpt lat="45.7861" lon="4.8609">
        <ele>168.51651</ele>
        <time>2023-07-11T09:48:32.000Z</time>
      </trkpt>
      <trkpt lat="45.78609" lon="4.86097">
        <ele>168.53348</ele>
        <time>2023-07-11T09:48:33.000Z</time>
      </trkpt>
      <trkpt lat="45.78609" lon="4.86106">
        <ele>168.548</ele>
        <time>2023-07-11T09:48:34.000Z</time>
      </trkpt>
      <trkpt lat="45.78608" lon="4.86116">
        <ele>168.57251</ele>
        <time>2023-07-11T09:48:35.000Z</time>
      </trkpt>
      <trkpt lat="45.78608" lon="4.86124">
        <ele>168.60881</ele>
        <time>2023-07-11T09:48:36.000Z</time>
      </trkpt>
      <trkpt lat="45.78607" lon="4.86134">
        <ele>168.63869</ele>
        <time>2023-07-11T09:48:37.000Z</time>
      </trkpt>
      <trkpt lat="45.78606" lon="4.86143">
        <ele>168.68301</ele>
        <time>2023-07-11T09:48:38.000Z</time>
      </trkpt>
      <trkpt lat="45.78607" lon="4.86152">
        <ele>168.72981</ele>
        <time>2023-07-11T09:48:39.000Z</time>
      </trkpt>
      <trkpt lat="45.78607" lon="4.86162">
        <ele>168.78598</ele>
        <time>2023-07-11T09:48:40.000Z</time>
      </trkpt>
      <trkpt lat="45.78607" lon="4.86171">
        <ele>168.82693</ele>
        <time>2023-07-11T09:48:41.000Z</time>
      </trkpt>
      <trkpt lat="45.78606" lon="4.8618">
        <ele>168.85298</ele>
        <time>2023-07-11T09:48:42.000Z</time>
      </trkpt>
      <trkpt lat="45.78605" lon="4.86188">
        <ele>168.88498</ele>
        <time>2023-07-11T09:48:43.000Z</time>
      </trkpt>
      <trkpt lat="45.78604" lon="4.86198">
        <ele>168.95706</ele>
        <time>2023-07-11T09:48:44.000Z</time>
      </trkpt>
      <trkpt lat="45.78603" lon="4.86206">
        <ele>169.04901</ele>
        <time>2023-07-11T09:48:45.000Z</time>
      </trkpt>
      <trkpt lat="45.78603" lon="4.86215">
        <ele>169.14111</ele>
        <time>2023-07-11T09:48:46.000Z</time>
      </trkpt>
      <trkpt lat="45.78602" lon="4.86224">
        <ele>169.21973</ele>
        <time>2023-07-11T09:48:47.000Z</time>
      </trkpt>
      <trkpt lat="45.786" lon="4.86233">
        <ele>169.24928</ele>
        <time>2023-07-11T09:48:48.000Z</time>
      </trkpt>
      <trkpt lat="45.78598" lon="4.86242">
        <ele>169.24954</ele>
        <time>2023-07-11T09:48:49.000Z</time>
      </trkpt>
      <trkpt lat="45.78597" lon="4.86251">
        <ele>169.25603</ele>
        <time>2023-07-11T09:48:50.000Z</time>
      </trkpt>
      <trkpt lat="45.78595" lon="4.8626">
        <ele>169.28403</ele>
        <time>2023-07-11T09:48:51.000Z</time>
      </trkpt>
      <trkpt lat="45.78593" lon="4.86267">
        <ele>169.29218</ele>
        <time>2023-07-11T09:48:52.000Z</time>
      </trkpt>
      <trkpt lat="45.78591" lon="4.86275">
        <ele>169.31679</ele>
        <time>2023-07-11T09:48:53.000Z</time>
      </trkpt>
      <trkpt lat="45.78589" lon="4.86283">
        <ele>169.33482</ele>
        <time>2023-07-11T09:48:54.000Z</time>
      </trkpt>
      <trkpt lat="45.78587" lon="4.86289">
        <ele>169.32986</ele>
        <time>2023-07-11T09:48:55.000Z</time>
      </trkpt>
      <trkpt lat="45.78585" lon="4.86298">
        <ele>169.32309</ele>
        <time>2023-07-11T09:48:56.000Z</time>
      </trkpt>
      <trkpt lat="45.78582" lon="4.86305">
        <ele>169.32066</ele>
        <time>2023-07-11T09:48:57.000Z</time>
      </trkpt>
      <trkpt lat="45.78581" lon="4.86313">
        <ele>169.34018</ele>
        <time>2023-07-11T09:48:58.000Z</time>
      </trkpt>
      <trkpt lat="45.78578" lon="4.86319">
        <ele>169.36807</ele>
        <time>2023-07-11T09:48:59.000Z</time>
      </trkpt>
      <trkpt lat="45.78577" lon="4.86328">
        <ele>169.40303</ele>
        <time>2023-07-11T09:49:00.000Z</time>
      </trkpt>
      <trkpt lat="45.78575" lon="4.86337">
        <ele>169.4297</ele>
        <time>2023-07-11T09:49:01.000Z</time>
      </trkpt>
      <trkpt lat="45.78574" lon="4.86345">
        <ele>169.46913</ele>
        <time>2023-07-11T09:49:02.000Z</time>
      </trkpt>
      <trkpt lat="45.78574" lon="4.86354">
        <ele>169.45535</ele>
        <time>2023-07-11T09:49:03.000Z</time>
      </trkpt>
      <trkpt lat="45.78573" lon="4.86363">
        <ele>169.45238</ele>
        <time>2023-07-11T09:49:04.000Z</time>
      </trkpt>
      <trkpt lat="45.78572" lon="4.8637">
        <ele>169.42038</ele>
        <time>2023-07-11T09:49:05.000Z</time>
      </trkpt>
      <trkpt lat="45.78573" lon="4.86379">
        <ele>169.35165</ele>
        <time>2023-07-11T09:49:06.000Z</time>
      </trkpt>
      <trkpt lat="45.78574" lon="4.86388">
        <ele>169.26036</ele>
        <time>2023-07-11T09:49:07.000Z</time>
      </trkpt>
      <trkpt lat="45.78576" lon="4.86396">
        <ele>169.16484</ele>
        <time>2023-07-11T09:49:08.000Z</time>
      </trkpt>
      <trkpt lat="45.78578" lon="4.86402">
        <ele>169.11414</ele>
        <time>2023-07-11T09:49:09.000Z</time>
      </trkpt>
      <trkpt lat="45.78579" lon="4.86407">
        <ele>169.09189</ele>
        <time>2023-07-11T09:49:10.000Z</time>
      </trkpt>
      <trkpt lat="45.78581" lon="4.86416">
        <ele>169.11371</ele>
        <time>2023-07-11T09:49:11.000Z</time>
      </trkpt>
      <trkpt lat="45.78583" lon="4.86425">
        <ele>169.19328</ele>
        <time>2023-07-11T09:49:12.000Z</time>
      </trkpt>
      <trkpt lat="45.78585" lon="4.86432">
        <ele>169.30998</ele>
        <time>2023-07-11T09:49:13.000Z</time>
      </trkpt>
      <trkpt lat="45.78586" lon="4.86442">
        <ele>169.43698</ele>
        <time>2023-07-11T09:49:14.000Z</time>
      </trkpt>
      <trkpt lat="45.78586" lon="4.86453">
        <ele>169.56454</ele>
        <time>2023-07-11T09:49:15.000Z</time>
      </trkpt>
      <trkpt lat="45.78587" lon="4.86461">
        <ele>169.68387</ele>
        <time>2023-07-11T09:49:16.000Z</time>
      </trkpt>
      <trkpt lat="45.78589" lon="4.86469">
        <ele>169.71606</ele>
        <time>2023-07-11T09:49:17.000Z</time>
      </trkpt>
      <trkpt lat="45.78589" lon="4.86478">
        <ele>169.67569</ele>
        <time>2023-07-11T09:49:18.000Z</time>
      </trkpt>
      <trkpt lat="45.7859" lon="4.86488">
        <ele>169.60196</ele>
        <time>2023-07-11T09:49:19.000Z</time>
      </trkpt>
      <trkpt lat="45.78591" lon="4.86496">
        <ele>169.52451</ele>
        <time>2023-07-11T09:49:20.000Z</time>
      </trkpt>
      <trkpt lat="45.78593" lon="4.86503">
        <ele>169.47916</ele>
        <time>2023-07-11T09:49:21.000Z</time>
      </trkpt>
      <trkpt lat="45.78594" lon="4.86511">
        <ele>169.41661</ele>
        <time>2023-07-11T09:49:22.000Z</time>
      </trkpt>
      <trkpt lat="45.78595" lon="4.86518">
        <ele>169.34727</ele>
        <time>2023-07-11T09:49:23.000Z</time>
      </trkpt>
      <trkpt lat="45.78596" lon="4.86526">
        <ele>169.26938</ele>
        <time>2023-07-11T09:49:24.000Z</time>
      </trkpt>
      <trkpt lat="45.78598" lon="4.86537">
        <ele>169.22694</ele>
        <time>2023-07-11T09:49:25.000Z</time>
      </trkpt>
      <trkpt lat="45.786" lon="4.86547">
        <ele>169.23016</ele>
        <time>2023-07-11T09:49:26.000Z</time>
      </trkpt>
      <trkpt lat="45.786" lon="4.86555">
        <ele>169.30336</ele>
        <time>2023-07-11T09:49:27.000Z</time>
      </trkpt>
      <trkpt lat="45.78602" lon="4.86562">
        <ele>169.33327</ele>
        <time>2023-07-11T09:49:28.000Z</time>
      </trkpt>
      <trkpt lat="45.78604" lon="4.86568">
        <ele>169.33176</ele>
        <time>2023-07-11T09:49:29.000Z</time>
      </trkpt>
      <trkpt lat="45.78604" lon="4.86576">
        <ele>169.29807</ele>
        <time>2023-07-11T09:49:30.000Z</time>
      </trkpt>
      <trkpt lat="45.78604" lon="4.86584">
        <ele>169.21448</ele>
        <time>2023-07-11T09:49:31.000Z</time>
      </trkpt>
      <trkpt lat="45.78603" lon="4.86594">
        <ele>169.08922</ele>
        <time>2023-07-11T09:49:32.000Z</time>
      </trkpt>
      <trkpt lat="45.78605" lon="4.86602">
        <ele>168.93263</ele>
        <time>2023-07-11T09:49:33.000Z</time>
      </trkpt>
      <trkpt lat="45.78607" lon="4.8661">
        <ele>168.77251</ele>
        <time>2023-07-11T09:49:34.000Z</time>
      </trkpt>
      <trkpt lat="45.78609" lon="4.8662">
        <ele>168.64053</ele>
        <time>2023-07-11T09:49:35.000Z</time>
      </trkpt>
      <trkpt lat="45.78612" lon="4.86628">
        <ele>168.5358</ele>
        <time>2023-07-11T09:49:36.000Z</time>
      </trkpt>
      <trkpt lat="45.78616" lon="4.86634">
        <ele>168.45157</ele>
        <time>2023-07-11T09:49:37.000Z</time>
      </trkpt>
      <trkpt lat="45.78617" lon="4.86639">
        <ele>168.41347</ele>
        <time>2023-07-11T09:49:38.000Z</time>
      </trkpt>
      <trkpt lat="45.78619" lon="4.86642">
        <ele>168.38652</ele>
        <time>2023-07-11T09:49:39.000Z</time>
      </trkpt>
      <trkpt lat="45.78619" lon="4.86644">
        <ele>168.38693</ele>
        <time>2023-07-11T09:49:42.000Z</time>
      </trkpt>
      <trkpt lat="45.7862" lon="4.86646">
        <ele>168.37782</ele>
        <time>2023-07-11T09:49:45.000Z</time>
      </trkpt>
      <trkpt lat="45.7862" lon="4.86649">
        <ele>168.25911</ele>
        <time>2023-07-11T09:50:13.000Z</time>
      </trkpt>
      <trkpt lat="45.7862" lon="4.86653">
        <ele>168.12712</ele>
        <time>2023-07-11T09:50:15.000Z</time>
      </trkpt>
      <trkpt lat="45.7862" lon="4.86657">
        <ele>168.02628</ele>
        <time>2023-07-11T09:50:17.000Z</time>
      </trkpt>
      <trkpt lat="45.78619" lon="4.8666">
        <ele>167.90823</ele>
        <time>2023-07-11T09:50:18.000Z</time>
      </trkpt>
      <trkpt lat="45.78617" lon="4.86662">
        <ele>167.74886</ele>
        <time>2023-07-11T09:50:19.000Z</time>
      </trkpt>
      <trkpt lat="45.78618" lon="4.86666">
        <ele>167.54045</ele>
        <time>2023-07-11T09:50:21.000Z</time>
      </trkpt>
      <trkpt lat="45.7862" lon="4.8667">
        <ele>167.37973</ele>
        <time>2023-07-11T09:50:23.000Z</time>
      </trkpt>
      <trkpt lat="45.78622" lon="4.86674">
        <ele>167.22191</ele>
        <time>2023-07-11T09:50:25.000Z</time>
      </trkpt>
      <trkpt lat="45.78623" lon="4.86678">
        <ele>167.08574</ele>
        <time>2023-07-11T09:50:27.000Z</time>
      </trkpt>
      <trkpt lat="45.78625" lon="4.8668">
        <ele>166.99905</ele>
        <time>2023-07-11T09:50:29.000Z</time>
      </trkpt>
      <trkpt lat="45.78625" lon="4.86682">
        <ele>166.94783</ele>
        <time>2023-07-11T09:50:42.000Z</time>
      </trkpt>
      <trkpt lat="45.78626" lon="4.86686">
        <ele>166.92697</ele>
        <time>2023-07-11T09:52:01.000Z</time>
      </trkpt>
      <trkpt lat="45.78626" lon="4.86692">
        <ele>166.85556</ele>
        <time>2023-07-11T09:52:03.000Z</time>
      </trkpt>
      <trkpt lat="45.78626" lon="4.86696">
        <ele>166.7679</ele>
        <time>2023-07-11T09:52:04.000Z</time>
      </trkpt>
      <trkpt lat="45.78627" lon="4.867">
        <ele>166.65199</ele>
        <time>2023-07-11T09:52:05.000Z</time>
      </trkpt>
      <trkpt lat="45.78632" lon="4.86708">
        <ele>166.62154</ele>
        <time>2023-07-11T09:52:06.000Z</time>
      </trkpt>
      <trkpt lat="45.78633" lon="4.86716">
        <ele>166.5692</ele>
        <time>2023-07-11T09:52:07.000Z</time>
      </trkpt>
      <trkpt lat="45.78636" lon="4.86724">
        <ele>166.53351</ele>
        <time>2023-07-11T09:52:08.000Z</time>
      </trkpt>
      <trkpt lat="45.78639" lon="4.86732">
        <ele>166.47368</ele>
        <time>2023-07-11T09:52:09.000Z</time>
      </trkpt>
      <trkpt lat="45.78642" lon="4.86739">
        <ele>166.41875</ele>
        <time>2023-07-11T09:52:10.000Z</time>
      </trkpt>
      <trkpt lat="45.78644" lon="4.86748">
        <ele>166.49451</ele>
        <time>2023-07-11T09:52:11.000Z</time>
      </trkpt>
      <trkpt lat="45.78648" lon="4.86758">
        <ele>166.58119</ele>
        <time>2023-07-11T09:52:12.000Z</time>
      </trkpt>
      <trkpt lat="45.7865" lon="4.86768">
        <ele>166.62495</ele>
        <time>2023-07-11T09:52:13.000Z</time>
      </trkpt>
      <trkpt lat="45.78653" lon="4.86775">
        <ele>166.70647</ele>
        <time>2023-07-11T09:52:14.000Z</time>
      </trkpt>
      <trkpt lat="45.78654" lon="4.86781">
        <ele>166.81458</ele>
        <time>2023-07-11T09:52:15.000Z</time>
      </trkpt>
      <trkpt lat="45.78658" lon="4.86788">
        <ele>166.90062</ele>
        <time>2023-07-11T09:52:16.000Z</time>
      </trkpt>
      <trkpt lat="45.7866" lon="4.86797">
        <ele>166.98848</ele>
        <time>2023-07-11T09:52:17.000Z</time>
      </trkpt>
      <trkpt lat="45.78663" lon="4.86807">
        <ele>167.08644</ele>
        <time>2023-07-11T09:52:18.000Z</time>
      </trkpt>
      <trkpt lat="45.78667" lon="4.86815">
        <ele>167.15816</ele>
        <time>2023-07-11T09:52:19.000Z</time>
      </trkpt>
      <trkpt lat="45.78668" lon="4.86824">
        <ele>167.16611</ele>
        <time>2023-07-11T09:52:20.000Z</time>
      </trkpt>
      <trkpt lat="45.78671" lon="4.86833">
        <ele>167.13777</ele>
        <time>2023-07-11T09:52:21.000Z</time>
      </trkpt>
      <trkpt lat="45.78675" lon="4.86842">
        <ele>167.06044</ele>
        <time>2023-07-11T09:52:22.000Z</time>
      </trkpt>
      <trkpt lat="45.78677" lon="4.86852">
        <ele>167.05182</ele>
        <time>2023-07-11T09:52:23.000Z</time>
      </trkpt>
      <trkpt lat="45.78679" lon="4.8686">
        <ele>167.03838</ele>
        <time>2023-07-11T09:52:24.000Z</time>
      </trkpt>
      <trkpt lat="45.78682" lon="4.86869">
        <ele>167.0275</ele>
        <time>2023-07-11T09:52:25.000Z</time>
      </trkpt>
      <trkpt lat="45.78685" lon="4.86878">
        <ele>166.98917</ele>
        <time>2023-07-11T09:52:26.000Z</time>
      </trkpt>
      <trkpt lat="45.78687" lon="4.86887">
        <ele>166.97145</ele>
        <time>2023-07-11T09:52:27.000Z</time>
      </trkpt>
      <trkpt lat="45.7869" lon="4.86894">
        <ele>166.96877</ele>
        <time>2023-07-11T09:52:28.000Z</time>
      </trkpt>
      <trkpt lat="45.78693" lon="4.86904">
        <ele>166.98683</ele>
        <time>2023-07-11T09:52:29.000Z</time>
      </trkpt>
      <trkpt lat="45.78697" lon="4.86912">
        <ele>166.97604</ele>
        <time>2023-07-11T09:52:30.000Z</time>
      </trkpt>
      <trkpt lat="45.78701" lon="4.86919">
        <ele>167.03723</ele>
        <time>2023-07-11T09:52:31.000Z</time>
      </trkpt>
      <trkpt lat="45.78704" lon="4.86927">
        <ele>167.13271</ele>
        <time>2023-07-11T09:52:32.000Z</time>
      </trkpt>
      <trkpt lat="45.78708" lon="4.86935">
        <ele>167.22813</ele>
        <time>2023-07-11T09:52:33.000Z</time>
      </trkpt>
      <trkpt lat="45.78711" lon="4.86941">
        <ele>167.26205</ele>
        <time>2023-07-11T09:52:34.000Z</time>
      </trkpt>
      <trkpt lat="45.78716" lon="4.86949">
        <ele>167.27669</ele>
        <time>2023-07-11T09:52:35.000Z</time>
      </trkpt>
      <trkpt lat="45.78718" lon="4.86956">
        <ele>167.31454</ele>
        <time>2023-07-11T09:52:36.000Z</time>
      </trkpt>
      <trkpt lat="45.78721" lon="4.86964">
        <ele>167.31174</ele>
        <time>2023-07-11T09:52:37.000Z</time>
      </trkpt>
      <trkpt lat="45.78725" lon="4.86973">
        <ele>167.34746</ele>
        <time>2023-07-11T09:52:38.000Z</time>
      </trkpt>
      <trkpt lat="45.78728" lon="4.86981">
        <ele>167.42436</ele>
        <time>2023-07-11T09:52:39.000Z</time>
      </trkpt>
      <trkpt lat="45.7873" lon="4.86989">
        <ele>167.54405</ele>
        <time>2023-07-11T09:52:40.000Z</time>
      </trkpt>
      <trkpt lat="45.78733" lon="4.86998">
        <ele>167.65742</ele>
        <time>2023-07-11T09:52:41.000Z</time>
      </trkpt>
      <trkpt lat="45.78734" lon="4.87006">
        <ele>167.8381</ele>
        <time>2023-07-11T09:52:42.000Z</time>
      </trkpt>
      <trkpt lat="45.78735" lon="4.87015">
        <ele>167.99722</ele>
        <time>2023-07-11T09:52:43.000Z</time>
      </trkpt>
      <trkpt lat="45.78736" lon="4.87023">
        <ele>168.16457</ele>
        <time>2023-07-11T09:52:44.000Z</time>
      </trkpt>
      <trkpt lat="45.78737" lon="4.87029">
        <ele>168.28036</ele>
        <time>2023-07-11T09:52:45.000Z</time>
      </trkpt>
      <trkpt lat="45.78737" lon="4.87038">
        <ele>168.47809</ele>
        <time>2023-07-11T09:52:46.000Z</time>
      </trkpt>
      <trkpt lat="45.78738" lon="4.87047">
        <ele>168.68175</ele>
        <time>2023-07-11T09:52:47.000Z</time>
      </trkpt>
      <trkpt lat="45.78738" lon="4.87055">
        <ele>168.9221</ele>
        <time>2023-07-11T09:52:48.000Z</time>
      </trkpt>
      <trkpt lat="45.78738" lon="4.87065">
        <ele>169.22836</ele>
        <time>2023-07-11T09:52:49.000Z</time>
      </trkpt>
      <trkpt lat="45.78737" lon="4.87073">
        <ele>169.50731</ele>
        <time>2023-07-11T09:52:50.000Z</time>
      </trkpt>
      <trkpt lat="45.78738" lon="4.87082">
        <ele>169.75899</ele>
        <time>2023-07-11T09:52:51.000Z</time>
      </trkpt>
      <trkpt lat="45.78739" lon="4.87092">
        <ele>169.98102</ele>
        <time>2023-07-11T09:52:52.000Z</time>
      </trkpt>
      <trkpt lat="45.78739" lon="4.87101">
        <ele>170.24118</ele>
        <time>2023-07-11T09:52:53.000Z</time>
      </trkpt>
      <trkpt lat="45.7874" lon="4.87111">
        <ele>170.53415</ele>
        <time>2023-07-11T09:52:54.000Z</time>
      </trkpt>
      <trkpt lat="45.78741" lon="4.8712">
        <ele>170.89354</ele>
        <time>2023-07-11T09:52:55.000Z</time>
      </trkpt>
      <trkpt lat="45.78742" lon="4.87127">
        <ele>171.27402</ele>
        <time>2023-07-11T09:52:56.000Z</time>
      </trkpt>
      <trkpt lat="45.78742" lon="4.87135">
        <ele>171.7316</ele>
        <time>2023-07-11T09:52:57.000Z</time>
      </trkpt>
      <trkpt lat="45.78743" lon="4.87146">
        <ele>172.11313</ele>
        <time>2023-07-11T09:52:58.000Z</time>
      </trkpt>
      <trkpt lat="45.78742" lon="4.87157">
        <ele>172.444</ele>
        <time>2023-07-11T09:52:59.000Z</time>
      </trkpt>
      <trkpt lat="45.78744" lon="4.87166">
        <ele>172.70326</ele>
        <time>2023-07-11T09:53:00.000Z</time>
      </trkpt>
      <trkpt lat="45.78744" lon="4.87176">
        <ele>172.96028</ele>
        <time>2023-07-11T09:53:01.000Z</time>
      </trkpt>
      <trkpt lat="45.78745" lon="4.87184">
        <ele>173.18149</ele>
        <time>2023-07-11T09:53:02.000Z</time>
      </trkpt>
      <trkpt lat="45.78744" lon="4.87192">
        <ele>173.35347</ele>
        <time>2023-07-11T09:53:03.000Z</time>
      </trkpt>
      <trkpt lat="45.78744" lon="4.87202">
        <ele>173.5388</ele>
        <time>2023-07-11T09:53:04.000Z</time>
      </trkpt>
      <trkpt lat="45.78745" lon="4.87211">
        <ele>173.77153</ele>
        <time>2023-07-11T09:53:05.000Z</time>
      </trkpt>
      <trkpt lat="45.78744" lon="4.87219">
        <ele>173.87198</ele>
        <time>2023-07-11T09:53:06.000Z</time>
      </trkpt>
      <trkpt lat="45.78745" lon="4.87229">
        <ele>173.95512</ele>
        <time>2023-07-11T09:53:07.000Z</time>
      </trkpt>
      <trkpt lat="45.78747" lon="4.87237">
        <ele>174.02725</ele>
        <time>2023-07-11T09:53:08.000Z</time>
      </trkpt>
      <trkpt lat="45.78747" lon="4.87245">
        <ele>174.03091</ele>
        <time>2023-07-11T09:53:09.000Z</time>
      </trkpt>
      <trkpt lat="45.78747" lon="4.87253">
        <ele>174.05083</ele>
        <time>2023-07-11T09:53:10.000Z</time>
      </trkpt>
      <trkpt lat="45.78748" lon="4.87262">
        <ele>174.01833</ele>
        <time>2023-07-11T09:53:11.000Z</time>
      </trkpt>
      <trkpt lat="45.78751" lon="4.87269">
        <ele>173.99768</ele>
        <time>2023-07-11T09:53:12.000Z</time>
      </trkpt>
      <trkpt lat="45.78752" lon="4.87279">
        <ele>173.96066</ele>
        <time>2023-07-11T09:53:13.000Z</time>
      </trkpt>
      <trkpt lat="45.78753" lon="4.8729">
        <ele>173.9426</ele>
        <time>2023-07-11T09:53:14.000Z</time>
      </trkpt>
      <trkpt lat="45.78753" lon="4.87298">
        <ele>173.85905</ele>
        <time>2023-07-11T09:53:15.000Z</time>
      </trkpt>
      <trkpt lat="45.78752" lon="4.87305">
        <ele>173.78102</ele>
        <time>2023-07-11T09:53:16.000Z</time>
      </trkpt>
      <trkpt lat="45.78754" lon="4.87313">
        <ele>173.69055</ele>
        <time>2023-07-11T09:53:17.000Z</time>
      </trkpt>
      <trkpt lat="45.78756" lon="4.87323">
        <ele>173.63974</ele>
        <time>2023-07-11T09:53:18.000Z</time>
      </trkpt>
      <trkpt lat="45.78755" lon="4.87333">
        <ele>173.58868</ele>
        <time>2023-07-11T09:53:19.000Z</time>
      </trkpt>
      <trkpt lat="45.78755" lon="4.87344">
        <ele>173.55293</ele>
        <time>2023-07-11T09:53:20.000Z</time>
      </trkpt>
      <trkpt lat="45.78756" lon="4.87353">
        <ele>173.5186</ele>
        <time>2023-07-11T09:53:21.000Z</time>
      </trkpt>
      <trkpt lat="45.78758" lon="4.87362">
        <ele>173.4722</ele>
        <time>2023-07-11T09:53:22.000Z</time>
      </trkpt>
      <trkpt lat="45.7876" lon="4.8737">
        <ele>173.46994</ele>
        <time>2023-07-11T09:53:23.000Z</time>
      </trkpt>
      <trkpt lat="45.7876" lon="4.8738">
        <ele>173.44942</ele>
        <time>2023-07-11T09:53:24.000Z</time>
      </trkpt>
      <trkpt lat="45.78761" lon="4.87389">
        <ele>173.42963</ele>
        <time>2023-07-11T09:53:25.000Z</time>
      </trkpt>
      <trkpt lat="45.78762" lon="4.87398">
        <ele>173.44604</ele>
        <time>2023-07-11T09:53:26.000Z</time>
      </trkpt>
      <trkpt lat="45.78762" lon="4.87404">
        <ele>173.45677</ele>
        <time>2023-07-11T09:53:27.000Z</time>
      </trkpt>
      <trkpt lat="45.78764" lon="4.87413">
        <ele>173.36934</ele>
        <time>2023-07-11T09:53:28.000Z</time>
      </trkpt>
      <trkpt lat="45.78766" lon="4.87422">
        <ele>173.29538</ele>
        <time>2023-07-11T09:53:29.000Z</time>
      </trkpt>
      <trkpt lat="45.78767" lon="4.87431">
        <ele>173.2587</ele>
        <time>2023-07-11T09:53:30.000Z</time>
      </trkpt>
      <trkpt lat="45.78768" lon="4.87441">
        <ele>173.24179</ele>
        <time>2023-07-11T09:53:31.000Z</time>
      </trkpt>
      <trkpt lat="45.78771" lon="4.87452">
        <ele>173.28539</ele>
        <time>2023-07-11T09:53:32.000Z</time>
      </trkpt>
      <trkpt lat="45.78772" lon="4.87462">
        <ele>173.39719</ele>
        <time>2023-07-11T09:53:33.000Z</time>
      </trkpt>
      <trkpt lat="45.78772" lon="4.87468">
        <ele>173.45467</ele>
        <time>2023-07-11T09:53:34.000Z</time>
      </trkpt>
      <trkpt lat="45.78774" lon="4.87477">
        <ele>173.56412</ele>
        <time>2023-07-11T09:53:35.000Z</time>
      </trkpt>
      <trkpt lat="45.78775" lon="4.87487">
        <ele>173.64333</ele>
        <time>2023-07-11T09:53:36.000Z</time>
      </trkpt>
      <trkpt lat="45.78775" lon="4.87497">
        <ele>173.66959</ele>
        <time>2023-07-11T09:53:37.000Z</time>
      </trkpt>
      <trkpt lat="45.78775" lon="4.87506">
        <ele>173.71962</ele>
        <time>2023-07-11T09:53:38.000Z</time>
      </trkpt>
      <trkpt lat="45.78776" lon="4.87514">
        <ele>173.63237</ele>
        <time>2023-07-11T09:53:39.000Z</time>
      </trkpt>
      <trkpt lat="45.78778" lon="4.87523">
        <ele>173.61255</ele>
        <time>2023-07-11T09:53:40.000Z</time>
      </trkpt>
      <trkpt lat="45.78779" lon="4.87531">
        <ele>173.6097</ele>
        <time>2023-07-11T09:53:41.000Z</time>
      </trkpt>
      <trkpt lat="45.7878" lon="4.8754">
        <ele>173.60651</ele>
        <time>2023-07-11T09:53:42.000Z</time>
      </trkpt>
      <trkpt lat="45.78781" lon="4.87549">
        <ele>173.60788</ele>
        <time>2023-07-11T09:53:43.000Z</time>
      </trkpt>
      <trkpt lat="45.78781" lon="4.87556">
        <ele>173.59793</ele>
        <time>2023-07-11T09:53:44.000Z</time>
      </trkpt>
      <trkpt lat="45.78784" lon="4.87566">
        <ele>173.58484</ele>
        <time>2023-07-11T09:53:45.000Z</time>
      </trkpt>
      <trkpt lat="45.78786" lon="4.87574">
        <ele>173.59906</ele>
        <time>2023-07-11T09:53:46.000Z</time>
      </trkpt>
      <trkpt lat="45.78787" lon="4.87583">
        <ele>173.63457</ele>
        <time>2023-07-11T09:53:47.000Z</time>
      </trkpt>
      <trkpt lat="45.78786" lon="4.87589">
        <ele>173.74774</ele>
        <time>2023-07-11T09:53:48.000Z</time>
      </trkpt>
      <trkpt lat="45.78789" lon="4.87598">
        <ele>173.82098</ele>
        <time>2023-07-11T09:53:49.000Z</time>
      </trkpt>
      <trkpt lat="45.78789" lon="4.87607">
        <ele>173.87799</ele>
        <time>2023-07-11T09:53:50.000Z</time>
      </trkpt>
      <trkpt lat="45.78792" lon="4.87615">
        <ele>173.93771</ele>
        <time>2023-07-11T09:53:51.000Z</time>
      </trkpt>
      <trkpt lat="45.78792" lon="4.87624">
        <ele>173.89474</ele>
        <time>2023-07-11T09:53:52.000Z</time>
      </trkpt>
      <trkpt lat="45.78792" lon="4.87634">
        <ele>173.80312</ele>
        <time>2023-07-11T09:53:53.000Z</time>
      </trkpt>
      <trkpt lat="45.78793" lon="4.87643">
        <ele>173.72197</ele>
        <time>2023-07-11T09:53:54.000Z</time>
      </trkpt>
      <trkpt lat="45.78792" lon="4.87651">
        <ele>173.60822</ele>
        <time>2023-07-11T09:53:55.000Z</time>
      </trkpt>
      <trkpt lat="45.78796" lon="4.8766">
        <ele>173.48709</ele>
        <time>2023-07-11T09:53:56.000Z</time>
      </trkpt>
      <trkpt lat="45.78798" lon="4.87667">
        <ele>173.37418</ele>
        <time>2023-07-11T09:53:57.000Z</time>
      </trkpt>
      <trkpt lat="45.78801" lon="4.87675">
        <ele>173.22481</ele>
        <time>2023-07-11T09:53:58.000Z</time>
      </trkpt>
      <trkpt lat="45.78806" lon="4.87681">
        <ele>173.21402</ele>
        <time>2023-07-11T09:53:59.000Z</time>
      </trkpt>
      <trkpt lat="45.78812" lon="4.87685">
        <ele>173.15512</ele>
        <time>2023-07-11T09:54:00.000Z</time>
      </trkpt>
      <trkpt lat="45.78818" lon="4.8769">
        <ele>173.07123</ele>
        <time>2023-07-11T09:54:01.000Z</time>
      </trkpt>
      <trkpt lat="45.78823" lon="4.87696">
        <ele>172.97382</ele>
        <time>2023-07-11T09:54:02.000Z</time>
      </trkpt>
      <trkpt lat="45.78829" lon="4.87699">
        <ele>172.86172</ele>
        <time>2023-07-11T09:54:03.000Z</time>
      </trkpt>
      <trkpt lat="45.78834" lon="4.87704">
        <ele>172.75235</ele>
        <time>2023-07-11T09:54:04.000Z</time>
      </trkpt>
      <trkpt lat="45.7884" lon="4.87709">
        <ele>172.63498</ele>
        <time>2023-07-11T09:54:05.000Z</time>
      </trkpt>
      <trkpt lat="45.78846" lon="4.87714">
        <ele>172.50435</ele>
        <time>2023-07-11T09:54:06.000Z</time>
      </trkpt>
      <trkpt lat="45.78851" lon="4.87719">
        <ele>172.37822</ele>
        <time>2023-07-11T09:54:07.000Z</time>
      </trkpt>
      <trkpt lat="45.78857" lon="4.87724">
        <ele>172.23825</ele>
        <time>2023-07-11T09:54:08.000Z</time>
      </trkpt>
      <trkpt lat="45.78862" lon="4.87729">
        <ele>172.09683</ele>
        <time>2023-07-11T09:54:09.000Z</time>
      </trkpt>
      <trkpt lat="45.78868" lon="4.87734">
        <ele>171.92166</ele>
        <time>2023-07-11T09:54:10.000Z</time>
      </trkpt>
      <trkpt lat="45.78873" lon="4.87739">
        <ele>171.76651</ele>
        <time>2023-07-11T09:54:11.000Z</time>
      </trkpt>
      <trkpt lat="45.78879" lon="4.87744">
        <ele>171.6111</ele>
        <time>2023-07-11T09:54:12.000Z</time>
      </trkpt>
      <trkpt lat="45.78885" lon="4.87748">
        <ele>171.44247</ele>
        <time>2023-07-11T09:54:13.000Z</time>
      </trkpt>
      <trkpt lat="45.7889" lon="4.87753">
        <ele>171.29996</ele>
        <time>2023-07-11T09:54:14.000Z</time>
      </trkpt>
      <trkpt lat="45.78895" lon="4.87758">
        <ele>171.16098</ele>
        <time>2023-07-11T09:54:15.000Z</time>
      </trkpt>
      <trkpt lat="45.78901" lon="4.87763">
        <ele>171.05623</ele>
        <time>2023-07-11T09:54:16.000Z</time>
      </trkpt>
      <trkpt lat="45.78906" lon="4.87767">
        <ele>170.99446</ele>
        <time>2023-07-11T09:54:17.000Z</time>
      </trkpt>
      <trkpt lat="45.78912" lon="4.87772">
        <ele>170.93002</ele>
        <time>2023-07-11T09:54:18.000Z</time>
      </trkpt>
      <trkpt lat="45.78917" lon="4.87777">
        <ele>170.85915</ele>
        <time>2023-07-11T09:54:19.000Z</time>
      </trkpt>
      <trkpt lat="45.78922" lon="4.87782">
        <ele>170.81508</ele>
        <time>2023-07-11T09:54:20.000Z</time>
      </trkpt>
      <trkpt lat="45.78927" lon="4.87787">
        <ele>170.79202</ele>
        <time>2023-07-11T09:54:21.000Z</time>
      </trkpt>
      <trkpt lat="45.78932" lon="4.87792">
        <ele>170.76634</ele>
        <time>2023-07-11T09:54:22.000Z</time>
      </trkpt>
      <trkpt lat="45.78937" lon="4.87796">
        <ele>170.75629</ele>
        <time>2023-07-11T09:54:23.000Z</time>
      </trkpt>
      <trkpt lat="45.78943" lon="4.87801">
        <ele>170.76788</ele>
        <time>2023-07-11T09:54:24.000Z</time>
      </trkpt>
      <trkpt lat="45.78948" lon="4.87806">
        <ele>170.79962</ele>
        <time>2023-07-11T09:54:25.000Z</time>
      </trkpt>
      <trkpt lat="45.78953" lon="4.8781">
        <ele>170.83218</ele>
        <time>2023-07-11T09:54:26.000Z</time>
      </trkpt>
      <trkpt lat="45.78959" lon="4.87816">
        <ele>170.85936</ele>
        <time>2023-07-11T09:54:27.000Z</time>
      </trkpt>
      <trkpt lat="45.78964" lon="4.8782">
        <ele>170.8734</ele>
        <time>2023-07-11T09:54:28.000Z</time>
      </trkpt>
      <trkpt lat="45.7897" lon="4.87825">
        <ele>170.9072</ele>
        <time>2023-07-11T09:54:29.000Z</time>
      </trkpt>
      <trkpt lat="45.78975" lon="4.8783">
        <ele>170.96597</ele>
        <time>2023-07-11T09:54:30.000Z</time>
      </trkpt>
      <trkpt lat="45.7898" lon="4.87835">
        <ele>171.00504</ele>
        <time>2023-07-11T09:54:31.000Z</time>
      </trkpt>
      <trkpt lat="45.78986" lon="4.87839">
        <ele>171.07787</ele>
        <time>2023-07-11T09:54:32.000Z</time>
      </trkpt>
      <trkpt lat="45.78991" lon="4.87843">
        <ele>171.14291</ele>
        <time>2023-07-11T09:54:33.000Z</time>
      </trkpt>
      <trkpt lat="45.78997" lon="4.87848">
        <ele>171.2191</ele>
        <time>2023-07-11T09:54:34.000Z</time>
      </trkpt>
      <trkpt lat="45.79002" lon="4.87853">
        <ele>171.29221</ele>
        <time>2023-07-11T09:54:35.000Z</time>
      </trkpt>
      <trkpt lat="45.79007" lon="4.87858">
        <ele>171.349</ele>
        <time>2023-07-11T09:54:36.000Z</time>
      </trkpt>
      <trkpt lat="45.79012" lon="4.87863">
        <ele>171.3922</ele>
        <time>2023-07-11T09:54:37.000Z</time>
      </trkpt>
      <trkpt lat="45.79017" lon="4.87868">
        <ele>171.42101</ele>
        <time>2023-07-11T09:54:38.000Z</time>
      </trkpt>
      <trkpt lat="45.79023" lon="4.87873">
        <ele>171.46107</ele>
        <time>2023-07-11T09:54:39.000Z</time>
      </trkpt>
      <trkpt lat="45.79028" lon="4.87877">
        <ele>171.48935</ele>
        <time>2023-07-11T09:54:40.000Z</time>
      </trkpt>
      <trkpt lat="45.79033" lon="4.87882">
        <ele>171.51874</ele>
        <time>2023-07-11T09:54:41.000Z</time>
      </trkpt>
      <trkpt lat="45.79038" lon="4.87887">
        <ele>171.55698</ele>
        <time>2023-07-11T09:54:42.000Z</time>
      </trkpt>
      <trkpt lat="45.79043" lon="4.87892">
        <ele>171.60208</ele>
        <time>2023-07-11T09:54:43.000Z</time>
      </trkpt>
      <trkpt lat="45.79048" lon="4.87897">
        <ele>171.6431</ele>
        <time>2023-07-11T09:54:44.000Z</time>
      </trkpt>
      <trkpt lat="45.79053" lon="4.87901">
        <ele>171.67647</ele>
        <time>2023-07-11T09:54:45.000Z</time>
      </trkpt>
      <trkpt lat="45.79058" lon="4.87905">
        <ele>171.69899</ele>
        <time>2023-07-11T09:54:46.000Z</time>
      </trkpt>
      <trkpt lat="45.79063" lon="4.8791">
        <ele>171.7043</ele>
        <time>2023-07-11T09:54:47.000Z</time>
      </trkpt>
      <trkpt lat="45.79069" lon="4.87914">
        <ele>171.72879</ele>
        <time>2023-07-11T09:54:48.000Z</time>
      </trkpt>
      <trkpt lat="45.79074" lon="4.87919">
        <ele>171.74785</ele>
        <time>2023-07-11T09:54:49.000Z</time>
      </trkpt>
      <trkpt lat="45.79078" lon="4.87925">
        <ele>171.77907</ele>
        <time>2023-07-11T09:54:50.000Z</time>
      </trkpt>
      <trkpt lat="45.79082" lon="4.87932">
        <ele>171.8038</ele>
        <time>2023-07-11T09:54:51.000Z</time>
      </trkpt>
      <trkpt lat="45.79086" lon="4.87939">
        <ele>171.84433</ele>
        <time>2023-07-11T09:54:52.000Z</time>
      </trkpt>
      <trkpt lat="45.79091" lon="4.87946">
        <ele>171.90999</ele>
        <time>2023-07-11T09:54:53.000Z</time>
      </trkpt>
      <trkpt lat="45.79095" lon="4.87953">
        <ele>171.95792</ele>
        <time>2023-07-11T09:54:54.000Z</time>
      </trkpt>
      <trkpt lat="45.79098" lon="4.8796">
        <ele>172.0078</ele>
        <time>2023-07-11T09:54:55.000Z</time>
      </trkpt>
      <trkpt lat="45.79102" lon="4.87967">
        <ele>172.05843</ele>
        <time>2023-07-11T09:54:56.000Z</time>
      </trkpt>
      <trkpt lat="45.79105" lon="4.87975">
        <ele>172.10458</ele>
        <time>2023-07-11T09:54:57.000Z</time>
      </trkpt>
      <trkpt lat="45.79108" lon="4.87981">
        <ele>172.16684</ele>
        <time>2023-07-11T09:54:58.000Z</time>
      </trkpt>
      <trkpt lat="45.79111" lon="4.87989">
        <ele>172.24005</ele>
        <time>2023-07-11T09:54:59.000Z</time>
      </trkpt>
      <trkpt lat="45.79113" lon="4.87996">
        <ele>172.31148</ele>
        <time>2023-07-11T09:55:00.000Z</time>
      </trkpt>
      <trkpt lat="45.79116" lon="4.88005">
        <ele>172.39323</ele>
        <time>2023-07-11T09:55:01.000Z</time>
      </trkpt>
      <trkpt lat="45.79119" lon="4.88013">
        <ele>172.46191</ele>
        <time>2023-07-11T09:55:02.000Z</time>
      </trkpt>
      <trkpt lat="45.79121" lon="4.88022">
        <ele>172.52182</ele>
        <time>2023-07-11T09:55:03.000Z</time>
      </trkpt>
      <trkpt lat="45.79122" lon="4.8803">
        <ele>172.56418</ele>
        <time>2023-07-11T09:55:04.000Z</time>
      </trkpt>
      <trkpt lat="45.79124" lon="4.88039">
        <ele>172.6044</ele>
        <time>2023-07-11T09:55:05.000Z</time>
      </trkpt>
      <trkpt lat="45.79125" lon="4.88047">
        <ele>172.66226</ele>
        <time>2023-07-11T09:55:06.000Z</time>
      </trkpt>
      <trkpt lat="45.79126" lon="4.88055">
        <ele>172.7229</ele>
        <time>2023-07-11T09:55:07.000Z</time>
      </trkpt>
      <trkpt lat="45.79127" lon="4.88063">
        <ele>172.78125</ele>
        <time>2023-07-11T09:55:08.000Z</time>
      </trkpt>
      <trkpt lat="45.79127" lon="4.88072">
        <ele>172.84323</ele>
        <time>2023-07-11T09:55:09.000Z</time>
      </trkpt>
      <trkpt lat="45.79128" lon="4.88081">
        <ele>172.9015</ele>
        <time>2023-07-11T09:55:10.000Z</time>
      </trkpt>
      <trkpt lat="45.79129" lon="4.88089">
        <ele>172.96782</ele>
        <time>2023-07-11T09:55:11.000Z</time>
      </trkpt>
      <trkpt lat="45.79129" lon="4.88096">
        <ele>173.02943</ele>
        <time>2023-07-11T09:55:12.000Z</time>
      </trkpt>
      <trkpt lat="45.79128" lon="4.88104">
        <ele>173.07333</ele>
        <time>2023-07-11T09:55:13.000Z</time>
      </trkpt>
      <trkpt lat="45.79128" lon="4.88111">
        <ele>173.13092</ele>
        <time>2023-07-11T09:55:14.000Z</time>
      </trkpt>
      <trkpt lat="45.79127" lon="4.88117">
        <ele>173.17874</ele>
        <time>2023-07-11T09:55:15.000Z</time>
      </trkpt>
      <trkpt lat="45.79127" lon="4.88123">
        <ele>173.21556</ele>
        <time>2023-07-11T09:55:16.000Z</time>
      </trkpt>
      <trkpt lat="45.79127" lon="4.88129">
        <ele>173.2438</ele>
        <time>2023-07-11T09:55:17.000Z</time>
      </trkpt>
      <trkpt lat="45.79129" lon="4.88134">
        <ele>173.14619</ele>
        <time>2023-07-11T09:55:18.000Z</time>
      </trkpt>
      <trkpt lat="45.79133" lon="4.88137">
        <ele>173.04901</ele>
        <time>2023-07-11T09:55:19.000Z</time>
      </trkpt>
      <trkpt lat="45.79138" lon="4.88138">
        <ele>172.99802</ele>
        <time>2023-07-11T09:55:20.000Z</time>
      </trkpt>
      <trkpt lat="45.79143" lon="4.88137">
        <ele>172.94753</ele>
        <time>2023-07-11T09:55:21.000Z</time>
      </trkpt>
      <trkpt lat="45.79149" lon="4.88138">
        <ele>172.88516</ele>
        <time>2023-07-11T09:55:22.000Z</time>
      </trkpt>
      <trkpt lat="45.79154" lon="4.88137">
        <ele>172.92262</ele>
        <time>2023-07-11T09:55:23.000Z</time>
      </trkpt>
      <trkpt lat="45.7916" lon="4.88136">
        <ele>172.99661</ele>
        <time>2023-07-11T09:55:24.000Z</time>
      </trkpt>
      <trkpt lat="45.79166" lon="4.88136">
        <ele>173.07486</ele>
        <time>2023-07-11T09:55:25.000Z</time>
      </trkpt>
      <trkpt lat="45.79171" lon="4.88135">
        <ele>173.1573</ele>
        <time>2023-07-11T09:55:26.000Z</time>
      </trkpt>
      <trkpt lat="45.79178" lon="4.88133">
        <ele>173.21124</ele>
        <time>2023-07-11T09:55:27.000Z</time>
      </trkpt>
      <trkpt lat="45.79184" lon="4.88132">
        <ele>173.26071</ele>
        <time>2023-07-11T09:55:28.000Z</time>
      </trkpt>
      <trkpt lat="45.79189" lon="4.88128">
        <ele>173.28001</ele>
        <time>2023-07-11T09:55:29.000Z</time>
      </trkpt>
      <trkpt lat="45.79193" lon="4.88125">
        <ele>173.30264</ele>
        <time>2023-07-11T09:55:30.000Z</time>
      </trkpt>
      <trkpt lat="45.79198" lon="4.88121">
        <ele>173.33835</ele>
        <time>2023-07-11T09:55:31.000Z</time>
      </trkpt>
      <trkpt lat="45.79202" lon="4.88117">
        <ele>173.37473</ele>
        <time>2023-07-11T09:55:32.000Z</time>
      </trkpt>
      <trkpt lat="45.79208" lon="4.88114">
        <ele>173.41356</ele>
        <time>2023-07-11T09:55:33.000Z</time>
      </trkpt>
      <trkpt lat="45.79212" lon="4.8811">
        <ele>173.43652</ele>
        <time>2023-07-11T09:55:34.000Z</time>
      </trkpt>
      <trkpt lat="45.79217" lon="4.88104">
        <ele>173.44154</ele>
        <time>2023-07-11T09:55:35.000Z</time>
      </trkpt>
      <trkpt lat="45.79224" lon="4.881">
        <ele>173.42378</ele>
        <time>2023-07-11T09:55:36.000Z</time>
      </trkpt>
      <trkpt lat="45.7923" lon="4.88096">
        <ele>173.40964</ele>
        <time>2023-07-11T09:55:37.000Z</time>
      </trkpt>
      <trkpt lat="45.79236" lon="4.88093">
        <ele>173.50249</ele>
        <time>2023-07-11T09:55:38.000Z</time>
      </trkpt>
      <trkpt lat="45.79242" lon="4.88091">
        <ele>173.56354</ele>
        <time>2023-07-11T09:55:39.000Z</time>
      </trkpt>
      <trkpt lat="45.79247" lon="4.88087">
        <ele>173.60014</ele>
        <time>2023-07-11T09:55:40.000Z</time>
      </trkpt>
      <trkpt lat="45.79251" lon="4.88082">
        <ele>173.62677</ele>
        <time>2023-07-11T09:55:41.000Z</time>
      </trkpt>
      <trkpt lat="45.79256" lon="4.88078">
        <ele>173.6611</ele>
        <time>2023-07-11T09:55:42.000Z</time>
      </trkpt>
      <trkpt lat="45.7926" lon="4.88077">
        <ele>173.58746</ele>
        <time>2023-07-11T09:55:43.000Z</time>
      </trkpt>
      <trkpt lat="45.79265" lon="4.88078">
        <ele>173.44398</ele>
        <time>2023-07-11T09:55:44.000Z</time>
      </trkpt>
      <trkpt lat="45.7927" lon="4.8808">
        <ele>173.28708</ele>
        <time>2023-07-11T09:55:45.000Z</time>
      </trkpt>
      <trkpt lat="45.79273" lon="4.88084">
        <ele>173.15381</ele>
        <time>2023-07-11T09:55:46.000Z</time>
      </trkpt>
      <trkpt lat="45.79278" lon="4.8809">
        <ele>173.08253</ele>
        <time>2023-07-11T09:55:47.000Z</time>
      </trkpt>
      <trkpt lat="45.79282" lon="4.88095">
        <ele>172.99532</ele>
        <time>2023-07-11T09:55:48.000Z</time>
      </trkpt>
      <trkpt lat="45.79285" lon="4.881">
        <ele>172.91391</ele>
        <time>2023-07-11T09:55:49.000Z</time>
      </trkpt>
      <trkpt lat="45.79289" lon="4.88109">
        <ele>172.82184</ele>
        <time>2023-07-11T09:55:50.000Z</time>
      </trkpt>
      <trkpt lat="45.79292" lon="4.88117">
        <ele>172.73689</ele>
        <time>2023-07-11T09:55:51.000Z</time>
      </trkpt>
      <trkpt lat="45.79295" lon="4.88125">
        <ele>172.63989</ele>
        <time>2023-07-11T09:55:52.000Z</time>
      </trkpt>
      <trkpt lat="45.79297" lon="4.88132">
        <ele>172.52994</ele>
        <time>2023-07-11T09:55:53.000Z</time>
      </trkpt>
      <trkpt lat="45.79299" lon="4.88141">
        <ele>172.46295</ele>
        <time>2023-07-11T09:55:54.000Z</time>
      </trkpt>
      <trkpt lat="45.79301" lon="4.88149">
        <ele>172.41969</ele>
        <time>2023-07-11T09:55:55.000Z</time>
      </trkpt>
      <trkpt lat="45.79302" lon="4.88158">
        <ele>172.37979</ele>
        <time>2023-07-11T09:55:56.000Z</time>
      </trkpt>
      <trkpt lat="45.79303" lon="4.88166">
        <ele>172.35388</ele>
        <time>2023-07-11T09:55:57.000Z</time>
      </trkpt>
      <trkpt lat="45.79304" lon="4.88175">
        <ele>172.37419</ele>
        <time>2023-07-11T09:55:58.000Z</time>
      </trkpt>
      <trkpt lat="45.79305" lon="4.88184">
        <ele>172.42441</ele>
        <time>2023-07-11T09:55:59.000Z</time>
      </trkpt>
      <trkpt lat="45.79305" lon="4.88193">
        <ele>172.46727</ele>
        <time>2023-07-11T09:56:00.000Z</time>
      </trkpt>
      <trkpt lat="45.79305" lon="4.88203">
        <ele>172.51202</ele>
        <time>2023-07-11T09:56:01.000Z</time>
      </trkpt>
      <trkpt lat="45.79305" lon="4.88211">
        <ele>172.53616</ele>
        <time>2023-07-11T09:56:02.000Z</time>
      </trkpt>
      <trkpt lat="45.79305" lon="4.8822">
        <ele>172.55283</ele>
        <time>2023-07-11T09:56:03.000Z</time>
      </trkpt>
      <trkpt lat="45.79304" lon="4.8823">
        <ele>172.58414</ele>
        <time>2023-07-11T09:56:04.000Z</time>
      </trkpt>
      <trkpt lat="45.79303" lon="4.88239">
        <ele>172.63644</ele>
        <time>2023-07-11T09:56:05.000Z</time>
      </trkpt>
      <trkpt lat="45.79302" lon="4.88248">
        <ele>172.67221</ele>
        <time>2023-07-11T09:56:06.000Z</time>
      </trkpt>
      <trkpt lat="45.79301" lon="4.88258">
        <ele>172.67665</ele>
        <time>2023-07-11T09:56:07.000Z</time>
      </trkpt>
      <trkpt lat="45.793" lon="4.88267">
        <ele>172.6674</ele>
        <time>2023-07-11T09:56:08.000Z</time>
      </trkpt>
      <trkpt lat="45.79299" lon="4.88276">
        <ele>172.67543</ele>
        <time>2023-07-11T09:56:09.000Z</time>
      </trkpt>
      <trkpt lat="45.79298" lon="4.88284">
        <ele>172.67149</ele>
        <time>2023-07-11T09:56:10.000Z</time>
      </trkpt>
      <trkpt lat="45.79296" lon="4.88294">
        <ele>172.6409</ele>
        <time>2023-07-11T09:56:11.000Z</time>
      </trkpt>
      <trkpt lat="45.79293" lon="4.88302">
        <ele>172.62746</ele>
        <time>2023-07-11T09:56:12.000Z</time>
      </trkpt>
      <trkpt lat="45.79291" lon="4.8831">
        <ele>172.61301</ele>
        <time>2023-07-11T09:56:13.000Z</time>
      </trkpt>
      <trkpt lat="45.79288" lon="4.88317">
        <ele>172.55368</ele>
        <time>2023-07-11T09:56:14.000Z</time>
      </trkpt>
      <trkpt lat="45.79284" lon="4.88325">
        <ele>172.55322</ele>
        <time>2023-07-11T09:56:15.000Z</time>
      </trkpt>
      <trkpt lat="45.7928" lon="4.88333">
        <ele>172.5742</ele>
        <time>2023-07-11T09:56:16.000Z</time>
      </trkpt>
      <trkpt lat="45.79275" lon="4.88339">
        <ele>172.56241</ele>
        <time>2023-07-11T09:56:17.000Z</time>
      </trkpt>
      <trkpt lat="45.79271" lon="4.88346">
        <ele>172.53447</ele>
        <time>2023-07-11T09:56:18.000Z</time>
      </trkpt>
      <trkpt lat="45.79266" lon="4.88351">
        <ele>172.50343</ele>
        <time>2023-07-11T09:56:19.000Z</time>
      </trkpt>
      <trkpt lat="45.79261" lon="4.88357">
        <ele>172.45853</ele>
        <time>2023-07-11T09:56:20.000Z</time>
      </trkpt>
      <trkpt lat="45.79256" lon="4.88363">
        <ele>172.41786</ele>
        <time>2023-07-11T09:56:21.000Z</time>
      </trkpt>
      <trkpt lat="45.79251" lon="4.8837">
        <ele>172.42409</ele>
        <time>2023-07-11T09:56:22.000Z</time>
      </trkpt>
      <trkpt lat="45.79247" lon="4.88376">
        <ele>172.43365</ele>
        <time>2023-07-11T09:56:23.000Z</time>
      </trkpt>
      <trkpt lat="45.79243" lon="4.88382">
        <ele>172.51396</ele>
        <time>2023-07-11T09:56:24.000Z</time>
      </trkpt>
      <trkpt lat="45.79238" lon="4.88389">
        <ele>172.59325</ele>
        <time>2023-07-11T09:56:25.000Z</time>
      </trkpt>
      <trkpt lat="45.79234" lon="4.88395">
        <ele>172.65187</ele>
        <time>2023-07-11T09:56:26.000Z</time>
      </trkpt>
      <trkpt lat="45.7923" lon="4.884">
        <ele>172.73683</ele>
        <time>2023-07-11T09:56:27.000Z</time>
      </trkpt>
      <trkpt lat="45.79226" lon="4.88407">
        <ele>172.83139</ele>
        <time>2023-07-11T09:56:28.000Z</time>
      </trkpt>
      <trkpt lat="45.79223" lon="4.88415">
        <ele>172.90923</ele>
        <time>2023-07-11T09:56:29.000Z</time>
      </trkpt>
      <trkpt lat="45.79219" lon="4.88421">
        <ele>173.02626</ele>
        <time>2023-07-11T09:56:30.000Z</time>
      </trkpt>
      <trkpt lat="45.79214" lon="4.88427">
        <ele>173.16177</ele>
        <time>2023-07-11T09:56:31.000Z</time>
      </trkpt>
      <trkpt lat="45.7921" lon="4.88432">
        <ele>173.27481</ele>
        <time>2023-07-11T09:56:32.000Z</time>
      </trkpt>
      <trkpt lat="45.79205" lon="4.88439">
        <ele>173.41562</ele>
        <time>2023-07-11T09:56:33.000Z</time>
      </trkpt>
      <trkpt lat="45.79201" lon="4.88445">
        <ele>173.57368</ele>
        <time>2023-07-11T09:56:34.000Z</time>
      </trkpt>
      <trkpt lat="45.79197" lon="4.88451">
        <ele>173.67276</ele>
        <time>2023-07-11T09:56:35.000Z</time>
      </trkpt>
      <trkpt lat="45.79192" lon="4.88457">
        <ele>173.71252</ele>
        <time>2023-07-11T09:56:36.000Z</time>
      </trkpt>
      <trkpt lat="45.79188" lon="4.88464">
        <ele>173.78296</ele>
        <time>2023-07-11T09:56:37.000Z</time>
      </trkpt>
      <trkpt lat="45.79184" lon="4.8847">
        <ele>173.84068</ele>
        <time>2023-07-11T09:56:38.000Z</time>
      </trkpt>
      <trkpt lat="45.79179" lon="4.88476">
        <ele>173.90192</ele>
        <time>2023-07-11T09:56:39.000Z</time>
      </trkpt>
      <trkpt lat="45.79174" lon="4.88482">
        <ele>173.96173</ele>
        <time>2023-07-11T09:56:40.000Z</time>
      </trkpt>
      <trkpt lat="45.7917" lon="4.88487">
        <ele>175.26302</ele>
        <time>2023-07-11T09:56:41.000Z</time>
      </trkpt>
      <trkpt lat="45.79165" lon="4.88493">
        <ele>176.6844</ele>
        <time>2023-07-11T09:56:42.000Z</time>
      </trkpt>
      <trkpt lat="45.79159" lon="4.88497">
        <ele>178.10648</ele>
        <time>2023-07-11T09:56:43.000Z</time>
      </trkpt>
      <trkpt lat="45.79154" lon="4.88502">
        <ele>179.48103</ele>
        <time>2023-07-11T09:56:44.000Z</time>
      </trkpt>
      <trkpt lat="45.79149" lon="4.88506">
        <ele>180.83243</ele>
        <time>2023-07-11T09:56:45.000Z</time>
      </trkpt>
      <trkpt lat="45.79144" lon="4.88511">
        <ele>182.38063</ele>
        <time>2023-07-11T09:56:46.000Z</time>
      </trkpt>
      <trkpt lat="45.7914" lon="4.88515">
        <ele>183.75331</ele>
        <time>2023-07-11T09:56:47.000Z</time>
      </trkpt>
      <trkpt lat="45.79134" lon="4.8852">
        <ele>185.17023</ele>
        <time>2023-07-11T09:56:48.000Z</time>
      </trkpt>
      <trkpt lat="45.79129" lon="4.88525">
        <ele>186.68317</ele>
        <time>2023-07-11T09:56:49.000Z</time>
      </trkpt>
      <trkpt lat="45.79124" lon="4.88529">
        <ele>188.14383</ele>
        <time>2023-07-11T09:56:50.000Z</time>
      </trkpt>
      <trkpt lat="45.79119" lon="4.88532">
        <ele>189.59</ele>
        <time>2023-07-11T09:56:51.000Z</time>
      </trkpt>
      <trkpt lat="45.79114" lon="4.88536">
        <ele>191.15189</ele>
        <time>2023-07-11T09:56:52.000Z</time>
      </trkpt>
      <trkpt lat="45.79109" lon="4.88542">
        <ele>192.54243</ele>
        <time>2023-07-11T09:56:53.000Z</time>
      </trkpt>
      <trkpt lat="45.79103" lon="4.88546">
        <ele>193.86937</ele>
        <time>2023-07-11T09:56:54.000Z</time>
      </trkpt>
      <trkpt lat="45.79098" lon="4.88551">
        <ele>195.61154</ele>
        <time>2023-07-11T09:56:55.000Z</time>
      </trkpt>
      <trkpt lat="45.79093" lon="4.88557">
        <ele>197.6171</ele>
        <time>2023-07-11T09:56:56.000Z</time>
      </trkpt>
      <trkpt lat="45.79087" lon="4.88563">
        <ele>199.46536</ele>
        <time>2023-07-11T09:56:57.000Z</time>
      </trkpt>
      <trkpt lat="45.79082" lon="4.88569">
        <ele>201.59642</ele>
        <time>2023-07-11T09:56:58.000Z</time>
      </trkpt>
      <trkpt lat="45.79076" lon="4.88574">
        <ele>202.90576</ele>
        <time>2023-07-11T09:56:59.000Z</time>
      </trkpt>
      <trkpt lat="45.79071" lon="4.88581">
        <ele>204.28456</ele>
        <time>2023-07-11T09:57:00.000Z</time>
      </trkpt>
      <trkpt lat="45.79065" lon="4.88585">
        <ele>204.38751</ele>
        <time>2023-07-11T09:57:01.000Z</time>
      </trkpt>
      <trkpt lat="45.79059" lon="4.88589">
        <ele>204.34543</ele>
        <time>2023-07-11T09:57:02.000Z</time>
      </trkpt>
      <trkpt lat="45.79054" lon="4.88595">
        <ele>204.31256</ele>
        <time>2023-07-11T09:57:03.000Z</time>
      </trkpt>
      <trkpt lat="45.79049" lon="4.886">
        <ele>204.29138</ele>
        <time>2023-07-11T09:57:04.000Z</time>
      </trkpt>
      <trkpt lat="45.79044" lon="4.88604">
        <ele>204.29309</ele>
        <time>2023-07-11T09:57:05.000Z</time>
      </trkpt>
      <trkpt lat="45.79038" lon="4.8861">
        <ele>204.10803</ele>
        <time>2023-07-11T09:57:06.000Z</time>
      </trkpt>
      <trkpt lat="45.79033" lon="4.88615">
        <ele>204.06503</ele>
        <time>2023-07-11T09:57:07.000Z</time>
      </trkpt>
      <trkpt lat="45.79028" lon="4.88619">
        <ele>203.98428</ele>
        <time>2023-07-11T09:57:08.000Z</time>
      </trkpt>
      <trkpt lat="45.79022" lon="4.88624">
        <ele>203.80997</ele>
        <time>2023-07-11T09:57:09.000Z</time>
      </trkpt>
      <trkpt lat="45.79017" lon="4.88629">
        <ele>203.67793</ele>
        <time>2023-07-11T09:57:10.000Z</time>
      </trkpt>
      <trkpt lat="45.79012" lon="4.88635">
        <ele>203.57108</ele>
        <time>2023-07-11T09:57:11.000Z</time>
      </trkpt>
      <trkpt lat="45.79006" lon="4.8864">
        <ele>203.35609</ele>
        <time>2023-07-11T09:57:12.000Z</time>
      </trkpt>
      <trkpt lat="45.79" lon="4.88646">
        <ele>203.65468</ele>
        <time>2023-07-11T09:57:13.000Z</time>
      </trkpt>
      <trkpt lat="45.78994" lon="4.8865">
        <ele>204.27396</ele>
        <time>2023-07-11T09:57:14.000Z</time>
      </trkpt>
      <trkpt lat="45.78989" lon="4.88654">
        <ele>204.50319</ele>
        <time>2023-07-11T09:57:15.000Z</time>
      </trkpt>
      <trkpt lat="45.78984" lon="4.88659">
        <ele>203.71664</ele>
        <time>2023-07-11T09:57:16.000Z</time>
      </trkpt>
      <trkpt lat="45.78979" lon="4.88664">
        <ele>203.22258</ele>
        <time>2023-07-11T09:57:17.000Z</time>
      </trkpt>
      <trkpt lat="45.78975" lon="4.88669">
        <ele>202.44452</ele>
        <time>2023-07-11T09:57:18.000Z</time>
      </trkpt>
      <trkpt lat="45.78969" lon="4.88675">
        <ele>202.48781</ele>
        <time>2023-07-11T09:57:19.000Z</time>
      </trkpt>
      <trkpt lat="45.78964" lon="4.88681">
        <ele>202.46193</ele>
        <time>2023-07-11T09:57:20.000Z</time>
      </trkpt>
      <trkpt lat="45.78959" lon="4.88686">
        <ele>202.47147</ele>
        <time>2023-07-11T09:57:21.000Z</time>
      </trkpt>
      <trkpt lat="45.78955" lon="4.88691">
        <ele>202.47292</ele>
        <time>2023-07-11T09:57:22.000Z</time>
      </trkpt>
      <trkpt lat="45.7895" lon="4.88698">
        <ele>202.52231</ele>
        <time>2023-07-11T09:57:23.000Z</time>
      </trkpt>
      <trkpt lat="45.78945" lon="4.88704">
        <ele>202.60155</ele>
        <time>2023-07-11T09:57:24.000Z</time>
      </trkpt>
      <trkpt lat="45.7894" lon="4.8871">
        <ele>202.74496</ele>
        <time>2023-07-11T09:57:25.000Z</time>
      </trkpt>
      <trkpt lat="45.78935" lon="4.88715">
        <ele>202.92752</ele>
        <time>2023-07-11T09:57:26.000Z</time>
      </trkpt>
      <trkpt lat="45.7893" lon="4.88722">
        <ele>202.99472</ele>
        <time>2023-07-11T09:57:27.000Z</time>
      </trkpt>
      <trkpt lat="45.78926" lon="4.88728">
        <ele>203.03311</ele>
        <time>2023-07-11T09:57:28.000Z</time>
      </trkpt>
      <trkpt lat="45.78921" lon="4.88734">
        <ele>203.07114</ele>
        <time>2023-07-11T09:57:29.000Z</time>
      </trkpt>
      <trkpt lat="45.78916" lon="4.88739">
        <ele>203.0829</ele>
        <time>2023-07-11T09:57:30.000Z</time>
      </trkpt>
      <trkpt lat="45.78911" lon="4.88746">
        <ele>203.05734</ele>
        <time>2023-07-11T09:57:31.000Z</time>
      </trkpt>
      <trkpt lat="45.78906" lon="4.8875">
        <ele>203.03604</ele>
        <time>2023-07-11T09:57:32.000Z</time>
      </trkpt>
      <trkpt lat="45.78901" lon="4.88756">
        <ele>202.64491</ele>
        <time>2023-07-11T09:57:33.000Z</time>
      </trkpt>
      <trkpt lat="45.78896" lon="4.88762">
        <ele>202.37941</ele>
        <time>2023-07-11T09:57:34.000Z</time>
      </trkpt>
      <trkpt lat="45.78891" lon="4.88769">
        <ele>202.14624</ele>
        <time>2023-07-11T09:57:35.000Z</time>
      </trkpt>
      <trkpt lat="45.78887" lon="4.88775">
        <ele>202.74162</ele>
        <time>2023-07-11T09:57:36.000Z</time>
      </trkpt>
      <trkpt lat="45.78883" lon="4.88782">
        <ele>203.22832</ele>
        <time>2023-07-11T09:57:37.000Z</time>
      </trkpt>
      <trkpt lat="45.78879" lon="4.8879">
        <ele>202.66719</ele>
        <time>2023-07-11T09:57:38.000Z</time>
      </trkpt>
      <trkpt lat="45.78875" lon="4.88795">
        <ele>201.42839</ele>
        <time>2023-07-11T09:57:39.000Z</time>
      </trkpt>
      <trkpt lat="45.78872" lon="4.88802">
        <ele>200.18787</ele>
        <time>2023-07-11T09:57:40.000Z</time>
      </trkpt>
      <trkpt lat="45.78868" lon="4.88809">
        <ele>201.20866</ele>
        <time>2023-07-11T09:57:41.000Z</time>
      </trkpt>
      <trkpt lat="45.78863" lon="4.88815">
        <ele>201.53067</ele>
        <time>2023-07-11T09:57:42.000Z</time>
      </trkpt>
      <trkpt lat="45.7886" lon="4.88823">
        <ele>201.86369</ele>
        <time>2023-07-11T09:57:43.000Z</time>
      </trkpt>
      <trkpt lat="45.78856" lon="4.8883">
        <ele>202.15167</ele>
        <time>2023-07-11T09:57:44.000Z</time>
      </trkpt>
      <trkpt lat="45.78853" lon="4.88838">
        <ele>202.27933</ele>
        <time>2023-07-11T09:57:45.000Z</time>
      </trkpt>
      <trkpt lat="45.78849" lon="4.88846">
        <ele>202.46072</ele>
        <time>2023-07-11T09:57:46.000Z</time>
      </trkpt>
      <trkpt lat="45.78845" lon="4.88854">
        <ele>202.74677</ele>
        <time>2023-07-11T09:57:47.000Z</time>
      </trkpt>
      <trkpt lat="45.78841" lon="4.8886">
        <ele>203.08078</ele>
        <time>2023-07-11T09:57:48.000Z</time>
      </trkpt>
      <trkpt lat="45.78838" lon="4.88867">
        <ele>203.40918</ele>
        <time>2023-07-11T09:57:49.000Z</time>
      </trkpt>
      <trkpt lat="45.78835" lon="4.88875">
        <ele>203.94943</ele>
        <time>2023-07-11T09:57:50.000Z</time>
      </trkpt>
      <trkpt lat="45.7883" lon="4.88883">
        <ele>204.52936</ele>
        <time>2023-07-11T09:57:51.000Z</time>
      </trkpt>
      <trkpt lat="45.78827" lon="4.8889">
        <ele>205.12558</ele>
        <time>2023-07-11T09:57:52.000Z</time>
      </trkpt>
      <trkpt lat="45.78823" lon="4.88897">
        <ele>205.63115</ele>
        <time>2023-07-11T09:57:53.000Z</time>
      </trkpt>
      <trkpt lat="45.7882" lon="4.88903">
        <ele>205.70183</ele>
        <time>2023-07-11T09:57:54.000Z</time>
      </trkpt>
      <trkpt lat="45.78817" lon="4.88911">
        <ele>205.70041</ele>
        <time>2023-07-11T09:57:55.000Z</time>
      </trkpt>
      <trkpt lat="45.78815" lon="4.88917">
        <ele>205.53809</ele>
        <time>2023-07-11T09:57:56.000Z</time>
      </trkpt>
      <trkpt lat="45.78811" lon="4.88924">
        <ele>205.36198</ele>
        <time>2023-07-11T09:57:57.000Z</time>
      </trkpt>
      <trkpt lat="45.78806" lon="4.88931">
        <ele>206.03857</ele>
        <time>2023-07-11T09:57:58.000Z</time>
      </trkpt>
      <trkpt lat="45.78804" lon="4.88939">
        <ele>207.21475</ele>
        <time>2023-07-11T09:57:59.000Z</time>
      </trkpt>
      <trkpt lat="45.78801" lon="4.88945">
        <ele>208.44539</ele>
        <time>2023-07-11T09:58:00.000Z</time>
      </trkpt>
      <trkpt lat="45.78797" lon="4.88952">
        <ele>207.56526</ele>
        <time>2023-07-11T09:58:01.000Z</time>
      </trkpt>
      <trkpt lat="45.78793" lon="4.88959">
        <ele>207.4451</ele>
        <time>2023-07-11T09:58:02.000Z</time>
      </trkpt>
      <trkpt lat="45.7879" lon="4.88967">
        <ele>207.22934</ele>
        <time>2023-07-11T09:58:03.000Z</time>
      </trkpt>
      <trkpt lat="45.78786" lon="4.88972">
        <ele>206.98648</ele>
        <time>2023-07-11T09:58:04.000Z</time>
      </trkpt>
      <trkpt lat="45.78782" lon="4.88978">
        <ele>206.68575</ele>
        <time>2023-07-11T09:58:05.000Z</time>
      </trkpt>
      <trkpt lat="45.78777" lon="4.88984">
        <ele>206.29292</ele>
        <time>2023-07-11T09:58:06.000Z</time>
      </trkpt>
      <trkpt lat="45.78773" lon="4.88991">
        <ele>205.8625</ele>
        <time>2023-07-11T09:58:07.000Z</time>
      </trkpt>
      <trkpt lat="45.78769" lon="4.88997">
        <ele>205.43265</ele>
        <time>2023-07-11T09:58:08.000Z</time>
      </trkpt>
      <trkpt lat="45.78765" lon="4.89002">
        <ele>205.06914</ele>
        <time>2023-07-11T09:58:09.000Z</time>
      </trkpt>
      <trkpt lat="45.78761" lon="4.89009">
        <ele>204.46954</ele>
        <time>2023-07-11T09:58:10.000Z</time>
      </trkpt>
      <trkpt lat="45.78757" lon="4.89015">
        <ele>203.85648</ele>
        <time>2023-07-11T09:58:11.000Z</time>
      </trkpt>
      <trkpt lat="45.78752" lon="4.89022">
        <ele>203.2305</ele>
        <time>2023-07-11T09:58:12.000Z</time>
      </trkpt>
      <trkpt lat="45.78747" lon="4.89028">
        <ele>202.69098</ele>
        <time>2023-07-11T09:58:13.000Z</time>
      </trkpt>
      <trkpt lat="45.78743" lon="4.89034">
        <ele>202.19455</ele>
        <time>2023-07-11T09:58:14.000Z</time>
      </trkpt>
      <trkpt lat="45.78738" lon="4.8904">
        <ele>201.71336</ele>
        <time>2023-07-11T09:58:15.000Z</time>
      </trkpt>
      <trkpt lat="45.78733" lon="4.89046">
        <ele>201.35651</ele>
        <time>2023-07-11T09:58:16.000Z</time>
      </trkpt>
      <trkpt lat="45.78729" lon="4.89051">
        <ele>200.98296</ele>
        <time>2023-07-11T09:58:17.000Z</time>
      </trkpt>
      <trkpt lat="45.78725" lon="4.89057">
        <ele>200.80916</ele>
        <time>2023-07-11T09:58:18.000Z</time>
      </trkpt>
      <trkpt lat="45.7872" lon="4.89063">
        <ele>200.82417</ele>
        <time>2023-07-11T09:58:19.000Z</time>
      </trkpt>
      <trkpt lat="45.78714" lon="4.89068">
        <ele>200.79872</ele>
        <time>2023-07-11T09:58:20.000Z</time>
      </trkpt>
      <trkpt lat="45.78708" lon="4.89072">
        <ele>200.63922</ele>
        <time>2023-07-11T09:58:21.000Z</time>
      </trkpt>
      <trkpt lat="45.78702" lon="4.89076">
        <ele>200.43002</ele>
        <time>2023-07-11T09:58:22.000Z</time>
      </trkpt>
      <trkpt lat="45.78696" lon="4.8908">
        <ele>200.46147</ele>
        <time>2023-07-11T09:58:23.000Z</time>
      </trkpt>
      <trkpt lat="45.7869" lon="4.89084">
        <ele>200.68874</ele>
        <time>2023-07-11T09:58:24.000Z</time>
      </trkpt>
      <trkpt lat="45.78684" lon="4.8909">
        <ele>201.1646</ele>
        <time>2023-07-11T09:58:25.000Z</time>
      </trkpt>
      <trkpt lat="45.78681" lon="4.89096">
        <ele>201.4751</ele>
        <time>2023-07-11T09:58:26.000Z</time>
      </trkpt>
      <trkpt lat="45.78675" lon="4.89101">
        <ele>201.86424</ele>
        <time>2023-07-11T09:58:27.000Z</time>
      </trkpt>
      <trkpt lat="45.78669" lon="4.89105">
        <ele>202.33313</ele>
        <time>2023-07-11T09:58:28.000Z</time>
      </trkpt>
      <trkpt lat="45.78664" lon="4.89109">
        <ele>202.85339</ele>
        <time>2023-07-11T09:58:29.000Z</time>
      </trkpt>
      <trkpt lat="45.78659" lon="4.89115">
        <ele>203.397</ele>
        <time>2023-07-11T09:58:30.000Z</time>
      </trkpt>
      <trkpt lat="45.78655" lon="4.89121">
        <ele>204.09601</ele>
        <time>2023-07-11T09:58:31.000Z</time>
      </trkpt>
      <trkpt lat="45.7865" lon="4.89126">
        <ele>204.642</ele>
        <time>2023-07-11T09:58:32.000Z</time>
      </trkpt>
      <trkpt lat="45.78645" lon="4.89131">
        <ele>205.07614</ele>
        <time>2023-07-11T09:58:33.000Z</time>
      </trkpt>
      <trkpt lat="45.7864" lon="4.89134">
        <ele>205.51028</ele>
        <time>2023-07-11T09:58:34.000Z</time>
      </trkpt>
      <trkpt lat="45.78636" lon="4.89139">
        <ele>205.98938</ele>
        <time>2023-07-11T09:58:35.000Z</time>
      </trkpt>
      <trkpt lat="45.7863" lon="4.89144">
        <ele>206.55032</ele>
        <time>2023-07-11T09:58:36.000Z</time>
      </trkpt>
      <trkpt lat="45.78624" lon="4.89146">
        <ele>207.3055</ele>
        <time>2023-07-11T09:58:37.000Z</time>
      </trkpt>
      <trkpt lat="45.78619" lon="4.89153">
        <ele>208.17107</ele>
        <time>2023-07-11T09:58:38.000Z</time>
      </trkpt>
      <trkpt lat="45.78612" lon="4.89158">
        <ele>208.89572</ele>
        <time>2023-07-11T09:58:39.000Z</time>
      </trkpt>
      <trkpt lat="45.78607" lon="4.89161">
        <ele>209.51859</ele>
        <time>2023-07-11T09:58:40.000Z</time>
      </trkpt>
      <trkpt lat="45.78602" lon="4.89164">
        <ele>209.89738</ele>
        <time>2023-07-11T09:58:41.000Z</time>
      </trkpt>
      <trkpt lat="45.78595" lon="4.89164">
        <ele>210.84134</ele>
        <time>2023-07-11T09:58:42.000Z</time>
      </trkpt>
      <trkpt lat="45.7859" lon="4.89168">
        <ele>211.84164</ele>
        <time>2023-07-11T09:58:43.000Z</time>
      </trkpt>
      <trkpt lat="45.78584" lon="4.89171">
        <ele>211.60815</ele>
        <time>2023-07-11T09:58:44.000Z</time>
      </trkpt>
      <trkpt lat="45.78578" lon="4.89175">
        <ele>211.50542</ele>
        <time>2023-07-11T09:58:45.000Z</time>
      </trkpt>
      <trkpt lat="45.78572" lon="4.89178">
        <ele>211.53333</ele>
        <time>2023-07-11T09:58:46.000Z</time>
      </trkpt>
      <trkpt lat="45.78567" lon="4.89181">
        <ele>211.55966</ele>
        <time>2023-07-11T09:58:47.000Z</time>
      </trkpt>
      <trkpt lat="45.78562" lon="4.89185">
        <ele>211.41919</ele>
        <time>2023-07-11T09:58:48.000Z</time>
      </trkpt>
      <trkpt lat="45.78557" lon="4.8919">
        <ele>211.29785</ele>
        <time>2023-07-11T09:58:49.000Z</time>
      </trkpt>
      <trkpt lat="45.7855" lon="4.89194">
        <ele>211.21118</ele>
        <time>2023-07-11T09:58:50.000Z</time>
      </trkpt>
      <trkpt lat="45.78544" lon="4.89196">
        <ele>210.98816</ele>
        <time>2023-07-11T09:58:51.000Z</time>
      </trkpt>
      <trkpt lat="45.78538" lon="4.89198">
        <ele>210.77829</ele>
        <time>2023-07-11T09:58:52.000Z</time>
      </trkpt>
      <trkpt lat="45.78533" lon="4.892">
        <ele>210.94942</ele>
        <time>2023-07-11T09:58:53.000Z</time>
      </trkpt>
      <trkpt lat="45.78526" lon="4.89203">
        <ele>211.3031</ele>
        <time>2023-07-11T09:58:54.000Z</time>
      </trkpt>
      <trkpt lat="45.78521" lon="4.89208">
        <ele>211.62643</ele>
        <time>2023-07-11T09:58:55.000Z</time>
      </trkpt>
      <trkpt lat="45.78516" lon="4.89212">
        <ele>211.75314</ele>
        <time>2023-07-11T09:58:56.000Z</time>
      </trkpt>
      <trkpt lat="45.78511" lon="4.89214">
        <ele>211.61624</ele>
        <time>2023-07-11T09:58:57.000Z</time>
      </trkpt>
      <trkpt lat="45.78506" lon="4.89215">
        <ele>211.48222</ele>
        <time>2023-07-11T09:58:58.000Z</time>
      </trkpt>
      <trkpt lat="45.785" lon="4.89219">
        <ele>211.55367</ele>
        <time>2023-07-11T09:58:59.000Z</time>
      </trkpt>
      <trkpt lat="45.78495" lon="4.89222">
        <ele>211.69893</ele>
        <time>2023-07-11T09:59:00.000Z</time>
      </trkpt>
      <trkpt lat="45.7849" lon="4.89225">
        <ele>211.88969</ele>
        <time>2023-07-11T09:59:01.000Z</time>
      </trkpt>
      <trkpt lat="45.78484" lon="4.89229">
        <ele>211.39798</ele>
        <time>2023-07-11T09:59:02.000Z</time>
      </trkpt>
      <trkpt lat="45.78479" lon="4.89232">
        <ele>210.43802</ele>
        <time>2023-07-11T09:59:03.000Z</time>
      </trkpt>
      <trkpt lat="45.78474" lon="4.89236">
        <ele>210.4895</ele>
        <time>2023-07-11T09:59:04.000Z</time>
      </trkpt>
      <trkpt lat="45.78469" lon="4.89239">
        <ele>210.32632</ele>
        <time>2023-07-11T09:59:05.000Z</time>
      </trkpt>
      <trkpt lat="45.78464" lon="4.89242">
        <ele>210.02036</ele>
        <time>2023-07-11T09:59:06.000Z</time>
      </trkpt>
      <trkpt lat="45.7846" lon="4.89246">
        <ele>209.67952</ele>
        <time>2023-07-11T09:59:07.000Z</time>
      </trkpt>
      <trkpt lat="45.78455" lon="4.89247">
        <ele>209.39043</ele>
        <time>2023-07-11T09:59:08.000Z</time>
      </trkpt>
      <trkpt lat="45.78451" lon="4.89247">
        <ele>208.97876</ele>
        <time>2023-07-11T09:59:09.000Z</time>
      </trkpt>
      <trkpt lat="45.78448" lon="4.89243">
        <ele>208.55717</ele>
        <time>2023-07-11T09:59:10.000Z</time>
      </trkpt>
      <trkpt lat="45.78447" lon="4.89237">
        <ele>208.11423</ele>
        <time>2023-07-11T09:59:11.000Z</time>
      </trkpt>
      <trkpt lat="45.78447" lon="4.89231">
        <ele>207.81169</ele>
        <time>2023-07-11T09:59:12.000Z</time>
      </trkpt>
      <trkpt lat="45.78449" lon="4.89225">
        <ele>207.29131</ele>
        <time>2023-07-11T09:59:13.000Z</time>
      </trkpt>
      <trkpt lat="45.7845" lon="4.8922">
        <ele>206.97763</ele>
        <time>2023-07-11T09:59:14.000Z</time>
      </trkpt>
      <trkpt lat="45.78447" lon="4.89215">
        <ele>207.06238</ele>
        <time>2023-07-11T09:59:15.000Z</time>
      </trkpt>
      <trkpt lat="45.78444" lon="4.89212">
        <ele>207.20605</ele>
        <time>2023-07-11T09:59:16.000Z</time>
      </trkpt>
      <trkpt lat="45.7844" lon="4.89212">
        <ele>207.58609</ele>
        <time>2023-07-11T09:59:17.000Z</time>
      </trkpt>
      <trkpt lat="45.78436" lon="4.89213">
        <ele>207.64114</ele>
        <time>2023-07-11T09:59:18.000Z</time>
      </trkpt>
      <trkpt lat="45.78432" lon="4.89216">
        <ele>206.81302</ele>
        <time>2023-07-11T09:59:19.000Z</time>
      </trkpt>
      <trkpt lat="45.78429" lon="4.89217">
        <ele>206.12939</ele>
        <time>2023-07-11T09:59:20.000Z</time>
      </trkpt>
      <trkpt lat="45.78426" lon="4.89219">
        <ele>205.54993</ele>
        <time>2023-07-11T09:59:21.000Z</time>
      </trkpt>
      <trkpt lat="45.78423" lon="4.89222">
        <ele>205.09061</ele>
        <time>2023-07-11T09:59:22.000Z</time>
      </trkpt>
      <trkpt lat="45.78421" lon="4.89223">
        <ele>204.97359</ele>
        <time>2023-07-11T09:59:23.000Z</time>
      </trkpt>
      <trkpt lat="45.78419" lon="4.89224">
        <ele>204.80814</ele>
        <time>2023-07-11T09:59:25.000Z</time>
      </trkpt>
      <trkpt lat="45.78417" lon="4.89225">
        <ele>204.60709</ele>
        <time>2023-07-11T09:59:27.000Z</time>
      </trkpt>
      <trkpt lat="45.78415" lon="4.89224">
        <ele>204.55452</ele>
        <time>2023-07-11T09:59:30.000Z</time>
      </trkpt>
      <trkpt lat="45.78412" lon="4.89222">
        <ele>204.51675</ele>
        <time>2023-07-11T09:59:31.000Z</time>
      </trkpt>
      <trkpt lat="45.78409" lon="4.89218">
        <ele>204.64897</ele>
        <time>2023-07-11T09:59:32.000Z</time>
      </trkpt>
      <trkpt lat="45.78405" lon="4.89214">
        <ele>204.76605</ele>
        <time>2023-07-11T09:59:33.000Z</time>
      </trkpt>
      <trkpt lat="45.78403" lon="4.8921">
        <ele>204.73663</ele>
        <time>2023-07-11T09:59:34.000Z</time>
      </trkpt>
      <trkpt lat="45.78401" lon="4.89205">
        <ele>204.66971</ele>
        <time>2023-07-11T09:59:35.000Z</time>
      </trkpt>
      <trkpt lat="45.78402" lon="4.89199">
        <ele>204.60933</ele>
        <time>2023-07-11T09:59:36.000Z</time>
      </trkpt>
      <trkpt lat="45.78404" lon="4.89194">
        <ele>204.53946</ele>
        <time>2023-07-11T09:59:37.000Z</time>
      </trkpt>
      <trkpt lat="45.78407" lon="4.89189">
        <ele>204.09799</ele>
        <time>2023-07-11T09:59:38.000Z</time>
      </trkpt>
      <trkpt lat="45.78412" lon="4.89187">
        <ele>203.27673</ele>
        <time>2023-07-11T09:59:39.000Z</time>
      </trkpt>
      <trkpt lat="45.78416" lon="4.89184">
        <ele>202.55104</ele>
        <time>2023-07-11T09:59:40.000Z</time>
      </trkpt>
      <trkpt lat="45.7842" lon="4.89182">
        <ele>201.66391</ele>
        <time>2023-07-11T09:59:41.000Z</time>
      </trkpt>
      <trkpt lat="45.78424" lon="4.89178">
        <ele>201.00436</ele>
        <time>2023-07-11T09:59:42.000Z</time>
      </trkpt>
      <trkpt lat="45.78427" lon="4.89174">
        <ele>201.16394</ele>
        <time>2023-07-11T09:59:43.000Z</time>
      </trkpt>
      <trkpt lat="45.7843" lon="4.89169">
        <ele>201.20993</ele>
        <time>2023-07-11T09:59:44.000Z</time>
      </trkpt>
      <trkpt lat="45.78429" lon="4.89163">
        <ele>201.32935</ele>
        <time>2023-07-11T09:59:45.000Z</time>
      </trkpt>
      <trkpt lat="45.78426" lon="4.8916">
        <ele>201.44949</ele>
        <time>2023-07-11T09:59:46.000Z</time>
      </trkpt>
      <trkpt lat="45.78422" lon="4.89161">
        <ele>201.44455</ele>
        <time>2023-07-11T09:59:47.000Z</time>
      </trkpt>
      <trkpt lat="45.78417" lon="4.89165">
        <ele>201.58401</ele>
        <time>2023-07-11T09:59:48.000Z</time>
      </trkpt>
      <trkpt lat="45.78413" lon="4.89168">
        <ele>201.73544</ele>
        <time>2023-07-11T09:59:49.000Z</time>
      </trkpt>
      <trkpt lat="45.78409" lon="4.89171">
        <ele>201.92551</ele>
        <time>2023-07-11T09:59:50.000Z</time>
      </trkpt>
      <trkpt lat="45.78406" lon="4.89174">
        <ele>202.153</ele>
        <time>2023-07-11T09:59:51.000Z</time>
      </trkpt>
      <trkpt lat="45.78402" lon="4.89177">
        <ele>202.24002</ele>
        <time>2023-07-11T09:59:52.000Z</time>
      </trkpt>
      <trkpt lat="45.78398" lon="4.8918">
        <ele>202.36166</ele>
        <time>2023-07-11T09:59:53.000Z</time>
      </trkpt>
      <trkpt lat="45.78395" lon="4.89183">
        <ele>202.60458</ele>
        <time>2023-07-11T09:59:54.000Z</time>
      </trkpt>
      <trkpt lat="45.78392" lon="4.89186">
        <ele>202.85194</ele>
        <time>2023-07-11T09:59:55.000Z</time>
      </trkpt>
      <trkpt lat="45.78389" lon="4.89188">
        <ele>203.07292</ele>
        <time>2023-07-11T09:59:56.000Z</time>
      </trkpt>
      <trkpt lat="45.78386" lon="4.8919">
        <ele>203.25339</ele>
        <time>2023-07-11T09:59:57.000Z</time>
      </trkpt>
      <trkpt lat="45.78383" lon="4.89193">
        <ele>203.40636</ele>
        <time>2023-07-11T09:59:58.000Z</time>
      </trkpt>
      <trkpt lat="45.7838" lon="4.89196">
        <ele>203.53224</ele>
        <time>2023-07-11T09:59:59.000Z</time>
      </trkpt>
      <trkpt lat="45.78377" lon="4.892">
        <ele>203.63712</ele>
        <time>2023-07-11T10:00:00.000Z</time>
      </trkpt>
      <trkpt lat="45.78373" lon="4.89203">
        <ele>204.09415</ele>
        <time>2023-07-11T10:00:01.000Z</time>
      </trkpt>
      <trkpt lat="45.7837" lon="4.89206">
        <ele>204.76189</ele>
        <time>2023-07-11T10:00:02.000Z</time>
      </trkpt>
      <trkpt lat="45.78367" lon="4.8921">
        <ele>204.6275</ele>
        <time>2023-07-11T10:00:03.000Z</time>
      </trkpt>
      <trkpt lat="45.78364" lon="4.89214">
        <ele>204.59883</ele>
        <time>2023-07-11T10:00:04.000Z</time>
      </trkpt>
      <trkpt lat="45.78361" lon="4.89219">
        <ele>204.56943</ele>
        <time>2023-07-11T10:00:05.000Z</time>
      </trkpt>
      <trkpt lat="45.78359" lon="4.89225">
        <ele>204.50595</ele>
        <time>2023-07-11T10:00:06.000Z</time>
      </trkpt>
      <trkpt lat="45.78358" lon="4.89232">
        <ele>204.44604</ele>
        <time>2023-07-11T10:00:07.000Z</time>
      </trkpt>
      <trkpt lat="45.78357" lon="4.89238">
        <ele>204.36411</ele>
        <time>2023-07-11T10:00:08.000Z</time>
      </trkpt>
      <trkpt lat="45.78356" lon="4.89244">
        <ele>204.30618</ele>
        <time>2023-07-11T10:00:09.000Z</time>
      </trkpt>
      <trkpt lat="45.78357" lon="4.89252">
        <ele>204.61765</ele>
        <time>2023-07-11T10:00:10.000Z</time>
      </trkpt>
      <trkpt lat="45.78358" lon="4.89259">
        <ele>205.17297</ele>
        <time>2023-07-11T10:00:11.000Z</time>
      </trkpt>
      <trkpt lat="45.78359" lon="4.89266">
        <ele>205.74646</ele>
        <time>2023-07-11T10:00:12.000Z</time>
      </trkpt>
      <trkpt lat="45.7836" lon="4.89272">
        <ele>205.5096</ele>
        <time>2023-07-11T10:00:13.000Z</time>
      </trkpt>
      <trkpt lat="45.78361" lon="4.89279">
        <ele>205.44133</ele>
        <time>2023-07-11T10:00:14.000Z</time>
      </trkpt>
      <trkpt lat="45.78363" lon="4.89288">
        <ele>205.38309</ele>
        <time>2023-07-11T10:00:15.000Z</time>
      </trkpt>
      <trkpt lat="45.78365" lon="4.89294">
        <ele>205.32788</ele>
        <time>2023-07-11T10:00:16.000Z</time>
      </trkpt>
      <trkpt lat="45.78367" lon="4.89303">
        <ele>205.29243</ele>
        <time>2023-07-11T10:00:17.000Z</time>
      </trkpt>
      <trkpt lat="45.78369" lon="4.8931">
        <ele>205.64664</ele>
        <time>2023-07-11T10:00:18.000Z</time>
      </trkpt>
      <trkpt lat="45.7837" lon="4.89318">
        <ele>206.00247</ele>
        <time>2023-07-11T10:00:19.000Z</time>
      </trkpt>
      <trkpt lat="45.78372" lon="4.89325">
        <ele>206.53008</ele>
        <time>2023-07-11T10:00:20.000Z</time>
      </trkpt>
      <trkpt lat="45.78373" lon="4.89333">
        <ele>206.70772</ele>
        <time>2023-07-11T10:00:21.000Z</time>
      </trkpt>
      <trkpt lat="45.78376" lon="4.8934">
        <ele>206.65486</ele>
        <time>2023-07-11T10:00:22.000Z</time>
      </trkpt>
      <trkpt lat="45.78377" lon="4.89347">
        <ele>207.37996</ele>
        <time>2023-07-11T10:00:23.000Z</time>
      </trkpt>
      <trkpt lat="45.78379" lon="4.89356">
        <ele>208.18893</ele>
        <time>2023-07-11T10:00:24.000Z</time>
      </trkpt>
      <trkpt lat="45.78381" lon="4.89363">
        <ele>208.16272</ele>
        <time>2023-07-11T10:00:25.000Z</time>
      </trkpt>
      <trkpt lat="45.78382" lon="4.89371">
        <ele>208.30737</ele>
        <time>2023-07-11T10:00:26.000Z</time>
      </trkpt>
      <trkpt lat="45.78384" lon="4.89378">
        <ele>208.44006</ele>
        <time>2023-07-11T10:00:27.000Z</time>
      </trkpt>
      <trkpt lat="45.78386" lon="4.89386">
        <ele>208.5623</ele>
        <time>2023-07-11T10:00:28.000Z</time>
      </trkpt>
      <trkpt lat="45.78388" lon="4.89394">
        <ele>208.66263</ele>
        <time>2023-07-11T10:00:29.000Z</time>
      </trkpt>
      <trkpt lat="45.7839" lon="4.89402">
        <ele>208.33289</ele>
        <time>2023-07-11T10:00:30.000Z</time>
      </trkpt>
      <trkpt lat="45.78393" lon="4.8941">
        <ele>207.71489</ele>
        <time>2023-07-11T10:00:31.000Z</time>
      </trkpt>
      <trkpt lat="45.78394" lon="4.89418">
        <ele>207.07219</ele>
        <time>2023-07-11T10:00:32.000Z</time>
      </trkpt>
      <trkpt lat="45.78396" lon="4.89426">
        <ele>207.58408</ele>
        <time>2023-07-11T10:00:33.000Z</time>
      </trkpt>
      <trkpt lat="45.78398" lon="4.89434">
        <ele>207.92966</ele>
        <time>2023-07-11T10:00:34.000Z</time>
      </trkpt>
      <trkpt lat="45.784" lon="4.89442">
        <ele>208.27481</ele>
        <time>2023-07-11T10:00:35.000Z</time>
      </trkpt>
      <trkpt lat="45.78402" lon="4.89452">
        <ele>208.63643</ele>
        <time>2023-07-11T10:00:36.000Z</time>
      </trkpt>
      <trkpt lat="45.78405" lon="4.89459">
        <ele>208.9512</ele>
        <time>2023-07-11T10:00:37.000Z</time>
      </trkpt>
      <trkpt lat="45.78408" lon="4.89468">
        <ele>208.8791</ele>
        <time>2023-07-11T10:00:38.000Z</time>
      </trkpt>
      <trkpt lat="45.78411" lon="4.89476">
        <ele>208.82239</ele>
        <time>2023-07-11T10:00:39.000Z</time>
      </trkpt>
      <trkpt lat="45.78414" lon="4.89483">
        <ele>208.58577</ele>
        <time>2023-07-11T10:00:40.000Z</time>
      </trkpt>
      <trkpt lat="45.78417" lon="4.89491">
        <ele>207.29659</ele>
        <time>2023-07-11T10:00:41.000Z</time>
      </trkpt>
      <trkpt lat="45.78421" lon="4.89498">
        <ele>207.23584</ele>
        <time>2023-07-11T10:00:42.000Z</time>
      </trkpt>
      <trkpt lat="45.78424" lon="4.89506">
        <ele>206.95667</ele>
        <time>2023-07-11T10:00:43.000Z</time>
      </trkpt>
      <trkpt lat="45.78428" lon="4.89514">
        <ele>206.45915</ele>
        <time>2023-07-11T10:00:44.000Z</time>
      </trkpt>
      <trkpt lat="45.78431" lon="4.89522">
        <ele>206.78137</ele>
        <time>2023-07-11T10:00:45.000Z</time>
      </trkpt>
      <trkpt lat="45.78435" lon="4.89529">
        <ele>206.91296</ele>
        <time>2023-07-11T10:00:46.000Z</time>
      </trkpt>
      <trkpt lat="45.78438" lon="4.89536">
        <ele>207.34224</ele>
        <time>2023-07-11T10:00:47.000Z</time>
      </trkpt>
      <trkpt lat="45.78441" lon="4.89541">
        <ele>206.94633</ele>
        <time>2023-07-11T10:00:48.000Z</time>
      </trkpt>
      <trkpt lat="45.78444" lon="4.89544">
        <ele>206.68669</ele>
        <time>2023-07-11T10:00:49.000Z</time>
      </trkpt>
      <trkpt lat="45.78445" lon="4.89539">
        <ele>206.49077</ele>
        <time>2023-07-11T10:00:50.000Z</time>
      </trkpt>
      <trkpt lat="45.78444" lon="4.89535">
        <ele>206.31433</ele>
        <time>2023-07-11T10:00:51.000Z</time>
      </trkpt>
      <trkpt lat="45.78442" lon="4.89531">
        <ele>206.13095</ele>
        <time>2023-07-11T10:00:52.000Z</time>
      </trkpt>
      <trkpt lat="45.7844" lon="4.89526">
        <ele>205.58707</ele>
        <time>2023-07-11T10:00:53.000Z</time>
      </trkpt>
      <trkpt lat="45.78437" lon="4.89521">
        <ele>205.11446</ele>
        <time>2023-07-11T10:00:54.000Z</time>
      </trkpt>
      <trkpt lat="45.78435" lon="4.89512">
        <ele>204.58385</ele>
        <time>2023-07-11T10:00:55.000Z</time>
      </trkpt>
      <trkpt lat="45.78433" lon="4.89505">
        <ele>204.03235</ele>
        <time>2023-07-11T10:00:56.000Z</time>
      </trkpt>
      <trkpt lat="45.78431" lon="4.89498">
        <ele>203.46915</ele>
        <time>2023-07-11T10:00:57.000Z</time>
      </trkpt>
      <trkpt lat="45.78429" lon="4.89492">
        <ele>202.91634</ele>
        <time>2023-07-11T10:00:58.000Z</time>
      </trkpt>
      <trkpt lat="45.78427" lon="4.89484">
        <ele>202.35768</ele>
        <time>2023-07-11T10:00:59.000Z</time>
      </trkpt>
      <trkpt lat="45.78425" lon="4.89477">
        <ele>201.80392</ele>
        <time>2023-07-11T10:01:00.000Z</time>
      </trkpt>
      <trkpt lat="45.78423" lon="4.89471">
        <ele>202.2858</ele>
        <time>2023-07-11T10:01:01.000Z</time>
      </trkpt>
      <trkpt lat="45.78421" lon="4.89464">
        <ele>201.51434</ele>
        <time>2023-07-11T10:01:02.000Z</time>
      </trkpt>
      <trkpt lat="45.7842" lon="4.89458">
        <ele>200.97684</ele>
        <time>2023-07-11T10:01:03.000Z</time>
      </trkpt>
      <trkpt lat="45.78417" lon="4.89453">
        <ele>200.4603</ele>
        <time>2023-07-11T10:01:04.000Z</time>
      </trkpt>
      <trkpt lat="45.78415" lon="4.89448">
        <ele>200.36246</ele>
        <time>2023-07-11T10:01:05.000Z</time>
      </trkpt>
      <trkpt lat="45.78414" lon="4.89443">
        <ele>200.31863</ele>
        <time>2023-07-11T10:01:06.000Z</time>
      </trkpt>
      <trkpt lat="45.78412" lon="4.89437">
        <ele>200.26669</ele>
        <time>2023-07-11T10:01:07.000Z</time>
      </trkpt>
      <trkpt lat="45.78412" lon="4.89431">
        <ele>200.17487</ele>
        <time>2023-07-11T10:01:08.000Z</time>
      </trkpt>
      <trkpt lat="45.7841" lon="4.89426">
        <ele>200.08856</ele>
        <time>2023-07-11T10:01:09.000Z</time>
      </trkpt>
      <trkpt lat="45.78409" lon="4.89421">
        <ele>199.99915</ele>
        <time>2023-07-11T10:01:10.000Z</time>
      </trkpt>
      <trkpt lat="45.78406" lon="4.89417">
        <ele>199.90073</ele>
        <time>2023-07-11T10:01:11.000Z</time>
      </trkpt>
      <trkpt lat="45.78403" lon="4.89415">
        <ele>199.81583</ele>
        <time>2023-07-11T10:01:12.000Z</time>
      </trkpt>
      <trkpt lat="45.78399" lon="4.89415">
        <ele>199.88445</ele>
        <time>2023-07-11T10:01:13.000Z</time>
      </trkpt>
      <trkpt lat="45.78395" lon="4.89418">
        <ele>200.02191</ele>
        <time>2023-07-11T10:01:14.000Z</time>
      </trkpt>
      <trkpt lat="45.7839" lon="4.8942">
        <ele>200.60049</ele>
        <time>2023-07-11T10:01:15.000Z</time>
      </trkpt>
      <trkpt lat="45.78385" lon="4.89421">
        <ele>201.57005</ele>
        <time>2023-07-11T10:01:16.000Z</time>
      </trkpt>
      <trkpt lat="45.78381" lon="4.89423">
        <ele>202.82904</ele>
        <time>2023-07-11T10:01:17.000Z</time>
      </trkpt>
      <trkpt lat="45.78376" lon="4.89427">
        <ele>204.39552</ele>
        <time>2023-07-11T10:01:18.000Z</time>
      </trkpt>
      <trkpt lat="45.78371" lon="4.8943">
        <ele>205.82927</ele>
        <time>2023-07-11T10:01:19.000Z</time>
      </trkpt>
      <trkpt lat="45.78364" lon="4.89435">
        <ele>207.23453</ele>
        <time>2023-07-11T10:01:20.000Z</time>
      </trkpt>
      <trkpt lat="45.78359" lon="4.8944">
        <ele>208.43027</ele>
        <time>2023-07-11T10:01:21.000Z</time>
      </trkpt>
      <trkpt lat="45.78355" lon="4.89441">
        <ele>209.36223</ele>
        <time>2023-07-11T10:01:22.000Z</time>
      </trkpt>
      <trkpt lat="45.78351" lon="4.89445">
        <ele>210.32068</ele>
        <time>2023-07-11T10:01:23.000Z</time>
      </trkpt>
      <trkpt lat="45.78347" lon="4.89448">
        <ele>211.08322</ele>
        <time>2023-07-11T10:01:24.000Z</time>
      </trkpt>
      <trkpt lat="45.78343" lon="4.89451">
        <ele>211.23213</ele>
        <time>2023-07-11T10:01:25.000Z</time>
      </trkpt>
      <trkpt lat="45.78339" lon="4.89453">
        <ele>211.18538</ele>
        <time>2023-07-11T10:01:26.000Z</time>
      </trkpt>
      <trkpt lat="45.78335" lon="4.89452">
        <ele>210.8356</ele>
        <time>2023-07-11T10:01:27.000Z</time>
      </trkpt>
      <trkpt lat="45.78332" lon="4.89451">
        <ele>211.4716</ele>
        <time>2023-07-11T10:01:28.000Z</time>
      </trkpt>
      <trkpt lat="45.78329" lon="4.89452">
        <ele>211.99289</ele>
        <time>2023-07-11T10:01:29.000Z</time>
      </trkpt>
      <trkpt lat="45.78326" lon="4.89453">
        <ele>212.33537</ele>
        <time>2023-07-11T10:01:30.000Z</time>
      </trkpt>
      <trkpt lat="45.78322" lon="4.89455">
        <ele>212.63399</ele>
        <time>2023-07-11T10:01:31.000Z</time>
      </trkpt>
      <trkpt lat="45.78318" lon="4.89457">
        <ele>213.1962</ele>
        <time>2023-07-11T10:01:32.000Z</time>
      </trkpt>
      <trkpt lat="45.78314" lon="4.89459">
        <ele>213.53633</ele>
        <time>2023-07-11T10:01:33.000Z</time>
      </trkpt>
      <trkpt lat="45.7831" lon="4.8946">
        <ele>214.02225</ele>
        <time>2023-07-11T10:01:34.000Z</time>
      </trkpt>
      <trkpt lat="45.78305" lon="4.89461">
        <ele>213.30717</ele>
        <time>2023-07-11T10:01:35.000Z</time>
      </trkpt>
      <trkpt lat="45.783" lon="4.89464">
        <ele>212.34756</ele>
        <time>2023-07-11T10:01:36.000Z</time>
      </trkpt>
      <trkpt lat="45.78296" lon="4.89466">
        <ele>211.16585</ele>
        <time>2023-07-11T10:01:37.000Z</time>
      </trkpt>
      <trkpt lat="45.78293" lon="4.89469">
        <ele>209.68704</ele>
        <time>2023-07-11T10:01:38.000Z</time>
      </trkpt>
      <trkpt lat="45.78289" lon="4.8947">
        <ele>208.31396</ele>
        <time>2023-07-11T10:01:39.000Z</time>
      </trkpt>
      <trkpt lat="45.78285" lon="4.89469">
        <ele>207.34546</ele>
        <time>2023-07-11T10:01:40.000Z</time>
      </trkpt>
      <trkpt lat="45.78281" lon="4.89469">
        <ele>206.56848</ele>
        <time>2023-07-11T10:01:41.000Z</time>
      </trkpt>
      <trkpt lat="45.78277" lon="4.8947">
        <ele>206.27798</ele>
        <time>2023-07-11T10:01:42.000Z</time>
      </trkpt>
      <trkpt lat="45.78271" lon="4.89472">
        <ele>205.11096</ele>
        <time>2023-07-11T10:01:43.000Z</time>
      </trkpt>
      <trkpt lat="45.78266" lon="4.89474">
        <ele>204.28293</ele>
        <time>2023-07-11T10:01:44.000Z</time>
      </trkpt>
      <trkpt lat="45.7826" lon="4.89476">
        <ele>203.689</ele>
        <time>2023-07-11T10:01:45.000Z</time>
      </trkpt>
      <trkpt lat="45.78254" lon="4.89479">
        <ele>203.27899</ele>
        <time>2023-07-11T10:01:46.000Z</time>
      </trkpt>
      <trkpt lat="45.78249" lon="4.89481">
        <ele>202.86005</ele>
        <time>2023-07-11T10:01:47.000Z</time>
      </trkpt>
      <trkpt lat="45.78243" lon="4.89484">
        <ele>202.30643</ele>
        <time>2023-07-11T10:01:48.000Z</time>
      </trkpt>
      <trkpt lat="45.78239" lon="4.89486">
        <ele>201.7355</ele>
        <time>2023-07-11T10:01:49.000Z</time>
      </trkpt>
      <trkpt lat="45.78233" lon="4.89489">
        <ele>201.25371</ele>
        <time>2023-07-11T10:01:50.000Z</time>
      </trkpt>
      <trkpt lat="45.78228" lon="4.89493">
        <ele>200.90208</ele>
        <time>2023-07-11T10:01:51.000Z</time>
      </trkpt>
      <trkpt lat="45.78224" lon="4.89495">
        <ele>200.33383</ele>
        <time>2023-07-11T10:01:52.000Z</time>
      </trkpt>
      <trkpt lat="45.78218" lon="4.89498">
        <ele>200.0322</ele>
        <time>2023-07-11T10:01:53.000Z</time>
      </trkpt>
      <trkpt lat="45.78213" lon="4.89501">
        <ele>199.41153</ele>
        <time>2023-07-11T10:01:54.000Z</time>
      </trkpt>
      <trkpt lat="45.78208" lon="4.89502">
        <ele>199.70486</ele>
        <time>2023-07-11T10:01:55.000Z</time>
      </trkpt>
      <trkpt lat="45.78202" lon="4.89505">
        <ele>199.95522</ele>
        <time>2023-07-11T10:01:56.000Z</time>
      </trkpt>
      <trkpt lat="45.78197" lon="4.89508">
        <ele>200.03926</ele>
        <time>2023-07-11T10:01:57.000Z</time>
      </trkpt>
      <trkpt lat="45.78191" lon="4.89512">
        <ele>200.14842</ele>
        <time>2023-07-11T10:01:58.000Z</time>
      </trkpt>
      <trkpt lat="45.78188" lon="4.89515">
        <ele>200.37018</ele>
        <time>2023-07-11T10:01:59.000Z</time>
      </trkpt>
      <trkpt lat="45.78182" lon="4.89519">
        <ele>200.32285</ele>
        <time>2023-07-11T10:02:00.000Z</time>
      </trkpt>
      <trkpt lat="45.78175" lon="4.89521">
        <ele>200.19539</ele>
        <time>2023-07-11T10:02:01.000Z</time>
      </trkpt>
      <trkpt lat="45.7817" lon="4.89525">
        <ele>198.74818</ele>
        <time>2023-07-11T10:02:02.000Z</time>
      </trkpt>
      <trkpt lat="45.78164" lon="4.89528">
        <ele>198.15407</ele>
        <time>2023-07-11T10:02:03.000Z</time>
      </trkpt>
      <trkpt lat="45.78158" lon="4.8953">
        <ele>197.37769</ele>
        <time>2023-07-11T10:02:04.000Z</time>
      </trkpt>
      <trkpt lat="45.78152" lon="4.89535">
        <ele>196.87367</ele>
        <time>2023-07-11T10:02:05.000Z</time>
      </trkpt>
      <trkpt lat="45.78146" lon="4.89539">
        <ele>195.84793</ele>
        <time>2023-07-11T10:02:06.000Z</time>
      </trkpt>
      <trkpt lat="45.7814" lon="4.89541">
        <ele>194.81419</ele>
        <time>2023-07-11T10:02:07.000Z</time>
      </trkpt>
      <trkpt lat="45.78134" lon="4.89545">
        <ele>193.8118</ele>
        <time>2023-07-11T10:02:08.000Z</time>
      </trkpt>
      <trkpt lat="45.78128" lon="4.89548">
        <ele>192.86055</ele>
        <time>2023-07-11T10:02:09.000Z</time>
      </trkpt>
      <trkpt lat="45.78123" lon="4.89553">
        <ele>192.00992</ele>
        <time>2023-07-11T10:02:10.000Z</time>
      </trkpt>
      <trkpt lat="45.78116" lon="4.89556">
        <ele>191.07722</ele>
        <time>2023-07-11T10:02:11.000Z</time>
      </trkpt>
      <trkpt lat="45.7811" lon="4.8956">
        <ele>189.92952</ele>
        <time>2023-07-11T10:02:12.000Z</time>
      </trkpt>
      <trkpt lat="45.78104" lon="4.89563">
        <ele>188.5898</ele>
        <time>2023-07-11T10:02:13.000Z</time>
      </trkpt>
      <trkpt lat="45.78098" lon="4.89567">
        <ele>187.30856</ele>
        <time>2023-07-11T10:02:14.000Z</time>
      </trkpt>
      <trkpt lat="45.78092" lon="4.89572">
        <ele>185.9281</ele>
        <time>2023-07-11T10:02:15.000Z</time>
      </trkpt>
      <trkpt lat="45.78087" lon="4.89577">
        <ele>184.4267</ele>
        <time>2023-07-11T10:02:16.000Z</time>
      </trkpt>
      <trkpt lat="45.78081" lon="4.89581">
        <ele>183.09718</ele>
        <time>2023-07-11T10:02:17.000Z</time>
      </trkpt>
      <trkpt lat="45.78075" lon="4.89586">
        <ele>182.82784</ele>
        <time>2023-07-11T10:02:18.000Z</time>
      </trkpt>
      <trkpt lat="45.78069" lon="4.89589">
        <ele>182.48454</ele>
        <time>2023-07-11T10:02:19.000Z</time>
      </trkpt>
      <trkpt lat="45.78063" lon="4.89594">
        <ele>182.0264</ele>
        <time>2023-07-11T10:02:20.000Z</time>
      </trkpt>
      <trkpt lat="45.78057" lon="4.89598">
        <ele>180.59935</ele>
        <time>2023-07-11T10:02:21.000Z</time>
      </trkpt>
      <trkpt lat="45.78052" lon="4.89603">
        <ele>180.30113</ele>
        <time>2023-07-11T10:02:22.000Z</time>
      </trkpt>
      <trkpt lat="45.78046" lon="4.89607">
        <ele>179.99489</ele>
        <time>2023-07-11T10:02:23.000Z</time>
      </trkpt>
      <trkpt lat="45.78041" lon="4.89612">
        <ele>179.71996</ele>
        <time>2023-07-11T10:02:24.000Z</time>
      </trkpt>
      <trkpt lat="45.78035" lon="4.89616">
        <ele>179.14592</ele>
        <time>2023-07-11T10:02:25.000Z</time>
      </trkpt>
      <trkpt lat="45.7803" lon="4.89621">
        <ele>179.11079</ele>
        <time>2023-07-11T10:02:26.000Z</time>
      </trkpt>
      <trkpt lat="45.78024" lon="4.89626">
        <ele>179.11238</ele>
        <time>2023-07-11T10:02:27.000Z</time>
      </trkpt>
      <trkpt lat="45.78019" lon="4.89631">
        <ele>179.09479</ele>
        <time>2023-07-11T10:02:28.000Z</time>
      </trkpt>
      <trkpt lat="45.78013" lon="4.89635">
        <ele>179.02783</ele>
        <time>2023-07-11T10:02:29.000Z</time>
      </trkpt>
      <trkpt lat="45.78007" lon="4.8964">
        <ele>178.95029</ele>
        <time>2023-07-11T10:02:30.000Z</time>
      </trkpt>
      <trkpt lat="45.78002" lon="4.89644">
        <ele>178.87509</ele>
        <time>2023-07-11T10:02:31.000Z</time>
      </trkpt>
      <trkpt lat="45.77996" lon="4.89649">
        <ele>178.9558</ele>
        <time>2023-07-11T10:02:32.000Z</time>
      </trkpt>
      <trkpt lat="45.77991" lon="4.89654">
        <ele>179.04488</ele>
        <time>2023-07-11T10:02:33.000Z</time>
      </trkpt>
      <trkpt lat="45.77985" lon="4.89659">
        <ele>179.19907</ele>
        <time>2023-07-11T10:02:34.000Z</time>
      </trkpt>
      <trkpt lat="45.7798" lon="4.89664">
        <ele>179.39557</ele>
        <time>2023-07-11T10:02:35.000Z</time>
      </trkpt>
      <trkpt lat="45.77974" lon="4.89667">
        <ele>179.62819</ele>
        <time>2023-07-11T10:02:36.000Z</time>
      </trkpt>
      <trkpt lat="45.77969" lon="4.89672">
        <ele>179.69113</ele>
        <time>2023-07-11T10:02:37.000Z</time>
      </trkpt>
      <trkpt lat="45.77963" lon="4.89676">
        <ele>178.68123</ele>
        <time>2023-07-11T10:02:38.000Z</time>
      </trkpt>
      <trkpt lat="45.77958" lon="4.89682">
        <ele>177.65225</ele>
        <time>2023-07-11T10:02:39.000Z</time>
      </trkpt>
      <trkpt lat="45.77952" lon="4.89686">
        <ele>176.61816</ele>
        <time>2023-07-11T10:02:40.000Z</time>
      </trkpt>
      <trkpt lat="45.77946" lon="4.8969">
        <ele>176.65569</ele>
        <time>2023-07-11T10:02:41.000Z</time>
      </trkpt>
      <trkpt lat="45.77941" lon="4.89695">
        <ele>176.70879</ele>
        <time>2023-07-11T10:02:42.000Z</time>
      </trkpt>
      <trkpt lat="45.77936" lon="4.89699">
        <ele>176.76273</ele>
        <time>2023-07-11T10:02:43.000Z</time>
      </trkpt>
      <trkpt lat="45.77931" lon="4.89703">
        <ele>176.82266</ele>
        <time>2023-07-11T10:02:44.000Z</time>
      </trkpt>
      <trkpt lat="45.77925" lon="4.89707">
        <ele>176.90858</ele>
        <time>2023-07-11T10:02:45.000Z</time>
      </trkpt>
      <trkpt lat="45.7792" lon="4.89711">
        <ele>176.98804</ele>
        <time>2023-07-11T10:02:46.000Z</time>
      </trkpt>
      <trkpt lat="45.77915" lon="4.89716">
        <ele>177.05598</ele>
        <time>2023-07-11T10:02:47.000Z</time>
      </trkpt>
      <trkpt lat="45.7791" lon="4.89721">
        <ele>177.1142</ele>
        <time>2023-07-11T10:02:48.000Z</time>
      </trkpt>
      <trkpt lat="45.77904" lon="4.89725">
        <ele>177.16647</ele>
        <time>2023-07-11T10:02:49.000Z</time>
      </trkpt>
      <trkpt lat="45.77899" lon="4.89729">
        <ele>177.20534</ele>
        <time>2023-07-11T10:02:50.000Z</time>
      </trkpt>
      <trkpt lat="45.77895" lon="4.89733">
        <ele>177.22925</ele>
        <time>2023-07-11T10:02:51.000Z</time>
      </trkpt>
      <trkpt lat="45.77889" lon="4.89737">
        <ele>177.5892</ele>
        <time>2023-07-11T10:02:52.000Z</time>
      </trkpt>
      <trkpt lat="45.77883" lon="4.89742">
        <ele>177.91745</ele>
        <time>2023-07-11T10:02:53.000Z</time>
      </trkpt>
      <trkpt lat="45.77878" lon="4.89746">
        <ele>178.1588</ele>
        <time>2023-07-11T10:02:54.000Z</time>
      </trkpt>
      <trkpt lat="45.77872" lon="4.8975">
        <ele>178.46196</ele>
        <time>2023-07-11T10:02:55.000Z</time>
      </trkpt>
      <trkpt lat="45.77867" lon="4.89754">
        <ele>178.76285</ele>
        <time>2023-07-11T10:02:56.000Z</time>
      </trkpt>
      <trkpt lat="45.77862" lon="4.89758">
        <ele>178.93277</ele>
        <time>2023-07-11T10:02:57.000Z</time>
      </trkpt>
      <trkpt lat="45.77857" lon="4.89762">
        <ele>179.16176</ele>
        <time>2023-07-11T10:02:58.000Z</time>
      </trkpt>
      <trkpt lat="45.77851" lon="4.89767">
        <ele>179.45143</ele>
        <time>2023-07-11T10:02:59.000Z</time>
      </trkpt>
      <trkpt lat="45.77846" lon="4.89771">
        <ele>179.80507</ele>
        <time>2023-07-11T10:03:00.000Z</time>
      </trkpt>
      <trkpt lat="45.77842" lon="4.89775">
        <ele>180.19763</ele>
        <time>2023-07-11T10:03:01.000Z</time>
      </trkpt>
      <trkpt lat="45.77837" lon="4.89779">
        <ele>180.53159</ele>
        <time>2023-07-11T10:03:02.000Z</time>
      </trkpt>
      <trkpt lat="45.77832" lon="4.89784">
        <ele>180.83273</ele>
        <time>2023-07-11T10:03:03.000Z</time>
      </trkpt>
      <trkpt lat="45.77827" lon="4.89788">
        <ele>181.11862</ele>
        <time>2023-07-11T10:03:04.000Z</time>
      </trkpt>
      <trkpt lat="45.77822" lon="4.89793">
        <ele>181.34451</ele>
        <time>2023-07-11T10:03:05.000Z</time>
      </trkpt>
      <trkpt lat="45.77816" lon="4.89798">
        <ele>181.53604</ele>
        <time>2023-07-11T10:03:06.000Z</time>
      </trkpt>
      <trkpt lat="45.77811" lon="4.89802">
        <ele>181.72195</ele>
        <time>2023-07-11T10:03:07.000Z</time>
      </trkpt>
      <trkpt lat="45.77806" lon="4.89807">
        <ele>181.90279</ele>
        <time>2023-07-11T10:03:08.000Z</time>
      </trkpt>
      <trkpt lat="45.77801" lon="4.8981">
        <ele>182.09589</ele>
        <time>2023-07-11T10:03:09.000Z</time>
      </trkpt>
      <trkpt lat="45.77797" lon="4.89815">
        <ele>182.30954</ele>
        <time>2023-07-11T10:03:10.000Z</time>
      </trkpt>
      <trkpt lat="45.77791" lon="4.89819">
        <ele>182.54683</ele>
        <time>2023-07-11T10:03:11.000Z</time>
      </trkpt>
      <trkpt lat="45.77786" lon="4.89823">
        <ele>182.44833</ele>
        <time>2023-07-11T10:03:12.000Z</time>
      </trkpt>
      <trkpt lat="45.77781" lon="4.89828">
        <ele>182.35782</ele>
        <time>2023-07-11T10:03:13.000Z</time>
      </trkpt>
      <trkpt lat="45.77776" lon="4.89832">
        <ele>182.28149</ele>
        <time>2023-07-11T10:03:14.000Z</time>
      </trkpt>
      <trkpt lat="45.77772" lon="4.89836">
        <ele>182.08395</ele>
        <time>2023-07-11T10:03:15.000Z</time>
      </trkpt>
      <trkpt lat="45.77767" lon="4.89839">
        <ele>181.88272</ele>
        <time>2023-07-11T10:03:16.000Z</time>
      </trkpt>
      <trkpt lat="45.77763" lon="4.89843">
        <ele>181.97565</ele>
        <time>2023-07-11T10:03:17.000Z</time>
      </trkpt>
      <trkpt lat="45.77759" lon="4.89846">
        <ele>181.99922</ele>
        <time>2023-07-11T10:03:18.000Z</time>
      </trkpt>
      <trkpt lat="45.77755" lon="4.89848">
        <ele>181.96973</ele>
        <time>2023-07-11T10:03:19.000Z</time>
      </trkpt>
      <trkpt lat="45.77751" lon="4.89852">
        <ele>181.6017</ele>
        <time>2023-07-11T10:03:20.000Z</time>
      </trkpt>
      <trkpt lat="45.77747" lon="4.89854">
        <ele>181.14772</ele>
        <time>2023-07-11T10:03:21.000Z</time>
      </trkpt>
      <trkpt lat="45.77742" lon="4.89859">
        <ele>180.75095</ele>
        <time>2023-07-11T10:03:22.000Z</time>
      </trkpt>
      <trkpt lat="45.77737" lon="4.89864">
        <ele>180.35207</ele>
        <time>2023-07-11T10:03:23.000Z</time>
      </trkpt>
      <trkpt lat="45.77732" lon="4.89869">
        <ele>179.98273</ele>
        <time>2023-07-11T10:03:24.000Z</time>
      </trkpt>
      <trkpt lat="45.77727" lon="4.89873">
        <ele>179.6763</ele>
        <time>2023-07-11T10:03:25.000Z</time>
      </trkpt>
      <trkpt lat="45.77722" lon="4.89878">
        <ele>179.41249</ele>
        <time>2023-07-11T10:03:26.000Z</time>
      </trkpt>
      <trkpt lat="45.77716" lon="4.89883">
        <ele>179.63176</ele>
        <time>2023-07-11T10:03:27.000Z</time>
      </trkpt>
      <trkpt lat="45.77711" lon="4.89887">
        <ele>179.87704</ele>
        <time>2023-07-11T10:03:28.000Z</time>
      </trkpt>
      <trkpt lat="45.77704" lon="4.89891">
        <ele>179.79192</ele>
        <time>2023-07-11T10:03:29.000Z</time>
      </trkpt>
      <trkpt lat="45.77699" lon="4.89896">
        <ele>179.74532</ele>
        <time>2023-07-11T10:03:30.000Z</time>
      </trkpt>
      <trkpt lat="45.77694" lon="4.89901">
        <ele>179.59038</ele>
        <time>2023-07-11T10:03:31.000Z</time>
      </trkpt>
      <trkpt lat="45.77688" lon="4.89905">
        <ele>179.44275</ele>
        <time>2023-07-11T10:03:32.000Z</time>
      </trkpt>
      <trkpt lat="45.77683" lon="4.89909">
        <ele>179.32378</ele>
        <time>2023-07-11T10:03:33.000Z</time>
      </trkpt>
      <trkpt lat="45.77678" lon="4.89914">
        <ele>178.9584</ele>
        <time>2023-07-11T10:03:34.000Z</time>
      </trkpt>
      <trkpt lat="45.77672" lon="4.89919">
        <ele>178.62419</ele>
        <time>2023-07-11T10:03:35.000Z</time>
      </trkpt>
      <trkpt lat="45.77667" lon="4.89923">
        <ele>178.27464</ele>
        <time>2023-07-11T10:03:36.000Z</time>
      </trkpt>
      <trkpt lat="45.77662" lon="4.89928">
        <ele>177.92801</ele>
        <time>2023-07-11T10:03:37.000Z</time>
      </trkpt>
      <trkpt lat="45.77657" lon="4.89932">
        <ele>177.56583</ele>
        <time>2023-07-11T10:03:38.000Z</time>
      </trkpt>
      <trkpt lat="45.77651" lon="4.89937">
        <ele>177.1913</ele>
        <time>2023-07-11T10:03:39.000Z</time>
      </trkpt>
      <trkpt lat="45.77646" lon="4.89941">
        <ele>177.07744</ele>
        <time>2023-07-11T10:03:40.000Z</time>
      </trkpt>
      <trkpt lat="45.7764" lon="4.89946">
        <ele>177.0181</ele>
        <time>2023-07-11T10:03:41.000Z</time>
      </trkpt>
      <trkpt lat="45.77635" lon="4.8995">
        <ele>176.91495</ele>
        <time>2023-07-11T10:03:42.000Z</time>
      </trkpt>
      <trkpt lat="45.7763" lon="4.89955">
        <ele>176.86763</ele>
        <time>2023-07-11T10:03:43.000Z</time>
      </trkpt>
      <trkpt lat="45.77624" lon="4.89959">
        <ele>176.78807</ele>
        <time>2023-07-11T10:03:44.000Z</time>
      </trkpt>
      <trkpt lat="45.77619" lon="4.89963">
        <ele>176.64897</ele>
        <time>2023-07-11T10:03:45.000Z</time>
      </trkpt>
      <trkpt lat="45.77613" lon="4.89968">
        <ele>176.52542</ele>
        <time>2023-07-11T10:03:46.000Z</time>
      </trkpt>
      <trkpt lat="45.77607" lon="4.89971">
        <ele>175.91344</ele>
        <time>2023-07-11T10:03:47.000Z</time>
      </trkpt>
      <trkpt lat="45.77601" lon="4.89976">
        <ele>175.28366</ele>
        <time>2023-07-11T10:03:48.000Z</time>
      </trkpt>
      <trkpt lat="45.77597" lon="4.89982">
        <ele>174.99031</ele>
        <time>2023-07-11T10:03:49.000Z</time>
      </trkpt>
      <trkpt lat="45.77591" lon="4.89987">
        <ele>174.66446</ele>
        <time>2023-07-11T10:03:50.000Z</time>
      </trkpt>
      <trkpt lat="45.77586" lon="4.89991">
        <ele>174.44925</ele>
        <time>2023-07-11T10:03:51.000Z</time>
      </trkpt>
      <trkpt lat="45.77581" lon="4.89994">
        <ele>174.23141</ele>
        <time>2023-07-11T10:03:52.000Z</time>
      </trkpt>
      <trkpt lat="45.77576" lon="4.89998">
        <ele>173.96751</ele>
        <time>2023-07-11T10:03:53.000Z</time>
      </trkpt>
      <trkpt lat="45.77569" lon="4.90004">
        <ele>173.90813</ele>
        <time>2023-07-11T10:03:54.000Z</time>
      </trkpt>
      <trkpt lat="45.77563" lon="4.90009">
        <ele>173.82344</ele>
        <time>2023-07-11T10:03:55.000Z</time>
      </trkpt>
      <trkpt lat="45.77557" lon="4.90014">
        <ele>173.76831</ele>
        <time>2023-07-11T10:03:56.000Z</time>
      </trkpt>
      <trkpt lat="45.77552" lon="4.90019">
        <ele>173.70703</ele>
        <time>2023-07-11T10:03:57.000Z</time>
      </trkpt>
      <trkpt lat="45.77546" lon="4.90025">
        <ele>173.63309</ele>
        <time>2023-07-11T10:03:58.000Z</time>
      </trkpt>
      <trkpt lat="45.7754" lon="4.9003">
        <ele>173.56339</ele>
        <time>2023-07-11T10:03:59.000Z</time>
      </trkpt>
      <trkpt lat="45.77535" lon="4.90034">
        <ele>173.52359</ele>
        <time>2023-07-11T10:04:00.000Z</time>
      </trkpt>
      <trkpt lat="45.77529" lon="4.90039">
        <ele>173.46982</ele>
        <time>2023-07-11T10:04:01.000Z</time>
      </trkpt>
      <trkpt lat="45.77524" lon="4.90044">
        <ele>173.40657</ele>
        <time>2023-07-11T10:04:02.000Z</time>
      </trkpt>
      <trkpt lat="45.77519" lon="4.90049">
        <ele>173.33015</ele>
        <time>2023-07-11T10:04:03.000Z</time>
      </trkpt>
      <trkpt lat="45.77514" lon="4.90053">
        <ele>173.29739</ele>
        <time>2023-07-11T10:04:04.000Z</time>
      </trkpt>
      <trkpt lat="45.77508" lon="4.90057">
        <ele>173.28075</ele>
        <time>2023-07-11T10:04:05.000Z</time>
      </trkpt>
      <trkpt lat="45.77503" lon="4.9006">
        <ele>173.29703</ele>
        <time>2023-07-11T10:04:06.000Z</time>
      </trkpt>
      <trkpt lat="45.77497" lon="4.90064">
        <ele>173.33749</ele>
        <time>2023-07-11T10:04:07.000Z</time>
      </trkpt>
      <trkpt lat="45.77491" lon="4.90069">
        <ele>173.4436</ele>
        <time>2023-07-11T10:04:08.000Z</time>
      </trkpt>
      <trkpt lat="45.77487" lon="4.90073">
        <ele>173.5683</ele>
        <time>2023-07-11T10:04:09.000Z</time>
      </trkpt>
      <trkpt lat="45.77481" lon="4.90077">
        <ele>173.54031</ele>
        <time>2023-07-11T10:04:10.000Z</time>
      </trkpt>
      <trkpt lat="45.77477" lon="4.90082">
        <ele>173.50922</ele>
        <time>2023-07-11T10:04:11.000Z</time>
      </trkpt>
      <trkpt lat="45.77471" lon="4.90086">
        <ele>173.49411</ele>
        <time>2023-07-11T10:04:12.000Z</time>
      </trkpt>
      <trkpt lat="45.77467" lon="4.9009">
        <ele>173.5383</ele>
        <time>2023-07-11T10:04:13.000Z</time>
      </trkpt>
      <trkpt lat="45.77461" lon="4.90094">
        <ele>173.63039</ele>
        <time>2023-07-11T10:04:14.000Z</time>
      </trkpt>
      <trkpt lat="45.77455" lon="4.90098">
        <ele>173.75764</ele>
        <time>2023-07-11T10:04:15.000Z</time>
      </trkpt>
      <trkpt lat="45.77451" lon="4.90103">
        <ele>173.85619</ele>
        <time>2023-07-11T10:04:16.000Z</time>
      </trkpt>
      <trkpt lat="45.77445" lon="4.90107">
        <ele>173.92757</ele>
        <time>2023-07-11T10:04:17.000Z</time>
      </trkpt>
      <trkpt lat="45.77441" lon="4.90111">
        <ele>174.00308</ele>
        <time>2023-07-11T10:04:18.000Z</time>
      </trkpt>
      <trkpt lat="45.77436" lon="4.90116">
        <ele>174.06032</ele>
        <time>2023-07-11T10:04:19.000Z</time>
      </trkpt>
      <trkpt lat="45.77429" lon="4.90122">
        <ele>174.10463</ele>
        <time>2023-07-11T10:04:20.000Z</time>
      </trkpt>
      <trkpt lat="45.77424" lon="4.90126">
        <ele>174.15436</ele>
        <time>2023-07-11T10:04:21.000Z</time>
      </trkpt>
      <trkpt lat="45.77419" lon="4.9013">
        <ele>174.21689</ele>
        <time>2023-07-11T10:04:22.000Z</time>
      </trkpt>
      <trkpt lat="45.77413" lon="4.90134">
        <ele>174.25749</ele>
        <time>2023-07-11T10:04:23.000Z</time>
      </trkpt>
      <trkpt lat="45.77407" lon="4.90138">
        <ele>174.26164</ele>
        <time>2023-07-11T10:04:24.000Z</time>
      </trkpt>
      <trkpt lat="45.77402" lon="4.90143">
        <ele>174.2758</ele>
        <time>2023-07-11T10:04:25.000Z</time>
      </trkpt>
      <trkpt lat="45.77397" lon="4.90147">
        <ele>174.24872</ele>
        <time>2023-07-11T10:04:26.000Z</time>
      </trkpt>
      <trkpt lat="45.77392" lon="4.90152">
        <ele>174.21013</ele>
        <time>2023-07-11T10:04:27.000Z</time>
      </trkpt>
      <trkpt lat="45.77386" lon="4.90156">
        <ele>174.11935</ele>
        <time>2023-07-11T10:04:28.000Z</time>
      </trkpt>
      <trkpt lat="45.7738" lon="4.90161">
        <ele>173.99298</ele>
        <time>2023-07-11T10:04:29.000Z</time>
      </trkpt>
      <trkpt lat="45.77375" lon="4.90164">
        <ele>173.98676</ele>
        <time>2023-07-11T10:04:30.000Z</time>
      </trkpt>
      <trkpt lat="45.77369" lon="4.90169">
        <ele>173.96466</ele>
        <time>2023-07-11T10:04:31.000Z</time>
      </trkpt>
      <trkpt lat="45.77363" lon="4.90172">
        <ele>173.94022</ele>
        <time>2023-07-11T10:04:32.000Z</time>
      </trkpt>
      <trkpt lat="45.77358" lon="4.90177">
        <ele>173.93777</ele>
        <time>2023-07-11T10:04:33.000Z</time>
      </trkpt>
      <trkpt lat="45.77353" lon="4.90181">
        <ele>173.94095</ele>
        <time>2023-07-11T10:04:34.000Z</time>
      </trkpt>
      <trkpt lat="45.77348" lon="4.90186">
        <ele>173.93172</ele>
        <time>2023-07-11T10:04:35.000Z</time>
      </trkpt>
      <trkpt lat="45.77342" lon="4.90191">
        <ele>173.95049</ele>
        <time>2023-07-11T10:04:36.000Z</time>
      </trkpt>
      <trkpt lat="45.77337" lon="4.90194">
        <ele>173.87366</ele>
        <time>2023-07-11T10:04:37.000Z</time>
      </trkpt>
      <trkpt lat="45.77331" lon="4.90199">
        <ele>173.8287</ele>
        <time>2023-07-11T10:04:38.000Z</time>
      </trkpt>
      <trkpt lat="45.77326" lon="4.90204">
        <ele>173.69949</ele>
        <time>2023-07-11T10:04:39.000Z</time>
      </trkpt>
      <trkpt lat="45.77321" lon="4.90207">
        <ele>173.57553</ele>
        <time>2023-07-11T10:04:40.000Z</time>
      </trkpt>
      <trkpt lat="45.77315" lon="4.90211">
        <ele>173.45226</ele>
        <time>2023-07-11T10:04:41.000Z</time>
      </trkpt>
      <trkpt lat="45.7731" lon="4.90215">
        <ele>173.34731</ele>
        <time>2023-07-11T10:04:42.000Z</time>
      </trkpt>
      <trkpt lat="45.77305" lon="4.90219">
        <ele>173.23941</ele>
        <time>2023-07-11T10:04:43.000Z</time>
      </trkpt>
      <trkpt lat="45.773" lon="4.90224">
        <ele>173.14082</ele>
        <time>2023-07-11T10:04:44.000Z</time>
      </trkpt>
      <trkpt lat="45.77295" lon="4.90229">
        <ele>173.0455</ele>
        <time>2023-07-11T10:04:45.000Z</time>
      </trkpt>
      <trkpt lat="45.77289" lon="4.90234">
        <ele>172.96687</ele>
        <time>2023-07-11T10:04:46.000Z</time>
      </trkpt>
      <trkpt lat="45.77284" lon="4.9024">
        <ele>172.8779</ele>
        <time>2023-07-11T10:04:47.000Z</time>
      </trkpt>
      <trkpt lat="45.77278" lon="4.90243">
        <ele>172.77927</ele>
        <time>2023-07-11T10:04:48.000Z</time>
      </trkpt>
      <trkpt lat="45.77273" lon="4.90249">
        <ele>172.66042</ele>
        <time>2023-07-11T10:04:49.000Z</time>
      </trkpt>
      <trkpt lat="45.77267" lon="4.90251">
        <ele>172.57326</ele>
        <time>2023-07-11T10:04:50.000Z</time>
      </trkpt>
      <trkpt lat="45.77262" lon="4.90256">
        <ele>172.47882</ele>
        <time>2023-07-11T10:04:51.000Z</time>
      </trkpt>
      <trkpt lat="45.77257" lon="4.90261">
        <ele>172.37863</ele>
        <time>2023-07-11T10:04:52.000Z</time>
      </trkpt>
      <trkpt lat="45.77252" lon="4.90266">
        <ele>172.23628</ele>
        <time>2023-07-11T10:04:53.000Z</time>
      </trkpt>
      <trkpt lat="45.77246" lon="4.9027">
        <ele>172.08311</ele>
        <time>2023-07-11T10:04:54.000Z</time>
      </trkpt>
      <trkpt lat="45.77241" lon="4.90273">
        <ele>171.92311</ele>
        <time>2023-07-11T10:04:55.000Z</time>
      </trkpt>
      <trkpt lat="45.77236" lon="4.90276">
        <ele>171.74072</ele>
        <time>2023-07-11T10:04:56.000Z</time>
      </trkpt>
      <trkpt lat="45.77231" lon="4.9028">
        <ele>171.68561</ele>
        <time>2023-07-11T10:04:57.000Z</time>
      </trkpt>
      <trkpt lat="45.77226" lon="4.90284">
        <ele>171.61583</ele>
        <time>2023-07-11T10:04:58.000Z</time>
      </trkpt>
      <trkpt lat="45.7722" lon="4.90288">
        <ele>171.66118</ele>
        <time>2023-07-11T10:04:59.000Z</time>
      </trkpt>
      <trkpt lat="45.77215" lon="4.90292">
        <ele>171.68486</ele>
        <time>2023-07-11T10:05:00.000Z</time>
      </trkpt>
      <trkpt lat="45.7721" lon="4.90297">
        <ele>171.70082</ele>
        <time>2023-07-11T10:05:01.000Z</time>
      </trkpt>
      <trkpt lat="45.77204" lon="4.90302">
        <ele>171.7012</ele>
        <time>2023-07-11T10:05:02.000Z</time>
      </trkpt>
      <trkpt lat="45.77199" lon="4.90307">
        <ele>171.71817</ele>
        <time>2023-07-11T10:05:03.000Z</time>
      </trkpt>
      <trkpt lat="45.77193" lon="4.90311">
        <ele>171.73367</ele>
        <time>2023-07-11T10:05:04.000Z</time>
      </trkpt>
      <trkpt lat="45.77188" lon="4.90316">
        <ele>171.86487</ele>
        <time>2023-07-11T10:05:05.000Z</time>
      </trkpt>
      <trkpt lat="45.77183" lon="4.90321">
        <ele>171.9586</ele>
        <time>2023-07-11T10:05:06.000Z</time>
      </trkpt>
      <trkpt lat="45.77178" lon="4.90325">
        <ele>172.08595</ele>
        <time>2023-07-11T10:05:07.000Z</time>
      </trkpt>
      <trkpt lat="45.77173" lon="4.90329">
        <ele>172.26413</ele>
        <time>2023-07-11T10:05:08.000Z</time>
      </trkpt>
      <trkpt lat="45.77168" lon="4.90334">
        <ele>172.45169</ele>
        <time>2023-07-11T10:05:09.000Z</time>
      </trkpt>
      <trkpt lat="45.77162" lon="4.90338">
        <ele>172.65421</ele>
        <time>2023-07-11T10:05:10.000Z</time>
      </trkpt>
      <trkpt lat="45.77157" lon="4.90343">
        <ele>172.69498</ele>
        <time>2023-07-11T10:05:11.000Z</time>
      </trkpt>
      <trkpt lat="45.77153" lon="4.90346">
        <ele>172.74789</ele>
        <time>2023-07-11T10:05:12.000Z</time>
      </trkpt>
      <trkpt lat="45.77148" lon="4.90349">
        <ele>172.77516</ele>
        <time>2023-07-11T10:05:13.000Z</time>
      </trkpt>
      <trkpt lat="45.77143" lon="4.90353">
        <ele>172.76828</ele>
        <time>2023-07-11T10:05:14.000Z</time>
      </trkpt>
      <trkpt lat="45.77138" lon="4.90359">
        <ele>172.78163</ele>
        <time>2023-07-11T10:05:15.000Z</time>
      </trkpt>
      <trkpt lat="45.77132" lon="4.90363">
        <ele>172.79518</ele>
        <time>2023-07-11T10:05:16.000Z</time>
      </trkpt>
      <trkpt lat="45.77126" lon="4.90368">
        <ele>172.75821</ele>
        <time>2023-07-11T10:05:17.000Z</time>
      </trkpt>
      <trkpt lat="45.77121" lon="4.90372">
        <ele>172.70178</ele>
        <time>2023-07-11T10:05:18.000Z</time>
      </trkpt>
      <trkpt lat="45.77115" lon="4.90377">
        <ele>172.63388</ele>
        <time>2023-07-11T10:05:19.000Z</time>
      </trkpt>
      <trkpt lat="45.7711" lon="4.90381">
        <ele>172.60217</ele>
        <time>2023-07-11T10:05:20.000Z</time>
      </trkpt>
      <trkpt lat="45.77105" lon="4.90385">
        <ele>172.56448</ele>
        <time>2023-07-11T10:05:21.000Z</time>
      </trkpt>
      <trkpt lat="45.771" lon="4.9039">
        <ele>172.53917</ele>
        <time>2023-07-11T10:05:22.000Z</time>
      </trkpt>
      <trkpt lat="45.77094" lon="4.90394">
        <ele>172.52206</ele>
        <time>2023-07-11T10:05:23.000Z</time>
      </trkpt>
      <trkpt lat="45.77089" lon="4.90399">
        <ele>172.51596</ele>
        <time>2023-07-11T10:05:24.000Z</time>
      </trkpt>
      <trkpt lat="45.77083" lon="4.90403">
        <ele>172.36807</ele>
        <time>2023-07-11T10:05:25.000Z</time>
      </trkpt>
      <trkpt lat="45.77077" lon="4.90407">
        <ele>172.23047</ele>
        <time>2023-07-11T10:05:26.000Z</time>
      </trkpt>
      <trkpt lat="45.77072" lon="4.90412">
        <ele>172.07292</ele>
        <time>2023-07-11T10:05:27.000Z</time>
      </trkpt>
      <trkpt lat="45.77066" lon="4.90416">
        <ele>171.86398</ele>
        <time>2023-07-11T10:05:28.000Z</time>
      </trkpt>
      <trkpt lat="45.77061" lon="4.90418">
        <ele>171.65256</ele>
        <time>2023-07-11T10:05:29.000Z</time>
      </trkpt>
      <trkpt lat="45.77055" lon="4.90423">
        <ele>171.42035</ele>
        <time>2023-07-11T10:05:30.000Z</time>
      </trkpt>
      <trkpt lat="45.7705" lon="4.90427">
        <ele>171.38304</ele>
        <time>2023-07-11T10:05:31.000Z</time>
      </trkpt>
      <trkpt lat="45.77045" lon="4.90431">
        <ele>171.31981</ele>
        <time>2023-07-11T10:05:32.000Z</time>
      </trkpt>
      <trkpt lat="45.7704" lon="4.90437">
        <ele>171.26747</ele>
        <time>2023-07-11T10:05:33.000Z</time>
      </trkpt>
      <trkpt lat="45.77034" lon="4.90442">
        <ele>171.25879</ele>
        <time>2023-07-11T10:05:34.000Z</time>
      </trkpt>
      <trkpt lat="45.77028" lon="4.90447">
        <ele>171.24698</ele>
        <time>2023-07-11T10:05:35.000Z</time>
      </trkpt>
      <trkpt lat="45.77023" lon="4.90452">
        <ele>171.24904</ele>
        <time>2023-07-11T10:05:36.000Z</time>
      </trkpt>
      <trkpt lat="45.77018" lon="4.90457">
        <ele>171.26567</ele>
        <time>2023-07-11T10:05:37.000Z</time>
      </trkpt>
      <trkpt lat="45.77013" lon="4.90463">
        <ele>171.31097</ele>
        <time>2023-07-11T10:05:38.000Z</time>
      </trkpt>
      <trkpt lat="45.77007" lon="4.90468">
        <ele>171.35568</ele>
        <time>2023-07-11T10:05:39.000Z</time>
      </trkpt>
      <trkpt lat="45.77003" lon="4.90474">
        <ele>171.40578</ele>
        <time>2023-07-11T10:05:40.000Z</time>
      </trkpt>
      <trkpt lat="45.76998" lon="4.90479">
        <ele>171.47614</ele>
        <time>2023-07-11T10:05:41.000Z</time>
      </trkpt>
      <trkpt lat="45.76994" lon="4.90485">
        <ele>171.57576</ele>
        <time>2023-07-11T10:05:42.000Z</time>
      </trkpt>
      <trkpt lat="45.7699" lon="4.90491">
        <ele>171.65451</ele>
        <time>2023-07-11T10:05:43.000Z</time>
      </trkpt>
      <trkpt lat="45.76986" lon="4.90498">
        <ele>171.73276</ele>
        <time>2023-07-11T10:05:44.000Z</time>
      </trkpt>
      <trkpt lat="45.76982" lon="4.90504">
        <ele>171.83858</ele>
        <time>2023-07-11T10:05:45.000Z</time>
      </trkpt>
      <trkpt lat="45.76978" lon="4.90512">
        <ele>171.93791</ele>
        <time>2023-07-11T10:05:46.000Z</time>
      </trkpt>
      <trkpt lat="45.76974" lon="4.90517">
        <ele>172.03654</ele>
        <time>2023-07-11T10:05:47.000Z</time>
      </trkpt>
      <trkpt lat="45.76969" lon="4.90524">
        <ele>172.13788</ele>
        <time>2023-07-11T10:05:48.000Z</time>
      </trkpt>
      <trkpt lat="45.76966" lon="4.90531">
        <ele>172.23544</ele>
        <time>2023-07-11T10:05:49.000Z</time>
      </trkpt>
      <trkpt lat="45.76963" lon="4.90538">
        <ele>172.2812</ele>
        <time>2023-07-11T10:05:50.000Z</time>
      </trkpt>
      <trkpt lat="45.76959" lon="4.90544">
        <ele>172.29544</ele>
        <time>2023-07-11T10:05:51.000Z</time>
      </trkpt>
      <trkpt lat="45.76955" lon="4.90551">
        <ele>172.35124</ele>
        <time>2023-07-11T10:05:52.000Z</time>
      </trkpt>
      <trkpt lat="45.76951" lon="4.90558">
        <ele>172.40422</ele>
        <time>2023-07-11T10:05:53.000Z</time>
      </trkpt>
      <trkpt lat="45.76948" lon="4.90565">
        <ele>172.44778</ele>
        <time>2023-07-11T10:05:54.000Z</time>
      </trkpt>
      <trkpt lat="45.76945" lon="4.90572">
        <ele>172.48746</ele>
        <time>2023-07-11T10:05:55.000Z</time>
      </trkpt>
      <trkpt lat="45.76942" lon="4.90579">
        <ele>172.5291</ele>
        <time>2023-07-11T10:05:56.000Z</time>
      </trkpt>
      <trkpt lat="45.76938" lon="4.90586">
        <ele>172.5779</ele>
        <time>2023-07-11T10:05:57.000Z</time>
      </trkpt>
      <trkpt lat="45.76936" lon="4.90595">
        <ele>172.60432</ele>
        <time>2023-07-11T10:05:58.000Z</time>
      </trkpt>
      <trkpt lat="45.76934" lon="4.90602">
        <ele>172.6843</ele>
        <time>2023-07-11T10:05:59.000Z</time>
      </trkpt>
      <trkpt lat="45.76931" lon="4.90611">
        <ele>172.7543</ele>
        <time>2023-07-11T10:06:00.000Z</time>
      </trkpt>
      <trkpt lat="45.76929" lon="4.90617">
        <ele>172.82205</ele>
        <time>2023-07-11T10:06:01.000Z</time>
      </trkpt>
      <trkpt lat="45.76927" lon="4.90623">
        <ele>172.85562</ele>
        <time>2023-07-11T10:06:02.000Z</time>
      </trkpt>
      <trkpt lat="45.76925" lon="4.90631">
        <ele>172.89604</ele>
        <time>2023-07-11T10:06:03.000Z</time>
      </trkpt>
      <trkpt lat="45.76922" lon="4.90638">
        <ele>172.91306</ele>
        <time>2023-07-11T10:06:04.000Z</time>
      </trkpt>
      <trkpt lat="45.7692" lon="4.90645">
        <ele>172.99539</ele>
        <time>2023-07-11T10:06:05.000Z</time>
      </trkpt>
      <trkpt lat="45.76918" lon="4.90652">
        <ele>173.06116</ele>
        <time>2023-07-11T10:06:06.000Z</time>
      </trkpt>
      <trkpt lat="45.76915" lon="4.90661">
        <ele>173.15784</ele>
        <time>2023-07-11T10:06:07.000Z</time>
      </trkpt>
      <trkpt lat="45.76913" lon="4.90669">
        <ele>173.22745</ele>
        <time>2023-07-11T10:06:08.000Z</time>
      </trkpt>
      <trkpt lat="45.7691" lon="4.90677">
        <ele>173.29924</ele>
        <time>2023-07-11T10:06:09.000Z</time>
      </trkpt>
      <trkpt lat="45.76908" lon="4.90686">
        <ele>173.38768</ele>
        <time>2023-07-11T10:06:10.000Z</time>
      </trkpt>
      <trkpt lat="45.76906" lon="4.90695">
        <ele>173.49026</ele>
        <time>2023-07-11T10:06:11.000Z</time>
      </trkpt>
      <trkpt lat="45.76905" lon="4.90705">
        <ele>173.57449</ele>
        <time>2023-07-11T10:06:12.000Z</time>
      </trkpt>
      <trkpt lat="45.76903" lon="4.90714">
        <ele>173.6651</ele>
        <time>2023-07-11T10:06:13.000Z</time>
      </trkpt>
      <trkpt lat="45.76902" lon="4.90723">
        <ele>173.76863</ele>
        <time>2023-07-11T10:06:14.000Z</time>
      </trkpt>
      <trkpt lat="45.76901" lon="4.90732">
        <ele>173.87729</ele>
        <time>2023-07-11T10:06:15.000Z</time>
      </trkpt>
      <trkpt lat="45.76901" lon="4.90738">
        <ele>173.99327</ele>
        <time>2023-07-11T10:06:16.000Z</time>
      </trkpt>
      <trkpt lat="45.76899" lon="4.90746">
        <ele>174.10072</ele>
        <time>2023-07-11T10:06:17.000Z</time>
      </trkpt>
      <trkpt lat="45.76898" lon="4.90754">
        <ele>174.21129</ele>
        <time>2023-07-11T10:06:18.000Z</time>
      </trkpt>
      <trkpt lat="45.76897" lon="4.90761">
        <ele>174.2552</ele>
        <time>2023-07-11T10:06:19.000Z</time>
      </trkpt>
      <trkpt lat="45.76896" lon="4.90769">
        <ele>174.28641</ele>
        <time>2023-07-11T10:06:20.000Z</time>
      </trkpt>
      <trkpt lat="45.76894" lon="4.90776">
        <ele>174.31543</ele>
        <time>2023-07-11T10:06:21.000Z</time>
      </trkpt>
      <trkpt lat="45.76891" lon="4.90785">
        <ele>174.33765</ele>
        <time>2023-07-11T10:06:22.000Z</time>
      </trkpt>
      <trkpt lat="45.76892" lon="4.90796">
        <ele>174.3828</ele>
        <time>2023-07-11T10:06:23.000Z</time>
      </trkpt>
      <trkpt lat="45.76891" lon="4.90806">
        <ele>174.44296</ele>
        <time>2023-07-11T10:06:24.000Z</time>
      </trkpt>
      <trkpt lat="45.76891" lon="4.90815">
        <ele>174.45168</ele>
        <time>2023-07-11T10:06:25.000Z</time>
      </trkpt>
      <trkpt lat="45.76891" lon="4.90823">
        <ele>174.48283</ele>
        <time>2023-07-11T10:06:26.000Z</time>
      </trkpt>
      <trkpt lat="45.76891" lon="4.90832">
        <ele>174.45987</ele>
        <time>2023-07-11T10:06:27.000Z</time>
      </trkpt>
      <trkpt lat="45.76891" lon="4.90842">
        <ele>174.43935</ele>
        <time>2023-07-11T10:06:28.000Z</time>
      </trkpt>
      <trkpt lat="45.76891" lon="4.90851">
        <ele>174.43639</ele>
        <time>2023-07-11T10:06:29.000Z</time>
      </trkpt>
      <trkpt lat="45.7689" lon="4.90861">
        <ele>174.4832</ele>
        <time>2023-07-11T10:06:30.000Z</time>
      </trkpt>
      <trkpt lat="45.7689" lon="4.9087">
        <ele>174.50497</ele>
        <time>2023-07-11T10:06:31.000Z</time>
      </trkpt>
      <trkpt lat="45.76891" lon="4.90879">
        <ele>174.48769</ele>
        <time>2023-07-11T10:06:32.000Z</time>
      </trkpt>
      <trkpt lat="45.7689" lon="4.90888">
        <ele>174.47769</ele>
        <time>2023-07-11T10:06:33.000Z</time>
      </trkpt>
      <trkpt lat="45.7689" lon="4.90897">
        <ele>174.45197</ele>
        <time>2023-07-11T10:06:34.000Z</time>
      </trkpt>
      <trkpt lat="45.76889" lon="4.90908">
        <ele>174.44542</ele>
        <time>2023-07-11T10:06:35.000Z</time>
      </trkpt>
      <trkpt lat="45.76889" lon="4.90917">
        <ele>174.41696</ele>
        <time>2023-07-11T10:06:36.000Z</time>
      </trkpt>
      <trkpt lat="45.76889" lon="4.90927">
        <ele>174.38991</ele>
        <time>2023-07-11T10:06:37.000Z</time>
      </trkpt>
      <trkpt lat="45.76888" lon="4.90935">
        <ele>174.34683</ele>
        <time>2023-07-11T10:06:38.000Z</time>
      </trkpt>
      <trkpt lat="45.76888" lon="4.90945">
        <ele>174.32777</ele>
        <time>2023-07-11T10:06:39.000Z</time>
      </trkpt>
      <trkpt lat="45.76887" lon="4.90954">
        <ele>174.31071</ele>
        <time>2023-07-11T10:06:40.000Z</time>
      </trkpt>
      <trkpt lat="45.76888" lon="4.90963">
        <ele>174.31088</ele>
        <time>2023-07-11T10:06:41.000Z</time>
      </trkpt>
      <trkpt lat="45.76888" lon="4.90972">
        <ele>174.31827</ele>
        <time>2023-07-11T10:06:42.000Z</time>
      </trkpt>
      <trkpt lat="45.76888" lon="4.9098">
        <ele>174.33121</ele>
        <time>2023-07-11T10:06:43.000Z</time>
      </trkpt>
      <trkpt lat="45.76888" lon="4.90988">
        <ele>174.32663</ele>
        <time>2023-07-11T10:06:44.000Z</time>
      </trkpt>
      <trkpt lat="45.76888" lon="4.90997">
        <ele>174.30241</ele>
        <time>2023-07-11T10:06:45.000Z</time>
      </trkpt>
      <trkpt lat="45.76888" lon="4.91005">
        <ele>174.27617</ele>
        <time>2023-07-11T10:06:46.000Z</time>
      </trkpt>
      <trkpt lat="45.76888" lon="4.91014">
        <ele>174.28839</ele>
        <time>2023-07-11T10:06:47.000Z</time>
      </trkpt>
      <trkpt lat="45.76887" lon="4.91022">
        <ele>174.33144</ele>
        <time>2023-07-11T10:06:48.000Z</time>
      </trkpt>
      <trkpt lat="45.76887" lon="4.91031">
        <ele>174.34598</ele>
        <time>2023-07-11T10:06:49.000Z</time>
      </trkpt>
      <trkpt lat="45.76887" lon="4.9104">
        <ele>174.33032</ele>
        <time>2023-07-11T10:06:50.000Z</time>
      </trkpt>
      <trkpt lat="45.76887" lon="4.91048">
        <ele>174.32986</ele>
        <time>2023-07-11T10:06:51.000Z</time>
      </trkpt>
      <trkpt lat="45.76886" lon="4.91057">
        <ele>174.34689</ele>
        <time>2023-07-11T10:06:52.000Z</time>
      </trkpt>
      <trkpt lat="45.76886" lon="4.91065">
        <ele>174.37051</ele>
        <time>2023-07-11T10:06:53.000Z</time>
      </trkpt>
      <trkpt lat="45.76885" lon="4.91074">
        <ele>174.38977</ele>
        <time>2023-07-11T10:06:54.000Z</time>
      </trkpt>
      <trkpt lat="45.76884" lon="4.91082">
        <ele>174.39175</ele>
        <time>2023-07-11T10:06:55.000Z</time>
      </trkpt>
      <trkpt lat="45.76884" lon="4.9109">
        <ele>174.40536</ele>
        <time>2023-07-11T10:06:56.000Z</time>
      </trkpt>
      <trkpt lat="45.76884" lon="4.91099">
        <ele>174.42897</ele>
        <time>2023-07-11T10:06:57.000Z</time>
      </trkpt>
      <trkpt lat="45.76883" lon="4.91107">
        <ele>174.49417</ele>
        <time>2023-07-11T10:06:58.000Z</time>
      </trkpt>
      <trkpt lat="45.76883" lon="4.91115">
        <ele>174.54343</ele>
        <time>2023-07-11T10:06:59.000Z</time>
      </trkpt>
      <trkpt lat="45.76882" lon="4.91123">
        <ele>174.61064</ele>
        <time>2023-07-11T10:07:00.000Z</time>
      </trkpt>
      <trkpt lat="45.76882" lon="4.91132">
        <ele>174.66371</ele>
        <time>2023-07-11T10:07:01.000Z</time>
      </trkpt>
      <trkpt lat="45.76882" lon="4.91141">
        <ele>174.72267</ele>
        <time>2023-07-11T10:07:02.000Z</time>
      </trkpt>
      <trkpt lat="45.76882" lon="4.91149">
        <ele>174.74789</ele>
        <time>2023-07-11T10:07:03.000Z</time>
      </trkpt>
      <trkpt lat="45.76881" lon="4.91158">
        <ele>174.77423</ele>
        <time>2023-07-11T10:07:04.000Z</time>
      </trkpt>
      <trkpt lat="45.76881" lon="4.91167">
        <ele>174.8112</ele>
        <time>2023-07-11T10:07:05.000Z</time>
      </trkpt>
      <trkpt lat="45.76881" lon="4.91176">
        <ele>174.83385</ele>
        <time>2023-07-11T10:07:06.000Z</time>
      </trkpt>
      <trkpt lat="45.76881" lon="4.91185">
        <ele>174.8439</ele>
        <time>2023-07-11T10:07:07.000Z</time>
      </trkpt>
      <trkpt lat="45.76881" lon="4.91194">
        <ele>174.84822</ele>
        <time>2023-07-11T10:07:08.000Z</time>
      </trkpt>
      <trkpt lat="45.76881" lon="4.91203">
        <ele>174.87387</ele>
        <time>2023-07-11T10:07:09.000Z</time>
      </trkpt>
      <trkpt lat="45.76882" lon="4.91212">
        <ele>174.88857</ele>
        <time>2023-07-11T10:07:10.000Z</time>
      </trkpt>
      <trkpt lat="45.76882" lon="4.9122">
        <ele>174.91559</ele>
        <time>2023-07-11T10:07:11.000Z</time>
      </trkpt>
      <trkpt lat="45.76883" lon="4.91229">
        <ele>174.9473</ele>
        <time>2023-07-11T10:07:12.000Z</time>
      </trkpt>
      <trkpt lat="45.76883" lon="4.91238">
        <ele>174.95706</ele>
        <time>2023-07-11T10:07:13.000Z</time>
      </trkpt>
      <trkpt lat="45.76884" lon="4.91247">
        <ele>174.97118</ele>
        <time>2023-07-11T10:07:14.000Z</time>
      </trkpt>
      <trkpt lat="45.76884" lon="4.91256">
        <ele>174.96678</ele>
        <time>2023-07-11T10:07:15.000Z</time>
      </trkpt>
      <trkpt lat="45.76885" lon="4.91265">
        <ele>174.96587</ele>
        <time>2023-07-11T10:07:16.000Z</time>
      </trkpt>
      <trkpt lat="45.76885" lon="4.91273">
        <ele>174.96889</ele>
        <time>2023-07-11T10:07:17.000Z</time>
      </trkpt>
      <trkpt lat="45.76886" lon="4.91281">
        <ele>174.95323</ele>
        <time>2023-07-11T10:07:18.000Z</time>
      </trkpt>
      <trkpt lat="45.76886" lon="4.91289">
        <ele>174.96669</ele>
        <time>2023-07-11T10:07:19.000Z</time>
      </trkpt>
      <trkpt lat="45.76886" lon="4.91298">
        <ele>174.98654</ele>
        <time>2023-07-11T10:07:20.000Z</time>
      </trkpt>
      <trkpt lat="45.76887" lon="4.91305">
        <ele>174.97049</ele>
        <time>2023-07-11T10:07:21.000Z</time>
      </trkpt>
      <trkpt lat="45.76887" lon="4.91312">
        <ele>174.97369</ele>
        <time>2023-07-11T10:07:22.000Z</time>
      </trkpt>
      <trkpt lat="45.76888" lon="4.9132">
        <ele>175.00285</ele>
        <time>2023-07-11T10:07:23.000Z</time>
      </trkpt>
      <trkpt lat="45.76888" lon="4.91327">
        <ele>175.06372</ele>
        <time>2023-07-11T10:07:24.000Z</time>
      </trkpt>
      <trkpt lat="45.76888" lon="4.91334">
        <ele>175.12793</ele>
        <time>2023-07-11T10:07:25.000Z</time>
      </trkpt>
      <trkpt lat="45.76888" lon="4.9134">
        <ele>175.23112</ele>
        <time>2023-07-11T10:07:26.000Z</time>
      </trkpt>
      <trkpt lat="45.76888" lon="4.91346">
        <ele>175.36871</ele>
        <time>2023-07-11T10:07:27.000Z</time>
      </trkpt>
      <trkpt lat="45.76888" lon="4.91352">
        <ele>175.60651</ele>
        <time>2023-07-11T10:07:28.000Z</time>
      </trkpt>
      <trkpt lat="45.76888" lon="4.91358">
        <ele>175.83759</ele>
        <time>2023-07-11T10:07:29.000Z</time>
      </trkpt>
      <trkpt lat="45.76889" lon="4.91363">
        <ele>176.0853</ele>
        <time>2023-07-11T10:07:30.000Z</time>
      </trkpt>
      <trkpt lat="45.76889" lon="4.91369">
        <ele>176.34116</ele>
        <time>2023-07-11T10:07:31.000Z</time>
      </trkpt>
      <trkpt lat="45.7689" lon="4.91375">
        <ele>176.6113</ele>
        <time>2023-07-11T10:07:32.000Z</time>
      </trkpt>
      <trkpt lat="45.76891" lon="4.9138">
        <ele>176.83951</ele>
        <time>2023-07-11T10:07:33.000Z</time>
      </trkpt>
      <trkpt lat="45.76891" lon="4.91385">
        <ele>177.0475</ele>
        <time>2023-07-11T10:07:34.000Z</time>
      </trkpt>
      <trkpt lat="45.76891" lon="4.91391">
        <ele>177.37709</ele>
        <time>2023-07-11T10:07:35.000Z</time>
      </trkpt>
      <trkpt lat="45.76891" lon="4.91397">
        <ele>177.67514</ele>
        <time>2023-07-11T10:07:36.000Z</time>
      </trkpt>
      <trkpt lat="45.76892" lon="4.91402">
        <ele>177.96655</ele>
        <time>2023-07-11T10:07:37.000Z</time>
      </trkpt>
      <trkpt lat="45.76892" lon="4.91408">
        <ele>178.2438</ele>
        <time>2023-07-11T10:07:38.000Z</time>
      </trkpt>
      <trkpt lat="45.76893" lon="4.91415">
        <ele>178.49246</ele>
        <time>2023-07-11T10:07:39.000Z</time>
      </trkpt>
      <trkpt lat="45.76894" lon="4.91422">
        <ele>178.73225</ele>
        <time>2023-07-11T10:07:40.000Z</time>
      </trkpt>
      <trkpt lat="45.76895" lon="4.91428">
        <ele>179.01315</ele>
        <time>2023-07-11T10:07:41.000Z</time>
      </trkpt>
      <trkpt lat="45.76896" lon="4.91435">
        <ele>179.2756</ele>
        <time>2023-07-11T10:07:42.000Z</time>
      </trkpt>
      <trkpt lat="45.76897" lon="4.91442">
        <ele>179.52515</ele>
        <time>2023-07-11T10:07:43.000Z</time>
      </trkpt>
      <trkpt lat="45.76898" lon="4.9145">
        <ele>179.67754</ele>
        <time>2023-07-11T10:07:44.000Z</time>
      </trkpt>
      <trkpt lat="45.76899" lon="4.91457">
        <ele>179.78226</ele>
        <time>2023-07-11T10:07:45.000Z</time>
      </trkpt>
      <trkpt lat="45.769" lon="4.91465">
        <ele>179.82358</ele>
        <time>2023-07-11T10:07:46.000Z</time>
      </trkpt>
      <trkpt lat="45.76901" lon="4.91473">
        <ele>179.93102</ele>
        <time>2023-07-11T10:07:47.000Z</time>
      </trkpt>
      <trkpt lat="45.76902" lon="4.91482">
        <ele>179.92717</ele>
        <time>2023-07-11T10:07:48.000Z</time>
      </trkpt>
      <trkpt lat="45.76903" lon="4.9149">
        <ele>179.91412</ele>
        <time>2023-07-11T10:07:49.000Z</time>
      </trkpt>
      <trkpt lat="45.76904" lon="4.91498">
        <ele>179.89096</ele>
        <time>2023-07-11T10:07:50.000Z</time>
      </trkpt>
      <trkpt lat="45.76905" lon="4.91507">
        <ele>179.83694</ele>
        <time>2023-07-11T10:07:51.000Z</time>
      </trkpt>
      <trkpt lat="45.76905" lon="4.91515">
        <ele>179.76611</ele>
        <time>2023-07-11T10:07:52.000Z</time>
      </trkpt>
      <trkpt lat="45.76906" lon="4.91524">
        <ele>179.75362</ele>
        <time>2023-07-11T10:07:53.000Z</time>
      </trkpt>
      <trkpt lat="45.76907" lon="4.91533">
        <ele>179.74202</ele>
        <time>2023-07-11T10:07:54.000Z</time>
      </trkpt>
      <trkpt lat="45.76907" lon="4.91541">
        <ele>179.61182</ele>
        <time>2023-07-11T10:07:55.000Z</time>
      </trkpt>
      <trkpt lat="45.76908" lon="4.9155">
        <ele>179.50934</ele>
        <time>2023-07-11T10:07:56.000Z</time>
      </trkpt>
      <trkpt lat="45.76909" lon="4.91561">
        <ele>179.453</ele>
        <time>2023-07-11T10:07:57.000Z</time>
      </trkpt>
      <trkpt lat="45.7691" lon="4.91569">
        <ele>179.39687</ele>
        <time>2023-07-11T10:07:58.000Z</time>
      </trkpt>
      <trkpt lat="45.7691" lon="4.91578">
        <ele>179.34818</ele>
        <time>2023-07-11T10:07:59.000Z</time>
      </trkpt>
      <trkpt lat="45.7691" lon="4.91587">
        <ele>179.31033</ele>
        <time>2023-07-11T10:08:00.000Z</time>
      </trkpt>
      <trkpt lat="45.76911" lon="4.91595">
        <ele>179.27246</ele>
        <time>2023-07-11T10:08:01.000Z</time>
      </trkpt>
      <trkpt lat="45.76912" lon="4.91604">
        <ele>179.19814</ele>
        <time>2023-07-11T10:08:02.000Z</time>
      </trkpt>
      <trkpt lat="45.76913" lon="4.91613">
        <ele>179.12363</ele>
        <time>2023-07-11T10:08:03.000Z</time>
      </trkpt>
      <trkpt lat="45.76914" lon="4.91622">
        <ele>179.12219</ele>
        <time>2023-07-11T10:08:04.000Z</time>
      </trkpt>
      <trkpt lat="45.76915" lon="4.9163">
        <ele>179.16295</ele>
        <time>2023-07-11T10:08:05.000Z</time>
      </trkpt>
      <trkpt lat="45.76915" lon="4.91639">
        <ele>179.23701</ele>
        <time>2023-07-11T10:08:06.000Z</time>
      </trkpt>
      <trkpt lat="45.76916" lon="4.91648">
        <ele>179.2227</ele>
        <time>2023-07-11T10:08:07.000Z</time>
      </trkpt>
      <trkpt lat="45.76916" lon="4.91657">
        <ele>179.22067</ele>
        <time>2023-07-11T10:08:08.000Z</time>
      </trkpt>
      <trkpt lat="45.76917" lon="4.91666">
        <ele>179.25371</ele>
        <time>2023-07-11T10:08:09.000Z</time>
      </trkpt>
      <trkpt lat="45.76918" lon="4.91674">
        <ele>179.27946</ele>
        <time>2023-07-11T10:08:10.000Z</time>
      </trkpt>
      <trkpt lat="45.76918" lon="4.91682">
        <ele>179.32672</ele>
        <time>2023-07-11T10:08:11.000Z</time>
      </trkpt>
      <trkpt lat="45.76918" lon="4.91691">
        <ele>179.37747</ele>
        <time>2023-07-11T10:08:12.000Z</time>
      </trkpt>
      <trkpt lat="45.76918" lon="4.917">
        <ele>179.41745</ele>
        <time>2023-07-11T10:08:13.000Z</time>
      </trkpt>
      <trkpt lat="45.76918" lon="4.91709">
        <ele>179.46964</ele>
        <time>2023-07-11T10:08:14.000Z</time>
      </trkpt>
      <trkpt lat="45.76918" lon="4.91718">
        <ele>179.52788</ele>
        <time>2023-07-11T10:08:15.000Z</time>
      </trkpt>
      <trkpt lat="45.76918" lon="4.91728">
        <ele>179.59894</ele>
        <time>2023-07-11T10:08:16.000Z</time>
      </trkpt>
      <trkpt lat="45.76918" lon="4.91737">
        <ele>179.63901</ele>
        <time>2023-07-11T10:08:17.000Z</time>
      </trkpt>
      <trkpt lat="45.76919" lon="4.91747">
        <ele>179.6962</ele>
        <time>2023-07-11T10:08:18.000Z</time>
      </trkpt>
      <trkpt lat="45.76919" lon="4.91756">
        <ele>179.70975</ele>
        <time>2023-07-11T10:08:19.000Z</time>
      </trkpt>
      <trkpt lat="45.76919" lon="4.91765">
        <ele>179.70076</ele>
        <time>2023-07-11T10:08:20.000Z</time>
      </trkpt>
      <trkpt lat="45.7692" lon="4.91774">
        <ele>179.68785</ele>
        <time>2023-07-11T10:08:21.000Z</time>
      </trkpt>
      <trkpt lat="45.7692" lon="4.91784">
        <ele>179.72672</ele>
        <time>2023-07-11T10:08:22.000Z</time>
      </trkpt>
      <trkpt lat="45.76921" lon="4.91794">
        <ele>179.74588</ele>
        <time>2023-07-11T10:08:23.000Z</time>
      </trkpt>
      <trkpt lat="45.76921" lon="4.91803">
        <ele>179.76927</ele>
        <time>2023-07-11T10:08:24.000Z</time>
      </trkpt>
      <trkpt lat="45.76921" lon="4.91812">
        <ele>179.8038</ele>
        <time>2023-07-11T10:08:25.000Z</time>
      </trkpt>
      <trkpt lat="45.76921" lon="4.91822">
        <ele>179.85345</ele>
        <time>2023-07-11T10:08:26.000Z</time>
      </trkpt>
      <trkpt lat="45.76922" lon="4.91831">
        <ele>179.89331</ele>
        <time>2023-07-11T10:08:27.000Z</time>
      </trkpt>
      <trkpt lat="45.76922" lon="4.91841">
        <ele>179.93582</ele>
        <time>2023-07-11T10:08:28.000Z</time>
      </trkpt>
      <trkpt lat="45.76922" lon="4.91851">
        <ele>179.94995</ele>
        <time>2023-07-11T10:08:29.000Z</time>
      </trkpt>
      <trkpt lat="45.76922" lon="4.9186">
        <ele>179.97522</ele>
        <time>2023-07-11T10:08:30.000Z</time>
      </trkpt>
      <trkpt lat="45.76923" lon="4.9187">
        <ele>179.99001</ele>
        <time>2023-07-11T10:08:31.000Z</time>
      </trkpt>
      <trkpt lat="45.76923" lon="4.91879">
        <ele>180.01346</ele>
        <time>2023-07-11T10:08:32.000Z</time>
      </trkpt>
      <trkpt lat="45.76924" lon="4.91889">
        <ele>179.97543</ele>
        <time>2023-07-11T10:08:33.000Z</time>
      </trkpt>
      <trkpt lat="45.76924" lon="4.91898">
        <ele>179.92799</ele>
        <time>2023-07-11T10:08:34.000Z</time>
      </trkpt>
      <trkpt lat="45.76924" lon="4.91907">
        <ele>179.85085</ele>
        <time>2023-07-11T10:08:35.000Z</time>
      </trkpt>
      <trkpt lat="45.76924" lon="4.91916">
        <ele>179.858</ele>
        <time>2023-07-11T10:08:36.000Z</time>
      </trkpt>
      <trkpt lat="45.76925" lon="4.91925">
        <ele>179.81406</ele>
        <time>2023-07-11T10:08:37.000Z</time>
      </trkpt>
      <trkpt lat="45.76926" lon="4.91933">
        <ele>179.74228</ele>
        <time>2023-07-11T10:08:38.000Z</time>
      </trkpt>
      <trkpt lat="45.76928" lon="4.91942">
        <ele>179.70102</ele>
        <time>2023-07-11T10:08:39.000Z</time>
      </trkpt>
      <trkpt lat="45.76928" lon="4.91951">
        <ele>179.68768</ele>
        <time>2023-07-11T10:08:40.000Z</time>
      </trkpt>
      <trkpt lat="45.76927" lon="4.9196">
        <ele>179.67209</ele>
        <time>2023-07-11T10:08:41.000Z</time>
      </trkpt>
      <trkpt lat="45.76927" lon="4.91969">
        <ele>179.64345</ele>
        <time>2023-07-11T10:08:42.000Z</time>
      </trkpt>
      <trkpt lat="45.76926" lon="4.91978">
        <ele>179.60272</ele>
        <time>2023-07-11T10:08:43.000Z</time>
      </trkpt>
      <trkpt lat="45.76927" lon="4.91988">
        <ele>179.56435</ele>
        <time>2023-07-11T10:08:44.000Z</time>
      </trkpt>
      <trkpt lat="45.76928" lon="4.91997">
        <ele>179.5166</ele>
        <time>2023-07-11T10:08:45.000Z</time>
      </trkpt>
      <trkpt lat="45.76929" lon="4.92006">
        <ele>179.46799</ele>
        <time>2023-07-11T10:08:46.000Z</time>
      </trkpt>
      <trkpt lat="45.76929" lon="4.92015">
        <ele>179.41953</ele>
        <time>2023-07-11T10:08:47.000Z</time>
      </trkpt>
      <trkpt lat="45.76929" lon="4.92025">
        <ele>179.38174</ele>
        <time>2023-07-11T10:08:48.000Z</time>
      </trkpt>
      <trkpt lat="45.7693" lon="4.92034">
        <ele>179.36186</ele>
        <time>2023-07-11T10:08:49.000Z</time>
      </trkpt>
      <trkpt lat="45.7693" lon="4.92043">
        <ele>179.33731</ele>
        <time>2023-07-11T10:08:50.000Z</time>
      </trkpt>
      <trkpt lat="45.76931" lon="4.92051">
        <ele>179.23874</ele>
        <time>2023-07-11T10:08:51.000Z</time>
      </trkpt>
      <trkpt lat="45.76932" lon="4.9206">
        <ele>179.30023</ele>
        <time>2023-07-11T10:08:52.000Z</time>
      </trkpt>
      <trkpt lat="45.76933" lon="4.92069">
        <ele>179.46521</ele>
        <time>2023-07-11T10:08:53.000Z</time>
      </trkpt>
      <trkpt lat="45.76933" lon="4.92078">
        <ele>179.64133</ele>
        <time>2023-07-11T10:08:54.000Z</time>
      </trkpt>
      <trkpt lat="45.76934" lon="4.92087">
        <ele>179.85062</ele>
        <time>2023-07-11T10:08:55.000Z</time>
      </trkpt>
      <trkpt lat="45.76935" lon="4.92096">
        <ele>179.93997</ele>
        <time>2023-07-11T10:08:56.000Z</time>
      </trkpt>
      <trkpt lat="45.76935" lon="4.92104">
        <ele>180.07167</ele>
        <time>2023-07-11T10:08:57.000Z</time>
      </trkpt>
      <trkpt lat="45.76935" lon="4.92113">
        <ele>180.23521</ele>
        <time>2023-07-11T10:08:58.000Z</time>
      </trkpt>
      <trkpt lat="45.76936" lon="4.92122">
        <ele>180.41202</ele>
        <time>2023-07-11T10:08:59.000Z</time>
      </trkpt>
      <trkpt lat="45.76937" lon="4.92131">
        <ele>180.56653</ele>
        <time>2023-07-11T10:09:00.000Z</time>
      </trkpt>
      <trkpt lat="45.76938" lon="4.9214">
        <ele>180.73053</ele>
        <time>2023-07-11T10:09:01.000Z</time>
      </trkpt>
      <trkpt lat="45.7694" lon="4.92148">
        <ele>180.86299</ele>
        <time>2023-07-11T10:09:02.000Z</time>
      </trkpt>
      <trkpt lat="45.7694" lon="4.92158">
        <ele>181.02505</ele>
        <time>2023-07-11T10:09:03.000Z</time>
      </trkpt>
      <trkpt lat="45.76941" lon="4.92167">
        <ele>181.19559</ele>
        <time>2023-07-11T10:09:04.000Z</time>
      </trkpt>
      <trkpt lat="45.76942" lon="4.92176">
        <ele>181.35825</ele>
        <time>2023-07-11T10:09:05.000Z</time>
      </trkpt>
      <trkpt lat="45.76943" lon="4.92185">
        <ele>181.5213</ele>
        <time>2023-07-11T10:09:06.000Z</time>
      </trkpt>
      <trkpt lat="45.76943" lon="4.92194">
        <ele>181.68762</ele>
        <time>2023-07-11T10:09:07.000Z</time>
      </trkpt>
      <trkpt lat="45.76943" lon="4.92202">
        <ele>181.84859</ele>
        <time>2023-07-11T10:09:08.000Z</time>
      </trkpt>
      <trkpt lat="45.76944" lon="4.92212">
        <ele>182.01714</ele>
        <time>2023-07-11T10:09:09.000Z</time>
      </trkpt>
      <trkpt lat="45.76945" lon="4.92221">
        <ele>182.17062</ele>
        <time>2023-07-11T10:09:10.000Z</time>
      </trkpt>
      <trkpt lat="45.76946" lon="4.92229">
        <ele>182.42131</ele>
        <time>2023-07-11T10:09:11.000Z</time>
      </trkpt>
      <trkpt lat="45.76948" lon="4.92238">
        <ele>182.49205</ele>
        <time>2023-07-11T10:09:12.000Z</time>
      </trkpt>
      <trkpt lat="45.76949" lon="4.92247">
        <ele>182.52449</ele>
        <time>2023-07-11T10:09:13.000Z</time>
      </trkpt>
      <trkpt lat="45.76951" lon="4.92257">
        <ele>182.56798</ele>
        <time>2023-07-11T10:09:14.000Z</time>
      </trkpt>
      <trkpt lat="45.76953" lon="4.92266">
        <ele>182.59946</ele>
        <time>2023-07-11T10:09:15.000Z</time>
      </trkpt>
      <trkpt lat="45.76954" lon="4.92275">
        <ele>182.64786</ele>
        <time>2023-07-11T10:09:16.000Z</time>
      </trkpt>
      <trkpt lat="45.76955" lon="4.92284">
        <ele>182.66446</ele>
        <time>2023-07-11T10:09:17.000Z</time>
      </trkpt>
      <trkpt lat="45.76957" lon="4.92294">
        <ele>182.67336</ele>
        <time>2023-07-11T10:09:18.000Z</time>
      </trkpt>
      <trkpt lat="45.76958" lon="4.92303">
        <ele>182.67445</ele>
        <time>2023-07-11T10:09:19.000Z</time>
      </trkpt>
      <trkpt lat="45.76959" lon="4.92312">
        <ele>182.68437</ele>
        <time>2023-07-11T10:09:20.000Z</time>
      </trkpt>
      <trkpt lat="45.76961" lon="4.9232">
        <ele>182.66997</ele>
        <time>2023-07-11T10:09:21.000Z</time>
      </trkpt>
      <trkpt lat="45.76963" lon="4.9233">
        <ele>182.68497</ele>
        <time>2023-07-11T10:09:22.000Z</time>
      </trkpt>
      <trkpt lat="45.76964" lon="4.92338">
        <ele>182.70007</ele>
        <time>2023-07-11T10:09:23.000Z</time>
      </trkpt>
      <trkpt lat="45.76965" lon="4.92348">
        <ele>182.6963</ele>
        <time>2023-07-11T10:09:24.000Z</time>
      </trkpt>
      <trkpt lat="45.76967" lon="4.92357">
        <ele>182.6925</ele>
        <time>2023-07-11T10:09:25.000Z</time>
      </trkpt>
      <trkpt lat="45.76968" lon="4.92366">
        <ele>182.68932</ele>
        <time>2023-07-11T10:09:26.000Z</time>
      </trkpt>
      <trkpt lat="45.7697" lon="4.92375">
        <ele>182.67822</ele>
        <time>2023-07-11T10:09:27.000Z</time>
      </trkpt>
      <trkpt lat="45.76971" lon="4.92385">
        <ele>182.66983</ele>
        <time>2023-07-11T10:09:28.000Z</time>
      </trkpt>
      <trkpt lat="45.76972" lon="4.92395">
        <ele>182.63956</ele>
        <time>2023-07-11T10:09:29.000Z</time>
      </trkpt>
      <trkpt lat="45.76974" lon="4.92405">
        <ele>182.60721</ele>
        <time>2023-07-11T10:09:30.000Z</time>
      </trkpt>
      <trkpt lat="45.76975" lon="4.92415">
        <ele>182.56885</ele>
        <time>2023-07-11T10:09:31.000Z</time>
      </trkpt>
      <trkpt lat="45.76977" lon="4.92423">
        <ele>182.52962</ele>
        <time>2023-07-11T10:09:32.000Z</time>
      </trkpt>
      <trkpt lat="45.76978" lon="4.92433">
        <ele>182.50916</ele>
        <time>2023-07-11T10:09:33.000Z</time>
      </trkpt>
      <trkpt lat="45.76979" lon="4.92443">
        <ele>182.48714</ele>
        <time>2023-07-11T10:09:34.000Z</time>
      </trkpt>
      <trkpt lat="45.7698" lon="4.92452">
        <ele>182.45787</ele>
        <time>2023-07-11T10:09:35.000Z</time>
      </trkpt>
      <trkpt lat="45.76981" lon="4.92461">
        <ele>182.43571</ele>
        <time>2023-07-11T10:09:36.000Z</time>
      </trkpt>
      <trkpt lat="45.76983" lon="4.92471">
        <ele>182.45476</ele>
        <time>2023-07-11T10:09:37.000Z</time>
      </trkpt>
      <trkpt lat="45.76984" lon="4.9248">
        <ele>182.48216</ele>
        <time>2023-07-11T10:09:38.000Z</time>
      </trkpt>
      <trkpt lat="45.76986" lon="4.9249">
        <ele>182.51608</ele>
        <time>2023-07-11T10:09:39.000Z</time>
      </trkpt>
      <trkpt lat="45.76988" lon="4.92498">
        <ele>182.52821</ele>
        <time>2023-07-11T10:09:40.000Z</time>
      </trkpt>
      <trkpt lat="45.7699" lon="4.92506">
        <ele>182.53658</ele>
        <time>2023-07-11T10:09:41.000Z</time>
      </trkpt>
      <trkpt lat="45.76991" lon="4.92515">
        <ele>182.55225</ele>
        <time>2023-07-11T10:09:42.000Z</time>
      </trkpt>
      <trkpt lat="45.76992" lon="4.92523">
        <ele>182.57797</ele>
        <time>2023-07-11T10:09:43.000Z</time>
      </trkpt>
      <trkpt lat="45.76994" lon="4.92532">
        <ele>182.61026</ele>
        <time>2023-07-11T10:09:44.000Z</time>
      </trkpt>
      <trkpt lat="45.76995" lon="4.92541">
        <ele>182.6409</ele>
        <time>2023-07-11T10:09:45.000Z</time>
      </trkpt>
      <trkpt lat="45.76997" lon="4.92549">
        <ele>182.65601</ele>
        <time>2023-07-11T10:09:46.000Z</time>
      </trkpt>
      <trkpt lat="45.76998" lon="4.92558">
        <ele>182.66078</ele>
        <time>2023-07-11T10:09:47.000Z</time>
      </trkpt>
      <trkpt lat="45.77" lon="4.92566">
        <ele>182.64043</ele>
        <time>2023-07-11T10:09:48.000Z</time>
      </trkpt>
      <trkpt lat="45.77002" lon="4.92576">
        <ele>182.63864</ele>
        <time>2023-07-11T10:09:49.000Z</time>
      </trkpt>
      <trkpt lat="45.77003" lon="4.92584">
        <ele>182.65297</ele>
        <time>2023-07-11T10:09:50.000Z</time>
      </trkpt>
      <trkpt lat="45.77005" lon="4.92592">
        <ele>182.65891</ele>
        <time>2023-07-11T10:09:51.000Z</time>
      </trkpt>
      <trkpt lat="45.77006" lon="4.92601">
        <ele>182.69147</ele>
        <time>2023-07-11T10:09:52.000Z</time>
      </trkpt>
      <trkpt lat="45.77007" lon="4.9261">
        <ele>182.70284</ele>
        <time>2023-07-11T10:09:53.000Z</time>
      </trkpt>
      <trkpt lat="45.77009" lon="4.92617">
        <ele>182.68521</ele>
        <time>2023-07-11T10:09:54.000Z</time>
      </trkpt>
      <trkpt lat="45.7701" lon="4.92626">
        <ele>182.68925</ele>
        <time>2023-07-11T10:09:55.000Z</time>
      </trkpt>
      <trkpt lat="45.77012" lon="4.92635">
        <ele>182.67398</ele>
        <time>2023-07-11T10:09:56.000Z</time>
      </trkpt>
      <trkpt lat="45.77013" lon="4.92643">
        <ele>182.66486</ele>
        <time>2023-07-11T10:09:57.000Z</time>
      </trkpt>
      <trkpt lat="45.77015" lon="4.92651">
        <ele>182.62889</ele>
        <time>2023-07-11T10:09:58.000Z</time>
      </trkpt>
      <trkpt lat="45.77016" lon="4.9266">
        <ele>182.59146</ele>
        <time>2023-07-11T10:09:59.000Z</time>
      </trkpt>
      <trkpt lat="45.77018" lon="4.92669">
        <ele>182.56786</ele>
        <time>2023-07-11T10:10:00.000Z</time>
      </trkpt>
      <trkpt lat="45.77019" lon="4.92677">
        <ele>182.55087</ele>
        <time>2023-07-11T10:10:01.000Z</time>
      </trkpt>
      <trkpt lat="45.7702" lon="4.92686">
        <ele>182.53455</ele>
        <time>2023-07-11T10:10:02.000Z</time>
      </trkpt>
      <trkpt lat="45.77022" lon="4.92695">
        <ele>182.52066</ele>
        <time>2023-07-11T10:10:03.000Z</time>
      </trkpt>
      <trkpt lat="45.77023" lon="4.92703">
        <ele>182.50706</ele>
        <time>2023-07-11T10:10:04.000Z</time>
      </trkpt>
      <trkpt lat="45.77024" lon="4.92711">
        <ele>182.49922</ele>
        <time>2023-07-11T10:10:05.000Z</time>
      </trkpt>
      <trkpt lat="45.77025" lon="4.9272">
        <ele>182.50473</ele>
        <time>2023-07-11T10:10:06.000Z</time>
      </trkpt>
      <trkpt lat="45.77027" lon="4.92728">
        <ele>182.53305</ele>
        <time>2023-07-11T10:10:07.000Z</time>
      </trkpt>
      <trkpt lat="45.77028" lon="4.92737">
        <ele>182.573</ele>
        <time>2023-07-11T10:10:08.000Z</time>
      </trkpt>
      <trkpt lat="45.7703" lon="4.92745">
        <ele>182.59012</ele>
        <time>2023-07-11T10:10:09.000Z</time>
      </trkpt>
      <trkpt lat="45.77032" lon="4.92754">
        <ele>182.60629</ele>
        <time>2023-07-11T10:10:10.000Z</time>
      </trkpt>
      <trkpt lat="45.77033" lon="4.92763">
        <ele>182.61211</ele>
        <time>2023-07-11T10:10:11.000Z</time>
      </trkpt>
      <trkpt lat="45.77034" lon="4.92772">
        <ele>182.59792</ele>
        <time>2023-07-11T10:10:12.000Z</time>
      </trkpt>
      <trkpt lat="45.77035" lon="4.92781">
        <ele>182.59915</ele>
        <time>2023-07-11T10:10:13.000Z</time>
      </trkpt>
      <trkpt lat="45.77037" lon="4.92789">
        <ele>182.62491</ele>
        <time>2023-07-11T10:10:14.000Z</time>
      </trkpt>
      <trkpt lat="45.77039" lon="4.92798">
        <ele>182.644</ele>
        <time>2023-07-11T10:10:15.000Z</time>
      </trkpt>
      <trkpt lat="45.7704" lon="4.92806">
        <ele>182.66289</ele>
        <time>2023-07-11T10:10:16.000Z</time>
      </trkpt>
      <trkpt lat="45.77042" lon="4.92815">
        <ele>182.68921</ele>
        <time>2023-07-11T10:10:17.000Z</time>
      </trkpt>
      <trkpt lat="45.77043" lon="4.92824">
        <ele>182.73648</ele>
        <time>2023-07-11T10:10:18.000Z</time>
      </trkpt>
      <trkpt lat="45.77045" lon="4.92832">
        <ele>182.77768</ele>
        <time>2023-07-11T10:10:19.000Z</time>
      </trkpt>
      <trkpt lat="45.77046" lon="4.92841">
        <ele>182.81064</ele>
        <time>2023-07-11T10:10:20.000Z</time>
      </trkpt>
      <trkpt lat="45.77048" lon="4.9285">
        <ele>182.85396</ele>
        <time>2023-07-11T10:10:21.000Z</time>
      </trkpt>
      <trkpt lat="45.7705" lon="4.92858">
        <ele>182.90402</ele>
        <time>2023-07-11T10:10:22.000Z</time>
      </trkpt>
      <trkpt lat="45.77051" lon="4.92867">
        <ele>182.95016</ele>
        <time>2023-07-11T10:10:23.000Z</time>
      </trkpt>
      <trkpt lat="45.77053" lon="4.92876">
        <ele>183.01265</ele>
        <time>2023-07-11T10:10:24.000Z</time>
      </trkpt>
      <trkpt lat="45.77054" lon="4.92883">
        <ele>183.04715</ele>
        <time>2023-07-11T10:10:25.000Z</time>
      </trkpt>
      <trkpt lat="45.77056" lon="4.92892">
        <ele>183.08386</ele>
        <time>2023-07-11T10:10:26.000Z</time>
      </trkpt>
      <trkpt lat="45.77057" lon="4.929">
        <ele>183.12997</ele>
        <time>2023-07-11T10:10:27.000Z</time>
      </trkpt>
      <trkpt lat="45.77059" lon="4.92908">
        <ele>183.17793</ele>
        <time>2023-07-11T10:10:28.000Z</time>
      </trkpt>
      <trkpt lat="45.7706" lon="4.92917">
        <ele>183.23898</ele>
        <time>2023-07-11T10:10:29.000Z</time>
      </trkpt>
      <trkpt lat="45.77061" lon="4.92925">
        <ele>183.30075</ele>
        <time>2023-07-11T10:10:30.000Z</time>
      </trkpt>
      <trkpt lat="45.77063" lon="4.92934">
        <ele>183.36092</ele>
        <time>2023-07-11T10:10:31.000Z</time>
      </trkpt>
      <trkpt lat="45.77065" lon="4.92942">
        <ele>183.41055</ele>
        <time>2023-07-11T10:10:32.000Z</time>
      </trkpt>
      <trkpt lat="45.77066" lon="4.92951">
        <ele>183.45024</ele>
        <time>2023-07-11T10:10:33.000Z</time>
      </trkpt>
      <trkpt lat="45.77067" lon="4.92959">
        <ele>183.48592</ele>
        <time>2023-07-11T10:10:34.000Z</time>
      </trkpt>
      <trkpt lat="45.77069" lon="4.92968">
        <ele>183.52574</ele>
        <time>2023-07-11T10:10:35.000Z</time>
      </trkpt>
      <trkpt lat="45.7707" lon="4.92976">
        <ele>183.5914</ele>
        <time>2023-07-11T10:10:36.000Z</time>
      </trkpt>
      <trkpt lat="45.77072" lon="4.92985">
        <ele>183.62952</ele>
        <time>2023-07-11T10:10:37.000Z</time>
      </trkpt>
      <trkpt lat="45.77073" lon="4.92994">
        <ele>183.6678</ele>
        <time>2023-07-11T10:10:38.000Z</time>
      </trkpt>
      <trkpt lat="45.77074" lon="4.93003">
        <ele>183.70723</ele>
        <time>2023-07-11T10:10:39.000Z</time>
      </trkpt>
      <trkpt lat="45.77075" lon="4.93011">
        <ele>183.74529</ele>
        <time>2023-07-11T10:10:40.000Z</time>
      </trkpt>
      <trkpt lat="45.77076" lon="4.93021">
        <ele>183.78465</ele>
        <time>2023-07-11T10:10:41.000Z</time>
      </trkpt>
      <trkpt lat="45.77078" lon="4.93029">
        <ele>183.80621</ele>
        <time>2023-07-11T10:10:42.000Z</time>
      </trkpt>
      <trkpt lat="45.7708" lon="4.93037">
        <ele>183.80563</ele>
        <time>2023-07-11T10:10:43.000Z</time>
      </trkpt>
      <trkpt lat="45.77081" lon="4.93046">
        <ele>183.7972</ele>
        <time>2023-07-11T10:10:44.000Z</time>
      </trkpt>
      <trkpt lat="45.77082" lon="4.93055">
        <ele>183.81978</ele>
        <time>2023-07-11T10:10:45.000Z</time>
      </trkpt>
      <trkpt lat="45.77084" lon="4.93063">
        <ele>183.84248</ele>
        <time>2023-07-11T10:10:46.000Z</time>
      </trkpt>
      <trkpt lat="45.77085" lon="4.93071">
        <ele>183.84309</ele>
        <time>2023-07-11T10:10:47.000Z</time>
      </trkpt>
      <trkpt lat="45.77087" lon="4.93079">
        <ele>183.84293</ele>
        <time>2023-07-11T10:10:48.000Z</time>
      </trkpt>
      <trkpt lat="45.77089" lon="4.93087">
        <ele>183.83826</ele>
        <time>2023-07-11T10:10:49.000Z</time>
      </trkpt>
      <trkpt lat="45.7709" lon="4.93094">
        <ele>183.7963</ele>
        <time>2023-07-11T10:10:50.000Z</time>
      </trkpt>
      <trkpt lat="45.77091" lon="4.93103">
        <ele>183.76517</ele>
        <time>2023-07-11T10:10:51.000Z</time>
      </trkpt>
      <trkpt lat="45.77093" lon="4.9311">
        <ele>183.74213</ele>
        <time>2023-07-11T10:10:52.000Z</time>
      </trkpt>
      <trkpt lat="45.77094" lon="4.93119">
        <ele>183.72295</ele>
        <time>2023-07-11T10:10:53.000Z</time>
      </trkpt>
      <trkpt lat="45.77096" lon="4.93127">
        <ele>183.72343</ele>
        <time>2023-07-11T10:10:54.000Z</time>
      </trkpt>
      <trkpt lat="45.77097" lon="4.93135">
        <ele>183.70775</ele>
        <time>2023-07-11T10:10:55.000Z</time>
      </trkpt>
      <trkpt lat="45.77099" lon="4.93143">
        <ele>183.6846</ele>
        <time>2023-07-11T10:10:56.000Z</time>
      </trkpt>
      <trkpt lat="45.77101" lon="4.9315">
        <ele>183.64671</ele>
        <time>2023-07-11T10:10:57.000Z</time>
      </trkpt>
      <trkpt lat="45.77104" lon="4.93158">
        <ele>183.59743</ele>
        <time>2023-07-11T10:10:58.000Z</time>
      </trkpt>
      <trkpt lat="45.77107" lon="4.93164">
        <ele>183.54758</ele>
        <time>2023-07-11T10:10:59.000Z</time>
      </trkpt>
      <trkpt lat="45.7711" lon="4.93171">
        <ele>183.5126</ele>
        <time>2023-07-11T10:11:00.000Z</time>
      </trkpt>
      <trkpt lat="45.77114" lon="4.93178">
        <ele>183.49626</ele>
        <time>2023-07-11T10:11:01.000Z</time>
      </trkpt>
      <trkpt lat="45.77118" lon="4.93185">
        <ele>183.52412</ele>
        <time>2023-07-11T10:11:02.000Z</time>
      </trkpt>
      <trkpt lat="45.77121" lon="4.93192">
        <ele>183.5748</ele>
        <time>2023-07-11T10:11:03.000Z</time>
      </trkpt>
      <trkpt lat="45.77124" lon="4.93199">
        <ele>183.58324</ele>
        <time>2023-07-11T10:11:04.000Z</time>
      </trkpt>
      <trkpt lat="45.77126" lon="4.93207">
        <ele>183.60695</ele>
        <time>2023-07-11T10:11:05.000Z</time>
      </trkpt>
      <trkpt lat="45.77129" lon="4.93214">
        <ele>183.67511</ele>
        <time>2023-07-11T10:11:06.000Z</time>
      </trkpt>
      <trkpt lat="45.77133" lon="4.93219">
        <ele>183.74591</ele>
        <time>2023-07-11T10:11:07.000Z</time>
      </trkpt>
      <trkpt lat="45.77138" lon="4.93224">
        <ele>183.85052</ele>
        <time>2023-07-11T10:11:08.000Z</time>
      </trkpt>
      <trkpt lat="45.77143" lon="4.93228">
        <ele>183.97743</ele>
        <time>2023-07-11T10:11:09.000Z</time>
      </trkpt>
      <trkpt lat="45.77148" lon="4.9323">
        <ele>184.18436</ele>
        <time>2023-07-11T10:11:10.000Z</time>
      </trkpt>
      <trkpt lat="45.77154" lon="4.93231">
        <ele>184.44423</ele>
        <time>2023-07-11T10:11:11.000Z</time>
      </trkpt>
      <trkpt lat="45.7716" lon="4.93232">
        <ele>184.7041</ele>
        <time>2023-07-11T10:11:12.000Z</time>
      </trkpt>
      <trkpt lat="45.77166" lon="4.93231">
        <ele>184.92699</ele>
        <time>2023-07-11T10:11:13.000Z</time>
      </trkpt>
      <trkpt lat="45.77169" lon="4.93234">
        <ele>185.13416</ele>
        <time>2023-07-11T10:11:14.000Z</time>
      </trkpt>
      <trkpt lat="45.77169" lon="4.93239">
        <ele>185.32449</ele>
        <time>2023-07-11T10:11:15.000Z</time>
      </trkpt>
      <trkpt lat="45.77166" lon="4.93242">
        <ele>185.53151</ele>
        <time>2023-07-11T10:11:16.000Z</time>
      </trkpt>
      <trkpt lat="45.77162" lon="4.93241">
        <ele>185.76312</ele>
        <time>2023-07-11T10:11:17.000Z</time>
      </trkpt>
      <trkpt lat="45.77156" lon="4.93239">
        <ele>186.02908</ele>
        <time>2023-07-11T10:11:18.000Z</time>
      </trkpt>
      <trkpt lat="45.77151" lon="4.93238">
        <ele>186.30685</ele>
        <time>2023-07-11T10:11:19.000Z</time>
      </trkpt>
      <trkpt lat="45.77145" lon="4.93237">
        <ele>186.55815</ele>
        <time>2023-07-11T10:11:20.000Z</time>
      </trkpt>
      <trkpt lat="45.77138" lon="4.93236">
        <ele>186.79358</ele>
        <time>2023-07-11T10:11:21.000Z</time>
      </trkpt>
      <trkpt lat="45.77132" lon="4.93236">
        <ele>186.98512</ele>
        <time>2023-07-11T10:11:22.000Z</time>
      </trkpt>
      <trkpt lat="45.77126" lon="4.93236">
        <ele>187.16017</ele>
        <time>2023-07-11T10:11:23.000Z</time>
      </trkpt>
      <trkpt lat="45.7712" lon="4.93236">
        <ele>187.43951</ele>
        <time>2023-07-11T10:11:24.000Z</time>
      </trkpt>
      <trkpt lat="45.77114" lon="4.93236">
        <ele>187.69998</ele>
        <time>2023-07-11T10:11:25.000Z</time>
      </trkpt>
      <trkpt lat="45.77109" lon="4.93236">
        <ele>187.90146</ele>
        <time>2023-07-11T10:11:26.000Z</time>
      </trkpt>
      <trkpt lat="45.77103" lon="4.93236">
        <ele>188.1153</ele>
        <time>2023-07-11T10:11:27.000Z</time>
      </trkpt>
      <trkpt lat="45.77097" lon="4.93236">
        <ele>188.30508</ele>
        <time>2023-07-11T10:11:28.000Z</time>
      </trkpt>
      <trkpt lat="45.77092" lon="4.93236">
        <ele>188.48572</ele>
        <time>2023-07-11T10:11:29.000Z</time>
      </trkpt>
      <trkpt lat="45.77085" lon="4.93236">
        <ele>188.61826</ele>
        <time>2023-07-11T10:11:30.000Z</time>
      </trkpt>
      <trkpt lat="45.7708" lon="4.93236">
        <ele>188.69711</ele>
        <time>2023-07-11T10:11:31.000Z</time>
      </trkpt>
      <trkpt lat="45.77074" lon="4.93235">
        <ele>188.77792</ele>
        <time>2023-07-11T10:11:32.000Z</time>
      </trkpt>
      <trkpt lat="45.77068" lon="4.93235">
        <ele>188.85358</ele>
        <time>2023-07-11T10:11:33.000Z</time>
      </trkpt>
      <trkpt lat="45.77062" lon="4.93234">
        <ele>188.92088</ele>
        <time>2023-07-11T10:11:34.000Z</time>
      </trkpt>
      <trkpt lat="45.77056" lon="4.93233">
        <ele>189.0097</ele>
        <time>2023-07-11T10:11:35.000Z</time>
      </trkpt>
      <trkpt lat="45.77051" lon="4.93233">
        <ele>189.06224</ele>
        <time>2023-07-11T10:11:36.000Z</time>
      </trkpt>
      <trkpt lat="45.77044" lon="4.93234">
        <ele>189.131</ele>
        <time>2023-07-11T10:11:37.000Z</time>
      </trkpt>
      <trkpt lat="45.77037" lon="4.93234">
        <ele>189.17259</ele>
        <time>2023-07-11T10:11:38.000Z</time>
      </trkpt>
      <trkpt lat="45.77031" lon="4.93233">
        <ele>189.20859</ele>
        <time>2023-07-11T10:11:39.000Z</time>
      </trkpt>
      <trkpt lat="45.77025" lon="4.93233">
        <ele>189.26541</ele>
        <time>2023-07-11T10:11:40.000Z</time>
      </trkpt>
      <trkpt lat="45.77019" lon="4.93233">
        <ele>189.31393</ele>
        <time>2023-07-11T10:11:41.000Z</time>
      </trkpt>
      <trkpt lat="45.77013" lon="4.93233">
        <ele>189.38017</ele>
        <time>2023-07-11T10:11:42.000Z</time>
      </trkpt>
      <trkpt lat="45.77008" lon="4.93233">
        <ele>189.38144</ele>
        <time>2023-07-11T10:11:43.000Z</time>
      </trkpt>
      <trkpt lat="45.77002" lon="4.93233">
        <ele>189.29515</ele>
        <time>2023-07-11T10:11:44.000Z</time>
      </trkpt>
      <trkpt lat="45.76996" lon="4.93233">
        <ele>189.20432</ele>
        <time>2023-07-11T10:11:45.000Z</time>
      </trkpt>
      <trkpt lat="45.76991" lon="4.93233">
        <ele>189.19077</ele>
        <time>2023-07-11T10:11:46.000Z</time>
      </trkpt>
      <trkpt lat="45.76985" lon="4.93233">
        <ele>189.16544</ele>
        <time>2023-07-11T10:11:47.000Z</time>
      </trkpt>
      <trkpt lat="45.7698" lon="4.93231">
        <ele>189.12479</ele>
        <time>2023-07-11T10:11:48.000Z</time>
      </trkpt>
      <trkpt lat="45.76975" lon="4.9323">
        <ele>189.06635</ele>
        <time>2023-07-11T10:11:49.000Z</time>
      </trkpt>
      <trkpt lat="45.7697" lon="4.9323">
        <ele>189.01454</ele>
        <time>2023-07-11T10:11:50.000Z</time>
      </trkpt>
      <trkpt lat="45.76965" lon="4.9323">
        <ele>188.94632</ele>
        <time>2023-07-11T10:11:51.000Z</time>
      </trkpt>
      <trkpt lat="45.76959" lon="4.93231">
        <ele>188.87778</ele>
        <time>2023-07-11T10:11:52.000Z</time>
      </trkpt>
      <trkpt lat="45.76955" lon="4.9323">
        <ele>188.8244</ele>
        <time>2023-07-11T10:11:53.000Z</time>
      </trkpt>
      <trkpt lat="45.7695" lon="4.93231">
        <ele>188.76842</ele>
        <time>2023-07-11T10:11:54.000Z</time>
      </trkpt>
      <trkpt lat="45.76944" lon="4.93231">
        <ele>188.72623</ele>
        <time>2023-07-11T10:11:55.000Z</time>
      </trkpt>
      <trkpt lat="45.7694" lon="4.93231">
        <ele>188.70734</ele>
        <time>2023-07-11T10:11:56.000Z</time>
      </trkpt>
      <trkpt lat="45.76935" lon="4.93231">
        <ele>188.66402</ele>
        <time>2023-07-11T10:11:57.000Z</time>
      </trkpt>
      <trkpt lat="45.76931" lon="4.93229">
        <ele>188.60562</ele>
        <time>2023-07-11T10:11:58.000Z</time>
      </trkpt>
      <trkpt lat="45.76927" lon="4.93227">
        <ele>188.63785</ele>
        <time>2023-07-11T10:11:59.000Z</time>
      </trkpt>
      <trkpt lat="45.76923" lon="4.93224">
        <ele>188.69528</ele>
        <time>2023-07-11T10:12:00.000Z</time>
      </trkpt>
      <trkpt lat="45.76918" lon="4.93222">
        <ele>188.76422</ele>
        <time>2023-07-11T10:12:01.000Z</time>
      </trkpt>
      <trkpt lat="45.76914" lon="4.9322">
        <ele>188.81123</ele>
        <time>2023-07-11T10:12:02.000Z</time>
      </trkpt>
      <trkpt lat="45.76908" lon="4.93218">
        <ele>188.95532</ele>
        <time>2023-07-11T10:12:03.000Z</time>
      </trkpt>
      <trkpt lat="45.76903" lon="4.93216">
        <ele>189.11455</ele>
        <time>2023-07-11T10:12:04.000Z</time>
      </trkpt>
      <trkpt lat="45.76899" lon="4.93214">
        <ele>189.27432</ele>
        <time>2023-07-11T10:12:05.000Z</time>
      </trkpt>
      <trkpt lat="45.76895" lon="4.9321">
        <ele>189.35202</ele>
        <time>2023-07-11T10:12:06.000Z</time>
      </trkpt>
      <trkpt lat="45.76893" lon="4.93204">
        <ele>189.42999</ele>
        <time>2023-07-11T10:12:07.000Z</time>
      </trkpt>
      <trkpt lat="45.76894" lon="4.93197">
        <ele>189.51001</ele>
        <time>2023-07-11T10:12:08.000Z</time>
      </trkpt>
      <trkpt lat="45.76899" lon="4.93192">
        <ele>189.54146</ele>
        <time>2023-07-11T10:12:09.000Z</time>
      </trkpt>
      <trkpt lat="45.76903" lon="4.93188">
        <ele>189.57568</ele>
        <time>2023-07-11T10:12:10.000Z</time>
      </trkpt>
      <trkpt lat="45.76909" lon="4.93185">
        <ele>189.62711</ele>
        <time>2023-07-11T10:12:11.000Z</time>
      </trkpt>
      <trkpt lat="45.76914" lon="4.93182">
        <ele>189.65303</ele>
        <time>2023-07-11T10:12:12.000Z</time>
      </trkpt>
      <trkpt lat="45.7692" lon="4.93182">
        <ele>189.69864</ele>
        <time>2023-07-11T10:12:13.000Z</time>
      </trkpt>
      <trkpt lat="45.76926" lon="4.9318">
        <ele>189.6111</ele>
        <time>2023-07-11T10:12:14.000Z</time>
      </trkpt>
      <trkpt lat="45.76931" lon="4.9318">
        <ele>189.53357</ele>
        <time>2023-07-11T10:12:15.000Z</time>
      </trkpt>
      <trkpt lat="45.76938" lon="4.93181">
        <ele>189.45506</ele>
        <time>2023-07-11T10:12:16.000Z</time>
      </trkpt>
      <trkpt lat="45.76942" lon="4.9318">
        <ele>189.38553</ele>
        <time>2023-07-11T10:12:17.000Z</time>
      </trkpt>
      <trkpt lat="45.76945" lon="4.93183">
        <ele>189.32941</ele>
        <time>2023-07-11T10:12:18.000Z</time>
      </trkpt>
      <trkpt lat="45.76947" lon="4.93187">
        <ele>189.17961</ele>
        <time>2023-07-11T10:12:19.000Z</time>
      </trkpt>
      <trkpt lat="45.76946" lon="4.93192">
        <ele>189.02095</ele>
        <time>2023-07-11T10:12:20.000Z</time>
      </trkpt>
      <trkpt lat="45.76948" lon="4.93197">
        <ele>188.80392</ele>
        <time>2023-07-11T10:12:21.000Z</time>
      </trkpt>
      <trkpt lat="45.76949" lon="4.93202">
        <ele>188.5269</ele>
        <time>2023-07-11T10:12:22.000Z</time>
      </trkpt>
      <trkpt lat="45.7695" lon="4.9321">
        <ele>188.2356</ele>
        <time>2023-07-11T10:12:23.000Z</time>
      </trkpt>
      <trkpt lat="45.76951" lon="4.93218">
        <ele>187.93062</ele>
        <time>2023-07-11T10:12:24.000Z</time>
      </trkpt>
      <trkpt lat="45.76949" lon="4.93223">
        <ele>187.61739</ele>
        <time>2023-07-11T10:12:25.000Z</time>
      </trkpt>
      <trkpt lat="45.76949" lon="4.93231">
        <ele>187.28188</ele>
        <time>2023-07-11T10:12:26.000Z</time>
      </trkpt>
      <trkpt lat="45.76947" lon="4.93238">
        <ele>186.91431</ele>
        <time>2023-07-11T10:12:27.000Z</time>
      </trkpt>
      <trkpt lat="45.76948" lon="4.93246">
        <ele>186.55849</ele>
        <time>2023-07-11T10:12:28.000Z</time>
      </trkpt>
      <trkpt lat="45.76948" lon="4.93258">
        <ele>186.29373</ele>
        <time>2023-07-11T10:12:29.000Z</time>
      </trkpt>
      <trkpt lat="45.76947" lon="4.93269">
        <ele>186.01303</ele>
        <time>2023-07-11T10:12:30.000Z</time>
      </trkpt>
      <trkpt lat="45.76948" lon="4.93279">
        <ele>185.73853</ele>
        <time>2023-07-11T10:12:31.000Z</time>
      </trkpt>
      <trkpt lat="45.76948" lon="4.93288">
        <ele>185.48051</ele>
        <time>2023-07-11T10:12:32.000Z</time>
      </trkpt>
      <trkpt lat="45.7695" lon="4.93297">
        <ele>185.32118</ele>
        <time>2023-07-11T10:12:33.000Z</time>
      </trkpt>
      <trkpt lat="45.76951" lon="4.93308">
        <ele>185.33443</ele>
        <time>2023-07-11T10:12:34.000Z</time>
      </trkpt>
      <trkpt lat="45.76952" lon="4.93316">
        <ele>185.28662</ele>
        <time>2023-07-11T10:12:35.000Z</time>
      </trkpt>
      <trkpt lat="45.76954" lon="4.93325">
        <ele>185.22191</ele>
        <time>2023-07-11T10:12:36.000Z</time>
      </trkpt>
      <trkpt lat="45.76955" lon="4.93333">
        <ele>185.1586</ele>
        <time>2023-07-11T10:12:37.000Z</time>
      </trkpt>
      <trkpt lat="45.76958" lon="4.9334">
        <ele>185.0659</ele>
        <time>2023-07-11T10:12:38.000Z</time>
      </trkpt>
      <trkpt lat="45.76961" lon="4.93347">
        <ele>184.96703</ele>
        <time>2023-07-11T10:12:39.000Z</time>
      </trkpt>
      <trkpt lat="45.76965" lon="4.93354">
        <ele>184.85811</ele>
        <time>2023-07-11T10:12:40.000Z</time>
      </trkpt>
      <trkpt lat="45.76969" lon="4.9336">
        <ele>184.77751</ele>
        <time>2023-07-11T10:12:41.000Z</time>
      </trkpt>
      <trkpt lat="45.76973" lon="4.93366">
        <ele>184.77951</ele>
        <time>2023-07-11T10:12:42.000Z</time>
      </trkpt>
      <trkpt lat="45.76978" lon="4.93373">
        <ele>184.7803</ele>
        <time>2023-07-11T10:12:43.000Z</time>
      </trkpt>
      <trkpt lat="45.76982" lon="4.93379">
        <ele>184.78754</ele>
        <time>2023-07-11T10:12:44.000Z</time>
      </trkpt>
      <trkpt lat="45.76985" lon="4.93386">
        <ele>184.78813</ele>
        <time>2023-07-11T10:12:45.000Z</time>
      </trkpt>
      <trkpt lat="45.76989" lon="4.93392">
        <ele>184.85074</ele>
        <time>2023-07-11T10:12:46.000Z</time>
      </trkpt>
      <trkpt lat="45.76992" lon="4.93399">
        <ele>184.95302</ele>
        <time>2023-07-11T10:12:47.000Z</time>
      </trkpt>
      <trkpt lat="45.76996" lon="4.93405">
        <ele>184.99814</ele>
        <time>2023-07-11T10:12:48.000Z</time>
      </trkpt>
      <trkpt lat="45.77" lon="4.93412">
        <ele>185.02573</ele>
        <time>2023-07-11T10:12:49.000Z</time>
      </trkpt>
      <trkpt lat="45.77003" lon="4.93419">
        <ele>185.08592</ele>
        <time>2023-07-11T10:12:50.000Z</time>
      </trkpt>
      <trkpt lat="45.77007" lon="4.93426">
        <ele>185.14088</ele>
        <time>2023-07-11T10:12:51.000Z</time>
      </trkpt>
      <trkpt lat="45.77011" lon="4.93433">
        <ele>185.24319</ele>
        <time>2023-07-11T10:12:52.000Z</time>
      </trkpt>
      <trkpt lat="45.77015" lon="4.93439">
        <ele>185.26021</ele>
        <time>2023-07-11T10:12:53.000Z</time>
      </trkpt>
      <trkpt lat="45.77018" lon="4.93446">
        <ele>185.22293</ele>
        <time>2023-07-11T10:12:54.000Z</time>
      </trkpt>
      <trkpt lat="45.77021" lon="4.93453">
        <ele>185.23082</ele>
        <time>2023-07-11T10:12:55.000Z</time>
      </trkpt>
      <trkpt lat="45.77024" lon="4.9346">
        <ele>185.25095</ele>
        <time>2023-07-11T10:12:56.000Z</time>
      </trkpt>
      <trkpt lat="45.77028" lon="4.93467">
        <ele>185.27826</ele>
        <time>2023-07-11T10:12:57.000Z</time>
      </trkpt>
      <trkpt lat="45.77031" lon="4.93475">
        <ele>185.35168</ele>
        <time>2023-07-11T10:12:58.000Z</time>
      </trkpt>
      <trkpt lat="45.77034" lon="4.93481">
        <ele>185.43385</ele>
        <time>2023-07-11T10:12:59.000Z</time>
      </trkpt>
      <trkpt lat="45.77036" lon="4.93486">
        <ele>185.47479</ele>
        <time>2023-07-11T10:13:00.000Z</time>
      </trkpt>
      <trkpt lat="45.77038" lon="4.93493">
        <ele>185.56229</ele>
        <time>2023-07-11T10:13:01.000Z</time>
      </trkpt>
      <trkpt lat="45.77039" lon="4.93499">
        <ele>185.67026</ele>
        <time>2023-07-11T10:13:02.000Z</time>
      </trkpt>
      <trkpt lat="45.77041" lon="4.93506">
        <ele>185.76114</ele>
        <time>2023-07-11T10:13:03.000Z</time>
      </trkpt>
      <trkpt lat="45.77043" lon="4.93511">
        <ele>185.8298</ele>
        <time>2023-07-11T10:13:04.000Z</time>
      </trkpt>
      <trkpt lat="45.77047" lon="4.93517">
        <ele>185.90738</ele>
        <time>2023-07-11T10:13:05.000Z</time>
      </trkpt>
      <trkpt lat="45.7705" lon="4.93522">
        <ele>185.95219</ele>
        <time>2023-07-11T10:13:06.000Z</time>
      </trkpt>
      <trkpt lat="45.77052" lon="4.93527">
        <ele>186.04375</ele>
        <time>2023-07-11T10:13:07.000Z</time>
      </trkpt>
      <trkpt lat="45.77055" lon="4.93532">
        <ele>186.19521</ele>
        <time>2023-07-11T10:13:08.000Z</time>
      </trkpt>
      <trkpt lat="45.77056" lon="4.93537">
        <ele>186.30167</ele>
        <time>2023-07-11T10:13:09.000Z</time>
      </trkpt>
      <trkpt lat="45.77057" lon="4.93543">
        <ele>186.37283</ele>
        <time>2023-07-11T10:13:10.000Z</time>
      </trkpt>
      <trkpt lat="45.77059" lon="4.9355">
        <ele>186.40242</ele>
        <time>2023-07-11T10:13:11.000Z</time>
      </trkpt>
      <trkpt lat="45.77061" lon="4.93557">
        <ele>186.40874</ele>
        <time>2023-07-11T10:13:12.000Z</time>
      </trkpt>
      <trkpt lat="45.77064" lon="4.93564">
        <ele>186.44191</ele>
        <time>2023-07-11T10:13:13.000Z</time>
      </trkpt>
      <trkpt lat="45.77064" lon="4.9357">
        <ele>186.45493</ele>
        <time>2023-07-11T10:13:14.000Z</time>
      </trkpt>
      <trkpt lat="45.77066" lon="4.93576">
        <ele>186.48714</ele>
        <time>2023-07-11T10:13:15.000Z</time>
      </trkpt>
      <trkpt lat="45.7707" lon="4.93584">
        <ele>186.5043</ele>
        <time>2023-07-11T10:13:16.000Z</time>
      </trkpt>
      <trkpt lat="45.7707" lon="4.93593">
        <ele>186.51315</ele>
        <time>2023-07-11T10:13:17.000Z</time>
      </trkpt>
      <trkpt lat="45.77071" lon="4.93602">
        <ele>186.49529</ele>
        <time>2023-07-11T10:13:18.000Z</time>
      </trkpt>
      <trkpt lat="45.77072" lon="4.9361">
        <ele>186.47594</ele>
        <time>2023-07-11T10:13:19.000Z</time>
      </trkpt>
      <trkpt lat="45.77073" lon="4.93617">
        <ele>186.50151</ele>
        <time>2023-07-11T10:13:20.000Z</time>
      </trkpt>
      <trkpt lat="45.77073" lon="4.93625">
        <ele>186.51978</ele>
        <time>2023-07-11T10:13:21.000Z</time>
      </trkpt>
      <trkpt lat="45.77074" lon="4.93631">
        <ele>186.49371</ele>
        <time>2023-07-11T10:13:22.000Z</time>
      </trkpt>
      <trkpt lat="45.77075" lon="4.93637">
        <ele>186.48526</ele>
        <time>2023-07-11T10:13:23.000Z</time>
      </trkpt>
      <trkpt lat="45.77077" lon="4.93643">
        <ele>186.4949</ele>
        <time>2023-07-11T10:13:24.000Z</time>
      </trkpt>
      <trkpt lat="45.77078" lon="4.9365">
        <ele>186.55559</ele>
        <time>2023-07-11T10:13:25.000Z</time>
      </trkpt>
      <trkpt lat="45.77079" lon="4.93657">
        <ele>186.56595</ele>
        <time>2023-07-11T10:13:26.000Z</time>
      </trkpt>
      <trkpt lat="45.77081" lon="4.93664">
        <ele>186.51321</ele>
        <time>2023-07-11T10:13:27.000Z</time>
      </trkpt>
      <trkpt lat="45.77084" lon="4.93671">
        <ele>186.45651</ele>
        <time>2023-07-11T10:13:28.000Z</time>
      </trkpt>
      <trkpt lat="45.77087" lon="4.93678">
        <ele>186.41476</ele>
        <time>2023-07-11T10:13:29.000Z</time>
      </trkpt>
      <trkpt lat="45.77091" lon="4.93685">
        <ele>186.36072</ele>
        <time>2023-07-11T10:13:30.000Z</time>
      </trkpt>
      <trkpt lat="45.77094" lon="4.93692">
        <ele>186.34579</ele>
        <time>2023-07-11T10:13:31.000Z</time>
      </trkpt>
      <trkpt lat="45.77099" lon="4.937">
        <ele>186.31371</ele>
        <time>2023-07-11T10:13:32.000Z</time>
      </trkpt>
      <trkpt lat="45.77102" lon="4.93707">
        <ele>186.194</ele>
        <time>2023-07-11T10:13:33.000Z</time>
      </trkpt>
      <trkpt lat="45.77104" lon="4.93714">
        <ele>186.08968</ele>
        <time>2023-07-11T10:13:34.000Z</time>
      </trkpt>
      <trkpt lat="45.77107" lon="4.93722">
        <ele>185.96529</ele>
        <time>2023-07-11T10:13:35.000Z</time>
      </trkpt>
      <trkpt lat="45.7711" lon="4.93729">
        <ele>185.90366</ele>
        <time>2023-07-11T10:13:36.000Z</time>
      </trkpt>
      <trkpt lat="45.77114" lon="4.93738">
        <ele>185.8369</ele>
        <time>2023-07-11T10:13:37.000Z</time>
      </trkpt>
      <trkpt lat="45.77118" lon="4.93746">
        <ele>185.78204</ele>
        <time>2023-07-11T10:13:38.000Z</time>
      </trkpt>
      <trkpt lat="45.77121" lon="4.93753">
        <ele>185.74881</ele>
        <time>2023-07-11T10:13:39.000Z</time>
      </trkpt>
      <trkpt lat="45.77125" lon="4.9376">
        <ele>185.73579</ele>
        <time>2023-07-11T10:13:40.000Z</time>
      </trkpt>
      <trkpt lat="45.77128" lon="4.93767">
        <ele>185.68828</ele>
        <time>2023-07-11T10:13:41.000Z</time>
      </trkpt>
      <trkpt lat="45.77132" lon="4.93775">
        <ele>185.64781</ele>
        <time>2023-07-11T10:13:42.000Z</time>
      </trkpt>
      <trkpt lat="45.77135" lon="4.93782">
        <ele>185.60066</ele>
        <time>2023-07-11T10:13:43.000Z</time>
      </trkpt>
      <trkpt lat="45.77139" lon="4.93789">
        <ele>185.56845</ele>
        <time>2023-07-11T10:13:44.000Z</time>
      </trkpt>
      <trkpt lat="45.77142" lon="4.93796">
        <ele>185.49399</ele>
        <time>2023-07-11T10:13:45.000Z</time>
      </trkpt>
      <trkpt lat="45.77146" lon="4.93802">
        <ele>185.44806</ele>
        <time>2023-07-11T10:13:46.000Z</time>
      </trkpt>
      <trkpt lat="45.77149" lon="4.93808">
        <ele>185.39153</ele>
        <time>2023-07-11T10:13:47.000Z</time>
      </trkpt>
      <trkpt lat="45.77152" lon="4.93814">
        <ele>185.33621</ele>
        <time>2023-07-11T10:13:48.000Z</time>
      </trkpt>
      <trkpt lat="45.77156" lon="4.93819">
        <ele>185.29382</ele>
        <time>2023-07-11T10:13:49.000Z</time>
      </trkpt>
      <trkpt lat="45.77159" lon="4.93826">
        <ele>185.27441</ele>
        <time>2023-07-11T10:13:50.000Z</time>
      </trkpt>
      <trkpt lat="45.77164" lon="4.93833">
        <ele>185.28258</ele>
        <time>2023-07-11T10:13:51.000Z</time>
      </trkpt>
      <trkpt lat="45.77167" lon="4.9384">
        <ele>185.28949</ele>
        <time>2023-07-11T10:13:52.000Z</time>
      </trkpt>
      <trkpt lat="45.77171" lon="4.93848">
        <ele>185.34201</ele>
        <time>2023-07-11T10:13:53.000Z</time>
      </trkpt>
      <trkpt lat="45.77174" lon="4.93855">
        <ele>185.40976</ele>
        <time>2023-07-11T10:13:54.000Z</time>
      </trkpt>
      <trkpt lat="45.77178" lon="4.93863">
        <ele>185.48499</ele>
        <time>2023-07-11T10:13:55.000Z</time>
      </trkpt>
      <trkpt lat="45.77181" lon="4.93869">
        <ele>185.51166</ele>
        <time>2023-07-11T10:13:56.000Z</time>
      </trkpt>
      <trkpt lat="45.77185" lon="4.93877">
        <ele>185.52077</ele>
        <time>2023-07-11T10:13:57.000Z</time>
      </trkpt>
      <trkpt lat="45.77187" lon="4.93884">
        <ele>185.5665</ele>
        <time>2023-07-11T10:13:58.000Z</time>
      </trkpt>
      <trkpt lat="45.77191" lon="4.93891">
        <ele>185.561</ele>
        <time>2023-07-11T10:13:59.000Z</time>
      </trkpt>
      <trkpt lat="45.77194" lon="4.93899">
        <ele>185.49847</ele>
        <time>2023-07-11T10:14:00.000Z</time>
      </trkpt>
      <trkpt lat="45.77198" lon="4.93905">
        <ele>185.39006</ele>
        <time>2023-07-11T10:14:01.000Z</time>
      </trkpt>
      <trkpt lat="45.77202" lon="4.93912">
        <ele>185.32912</ele>
        <time>2023-07-11T10:14:02.000Z</time>
      </trkpt>
      <trkpt lat="45.77205" lon="4.93919">
        <ele>185.28719</ele>
        <time>2023-07-11T10:14:03.000Z</time>
      </trkpt>
      <trkpt lat="45.77208" lon="4.93927">
        <ele>185.25327</ele>
        <time>2023-07-11T10:14:04.000Z</time>
      </trkpt>
      <trkpt lat="45.77211" lon="4.93934">
        <ele>185.20813</ele>
        <time>2023-07-11T10:14:05.000Z</time>
      </trkpt>
      <trkpt lat="45.77214" lon="4.93941">
        <ele>185.17358</ele>
        <time>2023-07-11T10:14:06.000Z</time>
      </trkpt>
      <trkpt lat="45.77218" lon="4.93947">
        <ele>185.15749</ele>
        <time>2023-07-11T10:14:07.000Z</time>
      </trkpt>
      <trkpt lat="45.77222" lon="4.93953">
        <ele>185.15157</ele>
        <time>2023-07-11T10:14:08.000Z</time>
      </trkpt>
      <trkpt lat="45.77225" lon="4.9396">
        <ele>185.12198</ele>
        <time>2023-07-11T10:14:09.000Z</time>
      </trkpt>
      <trkpt lat="45.77228" lon="4.93967">
        <ele>185.10898</ele>
        <time>2023-07-11T10:14:10.000Z</time>
      </trkpt>
      <trkpt lat="45.77232" lon="4.93974">
        <ele>185.05699</ele>
        <time>2023-07-11T10:14:11.000Z</time>
      </trkpt>
      <trkpt lat="45.77235" lon="4.9398">
        <ele>184.99577</ele>
        <time>2023-07-11T10:14:12.000Z</time>
      </trkpt>
      <trkpt lat="45.77239" lon="4.93987">
        <ele>184.93636</ele>
        <time>2023-07-11T10:14:13.000Z</time>
      </trkpt>
      <trkpt lat="45.77241" lon="4.93993">
        <ele>184.88429</ele>
        <time>2023-07-11T10:14:14.000Z</time>
      </trkpt>
      <trkpt lat="45.77244" lon="4.94001">
        <ele>184.8342</ele>
        <time>2023-07-11T10:14:15.000Z</time>
      </trkpt>
      <trkpt lat="45.77247" lon="4.94008">
        <ele>184.78299</ele>
        <time>2023-07-11T10:14:16.000Z</time>
      </trkpt>
      <trkpt lat="45.77251" lon="4.94016">
        <ele>184.72675</ele>
        <time>2023-07-11T10:14:17.000Z</time>
      </trkpt>
      <trkpt lat="45.77254" lon="4.94024">
        <ele>184.67076</ele>
        <time>2023-07-11T10:14:18.000Z</time>
      </trkpt>
      <trkpt lat="45.77257" lon="4.94032">
        <ele>184.62555</ele>
        <time>2023-07-11T10:14:19.000Z</time>
      </trkpt>
      <trkpt lat="45.7726" lon="4.94039">
        <ele>184.61441</ele>
        <time>2023-07-11T10:14:20.000Z</time>
      </trkpt>
      <trkpt lat="45.77264" lon="4.94045">
        <ele>184.66818</ele>
        <time>2023-07-11T10:14:21.000Z</time>
      </trkpt>
      <trkpt lat="45.77267" lon="4.94051">
        <ele>184.66884</ele>
        <time>2023-07-11T10:14:22.000Z</time>
      </trkpt>
      <trkpt lat="45.7727" lon="4.94058">
        <ele>184.62009</ele>
        <time>2023-07-11T10:14:23.000Z</time>
      </trkpt>
      <trkpt lat="45.77273" lon="4.94065">
        <ele>184.5434</ele>
        <time>2023-07-11T10:14:24.000Z</time>
      </trkpt>
      <trkpt lat="45.77277" lon="4.94072">
        <ele>184.47293</ele>
        <time>2023-07-11T10:14:25.000Z</time>
      </trkpt>
      <trkpt lat="45.7728" lon="4.94079">
        <ele>184.42366</ele>
        <time>2023-07-11T10:14:26.000Z</time>
      </trkpt>
      <trkpt lat="45.77284" lon="4.94086">
        <ele>184.39601</ele>
        <time>2023-07-11T10:14:27.000Z</time>
      </trkpt>
      <trkpt lat="45.77287" lon="4.94092">
        <ele>184.35135</ele>
        <time>2023-07-11T10:14:28.000Z</time>
      </trkpt>
      <trkpt lat="45.7729" lon="4.94099">
        <ele>184.33667</ele>
        <time>2023-07-11T10:14:29.000Z</time>
      </trkpt>
      <trkpt lat="45.77294" lon="4.94106">
        <ele>184.32474</ele>
        <time>2023-07-11T10:14:30.000Z</time>
      </trkpt>
      <trkpt lat="45.77298" lon="4.94113">
        <ele>184.34119</ele>
        <time>2023-07-11T10:14:31.000Z</time>
      </trkpt>
      <trkpt lat="45.77302" lon="4.9412">
        <ele>184.38266</ele>
        <time>2023-07-11T10:14:32.000Z</time>
      </trkpt>
      <trkpt lat="45.77305" lon="4.94127">
        <ele>184.43655</ele>
        <time>2023-07-11T10:14:33.000Z</time>
      </trkpt>
      <trkpt lat="45.77309" lon="4.94134">
        <ele>184.46623</ele>
        <time>2023-07-11T10:14:34.000Z</time>
      </trkpt>
      <trkpt lat="45.77312" lon="4.94141">
        <ele>184.47925</ele>
        <time>2023-07-11T10:14:35.000Z</time>
      </trkpt>
      <trkpt lat="45.77315" lon="4.94148">
        <ele>184.49934</ele>
        <time>2023-07-11T10:14:36.000Z</time>
      </trkpt>
      <trkpt lat="45.77318" lon="4.94155">
        <ele>184.53287</ele>
        <time>2023-07-11T10:14:37.000Z</time>
      </trkpt>
      <trkpt lat="45.77321" lon="4.94161">
        <ele>184.55408</ele>
        <time>2023-07-11T10:14:38.000Z</time>
      </trkpt>
      <trkpt lat="45.77325" lon="4.94168">
        <ele>184.60458</ele>
        <time>2023-07-11T10:14:39.000Z</time>
      </trkpt>
      <trkpt lat="45.77328" lon="4.94175">
        <ele>184.62601</ele>
        <time>2023-07-11T10:14:40.000Z</time>
      </trkpt>
      <trkpt lat="45.77331" lon="4.94181">
        <ele>184.6116</ele>
        <time>2023-07-11T10:14:41.000Z</time>
      </trkpt>
      <trkpt lat="45.77334" lon="4.94187">
        <ele>184.60217</ele>
        <time>2023-07-11T10:14:42.000Z</time>
      </trkpt>
      <trkpt lat="45.77336" lon="4.94194">
        <ele>184.61676</ele>
        <time>2023-07-11T10:14:43.000Z</time>
      </trkpt>
      <trkpt lat="45.77339" lon="4.94198">
        <ele>184.61942</ele>
        <time>2023-07-11T10:14:44.000Z</time>
      </trkpt>
      <trkpt lat="45.77343" lon="4.94205">
        <ele>184.60072</ele>
        <time>2023-07-11T10:14:45.000Z</time>
      </trkpt>
      <trkpt lat="45.77345" lon="4.94212">
        <ele>184.54382</ele>
        <time>2023-07-11T10:14:46.000Z</time>
      </trkpt>
      <trkpt lat="45.77348" lon="4.94219">
        <ele>184.48264</ele>
        <time>2023-07-11T10:14:47.000Z</time>
      </trkpt>
      <trkpt lat="45.7735" lon="4.94227">
        <ele>184.45602</ele>
        <time>2023-07-11T10:14:48.000Z</time>
      </trkpt>
      <trkpt lat="45.77353" lon="4.94234">
        <ele>184.38066</ele>
        <time>2023-07-11T10:14:49.000Z</time>
      </trkpt>
      <trkpt lat="45.77355" lon="4.94242">
        <ele>184.30215</ele>
        <time>2023-07-11T10:14:50.000Z</time>
      </trkpt>
      <trkpt lat="45.77357" lon="4.94249">
        <ele>184.18478</ele>
        <time>2023-07-11T10:14:51.000Z</time>
      </trkpt>
      <trkpt lat="45.7736" lon="4.94255">
        <ele>184.05772</ele>
        <time>2023-07-11T10:14:52.000Z</time>
      </trkpt>
      <trkpt lat="45.77363" lon="4.94262">
        <ele>183.92673</ele>
        <time>2023-07-11T10:14:53.000Z</time>
      </trkpt>
      <trkpt lat="45.77364" lon="4.94269">
        <ele>183.82478</ele>
        <time>2023-07-11T10:14:54.000Z</time>
      </trkpt>
      <trkpt lat="45.77366" lon="4.94276">
        <ele>183.71181</ele>
        <time>2023-07-11T10:14:55.000Z</time>
      </trkpt>
      <trkpt lat="45.77368" lon="4.94284">
        <ele>183.60257</ele>
        <time>2023-07-11T10:14:56.000Z</time>
      </trkpt>
      <trkpt lat="45.7737" lon="4.94291">
        <ele>183.50801</ele>
        <time>2023-07-11T10:14:57.000Z</time>
      </trkpt>
      <trkpt lat="45.77372" lon="4.94298">
        <ele>183.3976</ele>
        <time>2023-07-11T10:14:58.000Z</time>
      </trkpt>
      <trkpt lat="45.77373" lon="4.94305">
        <ele>183.2569</ele>
        <time>2023-07-11T10:14:59.000Z</time>
      </trkpt>
      <trkpt lat="45.77374" lon="4.94312">
        <ele>183.11755</ele>
        <time>2023-07-11T10:15:00.000Z</time>
      </trkpt>
      <trkpt lat="45.77375" lon="4.94319">
        <ele>183.034</ele>
        <time>2023-07-11T10:15:01.000Z</time>
      </trkpt>
      <trkpt lat="45.77377" lon="4.94327">
        <ele>182.98265</ele>
        <time>2023-07-11T10:15:02.000Z</time>
      </trkpt>
      <trkpt lat="45.77378" lon="4.94336">
        <ele>182.96147</ele>
        <time>2023-07-11T10:15:03.000Z</time>
      </trkpt>
      <trkpt lat="45.77379" lon="4.94344">
        <ele>182.96786</ele>
        <time>2023-07-11T10:15:04.000Z</time>
      </trkpt>
      <trkpt lat="45.7738" lon="4.94351">
        <ele>182.99786</ele>
        <time>2023-07-11T10:15:05.000Z</time>
      </trkpt>
      <trkpt lat="45.7738" lon="4.94359">
        <ele>183.07523</ele>
        <time>2023-07-11T10:15:06.000Z</time>
      </trkpt>
      <trkpt lat="45.77381" lon="4.94367">
        <ele>183.14346</ele>
        <time>2023-07-11T10:15:07.000Z</time>
      </trkpt>
      <trkpt lat="45.77381" lon="4.94375">
        <ele>183.19315</ele>
        <time>2023-07-11T10:15:08.000Z</time>
      </trkpt>
      <trkpt lat="45.77381" lon="4.94382">
        <ele>183.24767</ele>
        <time>2023-07-11T10:15:09.000Z</time>
      </trkpt>
      <trkpt lat="45.7738" lon="4.94389">
        <ele>183.3107</ele>
        <time>2023-07-11T10:15:10.000Z</time>
      </trkpt>
      <trkpt lat="45.77379" lon="4.94396">
        <ele>183.41003</ele>
        <time>2023-07-11T10:15:11.000Z</time>
      </trkpt>
      <trkpt lat="45.77378" lon="4.94405">
        <ele>183.47775</ele>
        <time>2023-07-11T10:15:12.000Z</time>
      </trkpt>
      <trkpt lat="45.77377" lon="4.94413">
        <ele>183.5493</ele>
        <time>2023-07-11T10:15:13.000Z</time>
      </trkpt>
      <trkpt lat="45.77374" lon="4.94421">
        <ele>183.66457</ele>
        <time>2023-07-11T10:15:14.000Z</time>
      </trkpt>
      <trkpt lat="45.77372" lon="4.94429">
        <ele>183.77078</ele>
        <time>2023-07-11T10:15:15.000Z</time>
      </trkpt>
      <trkpt lat="45.77371" lon="4.94437">
        <ele>183.88773</ele>
        <time>2023-07-11T10:15:16.000Z</time>
      </trkpt>
      <trkpt lat="45.77369" lon="4.94444">
        <ele>183.99895</ele>
        <time>2023-07-11T10:15:17.000Z</time>
      </trkpt>
      <trkpt lat="45.77368" lon="4.94453">
        <ele>184.10118</ele>
        <time>2023-07-11T10:15:18.000Z</time>
      </trkpt>
      <trkpt lat="45.77366" lon="4.9446">
        <ele>184.21396</ele>
        <time>2023-07-11T10:15:19.000Z</time>
      </trkpt>
      <trkpt lat="45.77364" lon="4.94468">
        <ele>184.34918</ele>
        <time>2023-07-11T10:15:20.000Z</time>
      </trkpt>
      <trkpt lat="45.77362" lon="4.94475">
        <ele>184.47408</ele>
        <time>2023-07-11T10:15:21.000Z</time>
      </trkpt>
      <trkpt lat="45.77361" lon="4.94483">
        <ele>184.50858</ele>
        <time>2023-07-11T10:15:22.000Z</time>
      </trkpt>
      <trkpt lat="45.7736" lon="4.94491">
        <ele>184.52069</ele>
        <time>2023-07-11T10:15:23.000Z</time>
      </trkpt>
      <trkpt lat="45.77358" lon="4.94499">
        <ele>184.53732</ele>
        <time>2023-07-11T10:15:24.000Z</time>
      </trkpt>
      <trkpt lat="45.77355" lon="4.94506">
        <ele>184.55525</ele>
        <time>2023-07-11T10:15:25.000Z</time>
      </trkpt>
      <trkpt lat="45.77353" lon="4.94514">
        <ele>184.62611</ele>
        <time>2023-07-11T10:15:26.000Z</time>
      </trkpt>
      <trkpt lat="45.77352" lon="4.94522">
        <ele>184.70291</ele>
        <time>2023-07-11T10:15:27.000Z</time>
      </trkpt>
      <trkpt lat="45.77351" lon="4.94531">
        <ele>184.76608</ele>
        <time>2023-07-11T10:15:28.000Z</time>
      </trkpt>
      <trkpt lat="45.7735" lon="4.94539">
        <ele>184.87747</ele>
        <time>2023-07-11T10:15:29.000Z</time>
      </trkpt>
      <trkpt lat="45.77348" lon="4.94547">
        <ele>184.97272</ele>
        <time>2023-07-11T10:15:30.000Z</time>
      </trkpt>
      <trkpt lat="45.77346" lon="4.94554">
        <ele>185.03659</ele>
        <time>2023-07-11T10:15:31.000Z</time>
      </trkpt>
      <trkpt lat="45.77344" lon="4.94563">
        <ele>185.10539</ele>
        <time>2023-07-11T10:15:32.000Z</time>
      </trkpt>
      <trkpt lat="45.77344" lon="4.94572">
        <ele>185.17953</ele>
        <time>2023-07-11T10:15:33.000Z</time>
      </trkpt>
      <trkpt lat="45.77343" lon="4.94581">
        <ele>185.21909</ele>
        <time>2023-07-11T10:15:34.000Z</time>
      </trkpt>
      <trkpt lat="45.77341" lon="4.94589">
        <ele>185.2235</ele>
        <time>2023-07-11T10:15:35.000Z</time>
      </trkpt>
      <trkpt lat="45.7734" lon="4.94597">
        <ele>185.19495</ele>
        <time>2023-07-11T10:15:36.000Z</time>
      </trkpt>
      <trkpt lat="45.77336" lon="4.94605">
        <ele>185.15665</ele>
        <time>2023-07-11T10:15:37.000Z</time>
      </trkpt>
      <trkpt lat="45.77335" lon="4.94613">
        <ele>185.12729</ele>
        <time>2023-07-11T10:15:38.000Z</time>
      </trkpt>
      <trkpt lat="45.77334" lon="4.94621">
        <ele>185.11964</ele>
        <time>2023-07-11T10:15:39.000Z</time>
      </trkpt>
      <trkpt lat="45.77332" lon="4.9463">
        <ele>185.11908</ele>
        <time>2023-07-11T10:15:40.000Z</time>
      </trkpt>
      <trkpt lat="45.77331" lon="4.94638">
        <ele>185.10797</ele>
        <time>2023-07-11T10:15:41.000Z</time>
      </trkpt>
      <trkpt lat="45.77329" lon="4.94646">
        <ele>185.14232</ele>
        <time>2023-07-11T10:15:42.000Z</time>
      </trkpt>
      <trkpt lat="45.77328" lon="4.94655">
        <ele>185.17941</ele>
        <time>2023-07-11T10:15:43.000Z</time>
      </trkpt>
      <trkpt lat="45.77327" lon="4.94663">
        <ele>185.2187</ele>
        <time>2023-07-11T10:15:44.000Z</time>
      </trkpt>
      <trkpt lat="45.77327" lon="4.94672">
        <ele>185.24283</ele>
        <time>2023-07-11T10:15:45.000Z</time>
      </trkpt>
      <trkpt lat="45.77326" lon="4.9468">
        <ele>185.19418</ele>
        <time>2023-07-11T10:15:46.000Z</time>
      </trkpt>
      <trkpt lat="45.77325" lon="4.94688">
        <ele>185.11099</ele>
        <time>2023-07-11T10:15:47.000Z</time>
      </trkpt>
      <trkpt lat="45.77324" lon="4.94697">
        <ele>185.06409</ele>
        <time>2023-07-11T10:15:48.000Z</time>
      </trkpt>
      <trkpt lat="45.77324" lon="4.94705">
        <ele>184.99596</ele>
        <time>2023-07-11T10:15:49.000Z</time>
      </trkpt>
      <trkpt lat="45.77323" lon="4.94713">
        <ele>184.9319</ele>
        <time>2023-07-11T10:15:50.000Z</time>
      </trkpt>
      <trkpt lat="45.77322" lon="4.94721">
        <ele>184.88477</ele>
        <time>2023-07-11T10:15:51.000Z</time>
      </trkpt>
      <trkpt lat="45.77322" lon="4.94729">
        <ele>184.8793</ele>
        <time>2023-07-11T10:15:52.000Z</time>
      </trkpt>
      <trkpt lat="45.77322" lon="4.94736">
        <ele>184.82724</ele>
        <time>2023-07-11T10:15:53.000Z</time>
      </trkpt>
      <trkpt lat="45.77322" lon="4.94744">
        <ele>184.7616</ele>
        <time>2023-07-11T10:15:54.000Z</time>
      </trkpt>
      <trkpt lat="45.77322" lon="4.94752">
        <ele>184.80205</ele>
        <time>2023-07-11T10:15:55.000Z</time>
      </trkpt>
      <trkpt lat="45.77322" lon="4.94759">
        <ele>184.83902</ele>
        <time>2023-07-11T10:15:56.000Z</time>
      </trkpt>
      <trkpt lat="45.77322" lon="4.94767">
        <ele>184.8757</ele>
        <time>2023-07-11T10:15:57.000Z</time>
      </trkpt>
      <trkpt lat="45.7732" lon="4.94773">
        <ele>184.87221</ele>
        <time>2023-07-11T10:15:58.000Z</time>
      </trkpt>
      <trkpt lat="45.7732" lon="4.9478">
        <ele>184.84386</ele>
        <time>2023-07-11T10:15:59.000Z</time>
      </trkpt>
      <trkpt lat="45.7732" lon="4.94788">
        <ele>184.83781</ele>
        <time>2023-07-11T10:16:00.000Z</time>
      </trkpt>
      <trkpt lat="45.7732" lon="4.94797">
        <ele>184.82468</ele>
        <time>2023-07-11T10:16:01.000Z</time>
      </trkpt>
      <trkpt lat="45.77319" lon="4.94804">
        <ele>184.82533</ele>
        <time>2023-07-11T10:16:02.000Z</time>
      </trkpt>
      <trkpt lat="45.77319" lon="4.94812">
        <ele>184.813</ele>
        <time>2023-07-11T10:16:03.000Z</time>
      </trkpt>
      <trkpt lat="45.77319" lon="4.9482">
        <ele>184.78922</ele>
        <time>2023-07-11T10:16:04.000Z</time>
      </trkpt>
      <trkpt lat="45.77319" lon="4.94829">
        <ele>184.79128</ele>
        <time>2023-07-11T10:16:05.000Z</time>
      </trkpt>
      <trkpt lat="45.77319" lon="4.94836">
        <ele>184.79745</ele>
        <time>2023-07-11T10:16:06.000Z</time>
      </trkpt>
      <trkpt lat="45.77319" lon="4.94845">
        <ele>184.82437</ele>
        <time>2023-07-11T10:16:07.000Z</time>
      </trkpt>
      <trkpt lat="45.77319" lon="4.94852">
        <ele>184.82866</ele>
        <time>2023-07-11T10:16:08.000Z</time>
      </trkpt>
      <trkpt lat="45.77319" lon="4.94859">
        <ele>184.83644</ele>
        <time>2023-07-11T10:16:09.000Z</time>
      </trkpt>
      <trkpt lat="45.77319" lon="4.94867">
        <ele>184.83054</ele>
        <time>2023-07-11T10:16:10.000Z</time>
      </trkpt>
      <trkpt lat="45.7732" lon="4.94873">
        <ele>184.81601</ele>
        <time>2023-07-11T10:16:11.000Z</time>
      </trkpt>
      <trkpt lat="45.7732" lon="4.9488">
        <ele>184.79726</ele>
        <time>2023-07-11T10:16:12.000Z</time>
      </trkpt>
      <trkpt lat="45.7732" lon="4.94886">
        <ele>184.8063</ele>
        <time>2023-07-11T10:16:13.000Z</time>
      </trkpt>
      <trkpt lat="45.77321" lon="4.94893">
        <ele>184.81596</ele>
        <time>2023-07-11T10:16:14.000Z</time>
      </trkpt>
      <trkpt lat="45.77321" lon="4.949">
        <ele>184.7785</ele>
        <time>2023-07-11T10:16:15.000Z</time>
      </trkpt>
      <trkpt lat="45.77323" lon="4.94907">
        <ele>184.78363</ele>
        <time>2023-07-11T10:16:16.000Z</time>
      </trkpt>
      <trkpt lat="45.77324" lon="4.94914">
        <ele>184.80643</ele>
        <time>2023-07-11T10:16:17.000Z</time>
      </trkpt>
      <trkpt lat="45.77325" lon="4.94921">
        <ele>184.84598</ele>
        <time>2023-07-11T10:16:18.000Z</time>
      </trkpt>
      <trkpt lat="45.77327" lon="4.94928">
        <ele>184.90904</ele>
        <time>2023-07-11T10:16:19.000Z</time>
      </trkpt>
      <trkpt lat="45.77328" lon="4.94936">
        <ele>184.92566</ele>
        <time>2023-07-11T10:16:20.000Z</time>
      </trkpt>
      <trkpt lat="45.7733" lon="4.94944">
        <ele>184.95827</ele>
        <time>2023-07-11T10:16:21.000Z</time>
      </trkpt>
      <trkpt lat="45.77331" lon="4.94951">
        <ele>184.9772</ele>
        <time>2023-07-11T10:16:22.000Z</time>
      </trkpt>
      <trkpt lat="45.77332" lon="4.94959">
        <ele>184.99113</ele>
        <time>2023-07-11T10:16:23.000Z</time>
      </trkpt>
      <trkpt lat="45.77334" lon="4.94967">
        <ele>184.99863</ele>
        <time>2023-07-11T10:16:24.000Z</time>
      </trkpt>
      <trkpt lat="45.77335" lon="4.94974">
        <ele>184.99843</ele>
        <time>2023-07-11T10:16:25.000Z</time>
      </trkpt>
      <trkpt lat="45.77337" lon="4.94983">
        <ele>185.02023</ele>
        <time>2023-07-11T10:16:26.000Z</time>
      </trkpt>
      <trkpt lat="45.77338" lon="4.94992">
        <ele>185.05165</ele>
        <time>2023-07-11T10:16:27.000Z</time>
      </trkpt>
      <trkpt lat="45.7734" lon="4.95">
        <ele>185.05119</ele>
        <time>2023-07-11T10:16:28.000Z</time>
      </trkpt>
      <trkpt lat="45.77341" lon="4.95007">
        <ele>185.04723</ele>
        <time>2023-07-11T10:16:29.000Z</time>
      </trkpt>
      <trkpt lat="45.77343" lon="4.95015">
        <ele>185.04922</ele>
        <time>2023-07-11T10:16:30.000Z</time>
      </trkpt>
      <trkpt lat="45.77344" lon="4.95023">
        <ele>185.03947</ele>
        <time>2023-07-11T10:16:31.000Z</time>
      </trkpt>
      <trkpt lat="45.77346" lon="4.95032">
        <ele>185.03053</ele>
        <time>2023-07-11T10:16:32.000Z</time>
      </trkpt>
      <trkpt lat="45.77347" lon="4.95039">
        <ele>185.03293</ele>
        <time>2023-07-11T10:16:33.000Z</time>
      </trkpt>
      <trkpt lat="45.77348" lon="4.95047">
        <ele>185.03735</ele>
        <time>2023-07-11T10:16:34.000Z</time>
      </trkpt>
      <trkpt lat="45.77349" lon="4.95055">
        <ele>185.02682</ele>
        <time>2023-07-11T10:16:35.000Z</time>
      </trkpt>
      <trkpt lat="45.77351" lon="4.95064">
        <ele>184.96184</ele>
        <time>2023-07-11T10:16:36.000Z</time>
      </trkpt>
      <trkpt lat="45.77353" lon="4.95072">
        <ele>184.85913</ele>
        <time>2023-07-11T10:16:37.000Z</time>
      </trkpt>
      <trkpt lat="45.77355" lon="4.9508">
        <ele>184.76558</ele>
        <time>2023-07-11T10:16:38.000Z</time>
      </trkpt>
      <trkpt lat="45.77356" lon="4.95088">
        <ele>184.65463</ele>
        <time>2023-07-11T10:16:39.000Z</time>
      </trkpt>
      <trkpt lat="45.77358" lon="4.95095">
        <ele>184.53915</ele>
        <time>2023-07-11T10:16:40.000Z</time>
      </trkpt>
      <trkpt lat="45.7736" lon="4.95104">
        <ele>184.42599</ele>
        <time>2023-07-11T10:16:41.000Z</time>
      </trkpt>
      <trkpt lat="45.77363" lon="4.95113">
        <ele>184.36284</ele>
        <time>2023-07-11T10:16:42.000Z</time>
      </trkpt>
      <trkpt lat="45.77366" lon="4.95121">
        <ele>184.34445</ele>
        <time>2023-07-11T10:16:43.000Z</time>
      </trkpt>
      <trkpt lat="45.77367" lon="4.95129">
        <ele>184.34273</ele>
        <time>2023-07-11T10:16:44.000Z</time>
      </trkpt>
      <trkpt lat="45.7737" lon="4.95138">
        <ele>184.34933</ele>
        <time>2023-07-11T10:16:45.000Z</time>
      </trkpt>
      <trkpt lat="45.77371" lon="4.95145">
        <ele>184.32117</ele>
        <time>2023-07-11T10:16:46.000Z</time>
      </trkpt>
      <trkpt lat="45.77374" lon="4.95152">
        <ele>184.28194</ele>
        <time>2023-07-11T10:16:47.000Z</time>
      </trkpt>
      <trkpt lat="45.77378" lon="4.9516">
        <ele>184.27475</ele>
        <time>2023-07-11T10:16:48.000Z</time>
      </trkpt>
      <trkpt lat="45.7738" lon="4.95168">
        <ele>184.24925</ele>
        <time>2023-07-11T10:16:49.000Z</time>
      </trkpt>
      <trkpt lat="45.77383" lon="4.95176">
        <ele>184.20944</ele>
        <time>2023-07-11T10:16:50.000Z</time>
      </trkpt>
      <trkpt lat="45.77386" lon="4.95184">
        <ele>184.19148</ele>
        <time>2023-07-11T10:16:51.000Z</time>
      </trkpt>
      <trkpt lat="45.77389" lon="4.95192">
        <ele>184.11816</ele>
        <time>2023-07-11T10:16:52.000Z</time>
      </trkpt>
      <trkpt lat="45.77392" lon="4.952">
        <ele>184.03838</ele>
        <time>2023-07-11T10:16:53.000Z</time>
      </trkpt>
      <trkpt lat="45.77394" lon="4.95207">
        <ele>183.94618</ele>
        <time>2023-07-11T10:16:54.000Z</time>
      </trkpt>
      <trkpt lat="45.77397" lon="4.95216">
        <ele>183.88367</ele>
        <time>2023-07-11T10:16:55.000Z</time>
      </trkpt>
      <trkpt lat="45.77401" lon="4.95224">
        <ele>183.8615</ele>
        <time>2023-07-11T10:16:56.000Z</time>
      </trkpt>
      <trkpt lat="45.77403" lon="4.95232">
        <ele>183.86758</ele>
        <time>2023-07-11T10:16:57.000Z</time>
      </trkpt>
      <trkpt lat="45.77405" lon="4.95241">
        <ele>183.86737</ele>
        <time>2023-07-11T10:16:58.000Z</time>
      </trkpt>
      <trkpt lat="45.77408" lon="4.95249">
        <ele>183.86971</ele>
        <time>2023-07-11T10:16:59.000Z</time>
      </trkpt>
      <trkpt lat="45.77411" lon="4.95256">
        <ele>183.90562</ele>
        <time>2023-07-11T10:17:00.000Z</time>
      </trkpt>
      <trkpt lat="45.77414" lon="4.95265">
        <ele>183.92104</ele>
        <time>2023-07-11T10:17:01.000Z</time>
      </trkpt>
      <trkpt lat="45.77417" lon="4.95272">
        <ele>183.89658</ele>
        <time>2023-07-11T10:17:02.000Z</time>
      </trkpt>
      <trkpt lat="45.7742" lon="4.95281">
        <ele>183.85172</ele>
        <time>2023-07-11T10:17:03.000Z</time>
      </trkpt>
      <trkpt lat="45.77423" lon="4.95288">
        <ele>183.78151</ele>
        <time>2023-07-11T10:17:04.000Z</time>
      </trkpt>
      <trkpt lat="45.77426" lon="4.95296">
        <ele>183.69911</ele>
        <time>2023-07-11T10:17:05.000Z</time>
      </trkpt>
      <trkpt lat="45.7743" lon="4.95303">
        <ele>183.66202</ele>
        <time>2023-07-11T10:17:06.000Z</time>
      </trkpt>
      <trkpt lat="45.77433" lon="4.95311">
        <ele>183.63144</ele>
        <time>2023-07-11T10:17:07.000Z</time>
      </trkpt>
      <trkpt lat="45.77435" lon="4.95318">
        <ele>183.55949</ele>
        <time>2023-07-11T10:17:08.000Z</time>
      </trkpt>
      <trkpt lat="45.77439" lon="4.95323">
        <ele>183.54251</ele>
        <time>2023-07-11T10:17:09.000Z</time>
      </trkpt>
      <trkpt lat="45.77442" lon="4.9533">
        <ele>183.52628</ele>
        <time>2023-07-11T10:17:10.000Z</time>
      </trkpt>
      <trkpt lat="45.77445" lon="4.95338">
        <ele>183.47707</ele>
        <time>2023-07-11T10:17:11.000Z</time>
      </trkpt>
      <trkpt lat="45.77447" lon="4.95344">
        <ele>183.4928</ele>
        <time>2023-07-11T10:17:12.000Z</time>
      </trkpt>
      <trkpt lat="45.7745" lon="4.95349">
        <ele>183.52371</ele>
        <time>2023-07-11T10:17:13.000Z</time>
      </trkpt>
      <trkpt lat="45.77452" lon="4.95353">
        <ele>183.54839</ele>
        <time>2023-07-11T10:17:14.000Z</time>
      </trkpt>
      <trkpt lat="45.77456" lon="4.95357">
        <ele>183.52243</ele>
        <time>2023-07-11T10:17:15.000Z</time>
      </trkpt>
      <trkpt lat="45.7746" lon="4.95361">
        <ele>183.46115</ele>
        <time>2023-07-11T10:17:16.000Z</time>
      </trkpt>
      <trkpt lat="45.77465" lon="4.95367">
        <ele>183.43845</ele>
        <time>2023-07-11T10:17:17.000Z</time>
      </trkpt>
      <trkpt lat="45.77469" lon="4.95374">
        <ele>183.44501</ele>
        <time>2023-07-11T10:17:18.000Z</time>
      </trkpt>
      <trkpt lat="45.77473" lon="4.9538">
        <ele>183.42868</ele>
        <time>2023-07-11T10:17:19.000Z</time>
      </trkpt>
      <trkpt lat="45.77477" lon="4.95387">
        <ele>183.36131</ele>
        <time>2023-07-11T10:17:20.000Z</time>
      </trkpt>
      <trkpt lat="45.77482" lon="4.95394">
        <ele>183.33443</ele>
        <time>2023-07-11T10:17:21.000Z</time>
      </trkpt>
      <trkpt lat="45.77484" lon="4.95402">
        <ele>183.33765</ele>
        <time>2023-07-11T10:17:22.000Z</time>
      </trkpt>
      <trkpt lat="45.77487" lon="4.95409">
        <ele>183.3381</ele>
        <time>2023-07-11T10:17:23.000Z</time>
      </trkpt>
      <trkpt lat="45.77489" lon="4.95418">
        <ele>183.37152</ele>
        <time>2023-07-11T10:17:24.000Z</time>
      </trkpt>
      <trkpt lat="45.7749" lon="4.95424">
        <ele>183.40131</ele>
        <time>2023-07-11T10:17:25.000Z</time>
      </trkpt>
      <trkpt lat="45.77493" lon="4.95433">
        <ele>183.37906</ele>
        <time>2023-07-11T10:17:26.000Z</time>
      </trkpt>
      <trkpt lat="45.77497" lon="4.95441">
        <ele>183.36119</ele>
        <time>2023-07-11T10:17:27.000Z</time>
      </trkpt>
      <trkpt lat="45.77499" lon="4.95449">
        <ele>183.37064</ele>
        <time>2023-07-11T10:17:28.000Z</time>
      </trkpt>
      <trkpt lat="45.77502" lon="4.95456">
        <ele>183.33784</ele>
        <time>2023-07-11T10:17:29.000Z</time>
      </trkpt>
      <trkpt lat="45.77504" lon="4.95464">
        <ele>183.31369</ele>
        <time>2023-07-11T10:17:30.000Z</time>
      </trkpt>
      <trkpt lat="45.77506" lon="4.95472">
        <ele>183.31741</ele>
        <time>2023-07-11T10:17:31.000Z</time>
      </trkpt>
      <trkpt lat="45.77508" lon="4.9548">
        <ele>183.30994</ele>
        <time>2023-07-11T10:17:32.000Z</time>
      </trkpt>
      <trkpt lat="45.77509" lon="4.95487">
        <ele>183.27893</ele>
        <time>2023-07-11T10:17:33.000Z</time>
      </trkpt>
      <trkpt lat="45.77511" lon="4.95495">
        <ele>183.26508</ele>
        <time>2023-07-11T10:17:34.000Z</time>
      </trkpt>
      <trkpt lat="45.77513" lon="4.95502">
        <ele>183.29898</ele>
        <time>2023-07-11T10:17:35.000Z</time>
      </trkpt>
      <trkpt lat="45.77515" lon="4.95509">
        <ele>183.34274</ele>
        <time>2023-07-11T10:17:36.000Z</time>
      </trkpt>
      <trkpt lat="45.77516" lon="4.95516">
        <ele>183.34787</ele>
        <time>2023-07-11T10:17:37.000Z</time>
      </trkpt>
      <trkpt lat="45.77518" lon="4.95524">
        <ele>183.32312</ele>
        <time>2023-07-11T10:17:38.000Z</time>
      </trkpt>
      <trkpt lat="45.7752" lon="4.95532">
        <ele>183.32965</ele>
        <time>2023-07-11T10:17:39.000Z</time>
      </trkpt>
      <trkpt lat="45.77522" lon="4.9554">
        <ele>183.39088</ele>
        <time>2023-07-11T10:17:40.000Z</time>
      </trkpt>
      <trkpt lat="45.77525" lon="4.95548">
        <ele>183.42303</ele>
        <time>2023-07-11T10:17:41.000Z</time>
      </trkpt>
      <trkpt lat="45.77527" lon="4.95556">
        <ele>183.41312</ele>
        <time>2023-07-11T10:17:42.000Z</time>
      </trkpt>
      <trkpt lat="45.77529" lon="4.95564">
        <ele>183.41336</ele>
        <time>2023-07-11T10:17:43.000Z</time>
      </trkpt>
      <trkpt lat="45.77532" lon="4.95573">
        <ele>183.39322</ele>
        <time>2023-07-11T10:17:44.000Z</time>
      </trkpt>
      <trkpt lat="45.77535" lon="4.9558">
        <ele>183.38651</ele>
        <time>2023-07-11T10:17:45.000Z</time>
      </trkpt>
      <trkpt lat="45.77537" lon="4.95588">
        <ele>183.40121</ele>
        <time>2023-07-11T10:17:46.000Z</time>
      </trkpt>
      <trkpt lat="45.7754" lon="4.95595">
        <ele>183.43655</ele>
        <time>2023-07-11T10:17:47.000Z</time>
      </trkpt>
      <trkpt lat="45.77543" lon="4.95603">
        <ele>183.47151</ele>
        <time>2023-07-11T10:17:48.000Z</time>
      </trkpt>
      <trkpt lat="45.77546" lon="4.95611">
        <ele>183.53297</ele>
        <time>2023-07-11T10:17:49.000Z</time>
      </trkpt>
      <trkpt lat="45.77548" lon="4.95618">
        <ele>183.59482</ele>
        <time>2023-07-11T10:17:50.000Z</time>
      </trkpt>
      <trkpt lat="45.77551" lon="4.95626">
        <ele>183.67072</ele>
        <time>2023-07-11T10:17:51.000Z</time>
      </trkpt>
      <trkpt lat="45.77554" lon="4.95633">
        <ele>183.73398</ele>
        <time>2023-07-11T10:17:52.000Z</time>
      </trkpt>
      <trkpt lat="45.77557" lon="4.9564">
        <ele>183.80223</ele>
        <time>2023-07-11T10:17:53.000Z</time>
      </trkpt>
      <trkpt lat="45.77561" lon="4.95648">
        <ele>183.85948</ele>
        <time>2023-07-11T10:17:54.000Z</time>
      </trkpt>
      <trkpt lat="45.77566" lon="4.95655">
        <ele>183.91666</ele>
        <time>2023-07-11T10:17:55.000Z</time>
      </trkpt>
      <trkpt lat="45.7757" lon="4.95662">
        <ele>183.99406</ele>
        <time>2023-07-11T10:17:56.000Z</time>
      </trkpt>
      <trkpt lat="45.77575" lon="4.95669">
        <ele>184.04305</ele>
        <time>2023-07-11T10:17:57.000Z</time>
      </trkpt>
      <trkpt lat="45.77579" lon="4.95676">
        <ele>184.08475</ele>
        <time>2023-07-11T10:17:58.000Z</time>
      </trkpt>
      <trkpt lat="45.77583" lon="4.95684">
        <ele>184.12825</ele>
        <time>2023-07-11T10:17:59.000Z</time>
      </trkpt>
      <trkpt lat="45.77586" lon="4.95692">
        <ele>184.14584</ele>
        <time>2023-07-11T10:18:00.000Z</time>
      </trkpt>
      <trkpt lat="45.7759" lon="4.957">
        <ele>184.10843</ele>
        <time>2023-07-11T10:18:01.000Z</time>
      </trkpt>
      <trkpt lat="45.77593" lon="4.95709">
        <ele>184.09515</ele>
        <time>2023-07-11T10:18:02.000Z</time>
      </trkpt>
      <trkpt lat="45.77596" lon="4.95716">
        <ele>184.0555</ele>
        <time>2023-07-11T10:18:03.000Z</time>
      </trkpt>
      <trkpt lat="45.776" lon="4.95725">
        <ele>184.04037</ele>
        <time>2023-07-11T10:18:04.000Z</time>
      </trkpt>
      <trkpt lat="45.77603" lon="4.95733">
        <ele>184.01877</ele>
        <time>2023-07-11T10:18:05.000Z</time>
      </trkpt>
      <trkpt lat="45.77606" lon="4.9574">
        <ele>183.9908</ele>
        <time>2023-07-11T10:18:06.000Z</time>
      </trkpt>
      <trkpt lat="45.77609" lon="4.95748">
        <ele>183.93268</ele>
        <time>2023-07-11T10:18:07.000Z</time>
      </trkpt>
      <trkpt lat="45.77612" lon="4.95756">
        <ele>183.89026</ele>
        <time>2023-07-11T10:18:08.000Z</time>
      </trkpt>
      <trkpt lat="45.77616" lon="4.95764">
        <ele>183.84729</ele>
        <time>2023-07-11T10:18:09.000Z</time>
      </trkpt>
      <trkpt lat="45.77619" lon="4.95772">
        <ele>183.80475</ele>
        <time>2023-07-11T10:18:10.000Z</time>
      </trkpt>
      <trkpt lat="45.77622" lon="4.9578">
        <ele>183.73329</ele>
        <time>2023-07-11T10:18:11.000Z</time>
      </trkpt>
      <trkpt lat="45.77624" lon="4.95788">
        <ele>183.67688</ele>
        <time>2023-07-11T10:18:12.000Z</time>
      </trkpt>
      <trkpt lat="45.77627" lon="4.95796">
        <ele>183.63832</ele>
        <time>2023-07-11T10:18:13.000Z</time>
      </trkpt>
      <trkpt lat="45.7763" lon="4.95805">
        <ele>183.63617</ele>
        <time>2023-07-11T10:18:14.000Z</time>
      </trkpt>
      <trkpt lat="45.77632" lon="4.95813">
        <ele>183.59862</ele>
        <time>2023-07-11T10:18:15.000Z</time>
      </trkpt>
      <trkpt lat="45.77635" lon="4.95822">
        <ele>183.56625</ele>
        <time>2023-07-11T10:18:16.000Z</time>
      </trkpt>
      <trkpt lat="45.77638" lon="4.9583">
        <ele>183.55243</ele>
        <time>2023-07-11T10:18:17.000Z</time>
      </trkpt>
      <trkpt lat="45.77641" lon="4.95839">
        <ele>183.57419</ele>
        <time>2023-07-11T10:18:18.000Z</time>
      </trkpt>
      <trkpt lat="45.77644" lon="4.95847">
        <ele>183.56177</ele>
        <time>2023-07-11T10:18:19.000Z</time>
      </trkpt>
      <trkpt lat="45.77647" lon="4.95856">
        <ele>183.55313</ele>
        <time>2023-07-11T10:18:20.000Z</time>
      </trkpt>
      <trkpt lat="45.7765" lon="4.95865">
        <ele>183.61192</ele>
        <time>2023-07-11T10:18:21.000Z</time>
      </trkpt>
      <trkpt lat="45.77653" lon="4.95873">
        <ele>183.6539</ele>
        <time>2023-07-11T10:18:22.000Z</time>
      </trkpt>
      <trkpt lat="45.77657" lon="4.95881">
        <ele>183.71066</ele>
        <time>2023-07-11T10:18:23.000Z</time>
      </trkpt>
      <trkpt lat="45.77659" lon="4.9589">
        <ele>183.74777</ele>
        <time>2023-07-11T10:18:24.000Z</time>
      </trkpt>
      <trkpt lat="45.77662" lon="4.95898">
        <ele>183.786</ele>
        <time>2023-07-11T10:18:25.000Z</time>
      </trkpt>
      <trkpt lat="45.77665" lon="4.95907">
        <ele>183.8497</ele>
        <time>2023-07-11T10:18:26.000Z</time>
      </trkpt>
      <trkpt lat="45.77668" lon="4.95916">
        <ele>183.91618</ele>
        <time>2023-07-11T10:18:27.000Z</time>
      </trkpt>
      <trkpt lat="45.7767" lon="4.95923">
        <ele>183.96199</ele>
        <time>2023-07-11T10:18:28.000Z</time>
      </trkpt>
      <trkpt lat="45.77672" lon="4.95932">
        <ele>183.97049</ele>
        <time>2023-07-11T10:18:29.000Z</time>
      </trkpt>
      <trkpt lat="45.77675" lon="4.9594">
        <ele>183.99223</ele>
        <time>2023-07-11T10:18:30.000Z</time>
      </trkpt>
      <trkpt lat="45.77677" lon="4.95948">
        <ele>183.99696</ele>
        <time>2023-07-11T10:18:31.000Z</time>
      </trkpt>
      <trkpt lat="45.7768" lon="4.95955">
        <ele>183.97751</ele>
        <time>2023-07-11T10:18:32.000Z</time>
      </trkpt>
      <trkpt lat="45.77682" lon="4.95963">
        <ele>183.92986</ele>
        <time>2023-07-11T10:18:33.000Z</time>
      </trkpt>
      <trkpt lat="45.77685" lon="4.9597">
        <ele>183.86708</ele>
        <time>2023-07-11T10:18:34.000Z</time>
      </trkpt>
      <trkpt lat="45.77686" lon="4.95979">
        <ele>183.81412</ele>
        <time>2023-07-11T10:18:35.000Z</time>
      </trkpt>
      <trkpt lat="45.77688" lon="4.95986">
        <ele>183.73013</ele>
        <time>2023-07-11T10:18:36.000Z</time>
      </trkpt>
      <trkpt lat="45.77692" lon="4.95994">
        <ele>183.64584</ele>
        <time>2023-07-11T10:18:37.000Z</time>
      </trkpt>
      <trkpt lat="45.77694" lon="4.96001">
        <ele>183.51996</ele>
        <time>2023-07-11T10:18:38.000Z</time>
      </trkpt>
      <trkpt lat="45.77699" lon="4.96009">
        <ele>183.44803</ele>
        <time>2023-07-11T10:18:39.000Z</time>
      </trkpt>
      <trkpt lat="45.77701" lon="4.96016">
        <ele>183.35913</ele>
        <time>2023-07-11T10:18:40.000Z</time>
      </trkpt>
      <trkpt lat="45.77704" lon="4.96023">
        <ele>183.24496</ele>
        <time>2023-07-11T10:18:41.000Z</time>
      </trkpt>
      <trkpt lat="45.77707" lon="4.9603">
        <ele>183.13921</ele>
        <time>2023-07-11T10:18:42.000Z</time>
      </trkpt>
      <trkpt lat="45.7771" lon="4.96038">
        <ele>183.02914</ele>
        <time>2023-07-11T10:18:43.000Z</time>
      </trkpt>
      <trkpt lat="45.77714" lon="4.96045">
        <ele>182.92317</ele>
        <time>2023-07-11T10:18:44.000Z</time>
      </trkpt>
      <trkpt lat="45.77719" lon="4.96053">
        <ele>182.80466</ele>
        <time>2023-07-11T10:18:45.000Z</time>
      </trkpt>
      <trkpt lat="45.77722" lon="4.96061">
        <ele>182.66118</ele>
        <time>2023-07-11T10:18:46.000Z</time>
      </trkpt>
      <trkpt lat="45.77726" lon="4.96068">
        <ele>182.55032</ele>
        <time>2023-07-11T10:18:47.000Z</time>
      </trkpt>
      <trkpt lat="45.77728" lon="4.96075">
        <ele>182.39146</ele>
        <time>2023-07-11T10:18:48.000Z</time>
      </trkpt>
      <trkpt lat="45.77733" lon="4.96084">
        <ele>182.28795</ele>
        <time>2023-07-11T10:18:49.000Z</time>
      </trkpt>
      <trkpt lat="45.77736" lon="4.96092">
        <ele>182.15996</ele>
        <time>2023-07-11T10:18:50.000Z</time>
      </trkpt>
      <trkpt lat="45.77739" lon="4.961">
        <ele>182.07791</ele>
        <time>2023-07-11T10:18:51.000Z</time>
      </trkpt>
      <trkpt lat="45.77742" lon="4.96107">
        <ele>182.01083</ele>
        <time>2023-07-11T10:18:52.000Z</time>
      </trkpt>
      <trkpt lat="45.77744" lon="4.96116">
        <ele>181.9072</ele>
        <time>2023-07-11T10:18:53.000Z</time>
      </trkpt>
      <trkpt lat="45.77749" lon="4.96124">
        <ele>181.82706</ele>
        <time>2023-07-11T10:18:54.000Z</time>
      </trkpt>
      <trkpt lat="45.77752" lon="4.96132">
        <ele>181.73311</ele>
        <time>2023-07-11T10:18:55.000Z</time>
      </trkpt>
      <trkpt lat="45.77753" lon="4.96139">
        <ele>181.6445</ele>
        <time>2023-07-11T10:18:56.000Z</time>
      </trkpt>
      <trkpt lat="45.77756" lon="4.96147">
        <ele>181.59</ele>
        <time>2023-07-11T10:18:57.000Z</time>
      </trkpt>
      <trkpt lat="45.77758" lon="4.96154">
        <ele>181.55046</ele>
        <time>2023-07-11T10:18:58.000Z</time>
      </trkpt>
      <trkpt lat="45.77762" lon="4.96163">
        <ele>181.52559</ele>
        <time>2023-07-11T10:18:59.000Z</time>
      </trkpt>
      <trkpt lat="45.77764" lon="4.9617">
        <ele>181.52441</ele>
        <time>2023-07-11T10:19:00.000Z</time>
      </trkpt>
      <trkpt lat="45.77768" lon="4.96177">
        <ele>181.52025</ele>
        <time>2023-07-11T10:19:01.000Z</time>
      </trkpt>
      <trkpt lat="45.77772" lon="4.96185">
        <ele>181.51535</ele>
        <time>2023-07-11T10:19:02.000Z</time>
      </trkpt>
      <trkpt lat="45.77775" lon="4.96193">
        <ele>181.50208</ele>
        <time>2023-07-11T10:19:03.000Z</time>
      </trkpt>
      <trkpt lat="45.7778" lon="4.962">
        <ele>181.4825</ele>
        <time>2023-07-11T10:19:04.000Z</time>
      </trkpt>
      <trkpt lat="45.77784" lon="4.9621">
        <ele>181.46829</ele>
        <time>2023-07-11T10:19:05.000Z</time>
      </trkpt>
      <trkpt lat="45.77788" lon="4.96217">
        <ele>181.44003</ele>
        <time>2023-07-11T10:19:06.000Z</time>
      </trkpt>
      <trkpt lat="45.7779" lon="4.96224">
        <ele>181.38591</ele>
        <time>2023-07-11T10:19:07.000Z</time>
      </trkpt>
      <trkpt lat="45.77794" lon="4.96232">
        <ele>181.32385</ele>
        <time>2023-07-11T10:19:08.000Z</time>
      </trkpt>
      <trkpt lat="45.77796" lon="4.9624">
        <ele>181.27861</ele>
        <time>2023-07-11T10:19:09.000Z</time>
      </trkpt>
      <trkpt lat="45.77798" lon="4.9625">
        <ele>181.25294</ele>
        <time>2023-07-11T10:19:10.000Z</time>
      </trkpt>
      <trkpt lat="45.778" lon="4.96258">
        <ele>181.16693</ele>
        <time>2023-07-11T10:19:11.000Z</time>
      </trkpt>
      <trkpt lat="45.77802" lon="4.96266">
        <ele>181.08269</ele>
        <time>2023-07-11T10:19:12.000Z</time>
      </trkpt>
      <trkpt lat="45.77804" lon="4.96274">
        <ele>181.0298</ele>
        <time>2023-07-11T10:19:13.000Z</time>
      </trkpt>
      <trkpt lat="45.77807" lon="4.96281">
        <ele>180.95619</ele>
        <time>2023-07-11T10:19:14.000Z</time>
      </trkpt>
      <trkpt lat="45.7781" lon="4.96289">
        <ele>180.91312</ele>
        <time>2023-07-11T10:19:15.000Z</time>
      </trkpt>
      <trkpt lat="45.77814" lon="4.96297">
        <ele>180.90045</ele>
        <time>2023-07-11T10:19:16.000Z</time>
      </trkpt>
      <trkpt lat="45.77818" lon="4.96305">
        <ele>180.8521</ele>
        <time>2023-07-11T10:19:17.000Z</time>
      </trkpt>
      <trkpt lat="45.77821" lon="4.96312">
        <ele>180.82652</ele>
        <time>2023-07-11T10:19:18.000Z</time>
      </trkpt>
      <trkpt lat="45.77824" lon="4.96319">
        <ele>180.74394</ele>
        <time>2023-07-11T10:19:19.000Z</time>
      </trkpt>
      <trkpt lat="45.77828" lon="4.96326">
        <ele>180.69322</ele>
        <time>2023-07-11T10:19:20.000Z</time>
      </trkpt>
      <trkpt lat="45.77832" lon="4.96332">
        <ele>180.71385</ele>
        <time>2023-07-11T10:19:21.000Z</time>
      </trkpt>
      <trkpt lat="45.77836" lon="4.96339">
        <ele>180.76654</ele>
        <time>2023-07-11T10:19:22.000Z</time>
      </trkpt>
      <trkpt lat="45.77839" lon="4.96344">
        <ele>180.84099</ele>
        <time>2023-07-11T10:19:23.000Z</time>
      </trkpt>
      <trkpt lat="45.77843" lon="4.9635">
        <ele>180.89334</ele>
        <time>2023-07-11T10:19:24.000Z</time>
      </trkpt>
      <trkpt lat="45.77846" lon="4.96357">
        <ele>180.9631</ele>
        <time>2023-07-11T10:19:25.000Z</time>
      </trkpt>
      <trkpt lat="45.77851" lon="4.96363">
        <ele>181.06073</ele>
        <time>2023-07-11T10:19:26.000Z</time>
      </trkpt>
      <trkpt lat="45.77852" lon="4.96371">
        <ele>181.10161</ele>
        <time>2023-07-11T10:19:27.000Z</time>
      </trkpt>
      <trkpt lat="45.77854" lon="4.96379">
        <ele>181.20561</ele>
        <time>2023-07-11T10:19:28.000Z</time>
      </trkpt>
      <trkpt lat="45.77857" lon="4.96386">
        <ele>181.22818</ele>
        <time>2023-07-11T10:19:29.000Z</time>
      </trkpt>
      <trkpt lat="45.77861" lon="4.96394">
        <ele>181.24974</ele>
        <time>2023-07-11T10:19:30.000Z</time>
      </trkpt>
      <trkpt lat="45.77862" lon="4.96402">
        <ele>181.30583</ele>
        <time>2023-07-11T10:19:31.000Z</time>
      </trkpt>
      <trkpt lat="45.77864" lon="4.9641">
        <ele>181.37044</ele>
        <time>2023-07-11T10:19:32.000Z</time>
      </trkpt>
      <trkpt lat="45.77865" lon="4.96419">
        <ele>181.46921</ele>
        <time>2023-07-11T10:19:33.000Z</time>
      </trkpt>
      <trkpt lat="45.77866" lon="4.96427">
        <ele>181.56114</ele>
        <time>2023-07-11T10:19:34.000Z</time>
      </trkpt>
      <trkpt lat="45.77867" lon="4.96434">
        <ele>181.68761</ele>
        <time>2023-07-11T10:19:35.000Z</time>
      </trkpt>
      <trkpt lat="45.77867" lon="4.96441">
        <ele>181.73369</ele>
        <time>2023-07-11T10:19:36.000Z</time>
      </trkpt>
      <trkpt lat="45.77869" lon="4.96449">
        <ele>181.83592</ele>
        <time>2023-07-11T10:19:37.000Z</time>
      </trkpt>
      <trkpt lat="45.7787" lon="4.96457">
        <ele>181.93352</ele>
        <time>2023-07-11T10:19:38.000Z</time>
      </trkpt>
      <trkpt lat="45.77872" lon="4.96465">
        <ele>182.05516</ele>
        <time>2023-07-11T10:19:39.000Z</time>
      </trkpt>
      <trkpt lat="45.77873" lon="4.96472">
        <ele>182.16617</ele>
        <time>2023-07-11T10:19:40.000Z</time>
      </trkpt>
      <trkpt lat="45.77874" lon="4.96481">
        <ele>182.20738</ele>
        <time>2023-07-11T10:19:41.000Z</time>
      </trkpt>
      <trkpt lat="45.77875" lon="4.96489">
        <ele>182.22113</ele>
        <time>2023-07-11T10:19:42.000Z</time>
      </trkpt>
      <trkpt lat="45.77876" lon="4.96496">
        <ele>182.21196</ele>
        <time>2023-07-11T10:19:43.000Z</time>
      </trkpt>
      <trkpt lat="45.77877" lon="4.96505">
        <ele>182.23521</ele>
        <time>2023-07-11T10:19:44.000Z</time>
      </trkpt>
      <trkpt lat="45.77877" lon="4.96513">
        <ele>182.2341</ele>
        <time>2023-07-11T10:19:45.000Z</time>
      </trkpt>
      <trkpt lat="45.77877" lon="4.96521">
        <ele>182.20668</ele>
        <time>2023-07-11T10:19:46.000Z</time>
      </trkpt>
      <trkpt lat="45.77877" lon="4.96531">
        <ele>182.2394</ele>
        <time>2023-07-11T10:19:47.000Z</time>
      </trkpt>
      <trkpt lat="45.77876" lon="4.96539">
        <ele>182.27921</ele>
        <time>2023-07-11T10:19:48.000Z</time>
      </trkpt>
      <trkpt lat="45.77877" lon="4.96545">
        <ele>182.39258</ele>
        <time>2023-07-11T10:19:49.000Z</time>
      </trkpt>
      <trkpt lat="45.77876" lon="4.96555">
        <ele>182.50426</ele>
        <time>2023-07-11T10:19:50.000Z</time>
      </trkpt>
      <trkpt lat="45.77876" lon="4.96563">
        <ele>182.61235</ele>
        <time>2023-07-11T10:19:51.000Z</time>
      </trkpt>
      <trkpt lat="45.77878" lon="4.96571">
        <ele>182.70915</ele>
        <time>2023-07-11T10:19:52.000Z</time>
      </trkpt>
      <trkpt lat="45.77875" lon="4.96578">
        <ele>182.75482</ele>
        <time>2023-07-11T10:19:53.000Z</time>
      </trkpt>
      <trkpt lat="45.77877" lon="4.96585">
        <ele>182.81818</ele>
        <time>2023-07-11T10:19:54.000Z</time>
      </trkpt>
      <trkpt lat="45.77877" lon="4.96592">
        <ele>182.82047</ele>
        <time>2023-07-11T10:19:55.000Z</time>
      </trkpt>
      <trkpt lat="45.77876" lon="4.96601">
        <ele>182.91783</ele>
        <time>2023-07-11T10:19:56.000Z</time>
      </trkpt>
      <trkpt lat="45.77876" lon="4.96607">
        <ele>182.9995</ele>
        <time>2023-07-11T10:19:57.000Z</time>
      </trkpt>
      <trkpt lat="45.77874" lon="4.96616">
        <ele>183.08702</ele>
        <time>2023-07-11T10:19:58.000Z</time>
      </trkpt>
      <trkpt lat="45.77871" lon="4.96624">
        <ele>183.14738</ele>
        <time>2023-07-11T10:19:59.000Z</time>
      </trkpt>
      <trkpt lat="45.7787" lon="4.9663">
        <ele>183.22353</ele>
        <time>2023-07-11T10:20:00.000Z</time>
      </trkpt>
      <trkpt lat="45.77868" lon="4.96636">
        <ele>183.28561</ele>
        <time>2023-07-11T10:20:01.000Z</time>
      </trkpt>
      <trkpt lat="45.77866" lon="4.96644">
        <ele>183.37605</ele>
        <time>2023-07-11T10:20:02.000Z</time>
      </trkpt>
      <trkpt lat="45.77866" lon="4.96652">
        <ele>183.4848</ele>
        <time>2023-07-11T10:20:03.000Z</time>
      </trkpt>
      <trkpt lat="45.77865" lon="4.96661">
        <ele>183.59714</ele>
        <time>2023-07-11T10:20:04.000Z</time>
      </trkpt>
      <trkpt lat="45.77865" lon="4.96667">
        <ele>183.69872</ele>
        <time>2023-07-11T10:20:05.000Z</time>
      </trkpt>
      <trkpt lat="45.77862" lon="4.96672">
        <ele>183.74211</ele>
        <time>2023-07-11T10:20:06.000Z</time>
      </trkpt>
      <trkpt lat="45.7786" lon="4.96677">
        <ele>183.72099</ele>
        <time>2023-07-11T10:20:07.000Z</time>
      </trkpt>
      <trkpt lat="45.77857" lon="4.96685">
        <ele>183.68828</ele>
        <time>2023-07-11T10:20:08.000Z</time>
      </trkpt>
      <trkpt lat="45.77855" lon="4.96693">
        <ele>183.62331</ele>
        <time>2023-07-11T10:20:09.000Z</time>
      </trkpt>
      <trkpt lat="45.77852" lon="4.96699">
        <ele>183.57141</ele>
        <time>2023-07-11T10:20:10.000Z</time>
      </trkpt>
      <trkpt lat="45.7785" lon="4.96706">
        <ele>183.52238</ele>
        <time>2023-07-11T10:20:11.000Z</time>
      </trkpt>
      <trkpt lat="45.77849" lon="4.96714">
        <ele>183.47496</ele>
        <time>2023-07-11T10:20:12.000Z</time>
      </trkpt>
      <trkpt lat="45.77848" lon="4.96721">
        <ele>183.45171</ele>
        <time>2023-07-11T10:20:13.000Z</time>
      </trkpt>
      <trkpt lat="45.77845" lon="4.96729">
        <ele>183.42648</ele>
        <time>2023-07-11T10:20:14.000Z</time>
      </trkpt>
      <trkpt lat="45.77843" lon="4.96737">
        <ele>183.44675</ele>
        <time>2023-07-11T10:20:15.000Z</time>
      </trkpt>
      <trkpt lat="45.7784" lon="4.96746">
        <ele>183.48721</ele>
        <time>2023-07-11T10:20:16.000Z</time>
      </trkpt>
      <trkpt lat="45.77837" lon="4.96752">
        <ele>183.4903</ele>
        <time>2023-07-11T10:20:17.000Z</time>
      </trkpt>
      <trkpt lat="45.77834" lon="4.9676">
        <ele>183.44699</ele>
        <time>2023-07-11T10:20:18.000Z</time>
      </trkpt>
      <trkpt lat="45.77832" lon="4.96768">
        <ele>183.40248</ele>
        <time>2023-07-11T10:20:19.000Z</time>
      </trkpt>
      <trkpt lat="45.7783" lon="4.96774">
        <ele>183.30215</ele>
        <time>2023-07-11T10:20:20.000Z</time>
      </trkpt>
      <trkpt lat="45.77828" lon="4.96783">
        <ele>183.23984</ele>
        <time>2023-07-11T10:20:21.000Z</time>
      </trkpt>
      <trkpt lat="45.77827" lon="4.96791">
        <ele>183.12338</ele>
        <time>2023-07-11T10:20:22.000Z</time>
      </trkpt>
      <trkpt lat="45.77825" lon="4.968">
        <ele>183.00327</ele>
        <time>2023-07-11T10:20:23.000Z</time>
      </trkpt>
      <trkpt lat="45.77824" lon="4.96809">
        <ele>182.89145</ele>
        <time>2023-07-11T10:20:24.000Z</time>
      </trkpt>
      <trkpt lat="45.77823" lon="4.96818">
        <ele>182.80708</ele>
        <time>2023-07-11T10:20:25.000Z</time>
      </trkpt>
      <trkpt lat="45.77822" lon="4.96827">
        <ele>182.79077</ele>
        <time>2023-07-11T10:20:26.000Z</time>
      </trkpt>
      <trkpt lat="45.77821" lon="4.96836">
        <ele>182.83475</ele>
        <time>2023-07-11T10:20:27.000Z</time>
      </trkpt>
      <trkpt lat="45.7782" lon="4.96844">
        <ele>182.86777</ele>
        <time>2023-07-11T10:20:28.000Z</time>
      </trkpt>
      <trkpt lat="45.77819" lon="4.96853">
        <ele>182.90744</ele>
        <time>2023-07-11T10:20:29.000Z</time>
      </trkpt>
      <trkpt lat="45.77817" lon="4.9686">
        <ele>182.95932</ele>
        <time>2023-07-11T10:20:30.000Z</time>
      </trkpt>
      <trkpt lat="45.77816" lon="4.9687">
        <ele>183.03053</ele>
        <time>2023-07-11T10:20:31.000Z</time>
      </trkpt>
      <trkpt lat="45.77815" lon="4.96879">
        <ele>183.09509</ele>
        <time>2023-07-11T10:20:32.000Z</time>
      </trkpt>
      <trkpt lat="45.77814" lon="4.96888">
        <ele>183.18065</ele>
        <time>2023-07-11T10:20:33.000Z</time>
      </trkpt>
      <trkpt lat="45.77814" lon="4.96897">
        <ele>183.25356</ele>
        <time>2023-07-11T10:20:34.000Z</time>
      </trkpt>
      <trkpt lat="45.77812" lon="4.96905">
        <ele>183.29956</ele>
        <time>2023-07-11T10:20:35.000Z</time>
      </trkpt>
      <trkpt lat="45.77811" lon="4.96914">
        <ele>183.28958</ele>
        <time>2023-07-11T10:20:36.000Z</time>
      </trkpt>
      <trkpt lat="45.7781" lon="4.96923">
        <ele>183.30276</ele>
        <time>2023-07-11T10:20:37.000Z</time>
      </trkpt>
      <trkpt lat="45.77809" lon="4.9693">
        <ele>183.30453</ele>
        <time>2023-07-11T10:20:38.000Z</time>
      </trkpt>
      <trkpt lat="45.77808" lon="4.96939">
        <ele>183.33647</ele>
        <time>2023-07-11T10:20:39.000Z</time>
      </trkpt>
      <trkpt lat="45.77807" lon="4.96948">
        <ele>183.39384</ele>
        <time>2023-07-11T10:20:40.000Z</time>
      </trkpt>
      <trkpt lat="45.77804" lon="4.96955">
        <ele>183.44717</ele>
        <time>2023-07-11T10:20:41.000Z</time>
      </trkpt>
      <trkpt lat="45.77804" lon="4.96963">
        <ele>183.53641</ele>
        <time>2023-07-11T10:20:42.000Z</time>
      </trkpt>
      <trkpt lat="45.77802" lon="4.96972">
        <ele>183.57486</ele>
        <time>2023-07-11T10:20:43.000Z</time>
      </trkpt>
      <trkpt lat="45.778" lon="4.96981">
        <ele>183.60002</ele>
        <time>2023-07-11T10:20:44.000Z</time>
      </trkpt>
      <trkpt lat="45.77799" lon="4.96991">
        <ele>183.59732</ele>
        <time>2023-07-11T10:20:45.000Z</time>
      </trkpt>
      <trkpt lat="45.77799" lon="4.97">
        <ele>183.59943</ele>
        <time>2023-07-11T10:20:46.000Z</time>
      </trkpt>
      <trkpt lat="45.77797" lon="4.97008">
        <ele>183.62489</ele>
        <time>2023-07-11T10:20:47.000Z</time>
      </trkpt>
      <trkpt lat="45.77796" lon="4.97017">
        <ele>183.66675</ele>
        <time>2023-07-11T10:20:48.000Z</time>
      </trkpt>
      <trkpt lat="45.77794" lon="4.97023">
        <ele>183.66805</ele>
        <time>2023-07-11T10:20:49.000Z</time>
      </trkpt>
      <trkpt lat="45.77793" lon="4.97032">
        <ele>183.64612</ele>
        <time>2023-07-11T10:20:50.000Z</time>
      </trkpt>
      <trkpt lat="45.77793" lon="4.97042">
        <ele>183.64317</ele>
        <time>2023-07-11T10:20:51.000Z</time>
      </trkpt>
      <trkpt lat="45.77792" lon="4.97051">
        <ele>183.65654</ele>
        <time>2023-07-11T10:20:52.000Z</time>
      </trkpt>
      <trkpt lat="45.77792" lon="4.97061">
        <ele>183.61732</ele>
        <time>2023-07-11T10:20:53.000Z</time>
      </trkpt>
      <trkpt lat="45.77791" lon="4.97069">
        <ele>183.58997</ele>
        <time>2023-07-11T10:20:54.000Z</time>
      </trkpt>
      <trkpt lat="45.77791" lon="4.97078">
        <ele>183.57803</ele>
        <time>2023-07-11T10:20:55.000Z</time>
      </trkpt>
      <trkpt lat="45.7779" lon="4.97088">
        <ele>183.57584</ele>
        <time>2023-07-11T10:20:56.000Z</time>
      </trkpt>
      <trkpt lat="45.77789" lon="4.97096">
        <ele>183.53709</ele>
        <time>2023-07-11T10:20:57.000Z</time>
      </trkpt>
      <trkpt lat="45.77788" lon="4.97104">
        <ele>183.53168</ele>
        <time>2023-07-11T10:20:58.000Z</time>
      </trkpt>
      <trkpt lat="45.77786" lon="4.97111">
        <ele>183.52954</ele>
        <time>2023-07-11T10:20:59.000Z</time>
      </trkpt>
      <trkpt lat="45.77786" lon="4.97118">
        <ele>183.50691</ele>
        <time>2023-07-11T10:21:00.000Z</time>
      </trkpt>
      <trkpt lat="45.77784" lon="4.97127">
        <ele>183.46925</ele>
        <time>2023-07-11T10:21:01.000Z</time>
      </trkpt>
      <trkpt lat="45.77782" lon="4.97135">
        <ele>183.42889</ele>
        <time>2023-07-11T10:21:02.000Z</time>
      </trkpt>
      <trkpt lat="45.7778" lon="4.97144">
        <ele>183.44577</ele>
        <time>2023-07-11T10:21:03.000Z</time>
      </trkpt>
      <trkpt lat="45.77778" lon="4.97153">
        <ele>183.4677</ele>
        <time>2023-07-11T10:21:04.000Z</time>
      </trkpt>
      <trkpt lat="45.77777" lon="4.97163">
        <ele>183.52969</ele>
        <time>2023-07-11T10:21:05.000Z</time>
      </trkpt>
      <trkpt lat="45.77775" lon="4.97171">
        <ele>183.61752</ele>
        <time>2023-07-11T10:21:06.000Z</time>
      </trkpt>
      <trkpt lat="45.77774" lon="4.97179">
        <ele>183.65001</ele>
        <time>2023-07-11T10:21:07.000Z</time>
      </trkpt>
      <trkpt lat="45.77772" lon="4.97188">
        <ele>183.66867</ele>
        <time>2023-07-11T10:21:08.000Z</time>
      </trkpt>
      <trkpt lat="45.77771" lon="4.97196">
        <ele>183.70554</ele>
        <time>2023-07-11T10:21:09.000Z</time>
      </trkpt>
      <trkpt lat="45.77771" lon="4.97205">
        <ele>183.76454</ele>
        <time>2023-07-11T10:21:10.000Z</time>
      </trkpt>
      <trkpt lat="45.77771" lon="4.97214">
        <ele>183.80046</ele>
        <time>2023-07-11T10:21:11.000Z</time>
      </trkpt>
      <trkpt lat="45.77772" lon="4.97222">
        <ele>183.81033</ele>
        <time>2023-07-11T10:21:12.000Z</time>
      </trkpt>
      <trkpt lat="45.77773" lon="4.97231">
        <ele>183.85078</ele>
        <time>2023-07-11T10:21:13.000Z</time>
      </trkpt>
      <trkpt lat="45.77773" lon="4.9724">
        <ele>183.85065</ele>
        <time>2023-07-11T10:21:14.000Z</time>
      </trkpt>
      <trkpt lat="45.77774" lon="4.9725">
        <ele>183.82428</ele>
        <time>2023-07-11T10:21:15.000Z</time>
      </trkpt>
      <trkpt lat="45.77773" lon="4.97258">
        <ele>183.79138</ele>
        <time>2023-07-11T10:21:16.000Z</time>
      </trkpt>
      <trkpt lat="45.77773" lon="4.97266">
        <ele>183.73808</ele>
        <time>2023-07-11T10:21:17.000Z</time>
      </trkpt>
      <trkpt lat="45.77772" lon="4.97275">
        <ele>183.71742</ele>
        <time>2023-07-11T10:21:18.000Z</time>
      </trkpt>
      <trkpt lat="45.77772" lon="4.97283">
        <ele>183.69505</ele>
        <time>2023-07-11T10:21:19.000Z</time>
      </trkpt>
      <trkpt lat="45.77771" lon="4.97292">
        <ele>183.67723</ele>
        <time>2023-07-11T10:21:20.000Z</time>
      </trkpt>
      <trkpt lat="45.77769" lon="4.973">
        <ele>183.68198</ele>
        <time>2023-07-11T10:21:21.000Z</time>
      </trkpt>
      <trkpt lat="45.77768" lon="4.97309">
        <ele>183.67758</ele>
        <time>2023-07-11T10:21:22.000Z</time>
      </trkpt>
      <trkpt lat="45.77767" lon="4.97318">
        <ele>183.6534</ele>
        <time>2023-07-11T10:21:23.000Z</time>
      </trkpt>
      <trkpt lat="45.77765" lon="4.97326">
        <ele>183.62924</ele>
        <time>2023-07-11T10:21:24.000Z</time>
      </trkpt>
      <trkpt lat="45.77764" lon="4.97335">
        <ele>183.60446</ele>
        <time>2023-07-11T10:21:25.000Z</time>
      </trkpt>
      <trkpt lat="45.77763" lon="4.97343">
        <ele>183.56183</ele>
        <time>2023-07-11T10:21:26.000Z</time>
      </trkpt>
      <trkpt lat="45.77762" lon="4.97352">
        <ele>183.55814</ele>
        <time>2023-07-11T10:21:27.000Z</time>
      </trkpt>
      <trkpt lat="45.77762" lon="4.9736">
        <ele>183.58762</ele>
        <time>2023-07-11T10:21:28.000Z</time>
      </trkpt>
      <trkpt lat="45.77761" lon="4.97367">
        <ele>183.61737</ele>
        <time>2023-07-11T10:21:29.000Z</time>
      </trkpt>
      <trkpt lat="45.77762" lon="4.97375">
        <ele>183.59718</ele>
        <time>2023-07-11T10:21:30.000Z</time>
      </trkpt>
      <trkpt lat="45.77761" lon="4.97385">
        <ele>183.56468</ele>
        <time>2023-07-11T10:21:31.000Z</time>
      </trkpt>
      <trkpt lat="45.77761" lon="4.97394">
        <ele>183.53323</ele>
        <time>2023-07-11T10:21:32.000Z</time>
      </trkpt>
      <trkpt lat="45.77762" lon="4.97404">
        <ele>183.54335</ele>
        <time>2023-07-11T10:21:33.000Z</time>
      </trkpt>
      <trkpt lat="45.77762" lon="4.97414">
        <ele>183.57043</ele>
        <time>2023-07-11T10:21:34.000Z</time>
      </trkpt>
      <trkpt lat="45.77762" lon="4.97422">
        <ele>183.60564</ele>
        <time>2023-07-11T10:21:35.000Z</time>
      </trkpt>
      <trkpt lat="45.77763" lon="4.9743">
        <ele>183.63535</ele>
        <time>2023-07-11T10:21:36.000Z</time>
      </trkpt>
      <trkpt lat="45.77763" lon="4.97439">
        <ele>183.71329</ele>
        <time>2023-07-11T10:21:37.000Z</time>
      </trkpt>
      <trkpt lat="45.77764" lon="4.97447">
        <ele>183.77771</ele>
        <time>2023-07-11T10:21:38.000Z</time>
      </trkpt>
      <trkpt lat="45.77765" lon="4.97456">
        <ele>183.84355</ele>
        <time>2023-07-11T10:21:39.000Z</time>
      </trkpt>
      <trkpt lat="45.77766" lon="4.97464">
        <ele>183.91483</ele>
        <time>2023-07-11T10:21:40.000Z</time>
      </trkpt>
      <trkpt lat="45.77768" lon="4.97472">
        <ele>183.96715</ele>
        <time>2023-07-11T10:21:41.000Z</time>
      </trkpt>
      <trkpt lat="45.77769" lon="4.9748">
        <ele>184.01392</ele>
        <time>2023-07-11T10:21:42.000Z</time>
      </trkpt>
      <trkpt lat="45.7777" lon="4.97488">
        <ele>184.09254</ele>
        <time>2023-07-11T10:21:43.000Z</time>
      </trkpt>
      <trkpt lat="45.77771" lon="4.97495">
        <ele>184.15277</ele>
        <time>2023-07-11T10:21:44.000Z</time>
      </trkpt>
      <trkpt lat="45.77772" lon="4.97502">
        <ele>184.20956</ele>
        <time>2023-07-11T10:21:45.000Z</time>
      </trkpt>
      <trkpt lat="45.77773" lon="4.97508">
        <ele>184.25452</ele>
        <time>2023-07-11T10:21:46.000Z</time>
      </trkpt>
      <trkpt lat="45.77775" lon="4.97517">
        <ele>184.27188</ele>
        <time>2023-07-11T10:21:47.000Z</time>
      </trkpt>
      <trkpt lat="45.77775" lon="4.97524">
        <ele>184.29482</ele>
        <time>2023-07-11T10:21:48.000Z</time>
      </trkpt>
      <trkpt lat="45.77777" lon="4.9753">
        <ele>184.28754</ele>
        <time>2023-07-11T10:21:49.000Z</time>
      </trkpt>
      <trkpt lat="45.77779" lon="4.97537">
        <ele>184.32373</ele>
        <time>2023-07-11T10:21:50.000Z</time>
      </trkpt>
      <trkpt lat="45.7778" lon="4.97544">
        <ele>184.35217</ele>
        <time>2023-07-11T10:21:51.000Z</time>
      </trkpt>
      <trkpt lat="45.77782" lon="4.97552">
        <ele>184.40414</ele>
        <time>2023-07-11T10:21:52.000Z</time>
      </trkpt>
      <trkpt lat="45.77782" lon="4.97558">
        <ele>184.43759</ele>
        <time>2023-07-11T10:21:53.000Z</time>
      </trkpt>
      <trkpt lat="45.77782" lon="4.97565">
        <ele>184.4435</ele>
        <time>2023-07-11T10:21:54.000Z</time>
      </trkpt>
      <trkpt lat="45.77782" lon="4.9757">
        <ele>184.4657</ele>
        <time>2023-07-11T10:21:55.000Z</time>
      </trkpt>
      <trkpt lat="45.77781" lon="4.97574">
        <ele>184.50179</ele>
        <time>2023-07-11T10:21:56.000Z</time>
      </trkpt>
      <trkpt lat="45.7778" lon="4.97576">
        <ele>184.54877</ele>
        <time>2023-07-11T10:21:57.000Z</time>
      </trkpt>
      <trkpt lat="45.7778" lon="4.97579">
        <ele>184.58321</ele>
        <time>2023-07-11T10:21:58.000Z</time>
      </trkpt>
      <trkpt lat="45.77778" lon="4.9758">
        <ele>184.60606</ele>
        <time>2023-07-11T10:22:00.000Z</time>
      </trkpt>
      <trkpt lat="45.77776" lon="4.97579">
        <ele>184.62219</ele>
        <time>2023-07-11T10:22:01.000Z</time>
      </trkpt>
      <trkpt lat="45.77774" lon="4.97579">
        <ele>184.63934</ele>
        <time>2023-07-11T10:22:02.000Z</time>
      </trkpt>
      <trkpt lat="45.77772" lon="4.97579">
        <ele>184.66132</ele>
        <time>2023-07-11T10:22:03.000Z</time>
      </trkpt>
      <trkpt lat="45.7777" lon="4.97579">
        <ele>184.66585</ele>
        <time>2023-07-11T10:22:04.000Z</time>
      </trkpt>
      <trkpt lat="45.77768" lon="4.9758">
        <ele>184.67563</ele>
        <time>2023-07-11T10:22:05.000Z</time>
      </trkpt>
      <trkpt lat="45.77767" lon="4.9758">
        <ele>184.67372</ele>
        <time>2023-07-11T10:22:06.000Z</time>
      </trkpt>
      <trkpt lat="45.77765" lon="4.97581">
        <ele>184.68074</ele>
        <time>2023-07-11T10:22:07.000Z</time>
      </trkpt>
      <trkpt lat="45.77763" lon="4.97581">
        <ele>184.71201</ele>
        <time>2023-07-11T10:22:08.000Z</time>
      </trkpt>
      <trkpt lat="45.77759" lon="4.97582">
        <ele>184.71227</ele>
        <time>2023-07-11T10:22:10.000Z</time>
      </trkpt>
      <trkpt lat="45.77756" lon="4.97584">
        <ele>184.73895</ele>
        <time>2023-07-11T10:22:12.000Z</time>
      </trkpt>
      <trkpt lat="45.77756" lon="4.97587">
        <ele>184.7191</ele>
        <time>2023-07-11T10:22:13.000Z</time>
      </trkpt>
      <trkpt lat="45.77757" lon="4.9759">
        <ele>184.70604</ele>
        <time>2023-07-11T10:22:15.000Z</time>
      </trkpt>
      <trkpt lat="45.77758" lon="4.97588">
        <ele>184.74586</ele>
        <time>2023-07-11T10:22:51.000Z</time>
      </trkpt>
      <trkpt lat="45.7776" lon="4.97586">
        <ele>184.77434</ele>
        <time>2023-07-11T10:22:53.000Z</time>
      </trkpt>
      <trkpt lat="45.77763" lon="4.97585">
        <ele>184.82664</ele>
        <time>2023-07-11T10:22:55.000Z</time>
      </trkpt>
      <trkpt lat="45.77766" lon="4.97584">
        <ele>184.88135</ele>
        <time>2023-07-11T10:22:56.000Z</time>
      </trkpt>
      <trkpt lat="45.77768" lon="4.97583">
        <ele>184.87932</ele>
        <time>2023-07-11T10:22:57.000Z</time>
      </trkpt>
      <trkpt lat="45.77771" lon="4.97581">
        <ele>184.89966</ele>
        <time>2023-07-11T10:22:58.000Z</time>
      </trkpt>
      <trkpt lat="45.77773" lon="4.9758">
        <ele>184.9563</ele>
        <time>2023-07-11T10:22:59.000Z</time>
      </trkpt>
      <trkpt lat="45.77777" lon="4.97579">
        <ele>184.86835</ele>
        <time>2023-07-11T10:23:00.000Z</time>
      </trkpt>
      <trkpt lat="45.7778" lon="4.9758">
        <ele>184.95035</ele>
        <time>2023-07-11T10:23:01.000Z</time>
      </trkpt>
      <trkpt lat="45.77783" lon="4.97585">
        <ele>185.01302</ele>
        <time>2023-07-11T10:23:02.000Z</time>
      </trkpt>
      <trkpt lat="45.77785" lon="4.97591">
        <ele>184.91893</ele>
        <time>2023-07-11T10:23:03.000Z</time>
      </trkpt>
      <trkpt lat="45.77784" lon="4.97601">
        <ele>184.80693</ele>
        <time>2023-07-11T10:23:04.000Z</time>
      </trkpt>
      <trkpt lat="45.77785" lon="4.97607">
        <ele>184.69272</ele>
        <time>2023-07-11T10:23:05.000Z</time>
      </trkpt>
      <trkpt lat="45.77788" lon="4.97613">
        <ele>184.54651</ele>
        <time>2023-07-11T10:23:06.000Z</time>
      </trkpt>
      <trkpt lat="45.77789" lon="4.9762">
        <ele>184.38805</ele>
        <time>2023-07-11T10:23:07.000Z</time>
      </trkpt>
      <trkpt lat="45.77792" lon="4.97628">
        <ele>184.21559</ele>
        <time>2023-07-11T10:23:08.000Z</time>
      </trkpt>
      <trkpt lat="45.77794" lon="4.97635">
        <ele>184.03453</ele>
        <time>2023-07-11T10:23:09.000Z</time>
      </trkpt>
      <trkpt lat="45.77798" lon="4.97643">
        <ele>183.88062</ele>
        <time>2023-07-11T10:23:10.000Z</time>
      </trkpt>
      <trkpt lat="45.77802" lon="4.97649">
        <ele>183.78619</ele>
        <time>2023-07-11T10:23:11.000Z</time>
      </trkpt>
      <trkpt lat="45.77805" lon="4.97657">
        <ele>183.84515</ele>
        <time>2023-07-11T10:23:12.000Z</time>
      </trkpt>
      <trkpt lat="45.77808" lon="4.97665">
        <ele>183.84999</ele>
        <time>2023-07-11T10:23:13.000Z</time>
      </trkpt>
      <trkpt lat="45.77812" lon="4.97672">
        <ele>183.86903</ele>
        <time>2023-07-11T10:23:14.000Z</time>
      </trkpt>
      <trkpt lat="45.77816" lon="4.9768">
        <ele>183.89258</ele>
        <time>2023-07-11T10:23:15.000Z</time>
      </trkpt>
      <trkpt lat="45.7782" lon="4.97687">
        <ele>183.93149</ele>
        <time>2023-07-11T10:23:16.000Z</time>
      </trkpt>
      <trkpt lat="45.77824" lon="4.97695">
        <ele>184.05844</ele>
        <time>2023-07-11T10:23:17.000Z</time>
      </trkpt>
      <trkpt lat="45.77829" lon="4.97702">
        <ele>184.15619</ele>
        <time>2023-07-11T10:23:18.000Z</time>
      </trkpt>
      <trkpt lat="45.77834" lon="4.97709">
        <ele>184.20525</ele>
        <time>2023-07-11T10:23:19.000Z</time>
      </trkpt>
      <trkpt lat="45.77838" lon="4.97716">
        <ele>184.3887</ele>
        <time>2023-07-11T10:23:20.000Z</time>
      </trkpt>
      <trkpt lat="45.77842" lon="4.97723">
        <ele>184.40253</ele>
        <time>2023-07-11T10:23:21.000Z</time>
      </trkpt>
      <trkpt lat="45.77846" lon="4.97731">
        <ele>184.46518</ele>
        <time>2023-07-11T10:23:22.000Z</time>
      </trkpt>
      <trkpt lat="45.77851" lon="4.97737">
        <ele>184.69077</ele>
        <time>2023-07-11T10:23:23.000Z</time>
      </trkpt>
      <trkpt lat="45.77856" lon="4.97744">
        <ele>184.91629</ele>
        <time>2023-07-11T10:23:24.000Z</time>
      </trkpt>
      <trkpt lat="45.7786" lon="4.97751">
        <ele>185.14316</ele>
        <time>2023-07-11T10:23:25.000Z</time>
      </trkpt>
      <trkpt lat="45.77865" lon="4.97758">
        <ele>185.46078</ele>
        <time>2023-07-11T10:23:26.000Z</time>
      </trkpt>
      <trkpt lat="45.77869" lon="4.97765">
        <ele>185.79407</ele>
        <time>2023-07-11T10:23:27.000Z</time>
      </trkpt>
      <trkpt lat="45.77873" lon="4.97772">
        <ele>186.13396</ele>
        <time>2023-07-11T10:23:28.000Z</time>
      </trkpt>
      <trkpt lat="45.77876" lon="4.9778">
        <ele>186.46651</ele>
        <time>2023-07-11T10:23:29.000Z</time>
      </trkpt>
      <trkpt lat="45.77881" lon="4.97787">
        <ele>186.81055</ele>
        <time>2023-07-11T10:23:30.000Z</time>
      </trkpt>
      <trkpt lat="45.77886" lon="4.97793">
        <ele>187.05801</ele>
        <time>2023-07-11T10:23:31.000Z</time>
      </trkpt>
      <trkpt lat="45.77891" lon="4.978">
        <ele>187.20193</ele>
        <time>2023-07-11T10:23:32.000Z</time>
      </trkpt>
      <trkpt lat="45.77895" lon="4.97806">
        <ele>187.32373</ele>
        <time>2023-07-11T10:23:33.000Z</time>
      </trkpt>
      <trkpt lat="45.77899" lon="4.97813">
        <ele>187.41603</ele>
        <time>2023-07-11T10:23:34.000Z</time>
      </trkpt>
      <trkpt lat="45.77903" lon="4.97819">
        <ele>187.5247</ele>
        <time>2023-07-11T10:23:35.000Z</time>
      </trkpt>
      <trkpt lat="45.77906" lon="4.97825">
        <ele>187.54724</ele>
        <time>2023-07-11T10:23:36.000Z</time>
      </trkpt>
      <trkpt lat="45.77911" lon="4.97833">
        <ele>187.49652</ele>
        <time>2023-07-11T10:23:37.000Z</time>
      </trkpt>
      <trkpt lat="45.77914" lon="4.9784">
        <ele>187.46445</ele>
        <time>2023-07-11T10:23:38.000Z</time>
      </trkpt>
      <trkpt lat="45.77916" lon="4.97849">
        <ele>187.4252</ele>
        <time>2023-07-11T10:23:39.000Z</time>
      </trkpt>
      <trkpt lat="45.77918" lon="4.97857">
        <ele>187.40431</ele>
        <time>2023-07-11T10:23:40.000Z</time>
      </trkpt>
      <trkpt lat="45.7792" lon="4.97866">
        <ele>187.38666</ele>
        <time>2023-07-11T10:23:41.000Z</time>
      </trkpt>
      <trkpt lat="45.77922" lon="4.97877">
        <ele>187.35008</ele>
        <time>2023-07-11T10:23:42.000Z</time>
      </trkpt>
      <trkpt lat="45.77922" lon="4.97885">
        <ele>187.29424</ele>
        <time>2023-07-11T10:23:43.000Z</time>
      </trkpt>
      <trkpt lat="45.77922" lon="4.97894">
        <ele>187.23364</ele>
        <time>2023-07-11T10:23:44.000Z</time>
      </trkpt>
      <trkpt lat="45.77923" lon="4.97903">
        <ele>187.17764</ele>
        <time>2023-07-11T10:23:45.000Z</time>
      </trkpt>
      <trkpt lat="45.77924" lon="4.97913">
        <ele>187.0762</ele>
        <time>2023-07-11T10:23:46.000Z</time>
      </trkpt>
      <trkpt lat="45.77925" lon="4.97921">
        <ele>186.98672</ele>
        <time>2023-07-11T10:23:47.000Z</time>
      </trkpt>
      <trkpt lat="45.77925" lon="4.97931">
        <ele>186.88564</ele>
        <time>2023-07-11T10:23:48.000Z</time>
      </trkpt>
      <trkpt lat="45.77926" lon="4.9794">
        <ele>186.79156</ele>
        <time>2023-07-11T10:23:49.000Z</time>
      </trkpt>
      <trkpt lat="45.77926" lon="4.97948">
        <ele>186.67184</ele>
        <time>2023-07-11T10:23:50.000Z</time>
      </trkpt>
      <trkpt lat="45.77926" lon="4.97958">
        <ele>186.63519</ele>
        <time>2023-07-11T10:23:51.000Z</time>
      </trkpt>
      <trkpt lat="45.77927" lon="4.97966">
        <ele>186.56233</ele>
        <time>2023-07-11T10:23:52.000Z</time>
      </trkpt>
      <trkpt lat="45.77927" lon="4.97975">
        <ele>186.536</ele>
        <time>2023-07-11T10:23:53.000Z</time>
      </trkpt>
      <trkpt lat="45.77927" lon="4.97983">
        <ele>186.55264</ele>
        <time>2023-07-11T10:23:54.000Z</time>
      </trkpt>
      <trkpt lat="45.77926" lon="4.97991">
        <ele>186.57889</ele>
        <time>2023-07-11T10:23:55.000Z</time>
      </trkpt>
      <trkpt lat="45.77925" lon="4.97999">
        <ele>186.5753</ele>
        <time>2023-07-11T10:23:56.000Z</time>
      </trkpt>
      <trkpt lat="45.77923" lon="4.98006">
        <ele>186.60477</ele>
        <time>2023-07-11T10:23:57.000Z</time>
      </trkpt>
      <trkpt lat="45.77921" lon="4.98014">
        <ele>186.61664</ele>
        <time>2023-07-11T10:23:58.000Z</time>
      </trkpt>
      <trkpt lat="45.77919" lon="4.98021">
        <ele>186.65649</ele>
        <time>2023-07-11T10:23:59.000Z</time>
      </trkpt>
      <trkpt lat="45.77917" lon="4.98029">
        <ele>186.67142</ele>
        <time>2023-07-11T10:24:00.000Z</time>
      </trkpt>
      <trkpt lat="45.77914" lon="4.98036">
        <ele>186.69409</ele>
        <time>2023-07-11T10:24:01.000Z</time>
      </trkpt>
      <trkpt lat="45.77912" lon="4.98043">
        <ele>186.72327</ele>
        <time>2023-07-11T10:24:02.000Z</time>
      </trkpt>
      <trkpt lat="45.7791" lon="4.98049">
        <ele>186.75204</ele>
        <time>2023-07-11T10:24:03.000Z</time>
      </trkpt>
      <trkpt lat="45.77909" lon="4.98057">
        <ele>186.81796</ele>
        <time>2023-07-11T10:24:04.000Z</time>
      </trkpt>
      <trkpt lat="45.77907" lon="4.98064">
        <ele>186.9391</ele>
        <time>2023-07-11T10:24:05.000Z</time>
      </trkpt>
      <trkpt lat="45.77907" lon="4.9807">
        <ele>187.07324</ele>
        <time>2023-07-11T10:24:06.000Z</time>
      </trkpt>
      <trkpt lat="45.77908" lon="4.98076">
        <ele>187.19165</ele>
        <time>2023-07-11T10:24:07.000Z</time>
      </trkpt>
      <trkpt lat="45.7791" lon="4.98082">
        <ele>187.26833</ele>
        <time>2023-07-11T10:24:08.000Z</time>
      </trkpt>
      <trkpt lat="45.77913" lon="4.98086">
        <ele>187.35062</ele>
        <time>2023-07-11T10:24:09.000Z</time>
      </trkpt>
      <trkpt lat="45.77914" lon="4.98093">
        <ele>187.46927</ele>
        <time>2023-07-11T10:24:10.000Z</time>
      </trkpt>
      <trkpt lat="45.77914" lon="4.98099">
        <ele>187.57762</ele>
        <time>2023-07-11T10:24:11.000Z</time>
      </trkpt>
      <trkpt lat="45.77914" lon="4.98107">
        <ele>187.70543</ele>
        <time>2023-07-11T10:24:12.000Z</time>
      </trkpt>
      <trkpt lat="45.77913" lon="4.98113">
        <ele>187.7695</ele>
        <time>2023-07-11T10:24:13.000Z</time>
      </trkpt>
      <trkpt lat="45.77913" lon="4.9812">
        <ele>187.82387</ele>
        <time>2023-07-11T10:24:14.000Z</time>
      </trkpt>
      <trkpt lat="45.77912" lon="4.98128">
        <ele>187.85957</ele>
        <time>2023-07-11T10:24:15.000Z</time>
      </trkpt>
      <trkpt lat="45.77911" lon="4.98136">
        <ele>187.91946</ele>
        <time>2023-07-11T10:24:16.000Z</time>
      </trkpt>
      <trkpt lat="45.7791" lon="4.98145">
        <ele>188.00391</ele>
        <time>2023-07-11T10:24:17.000Z</time>
      </trkpt>
      <trkpt lat="45.7791" lon="4.98154">
        <ele>188.08522</ele>
        <time>2023-07-11T10:24:18.000Z</time>
      </trkpt>
      <trkpt lat="45.77911" lon="4.98163">
        <ele>188.16956</ele>
        <time>2023-07-11T10:24:19.000Z</time>
      </trkpt>
      <trkpt lat="45.77911" lon="4.98172">
        <ele>188.29883</ele>
        <time>2023-07-11T10:24:20.000Z</time>
      </trkpt>
      <trkpt lat="45.77911" lon="4.98181">
        <ele>188.4492</ele>
        <time>2023-07-11T10:24:21.000Z</time>
      </trkpt>
      <trkpt lat="45.77911" lon="4.98189">
        <ele>188.59479</ele>
        <time>2023-07-11T10:24:22.000Z</time>
      </trkpt>
      <trkpt lat="45.77911" lon="4.98196">
        <ele>188.71585</ele>
        <time>2023-07-11T10:24:23.000Z</time>
      </trkpt>
      <trkpt lat="45.77911" lon="4.982">
        <ele>188.79427</ele>
        <time>2023-07-11T10:24:24.000Z</time>
      </trkpt>
      <trkpt lat="45.77912" lon="4.98208">
        <ele>188.86179</ele>
        <time>2023-07-11T10:24:25.000Z</time>
      </trkpt>
      <trkpt lat="45.77911" lon="4.98218">
        <ele>188.93451</ele>
        <time>2023-07-11T10:24:26.000Z</time>
      </trkpt>
      <trkpt lat="45.77911" lon="4.98227">
        <ele>188.98409</ele>
        <time>2023-07-11T10:24:27.000Z</time>
      </trkpt>
      <trkpt lat="45.77911" lon="4.98237">
        <ele>189.10989</ele>
        <time>2023-07-11T10:24:28.000Z</time>
      </trkpt>
      <trkpt lat="45.77911" lon="4.98247">
        <ele>189.21342</ele>
        <time>2023-07-11T10:24:29.000Z</time>
      </trkpt>
      <trkpt lat="45.7791" lon="4.98254">
        <ele>189.31081</ele>
        <time>2023-07-11T10:24:30.000Z</time>
      </trkpt>
      <trkpt lat="45.77911" lon="4.98262">
        <ele>189.43437</ele>
        <time>2023-07-11T10:24:31.000Z</time>
      </trkpt>
      <trkpt lat="45.77912" lon="4.98273">
        <ele>189.54181</ele>
        <time>2023-07-11T10:24:32.000Z</time>
      </trkpt>
      <trkpt lat="45.77913" lon="4.98282">
        <ele>189.6925</ele>
        <time>2023-07-11T10:24:33.000Z</time>
      </trkpt>
      <trkpt lat="45.77913" lon="4.9829">
        <ele>189.79948</ele>
        <time>2023-07-11T10:24:34.000Z</time>
      </trkpt>
      <trkpt lat="45.77913" lon="4.98299">
        <ele>189.89748</ele>
        <time>2023-07-11T10:24:35.000Z</time>
      </trkpt>
      <trkpt lat="45.77913" lon="4.98307">
        <ele>190.07504</ele>
        <time>2023-07-11T10:24:36.000Z</time>
      </trkpt>
      <trkpt lat="45.77913" lon="4.98316">
        <ele>190.24622</ele>
        <time>2023-07-11T10:24:37.000Z</time>
      </trkpt>
      <trkpt lat="45.77913" lon="4.98325">
        <ele>190.41933</ele>
        <time>2023-07-11T10:24:38.000Z</time>
      </trkpt>
      <trkpt lat="45.77912" lon="4.98332">
        <ele>190.56863</ele>
        <time>2023-07-11T10:24:39.000Z</time>
      </trkpt>
      <trkpt lat="45.77913" lon="4.98339">
        <ele>190.66086</ele>
        <time>2023-07-11T10:24:40.000Z</time>
      </trkpt>
      <trkpt lat="45.77914" lon="4.98348">
        <ele>190.7213</ele>
        <time>2023-07-11T10:24:41.000Z</time>
      </trkpt>
      <trkpt lat="45.77917" lon="4.98355">
        <ele>190.81744</ele>
        <time>2023-07-11T10:24:42.000Z</time>
      </trkpt>
      <trkpt lat="45.7792" lon="4.98362">
        <ele>190.94377</ele>
        <time>2023-07-11T10:24:43.000Z</time>
      </trkpt>
      <trkpt lat="45.77923" lon="4.9837">
        <ele>191.05705</ele>
        <time>2023-07-11T10:24:44.000Z</time>
      </trkpt>
      <trkpt lat="45.77926" lon="4.98377">
        <ele>191.12677</ele>
        <time>2023-07-11T10:24:45.000Z</time>
      </trkpt>
      <trkpt lat="45.77928" lon="4.98385">
        <ele>191.17282</ele>
        <time>2023-07-11T10:24:46.000Z</time>
      </trkpt>
      <trkpt lat="45.7793" lon="4.98394">
        <ele>191.2435</ele>
        <time>2023-07-11T10:24:47.000Z</time>
      </trkpt>
      <trkpt lat="45.77933" lon="4.98402">
        <ele>191.27621</ele>
        <time>2023-07-11T10:24:48.000Z</time>
      </trkpt>
      <trkpt lat="45.77935" lon="4.9841">
        <ele>191.33528</ele>
        <time>2023-07-11T10:24:49.000Z</time>
      </trkpt>
      <trkpt lat="45.77938" lon="4.98419">
        <ele>191.33731</ele>
        <time>2023-07-11T10:24:50.000Z</time>
      </trkpt>
      <trkpt lat="45.7794" lon="4.98428">
        <ele>191.27983</ele>
        <time>2023-07-11T10:24:51.000Z</time>
      </trkpt>
      <trkpt lat="45.77943" lon="4.98437">
        <ele>191.19934</ele>
        <time>2023-07-11T10:24:52.000Z</time>
      </trkpt>
      <trkpt lat="45.77945" lon="4.98447">
        <ele>191.07855</ele>
        <time>2023-07-11T10:24:53.000Z</time>
      </trkpt>
      <trkpt lat="45.77947" lon="4.98457">
        <ele>190.97816</ele>
        <time>2023-07-11T10:24:54.000Z</time>
      </trkpt>
      <trkpt lat="45.77946" lon="4.98467">
        <ele>190.87654</ele>
        <time>2023-07-11T10:24:55.000Z</time>
      </trkpt>
      <trkpt lat="45.77945" lon="4.98478">
        <ele>190.75644</ele>
        <time>2023-07-11T10:24:56.000Z</time>
      </trkpt>
      <trkpt lat="45.77943" lon="4.98487">
        <ele>190.63539</ele>
        <time>2023-07-11T10:24:57.000Z</time>
      </trkpt>
      <trkpt lat="45.7794" lon="4.98495">
        <ele>190.53232</ele>
        <time>2023-07-11T10:24:58.000Z</time>
      </trkpt>
      <trkpt lat="45.77941" lon="4.98504">
        <ele>190.4006</ele>
        <time>2023-07-11T10:24:59.000Z</time>
      </trkpt>
      <trkpt lat="45.77945" lon="4.98512">
        <ele>190.3353</ele>
        <time>2023-07-11T10:25:00.000Z</time>
      </trkpt>
      <trkpt lat="45.77949" lon="4.98518">
        <ele>190.29089</ele>
        <time>2023-07-11T10:25:01.000Z</time>
      </trkpt>
      <trkpt lat="45.77954" lon="4.98522">
        <ele>190.19238</ele>
        <time>2023-07-11T10:25:02.000Z</time>
      </trkpt>
      <trkpt lat="45.77958" lon="4.98525">
        <ele>190.07475</ele>
        <time>2023-07-11T10:25:03.000Z</time>
      </trkpt>
      <trkpt lat="45.77963" lon="4.9853">
        <ele>190.02187</ele>
        <time>2023-07-11T10:25:04.000Z</time>
      </trkpt>
      <trkpt lat="45.77968" lon="4.98535">
        <ele>189.95581</ele>
        <time>2023-07-11T10:25:05.000Z</time>
      </trkpt>
      <trkpt lat="45.77971" lon="4.98542">
        <ele>189.91042</ele>
        <time>2023-07-11T10:25:06.000Z</time>
      </trkpt>
      <trkpt lat="45.77973" lon="4.98549">
        <ele>189.86038</ele>
        <time>2023-07-11T10:25:07.000Z</time>
      </trkpt>
      <trkpt lat="45.77975" lon="4.98558">
        <ele>189.8096</ele>
        <time>2023-07-11T10:25:08.000Z</time>
      </trkpt>
      <trkpt lat="45.77977" lon="4.98566">
        <ele>189.76797</ele>
        <time>2023-07-11T10:25:09.000Z</time>
      </trkpt>
      <trkpt lat="45.77979" lon="4.98574">
        <ele>189.76929</ele>
        <time>2023-07-11T10:25:10.000Z</time>
      </trkpt>
      <trkpt lat="45.77981" lon="4.98583">
        <ele>189.79953</ele>
        <time>2023-07-11T10:25:11.000Z</time>
      </trkpt>
      <trkpt lat="45.77983" lon="4.98591">
        <ele>189.84589</ele>
        <time>2023-07-11T10:25:12.000Z</time>
      </trkpt>
      <trkpt lat="45.77987" lon="4.98599">
        <ele>189.93268</ele>
        <time>2023-07-11T10:25:13.000Z</time>
      </trkpt>
      <trkpt lat="45.77991" lon="4.98606">
        <ele>190.04008</ele>
        <time>2023-07-11T10:25:14.000Z</time>
      </trkpt>
      <trkpt lat="45.77995" lon="4.98614">
        <ele>190.14383</ele>
        <time>2023-07-11T10:25:15.000Z</time>
      </trkpt>
      <trkpt lat="45.77999" lon="4.98619">
        <ele>190.21887</ele>
        <time>2023-07-11T10:25:16.000Z</time>
      </trkpt>
      <trkpt lat="45.78004" lon="4.98626">
        <ele>190.29965</ele>
        <time>2023-07-11T10:25:17.000Z</time>
      </trkpt>
      <trkpt lat="45.78009" lon="4.98633">
        <ele>190.36734</ele>
        <time>2023-07-11T10:25:18.000Z</time>
      </trkpt>
      <trkpt lat="45.78014" lon="4.98638">
        <ele>190.47455</ele>
        <time>2023-07-11T10:25:19.000Z</time>
      </trkpt>
      <trkpt lat="45.78018" lon="4.98645">
        <ele>190.539</ele>
        <time>2023-07-11T10:25:20.000Z</time>
      </trkpt>
      <trkpt lat="45.78023" lon="4.98652">
        <ele>190.58498</ele>
        <time>2023-07-11T10:25:21.000Z</time>
      </trkpt>
      <trkpt lat="45.78027" lon="4.98658">
        <ele>190.63515</ele>
        <time>2023-07-11T10:25:22.000Z</time>
      </trkpt>
      <trkpt lat="45.78032" lon="4.98665">
        <ele>190.6844</ele>
        <time>2023-07-11T10:25:23.000Z</time>
      </trkpt>
      <trkpt lat="45.78036" lon="4.98672">
        <ele>190.71164</ele>
        <time>2023-07-11T10:25:24.000Z</time>
      </trkpt>
      <trkpt lat="45.78041" lon="4.98678">
        <ele>190.77487</ele>
        <time>2023-07-11T10:25:25.000Z</time>
      </trkpt>
      <trkpt lat="45.78046" lon="4.98685">
        <ele>190.80905</ele>
        <time>2023-07-11T10:25:26.000Z</time>
      </trkpt>
      <trkpt lat="45.78052" lon="4.98693">
        <ele>190.79726</ele>
        <time>2023-07-11T10:25:27.000Z</time>
      </trkpt>
      <trkpt lat="45.78057" lon="4.98699">
        <ele>190.78403</ele>
        <time>2023-07-11T10:25:28.000Z</time>
      </trkpt>
      <trkpt lat="45.78062" lon="4.98706">
        <ele>190.75562</ele>
        <time>2023-07-11T10:25:29.000Z</time>
      </trkpt>
      <trkpt lat="45.78067" lon="4.98713">
        <ele>190.70316</ele>
        <time>2023-07-11T10:25:30.000Z</time>
      </trkpt>
      <trkpt lat="45.78072" lon="4.98719">
        <ele>190.61168</ele>
        <time>2023-07-11T10:25:31.000Z</time>
      </trkpt>
      <trkpt lat="45.78078" lon="4.98726">
        <ele>190.49133</ele>
        <time>2023-07-11T10:25:32.000Z</time>
      </trkpt>
      <trkpt lat="45.78084" lon="4.98732">
        <ele>190.34026</ele>
        <time>2023-07-11T10:25:33.000Z</time>
      </trkpt>
      <trkpt lat="45.7809" lon="4.98739">
        <ele>190.16866</ele>
        <time>2023-07-11T10:25:34.000Z</time>
      </trkpt>
      <trkpt lat="45.78097" lon="4.98746">
        <ele>189.99614</ele>
        <time>2023-07-11T10:25:35.000Z</time>
      </trkpt>
      <trkpt lat="45.78103" lon="4.98752">
        <ele>189.82973</ele>
        <time>2023-07-11T10:25:36.000Z</time>
      </trkpt>
      <trkpt lat="45.7811" lon="4.98759">
        <ele>189.6373</ele>
        <time>2023-07-11T10:25:37.000Z</time>
      </trkpt>
      <trkpt lat="45.78116" lon="4.98765">
        <ele>189.41898</ele>
        <time>2023-07-11T10:25:38.000Z</time>
      </trkpt>
      <trkpt lat="45.78123" lon="4.98771">
        <ele>189.17299</ele>
        <time>2023-07-11T10:25:39.000Z</time>
      </trkpt>
      <trkpt lat="45.7813" lon="4.98776">
        <ele>188.90146</ele>
        <time>2023-07-11T10:25:40.000Z</time>
      </trkpt>
      <trkpt lat="45.78138" lon="4.98781">
        <ele>188.62941</ele>
        <time>2023-07-11T10:25:41.000Z</time>
      </trkpt>
      <trkpt lat="45.78146" lon="4.98786">
        <ele>188.35995</ele>
        <time>2023-07-11T10:25:42.000Z</time>
      </trkpt>
      <trkpt lat="45.78153" lon="4.9879">
        <ele>188.10851</ele>
        <time>2023-07-11T10:25:43.000Z</time>
      </trkpt>
      <trkpt lat="45.78161" lon="4.98794">
        <ele>187.82986</ele>
        <time>2023-07-11T10:25:44.000Z</time>
      </trkpt>
      <trkpt lat="45.78168" lon="4.98798">
        <ele>187.51646</ele>
        <time>2023-07-11T10:25:45.000Z</time>
      </trkpt>
      <trkpt lat="45.78175" lon="4.98802">
        <ele>187.20232</ele>
        <time>2023-07-11T10:25:46.000Z</time>
      </trkpt>
      <trkpt lat="45.78182" lon="4.98807">
        <ele>186.93129</ele>
        <time>2023-07-11T10:25:47.000Z</time>
      </trkpt>
      <trkpt lat="45.78187" lon="4.98812">
        <ele>186.6333</ele>
        <time>2023-07-11T10:25:48.000Z</time>
      </trkpt>
      <trkpt lat="45.78193" lon="4.98815">
        <ele>186.35196</ele>
        <time>2023-07-11T10:25:49.000Z</time>
      </trkpt>
      <trkpt lat="45.78201" lon="4.98817">
        <ele>186.05881</ele>
        <time>2023-07-11T10:25:50.000Z</time>
      </trkpt>
      <trkpt lat="45.78208" lon="4.98823">
        <ele>185.76379</ele>
        <time>2023-07-11T10:25:51.000Z</time>
      </trkpt>
      <trkpt lat="45.78214" lon="4.98826">
        <ele>185.5535</ele>
        <time>2023-07-11T10:25:52.000Z</time>
      </trkpt>
      <trkpt lat="45.78219" lon="4.9883">
        <ele>185.34023</ele>
        <time>2023-07-11T10:25:53.000Z</time>
      </trkpt>
      <trkpt lat="45.78218" lon="4.98832">
        <ele>185.0696</ele>
        <time>2023-07-11T10:25:54.000Z</time>
      </trkpt>
      <trkpt lat="45.78224" lon="4.98835">
        <ele>184.76657</ele>
        <time>2023-07-11T10:25:55.000Z</time>
      </trkpt>
      <trkpt lat="45.78231" lon="4.98842">
        <ele>184.49249</ele>
        <time>2023-07-11T10:25:56.000Z</time>
      </trkpt>
      <trkpt lat="45.78239" lon="4.98847">
        <ele>184.21436</ele>
        <time>2023-07-11T10:25:57.000Z</time>
      </trkpt>
      <trkpt lat="45.78245" lon="4.98851">
        <ele>183.9581</ele>
        <time>2023-07-11T10:25:58.000Z</time>
      </trkpt>
      <trkpt lat="45.7825" lon="4.98857">
        <ele>183.7515</ele>
        <time>2023-07-11T10:25:59.000Z</time>
      </trkpt>
      <trkpt lat="45.78255" lon="4.98863">
        <ele>183.5499</ele>
        <time>2023-07-11T10:26:00.000Z</time>
      </trkpt>
      <trkpt lat="45.7826" lon="4.98867">
        <ele>183.35164</ele>
        <time>2023-07-11T10:26:01.000Z</time>
      </trkpt>
      <trkpt lat="45.78266" lon="4.98872">
        <ele>183.14108</ele>
        <time>2023-07-11T10:26:02.000Z</time>
      </trkpt>
      <trkpt lat="45.78272" lon="4.98877">
        <ele>183.0378</ele>
        <time>2023-07-11T10:26:03.000Z</time>
      </trkpt>
      <trkpt lat="45.78277" lon="4.98883">
        <ele>182.99417</ele>
        <time>2023-07-11T10:26:04.000Z</time>
      </trkpt>
      <trkpt lat="45.78283" lon="4.98887">
        <ele>183.00983</ele>
        <time>2023-07-11T10:26:05.000Z</time>
      </trkpt>
      <trkpt lat="45.78288" lon="4.98894">
        <ele>183.03929</ele>
        <time>2023-07-11T10:26:06.000Z</time>
      </trkpt>
      <trkpt lat="45.78294" lon="4.98898">
        <ele>183.0941</ele>
        <time>2023-07-11T10:26:07.000Z</time>
      </trkpt>
      <trkpt lat="45.783" lon="4.98902">
        <ele>183.09795</ele>
        <time>2023-07-11T10:26:08.000Z</time>
      </trkpt>
      <trkpt lat="45.78306" lon="4.98906">
        <ele>183.12831</ele>
        <time>2023-07-11T10:26:09.000Z</time>
      </trkpt>
      <trkpt lat="45.78312" lon="4.98912">
        <ele>183.19267</ele>
        <time>2023-07-11T10:26:10.000Z</time>
      </trkpt>
      <trkpt lat="45.78317" lon="4.98917">
        <ele>183.29866</ele>
        <time>2023-07-11T10:26:11.000Z</time>
      </trkpt>
      <trkpt lat="45.78322" lon="4.98922">
        <ele>183.36089</ele>
        <time>2023-07-11T10:26:12.000Z</time>
      </trkpt>
      <trkpt lat="45.78326" lon="4.98925">
        <ele>183.45595</ele>
        <time>2023-07-11T10:26:13.000Z</time>
      </trkpt>
      <trkpt lat="45.7833" lon="4.9893">
        <ele>183.61475</ele>
        <time>2023-07-11T10:26:14.000Z</time>
      </trkpt>
      <trkpt lat="45.78331" lon="4.98936">
        <ele>183.84087</ele>
        <time>2023-07-11T10:26:15.000Z</time>
      </trkpt>
      <trkpt lat="45.78329" lon="4.98943">
        <ele>184.06435</ele>
        <time>2023-07-11T10:26:16.000Z</time>
      </trkpt>
      <trkpt lat="45.78327" lon="4.98948">
        <ele>184.2988</ele>
        <time>2023-07-11T10:26:17.000Z</time>
      </trkpt>
      <trkpt lat="45.78324" lon="4.98952">
        <ele>184.51103</ele>
        <time>2023-07-11T10:26:18.000Z</time>
      </trkpt>
      <trkpt lat="45.78321" lon="4.98956">
        <ele>184.71027</ele>
        <time>2023-07-11T10:26:19.000Z</time>
      </trkpt>
      <trkpt lat="45.78319" lon="4.98958">
        <ele>184.90968</ele>
        <time>2023-07-11T10:26:20.000Z</time>
      </trkpt>
      <trkpt lat="45.78317" lon="4.98963">
        <ele>185.12547</ele>
        <time>2023-07-11T10:26:21.000Z</time>
      </trkpt>
      <trkpt lat="45.78316" lon="4.98968">
        <ele>185.36354</ele>
        <time>2023-07-11T10:26:22.000Z</time>
      </trkpt>
      <trkpt lat="45.78317" lon="4.98974">
        <ele>185.5088</ele>
        <time>2023-07-11T10:26:23.000Z</time>
      </trkpt>
      <trkpt lat="45.78321" lon="4.98978">
        <ele>185.58125</ele>
        <time>2023-07-11T10:26:24.000Z</time>
      </trkpt>
      <trkpt lat="45.78325" lon="4.98981">
        <ele>185.61722</ele>
        <time>2023-07-11T10:26:25.000Z</time>
      </trkpt>
      <trkpt lat="45.78328" lon="4.98985">
        <ele>185.64236</ele>
        <time>2023-07-11T10:26:26.000Z</time>
      </trkpt>
      <trkpt lat="45.78333" lon="4.98988">
        <ele>185.61655</ele>
        <time>2023-07-11T10:26:27.000Z</time>
      </trkpt>
      <trkpt lat="45.78338" lon="4.98992">
        <ele>185.69533</ele>
        <time>2023-07-11T10:26:28.000Z</time>
      </trkpt>
      <trkpt lat="45.78342" lon="4.98995">
        <ele>185.6962</ele>
        <time>2023-07-11T10:26:29.000Z</time>
      </trkpt>
      <trkpt lat="45.78347" lon="4.98999">
        <ele>185.70731</ele>
        <time>2023-07-11T10:26:30.000Z</time>
      </trkpt>
      <trkpt lat="45.78353" lon="4.99001">
        <ele>185.74475</ele>
        <time>2023-07-11T10:26:31.000Z</time>
      </trkpt>
      <trkpt lat="45.78357" lon="4.99005">
        <ele>185.78406</ele>
        <time>2023-07-11T10:26:32.000Z</time>
      </trkpt>
      <trkpt lat="45.78362" lon="4.99008">
        <ele>185.80978</ele>
        <time>2023-07-11T10:26:33.000Z</time>
      </trkpt>
      <trkpt lat="45.78366" lon="4.99012">
        <ele>185.80591</ele>
        <time>2023-07-11T10:26:34.000Z</time>
      </trkpt>
      <trkpt lat="45.78372" lon="4.99015">
        <ele>185.80968</ele>
        <time>2023-07-11T10:26:35.000Z</time>
      </trkpt>
      <trkpt lat="45.78377" lon="4.99018">
        <ele>185.79739</ele>
        <time>2023-07-11T10:26:36.000Z</time>
      </trkpt>
      <trkpt lat="45.78382" lon="4.99021">
        <ele>185.782</ele>
        <time>2023-07-11T10:26:37.000Z</time>
      </trkpt>
      <trkpt lat="45.78387" lon="4.99025">
        <ele>185.76334</ele>
        <time>2023-07-11T10:26:38.000Z</time>
      </trkpt>
      <trkpt lat="45.78391" lon="4.99028">
        <ele>185.72269</ele>
        <time>2023-07-11T10:26:39.000Z</time>
      </trkpt>
      <trkpt lat="45.78397" lon="4.9903">
        <ele>185.75339</ele>
        <time>2023-07-11T10:26:40.000Z</time>
      </trkpt>
      <trkpt lat="45.78404" lon="4.99031">
        <ele>185.76199</ele>
        <time>2023-07-11T10:26:41.000Z</time>
      </trkpt>
      <trkpt lat="45.78409" lon="4.99032">
        <ele>185.73924</ele>
        <time>2023-07-11T10:26:42.000Z</time>
      </trkpt>
      <trkpt lat="45.78415" lon="4.99035">
        <ele>185.70044</ele>
        <time>2023-07-11T10:26:43.000Z</time>
      </trkpt>
      <trkpt lat="45.7842" lon="4.99038">
        <ele>185.68259</ele>
        <time>2023-07-11T10:26:44.000Z</time>
      </trkpt>
      <trkpt lat="45.78425" lon="4.99041">
        <ele>185.65231</ele>
        <time>2023-07-11T10:26:45.000Z</time>
      </trkpt>
      <trkpt lat="45.78431" lon="4.99044">
        <ele>185.60132</ele>
        <time>2023-07-11T10:26:46.000Z</time>
      </trkpt>
      <trkpt lat="45.78437" lon="4.99048">
        <ele>185.597</ele>
        <time>2023-07-11T10:26:47.000Z</time>
      </trkpt>
      <trkpt lat="45.78442" lon="4.9905">
        <ele>185.60475</ele>
        <time>2023-07-11T10:26:48.000Z</time>
      </trkpt>
      <trkpt lat="45.78447" lon="4.99051">
        <ele>185.64166</ele>
        <time>2023-07-11T10:26:49.000Z</time>
      </trkpt>
      <trkpt lat="45.78452" lon="4.99053">
        <ele>185.65897</ele>
        <time>2023-07-11T10:26:50.000Z</time>
      </trkpt>
      <trkpt lat="45.78457" lon="4.99057">
        <ele>185.63757</ele>
        <time>2023-07-11T10:26:51.000Z</time>
      </trkpt>
      <trkpt lat="45.78463" lon="4.99058">
        <ele>185.59393</ele>
        <time>2023-07-11T10:26:52.000Z</time>
      </trkpt>
      <trkpt lat="45.78468" lon="4.99061">
        <ele>185.53853</ele>
        <time>2023-07-11T10:26:53.000Z</time>
      </trkpt>
      <trkpt lat="45.78474" lon="4.99063">
        <ele>185.5089</ele>
        <time>2023-07-11T10:26:54.000Z</time>
      </trkpt>
      <trkpt lat="45.78479" lon="4.99064">
        <ele>185.45003</ele>
        <time>2023-07-11T10:26:55.000Z</time>
      </trkpt>
      <trkpt lat="45.78486" lon="4.99065">
        <ele>185.38315</ele>
        <time>2023-07-11T10:26:56.000Z</time>
      </trkpt>
      <trkpt lat="45.78492" lon="4.99065">
        <ele>185.30695</ele>
        <time>2023-07-11T10:26:57.000Z</time>
      </trkpt>
      <trkpt lat="45.78497" lon="4.99065">
        <ele>185.24883</ele>
        <time>2023-07-11T10:26:58.000Z</time>
      </trkpt>
      <trkpt lat="45.78503" lon="4.99065">
        <ele>185.21863</ele>
        <time>2023-07-11T10:26:59.000Z</time>
      </trkpt>
      <trkpt lat="45.78509" lon="4.99065">
        <ele>185.1479</ele>
        <time>2023-07-11T10:27:00.000Z</time>
      </trkpt>
      <trkpt lat="45.78515" lon="4.99064">
        <ele>185.09146</ele>
        <time>2023-07-11T10:27:01.000Z</time>
      </trkpt>
      <trkpt lat="45.78521" lon="4.99063">
        <ele>185.04752</ele>
        <time>2023-07-11T10:27:02.000Z</time>
      </trkpt>
      <trkpt lat="45.78527" lon="4.99061">
        <ele>185.01756</ele>
        <time>2023-07-11T10:27:03.000Z</time>
      </trkpt>
      <trkpt lat="45.78533" lon="4.9906">
        <ele>185.02159</ele>
        <time>2023-07-11T10:27:04.000Z</time>
      </trkpt>
      <trkpt lat="45.78538" lon="4.99058">
        <ele>185.04758</ele>
        <time>2023-07-11T10:27:05.000Z</time>
      </trkpt>
      <trkpt lat="45.78544" lon="4.99057">
        <ele>185.05785</ele>
        <time>2023-07-11T10:27:06.000Z</time>
      </trkpt>
      <trkpt lat="45.78549" lon="4.99055">
        <ele>185.04222</ele>
        <time>2023-07-11T10:27:07.000Z</time>
      </trkpt>
      <trkpt lat="45.78556" lon="4.99053">
        <ele>184.97507</ele>
        <time>2023-07-11T10:27:08.000Z</time>
      </trkpt>
      <trkpt lat="45.78561" lon="4.99051">
        <ele>184.91513</ele>
        <time>2023-07-11T10:27:09.000Z</time>
      </trkpt>
      <trkpt lat="45.78567" lon="4.99047">
        <ele>184.80186</ele>
        <time>2023-07-11T10:27:10.000Z</time>
      </trkpt>
      <trkpt lat="45.78573" lon="4.99045">
        <ele>184.70152</ele>
        <time>2023-07-11T10:27:11.000Z</time>
      </trkpt>
      <trkpt lat="45.78578" lon="4.99043">
        <ele>184.60658</ele>
        <time>2023-07-11T10:27:12.000Z</time>
      </trkpt>
      <trkpt lat="45.78584" lon="4.99042">
        <ele>184.56796</ele>
        <time>2023-07-11T10:27:13.000Z</time>
      </trkpt>
      <trkpt lat="45.7859" lon="4.9904">
        <ele>184.54471</ele>
        <time>2023-07-11T10:27:14.000Z</time>
      </trkpt>
      <trkpt lat="45.78595" lon="4.99039">
        <ele>184.52377</ele>
        <time>2023-07-11T10:27:15.000Z</time>
      </trkpt>
      <trkpt lat="45.78601" lon="4.99037">
        <ele>184.53825</ele>
        <time>2023-07-11T10:27:16.000Z</time>
      </trkpt>
      <trkpt lat="45.78607" lon="4.99034">
        <ele>184.57278</ele>
        <time>2023-07-11T10:27:17.000Z</time>
      </trkpt>
      <trkpt lat="45.78613" lon="4.99032">
        <ele>184.58371</ele>
        <time>2023-07-11T10:27:18.000Z</time>
      </trkpt>
      <trkpt lat="45.78619" lon="4.9903">
        <ele>184.60114</ele>
        <time>2023-07-11T10:27:19.000Z</time>
      </trkpt>
      <trkpt lat="45.78624" lon="4.99028">
        <ele>184.58347</ele>
        <time>2023-07-11T10:27:20.000Z</time>
      </trkpt>
      <trkpt lat="45.7863" lon="4.99025">
        <ele>184.54205</ele>
        <time>2023-07-11T10:27:21.000Z</time>
      </trkpt>
      <trkpt lat="45.78635" lon="4.99022">
        <ele>184.5264</ele>
        <time>2023-07-11T10:27:22.000Z</time>
      </trkpt>
      <trkpt lat="45.7864" lon="4.99017">
        <ele>184.52377</ele>
        <time>2023-07-11T10:27:23.000Z</time>
      </trkpt>
      <trkpt lat="45.78645" lon="4.99013">
        <ele>184.48985</ele>
        <time>2023-07-11T10:27:24.000Z</time>
      </trkpt>
      <trkpt lat="45.78651" lon="4.99009">
        <ele>184.5172</ele>
        <time>2023-07-11T10:27:25.000Z</time>
      </trkpt>
      <trkpt lat="45.78656" lon="4.99004">
        <ele>184.57881</ele>
        <time>2023-07-11T10:27:26.000Z</time>
      </trkpt>
      <trkpt lat="45.78661" lon="4.99">
        <ele>184.67422</ele>
        <time>2023-07-11T10:27:27.000Z</time>
      </trkpt>
      <trkpt lat="45.78666" lon="4.98996">
        <ele>184.71976</ele>
        <time>2023-07-11T10:27:28.000Z</time>
      </trkpt>
      <trkpt lat="45.78671" lon="4.98991">
        <ele>184.79916</ele>
        <time>2023-07-11T10:27:29.000Z</time>
      </trkpt>
      <trkpt lat="45.78676" lon="4.98986">
        <ele>184.93893</ele>
        <time>2023-07-11T10:27:30.000Z</time>
      </trkpt>
      <trkpt lat="45.78681" lon="4.9898">
        <ele>185.035</ele>
        <time>2023-07-11T10:27:31.000Z</time>
      </trkpt>
      <trkpt lat="45.78687" lon="4.98977">
        <ele>185.12935</ele>
        <time>2023-07-11T10:27:32.000Z</time>
      </trkpt>
      <trkpt lat="45.78692" lon="4.98974">
        <ele>185.20627</ele>
        <time>2023-07-11T10:27:33.000Z</time>
      </trkpt>
      <trkpt lat="45.78696" lon="4.98972">
        <ele>185.27812</ele>
        <time>2023-07-11T10:27:34.000Z</time>
      </trkpt>
      <trkpt lat="45.787" lon="4.9897">
        <ele>185.36185</ele>
        <time>2023-07-11T10:27:35.000Z</time>
      </trkpt>
      <trkpt lat="45.78705" lon="4.98969">
        <ele>185.41504</ele>
        <time>2023-07-11T10:27:36.000Z</time>
      </trkpt>
      <trkpt lat="45.7871" lon="4.98968">
        <ele>185.47263</ele>
        <time>2023-07-11T10:27:37.000Z</time>
      </trkpt>
      <trkpt lat="45.78715" lon="4.98968">
        <ele>185.58371</ele>
        <time>2023-07-11T10:27:38.000Z</time>
      </trkpt>
      <trkpt lat="45.78721" lon="4.98966">
        <ele>185.71761</ele>
        <time>2023-07-11T10:27:39.000Z</time>
      </trkpt>
      <trkpt lat="45.78727" lon="4.98965">
        <ele>185.86168</ele>
        <time>2023-07-11T10:27:40.000Z</time>
      </trkpt>
      <trkpt lat="45.78733" lon="4.98963">
        <ele>186.04022</ele>
        <time>2023-07-11T10:27:41.000Z</time>
      </trkpt>
      <trkpt lat="45.78739" lon="4.98963">
        <ele>186.18758</ele>
        <time>2023-07-11T10:27:42.000Z</time>
      </trkpt>
      <trkpt lat="45.78743" lon="4.98957">
        <ele>186.36346</ele>
        <time>2023-07-11T10:27:43.000Z</time>
      </trkpt>
      <trkpt lat="45.78747" lon="4.98951">
        <ele>186.55574</ele>
        <time>2023-07-11T10:27:44.000Z</time>
      </trkpt>
      <trkpt lat="45.78751" lon="4.98947">
        <ele>186.67171</ele>
        <time>2023-07-11T10:27:45.000Z</time>
      </trkpt>
      <trkpt lat="45.78754" lon="4.98942">
        <ele>186.70384</ele>
        <time>2023-07-11T10:27:46.000Z</time>
      </trkpt>
      <trkpt lat="45.78757" lon="4.98938">
        <ele>186.76381</ele>
        <time>2023-07-11T10:27:47.000Z</time>
      </trkpt>
      <trkpt lat="45.7876" lon="4.98933">
        <ele>186.9158</ele>
        <time>2023-07-11T10:27:48.000Z</time>
      </trkpt>
      <trkpt lat="45.78763" lon="4.9893">
        <ele>187.02953</ele>
        <time>2023-07-11T10:27:49.000Z</time>
      </trkpt>
      <trkpt lat="45.78767" lon="4.98929">
        <ele>187.18478</ele>
        <time>2023-07-11T10:27:50.000Z</time>
      </trkpt>
      <trkpt lat="45.78769" lon="4.98928">
        <ele>187.38431</ele>
        <time>2023-07-11T10:27:51.000Z</time>
      </trkpt>
      <trkpt lat="45.7877" lon="4.98926">
        <ele>187.59006</ele>
        <time>2023-07-11T10:27:53.000Z</time>
      </trkpt>
      <trkpt lat="45.78774" lon="4.98926">
        <ele>187.76044</ele>
        <time>2023-07-11T10:27:55.000Z</time>
      </trkpt>
      <trkpt lat="45.78778" lon="4.98926">
        <ele>187.91214</ele>
        <time>2023-07-11T10:27:56.000Z</time>
      </trkpt>
      <trkpt lat="45.78783" lon="4.98925">
        <ele>188.07619</ele>
        <time>2023-07-11T10:27:57.000Z</time>
      </trkpt>
      <trkpt lat="45.78787" lon="4.98925">
        <ele>188.24829</ele>
        <time>2023-07-11T10:27:58.000Z</time>
      </trkpt>
      <trkpt lat="45.78792" lon="4.98924">
        <ele>188.42406</ele>
        <time>2023-07-11T10:27:59.000Z</time>
      </trkpt>
      <trkpt lat="45.78797" lon="4.98924">
        <ele>188.59541</ele>
        <time>2023-07-11T10:28:00.000Z</time>
      </trkpt>
      <trkpt lat="45.78801" lon="4.98925">
        <ele>188.78017</ele>
        <time>2023-07-11T10:28:01.000Z</time>
      </trkpt>
      <trkpt lat="45.78805" lon="4.98925">
        <ele>188.9866</ele>
        <time>2023-07-11T10:28:02.000Z</time>
      </trkpt>
      <trkpt lat="45.7881" lon="4.98925">
        <ele>189.16899</ele>
        <time>2023-07-11T10:28:03.000Z</time>
      </trkpt>
      <trkpt lat="45.78814" lon="4.98924">
        <ele>189.36874</ele>
        <time>2023-07-11T10:28:04.000Z</time>
      </trkpt>
      <trkpt lat="45.78819" lon="4.98923">
        <ele>189.47641</ele>
        <time>2023-07-11T10:28:05.000Z</time>
      </trkpt>
      <trkpt lat="45.78824" lon="4.98922">
        <ele>189.56734</ele>
        <time>2023-07-11T10:28:06.000Z</time>
      </trkpt>
      <trkpt lat="45.78829" lon="4.98921">
        <ele>189.62202</ele>
        <time>2023-07-11T10:28:07.000Z</time>
      </trkpt>
      <trkpt lat="45.78836" lon="4.98921">
        <ele>189.72255</ele>
        <time>2023-07-11T10:28:08.000Z</time>
      </trkpt>
      <trkpt lat="45.78844" lon="4.98919">
        <ele>189.74706</ele>
        <time>2023-07-11T10:28:09.000Z</time>
      </trkpt>
      <trkpt lat="45.78852" lon="4.98918">
        <ele>189.70389</ele>
        <time>2023-07-11T10:28:10.000Z</time>
      </trkpt>
      <trkpt lat="45.78862" lon="4.98915">
        <ele>189.62151</ele>
        <time>2023-07-11T10:28:11.000Z</time>
      </trkpt>
      <trkpt lat="45.78871" lon="4.98915">
        <ele>189.47549</ele>
        <time>2023-07-11T10:28:12.000Z</time>
      </trkpt>
      <trkpt lat="45.7888" lon="4.98915">
        <ele>189.31529</ele>
        <time>2023-07-11T10:28:13.000Z</time>
      </trkpt>
      <trkpt lat="45.78888" lon="4.98917">
        <ele>189.13748</ele>
        <time>2023-07-11T10:28:14.000Z</time>
      </trkpt>
      <trkpt lat="45.78897" lon="4.98919">
        <ele>188.97272</ele>
        <time>2023-07-11T10:28:15.000Z</time>
      </trkpt>
      <trkpt lat="45.78906" lon="4.9892">
        <ele>188.80368</ele>
        <time>2023-07-11T10:28:16.000Z</time>
      </trkpt>
      <trkpt lat="45.78914" lon="4.98922">
        <ele>188.62659</ele>
        <time>2023-07-11T10:28:17.000Z</time>
      </trkpt>
      <trkpt lat="45.78921" lon="4.98924">
        <ele>188.44475</ele>
        <time>2023-07-11T10:28:18.000Z</time>
      </trkpt>
      <trkpt lat="45.78927" lon="4.98925">
        <ele>188.22644</ele>
        <time>2023-07-11T10:28:19.000Z</time>
      </trkpt>
      <trkpt lat="45.78935" lon="4.98926">
        <ele>187.95804</ele>
        <time>2023-07-11T10:28:20.000Z</time>
      </trkpt>
      <trkpt lat="45.78941" lon="4.98927">
        <ele>187.67091</ele>
        <time>2023-07-11T10:28:21.000Z</time>
      </trkpt>
      <trkpt lat="45.78947" lon="4.9893">
        <ele>187.40768</ele>
        <time>2023-07-11T10:28:22.000Z</time>
      </trkpt>
      <trkpt lat="45.78953" lon="4.98932">
        <ele>187.14365</ele>
        <time>2023-07-11T10:28:23.000Z</time>
      </trkpt>
      <trkpt lat="45.78959" lon="4.98934">
        <ele>186.89117</ele>
        <time>2023-07-11T10:28:24.000Z</time>
      </trkpt>
      <trkpt lat="45.78965" lon="4.98937">
        <ele>186.66226</ele>
        <time>2023-07-11T10:28:25.000Z</time>
      </trkpt>
      <trkpt lat="45.7897" lon="4.98939">
        <ele>186.43938</ele>
        <time>2023-07-11T10:28:26.000Z</time>
      </trkpt>
      <trkpt lat="45.78976" lon="4.9894">
        <ele>186.23047</ele>
        <time>2023-07-11T10:28:27.000Z</time>
      </trkpt>
      <trkpt lat="45.78982" lon="4.9894">
        <ele>186.06387</ele>
        <time>2023-07-11T10:28:28.000Z</time>
      </trkpt>
      <trkpt lat="45.78989" lon="4.98941">
        <ele>185.91202</ele>
        <time>2023-07-11T10:28:29.000Z</time>
      </trkpt>
      <trkpt lat="45.78996" lon="4.98941">
        <ele>185.81949</ele>
        <time>2023-07-11T10:28:30.000Z</time>
      </trkpt>
      <trkpt lat="45.79002" lon="4.98942">
        <ele>185.75053</ele>
        <time>2023-07-11T10:28:31.000Z</time>
      </trkpt>
      <trkpt lat="45.79009" lon="4.98942">
        <ele>185.68684</ele>
        <time>2023-07-11T10:28:32.000Z</time>
      </trkpt>
      <trkpt lat="45.79015" lon="4.98944">
        <ele>185.7101</ele>
        <time>2023-07-11T10:28:33.000Z</time>
      </trkpt>
      <trkpt lat="45.79021" lon="4.98946">
        <ele>185.76212</ele>
        <time>2023-07-11T10:28:34.000Z</time>
      </trkpt>
      <trkpt lat="45.79027" lon="4.98947">
        <ele>185.81848</ele>
        <time>2023-07-11T10:28:35.000Z</time>
      </trkpt>
      <trkpt lat="45.79033" lon="4.98949">
        <ele>185.88268</ele>
        <time>2023-07-11T10:28:36.000Z</time>
      </trkpt>
      <trkpt lat="45.79039" lon="4.98951">
        <ele>185.92909</ele>
        <time>2023-07-11T10:28:37.000Z</time>
      </trkpt>
      <trkpt lat="45.79045" lon="4.98952">
        <ele>185.9753</ele>
        <time>2023-07-11T10:28:38.000Z</time>
      </trkpt>
      <trkpt lat="45.79051" lon="4.98955">
        <ele>186.03465</ele>
        <time>2023-07-11T10:28:39.000Z</time>
      </trkpt>
      <trkpt lat="45.79057" lon="4.98959">
        <ele>186.12646</ele>
        <time>2023-07-11T10:28:40.000Z</time>
      </trkpt>
      <trkpt lat="45.79063" lon="4.98962">
        <ele>186.17664</ele>
        <time>2023-07-11T10:28:41.000Z</time>
      </trkpt>
      <trkpt lat="45.79069" lon="4.98964">
        <ele>186.19714</ele>
        <time>2023-07-11T10:28:42.000Z</time>
      </trkpt>
      <trkpt lat="45.79075" lon="4.98967">
        <ele>186.22775</ele>
        <time>2023-07-11T10:28:43.000Z</time>
      </trkpt>
      <trkpt lat="45.79081" lon="4.98969">
        <ele>186.24881</ele>
        <time>2023-07-11T10:28:44.000Z</time>
      </trkpt>
      <trkpt lat="45.79087" lon="4.98972">
        <ele>186.21307</ele>
        <time>2023-07-11T10:28:45.000Z</time>
      </trkpt>
      <trkpt lat="45.79093" lon="4.98974">
        <ele>186.19461</ele>
        <time>2023-07-11T10:28:46.000Z</time>
      </trkpt>
      <trkpt lat="45.79099" lon="4.98976">
        <ele>186.2213</ele>
        <time>2023-07-11T10:28:47.000Z</time>
      </trkpt>
      <trkpt lat="45.79106" lon="4.98979">
        <ele>186.23421</ele>
        <time>2023-07-11T10:28:48.000Z</time>
      </trkpt>
      <trkpt lat="45.79112" lon="4.98982">
        <ele>186.25592</ele>
        <time>2023-07-11T10:28:49.000Z</time>
      </trkpt>
      <trkpt lat="45.79118" lon="4.98984">
        <ele>186.25876</ele>
        <time>2023-07-11T10:28:50.000Z</time>
      </trkpt>
      <trkpt lat="45.79124" lon="4.98985">
        <ele>186.27975</ele>
        <time>2023-07-11T10:28:51.000Z</time>
      </trkpt>
      <trkpt lat="45.79131" lon="4.98986">
        <ele>186.28787</ele>
        <time>2023-07-11T10:28:52.000Z</time>
      </trkpt>
      <trkpt lat="45.79137" lon="4.98988">
        <ele>186.22464</ele>
        <time>2023-07-11T10:28:53.000Z</time>
      </trkpt>
      <trkpt lat="45.79143" lon="4.98989">
        <ele>186.1346</ele>
        <time>2023-07-11T10:28:54.000Z</time>
      </trkpt>
      <trkpt lat="45.79149" lon="4.98992">
        <ele>186.05452</ele>
        <time>2023-07-11T10:28:55.000Z</time>
      </trkpt>
      <trkpt lat="45.79155" lon="4.98993">
        <ele>185.97369</ele>
        <time>2023-07-11T10:28:56.000Z</time>
      </trkpt>
      <trkpt lat="45.79161" lon="4.98994">
        <ele>185.86275</ele>
        <time>2023-07-11T10:28:57.000Z</time>
      </trkpt>
      <trkpt lat="45.79167" lon="4.98997">
        <ele>185.81676</ele>
        <time>2023-07-11T10:28:58.000Z</time>
      </trkpt>
      <trkpt lat="45.79173" lon="4.98999">
        <ele>185.78928</ele>
        <time>2023-07-11T10:28:59.000Z</time>
      </trkpt>
      <trkpt lat="45.79178" lon="4.99002">
        <ele>185.76015</ele>
        <time>2023-07-11T10:29:00.000Z</time>
      </trkpt>
      <trkpt lat="45.79183" lon="4.99006">
        <ele>185.73605</ele>
        <time>2023-07-11T10:29:01.000Z</time>
      </trkpt>
      <trkpt lat="45.79188" lon="4.99009">
        <ele>185.70566</ele>
        <time>2023-07-11T10:29:02.000Z</time>
      </trkpt>
      <trkpt lat="45.79193" lon="4.99014">
        <ele>185.55905</ele>
        <time>2023-07-11T10:29:03.000Z</time>
      </trkpt>
      <trkpt lat="45.79197" lon="4.9902">
        <ele>185.44716</ele>
        <time>2023-07-11T10:29:04.000Z</time>
      </trkpt>
      <trkpt lat="45.79201" lon="4.99026">
        <ele>185.41556</ele>
        <time>2023-07-11T10:29:05.000Z</time>
      </trkpt>
      <trkpt lat="45.79205" lon="4.99029">
        <ele>185.37277</ele>
        <time>2023-07-11T10:29:06.000Z</time>
      </trkpt>
      <trkpt lat="45.79207" lon="4.9903">
        <ele>185.32091</ele>
        <time>2023-07-11T10:29:07.000Z</time>
      </trkpt>
      <trkpt lat="45.79209" lon="4.99028">
        <ele>185.25471</ele>
        <time>2023-07-11T10:29:08.000Z</time>
      </trkpt>
      <trkpt lat="45.79211" lon="4.99025">
        <ele>185.17596</ele>
        <time>2023-07-11T10:29:09.000Z</time>
      </trkpt>
      <trkpt lat="45.79211" lon="4.99019">
        <ele>185.10472</ele>
        <time>2023-07-11T10:29:10.000Z</time>
      </trkpt>
      <trkpt lat="45.79212" lon="4.99016">
        <ele>185.04729</ele>
        <time>2023-07-11T10:29:11.000Z</time>
      </trkpt>
      <trkpt lat="45.79215" lon="4.99009">
        <ele>185.03743</ele>
        <time>2023-07-11T10:29:12.000Z</time>
      </trkpt>
      <trkpt lat="45.79216" lon="4.99004">
        <ele>185.01196</ele>
        <time>2023-07-11T10:29:13.000Z</time>
      </trkpt>
      <trkpt lat="45.79216" lon="4.98999">
        <ele>185.00957</ele>
        <time>2023-07-11T10:29:14.000Z</time>
      </trkpt>
      <trkpt lat="45.79221" lon="4.98994">
        <ele>185.02533</ele>
        <time>2023-07-11T10:29:15.000Z</time>
      </trkpt>
      <trkpt lat="45.79226" lon="4.98991">
        <ele>185.02657</ele>
        <time>2023-07-11T10:29:16.000Z</time>
      </trkpt>
      <trkpt lat="45.79231" lon="4.98989">
        <ele>185.05655</ele>
        <time>2023-07-11T10:29:17.000Z</time>
      </trkpt>
      <trkpt lat="45.79237" lon="4.98986">
        <ele>185.05238</ele>
        <time>2023-07-11T10:29:18.000Z</time>
      </trkpt>
      <trkpt lat="45.79241" lon="4.98983">
        <ele>185.03456</ele>
        <time>2023-07-11T10:29:19.000Z</time>
      </trkpt>
      <trkpt lat="45.79247" lon="4.98981">
        <ele>185.02451</ele>
        <time>2023-07-11T10:29:20.000Z</time>
      </trkpt>
      <trkpt lat="45.79252" lon="4.98979">
        <ele>184.99564</ele>
        <time>2023-07-11T10:29:21.000Z</time>
      </trkpt>
      <trkpt lat="45.79257" lon="4.98977">
        <ele>185.0112</ele>
        <time>2023-07-11T10:29:22.000Z</time>
      </trkpt>
      <trkpt lat="45.79263" lon="4.98974">
        <ele>185.14243</ele>
        <time>2023-07-11T10:29:23.000Z</time>
      </trkpt>
      <trkpt lat="45.79267" lon="4.9897">
        <ele>185.22174</ele>
        <time>2023-07-11T10:29:24.000Z</time>
      </trkpt>
      <trkpt lat="45.79273" lon="4.98967">
        <ele>185.27821</ele>
        <time>2023-07-11T10:29:25.000Z</time>
      </trkpt>
      <trkpt lat="45.79278" lon="4.98964">
        <ele>185.33591</ele>
        <time>2023-07-11T10:29:26.000Z</time>
      </trkpt>
      <trkpt lat="45.79283" lon="4.98961">
        <ele>185.39418</ele>
        <time>2023-07-11T10:29:27.000Z</time>
      </trkpt>
      <trkpt lat="45.79289" lon="4.98958">
        <ele>185.48637</ele>
        <time>2023-07-11T10:29:28.000Z</time>
      </trkpt>
      <trkpt lat="45.79294" lon="4.98954">
        <ele>185.57437</ele>
        <time>2023-07-11T10:29:29.000Z</time>
      </trkpt>
      <trkpt lat="45.79298" lon="4.98951">
        <ele>185.64684</ele>
        <time>2023-07-11T10:29:30.000Z</time>
      </trkpt>
      <trkpt lat="45.79301" lon="4.98948">
        <ele>185.70668</ele>
        <time>2023-07-11T10:29:31.000Z</time>
      </trkpt>
      <trkpt lat="45.79302" lon="4.98946">
        <ele>185.74895</ele>
        <time>2023-07-11T10:29:32.000Z</time>
      </trkpt>
      <trkpt lat="45.79305" lon="4.98942">
        <ele>185.71948</ele>
        <time>2023-07-11T10:29:34.000Z</time>
      </trkpt>
      <trkpt lat="45.79307" lon="4.98942">
        <ele>185.69196</ele>
        <time>2023-07-11T10:29:35.000Z</time>
      </trkpt>
      <trkpt lat="45.79311" lon="4.98941">
        <ele>185.63846</ele>
        <time>2023-07-11T10:29:37.000Z</time>
      </trkpt>
      <trkpt lat="45.79313" lon="4.98941">
        <ele>185.59811</ele>
        <time>2023-07-11T10:29:38.000Z</time>
      </trkpt>
      <trkpt lat="45.79314" lon="4.98942">
        <ele>185.56758</ele>
        <time>2023-07-11T10:29:39.000Z</time>
      </trkpt>
      <trkpt lat="45.79317" lon="4.98943">
        <ele>185.53467</ele>
        <time>2023-07-11T10:29:40.000Z</time>
      </trkpt>
      <trkpt lat="45.79318" lon="4.98945">
        <ele>185.51396</ele>
        <time>2023-07-11T10:29:41.000Z</time>
      </trkpt>
      <trkpt lat="45.7932" lon="4.98945">
        <ele>185.47693</ele>
        <time>2023-07-11T10:29:42.000Z</time>
      </trkpt>
      <trkpt lat="45.79323" lon="4.98946">
        <ele>185.41672</ele>
        <time>2023-07-11T10:29:43.000Z</time>
      </trkpt>
      <trkpt lat="45.79326" lon="4.98945">
        <ele>185.33226</ele>
        <time>2023-07-11T10:29:44.000Z</time>
      </trkpt>
      <trkpt lat="45.79329" lon="4.98944">
        <ele>185.24358</ele>
        <time>2023-07-11T10:29:45.000Z</time>
      </trkpt>
      <trkpt lat="45.79331" lon="4.98942">
        <ele>185.2001</ele>
        <time>2023-07-11T10:29:46.000Z</time>
      </trkpt>
      <trkpt lat="45.79334" lon="4.98942">
        <ele>185.16434</ele>
        <time>2023-07-11T10:29:47.000Z</time>
      </trkpt>
      <trkpt lat="45.79336" lon="4.98944">
        <ele>185.11815</ele>
        <time>2023-07-11T10:29:48.000Z</time>
      </trkpt>
      <trkpt lat="45.79338" lon="4.98948">
        <ele>185.0405</ele>
        <time>2023-07-11T10:29:49.000Z</time>
      </trkpt>
      <trkpt lat="45.7934" lon="4.98954">
        <ele>184.94604</ele>
        <time>2023-07-11T10:29:50.000Z</time>
      </trkpt>
      <trkpt lat="45.79342" lon="4.98959">
        <ele>184.86292</ele>
        <time>2023-07-11T10:29:51.000Z</time>
      </trkpt>
      <trkpt lat="45.79344" lon="4.98966">
        <ele>184.79118</ele>
        <time>2023-07-11T10:29:52.000Z</time>
      </trkpt>
      <trkpt lat="45.79346" lon="4.98972">
        <ele>184.71371</ele>
        <time>2023-07-11T10:29:53.000Z</time>
      </trkpt>
      <trkpt lat="45.79349" lon="4.98978">
        <ele>184.63077</ele>
        <time>2023-07-11T10:29:54.000Z</time>
      </trkpt>
      <trkpt lat="45.79351" lon="4.98984">
        <ele>184.62465</ele>
        <time>2023-07-11T10:29:55.000Z</time>
      </trkpt>
      <trkpt lat="45.79355" lon="4.98989">
        <ele>184.60757</ele>
        <time>2023-07-11T10:29:56.000Z</time>
      </trkpt>
      <trkpt lat="45.79359" lon="4.98993">
        <ele>184.56683</ele>
        <time>2023-07-11T10:29:57.000Z</time>
      </trkpt>
      <trkpt lat="45.79364" lon="4.98997">
        <ele>184.53</ele>
        <time>2023-07-11T10:29:58.000Z</time>
      </trkpt>
      <trkpt lat="45.79368" lon="4.99">
        <ele>184.4789</ele>
        <time>2023-07-11T10:29:59.000Z</time>
      </trkpt>
      <trkpt lat="45.79372" lon="4.99003">
        <ele>184.39993</ele>
        <time>2023-07-11T10:30:00.000Z</time>
      </trkpt>
      <trkpt lat="45.79376" lon="4.99007">
        <ele>184.31889</ele>
        <time>2023-07-11T10:30:01.000Z</time>
      </trkpt>
      <trkpt lat="45.7938" lon="4.99012">
        <ele>184.23375</ele>
        <time>2023-07-11T10:30:02.000Z</time>
      </trkpt>
      <trkpt lat="45.79384" lon="4.99017">
        <ele>184.16893</ele>
        <time>2023-07-11T10:30:03.000Z</time>
      </trkpt>
      <trkpt lat="45.79386" lon="4.99024">
        <ele>184.10387</ele>
        <time>2023-07-11T10:30:04.000Z</time>
      </trkpt>
      <trkpt lat="45.79389" lon="4.99031">
        <ele>184.03667</ele>
        <time>2023-07-11T10:30:05.000Z</time>
      </trkpt>
      <trkpt lat="45.79393" lon="4.99036">
        <ele>183.94847</ele>
        <time>2023-07-11T10:30:06.000Z</time>
      </trkpt>
      <trkpt lat="45.79397" lon="4.99041">
        <ele>183.87686</ele>
        <time>2023-07-11T10:30:07.000Z</time>
      </trkpt>
      <trkpt lat="45.79401" lon="4.99046">
        <ele>183.80621</ele>
        <time>2023-07-11T10:30:08.000Z</time>
      </trkpt>
      <trkpt lat="45.79405" lon="4.9905">
        <ele>183.73933</ele>
        <time>2023-07-11T10:30:09.000Z</time>
      </trkpt>
      <trkpt lat="45.7941" lon="4.99054">
        <ele>183.70102</ele>
        <time>2023-07-11T10:30:10.000Z</time>
      </trkpt>
      <trkpt lat="45.79415" lon="4.99057">
        <ele>183.65309</ele>
        <time>2023-07-11T10:30:11.000Z</time>
      </trkpt>
      <trkpt lat="45.7942" lon="4.99061">
        <ele>183.6534</ele>
        <time>2023-07-11T10:30:12.000Z</time>
      </trkpt>
      <trkpt lat="45.79424" lon="4.99063">
        <ele>183.64926</ele>
        <time>2023-07-11T10:30:13.000Z</time>
      </trkpt>
      <trkpt lat="45.79429" lon="4.99065">
        <ele>183.64249</ele>
        <time>2023-07-11T10:30:14.000Z</time>
      </trkpt>
      <trkpt lat="45.79433" lon="4.99068">
        <ele>183.64049</ele>
        <time>2023-07-11T10:30:15.000Z</time>
      </trkpt>
      <trkpt lat="45.79438" lon="4.99069">
        <ele>183.66251</ele>
        <time>2023-07-11T10:30:16.000Z</time>
      </trkpt>
      <trkpt lat="45.79442" lon="4.99068">
        <ele>183.68269</ele>
        <time>2023-07-11T10:30:17.000Z</time>
      </trkpt>
      <trkpt lat="45.79444" lon="4.99066">
        <ele>183.72374</ele>
        <time>2023-07-11T10:30:18.000Z</time>
      </trkpt>
      <trkpt lat="45.79446" lon="4.99065">
        <ele>183.75888</ele>
        <time>2023-07-11T10:30:19.000Z</time>
      </trkpt>
      <trkpt lat="45.79448" lon="4.99065">
        <ele>183.86398</ele>
        <time>2023-07-11T10:30:21.000Z</time>
      </trkpt>
      <trkpt lat="45.79452" lon="4.99065">
        <ele>183.93497</ele>
        <time>2023-07-11T10:30:22.000Z</time>
      </trkpt>
      <trkpt lat="45.79453" lon="4.99068">
        <ele>184.03079</ele>
        <time>2023-07-11T10:30:23.000Z</time>
      </trkpt>
      <trkpt lat="45.79455" lon="4.99073">
        <ele>184.17477</ele>
        <time>2023-07-11T10:30:24.000Z</time>
      </trkpt>
      <trkpt lat="45.79458" lon="4.99079">
        <ele>184.32442</ele>
        <time>2023-07-11T10:30:25.000Z</time>
      </trkpt>
      <trkpt lat="45.79459" lon="4.99084">
        <ele>184.49095</ele>
        <time>2023-07-11T10:30:26.000Z</time>
      </trkpt>
      <trkpt lat="45.79462" lon="4.99089">
        <ele>184.69043</ele>
        <time>2023-07-11T10:30:27.000Z</time>
      </trkpt>
      <trkpt lat="45.79463" lon="4.99091">
        <ele>184.86545</ele>
        <time>2023-07-11T10:30:28.000Z</time>
      </trkpt>
      <trkpt lat="45.79464" lon="4.99095">
        <ele>185.08575</ele>
        <time>2023-07-11T10:30:33.000Z</time>
      </trkpt>
      <trkpt lat="45.79464" lon="4.99101">
        <ele>185.2664</ele>
        <time>2023-07-11T10:30:43.000Z</time>
      </trkpt>
      <trkpt lat="45.79463" lon="4.99106">
        <ele>185.41733</ele>
        <time>2023-07-11T10:30:44.000Z</time>
      </trkpt>
      <trkpt lat="45.79463" lon="4.9911">
        <ele>185.58359</ele>
        <time>2023-07-11T10:30:45.000Z</time>
      </trkpt>
      <trkpt lat="45.79464" lon="4.99116">
        <ele>185.71844</ele>
        <time>2023-07-11T10:30:46.000Z</time>
      </trkpt>
      <trkpt lat="45.79464" lon="4.99121">
        <ele>185.87196</ele>
        <time>2023-07-11T10:30:47.000Z</time>
      </trkpt>
      <trkpt lat="45.79465" lon="4.99127">
        <ele>185.98662</ele>
        <time>2023-07-11T10:30:48.000Z</time>
      </trkpt>
      <trkpt lat="45.79465" lon="4.99133">
        <ele>186.10104</ele>
        <time>2023-07-11T10:30:49.000Z</time>
      </trkpt>
      <trkpt lat="45.79466" lon="4.99139">
        <ele>186.18552</ele>
        <time>2023-07-11T10:30:50.000Z</time>
      </trkpt>
      <trkpt lat="45.79465" lon="4.99148">
        <ele>186.28566</ele>
        <time>2023-07-11T10:30:51.000Z</time>
      </trkpt>
      <trkpt lat="45.79465" lon="4.99156">
        <ele>186.38492</ele>
        <time>2023-07-11T10:30:52.000Z</time>
      </trkpt>
      <trkpt lat="45.79465" lon="4.99165">
        <ele>186.53874</ele>
        <time>2023-07-11T10:30:53.000Z</time>
      </trkpt>
      <trkpt lat="45.79464" lon="4.99174">
        <ele>186.6395</ele>
        <time>2023-07-11T10:30:54.000Z</time>
      </trkpt>
      <trkpt lat="45.79463" lon="4.99183">
        <ele>186.83932</ele>
        <time>2023-07-11T10:30:55.000Z</time>
      </trkpt>
      <trkpt lat="45.79464" lon="4.9919">
        <ele>187.04655</ele>
        <time>2023-07-11T10:30:56.000Z</time>
      </trkpt>
      <trkpt lat="45.79462" lon="4.99198">
        <ele>187.19806</ele>
        <time>2023-07-11T10:30:57.000Z</time>
      </trkpt>
      <trkpt lat="45.7946" lon="4.99208">
        <ele>187.242</ele>
        <time>2023-07-11T10:30:58.000Z</time>
      </trkpt>
      <trkpt lat="45.79459" lon="4.99216">
        <ele>187.28554</ele>
        <time>2023-07-11T10:30:59.000Z</time>
      </trkpt>
      <trkpt lat="45.79456" lon="4.99225">
        <ele>187.25374</ele>
        <time>2023-07-11T10:31:00.000Z</time>
      </trkpt>
      <trkpt lat="45.79456" lon="4.99234">
        <ele>187.17172</ele>
        <time>2023-07-11T10:31:01.000Z</time>
      </trkpt>
      <trkpt lat="45.79455" lon="4.99244">
        <ele>187.05843</ele>
        <time>2023-07-11T10:31:02.000Z</time>
      </trkpt>
      <trkpt lat="45.79454" lon="4.99251">
        <ele>187.00179</ele>
        <time>2023-07-11T10:31:03.000Z</time>
      </trkpt>
      <trkpt lat="45.79451" lon="4.99259">
        <ele>186.93387</ele>
        <time>2023-07-11T10:31:04.000Z</time>
      </trkpt>
      <trkpt lat="45.79449" lon="4.99268">
        <ele>186.92116</ele>
        <time>2023-07-11T10:31:05.000Z</time>
      </trkpt>
      <trkpt lat="45.79448" lon="4.99278">
        <ele>186.88593</ele>
        <time>2023-07-11T10:31:06.000Z</time>
      </trkpt>
      <trkpt lat="45.79449" lon="4.99289">
        <ele>186.91458</ele>
        <time>2023-07-11T10:31:07.000Z</time>
      </trkpt>
      <trkpt lat="45.79448" lon="4.99299">
        <ele>186.98962</ele>
        <time>2023-07-11T10:31:08.000Z</time>
      </trkpt>
      <trkpt lat="45.79447" lon="4.99308">
        <ele>187.06915</ele>
        <time>2023-07-11T10:31:09.000Z</time>
      </trkpt>
      <trkpt lat="45.79445" lon="4.99318">
        <ele>187.17387</ele>
        <time>2023-07-11T10:31:10.000Z</time>
      </trkpt>
      <trkpt lat="45.79443" lon="4.99327">
        <ele>187.28006</ele>
        <time>2023-07-11T10:31:11.000Z</time>
      </trkpt>
      <trkpt lat="45.79441" lon="4.99334">
        <ele>187.30927</ele>
        <time>2023-07-11T10:31:12.000Z</time>
      </trkpt>
      <trkpt lat="45.79438" lon="4.99342">
        <ele>187.26691</ele>
        <time>2023-07-11T10:31:13.000Z</time>
      </trkpt>
      <trkpt lat="45.79436" lon="4.99349">
        <ele>187.24405</ele>
        <time>2023-07-11T10:31:14.000Z</time>
      </trkpt>
      <trkpt lat="45.79433" lon="4.99356">
        <ele>187.09979</ele>
        <time>2023-07-11T10:31:15.000Z</time>
      </trkpt>
      <trkpt lat="45.7943" lon="4.99364">
        <ele>186.94759</ele>
        <time>2023-07-11T10:31:16.000Z</time>
      </trkpt>
      <trkpt lat="45.79427" lon="4.99371">
        <ele>186.79277</ele>
        <time>2023-07-11T10:31:17.000Z</time>
      </trkpt>
      <trkpt lat="45.79424" lon="4.99378">
        <ele>186.73265</ele>
        <time>2023-07-11T10:31:18.000Z</time>
      </trkpt>
      <trkpt lat="45.7942" lon="4.99386">
        <ele>186.62016</ele>
        <time>2023-07-11T10:31:19.000Z</time>
      </trkpt>
      <trkpt lat="45.79416" lon="4.99392">
        <ele>186.53719</ele>
        <time>2023-07-11T10:31:20.000Z</time>
      </trkpt>
      <trkpt lat="45.79411" lon="4.99398">
        <ele>186.55826</ele>
        <time>2023-07-11T10:31:21.000Z</time>
      </trkpt>
      <trkpt lat="45.79406" lon="4.99404">
        <ele>186.57387</ele>
        <time>2023-07-11T10:31:22.000Z</time>
      </trkpt>
      <trkpt lat="45.79402" lon="4.99408">
        <ele>186.61035</ele>
        <time>2023-07-11T10:31:23.000Z</time>
      </trkpt>
      <trkpt lat="45.79397" lon="4.99412">
        <ele>186.68384</ele>
        <time>2023-07-11T10:31:24.000Z</time>
      </trkpt>
      <trkpt lat="45.79393" lon="4.99416">
        <ele>186.73715</ele>
        <time>2023-07-11T10:31:25.000Z</time>
      </trkpt>
      <trkpt lat="45.79388" lon="4.9942">
        <ele>186.80064</ele>
        <time>2023-07-11T10:31:26.000Z</time>
      </trkpt>
      <trkpt lat="45.79384" lon="4.99424">
        <ele>186.80537</ele>
        <time>2023-07-11T10:31:27.000Z</time>
      </trkpt>
      <trkpt lat="45.79379" lon="4.99427">
        <ele>186.8139</ele>
        <time>2023-07-11T10:31:28.000Z</time>
      </trkpt>
      <trkpt lat="45.79376" lon="4.99432">
        <ele>186.84885</ele>
        <time>2023-07-11T10:31:29.000Z</time>
      </trkpt>
      <trkpt lat="45.79371" lon="4.99435">
        <ele>186.89922</ele>
        <time>2023-07-11T10:31:30.000Z</time>
      </trkpt>
      <trkpt lat="45.79367" lon="4.99438">
        <ele>186.93271</ele>
        <time>2023-07-11T10:31:31.000Z</time>
      </trkpt>
      <trkpt lat="45.79363" lon="4.99443">
        <ele>187.01538</ele>
        <time>2023-07-11T10:31:32.000Z</time>
      </trkpt>
      <trkpt lat="45.79358" lon="4.99447">
        <ele>187.10722</ele>
        <time>2023-07-11T10:31:33.000Z</time>
      </trkpt>
      <trkpt lat="45.79355" lon="4.99451">
        <ele>187.22739</ele>
        <time>2023-07-11T10:31:34.000Z</time>
      </trkpt>
      <trkpt lat="45.79349" lon="4.99455">
        <ele>187.38274</ele>
        <time>2023-07-11T10:31:35.000Z</time>
      </trkpt>
      <trkpt lat="45.79344" lon="4.9946">
        <ele>187.55199</ele>
        <time>2023-07-11T10:31:36.000Z</time>
      </trkpt>
      <trkpt lat="45.79339" lon="4.99463">
        <ele>187.70871</ele>
        <time>2023-07-11T10:31:37.000Z</time>
      </trkpt>
      <trkpt lat="45.79334" lon="4.99467">
        <ele>187.89204</ele>
        <time>2023-07-11T10:31:38.000Z</time>
      </trkpt>
      <trkpt lat="45.79328" lon="4.99471">
        <ele>188.12814</ele>
        <time>2023-07-11T10:31:39.000Z</time>
      </trkpt>
      <trkpt lat="45.79322" lon="4.99475">
        <ele>188.35748</ele>
        <time>2023-07-11T10:31:40.000Z</time>
      </trkpt>
      <trkpt lat="45.79317" lon="4.9948">
        <ele>188.59068</ele>
        <time>2023-07-11T10:31:41.000Z</time>
      </trkpt>
      <trkpt lat="45.79313" lon="4.99484">
        <ele>188.79446</ele>
        <time>2023-07-11T10:31:42.000Z</time>
      </trkpt>
      <trkpt lat="45.79307" lon="4.99488">
        <ele>188.94614</ele>
        <time>2023-07-11T10:31:43.000Z</time>
      </trkpt>
      <trkpt lat="45.79303" lon="4.99491">
        <ele>189.09816</ele>
        <time>2023-07-11T10:31:44.000Z</time>
      </trkpt>
      <trkpt lat="45.79296" lon="4.99494">
        <ele>189.16266</ele>
        <time>2023-07-11T10:31:45.000Z</time>
      </trkpt>
      <trkpt lat="45.79291" lon="4.99497">
        <ele>189.24789</ele>
        <time>2023-07-11T10:31:46.000Z</time>
      </trkpt>
      <trkpt lat="45.79285" lon="4.995">
        <ele>189.3461</ele>
        <time>2023-07-11T10:31:47.000Z</time>
      </trkpt>
      <trkpt lat="45.7928" lon="4.99503">
        <ele>189.44078</ele>
        <time>2023-07-11T10:31:48.000Z</time>
      </trkpt>
      <trkpt lat="45.79275" lon="4.99507">
        <ele>189.50345</ele>
        <time>2023-07-11T10:31:49.000Z</time>
      </trkpt>
      <trkpt lat="45.7927" lon="4.9951">
        <ele>189.48361</ele>
        <time>2023-07-11T10:31:50.000Z</time>
      </trkpt>
      <trkpt lat="45.79264" lon="4.99515">
        <ele>189.48308</ele>
        <time>2023-07-11T10:31:51.000Z</time>
      </trkpt>
      <trkpt lat="45.7926" lon="4.99519">
        <ele>189.48407</ele>
        <time>2023-07-11T10:31:52.000Z</time>
      </trkpt>
      <trkpt lat="45.79255" lon="4.99524">
        <ele>189.51305</ele>
        <time>2023-07-11T10:31:53.000Z</time>
      </trkpt>
      <trkpt lat="45.79249" lon="4.99529">
        <ele>189.44376</ele>
        <time>2023-07-11T10:31:54.000Z</time>
      </trkpt>
      <trkpt lat="45.79244" lon="4.99534">
        <ele>189.3439</ele>
        <time>2023-07-11T10:31:55.000Z</time>
      </trkpt>
      <trkpt lat="45.79239" lon="4.9954">
        <ele>189.22095</ele>
        <time>2023-07-11T10:31:56.000Z</time>
      </trkpt>
      <trkpt lat="45.79234" lon="4.99545">
        <ele>189.14377</ele>
        <time>2023-07-11T10:31:57.000Z</time>
      </trkpt>
      <trkpt lat="45.79229" lon="4.99551">
        <ele>189.01381</ele>
        <time>2023-07-11T10:31:58.000Z</time>
      </trkpt>
      <trkpt lat="45.79225" lon="4.99557">
        <ele>188.88129</ele>
        <time>2023-07-11T10:31:59.000Z</time>
      </trkpt>
      <trkpt lat="45.7922" lon="4.99562">
        <ele>188.73921</ele>
        <time>2023-07-11T10:32:00.000Z</time>
      </trkpt>
      <trkpt lat="45.79215" lon="4.99567">
        <ele>188.56036</ele>
        <time>2023-07-11T10:32:01.000Z</time>
      </trkpt>
      <trkpt lat="45.79209" lon="4.99572">
        <ele>188.38065</ele>
        <time>2023-07-11T10:32:02.000Z</time>
      </trkpt>
      <trkpt lat="45.79204" lon="4.99574">
        <ele>188.17154</ele>
        <time>2023-07-11T10:32:03.000Z</time>
      </trkpt>
      <trkpt lat="45.79198" lon="4.99579">
        <ele>187.93782</ele>
        <time>2023-07-11T10:32:04.000Z</time>
      </trkpt>
      <trkpt lat="45.79193" lon="4.99584">
        <ele>187.74883</ele>
        <time>2023-07-11T10:32:05.000Z</time>
      </trkpt>
      <trkpt lat="45.79188" lon="4.99587">
        <ele>187.55679</ele>
        <time>2023-07-11T10:32:06.000Z</time>
      </trkpt>
      <trkpt lat="45.79182" lon="4.9959">
        <ele>187.33444</ele>
        <time>2023-07-11T10:32:07.000Z</time>
      </trkpt>
      <trkpt lat="45.79177" lon="4.99595">
        <ele>187.09509</ele>
        <time>2023-07-11T10:32:08.000Z</time>
      </trkpt>
      <trkpt lat="45.79171" lon="4.99598">
        <ele>186.84213</ele>
        <time>2023-07-11T10:32:09.000Z</time>
      </trkpt>
      <trkpt lat="45.79165" lon="4.99602">
        <ele>186.6929</ele>
        <time>2023-07-11T10:32:10.000Z</time>
      </trkpt>
      <trkpt lat="45.7916" lon="4.99605">
        <ele>186.54088</ele>
        <time>2023-07-11T10:32:11.000Z</time>
      </trkpt>
      <trkpt lat="45.79154" lon="4.99608">
        <ele>186.40361</ele>
        <time>2023-07-11T10:32:12.000Z</time>
      </trkpt>
      <trkpt lat="45.79148" lon="4.9961">
        <ele>186.26373</ele>
        <time>2023-07-11T10:32:13.000Z</time>
      </trkpt>
      <trkpt lat="45.79143" lon="4.99611">
        <ele>186.22328</ele>
        <time>2023-07-11T10:32:14.000Z</time>
      </trkpt>
      <trkpt lat="45.79138" lon="4.99615">
        <ele>186.15518</ele>
        <time>2023-07-11T10:32:15.000Z</time>
      </trkpt>
      <trkpt lat="45.79133" lon="4.99619">
        <ele>186.09859</ele>
        <time>2023-07-11T10:32:16.000Z</time>
      </trkpt>
      <trkpt lat="45.79127" lon="4.99625">
        <ele>186.04794</ele>
        <time>2023-07-11T10:32:17.000Z</time>
      </trkpt>
      <trkpt lat="45.79122" lon="4.99631">
        <ele>186.01724</ele>
        <time>2023-07-11T10:32:18.000Z</time>
      </trkpt>
      <trkpt lat="45.79118" lon="4.99637">
        <ele>185.98544</ele>
        <time>2023-07-11T10:32:19.000Z</time>
      </trkpt>
      <trkpt lat="45.79114" lon="4.99644">
        <ele>185.94052</ele>
        <time>2023-07-11T10:32:20.000Z</time>
      </trkpt>
      <trkpt lat="45.7911" lon="4.9965">
        <ele>185.87834</ele>
        <time>2023-07-11T10:32:21.000Z</time>
      </trkpt>
      <trkpt lat="45.79106" lon="4.99658">
        <ele>185.85367</ele>
        <time>2023-07-11T10:32:22.000Z</time>
      </trkpt>
      <trkpt lat="45.79102" lon="4.99666">
        <ele>185.88521</ele>
        <time>2023-07-11T10:32:23.000Z</time>
      </trkpt>
      <trkpt lat="45.79098" lon="4.99673">
        <ele>185.91891</ele>
        <time>2023-07-11T10:32:24.000Z</time>
      </trkpt>
      <trkpt lat="45.79095" lon="4.99682">
        <ele>185.95309</ele>
        <time>2023-07-11T10:32:25.000Z</time>
      </trkpt>
      <trkpt lat="45.79091" lon="4.9969">
        <ele>186.03171</ele>
        <time>2023-07-11T10:32:26.000Z</time>
      </trkpt>
      <trkpt lat="45.79087" lon="4.99697">
        <ele>186.13412</ele>
        <time>2023-07-11T10:32:27.000Z</time>
      </trkpt>
      <trkpt lat="45.79083" lon="4.99705">
        <ele>186.20757</ele>
        <time>2023-07-11T10:32:28.000Z</time>
      </trkpt>
      <trkpt lat="45.7908" lon="4.99713">
        <ele>186.26596</ele>
        <time>2023-07-11T10:32:29.000Z</time>
      </trkpt>
      <trkpt lat="45.79077" lon="4.99722">
        <ele>186.27963</ele>
        <time>2023-07-11T10:32:30.000Z</time>
      </trkpt>
      <trkpt lat="45.79074" lon="4.9973">
        <ele>186.32036</ele>
        <time>2023-07-11T10:32:31.000Z</time>
      </trkpt>
      <trkpt lat="45.79071" lon="4.99734">
        <ele>186.33194</ele>
        <time>2023-07-11T10:32:32.000Z</time>
      </trkpt>
      <trkpt lat="45.79068" lon="4.9974">
        <ele>186.36407</ele>
        <time>2023-07-11T10:32:33.000Z</time>
      </trkpt>
      <trkpt lat="45.79064" lon="4.99747">
        <ele>186.39584</ele>
        <time>2023-07-11T10:32:34.000Z</time>
      </trkpt>
      <trkpt lat="45.7906" lon="4.99754">
        <ele>186.49921</ele>
        <time>2023-07-11T10:32:35.000Z</time>
      </trkpt>
      <trkpt lat="45.79056" lon="4.99759">
        <ele>186.59006</ele>
        <time>2023-07-11T10:32:36.000Z</time>
      </trkpt>
      <trkpt lat="45.7905" lon="4.99761">
        <ele>186.64201</ele>
        <time>2023-07-11T10:32:37.000Z</time>
      </trkpt>
      <trkpt lat="45.79048" lon="4.99768">
        <ele>186.76633</ele>
        <time>2023-07-11T10:32:38.000Z</time>
      </trkpt>
      <trkpt lat="45.79042" lon="4.99776">
        <ele>186.91971</ele>
        <time>2023-07-11T10:32:39.000Z</time>
      </trkpt>
      <trkpt lat="45.79037" lon="4.99781">
        <ele>186.91696</ele>
        <time>2023-07-11T10:32:40.000Z</time>
      </trkpt>
      <trkpt lat="45.79033" lon="4.99787">
        <ele>186.97946</ele>
        <time>2023-07-11T10:32:41.000Z</time>
      </trkpt>
      <trkpt lat="45.79028" lon="4.99793">
        <ele>187.10236</ele>
        <time>2023-07-11T10:32:42.000Z</time>
      </trkpt>
      <trkpt lat="45.79024" lon="4.998">
        <ele>187.23427</ele>
        <time>2023-07-11T10:32:43.000Z</time>
      </trkpt>
      <trkpt lat="45.79019" lon="4.99806">
        <ele>187.35263</ele>
        <time>2023-07-11T10:32:44.000Z</time>
      </trkpt>
      <trkpt lat="45.79015" lon="4.99811">
        <ele>187.47661</ele>
        <time>2023-07-11T10:32:45.000Z</time>
      </trkpt>
      <trkpt lat="45.79011" lon="4.99818">
        <ele>187.56514</ele>
        <time>2023-07-11T10:32:46.000Z</time>
      </trkpt>
      <trkpt lat="45.79008" lon="4.99825">
        <ele>187.659</ele>
        <time>2023-07-11T10:32:47.000Z</time>
      </trkpt>
      <trkpt lat="45.79002" lon="4.99832">
        <ele>187.75595</ele>
        <time>2023-07-11T10:32:48.000Z</time>
      </trkpt>
      <trkpt lat="45.78998" lon="4.99839">
        <ele>187.89359</ele>
        <time>2023-07-11T10:32:49.000Z</time>
      </trkpt>
      <trkpt lat="45.78992" lon="4.99844">
        <ele>188.05125</ele>
        <time>2023-07-11T10:32:50.000Z</time>
      </trkpt>
      <trkpt lat="45.78987" lon="4.9985">
        <ele>188.15883</ele>
        <time>2023-07-11T10:32:51.000Z</time>
      </trkpt>
      <trkpt lat="45.78982" lon="4.99855">
        <ele>188.31374</ele>
        <time>2023-07-11T10:32:52.000Z</time>
      </trkpt>
      <trkpt lat="45.78976" lon="4.99857">
        <ele>188.33975</ele>
        <time>2023-07-11T10:32:53.000Z</time>
      </trkpt>
      <trkpt lat="45.7897" lon="4.99863">
        <ele>188.31438</ele>
        <time>2023-07-11T10:32:54.000Z</time>
      </trkpt>
      <trkpt lat="45.78964" lon="4.99867">
        <ele>188.26814</ele>
        <time>2023-07-11T10:32:55.000Z</time>
      </trkpt>
      <trkpt lat="45.78957" lon="4.99869">
        <ele>188.20778</ele>
        <time>2023-07-11T10:32:56.000Z</time>
      </trkpt>
      <trkpt lat="45.78952" lon="4.99872">
        <ele>188.18416</ele>
        <time>2023-07-11T10:32:57.000Z</time>
      </trkpt>
      <trkpt lat="45.78947" lon="4.99876">
        <ele>188.07408</ele>
        <time>2023-07-11T10:32:58.000Z</time>
      </trkpt>
      <trkpt lat="45.78943" lon="4.99878">
        <ele>187.96451</ele>
        <time>2023-07-11T10:32:59.000Z</time>
      </trkpt>
      <trkpt lat="45.78936" lon="4.99882">
        <ele>188.06067</ele>
        <time>2023-07-11T10:33:00.000Z</time>
      </trkpt>
      <trkpt lat="45.78931" lon="4.99886">
        <ele>188.15257</ele>
        <time>2023-07-11T10:33:01.000Z</time>
      </trkpt>
      <trkpt lat="45.78925" lon="4.9989">
        <ele>188.16965</ele>
        <time>2023-07-11T10:33:02.000Z</time>
      </trkpt>
      <trkpt lat="45.7892" lon="4.99896">
        <ele>188.20528</ele>
        <time>2023-07-11T10:33:03.000Z</time>
      </trkpt>
      <trkpt lat="45.78915" lon="4.99901">
        <ele>188.73013</ele>
        <time>2023-07-11T10:33:04.000Z</time>
      </trkpt>
      <trkpt lat="45.7891" lon="4.99904">
        <ele>189.11986</ele>
        <time>2023-07-11T10:33:05.000Z</time>
      </trkpt>
      <trkpt lat="45.78904" lon="4.99908">
        <ele>189.39426</ele>
        <time>2023-07-11T10:33:06.000Z</time>
      </trkpt>
      <trkpt lat="45.78901" lon="4.9991">
        <ele>189.6752</ele>
        <time>2023-07-11T10:33:07.000Z</time>
      </trkpt>
      <trkpt lat="45.78894" lon="4.99915">
        <ele>189.99591</ele>
        <time>2023-07-11T10:33:08.000Z</time>
      </trkpt>
      <trkpt lat="45.78889" lon="4.9992">
        <ele>190.27444</ele>
        <time>2023-07-11T10:33:09.000Z</time>
      </trkpt>
      <trkpt lat="45.78884" lon="4.99923">
        <ele>190.57458</ele>
        <time>2023-07-11T10:33:10.000Z</time>
      </trkpt>
      <trkpt lat="45.78878" lon="4.99927">
        <ele>190.85753</ele>
        <time>2023-07-11T10:33:11.000Z</time>
      </trkpt>
      <trkpt lat="45.78874" lon="4.99931">
        <ele>191.10703</ele>
        <time>2023-07-11T10:33:12.000Z</time>
      </trkpt>
      <trkpt lat="45.78868" lon="4.99937">
        <ele>191.4256</ele>
        <time>2023-07-11T10:33:13.000Z</time>
      </trkpt>
      <trkpt lat="45.78862" lon="4.99941">
        <ele>191.75937</ele>
        <time>2023-07-11T10:33:14.000Z</time>
      </trkpt>
      <trkpt lat="45.78857" lon="4.99948">
        <ele>192.18497</ele>
        <time>2023-07-11T10:33:15.000Z</time>
      </trkpt>
      <trkpt lat="45.78852" lon="4.99954">
        <ele>192.64063</ele>
        <time>2023-07-11T10:33:16.000Z</time>
      </trkpt>
      <trkpt lat="45.78846" lon="4.99958">
        <ele>193.10385</ele>
        <time>2023-07-11T10:33:17.000Z</time>
      </trkpt>
      <trkpt lat="45.78841" lon="4.99965">
        <ele>193.5573</ele>
        <time>2023-07-11T10:33:18.000Z</time>
      </trkpt>
      <trkpt lat="45.78836" lon="4.99969">
        <ele>193.97362</ele>
        <time>2023-07-11T10:33:19.000Z</time>
      </trkpt>
      <trkpt lat="45.78831" lon="4.99973">
        <ele>194.40587</ele>
        <time>2023-07-11T10:33:20.000Z</time>
      </trkpt>
      <trkpt lat="45.78826" lon="4.9998">
        <ele>194.84033</ele>
        <time>2023-07-11T10:33:21.000Z</time>
      </trkpt>
      <trkpt lat="45.78821" lon="4.99987">
        <ele>195.37944</ele>
        <time>2023-07-11T10:33:22.000Z</time>
      </trkpt>
      <trkpt lat="45.78816" lon="4.99995">
        <ele>195.8409</ele>
        <time>2023-07-11T10:33:23.000Z</time>
      </trkpt>
      <trkpt lat="45.78811" lon="5.00003">
        <ele>195.77991</ele>
        <time>2023-07-11T10:33:24.000Z</time>
      </trkpt>
      <trkpt lat="45.78806" lon="5.00009">
        <ele>195.87962</ele>
        <time>2023-07-11T10:33:25.000Z</time>
      </trkpt>
      <trkpt lat="45.78801" lon="5.00015">
        <ele>196.03702</ele>
        <time>2023-07-11T10:33:26.000Z</time>
      </trkpt>
      <trkpt lat="45.78795" lon="5.00019">
        <ele>196.08975</ele>
        <time>2023-07-11T10:33:27.000Z</time>
      </trkpt>
      <trkpt lat="45.78791" lon="5.00024">
        <ele>196.15228</ele>
        <time>2023-07-11T10:33:28.000Z</time>
      </trkpt>
      <trkpt lat="45.78787" lon="5.00029">
        <ele>196.29335</ele>
        <time>2023-07-11T10:33:29.000Z</time>
      </trkpt>
      <trkpt lat="45.78782" lon="5.00035">
        <ele>196.37154</ele>
        <time>2023-07-11T10:33:30.000Z</time>
      </trkpt>
      <trkpt lat="45.78779" lon="5.00043">
        <ele>196.53795</ele>
        <time>2023-07-11T10:33:31.000Z</time>
      </trkpt>
      <trkpt lat="45.78775" lon="5.00053">
        <ele>196.70241</ele>
        <time>2023-07-11T10:33:32.000Z</time>
      </trkpt>
      <trkpt lat="45.78771" lon="5.0006">
        <ele>196.87497</ele>
        <time>2023-07-11T10:33:33.000Z</time>
      </trkpt>
      <trkpt lat="45.78767" lon="5.00067">
        <ele>197.04294</ele>
        <time>2023-07-11T10:33:34.000Z</time>
      </trkpt>
      <trkpt lat="45.78763" lon="5.00074">
        <ele>196.83571</ele>
        <time>2023-07-11T10:33:35.000Z</time>
      </trkpt>
      <trkpt lat="45.78759" lon="5.00082">
        <ele>196.64209</ele>
        <time>2023-07-11T10:33:36.000Z</time>
      </trkpt>
      <trkpt lat="45.78754" lon="5.00089">
        <ele>196.4158</ele>
        <time>2023-07-11T10:33:37.000Z</time>
      </trkpt>
      <trkpt lat="45.78751" lon="5.00098">
        <ele>196.24864</ele>
        <time>2023-07-11T10:33:38.000Z</time>
      </trkpt>
      <trkpt lat="45.78746" lon="5.00106">
        <ele>196.13799</ele>
        <time>2023-07-11T10:33:39.000Z</time>
      </trkpt>
      <trkpt lat="45.78742" lon="5.00114">
        <ele>196.03876</ele>
        <time>2023-07-11T10:33:40.000Z</time>
      </trkpt>
      <trkpt lat="45.78739" lon="5.0012">
        <ele>195.94443</ele>
        <time>2023-07-11T10:33:41.000Z</time>
      </trkpt>
      <trkpt lat="45.78736" lon="5.00128">
        <ele>195.76178</ele>
        <time>2023-07-11T10:33:42.000Z</time>
      </trkpt>
      <trkpt lat="45.78731" lon="5.00138">
        <ele>195.6006</ele>
        <time>2023-07-11T10:33:43.000Z</time>
      </trkpt>
      <trkpt lat="45.78728" lon="5.00144">
        <ele>195.42819</ele>
        <time>2023-07-11T10:33:44.000Z</time>
      </trkpt>
      <trkpt lat="45.78724" lon="5.00153">
        <ele>195.20798</ele>
        <time>2023-07-11T10:33:45.000Z</time>
      </trkpt>
      <trkpt lat="45.78721" lon="5.0016">
        <ele>195.00522</ele>
        <time>2023-07-11T10:33:46.000Z</time>
      </trkpt>
      <trkpt lat="45.78718" lon="5.00169">
        <ele>194.87003</ele>
        <time>2023-07-11T10:33:47.000Z</time>
      </trkpt>
      <trkpt lat="45.78716" lon="5.00176">
        <ele>194.81174</ele>
        <time>2023-07-11T10:33:48.000Z</time>
      </trkpt>
      <trkpt lat="45.78712" lon="5.00185">
        <ele>194.68527</ele>
        <time>2023-07-11T10:33:49.000Z</time>
      </trkpt>
      <trkpt lat="45.78709" lon="5.00193">
        <ele>194.53641</ele>
        <time>2023-07-11T10:33:50.000Z</time>
      </trkpt>
      <trkpt lat="45.78705" lon="5.002">
        <ele>194.39197</ele>
        <time>2023-07-11T10:33:51.000Z</time>
      </trkpt>
      <trkpt lat="45.78702" lon="5.00208">
        <ele>194.02711</ele>
        <time>2023-07-11T10:33:52.000Z</time>
      </trkpt>
      <trkpt lat="45.78698" lon="5.00214">
        <ele>193.66309</ele>
        <time>2023-07-11T10:33:53.000Z</time>
      </trkpt>
      <trkpt lat="45.78695" lon="5.00221">
        <ele>193.28055</ele>
        <time>2023-07-11T10:33:54.000Z</time>
      </trkpt>
      <trkpt lat="45.78692" lon="5.00229">
        <ele>193.23793</ele>
        <time>2023-07-11T10:33:55.000Z</time>
      </trkpt>
      <trkpt lat="45.78691" lon="5.00232">
        <ele>193.12997</ele>
        <time>2023-07-11T10:33:56.000Z</time>
      </trkpt>
      <trkpt lat="45.78689" lon="5.0024">
        <ele>193.03598</ele>
        <time>2023-07-11T10:33:57.000Z</time>
      </trkpt>
      <trkpt lat="45.78687" lon="5.00249">
        <ele>192.91068</ele>
        <time>2023-07-11T10:33:58.000Z</time>
      </trkpt>
      <trkpt lat="45.78683" lon="5.00256">
        <ele>192.81056</ele>
        <time>2023-07-11T10:33:59.000Z</time>
      </trkpt>
      <trkpt lat="45.78681" lon="5.00265">
        <ele>192.67807</ele>
        <time>2023-07-11T10:34:00.000Z</time>
      </trkpt>
      <trkpt lat="45.78678" lon="5.00275">
        <ele>192.4946</ele>
        <time>2023-07-11T10:34:01.000Z</time>
      </trkpt>
      <trkpt lat="45.78675" lon="5.00282">
        <ele>192.30113</ele>
        <time>2023-07-11T10:34:02.000Z</time>
      </trkpt>
      <trkpt lat="45.78671" lon="5.00291">
        <ele>192.09225</ele>
        <time>2023-07-11T10:34:03.000Z</time>
      </trkpt>
      <trkpt lat="45.78669" lon="5.00298">
        <ele>191.96967</ele>
        <time>2023-07-11T10:34:04.000Z</time>
      </trkpt>
      <trkpt lat="45.78666" lon="5.00305">
        <ele>191.92693</ele>
        <time>2023-07-11T10:34:05.000Z</time>
      </trkpt>
      <trkpt lat="45.78663" lon="5.00314">
        <ele>191.90082</ele>
        <time>2023-07-11T10:34:06.000Z</time>
      </trkpt>
      <trkpt lat="45.7866" lon="5.00323">
        <ele>191.88673</ele>
        <time>2023-07-11T10:34:07.000Z</time>
      </trkpt>
      <trkpt lat="45.78657" lon="5.00331">
        <ele>191.78275</ele>
        <time>2023-07-11T10:34:08.000Z</time>
      </trkpt>
      <trkpt lat="45.78653" lon="5.0034">
        <ele>191.73193</ele>
        <time>2023-07-11T10:34:09.000Z</time>
      </trkpt>
      <trkpt lat="45.78651" lon="5.00348">
        <ele>191.73985</ele>
        <time>2023-07-11T10:34:10.000Z</time>
      </trkpt>
      <trkpt lat="45.78649" lon="5.00356">
        <ele>191.67751</ele>
        <time>2023-07-11T10:34:11.000Z</time>
      </trkpt>
      <trkpt lat="45.78648" lon="5.00364">
        <ele>191.81744</ele>
        <time>2023-07-11T10:34:12.000Z</time>
      </trkpt>
      <trkpt lat="45.78647" lon="5.00372">
        <ele>192.08846</ele>
        <time>2023-07-11T10:34:13.000Z</time>
      </trkpt>
      <trkpt lat="45.78644" lon="5.00379">
        <ele>192.41505</ele>
        <time>2023-07-11T10:34:14.000Z</time>
      </trkpt>
      <trkpt lat="45.78642" lon="5.00388">
        <ele>192.50208</ele>
        <time>2023-07-11T10:34:15.000Z</time>
      </trkpt>
      <trkpt lat="45.7864" lon="5.00396">
        <ele>192.6803</ele>
        <time>2023-07-11T10:34:16.000Z</time>
      </trkpt>
      <trkpt lat="45.78637" lon="5.00402">
        <ele>192.77646</ele>
        <time>2023-07-11T10:34:17.000Z</time>
      </trkpt>
      <trkpt lat="45.78634" lon="5.00412">
        <ele>192.94121</ele>
        <time>2023-07-11T10:34:18.000Z</time>
      </trkpt>
      <trkpt lat="45.78632" lon="5.0042">
        <ele>192.99586</ele>
        <time>2023-07-11T10:34:19.000Z</time>
      </trkpt>
      <trkpt lat="45.7863" lon="5.00429">
        <ele>193.05487</ele>
        <time>2023-07-11T10:34:20.000Z</time>
      </trkpt>
      <trkpt lat="45.78628" lon="5.00439">
        <ele>193.10735</ele>
        <time>2023-07-11T10:34:21.000Z</time>
      </trkpt>
      <trkpt lat="45.78627" lon="5.00449">
        <ele>193.14072</ele>
        <time>2023-07-11T10:34:22.000Z</time>
      </trkpt>
      <trkpt lat="45.78625" lon="5.00457">
        <ele>193.31946</ele>
        <time>2023-07-11T10:34:23.000Z</time>
      </trkpt>
      <trkpt lat="45.78623" lon="5.00467">
        <ele>193.48911</ele>
        <time>2023-07-11T10:34:24.000Z</time>
      </trkpt>
      <trkpt lat="45.7862" lon="5.00475">
        <ele>193.57774</ele>
        <time>2023-07-11T10:34:25.000Z</time>
      </trkpt>
      <trkpt lat="45.78619" lon="5.00484">
        <ele>193.62645</ele>
        <time>2023-07-11T10:34:26.000Z</time>
      </trkpt>
      <trkpt lat="45.78619" lon="5.00493">
        <ele>193.72812</ele>
        <time>2023-07-11T10:34:27.000Z</time>
      </trkpt>
      <trkpt lat="45.78617" lon="5.00503">
        <ele>193.87585</ele>
        <time>2023-07-11T10:34:28.000Z</time>
      </trkpt>
      <trkpt lat="45.78615" lon="5.00511">
        <ele>193.76041</ele>
        <time>2023-07-11T10:34:29.000Z</time>
      </trkpt>
      <trkpt lat="45.78611" lon="5.00515">
        <ele>193.58694</ele>
        <time>2023-07-11T10:34:30.000Z</time>
      </trkpt>
      <trkpt lat="45.7861" lon="5.00525">
        <ele>193.37848</ele>
        <time>2023-07-11T10:34:31.000Z</time>
      </trkpt>
      <trkpt lat="45.78609" lon="5.00534">
        <ele>193.1678</ele>
        <time>2023-07-11T10:34:32.000Z</time>
      </trkpt>
      <trkpt lat="45.78608" lon="5.00542">
        <ele>192.82716</ele>
        <time>2023-07-11T10:34:33.000Z</time>
      </trkpt>
      <trkpt lat="45.78606" lon="5.00551">
        <ele>192.46046</ele>
        <time>2023-07-11T10:34:34.000Z</time>
      </trkpt>
      <trkpt lat="45.78604" lon="5.00558">
        <ele>192.29503</ele>
        <time>2023-07-11T10:34:35.000Z</time>
      </trkpt>
      <trkpt lat="45.78603" lon="5.00566">
        <ele>192.09763</ele>
        <time>2023-07-11T10:34:36.000Z</time>
      </trkpt>
      <trkpt lat="45.78603" lon="5.00575">
        <ele>192.02963</ele>
        <time>2023-07-11T10:34:37.000Z</time>
      </trkpt>
      <trkpt lat="45.78602" lon="5.00583">
        <ele>191.87845</ele>
        <time>2023-07-11T10:34:38.000Z</time>
      </trkpt>
      <trkpt lat="45.78601" lon="5.00592">
        <ele>191.80383</ele>
        <time>2023-07-11T10:34:39.000Z</time>
      </trkpt>
      <trkpt lat="45.78601" lon="5.00599">
        <ele>191.75951</ele>
        <time>2023-07-11T10:34:40.000Z</time>
      </trkpt>
      <trkpt lat="45.78597" lon="5.00606">
        <ele>191.7847</ele>
        <time>2023-07-11T10:34:41.000Z</time>
      </trkpt>
      <trkpt lat="45.78597" lon="5.00616">
        <ele>191.80336</ele>
        <time>2023-07-11T10:34:42.000Z</time>
      </trkpt>
      <trkpt lat="45.78596" lon="5.00624">
        <ele>191.77805</ele>
        <time>2023-07-11T10:34:43.000Z</time>
      </trkpt>
      <trkpt lat="45.78595" lon="5.00634">
        <ele>191.685</ele>
        <time>2023-07-11T10:34:44.000Z</time>
      </trkpt>
      <trkpt lat="45.78595" lon="5.00646">
        <ele>191.61983</ele>
        <time>2023-07-11T10:34:45.000Z</time>
      </trkpt>
      <trkpt lat="45.78593" lon="5.00656">
        <ele>191.57907</ele>
        <time>2023-07-11T10:34:46.000Z</time>
      </trkpt>
      <trkpt lat="45.7859" lon="5.00664">
        <ele>191.40787</ele>
        <time>2023-07-11T10:34:47.000Z</time>
      </trkpt>
      <trkpt lat="45.7859" lon="5.00674">
        <ele>191.34259</ele>
        <time>2023-07-11T10:34:48.000Z</time>
      </trkpt>
      <trkpt lat="45.78588" lon="5.00682">
        <ele>191.45728</ele>
        <time>2023-07-11T10:34:49.000Z</time>
      </trkpt>
      <trkpt lat="45.78587" lon="5.00691">
        <ele>191.55478</ele>
        <time>2023-07-11T10:34:50.000Z</time>
      </trkpt>
      <trkpt lat="45.78586" lon="5.007">
        <ele>191.66991</ele>
        <time>2023-07-11T10:34:51.000Z</time>
      </trkpt>
      <trkpt lat="45.78586" lon="5.00708">
        <ele>191.85403</ele>
        <time>2023-07-11T10:34:52.000Z</time>
      </trkpt>
      <trkpt lat="45.78585" lon="5.00718">
        <ele>191.83969</ele>
        <time>2023-07-11T10:34:53.000Z</time>
      </trkpt>
      <trkpt lat="45.78584" lon="5.00727">
        <ele>191.89059</ele>
        <time>2023-07-11T10:34:54.000Z</time>
      </trkpt>
      <trkpt lat="45.78584" lon="5.00737">
        <ele>192.03427</ele>
        <time>2023-07-11T10:34:55.000Z</time>
      </trkpt>
      <trkpt lat="45.78584" lon="5.00747">
        <ele>192.11107</ele>
        <time>2023-07-11T10:34:56.000Z</time>
      </trkpt>
      <trkpt lat="45.78583" lon="5.00756">
        <ele>192.16461</ele>
        <time>2023-07-11T10:34:57.000Z</time>
      </trkpt>
      <trkpt lat="45.78584" lon="5.00765">
        <ele>192.1967</ele>
        <time>2023-07-11T10:34:58.000Z</time>
      </trkpt>
      <trkpt lat="45.78585" lon="5.00773">
        <ele>192.19785</ele>
        <time>2023-07-11T10:34:59.000Z</time>
      </trkpt>
      <trkpt lat="45.78585" lon="5.00781">
        <ele>192.17006</ele>
        <time>2023-07-11T10:35:00.000Z</time>
      </trkpt>
      <trkpt lat="45.78584" lon="5.00792">
        <ele>192.05777</ele>
        <time>2023-07-11T10:35:01.000Z</time>
      </trkpt>
      <trkpt lat="45.78583" lon="5.00801">
        <ele>191.93912</ele>
        <time>2023-07-11T10:35:02.000Z</time>
      </trkpt>
      <trkpt lat="45.78584" lon="5.00811">
        <ele>191.74861</ele>
        <time>2023-07-11T10:35:03.000Z</time>
      </trkpt>
      <trkpt lat="45.78586" lon="5.00821">
        <ele>191.62453</ele>
        <time>2023-07-11T10:35:04.000Z</time>
      </trkpt>
      <trkpt lat="45.78586" lon="5.0083">
        <ele>191.51915</ele>
        <time>2023-07-11T10:35:05.000Z</time>
      </trkpt>
      <trkpt lat="45.78586" lon="5.00839">
        <ele>191.42648</ele>
        <time>2023-07-11T10:35:06.000Z</time>
      </trkpt>
      <trkpt lat="45.78586" lon="5.00848">
        <ele>191.43552</ele>
        <time>2023-07-11T10:35:07.000Z</time>
      </trkpt>
      <trkpt lat="45.78585" lon="5.00858">
        <ele>191.28133</ele>
        <time>2023-07-11T10:35:08.000Z</time>
      </trkpt>
      <trkpt lat="45.78586" lon="5.00867">
        <ele>191.1687</ele>
        <time>2023-07-11T10:35:09.000Z</time>
      </trkpt>
      <trkpt lat="45.78587" lon="5.00875">
        <ele>191.07135</ele>
        <time>2023-07-11T10:35:10.000Z</time>
      </trkpt>
      <trkpt lat="45.78588" lon="5.00884">
        <ele>191.04575</ele>
        <time>2023-07-11T10:35:11.000Z</time>
      </trkpt>
      <trkpt lat="45.78588" lon="5.00893">
        <ele>190.99452</ele>
        <time>2023-07-11T10:35:12.000Z</time>
      </trkpt>
      <trkpt lat="45.78589" lon="5.009">
        <ele>191.13515</ele>
        <time>2023-07-11T10:35:13.000Z</time>
      </trkpt>
      <trkpt lat="45.7859" lon="5.00911">
        <ele>191.17587</ele>
        <time>2023-07-11T10:35:14.000Z</time>
      </trkpt>
      <trkpt lat="45.78592" lon="5.0092">
        <ele>191.10989</ele>
        <time>2023-07-11T10:35:15.000Z</time>
      </trkpt>
      <trkpt lat="45.78593" lon="5.00929">
        <ele>191.09758</ele>
        <time>2023-07-11T10:35:16.000Z</time>
      </trkpt>
      <trkpt lat="45.78594" lon="5.00938">
        <ele>191.06979</ele>
        <time>2023-07-11T10:35:17.000Z</time>
      </trkpt>
      <trkpt lat="45.78594" lon="5.00946">
        <ele>191.0475</ele>
        <time>2023-07-11T10:35:18.000Z</time>
      </trkpt>
      <trkpt lat="45.78596" lon="5.00955">
        <ele>191.01031</ele>
        <time>2023-07-11T10:35:19.000Z</time>
      </trkpt>
      <trkpt lat="45.78597" lon="5.00964">
        <ele>190.93985</ele>
        <time>2023-07-11T10:35:20.000Z</time>
      </trkpt>
      <trkpt lat="45.78598" lon="5.00974">
        <ele>190.88638</ele>
        <time>2023-07-11T10:35:21.000Z</time>
      </trkpt>
      <trkpt lat="45.78599" lon="5.00982">
        <ele>190.84384</ele>
        <time>2023-07-11T10:35:22.000Z</time>
      </trkpt>
      <trkpt lat="45.786" lon="5.00991">
        <ele>190.77097</ele>
        <time>2023-07-11T10:35:23.000Z</time>
      </trkpt>
      <trkpt lat="45.78603" lon="5.00999">
        <ele>190.66585</ele>
        <time>2023-07-11T10:35:24.000Z</time>
      </trkpt>
      <trkpt lat="45.78605" lon="5.01008">
        <ele>190.55331</ele>
        <time>2023-07-11T10:35:25.000Z</time>
      </trkpt>
      <trkpt lat="45.78606" lon="5.01017">
        <ele>190.43779</ele>
        <time>2023-07-11T10:35:26.000Z</time>
      </trkpt>
      <trkpt lat="45.78609" lon="5.01025">
        <ele>190.33112</ele>
        <time>2023-07-11T10:35:27.000Z</time>
      </trkpt>
      <trkpt lat="45.78609" lon="5.01033">
        <ele>190.25558</ele>
        <time>2023-07-11T10:35:28.000Z</time>
      </trkpt>
      <trkpt lat="45.78611" lon="5.01041">
        <ele>190.21701</ele>
        <time>2023-07-11T10:35:29.000Z</time>
      </trkpt>
      <trkpt lat="45.78613" lon="5.01047">
        <ele>190.29497</ele>
        <time>2023-07-11T10:35:30.000Z</time>
      </trkpt>
      <trkpt lat="45.78616" lon="5.01053">
        <ele>190.26932</ele>
        <time>2023-07-11T10:35:31.000Z</time>
      </trkpt>
      <trkpt lat="45.78619" lon="5.01058">
        <ele>190.25131</ele>
        <time>2023-07-11T10:35:32.000Z</time>
      </trkpt>
      <trkpt lat="45.78621" lon="5.01063">
        <ele>190.26309</ele>
        <time>2023-07-11T10:35:33.000Z</time>
      </trkpt>
      <trkpt lat="45.78624" lon="5.01069">
        <ele>190.31334</ele>
        <time>2023-07-11T10:35:34.000Z</time>
      </trkpt>
      <trkpt lat="45.78627" lon="5.01073">
        <ele>190.32956</ele>
        <time>2023-07-11T10:35:35.000Z</time>
      </trkpt>
      <trkpt lat="45.7863" lon="5.01077">
        <ele>190.35806</ele>
        <time>2023-07-11T10:35:36.000Z</time>
      </trkpt>
      <trkpt lat="45.78633" lon="5.0108">
        <ele>190.39536</ele>
        <time>2023-07-11T10:35:37.000Z</time>
      </trkpt>
      <trkpt lat="45.78636" lon="5.01084">
        <ele>190.47522</ele>
        <time>2023-07-11T10:35:38.000Z</time>
      </trkpt>
      <trkpt lat="45.78637" lon="5.01088">
        <ele>190.561</ele>
        <time>2023-07-11T10:35:39.000Z</time>
      </trkpt>
      <trkpt lat="45.78638" lon="5.01092">
        <ele>190.68156</ele>
        <time>2023-07-11T10:35:40.000Z</time>
      </trkpt>
      <trkpt lat="45.7864" lon="5.01095">
        <ele>190.82262</ele>
        <time>2023-07-11T10:35:41.000Z</time>
      </trkpt>
      <trkpt lat="45.78641" lon="5.01098">
        <ele>190.99208</ele>
        <time>2023-07-11T10:35:42.000Z</time>
      </trkpt>
      <trkpt lat="45.78642" lon="5.011">
        <ele>191.0007</ele>
        <time>2023-07-11T10:38:51.000Z</time>
      </trkpt>
      <trkpt lat="45.78642" lon="5.01104">
        <ele>191.2189</ele>
        <time>2023-07-11T10:39:01.000Z</time>
      </trkpt>
      <trkpt lat="45.7864" lon="5.01108">
        <ele>191.42218</ele>
        <time>2023-07-11T10:39:03.000Z</time>
      </trkpt>
      <trkpt lat="45.78637" lon="5.01108">
        <ele>191.63351</ele>
        <time>2023-07-11T10:39:04.000Z</time>
      </trkpt>
      <trkpt lat="45.78634" lon="5.01107">
        <ele>191.81516</ele>
        <time>2023-07-11T10:39:05.000Z</time>
      </trkpt>
      <trkpt lat="45.7863" lon="5.01106">
        <ele>191.98581</ele>
        <time>2023-07-11T10:39:06.000Z</time>
      </trkpt>
      <trkpt lat="45.78627" lon="5.01106">
        <ele>192.14163</ele>
        <time>2023-07-11T10:39:07.000Z</time>
      </trkpt>
      <trkpt lat="45.78622" lon="5.01105">
        <ele>192.20836</ele>
        <time>2023-07-11T10:39:08.000Z</time>
      </trkpt>
      <trkpt lat="45.78617" lon="5.01105">
        <ele>192.3494</ele>
        <time>2023-07-11T10:39:09.000Z</time>
      </trkpt>
      <trkpt lat="45.78614" lon="5.01104">
        <ele>192.46097</ele>
        <time>2023-07-11T10:39:10.000Z</time>
      </trkpt>
      <trkpt lat="45.7861" lon="5.01103">
        <ele>192.5867</ele>
        <time>2023-07-11T10:39:11.000Z</time>
      </trkpt>
      <trkpt lat="45.78607" lon="5.01101">
        <ele>192.69443</ele>
        <time>2023-07-11T10:39:12.000Z</time>
      </trkpt>
      <trkpt lat="45.78603" lon="5.01098">
        <ele>192.87038</ele>
        <time>2023-07-11T10:39:13.000Z</time>
      </trkpt>
      <trkpt lat="45.786" lon="5.01096">
        <ele>193.03819</ele>
        <time>2023-07-11T10:39:14.000Z</time>
      </trkpt>
      <trkpt lat="45.78597" lon="5.01093">
        <ele>193.16812</ele>
        <time>2023-07-11T10:39:15.000Z</time>
      </trkpt>
      <trkpt lat="45.78595" lon="5.0109">
        <ele>193.28473</ele>
        <time>2023-07-11T10:39:16.000Z</time>
      </trkpt>
      <trkpt lat="45.78592" lon="5.01087">
        <ele>193.41647</ele>
        <time>2023-07-11T10:39:17.000Z</time>
      </trkpt>
      <trkpt lat="45.78589" lon="5.01081">
        <ele>193.52365</ele>
        <time>2023-07-11T10:39:18.000Z</time>
      </trkpt>
      <trkpt lat="45.78585" lon="5.01079">
        <ele>193.67642</ele>
        <time>2023-07-11T10:39:19.000Z</time>
      </trkpt>
      <trkpt lat="45.78581" lon="5.01078">
        <ele>193.83496</ele>
        <time>2023-07-11T10:39:20.000Z</time>
      </trkpt>
      <trkpt lat="45.78577" lon="5.01076">
        <ele>194.23019</ele>
        <time>2023-07-11T10:39:21.000Z</time>
      </trkpt>
      <trkpt lat="45.78573" lon="5.01074">
        <ele>194.41397</ele>
        <time>2023-07-11T10:39:22.000Z</time>
      </trkpt>
      <trkpt lat="45.7857" lon="5.01072">
        <ele>194.59747</ele>
        <time>2023-07-11T10:39:23.000Z</time>
      </trkpt>
      <trkpt lat="45.78562" lon="5.01069">
        <ele>194.78925</ele>
        <time>2023-07-11T10:39:24.000Z</time>
      </trkpt>
      <trkpt lat="45.78558" lon="5.01067">
        <ele>194.99568</ele>
        <time>2023-07-11T10:39:25.000Z</time>
      </trkpt>
      <trkpt lat="45.78554" lon="5.01064">
        <ele>195.16811</ele>
        <time>2023-07-11T10:39:26.000Z</time>
      </trkpt>
      <trkpt lat="45.78549" lon="5.01063">
        <ele>195.33376</ele>
        <time>2023-07-11T10:39:27.000Z</time>
      </trkpt>
      <trkpt lat="45.78544" lon="5.01061">
        <ele>195.58478</ele>
        <time>2023-07-11T10:39:28.000Z</time>
      </trkpt>
      <trkpt lat="45.78539" lon="5.01059">
        <ele>195.80875</ele>
        <time>2023-07-11T10:39:29.000Z</time>
      </trkpt>
      <trkpt lat="45.78534" lon="5.01056">
        <ele>196.01505</ele>
        <time>2023-07-11T10:39:30.000Z</time>
      </trkpt>
      <trkpt lat="45.78529" lon="5.01054">
        <ele>196.18407</ele>
        <time>2023-07-11T10:39:31.000Z</time>
      </trkpt>
      <trkpt lat="45.78523" lon="5.01051">
        <ele>196.35393</ele>
        <time>2023-07-11T10:39:32.000Z</time>
      </trkpt>
      <trkpt lat="45.78518" lon="5.01048">
        <ele>196.45041</ele>
        <time>2023-07-11T10:39:33.000Z</time>
      </trkpt>
      <trkpt lat="45.78512" lon="5.01045">
        <ele>196.57071</ele>
        <time>2023-07-11T10:39:34.000Z</time>
      </trkpt>
      <trkpt lat="45.78508" lon="5.01042">
        <ele>196.58835</ele>
        <time>2023-07-11T10:39:35.000Z</time>
      </trkpt>
      <trkpt lat="45.78503" lon="5.01039">
        <ele>196.6458</ele>
        <time>2023-07-11T10:39:36.000Z</time>
      </trkpt>
      <trkpt lat="45.78498" lon="5.01035">
        <ele>196.65965</ele>
        <time>2023-07-11T10:39:37.000Z</time>
      </trkpt>
      <trkpt lat="45.78492" lon="5.01032">
        <ele>196.67464</ele>
        <time>2023-07-11T10:39:38.000Z</time>
      </trkpt>
      <trkpt lat="45.78487" lon="5.01028">
        <ele>196.62967</ele>
        <time>2023-07-11T10:39:39.000Z</time>
      </trkpt>
      <trkpt lat="45.78481" lon="5.01026">
        <ele>196.58633</ele>
        <time>2023-07-11T10:39:40.000Z</time>
      </trkpt>
      <trkpt lat="45.78475" lon="5.01023">
        <ele>196.50137</ele>
        <time>2023-07-11T10:39:41.000Z</time>
      </trkpt>
      <trkpt lat="45.7847" lon="5.0102">
        <ele>196.43576</ele>
        <time>2023-07-11T10:39:42.000Z</time>
      </trkpt>
      <trkpt lat="45.78464" lon="5.01017">
        <ele>196.382</ele>
        <time>2023-07-11T10:39:43.000Z</time>
      </trkpt>
      <trkpt lat="45.78458" lon="5.01014">
        <ele>196.3391</ele>
        <time>2023-07-11T10:39:44.000Z</time>
      </trkpt>
      <trkpt lat="45.78453" lon="5.01011">
        <ele>196.27733</ele>
        <time>2023-07-11T10:39:45.000Z</time>
      </trkpt>
      <trkpt lat="45.78447" lon="5.01009">
        <ele>196.24083</ele>
        <time>2023-07-11T10:39:46.000Z</time>
      </trkpt>
      <trkpt lat="45.78441" lon="5.01006">
        <ele>196.20859</ele>
        <time>2023-07-11T10:39:47.000Z</time>
      </trkpt>
      <trkpt lat="45.78435" lon="5.01004">
        <ele>196.1006</ele>
        <time>2023-07-11T10:39:48.000Z</time>
      </trkpt>
      <trkpt lat="45.78429" lon="5.01">
        <ele>196.00403</ele>
        <time>2023-07-11T10:39:49.000Z</time>
      </trkpt>
      <trkpt lat="45.78424" lon="5.00998">
        <ele>195.93442</ele>
        <time>2023-07-11T10:39:50.000Z</time>
      </trkpt>
      <trkpt lat="45.78418" lon="5.00994">
        <ele>195.88632</ele>
        <time>2023-07-11T10:39:51.000Z</time>
      </trkpt>
      <trkpt lat="45.78412" lon="5.00991">
        <ele>195.83638</ele>
        <time>2023-07-11T10:39:52.000Z</time>
      </trkpt>
      <trkpt lat="45.78407" lon="5.00989">
        <ele>195.83528</ele>
        <time>2023-07-11T10:39:53.000Z</time>
      </trkpt>
      <trkpt lat="45.78401" lon="5.00985">
        <ele>195.79883</ele>
        <time>2023-07-11T10:39:54.000Z</time>
      </trkpt>
      <trkpt lat="45.78396" lon="5.00982">
        <ele>195.90022</ele>
        <time>2023-07-11T10:39:55.000Z</time>
      </trkpt>
      <trkpt lat="45.7839" lon="5.00979">
        <ele>195.96489</ele>
        <time>2023-07-11T10:39:56.000Z</time>
      </trkpt>
      <trkpt lat="45.78384" lon="5.00976">
        <ele>196.05304</ele>
        <time>2023-07-11T10:39:57.000Z</time>
      </trkpt>
      <trkpt lat="45.78379" lon="5.00972">
        <ele>196.20285</ele>
        <time>2023-07-11T10:39:58.000Z</time>
      </trkpt>
      <trkpt lat="45.78373" lon="5.00969">
        <ele>196.36226</ele>
        <time>2023-07-11T10:39:59.000Z</time>
      </trkpt>
      <trkpt lat="45.78368" lon="5.00965">
        <ele>196.50896</ele>
        <time>2023-07-11T10:40:00.000Z</time>
      </trkpt>
      <trkpt lat="45.78363" lon="5.00962">
        <ele>196.65463</ele>
        <time>2023-07-11T10:40:01.000Z</time>
      </trkpt>
      <trkpt lat="45.78357" lon="5.00959">
        <ele>196.85361</ele>
        <time>2023-07-11T10:40:02.000Z</time>
      </trkpt>
      <trkpt lat="45.78352" lon="5.00956">
        <ele>196.90582</ele>
        <time>2023-07-11T10:40:03.000Z</time>
      </trkpt>
      <trkpt lat="45.78346" lon="5.00952">
        <ele>196.97635</ele>
        <time>2023-07-11T10:40:04.000Z</time>
      </trkpt>
      <trkpt lat="45.78341" lon="5.00949">
        <ele>197.05687</ele>
        <time>2023-07-11T10:40:05.000Z</time>
      </trkpt>
      <trkpt lat="45.78335" lon="5.00947">
        <ele>197.11943</ele>
        <time>2023-07-11T10:40:06.000Z</time>
      </trkpt>
      <trkpt lat="45.78329" lon="5.00943">
        <ele>197.16013</ele>
        <time>2023-07-11T10:40:07.000Z</time>
      </trkpt>
      <trkpt lat="45.78324" lon="5.00939">
        <ele>197.18398</ele>
        <time>2023-07-11T10:40:08.000Z</time>
      </trkpt>
      <trkpt lat="45.78319" lon="5.00936">
        <ele>197.21523</ele>
        <time>2023-07-11T10:40:09.000Z</time>
      </trkpt>
      <trkpt lat="45.78314" lon="5.00934">
        <ele>197.24117</ele>
        <time>2023-07-11T10:40:10.000Z</time>
      </trkpt>
      <trkpt lat="45.78309" lon="5.00932">
        <ele>197.27219</ele>
        <time>2023-07-11T10:40:11.000Z</time>
      </trkpt>
      <trkpt lat="45.78304" lon="5.0093">
        <ele>197.30209</ele>
        <time>2023-07-11T10:40:12.000Z</time>
      </trkpt>
      <trkpt lat="45.783" lon="5.00927">
        <ele>197.34781</ele>
        <time>2023-07-11T10:40:13.000Z</time>
      </trkpt>
      <trkpt lat="45.78296" lon="5.00926">
        <ele>197.39966</ele>
        <time>2023-07-11T10:40:14.000Z</time>
      </trkpt>
      <trkpt lat="45.78292" lon="5.00924">
        <ele>197.44504</ele>
        <time>2023-07-11T10:40:15.000Z</time>
      </trkpt>
      <trkpt lat="45.78287" lon="5.00922">
        <ele>197.4817</ele>
        <time>2023-07-11T10:40:16.000Z</time>
      </trkpt>
      <trkpt lat="45.78283" lon="5.0092">
        <ele>197.53711</ele>
        <time>2023-07-11T10:40:17.000Z</time>
      </trkpt>
      <trkpt lat="45.78279" lon="5.00919">
        <ele>197.54099</ele>
        <time>2023-07-11T10:40:18.000Z</time>
      </trkpt>
      <trkpt lat="45.78276" lon="5.00917">
        <ele>197.52803</ele>
        <time>2023-07-11T10:40:19.000Z</time>
      </trkpt>
      <trkpt lat="45.78273" lon="5.00915">
        <ele>197.51639</ele>
        <time>2023-07-11T10:40:20.000Z</time>
      </trkpt>
      <trkpt lat="45.78269" lon="5.00914">
        <ele>197.51448</ele>
        <time>2023-07-11T10:40:21.000Z</time>
      </trkpt>
      <trkpt lat="45.78265" lon="5.00911">
        <ele>197.45039</ele>
        <time>2023-07-11T10:40:22.000Z</time>
      </trkpt>
      <trkpt lat="45.78262" lon="5.0091">
        <ele>197.53873</ele>
        <time>2023-07-11T10:40:23.000Z</time>
      </trkpt>
      <trkpt lat="45.78258" lon="5.00908">
        <ele>197.59886</ele>
        <time>2023-07-11T10:40:24.000Z</time>
      </trkpt>
      <trkpt lat="45.78255" lon="5.00906">
        <ele>197.66389</ele>
        <time>2023-07-11T10:40:25.000Z</time>
      </trkpt>
      <trkpt lat="45.78252" lon="5.00906">
        <ele>197.75594</ele>
        <time>2023-07-11T10:40:26.000Z</time>
      </trkpt>
      <trkpt lat="45.78249" lon="5.00907">
        <ele>197.85179</ele>
        <time>2023-07-11T10:40:27.000Z</time>
      </trkpt>
      <trkpt lat="45.78247" lon="5.00909">
        <ele>197.96309</ele>
        <time>2023-07-11T10:40:28.000Z</time>
      </trkpt>
      <trkpt lat="45.78245" lon="5.00912">
        <ele>198.08702</ele>
        <time>2023-07-11T10:40:29.000Z</time>
      </trkpt>
      <trkpt lat="45.78244" lon="5.00918">
        <ele>198.21178</ele>
        <time>2023-07-11T10:40:30.000Z</time>
      </trkpt>
      <trkpt lat="45.78244" lon="5.00924">
        <ele>198.30548</ele>
        <time>2023-07-11T10:40:31.000Z</time>
      </trkpt>
      <trkpt lat="45.78244" lon="5.0093">
        <ele>198.39944</ele>
        <time>2023-07-11T10:40:32.000Z</time>
      </trkpt>
      <trkpt lat="45.78244" lon="5.00936">
        <ele>198.47493</ele>
        <time>2023-07-11T10:40:33.000Z</time>
      </trkpt>
      <trkpt lat="45.78244" lon="5.00942">
        <ele>198.54581</ele>
        <time>2023-07-11T10:40:34.000Z</time>
      </trkpt>
      <trkpt lat="45.78242" lon="5.00948">
        <ele>198.62828</ele>
        <time>2023-07-11T10:40:35.000Z</time>
      </trkpt>
      <trkpt lat="45.7824" lon="5.00953">
        <ele>198.72241</ele>
        <time>2023-07-11T10:40:36.000Z</time>
      </trkpt>
      <trkpt lat="45.78238" lon="5.00958">
        <ele>198.80588</ele>
        <time>2023-07-11T10:40:37.000Z</time>
      </trkpt>
      <trkpt lat="45.78236" lon="5.00963">
        <ele>198.86313</ele>
        <time>2023-07-11T10:40:38.000Z</time>
      </trkpt>
      <trkpt lat="45.78233" lon="5.00967">
        <ele>198.94003</ele>
        <time>2023-07-11T10:40:39.000Z</time>
      </trkpt>
      <trkpt lat="45.7823" lon="5.00969">
        <ele>199.03726</ele>
        <time>2023-07-11T10:40:40.000Z</time>
      </trkpt>
      <trkpt lat="45.78225" lon="5.00969">
        <ele>199.12265</ele>
        <time>2023-07-11T10:40:41.000Z</time>
      </trkpt>
      <trkpt lat="45.7822" lon="5.00965">
        <ele>199.25934</ele>
        <time>2023-07-11T10:40:42.000Z</time>
      </trkpt>
      <trkpt lat="45.78216" lon="5.00965">
        <ele>199.37836</ele>
        <time>2023-07-11T10:40:43.000Z</time>
      </trkpt>
      <trkpt lat="45.78211" lon="5.00965">
        <ele>199.46516</ele>
        <time>2023-07-11T10:40:44.000Z</time>
      </trkpt>
      <trkpt lat="45.78207" lon="5.00965">
        <ele>199.54465</ele>
        <time>2023-07-11T10:40:45.000Z</time>
      </trkpt>
      <trkpt lat="45.78202" lon="5.00965">
        <ele>199.63702</ele>
        <time>2023-07-11T10:40:46.000Z</time>
      </trkpt>
      <trkpt lat="45.78197" lon="5.00965">
        <ele>199.6489</ele>
        <time>2023-07-11T10:40:47.000Z</time>
      </trkpt>
      <trkpt lat="45.78191" lon="5.00965">
        <ele>199.67844</ele>
        <time>2023-07-11T10:40:48.000Z</time>
      </trkpt>
      <trkpt lat="45.78186" lon="5.00965">
        <ele>199.70413</ele>
        <time>2023-07-11T10:40:49.000Z</time>
      </trkpt>
      <trkpt lat="45.78181" lon="5.00966">
        <ele>199.74263</ele>
        <time>2023-07-11T10:40:50.000Z</time>
      </trkpt>
      <trkpt lat="45.78175" lon="5.00965">
        <ele>199.80899</ele>
        <time>2023-07-11T10:40:51.000Z</time>
      </trkpt>
      <trkpt lat="45.7817" lon="5.00964">
        <ele>199.85411</ele>
        <time>2023-07-11T10:40:52.000Z</time>
      </trkpt>
      <trkpt lat="45.78164" lon="5.00964">
        <ele>199.92064</ele>
        <time>2023-07-11T10:40:53.000Z</time>
      </trkpt>
      <trkpt lat="45.78159" lon="5.00964">
        <ele>199.97154</ele>
        <time>2023-07-11T10:40:54.000Z</time>
      </trkpt>
      <trkpt lat="45.78154" lon="5.00964">
        <ele>200.03616</ele>
        <time>2023-07-11T10:40:55.000Z</time>
      </trkpt>
      <trkpt lat="45.78148" lon="5.00964">
        <ele>200.06874</ele>
        <time>2023-07-11T10:40:56.000Z</time>
      </trkpt>
      <trkpt lat="45.78143" lon="5.00964">
        <ele>200.09457</ele>
        <time>2023-07-11T10:40:57.000Z</time>
      </trkpt>
      <trkpt lat="45.78137" lon="5.00964">
        <ele>200.14291</ele>
        <time>2023-07-11T10:40:58.000Z</time>
      </trkpt>
      <trkpt lat="45.78132" lon="5.00963">
        <ele>200.17191</ele>
        <time>2023-07-11T10:40:59.000Z</time>
      </trkpt>
      <trkpt lat="45.78126" lon="5.00963">
        <ele>200.17386</ele>
        <time>2023-07-11T10:41:00.000Z</time>
      </trkpt>
      <trkpt lat="45.78122" lon="5.00964">
        <ele>200.17911</ele>
        <time>2023-07-11T10:41:01.000Z</time>
      </trkpt>
      <trkpt lat="45.78117" lon="5.00964">
        <ele>200.12271</ele>
        <time>2023-07-11T10:41:02.000Z</time>
      </trkpt>
      <trkpt lat="45.78113" lon="5.00964">
        <ele>200.06688</ele>
        <time>2023-07-11T10:41:03.000Z</time>
      </trkpt>
      <trkpt lat="45.78109" lon="5.00964">
        <ele>200.04338</ele>
        <time>2023-07-11T10:41:04.000Z</time>
      </trkpt>
      <trkpt lat="45.78105" lon="5.00964">
        <ele>200.02078</ele>
        <time>2023-07-11T10:41:05.000Z</time>
      </trkpt>
      <trkpt lat="45.78101" lon="5.00964">
        <ele>199.9613</ele>
        <time>2023-07-11T10:41:06.000Z</time>
      </trkpt>
      <trkpt lat="45.78097" lon="5.00965">
        <ele>199.99002</ele>
        <time>2023-07-11T10:41:07.000Z</time>
      </trkpt>
      <trkpt lat="45.78093" lon="5.00965">
        <ele>199.99474</ele>
        <time>2023-07-11T10:41:08.000Z</time>
      </trkpt>
      <trkpt lat="45.78088" lon="5.00965">
        <ele>199.99242</ele>
        <time>2023-07-11T10:41:09.000Z</time>
      </trkpt>
      <trkpt lat="45.78084" lon="5.00965">
        <ele>199.98564</ele>
        <time>2023-07-11T10:41:10.000Z</time>
      </trkpt>
      <trkpt lat="45.78079" lon="5.00965">
        <ele>199.9745</ele>
        <time>2023-07-11T10:41:11.000Z</time>
      </trkpt>
      <trkpt lat="45.78075" lon="5.00966">
        <ele>199.98044</ele>
        <time>2023-07-11T10:41:12.000Z</time>
      </trkpt>
      <trkpt lat="45.78071" lon="5.00966">
        <ele>199.98735</ele>
        <time>2023-07-11T10:41:13.000Z</time>
      </trkpt>
      <trkpt lat="45.78066" lon="5.00967">
        <ele>200.01334</ele>
        <time>2023-07-11T10:41:14.000Z</time>
      </trkpt>
      <trkpt lat="45.78062" lon="5.00967">
        <ele>200.00668</ele>
        <time>2023-07-11T10:41:15.000Z</time>
      </trkpt>
      <trkpt lat="45.78058" lon="5.00967">
        <ele>200.02664</ele>
        <time>2023-07-11T10:41:16.000Z</time>
      </trkpt>
      <trkpt lat="45.78055" lon="5.00967">
        <ele>200.02548</ele>
        <time>2023-07-11T10:41:17.000Z</time>
      </trkpt>
      <trkpt lat="45.78052" lon="5.00967">
        <ele>200.02144</ele>
        <time>2023-07-11T10:41:18.000Z</time>
      </trkpt>
      <trkpt lat="45.78049" lon="5.00967">
        <ele>200.00963</ele>
        <time>2023-07-11T10:41:19.000Z</time>
      </trkpt>
      <trkpt lat="45.78047" lon="5.00967">
        <ele>200.03992</ele>
        <time>2023-07-11T10:41:20.000Z</time>
      </trkpt>
      <trkpt lat="45.78045" lon="5.00968">
        <ele>200.08347</ele>
        <time>2023-07-11T10:41:21.000Z</time>
      </trkpt>
      <trkpt lat="45.78042" lon="5.0097">
        <ele>200.18379</ele>
        <time>2023-07-11T10:41:23.000Z</time>
      </trkpt>
      <trkpt lat="45.7804" lon="5.00973">
        <ele>200.27774</ele>
        <time>2023-07-11T10:41:24.000Z</time>
      </trkpt>
      <trkpt lat="45.7804" lon="5.00976">
        <ele>200.37708</ele>
        <time>2023-07-11T10:41:25.000Z</time>
      </trkpt>
      <trkpt lat="45.78039" lon="5.00979">
        <ele>200.48721</ele>
        <time>2023-07-11T10:41:26.000Z</time>
      </trkpt>
      <trkpt lat="45.78039" lon="5.00983">
        <ele>200.60831</ele>
        <time>2023-07-11T10:41:27.000Z</time>
      </trkpt>
      <trkpt lat="45.7804" lon="5.00986">
        <ele>200.75963</ele>
        <time>2023-07-11T10:41:28.000Z</time>
      </trkpt>
      <trkpt lat="45.7804" lon="5.00989">
        <ele>200.81894</ele>
        <time>2023-07-11T10:41:29.000Z</time>
      </trkpt>
      <trkpt lat="45.7804" lon="5.00992">
        <ele>200.8981</ele>
        <time>2023-07-11T10:41:30.000Z</time>
      </trkpt>
      <trkpt lat="45.78041" lon="5.00995">
        <ele>200.96361</ele>
        <time>2023-07-11T10:41:31.000Z</time>
      </trkpt>
      <trkpt lat="45.78041" lon="5.00998">
        <ele>201.03867</ele>
        <time>2023-07-11T10:41:32.000Z</time>
      </trkpt>
      <trkpt lat="45.78042" lon="5.01001">
        <ele>201.08919</ele>
        <time>2023-07-11T10:41:33.000Z</time>
      </trkpt>
      <trkpt lat="45.78043" lon="5.01003">
        <ele>201.11452</ele>
        <time>2023-07-11T10:41:34.000Z</time>
      </trkpt>
      <trkpt lat="45.78044" lon="5.01005">
        <ele>201.13298</ele>
        <time>2023-07-11T10:41:35.000Z</time>
      </trkpt>
      <trkpt lat="45.78046" lon="5.01006">
        <ele>201.14957</ele>
        <time>2023-07-11T10:41:36.000Z</time>
      </trkpt>
      <trkpt lat="45.78049" lon="5.01007">
        <ele>201.14505</ele>
        <time>2023-07-11T10:41:38.000Z</time>
      </trkpt>
    </trkseg>
  </trk>
</gpx>